<?xml version="1.0" encoding="UTF-8"?>
<gpx xmlns="http://www.topografix.com/GPX/1/1"
     creator="GpsDump 4.71"
     version="1.1"
     xmlns:xsi="http://www.w3.org/2001/XMLSchema-instance"
     xsi:schemaLocation="http://www.topografix.com/GPX/1/1 http://www.topografix.com/GPX/1/1/gpx.xsd">
  <metadata>
    <link href="http://www.gethome.no/stein.sorensen/">
      <text>GPS dump for www.flightlog.org</text>
    </link>
    <time>2013-07-21T12:07:08Z</time>
    <bounds minlat="39.591433" minlon="-4.918550" maxlat="40.265450" maxlon="-4.237333"/>
  </metadata>
  <trk>
    <name>Track 001</name>
    <trkseg>
      <trkpt lat="40.256367" lon="-4.905850">
        <ele>1253.0</ele>
        <time>2013-07-03T11:35:42Z</time>
      </trkpt>
      <trkpt lat="40.256333" lon="-4.905917">
        <ele>1253.0</ele>
        <time>2013-07-03T11:35:43Z</time>
      </trkpt>
      <trkpt lat="40.256283" lon="-4.905950">
        <ele>1253.0</ele>
        <time>2013-07-03T11:35:44Z</time>
      </trkpt>
      <trkpt lat="40.256217" lon="-4.905983">
        <ele>1254.0</ele>
        <time>2013-07-03T11:35:45Z</time>
      </trkpt>
      <trkpt lat="40.256167" lon="-4.906017">
        <ele>1253.0</ele>
        <time>2013-07-03T11:35:46Z</time>
      </trkpt>
      <trkpt lat="40.256133" lon="-4.906067">
        <ele>1253.0</ele>
        <time>2013-07-03T11:35:47Z</time>
      </trkpt>
      <trkpt lat="40.256100" lon="-4.906133">
        <ele>1253.0</ele>
        <time>2013-07-03T11:35:48Z</time>
      </trkpt>
      <trkpt lat="40.256083" lon="-4.906217">
        <ele>1253.0</ele>
        <time>2013-07-03T11:35:49Z</time>
      </trkpt>
      <trkpt lat="40.256083" lon="-4.906267">
        <ele>1254.0</ele>
        <time>2013-07-03T11:35:50Z</time>
      </trkpt>
      <trkpt lat="40.256067" lon="-4.906317">
        <ele>1254.0</ele>
        <time>2013-07-03T11:35:51Z</time>
      </trkpt>
      <trkpt lat="40.256033" lon="-4.906383">
        <ele>1254.0</ele>
        <time>2013-07-03T11:35:52Z</time>
      </trkpt>
      <trkpt lat="40.255983" lon="-4.906450">
        <ele>1254.0</ele>
        <time>2013-07-03T11:35:53Z</time>
      </trkpt>
      <trkpt lat="40.255917" lon="-4.906517">
        <ele>1255.0</ele>
        <time>2013-07-03T11:35:54Z</time>
      </trkpt>
      <trkpt lat="40.255883" lon="-4.906567">
        <ele>1257.0</ele>
        <time>2013-07-03T11:35:55Z</time>
      </trkpt>
      <trkpt lat="40.255833" lon="-4.906600">
        <ele>1258.0</ele>
        <time>2013-07-03T11:35:56Z</time>
      </trkpt>
      <trkpt lat="40.255783" lon="-4.906633">
        <ele>1260.0</ele>
        <time>2013-07-03T11:35:57Z</time>
      </trkpt>
      <trkpt lat="40.255750" lon="-4.906633">
        <ele>1260.0</ele>
        <time>2013-07-03T11:35:58Z</time>
      </trkpt>
      <trkpt lat="40.255700" lon="-4.906650">
        <ele>1261.0</ele>
        <time>2013-07-03T11:35:59Z</time>
      </trkpt>
      <trkpt lat="40.255650" lon="-4.906667">
        <ele>1261.0</ele>
        <time>2013-07-03T11:36:00Z</time>
      </trkpt>
      <trkpt lat="40.255600" lon="-4.906667">
        <ele>1261.0</ele>
        <time>2013-07-03T11:36:01Z</time>
      </trkpt>
      <trkpt lat="40.255550" lon="-4.906667">
        <ele>1260.0</ele>
        <time>2013-07-03T11:36:02Z</time>
      </trkpt>
      <trkpt lat="40.255500" lon="-4.906683">
        <ele>1260.0</ele>
        <time>2013-07-03T11:36:03Z</time>
      </trkpt>
      <trkpt lat="40.255450" lon="-4.906700">
        <ele>1260.0</ele>
        <time>2013-07-03T11:36:04Z</time>
      </trkpt>
      <trkpt lat="40.255400" lon="-4.906733">
        <ele>1261.0</ele>
        <time>2013-07-03T11:36:05Z</time>
      </trkpt>
      <trkpt lat="40.255367" lon="-4.906783">
        <ele>1261.0</ele>
        <time>2013-07-03T11:36:06Z</time>
      </trkpt>
      <trkpt lat="40.255317" lon="-4.906833">
        <ele>1261.0</ele>
        <time>2013-07-03T11:36:07Z</time>
      </trkpt>
      <trkpt lat="40.255283" lon="-4.906883">
        <ele>1261.0</ele>
        <time>2013-07-03T11:36:08Z</time>
      </trkpt>
      <trkpt lat="40.255250" lon="-4.906933">
        <ele>1261.0</ele>
        <time>2013-07-03T11:36:09Z</time>
      </trkpt>
      <trkpt lat="40.255217" lon="-4.907000">
        <ele>1262.0</ele>
        <time>2013-07-03T11:36:10Z</time>
      </trkpt>
      <trkpt lat="40.255183" lon="-4.907067">
        <ele>1263.0</ele>
        <time>2013-07-03T11:36:11Z</time>
      </trkpt>
      <trkpt lat="40.255167" lon="-4.907133">
        <ele>1264.0</ele>
        <time>2013-07-03T11:36:12Z</time>
      </trkpt>
      <trkpt lat="40.255150" lon="-4.907183">
        <ele>1265.0</ele>
        <time>2013-07-03T11:36:13Z</time>
      </trkpt>
      <trkpt lat="40.255150" lon="-4.907250">
        <ele>1267.0</ele>
        <time>2013-07-03T11:36:14Z</time>
      </trkpt>
      <trkpt lat="40.255133" lon="-4.907333">
        <ele>1268.0</ele>
        <time>2013-07-03T11:36:15Z</time>
      </trkpt>
      <trkpt lat="40.255117" lon="-4.907400">
        <ele>1271.0</ele>
        <time>2013-07-03T11:36:16Z</time>
      </trkpt>
      <trkpt lat="40.255117" lon="-4.907450">
        <ele>1274.0</ele>
        <time>2013-07-03T11:36:17Z</time>
      </trkpt>
      <trkpt lat="40.255100" lon="-4.907483">
        <ele>1276.0</ele>
        <time>2013-07-03T11:36:18Z</time>
      </trkpt>
      <trkpt lat="40.255100" lon="-4.907533">
        <ele>1278.0</ele>
        <time>2013-07-03T11:36:19Z</time>
      </trkpt>
      <trkpt lat="40.255083" lon="-4.907583">
        <ele>1280.0</ele>
        <time>2013-07-03T11:36:20Z</time>
      </trkpt>
      <trkpt lat="40.255067" lon="-4.907633">
        <ele>1282.0</ele>
        <time>2013-07-03T11:36:21Z</time>
      </trkpt>
      <trkpt lat="40.255050" lon="-4.907700">
        <ele>1285.0</ele>
        <time>2013-07-03T11:36:22Z</time>
      </trkpt>
      <trkpt lat="40.255050" lon="-4.907733">
        <ele>1287.0</ele>
        <time>2013-07-03T11:36:23Z</time>
      </trkpt>
      <trkpt lat="40.255050" lon="-4.907783">
        <ele>1288.0</ele>
        <time>2013-07-03T11:36:24Z</time>
      </trkpt>
      <trkpt lat="40.255033" lon="-4.907817">
        <ele>1290.0</ele>
        <time>2013-07-03T11:36:25Z</time>
      </trkpt>
      <trkpt lat="40.255033" lon="-4.907883">
        <ele>1291.0</ele>
        <time>2013-07-03T11:36:26Z</time>
      </trkpt>
      <trkpt lat="40.255017" lon="-4.907933">
        <ele>1292.0</ele>
        <time>2013-07-03T11:36:27Z</time>
      </trkpt>
      <trkpt lat="40.255017" lon="-4.908000">
        <ele>1293.0</ele>
        <time>2013-07-03T11:36:28Z</time>
      </trkpt>
      <trkpt lat="40.255000" lon="-4.908083">
        <ele>1294.0</ele>
        <time>2013-07-03T11:36:29Z</time>
      </trkpt>
      <trkpt lat="40.255000" lon="-4.908150">
        <ele>1295.0</ele>
        <time>2013-07-03T11:36:30Z</time>
      </trkpt>
      <trkpt lat="40.255000" lon="-4.908233">
        <ele>1296.0</ele>
        <time>2013-07-03T11:36:31Z</time>
      </trkpt>
      <trkpt lat="40.255000" lon="-4.908300">
        <ele>1296.0</ele>
        <time>2013-07-03T11:36:32Z</time>
      </trkpt>
      <trkpt lat="40.255000" lon="-4.908367">
        <ele>1298.0</ele>
        <time>2013-07-03T11:36:33Z</time>
      </trkpt>
      <trkpt lat="40.254983" lon="-4.908433">
        <ele>1299.0</ele>
        <time>2013-07-03T11:36:34Z</time>
      </trkpt>
      <trkpt lat="40.254950" lon="-4.908483">
        <ele>1301.0</ele>
        <time>2013-07-03T11:36:35Z</time>
      </trkpt>
      <trkpt lat="40.254933" lon="-4.908550">
        <ele>1302.0</ele>
        <time>2013-07-03T11:36:36Z</time>
      </trkpt>
      <trkpt lat="40.254900" lon="-4.908583">
        <ele>1303.0</ele>
        <time>2013-07-03T11:36:37Z</time>
      </trkpt>
      <trkpt lat="40.254867" lon="-4.908617">
        <ele>1305.0</ele>
        <time>2013-07-03T11:36:38Z</time>
      </trkpt>
      <trkpt lat="40.254817" lon="-4.908617">
        <ele>1306.0</ele>
        <time>2013-07-03T11:36:39Z</time>
      </trkpt>
      <trkpt lat="40.254783" lon="-4.908600">
        <ele>1306.0</ele>
        <time>2013-07-03T11:36:40Z</time>
      </trkpt>
      <trkpt lat="40.254750" lon="-4.908550">
        <ele>1307.0</ele>
        <time>2013-07-03T11:36:41Z</time>
      </trkpt>
      <trkpt lat="40.254733" lon="-4.908500">
        <ele>1307.0</ele>
        <time>2013-07-03T11:36:42Z</time>
      </trkpt>
      <trkpt lat="40.254733" lon="-4.908417">
        <ele>1307.0</ele>
        <time>2013-07-03T11:36:43Z</time>
      </trkpt>
      <trkpt lat="40.254750" lon="-4.908317">
        <ele>1307.0</ele>
        <time>2013-07-03T11:36:44Z</time>
      </trkpt>
      <trkpt lat="40.254800" lon="-4.908233">
        <ele>1307.0</ele>
        <time>2013-07-03T11:36:45Z</time>
      </trkpt>
      <trkpt lat="40.254883" lon="-4.908133">
        <ele>1307.0</ele>
        <time>2013-07-03T11:36:46Z</time>
      </trkpt>
      <trkpt lat="40.254967" lon="-4.908083">
        <ele>1308.0</ele>
        <time>2013-07-03T11:36:47Z</time>
      </trkpt>
      <trkpt lat="40.255050" lon="-4.908033">
        <ele>1309.0</ele>
        <time>2013-07-03T11:36:48Z</time>
      </trkpt>
      <trkpt lat="40.255150" lon="-4.908017">
        <ele>1311.0</ele>
        <time>2013-07-03T11:36:49Z</time>
      </trkpt>
      <trkpt lat="40.255233" lon="-4.908000">
        <ele>1311.0</ele>
        <time>2013-07-03T11:36:50Z</time>
      </trkpt>
      <trkpt lat="40.255317" lon="-4.907983">
        <ele>1311.0</ele>
        <time>2013-07-03T11:36:51Z</time>
      </trkpt>
      <trkpt lat="40.255417" lon="-4.907967">
        <ele>1311.0</ele>
        <time>2013-07-03T11:36:52Z</time>
      </trkpt>
      <trkpt lat="40.255533" lon="-4.907967">
        <ele>1311.0</ele>
        <time>2013-07-03T11:36:53Z</time>
      </trkpt>
      <trkpt lat="40.255650" lon="-4.907967">
        <ele>1311.0</ele>
        <time>2013-07-03T11:36:54Z</time>
      </trkpt>
      <trkpt lat="40.255767" lon="-4.908000">
        <ele>1312.0</ele>
        <time>2013-07-03T11:36:55Z</time>
      </trkpt>
      <trkpt lat="40.255867" lon="-4.908067">
        <ele>1314.0</ele>
        <time>2013-07-03T11:36:56Z</time>
      </trkpt>
      <trkpt lat="40.255950" lon="-4.908133">
        <ele>1317.0</ele>
        <time>2013-07-03T11:36:57Z</time>
      </trkpt>
      <trkpt lat="40.256000" lon="-4.908217">
        <ele>1318.0</ele>
        <time>2013-07-03T11:36:58Z</time>
      </trkpt>
      <trkpt lat="40.256033" lon="-4.908300">
        <ele>1320.0</ele>
        <time>2013-07-03T11:36:59Z</time>
      </trkpt>
      <trkpt lat="40.256050" lon="-4.908367">
        <ele>1321.0</ele>
        <time>2013-07-03T11:37:00Z</time>
      </trkpt>
      <trkpt lat="40.256050" lon="-4.908433">
        <ele>1321.0</ele>
        <time>2013-07-03T11:37:01Z</time>
      </trkpt>
      <trkpt lat="40.256033" lon="-4.908500">
        <ele>1321.0</ele>
        <time>2013-07-03T11:37:02Z</time>
      </trkpt>
      <trkpt lat="40.256000" lon="-4.908567">
        <ele>1320.0</ele>
        <time>2013-07-03T11:37:03Z</time>
      </trkpt>
      <trkpt lat="40.255950" lon="-4.908633">
        <ele>1321.0</ele>
        <time>2013-07-03T11:37:04Z</time>
      </trkpt>
      <trkpt lat="40.255900" lon="-4.908683">
        <ele>1322.0</ele>
        <time>2013-07-03T11:37:05Z</time>
      </trkpt>
      <trkpt lat="40.255850" lon="-4.908733">
        <ele>1324.0</ele>
        <time>2013-07-03T11:37:06Z</time>
      </trkpt>
      <trkpt lat="40.255817" lon="-4.908767">
        <ele>1326.0</ele>
        <time>2013-07-03T11:37:07Z</time>
      </trkpt>
      <trkpt lat="40.255767" lon="-4.908783">
        <ele>1327.0</ele>
        <time>2013-07-03T11:37:08Z</time>
      </trkpt>
      <trkpt lat="40.255733" lon="-4.908800">
        <ele>1329.0</ele>
        <time>2013-07-03T11:37:09Z</time>
      </trkpt>
      <trkpt lat="40.255700" lon="-4.908817">
        <ele>1330.0</ele>
        <time>2013-07-03T11:37:10Z</time>
      </trkpt>
      <trkpt lat="40.255667" lon="-4.908817">
        <ele>1330.0</ele>
        <time>2013-07-03T11:37:11Z</time>
      </trkpt>
      <trkpt lat="40.255617" lon="-4.908817">
        <ele>1330.0</ele>
        <time>2013-07-03T11:37:12Z</time>
      </trkpt>
      <trkpt lat="40.255567" lon="-4.908800">
        <ele>1330.0</ele>
        <time>2013-07-03T11:37:13Z</time>
      </trkpt>
      <trkpt lat="40.255517" lon="-4.908750">
        <ele>1329.0</ele>
        <time>2013-07-03T11:37:14Z</time>
      </trkpt>
      <trkpt lat="40.255483" lon="-4.908683">
        <ele>1330.0</ele>
        <time>2013-07-03T11:37:15Z</time>
      </trkpt>
      <trkpt lat="40.255483" lon="-4.908583">
        <ele>1330.0</ele>
        <time>2013-07-03T11:37:16Z</time>
      </trkpt>
      <trkpt lat="40.255517" lon="-4.908500">
        <ele>1331.0</ele>
        <time>2013-07-03T11:37:17Z</time>
      </trkpt>
      <trkpt lat="40.255550" lon="-4.908417">
        <ele>1332.0</ele>
        <time>2013-07-03T11:37:18Z</time>
      </trkpt>
      <trkpt lat="40.255600" lon="-4.908350">
        <ele>1332.0</ele>
        <time>2013-07-03T11:37:19Z</time>
      </trkpt>
      <trkpt lat="40.255650" lon="-4.908267">
        <ele>1331.0</ele>
        <time>2013-07-03T11:37:20Z</time>
      </trkpt>
      <trkpt lat="40.255750" lon="-4.908217">
        <ele>1330.0</ele>
        <time>2013-07-03T11:37:21Z</time>
      </trkpt>
      <trkpt lat="40.255850" lon="-4.908167">
        <ele>1328.0</ele>
        <time>2013-07-03T11:37:22Z</time>
      </trkpt>
      <trkpt lat="40.255967" lon="-4.908183">
        <ele>1327.0</ele>
        <time>2013-07-03T11:37:23Z</time>
      </trkpt>
      <trkpt lat="40.256067" lon="-4.908200">
        <ele>1327.0</ele>
        <time>2013-07-03T11:37:24Z</time>
      </trkpt>
      <trkpt lat="40.256183" lon="-4.908233">
        <ele>1328.0</ele>
        <time>2013-07-03T11:37:25Z</time>
      </trkpt>
      <trkpt lat="40.256283" lon="-4.908283">
        <ele>1331.0</ele>
        <time>2013-07-03T11:37:26Z</time>
      </trkpt>
      <trkpt lat="40.256367" lon="-4.908333">
        <ele>1333.0</ele>
        <time>2013-07-03T11:37:27Z</time>
      </trkpt>
      <trkpt lat="40.256450" lon="-4.908383">
        <ele>1334.0</ele>
        <time>2013-07-03T11:37:28Z</time>
      </trkpt>
      <trkpt lat="40.256517" lon="-4.908433">
        <ele>1335.0</ele>
        <time>2013-07-03T11:37:29Z</time>
      </trkpt>
      <trkpt lat="40.256583" lon="-4.908483">
        <ele>1335.0</ele>
        <time>2013-07-03T11:37:30Z</time>
      </trkpt>
      <trkpt lat="40.256650" lon="-4.908583">
        <ele>1335.0</ele>
        <time>2013-07-03T11:37:31Z</time>
      </trkpt>
      <trkpt lat="40.256700" lon="-4.908683">
        <ele>1335.0</ele>
        <time>2013-07-03T11:37:32Z</time>
      </trkpt>
      <trkpt lat="40.256733" lon="-4.908783">
        <ele>1336.0</ele>
        <time>2013-07-03T11:37:33Z</time>
      </trkpt>
      <trkpt lat="40.256750" lon="-4.908867">
        <ele>1338.0</ele>
        <time>2013-07-03T11:37:34Z</time>
      </trkpt>
      <trkpt lat="40.256767" lon="-4.908933">
        <ele>1339.0</ele>
        <time>2013-07-03T11:37:35Z</time>
      </trkpt>
      <trkpt lat="40.256783" lon="-4.909000">
        <ele>1340.0</ele>
        <time>2013-07-03T11:37:36Z</time>
      </trkpt>
      <trkpt lat="40.256783" lon="-4.909067">
        <ele>1341.0</ele>
        <time>2013-07-03T11:37:37Z</time>
      </trkpt>
      <trkpt lat="40.256783" lon="-4.909133">
        <ele>1341.0</ele>
        <time>2013-07-03T11:37:38Z</time>
      </trkpt>
      <trkpt lat="40.256767" lon="-4.909200">
        <ele>1341.0</ele>
        <time>2013-07-03T11:37:39Z</time>
      </trkpt>
      <trkpt lat="40.256733" lon="-4.909267">
        <ele>1341.0</ele>
        <time>2013-07-03T11:37:40Z</time>
      </trkpt>
      <trkpt lat="40.256683" lon="-4.909300">
        <ele>1341.0</ele>
        <time>2013-07-03T11:37:41Z</time>
      </trkpt>
      <trkpt lat="40.256633" lon="-4.909317">
        <ele>1341.0</ele>
        <time>2013-07-03T11:37:42Z</time>
      </trkpt>
      <trkpt lat="40.256583" lon="-4.909300">
        <ele>1341.0</ele>
        <time>2013-07-03T11:37:43Z</time>
      </trkpt>
      <trkpt lat="40.256533" lon="-4.909283">
        <ele>1340.0</ele>
        <time>2013-07-03T11:37:44Z</time>
      </trkpt>
      <trkpt lat="40.256483" lon="-4.909250">
        <ele>1340.0</ele>
        <time>2013-07-03T11:37:45Z</time>
      </trkpt>
      <trkpt lat="40.256450" lon="-4.909183">
        <ele>1339.0</ele>
        <time>2013-07-03T11:37:46Z</time>
      </trkpt>
      <trkpt lat="40.256417" lon="-4.909100">
        <ele>1338.0</ele>
        <time>2013-07-03T11:37:47Z</time>
      </trkpt>
      <trkpt lat="40.256417" lon="-4.909000">
        <ele>1337.0</ele>
        <time>2013-07-03T11:37:48Z</time>
      </trkpt>
      <trkpt lat="40.256417" lon="-4.908917">
        <ele>1336.0</ele>
        <time>2013-07-03T11:37:49Z</time>
      </trkpt>
      <trkpt lat="40.256433" lon="-4.908800">
        <ele>1336.0</ele>
        <time>2013-07-03T11:37:50Z</time>
      </trkpt>
      <trkpt lat="40.256450" lon="-4.908700">
        <ele>1335.0</ele>
        <time>2013-07-03T11:37:51Z</time>
      </trkpt>
      <trkpt lat="40.256467" lon="-4.908600">
        <ele>1334.0</ele>
        <time>2013-07-03T11:37:52Z</time>
      </trkpt>
      <trkpt lat="40.256467" lon="-4.908483">
        <ele>1335.0</ele>
        <time>2013-07-03T11:37:53Z</time>
      </trkpt>
      <trkpt lat="40.256467" lon="-4.908383">
        <ele>1334.0</ele>
        <time>2013-07-03T11:37:54Z</time>
      </trkpt>
      <trkpt lat="40.256467" lon="-4.908300">
        <ele>1334.0</ele>
        <time>2013-07-03T11:37:55Z</time>
      </trkpt>
      <trkpt lat="40.256483" lon="-4.908200">
        <ele>1334.0</ele>
        <time>2013-07-03T11:37:56Z</time>
      </trkpt>
      <trkpt lat="40.256500" lon="-4.908100">
        <ele>1334.0</ele>
        <time>2013-07-03T11:37:57Z</time>
      </trkpt>
      <trkpt lat="40.256533" lon="-4.908017">
        <ele>1333.0</ele>
        <time>2013-07-03T11:37:58Z</time>
      </trkpt>
      <trkpt lat="40.256583" lon="-4.907917">
        <ele>1333.0</ele>
        <time>2013-07-03T11:37:59Z</time>
      </trkpt>
      <trkpt lat="40.256650" lon="-4.907817">
        <ele>1333.0</ele>
        <time>2013-07-03T11:38:00Z</time>
      </trkpt>
      <trkpt lat="40.256733" lon="-4.907750">
        <ele>1333.0</ele>
        <time>2013-07-03T11:38:01Z</time>
      </trkpt>
      <trkpt lat="40.256833" lon="-4.907700">
        <ele>1333.0</ele>
        <time>2013-07-03T11:38:02Z</time>
      </trkpt>
      <trkpt lat="40.256950" lon="-4.907717">
        <ele>1333.0</ele>
        <time>2013-07-03T11:38:03Z</time>
      </trkpt>
      <trkpt lat="40.257033" lon="-4.907767">
        <ele>1333.0</ele>
        <time>2013-07-03T11:38:04Z</time>
      </trkpt>
      <trkpt lat="40.257117" lon="-4.907833">
        <ele>1334.0</ele>
        <time>2013-07-03T11:38:05Z</time>
      </trkpt>
      <trkpt lat="40.257183" lon="-4.907883">
        <ele>1336.0</ele>
        <time>2013-07-03T11:38:06Z</time>
      </trkpt>
      <trkpt lat="40.257267" lon="-4.907950">
        <ele>1336.0</ele>
        <time>2013-07-03T11:38:07Z</time>
      </trkpt>
      <trkpt lat="40.257333" lon="-4.908000">
        <ele>1337.0</ele>
        <time>2013-07-03T11:38:08Z</time>
      </trkpt>
      <trkpt lat="40.257400" lon="-4.908067">
        <ele>1336.0</ele>
        <time>2013-07-03T11:38:09Z</time>
      </trkpt>
      <trkpt lat="40.257450" lon="-4.908150">
        <ele>1336.0</ele>
        <time>2013-07-03T11:38:10Z</time>
      </trkpt>
      <trkpt lat="40.257500" lon="-4.908233">
        <ele>1335.0</ele>
        <time>2013-07-03T11:38:11Z</time>
      </trkpt>
      <trkpt lat="40.257533" lon="-4.908333">
        <ele>1334.0</ele>
        <time>2013-07-03T11:38:12Z</time>
      </trkpt>
      <trkpt lat="40.257567" lon="-4.908433">
        <ele>1333.0</ele>
        <time>2013-07-03T11:38:13Z</time>
      </trkpt>
      <trkpt lat="40.257600" lon="-4.908533">
        <ele>1334.0</ele>
        <time>2013-07-03T11:38:14Z</time>
      </trkpt>
      <trkpt lat="40.257633" lon="-4.908633">
        <ele>1334.0</ele>
        <time>2013-07-03T11:38:15Z</time>
      </trkpt>
      <trkpt lat="40.257667" lon="-4.908717">
        <ele>1335.0</ele>
        <time>2013-07-03T11:38:16Z</time>
      </trkpt>
      <trkpt lat="40.257700" lon="-4.908817">
        <ele>1335.0</ele>
        <time>2013-07-03T11:38:17Z</time>
      </trkpt>
      <trkpt lat="40.257733" lon="-4.908900">
        <ele>1334.0</ele>
        <time>2013-07-03T11:38:18Z</time>
      </trkpt>
      <trkpt lat="40.257750" lon="-4.909000">
        <ele>1333.0</ele>
        <time>2013-07-03T11:38:19Z</time>
      </trkpt>
      <trkpt lat="40.257733" lon="-4.909083">
        <ele>1332.0</ele>
        <time>2013-07-03T11:38:20Z</time>
      </trkpt>
      <trkpt lat="40.257717" lon="-4.909183">
        <ele>1332.0</ele>
        <time>2013-07-03T11:38:21Z</time>
      </trkpt>
      <trkpt lat="40.257683" lon="-4.909267">
        <ele>1331.0</ele>
        <time>2013-07-03T11:38:22Z</time>
      </trkpt>
      <trkpt lat="40.257633" lon="-4.909333">
        <ele>1331.0</ele>
        <time>2013-07-03T11:38:23Z</time>
      </trkpt>
      <trkpt lat="40.257600" lon="-4.909400">
        <ele>1331.0</ele>
        <time>2013-07-03T11:38:24Z</time>
      </trkpt>
      <trkpt lat="40.257567" lon="-4.909450">
        <ele>1331.0</ele>
        <time>2013-07-03T11:38:25Z</time>
      </trkpt>
      <trkpt lat="40.257517" lon="-4.909500">
        <ele>1331.0</ele>
        <time>2013-07-03T11:38:26Z</time>
      </trkpt>
      <trkpt lat="40.257467" lon="-4.909550">
        <ele>1330.0</ele>
        <time>2013-07-03T11:38:27Z</time>
      </trkpt>
      <trkpt lat="40.257417" lon="-4.909600">
        <ele>1330.0</ele>
        <time>2013-07-03T11:38:28Z</time>
      </trkpt>
      <trkpt lat="40.257350" lon="-4.909633">
        <ele>1329.0</ele>
        <time>2013-07-03T11:38:29Z</time>
      </trkpt>
      <trkpt lat="40.257283" lon="-4.909650">
        <ele>1329.0</ele>
        <time>2013-07-03T11:38:30Z</time>
      </trkpt>
      <trkpt lat="40.257233" lon="-4.909667">
        <ele>1329.0</ele>
        <time>2013-07-03T11:38:31Z</time>
      </trkpt>
      <trkpt lat="40.257167" lon="-4.909667">
        <ele>1329.0</ele>
        <time>2013-07-03T11:38:32Z</time>
      </trkpt>
      <trkpt lat="40.257117" lon="-4.909667">
        <ele>1329.0</ele>
        <time>2013-07-03T11:38:33Z</time>
      </trkpt>
      <trkpt lat="40.257050" lon="-4.909683">
        <ele>1329.0</ele>
        <time>2013-07-03T11:38:34Z</time>
      </trkpt>
      <trkpt lat="40.257000" lon="-4.909700">
        <ele>1329.0</ele>
        <time>2013-07-03T11:38:35Z</time>
      </trkpt>
      <trkpt lat="40.256933" lon="-4.909733">
        <ele>1330.0</ele>
        <time>2013-07-03T11:38:36Z</time>
      </trkpt>
      <trkpt lat="40.256883" lon="-4.909750">
        <ele>1331.0</ele>
        <time>2013-07-03T11:38:37Z</time>
      </trkpt>
      <trkpt lat="40.256833" lon="-4.909767">
        <ele>1331.0</ele>
        <time>2013-07-03T11:38:38Z</time>
      </trkpt>
      <trkpt lat="40.256783" lon="-4.909800">
        <ele>1332.0</ele>
        <time>2013-07-03T11:38:39Z</time>
      </trkpt>
      <trkpt lat="40.256733" lon="-4.909817">
        <ele>1333.0</ele>
        <time>2013-07-03T11:38:40Z</time>
      </trkpt>
      <trkpt lat="40.256683" lon="-4.909850">
        <ele>1335.0</ele>
        <time>2013-07-03T11:38:41Z</time>
      </trkpt>
      <trkpt lat="40.256633" lon="-4.909867">
        <ele>1337.0</ele>
        <time>2013-07-03T11:38:42Z</time>
      </trkpt>
      <trkpt lat="40.256583" lon="-4.909883">
        <ele>1338.0</ele>
        <time>2013-07-03T11:38:43Z</time>
      </trkpt>
      <trkpt lat="40.256550" lon="-4.909900">
        <ele>1340.0</ele>
        <time>2013-07-03T11:38:44Z</time>
      </trkpt>
      <trkpt lat="40.256517" lon="-4.909917">
        <ele>1341.0</ele>
        <time>2013-07-03T11:38:45Z</time>
      </trkpt>
      <trkpt lat="40.256483" lon="-4.909917">
        <ele>1342.0</ele>
        <time>2013-07-03T11:38:46Z</time>
      </trkpt>
      <trkpt lat="40.256433" lon="-4.909933">
        <ele>1342.0</ele>
        <time>2013-07-03T11:38:47Z</time>
      </trkpt>
      <trkpt lat="40.256400" lon="-4.909933">
        <ele>1342.0</ele>
        <time>2013-07-03T11:38:48Z</time>
      </trkpt>
      <trkpt lat="40.256350" lon="-4.909933">
        <ele>1341.0</ele>
        <time>2013-07-03T11:38:49Z</time>
      </trkpt>
      <trkpt lat="40.256283" lon="-4.909917">
        <ele>1341.0</ele>
        <time>2013-07-03T11:38:50Z</time>
      </trkpt>
      <trkpt lat="40.256217" lon="-4.909900">
        <ele>1341.0</ele>
        <time>2013-07-03T11:38:51Z</time>
      </trkpt>
      <trkpt lat="40.256150" lon="-4.909900">
        <ele>1341.0</ele>
        <time>2013-07-03T11:38:52Z</time>
      </trkpt>
      <trkpt lat="40.256100" lon="-4.909883">
        <ele>1342.0</ele>
        <time>2013-07-03T11:38:53Z</time>
      </trkpt>
      <trkpt lat="40.256033" lon="-4.909883">
        <ele>1343.0</ele>
        <time>2013-07-03T11:38:54Z</time>
      </trkpt>
      <trkpt lat="40.255983" lon="-4.909883">
        <ele>1344.0</ele>
        <time>2013-07-03T11:38:55Z</time>
      </trkpt>
      <trkpt lat="40.255950" lon="-4.909867">
        <ele>1344.0</ele>
        <time>2013-07-03T11:38:56Z</time>
      </trkpt>
      <trkpt lat="40.255900" lon="-4.909833">
        <ele>1344.0</ele>
        <time>2013-07-03T11:38:57Z</time>
      </trkpt>
      <trkpt lat="40.255867" lon="-4.909800">
        <ele>1345.0</ele>
        <time>2013-07-03T11:38:58Z</time>
      </trkpt>
      <trkpt lat="40.255850" lon="-4.909717">
        <ele>1343.0</ele>
        <time>2013-07-03T11:38:59Z</time>
      </trkpt>
      <trkpt lat="40.255850" lon="-4.909633">
        <ele>1342.0</ele>
        <time>2013-07-03T11:39:00Z</time>
      </trkpt>
      <trkpt lat="40.255850" lon="-4.909533">
        <ele>1342.0</ele>
        <time>2013-07-03T11:39:01Z</time>
      </trkpt>
      <trkpt lat="40.255850" lon="-4.909417">
        <ele>1343.0</ele>
        <time>2013-07-03T11:39:02Z</time>
      </trkpt>
      <trkpt lat="40.255867" lon="-4.909317">
        <ele>1345.0</ele>
        <time>2013-07-03T11:39:03Z</time>
      </trkpt>
      <trkpt lat="40.255883" lon="-4.909250">
        <ele>1347.0</ele>
        <time>2013-07-03T11:39:04Z</time>
      </trkpt>
      <trkpt lat="40.255883" lon="-4.909183">
        <ele>1349.0</ele>
        <time>2013-07-03T11:39:05Z</time>
      </trkpt>
      <trkpt lat="40.255883" lon="-4.909100">
        <ele>1349.0</ele>
        <time>2013-07-03T11:39:06Z</time>
      </trkpt>
      <trkpt lat="40.255867" lon="-4.909017">
        <ele>1349.0</ele>
        <time>2013-07-03T11:39:07Z</time>
      </trkpt>
      <trkpt lat="40.255883" lon="-4.908917">
        <ele>1349.0</ele>
        <time>2013-07-03T11:39:08Z</time>
      </trkpt>
      <trkpt lat="40.255950" lon="-4.908800">
        <ele>1348.0</ele>
        <time>2013-07-03T11:39:09Z</time>
      </trkpt>
      <trkpt lat="40.256033" lon="-4.908700">
        <ele>1347.0</ele>
        <time>2013-07-03T11:39:10Z</time>
      </trkpt>
      <trkpt lat="40.256133" lon="-4.908650">
        <ele>1348.0</ele>
        <time>2013-07-03T11:39:11Z</time>
      </trkpt>
      <trkpt lat="40.256250" lon="-4.908633">
        <ele>1348.0</ele>
        <time>2013-07-03T11:39:12Z</time>
      </trkpt>
      <trkpt lat="40.256350" lon="-4.908650">
        <ele>1349.0</ele>
        <time>2013-07-03T11:39:13Z</time>
      </trkpt>
      <trkpt lat="40.256450" lon="-4.908667">
        <ele>1350.0</ele>
        <time>2013-07-03T11:39:14Z</time>
      </trkpt>
      <trkpt lat="40.256533" lon="-4.908700">
        <ele>1350.0</ele>
        <time>2013-07-03T11:39:15Z</time>
      </trkpt>
      <trkpt lat="40.256633" lon="-4.908733">
        <ele>1351.0</ele>
        <time>2013-07-03T11:39:16Z</time>
      </trkpt>
      <trkpt lat="40.256717" lon="-4.908800">
        <ele>1352.0</ele>
        <time>2013-07-03T11:39:17Z</time>
      </trkpt>
      <trkpt lat="40.256800" lon="-4.908883">
        <ele>1353.0</ele>
        <time>2013-07-03T11:39:18Z</time>
      </trkpt>
      <trkpt lat="40.256867" lon="-4.908983">
        <ele>1354.0</ele>
        <time>2013-07-03T11:39:19Z</time>
      </trkpt>
      <trkpt lat="40.256917" lon="-4.909083">
        <ele>1356.0</ele>
        <time>2013-07-03T11:39:20Z</time>
      </trkpt>
      <trkpt lat="40.256950" lon="-4.909167">
        <ele>1359.0</ele>
        <time>2013-07-03T11:39:21Z</time>
      </trkpt>
      <trkpt lat="40.256967" lon="-4.909250">
        <ele>1361.0</ele>
        <time>2013-07-03T11:39:22Z</time>
      </trkpt>
      <trkpt lat="40.256967" lon="-4.909317">
        <ele>1363.0</ele>
        <time>2013-07-03T11:39:23Z</time>
      </trkpt>
      <trkpt lat="40.256967" lon="-4.909383">
        <ele>1365.0</ele>
        <time>2013-07-03T11:39:24Z</time>
      </trkpt>
      <trkpt lat="40.256933" lon="-4.909400">
        <ele>1366.0</ele>
        <time>2013-07-03T11:39:25Z</time>
      </trkpt>
      <trkpt lat="40.256883" lon="-4.909400">
        <ele>1366.0</ele>
        <time>2013-07-03T11:39:26Z</time>
      </trkpt>
      <trkpt lat="40.256833" lon="-4.909350">
        <ele>1366.0</ele>
        <time>2013-07-03T11:39:27Z</time>
      </trkpt>
      <trkpt lat="40.256783" lon="-4.909283">
        <ele>1365.0</ele>
        <time>2013-07-03T11:39:28Z</time>
      </trkpt>
      <trkpt lat="40.256750" lon="-4.909200">
        <ele>1366.0</ele>
        <time>2013-07-03T11:39:29Z</time>
      </trkpt>
      <trkpt lat="40.256717" lon="-4.909117">
        <ele>1367.0</ele>
        <time>2013-07-03T11:39:30Z</time>
      </trkpt>
      <trkpt lat="40.256733" lon="-4.909000">
        <ele>1367.0</ele>
        <time>2013-07-03T11:39:31Z</time>
      </trkpt>
      <trkpt lat="40.256767" lon="-4.908883">
        <ele>1367.0</ele>
        <time>2013-07-03T11:39:32Z</time>
      </trkpt>
      <trkpt lat="40.256833" lon="-4.908767">
        <ele>1366.0</ele>
        <time>2013-07-03T11:39:33Z</time>
      </trkpt>
      <trkpt lat="40.256917" lon="-4.908683">
        <ele>1367.0</ele>
        <time>2013-07-03T11:39:34Z</time>
      </trkpt>
      <trkpt lat="40.257017" lon="-4.908617">
        <ele>1368.0</ele>
        <time>2013-07-03T11:39:35Z</time>
      </trkpt>
      <trkpt lat="40.257117" lon="-4.908583">
        <ele>1369.0</ele>
        <time>2013-07-03T11:39:36Z</time>
      </trkpt>
      <trkpt lat="40.257217" lon="-4.908583">
        <ele>1369.0</ele>
        <time>2013-07-03T11:39:37Z</time>
      </trkpt>
      <trkpt lat="40.257317" lon="-4.908617">
        <ele>1368.0</ele>
        <time>2013-07-03T11:39:38Z</time>
      </trkpt>
      <trkpt lat="40.257417" lon="-4.908683">
        <ele>1367.0</ele>
        <time>2013-07-03T11:39:39Z</time>
      </trkpt>
      <trkpt lat="40.257517" lon="-4.908767">
        <ele>1369.0</ele>
        <time>2013-07-03T11:39:40Z</time>
      </trkpt>
      <trkpt lat="40.257617" lon="-4.908850">
        <ele>1371.0</ele>
        <time>2013-07-03T11:39:41Z</time>
      </trkpt>
      <trkpt lat="40.257683" lon="-4.908917">
        <ele>1374.0</ele>
        <time>2013-07-03T11:39:42Z</time>
      </trkpt>
      <trkpt lat="40.257750" lon="-4.908983">
        <ele>1377.0</ele>
        <time>2013-07-03T11:39:43Z</time>
      </trkpt>
      <trkpt lat="40.257800" lon="-4.909033">
        <ele>1379.0</ele>
        <time>2013-07-03T11:39:44Z</time>
      </trkpt>
      <trkpt lat="40.257867" lon="-4.909083">
        <ele>1380.0</ele>
        <time>2013-07-03T11:39:45Z</time>
      </trkpt>
      <trkpt lat="40.257917" lon="-4.909150">
        <ele>1380.0</ele>
        <time>2013-07-03T11:39:46Z</time>
      </trkpt>
      <trkpt lat="40.257950" lon="-4.909233">
        <ele>1380.0</ele>
        <time>2013-07-03T11:39:47Z</time>
      </trkpt>
      <trkpt lat="40.257967" lon="-4.909317">
        <ele>1380.0</ele>
        <time>2013-07-03T11:39:48Z</time>
      </trkpt>
      <trkpt lat="40.257950" lon="-4.909400">
        <ele>1381.0</ele>
        <time>2013-07-03T11:39:49Z</time>
      </trkpt>
      <trkpt lat="40.257933" lon="-4.909483">
        <ele>1382.0</ele>
        <time>2013-07-03T11:39:50Z</time>
      </trkpt>
      <trkpt lat="40.257917" lon="-4.909550">
        <ele>1384.0</ele>
        <time>2013-07-03T11:39:51Z</time>
      </trkpt>
      <trkpt lat="40.257883" lon="-4.909583">
        <ele>1386.0</ele>
        <time>2013-07-03T11:39:52Z</time>
      </trkpt>
      <trkpt lat="40.257867" lon="-4.909617">
        <ele>1388.0</ele>
        <time>2013-07-03T11:39:53Z</time>
      </trkpt>
      <trkpt lat="40.257850" lon="-4.909650">
        <ele>1389.0</ele>
        <time>2013-07-03T11:39:54Z</time>
      </trkpt>
      <trkpt lat="40.257833" lon="-4.909683">
        <ele>1390.0</ele>
        <time>2013-07-03T11:39:55Z</time>
      </trkpt>
      <trkpt lat="40.257800" lon="-4.909700">
        <ele>1390.0</ele>
        <time>2013-07-03T11:39:56Z</time>
      </trkpt>
      <trkpt lat="40.257750" lon="-4.909717">
        <ele>1391.0</ele>
        <time>2013-07-03T11:39:57Z</time>
      </trkpt>
      <trkpt lat="40.257700" lon="-4.909717">
        <ele>1393.0</ele>
        <time>2013-07-03T11:39:58Z</time>
      </trkpt>
      <trkpt lat="40.257667" lon="-4.909683">
        <ele>1395.0</ele>
        <time>2013-07-03T11:39:59Z</time>
      </trkpt>
      <trkpt lat="40.257633" lon="-4.909617">
        <ele>1398.0</ele>
        <time>2013-07-03T11:40:00Z</time>
      </trkpt>
      <trkpt lat="40.257617" lon="-4.909533">
        <ele>1399.0</ele>
        <time>2013-07-03T11:40:01Z</time>
      </trkpt>
      <trkpt lat="40.257600" lon="-4.909450">
        <ele>1400.0</ele>
        <time>2013-07-03T11:40:02Z</time>
      </trkpt>
      <trkpt lat="40.257600" lon="-4.909350">
        <ele>1401.0</ele>
        <time>2013-07-03T11:40:03Z</time>
      </trkpt>
      <trkpt lat="40.257633" lon="-4.909250">
        <ele>1401.0</ele>
        <time>2013-07-03T11:40:04Z</time>
      </trkpt>
      <trkpt lat="40.257683" lon="-4.909133">
        <ele>1401.0</ele>
        <time>2013-07-03T11:40:05Z</time>
      </trkpt>
      <trkpt lat="40.257800" lon="-4.909067">
        <ele>1402.0</ele>
        <time>2013-07-03T11:40:06Z</time>
      </trkpt>
      <trkpt lat="40.257917" lon="-4.909050">
        <ele>1403.0</ele>
        <time>2013-07-03T11:40:07Z</time>
      </trkpt>
      <trkpt lat="40.258017" lon="-4.909083">
        <ele>1404.0</ele>
        <time>2013-07-03T11:40:08Z</time>
      </trkpt>
      <trkpt lat="40.258100" lon="-4.909167">
        <ele>1406.0</ele>
        <time>2013-07-03T11:40:09Z</time>
      </trkpt>
      <trkpt lat="40.258167" lon="-4.909250">
        <ele>1408.0</ele>
        <time>2013-07-03T11:40:10Z</time>
      </trkpt>
      <trkpt lat="40.258233" lon="-4.909317">
        <ele>1410.0</ele>
        <time>2013-07-03T11:40:11Z</time>
      </trkpt>
      <trkpt lat="40.258283" lon="-4.909400">
        <ele>1411.0</ele>
        <time>2013-07-03T11:40:12Z</time>
      </trkpt>
      <trkpt lat="40.258317" lon="-4.909483">
        <ele>1412.0</ele>
        <time>2013-07-03T11:40:13Z</time>
      </trkpt>
      <trkpt lat="40.258350" lon="-4.909583">
        <ele>1414.0</ele>
        <time>2013-07-03T11:40:14Z</time>
      </trkpt>
      <trkpt lat="40.258367" lon="-4.909683">
        <ele>1416.0</ele>
        <time>2013-07-03T11:40:15Z</time>
      </trkpt>
      <trkpt lat="40.258383" lon="-4.909767">
        <ele>1417.0</ele>
        <time>2013-07-03T11:40:16Z</time>
      </trkpt>
      <trkpt lat="40.258400" lon="-4.909867">
        <ele>1419.0</ele>
        <time>2013-07-03T11:40:17Z</time>
      </trkpt>
      <trkpt lat="40.258400" lon="-4.909933">
        <ele>1421.0</ele>
        <time>2013-07-03T11:40:18Z</time>
      </trkpt>
      <trkpt lat="40.258400" lon="-4.910000">
        <ele>1423.0</ele>
        <time>2013-07-03T11:40:19Z</time>
      </trkpt>
      <trkpt lat="40.258383" lon="-4.910050">
        <ele>1424.0</ele>
        <time>2013-07-03T11:40:20Z</time>
      </trkpt>
      <trkpt lat="40.258350" lon="-4.910100">
        <ele>1425.0</ele>
        <time>2013-07-03T11:40:21Z</time>
      </trkpt>
      <trkpt lat="40.258317" lon="-4.910133">
        <ele>1425.0</ele>
        <time>2013-07-03T11:40:22Z</time>
      </trkpt>
      <trkpt lat="40.258267" lon="-4.910133">
        <ele>1426.0</ele>
        <time>2013-07-03T11:40:23Z</time>
      </trkpt>
      <trkpt lat="40.258217" lon="-4.910100">
        <ele>1426.0</ele>
        <time>2013-07-03T11:40:24Z</time>
      </trkpt>
      <trkpt lat="40.258183" lon="-4.910017">
        <ele>1426.0</ele>
        <time>2013-07-03T11:40:25Z</time>
      </trkpt>
      <trkpt lat="40.258167" lon="-4.909900">
        <ele>1426.0</ele>
        <time>2013-07-03T11:40:26Z</time>
      </trkpt>
      <trkpt lat="40.258183" lon="-4.909783">
        <ele>1428.0</ele>
        <time>2013-07-03T11:40:27Z</time>
      </trkpt>
      <trkpt lat="40.258200" lon="-4.909650">
        <ele>1430.0</ele>
        <time>2013-07-03T11:40:28Z</time>
      </trkpt>
      <trkpt lat="40.258233" lon="-4.909550">
        <ele>1433.0</ele>
        <time>2013-07-03T11:40:29Z</time>
      </trkpt>
      <trkpt lat="40.258283" lon="-4.909450">
        <ele>1435.0</ele>
        <time>2013-07-03T11:40:30Z</time>
      </trkpt>
      <trkpt lat="40.258350" lon="-4.909350">
        <ele>1436.0</ele>
        <time>2013-07-03T11:40:31Z</time>
      </trkpt>
      <trkpt lat="40.258433" lon="-4.909267">
        <ele>1437.0</ele>
        <time>2013-07-03T11:40:32Z</time>
      </trkpt>
      <trkpt lat="40.258517" lon="-4.909183">
        <ele>1438.0</ele>
        <time>2013-07-03T11:40:33Z</time>
      </trkpt>
      <trkpt lat="40.258617" lon="-4.909100">
        <ele>1440.0</ele>
        <time>2013-07-03T11:40:34Z</time>
      </trkpt>
      <trkpt lat="40.258733" lon="-4.909067">
        <ele>1441.0</ele>
        <time>2013-07-03T11:40:35Z</time>
      </trkpt>
      <trkpt lat="40.258850" lon="-4.909083">
        <ele>1441.0</ele>
        <time>2013-07-03T11:40:36Z</time>
      </trkpt>
      <trkpt lat="40.258950" lon="-4.909150">
        <ele>1442.0</ele>
        <time>2013-07-03T11:40:37Z</time>
      </trkpt>
      <trkpt lat="40.259033" lon="-4.909250">
        <ele>1442.0</ele>
        <time>2013-07-03T11:40:38Z</time>
      </trkpt>
      <trkpt lat="40.259083" lon="-4.909367">
        <ele>1443.0</ele>
        <time>2013-07-03T11:40:39Z</time>
      </trkpt>
      <trkpt lat="40.259117" lon="-4.909467">
        <ele>1445.0</ele>
        <time>2013-07-03T11:40:40Z</time>
      </trkpt>
      <trkpt lat="40.259150" lon="-4.909567">
        <ele>1446.0</ele>
        <time>2013-07-03T11:40:41Z</time>
      </trkpt>
      <trkpt lat="40.259167" lon="-4.909650">
        <ele>1447.0</ele>
        <time>2013-07-03T11:40:42Z</time>
      </trkpt>
      <trkpt lat="40.259183" lon="-4.909733">
        <ele>1449.0</ele>
        <time>2013-07-03T11:40:43Z</time>
      </trkpt>
      <trkpt lat="40.259200" lon="-4.909800">
        <ele>1449.0</ele>
        <time>2013-07-03T11:40:44Z</time>
      </trkpt>
      <trkpt lat="40.259200" lon="-4.909867">
        <ele>1448.0</ele>
        <time>2013-07-03T11:40:45Z</time>
      </trkpt>
      <trkpt lat="40.259167" lon="-4.909917">
        <ele>1446.0</ele>
        <time>2013-07-03T11:40:46Z</time>
      </trkpt>
      <trkpt lat="40.259117" lon="-4.909983">
        <ele>1445.0</ele>
        <time>2013-07-03T11:40:47Z</time>
      </trkpt>
      <trkpt lat="40.259050" lon="-4.910033">
        <ele>1445.0</ele>
        <time>2013-07-03T11:40:48Z</time>
      </trkpt>
      <trkpt lat="40.259000" lon="-4.910100">
        <ele>1446.0</ele>
        <time>2013-07-03T11:40:49Z</time>
      </trkpt>
      <trkpt lat="40.258950" lon="-4.910150">
        <ele>1447.0</ele>
        <time>2013-07-03T11:40:50Z</time>
      </trkpt>
      <trkpt lat="40.258917" lon="-4.910200">
        <ele>1448.0</ele>
        <time>2013-07-03T11:40:51Z</time>
      </trkpt>
      <trkpt lat="40.258883" lon="-4.910233">
        <ele>1448.0</ele>
        <time>2013-07-03T11:40:52Z</time>
      </trkpt>
      <trkpt lat="40.258833" lon="-4.910250">
        <ele>1448.0</ele>
        <time>2013-07-03T11:40:53Z</time>
      </trkpt>
      <trkpt lat="40.258767" lon="-4.910267">
        <ele>1446.0</ele>
        <time>2013-07-03T11:40:54Z</time>
      </trkpt>
      <trkpt lat="40.258683" lon="-4.910283">
        <ele>1445.0</ele>
        <time>2013-07-03T11:40:55Z</time>
      </trkpt>
      <trkpt lat="40.258617" lon="-4.910283">
        <ele>1446.0</ele>
        <time>2013-07-03T11:40:56Z</time>
      </trkpt>
      <trkpt lat="40.258533" lon="-4.910283">
        <ele>1447.0</ele>
        <time>2013-07-03T11:40:57Z</time>
      </trkpt>
      <trkpt lat="40.258467" lon="-4.910267">
        <ele>1448.0</ele>
        <time>2013-07-03T11:40:58Z</time>
      </trkpt>
      <trkpt lat="40.258400" lon="-4.910267">
        <ele>1449.0</ele>
        <time>2013-07-03T11:40:59Z</time>
      </trkpt>
      <trkpt lat="40.258333" lon="-4.910267">
        <ele>1451.0</ele>
        <time>2013-07-03T11:41:00Z</time>
      </trkpt>
      <trkpt lat="40.258283" lon="-4.910250">
        <ele>1452.0</ele>
        <time>2013-07-03T11:41:01Z</time>
      </trkpt>
      <trkpt lat="40.258233" lon="-4.910233">
        <ele>1453.0</ele>
        <time>2013-07-03T11:41:02Z</time>
      </trkpt>
      <trkpt lat="40.258183" lon="-4.910217">
        <ele>1453.0</ele>
        <time>2013-07-03T11:41:03Z</time>
      </trkpt>
      <trkpt lat="40.258117" lon="-4.910183">
        <ele>1453.0</ele>
        <time>2013-07-03T11:41:04Z</time>
      </trkpt>
      <trkpt lat="40.258050" lon="-4.910117">
        <ele>1453.0</ele>
        <time>2013-07-03T11:41:05Z</time>
      </trkpt>
      <trkpt lat="40.258000" lon="-4.910033">
        <ele>1452.0</ele>
        <time>2013-07-03T11:41:06Z</time>
      </trkpt>
      <trkpt lat="40.257983" lon="-4.909917">
        <ele>1452.0</ele>
        <time>2013-07-03T11:41:07Z</time>
      </trkpt>
      <trkpt lat="40.257983" lon="-4.909800">
        <ele>1451.0</ele>
        <time>2013-07-03T11:41:08Z</time>
      </trkpt>
      <trkpt lat="40.258017" lon="-4.909667">
        <ele>1450.0</ele>
        <time>2013-07-03T11:41:09Z</time>
      </trkpt>
      <trkpt lat="40.258083" lon="-4.909567">
        <ele>1450.0</ele>
        <time>2013-07-03T11:41:10Z</time>
      </trkpt>
      <trkpt lat="40.258167" lon="-4.909483">
        <ele>1449.0</ele>
        <time>2013-07-03T11:41:11Z</time>
      </trkpt>
      <trkpt lat="40.258283" lon="-4.909450">
        <ele>1448.0</ele>
        <time>2013-07-03T11:41:12Z</time>
      </trkpt>
      <trkpt lat="40.258383" lon="-4.909417">
        <ele>1449.0</ele>
        <time>2013-07-03T11:41:13Z</time>
      </trkpt>
      <trkpt lat="40.258500" lon="-4.909383">
        <ele>1451.0</ele>
        <time>2013-07-03T11:41:14Z</time>
      </trkpt>
      <trkpt lat="40.258600" lon="-4.909367">
        <ele>1453.0</ele>
        <time>2013-07-03T11:41:15Z</time>
      </trkpt>
      <trkpt lat="40.258683" lon="-4.909350">
        <ele>1456.0</ele>
        <time>2013-07-03T11:41:16Z</time>
      </trkpt>
      <trkpt lat="40.258767" lon="-4.909400">
        <ele>1458.0</ele>
        <time>2013-07-03T11:41:17Z</time>
      </trkpt>
      <trkpt lat="40.258850" lon="-4.909467">
        <ele>1459.0</ele>
        <time>2013-07-03T11:41:18Z</time>
      </trkpt>
      <trkpt lat="40.258900" lon="-4.909567">
        <ele>1460.0</ele>
        <time>2013-07-03T11:41:19Z</time>
      </trkpt>
      <trkpt lat="40.258933" lon="-4.909667">
        <ele>1463.0</ele>
        <time>2013-07-03T11:41:20Z</time>
      </trkpt>
      <trkpt lat="40.258950" lon="-4.909750">
        <ele>1466.0</ele>
        <time>2013-07-03T11:41:21Z</time>
      </trkpt>
      <trkpt lat="40.258933" lon="-4.909833">
        <ele>1468.0</ele>
        <time>2013-07-03T11:41:22Z</time>
      </trkpt>
      <trkpt lat="40.258883" lon="-4.909900">
        <ele>1469.0</ele>
        <time>2013-07-03T11:41:23Z</time>
      </trkpt>
      <trkpt lat="40.258833" lon="-4.909900">
        <ele>1469.0</ele>
        <time>2013-07-03T11:41:24Z</time>
      </trkpt>
      <trkpt lat="40.258767" lon="-4.909867">
        <ele>1468.0</ele>
        <time>2013-07-03T11:41:25Z</time>
      </trkpt>
      <trkpt lat="40.258717" lon="-4.909750">
        <ele>1466.0</ele>
        <time>2013-07-03T11:41:26Z</time>
      </trkpt>
      <trkpt lat="40.258700" lon="-4.909600">
        <ele>1465.0</ele>
        <time>2013-07-03T11:41:27Z</time>
      </trkpt>
      <trkpt lat="40.258717" lon="-4.909450">
        <ele>1466.0</ele>
        <time>2013-07-03T11:41:28Z</time>
      </trkpt>
      <trkpt lat="40.258783" lon="-4.909333">
        <ele>1466.0</ele>
        <time>2013-07-03T11:41:29Z</time>
      </trkpt>
      <trkpt lat="40.258883" lon="-4.909250">
        <ele>1466.0</ele>
        <time>2013-07-03T11:41:30Z</time>
      </trkpt>
      <trkpt lat="40.259000" lon="-4.909233">
        <ele>1466.0</ele>
        <time>2013-07-03T11:41:31Z</time>
      </trkpt>
      <trkpt lat="40.259100" lon="-4.909250">
        <ele>1468.0</ele>
        <time>2013-07-03T11:41:32Z</time>
      </trkpt>
      <trkpt lat="40.259200" lon="-4.909267">
        <ele>1470.0</ele>
        <time>2013-07-03T11:41:33Z</time>
      </trkpt>
      <trkpt lat="40.259283" lon="-4.909300">
        <ele>1473.0</ele>
        <time>2013-07-03T11:41:34Z</time>
      </trkpt>
      <trkpt lat="40.259367" lon="-4.909333">
        <ele>1476.0</ele>
        <time>2013-07-03T11:41:35Z</time>
      </trkpt>
      <trkpt lat="40.259433" lon="-4.909417">
        <ele>1478.0</ele>
        <time>2013-07-03T11:41:36Z</time>
      </trkpt>
      <trkpt lat="40.259483" lon="-4.909483">
        <ele>1481.0</ele>
        <time>2013-07-03T11:41:37Z</time>
      </trkpt>
      <trkpt lat="40.259533" lon="-4.909567">
        <ele>1484.0</ele>
        <time>2013-07-03T11:41:38Z</time>
      </trkpt>
      <trkpt lat="40.259600" lon="-4.909633">
        <ele>1487.0</ele>
        <time>2013-07-03T11:41:39Z</time>
      </trkpt>
      <trkpt lat="40.259650" lon="-4.909700">
        <ele>1491.0</ele>
        <time>2013-07-03T11:41:40Z</time>
      </trkpt>
      <trkpt lat="40.259683" lon="-4.909783">
        <ele>1493.0</ele>
        <time>2013-07-03T11:41:41Z</time>
      </trkpt>
      <trkpt lat="40.259700" lon="-4.909867">
        <ele>1495.0</ele>
        <time>2013-07-03T11:41:42Z</time>
      </trkpt>
      <trkpt lat="40.259667" lon="-4.909950">
        <ele>1496.0</ele>
        <time>2013-07-03T11:41:43Z</time>
      </trkpt>
      <trkpt lat="40.259600" lon="-4.909983">
        <ele>1496.0</ele>
        <time>2013-07-03T11:41:44Z</time>
      </trkpt>
      <trkpt lat="40.259517" lon="-4.909967">
        <ele>1494.0</ele>
        <time>2013-07-03T11:41:45Z</time>
      </trkpt>
      <trkpt lat="40.259467" lon="-4.909917">
        <ele>1494.0</ele>
        <time>2013-07-03T11:41:46Z</time>
      </trkpt>
      <trkpt lat="40.259417" lon="-4.909817">
        <ele>1493.0</ele>
        <time>2013-07-03T11:41:47Z</time>
      </trkpt>
      <trkpt lat="40.259400" lon="-4.909700">
        <ele>1492.0</ele>
        <time>2013-07-03T11:41:48Z</time>
      </trkpt>
      <trkpt lat="40.259417" lon="-4.909567">
        <ele>1491.0</ele>
        <time>2013-07-03T11:41:49Z</time>
      </trkpt>
      <trkpt lat="40.259483" lon="-4.909417">
        <ele>1490.0</ele>
        <time>2013-07-03T11:41:50Z</time>
      </trkpt>
      <trkpt lat="40.259583" lon="-4.909317">
        <ele>1492.0</ele>
        <time>2013-07-03T11:41:51Z</time>
      </trkpt>
      <trkpt lat="40.259683" lon="-4.909267">
        <ele>1494.0</ele>
        <time>2013-07-03T11:41:52Z</time>
      </trkpt>
      <trkpt lat="40.259783" lon="-4.909250">
        <ele>1497.0</ele>
        <time>2013-07-03T11:41:53Z</time>
      </trkpt>
      <trkpt lat="40.259883" lon="-4.909250">
        <ele>1500.0</ele>
        <time>2013-07-03T11:41:54Z</time>
      </trkpt>
      <trkpt lat="40.259950" lon="-4.909283">
        <ele>1503.0</ele>
        <time>2013-07-03T11:41:55Z</time>
      </trkpt>
      <trkpt lat="40.260033" lon="-4.909317">
        <ele>1505.0</ele>
        <time>2013-07-03T11:41:56Z</time>
      </trkpt>
      <trkpt lat="40.260100" lon="-4.909350">
        <ele>1507.0</ele>
        <time>2013-07-03T11:41:57Z</time>
      </trkpt>
      <trkpt lat="40.260183" lon="-4.909400">
        <ele>1510.0</ele>
        <time>2013-07-03T11:41:58Z</time>
      </trkpt>
      <trkpt lat="40.260250" lon="-4.909450">
        <ele>1512.0</ele>
        <time>2013-07-03T11:41:59Z</time>
      </trkpt>
      <trkpt lat="40.260300" lon="-4.909517">
        <ele>1513.0</ele>
        <time>2013-07-03T11:42:00Z</time>
      </trkpt>
      <trkpt lat="40.260350" lon="-4.909600">
        <ele>1515.0</ele>
        <time>2013-07-03T11:42:01Z</time>
      </trkpt>
      <trkpt lat="40.260383" lon="-4.909683">
        <ele>1517.0</ele>
        <time>2013-07-03T11:42:02Z</time>
      </trkpt>
      <trkpt lat="40.260417" lon="-4.909767">
        <ele>1520.0</ele>
        <time>2013-07-03T11:42:03Z</time>
      </trkpt>
      <trkpt lat="40.260400" lon="-4.909817">
        <ele>1521.0</ele>
        <time>2013-07-03T11:42:04Z</time>
      </trkpt>
      <trkpt lat="40.260383" lon="-4.909867">
        <ele>1521.0</ele>
        <time>2013-07-03T11:42:05Z</time>
      </trkpt>
      <trkpt lat="40.260350" lon="-4.909933">
        <ele>1521.0</ele>
        <time>2013-07-03T11:42:06Z</time>
      </trkpt>
      <trkpt lat="40.260317" lon="-4.909983">
        <ele>1521.0</ele>
        <time>2013-07-03T11:42:07Z</time>
      </trkpt>
      <trkpt lat="40.260283" lon="-4.910033">
        <ele>1520.0</ele>
        <time>2013-07-03T11:42:08Z</time>
      </trkpt>
      <trkpt lat="40.260233" lon="-4.910083">
        <ele>1519.0</ele>
        <time>2013-07-03T11:42:09Z</time>
      </trkpt>
      <trkpt lat="40.260167" lon="-4.910100">
        <ele>1518.0</ele>
        <time>2013-07-03T11:42:10Z</time>
      </trkpt>
      <trkpt lat="40.260083" lon="-4.910083">
        <ele>1517.0</ele>
        <time>2013-07-03T11:42:11Z</time>
      </trkpt>
      <trkpt lat="40.260017" lon="-4.910017">
        <ele>1517.0</ele>
        <time>2013-07-03T11:42:12Z</time>
      </trkpt>
      <trkpt lat="40.260000" lon="-4.909900">
        <ele>1518.0</ele>
        <time>2013-07-03T11:42:13Z</time>
      </trkpt>
      <trkpt lat="40.260017" lon="-4.909783">
        <ele>1517.0</ele>
        <time>2013-07-03T11:42:14Z</time>
      </trkpt>
      <trkpt lat="40.260067" lon="-4.909650">
        <ele>1517.0</ele>
        <time>2013-07-03T11:42:15Z</time>
      </trkpt>
      <trkpt lat="40.260150" lon="-4.909550">
        <ele>1518.0</ele>
        <time>2013-07-03T11:42:16Z</time>
      </trkpt>
      <trkpt lat="40.260233" lon="-4.909483">
        <ele>1519.0</ele>
        <time>2013-07-03T11:42:17Z</time>
      </trkpt>
      <trkpt lat="40.260317" lon="-4.909433">
        <ele>1519.0</ele>
        <time>2013-07-03T11:42:18Z</time>
      </trkpt>
      <trkpt lat="40.260400" lon="-4.909400">
        <ele>1519.0</ele>
        <time>2013-07-03T11:42:19Z</time>
      </trkpt>
      <trkpt lat="40.260500" lon="-4.909400">
        <ele>1520.0</ele>
        <time>2013-07-03T11:42:20Z</time>
      </trkpt>
      <trkpt lat="40.260617" lon="-4.909417">
        <ele>1520.0</ele>
        <time>2013-07-03T11:42:21Z</time>
      </trkpt>
      <trkpt lat="40.260717" lon="-4.909483">
        <ele>1522.0</ele>
        <time>2013-07-03T11:42:22Z</time>
      </trkpt>
      <trkpt lat="40.260783" lon="-4.909583">
        <ele>1523.0</ele>
        <time>2013-07-03T11:42:23Z</time>
      </trkpt>
      <trkpt lat="40.260850" lon="-4.909683">
        <ele>1524.0</ele>
        <time>2013-07-03T11:42:24Z</time>
      </trkpt>
      <trkpt lat="40.260867" lon="-4.909767">
        <ele>1525.0</ele>
        <time>2013-07-03T11:42:25Z</time>
      </trkpt>
      <trkpt lat="40.260883" lon="-4.909850">
        <ele>1526.0</ele>
        <time>2013-07-03T11:42:26Z</time>
      </trkpt>
      <trkpt lat="40.260883" lon="-4.909950">
        <ele>1524.0</ele>
        <time>2013-07-03T11:42:27Z</time>
      </trkpt>
      <trkpt lat="40.260883" lon="-4.910050">
        <ele>1522.0</ele>
        <time>2013-07-03T11:42:28Z</time>
      </trkpt>
      <trkpt lat="40.260867" lon="-4.910150">
        <ele>1522.0</ele>
        <time>2013-07-03T11:42:29Z</time>
      </trkpt>
      <trkpt lat="40.260850" lon="-4.910250">
        <ele>1523.0</ele>
        <time>2013-07-03T11:42:30Z</time>
      </trkpt>
      <trkpt lat="40.260850" lon="-4.910317">
        <ele>1522.0</ele>
        <time>2013-07-03T11:42:31Z</time>
      </trkpt>
      <trkpt lat="40.260833" lon="-4.910400">
        <ele>1522.0</ele>
        <time>2013-07-03T11:42:32Z</time>
      </trkpt>
      <trkpt lat="40.260817" lon="-4.910483">
        <ele>1521.0</ele>
        <time>2013-07-03T11:42:33Z</time>
      </trkpt>
      <trkpt lat="40.260767" lon="-4.910567">
        <ele>1520.0</ele>
        <time>2013-07-03T11:42:34Z</time>
      </trkpt>
      <trkpt lat="40.260717" lon="-4.910633">
        <ele>1521.0</ele>
        <time>2013-07-03T11:42:35Z</time>
      </trkpt>
      <trkpt lat="40.260650" lon="-4.910683">
        <ele>1522.0</ele>
        <time>2013-07-03T11:42:36Z</time>
      </trkpt>
      <trkpt lat="40.260583" lon="-4.910717">
        <ele>1523.0</ele>
        <time>2013-07-03T11:42:37Z</time>
      </trkpt>
      <trkpt lat="40.260533" lon="-4.910767">
        <ele>1523.0</ele>
        <time>2013-07-03T11:42:38Z</time>
      </trkpt>
      <trkpt lat="40.260500" lon="-4.910833">
        <ele>1522.0</ele>
        <time>2013-07-03T11:42:39Z</time>
      </trkpt>
      <trkpt lat="40.260467" lon="-4.910883">
        <ele>1520.0</ele>
        <time>2013-07-03T11:42:40Z</time>
      </trkpt>
      <trkpt lat="40.260417" lon="-4.910950">
        <ele>1516.0</ele>
        <time>2013-07-03T11:42:41Z</time>
      </trkpt>
      <trkpt lat="40.260350" lon="-4.910983">
        <ele>1513.0</ele>
        <time>2013-07-03T11:42:42Z</time>
      </trkpt>
      <trkpt lat="40.260283" lon="-4.911000">
        <ele>1510.0</ele>
        <time>2013-07-03T11:42:43Z</time>
      </trkpt>
      <trkpt lat="40.260217" lon="-4.911000">
        <ele>1508.0</ele>
        <time>2013-07-03T11:42:44Z</time>
      </trkpt>
      <trkpt lat="40.260150" lon="-4.911017">
        <ele>1507.0</ele>
        <time>2013-07-03T11:42:45Z</time>
      </trkpt>
      <trkpt lat="40.260083" lon="-4.911017">
        <ele>1505.0</ele>
        <time>2013-07-03T11:42:46Z</time>
      </trkpt>
      <trkpt lat="40.260017" lon="-4.911033">
        <ele>1503.0</ele>
        <time>2013-07-03T11:42:47Z</time>
      </trkpt>
      <trkpt lat="40.259933" lon="-4.911033">
        <ele>1500.0</ele>
        <time>2013-07-03T11:42:48Z</time>
      </trkpt>
      <trkpt lat="40.259867" lon="-4.911017">
        <ele>1500.0</ele>
        <time>2013-07-03T11:42:49Z</time>
      </trkpt>
      <trkpt lat="40.259800" lon="-4.911000">
        <ele>1501.0</ele>
        <time>2013-07-03T11:42:50Z</time>
      </trkpt>
      <trkpt lat="40.259750" lon="-4.910983">
        <ele>1501.0</ele>
        <time>2013-07-03T11:42:51Z</time>
      </trkpt>
      <trkpt lat="40.259683" lon="-4.910967">
        <ele>1500.0</ele>
        <time>2013-07-03T11:42:52Z</time>
      </trkpt>
      <trkpt lat="40.259617" lon="-4.910950">
        <ele>1500.0</ele>
        <time>2013-07-03T11:42:53Z</time>
      </trkpt>
      <trkpt lat="40.259550" lon="-4.910933">
        <ele>1500.0</ele>
        <time>2013-07-03T11:42:54Z</time>
      </trkpt>
      <trkpt lat="40.259483" lon="-4.910917">
        <ele>1501.0</ele>
        <time>2013-07-03T11:42:55Z</time>
      </trkpt>
      <trkpt lat="40.259417" lon="-4.910933">
        <ele>1501.0</ele>
        <time>2013-07-03T11:42:56Z</time>
      </trkpt>
      <trkpt lat="40.259333" lon="-4.910917">
        <ele>1502.0</ele>
        <time>2013-07-03T11:42:57Z</time>
      </trkpt>
      <trkpt lat="40.259267" lon="-4.910900">
        <ele>1504.0</ele>
        <time>2013-07-03T11:42:58Z</time>
      </trkpt>
      <trkpt lat="40.259217" lon="-4.910867">
        <ele>1506.0</ele>
        <time>2013-07-03T11:42:59Z</time>
      </trkpt>
      <trkpt lat="40.259167" lon="-4.910833">
        <ele>1507.0</ele>
        <time>2013-07-03T11:43:00Z</time>
      </trkpt>
      <trkpt lat="40.259133" lon="-4.910800">
        <ele>1508.0</ele>
        <time>2013-07-03T11:43:01Z</time>
      </trkpt>
      <trkpt lat="40.259083" lon="-4.910750">
        <ele>1508.0</ele>
        <time>2013-07-03T11:43:02Z</time>
      </trkpt>
      <trkpt lat="40.259050" lon="-4.910667">
        <ele>1507.0</ele>
        <time>2013-07-03T11:43:03Z</time>
      </trkpt>
      <trkpt lat="40.259033" lon="-4.910567">
        <ele>1506.0</ele>
        <time>2013-07-03T11:43:04Z</time>
      </trkpt>
      <trkpt lat="40.259050" lon="-4.910433">
        <ele>1506.0</ele>
        <time>2013-07-03T11:43:05Z</time>
      </trkpt>
      <trkpt lat="40.259100" lon="-4.910317">
        <ele>1505.0</ele>
        <time>2013-07-03T11:43:06Z</time>
      </trkpt>
      <trkpt lat="40.259167" lon="-4.910233">
        <ele>1504.0</ele>
        <time>2013-07-03T11:43:07Z</time>
      </trkpt>
      <trkpt lat="40.259267" lon="-4.910200">
        <ele>1502.0</ele>
        <time>2013-07-03T11:43:08Z</time>
      </trkpt>
      <trkpt lat="40.259367" lon="-4.910217">
        <ele>1501.0</ele>
        <time>2013-07-03T11:43:09Z</time>
      </trkpt>
      <trkpt lat="40.259467" lon="-4.910250">
        <ele>1499.0</ele>
        <time>2013-07-03T11:43:10Z</time>
      </trkpt>
      <trkpt lat="40.259567" lon="-4.910283">
        <ele>1500.0</ele>
        <time>2013-07-03T11:43:11Z</time>
      </trkpt>
      <trkpt lat="40.259667" lon="-4.910333">
        <ele>1500.0</ele>
        <time>2013-07-03T11:43:12Z</time>
      </trkpt>
      <trkpt lat="40.259767" lon="-4.910383">
        <ele>1502.0</ele>
        <time>2013-07-03T11:43:13Z</time>
      </trkpt>
      <trkpt lat="40.259833" lon="-4.910433">
        <ele>1506.0</ele>
        <time>2013-07-03T11:43:14Z</time>
      </trkpt>
      <trkpt lat="40.259917" lon="-4.910467">
        <ele>1510.0</ele>
        <time>2013-07-03T11:43:15Z</time>
      </trkpt>
      <trkpt lat="40.259967" lon="-4.910500">
        <ele>1513.0</ele>
        <time>2013-07-03T11:43:16Z</time>
      </trkpt>
      <trkpt lat="40.260033" lon="-4.910533">
        <ele>1515.0</ele>
        <time>2013-07-03T11:43:17Z</time>
      </trkpt>
      <trkpt lat="40.260100" lon="-4.910567">
        <ele>1516.0</ele>
        <time>2013-07-03T11:43:18Z</time>
      </trkpt>
      <trkpt lat="40.260150" lon="-4.910617">
        <ele>1517.0</ele>
        <time>2013-07-03T11:43:19Z</time>
      </trkpt>
      <trkpt lat="40.260200" lon="-4.910700">
        <ele>1517.0</ele>
        <time>2013-07-03T11:43:20Z</time>
      </trkpt>
      <trkpt lat="40.260233" lon="-4.910783">
        <ele>1517.0</ele>
        <time>2013-07-03T11:43:21Z</time>
      </trkpt>
      <trkpt lat="40.260217" lon="-4.910867">
        <ele>1517.0</ele>
        <time>2013-07-03T11:43:22Z</time>
      </trkpt>
      <trkpt lat="40.260150" lon="-4.910917">
        <ele>1516.0</ele>
        <time>2013-07-03T11:43:23Z</time>
      </trkpt>
      <trkpt lat="40.260083" lon="-4.910883">
        <ele>1515.0</ele>
        <time>2013-07-03T11:43:24Z</time>
      </trkpt>
      <trkpt lat="40.260017" lon="-4.910783">
        <ele>1515.0</ele>
        <time>2013-07-03T11:43:25Z</time>
      </trkpt>
      <trkpt lat="40.260000" lon="-4.910667">
        <ele>1516.0</ele>
        <time>2013-07-03T11:43:26Z</time>
      </trkpt>
      <trkpt lat="40.260000" lon="-4.910550">
        <ele>1518.0</ele>
        <time>2013-07-03T11:43:27Z</time>
      </trkpt>
      <trkpt lat="40.260067" lon="-4.910450">
        <ele>1518.0</ele>
        <time>2013-07-03T11:43:28Z</time>
      </trkpt>
      <trkpt lat="40.260183" lon="-4.910417">
        <ele>1518.0</ele>
        <time>2013-07-03T11:43:29Z</time>
      </trkpt>
      <trkpt lat="40.260283" lon="-4.910433">
        <ele>1520.0</ele>
        <time>2013-07-03T11:43:30Z</time>
      </trkpt>
      <trkpt lat="40.260367" lon="-4.910500">
        <ele>1522.0</ele>
        <time>2013-07-03T11:43:31Z</time>
      </trkpt>
      <trkpt lat="40.260383" lon="-4.910600">
        <ele>1523.0</ele>
        <time>2013-07-03T11:43:32Z</time>
      </trkpt>
      <trkpt lat="40.260333" lon="-4.910667">
        <ele>1523.0</ele>
        <time>2013-07-03T11:43:33Z</time>
      </trkpt>
      <trkpt lat="40.260250" lon="-4.910667">
        <ele>1522.0</ele>
        <time>2013-07-03T11:43:34Z</time>
      </trkpt>
      <trkpt lat="40.260167" lon="-4.910633">
        <ele>1522.0</ele>
        <time>2013-07-03T11:43:35Z</time>
      </trkpt>
      <trkpt lat="40.260100" lon="-4.910550">
        <ele>1525.0</ele>
        <time>2013-07-03T11:43:36Z</time>
      </trkpt>
      <trkpt lat="40.260083" lon="-4.910467">
        <ele>1528.0</ele>
        <time>2013-07-03T11:43:37Z</time>
      </trkpt>
      <trkpt lat="40.260100" lon="-4.910367">
        <ele>1529.0</ele>
        <time>2013-07-03T11:43:38Z</time>
      </trkpt>
      <trkpt lat="40.260133" lon="-4.910267">
        <ele>1529.0</ele>
        <time>2013-07-03T11:43:39Z</time>
      </trkpt>
      <trkpt lat="40.260183" lon="-4.910167">
        <ele>1530.0</ele>
        <time>2013-07-03T11:43:40Z</time>
      </trkpt>
      <trkpt lat="40.260267" lon="-4.910083">
        <ele>1530.0</ele>
        <time>2013-07-03T11:43:41Z</time>
      </trkpt>
      <trkpt lat="40.260350" lon="-4.910033">
        <ele>1531.0</ele>
        <time>2013-07-03T11:43:42Z</time>
      </trkpt>
      <trkpt lat="40.260450" lon="-4.910050">
        <ele>1530.0</ele>
        <time>2013-07-03T11:43:43Z</time>
      </trkpt>
      <trkpt lat="40.260550" lon="-4.910100">
        <ele>1531.0</ele>
        <time>2013-07-03T11:43:44Z</time>
      </trkpt>
      <trkpt lat="40.260600" lon="-4.910183">
        <ele>1532.0</ele>
        <time>2013-07-03T11:43:45Z</time>
      </trkpt>
      <trkpt lat="40.260633" lon="-4.910267">
        <ele>1535.0</ele>
        <time>2013-07-03T11:43:46Z</time>
      </trkpt>
      <trkpt lat="40.260617" lon="-4.910333">
        <ele>1537.0</ele>
        <time>2013-07-03T11:43:47Z</time>
      </trkpt>
      <trkpt lat="40.260583" lon="-4.910383">
        <ele>1538.0</ele>
        <time>2013-07-03T11:43:48Z</time>
      </trkpt>
      <trkpt lat="40.260550" lon="-4.910417">
        <ele>1539.0</ele>
        <time>2013-07-03T11:43:49Z</time>
      </trkpt>
      <trkpt lat="40.260517" lon="-4.910467">
        <ele>1540.0</ele>
        <time>2013-07-03T11:43:50Z</time>
      </trkpt>
      <trkpt lat="40.260467" lon="-4.910533">
        <ele>1540.0</ele>
        <time>2013-07-03T11:43:51Z</time>
      </trkpt>
      <trkpt lat="40.260400" lon="-4.910583">
        <ele>1541.0</ele>
        <time>2013-07-03T11:43:52Z</time>
      </trkpt>
      <trkpt lat="40.260317" lon="-4.910583">
        <ele>1542.0</ele>
        <time>2013-07-03T11:43:53Z</time>
      </trkpt>
      <trkpt lat="40.260250" lon="-4.910533">
        <ele>1541.0</ele>
        <time>2013-07-03T11:43:54Z</time>
      </trkpt>
      <trkpt lat="40.260200" lon="-4.910400">
        <ele>1540.0</ele>
        <time>2013-07-03T11:43:55Z</time>
      </trkpt>
      <trkpt lat="40.260200" lon="-4.910267">
        <ele>1540.0</ele>
        <time>2013-07-03T11:43:56Z</time>
      </trkpt>
      <trkpt lat="40.260233" lon="-4.910133">
        <ele>1539.0</ele>
        <time>2013-07-03T11:43:57Z</time>
      </trkpt>
      <trkpt lat="40.260283" lon="-4.910017">
        <ele>1539.0</ele>
        <time>2013-07-03T11:43:58Z</time>
      </trkpt>
      <trkpt lat="40.260350" lon="-4.909933">
        <ele>1538.0</ele>
        <time>2013-07-03T11:43:59Z</time>
      </trkpt>
      <trkpt lat="40.260450" lon="-4.909883">
        <ele>1538.0</ele>
        <time>2013-07-03T11:44:00Z</time>
      </trkpt>
      <trkpt lat="40.260567" lon="-4.909883">
        <ele>1537.0</ele>
        <time>2013-07-03T11:44:01Z</time>
      </trkpt>
      <trkpt lat="40.260667" lon="-4.909917">
        <ele>1537.0</ele>
        <time>2013-07-03T11:44:02Z</time>
      </trkpt>
      <trkpt lat="40.260733" lon="-4.910000">
        <ele>1537.0</ele>
        <time>2013-07-03T11:44:03Z</time>
      </trkpt>
      <trkpt lat="40.260767" lon="-4.910100">
        <ele>1537.0</ele>
        <time>2013-07-03T11:44:04Z</time>
      </trkpt>
      <trkpt lat="40.260800" lon="-4.910217">
        <ele>1538.0</ele>
        <time>2013-07-03T11:44:05Z</time>
      </trkpt>
      <trkpt lat="40.260833" lon="-4.910317">
        <ele>1539.0</ele>
        <time>2013-07-03T11:44:06Z</time>
      </trkpt>
      <trkpt lat="40.260867" lon="-4.910400">
        <ele>1540.0</ele>
        <time>2013-07-03T11:44:07Z</time>
      </trkpt>
      <trkpt lat="40.260900" lon="-4.910467">
        <ele>1540.0</ele>
        <time>2013-07-03T11:44:08Z</time>
      </trkpt>
      <trkpt lat="40.260900" lon="-4.910550">
        <ele>1539.0</ele>
        <time>2013-07-03T11:44:09Z</time>
      </trkpt>
      <trkpt lat="40.260900" lon="-4.910633">
        <ele>1538.0</ele>
        <time>2013-07-03T11:44:10Z</time>
      </trkpt>
      <trkpt lat="40.260883" lon="-4.910733">
        <ele>1536.0</ele>
        <time>2013-07-03T11:44:11Z</time>
      </trkpt>
      <trkpt lat="40.260850" lon="-4.910850">
        <ele>1536.0</ele>
        <time>2013-07-03T11:44:12Z</time>
      </trkpt>
      <trkpt lat="40.260800" lon="-4.910967">
        <ele>1536.0</ele>
        <time>2013-07-03T11:44:13Z</time>
      </trkpt>
      <trkpt lat="40.260750" lon="-4.911067">
        <ele>1538.0</ele>
        <time>2013-07-03T11:44:14Z</time>
      </trkpt>
      <trkpt lat="40.260700" lon="-4.911133">
        <ele>1539.0</ele>
        <time>2013-07-03T11:44:15Z</time>
      </trkpt>
      <trkpt lat="40.260650" lon="-4.911200">
        <ele>1538.0</ele>
        <time>2013-07-03T11:44:16Z</time>
      </trkpt>
      <trkpt lat="40.260600" lon="-4.911267">
        <ele>1536.0</ele>
        <time>2013-07-03T11:44:17Z</time>
      </trkpt>
      <trkpt lat="40.260517" lon="-4.911333">
        <ele>1535.0</ele>
        <time>2013-07-03T11:44:18Z</time>
      </trkpt>
      <trkpt lat="40.260450" lon="-4.911383">
        <ele>1535.0</ele>
        <time>2013-07-03T11:44:19Z</time>
      </trkpt>
      <trkpt lat="40.260383" lon="-4.911400">
        <ele>1536.0</ele>
        <time>2013-07-03T11:44:20Z</time>
      </trkpt>
      <trkpt lat="40.260333" lon="-4.911417">
        <ele>1536.0</ele>
        <time>2013-07-03T11:44:21Z</time>
      </trkpt>
      <trkpt lat="40.260283" lon="-4.911433">
        <ele>1535.0</ele>
        <time>2013-07-03T11:44:22Z</time>
      </trkpt>
      <trkpt lat="40.260233" lon="-4.911467">
        <ele>1534.0</ele>
        <time>2013-07-03T11:44:23Z</time>
      </trkpt>
      <trkpt lat="40.260167" lon="-4.911500">
        <ele>1532.0</ele>
        <time>2013-07-03T11:44:24Z</time>
      </trkpt>
      <trkpt lat="40.260083" lon="-4.911517">
        <ele>1532.0</ele>
        <time>2013-07-03T11:44:25Z</time>
      </trkpt>
      <trkpt lat="40.260000" lon="-4.911533">
        <ele>1533.0</ele>
        <time>2013-07-03T11:44:26Z</time>
      </trkpt>
      <trkpt lat="40.259933" lon="-4.911550">
        <ele>1534.0</ele>
        <time>2013-07-03T11:44:27Z</time>
      </trkpt>
      <trkpt lat="40.259867" lon="-4.911567">
        <ele>1536.0</ele>
        <time>2013-07-03T11:44:28Z</time>
      </trkpt>
      <trkpt lat="40.259817" lon="-4.911583">
        <ele>1539.0</ele>
        <time>2013-07-03T11:44:29Z</time>
      </trkpt>
      <trkpt lat="40.259783" lon="-4.911617">
        <ele>1541.0</ele>
        <time>2013-07-03T11:44:30Z</time>
      </trkpt>
      <trkpt lat="40.259750" lon="-4.911633">
        <ele>1542.0</ele>
        <time>2013-07-03T11:44:31Z</time>
      </trkpt>
      <trkpt lat="40.259717" lon="-4.911650">
        <ele>1543.0</ele>
        <time>2013-07-03T11:44:32Z</time>
      </trkpt>
      <trkpt lat="40.259667" lon="-4.911650">
        <ele>1542.0</ele>
        <time>2013-07-03T11:44:33Z</time>
      </trkpt>
      <trkpt lat="40.259617" lon="-4.911683">
        <ele>1541.0</ele>
        <time>2013-07-03T11:44:34Z</time>
      </trkpt>
      <trkpt lat="40.259550" lon="-4.911700">
        <ele>1540.0</ele>
        <time>2013-07-03T11:44:35Z</time>
      </trkpt>
      <trkpt lat="40.259483" lon="-4.911717">
        <ele>1540.0</ele>
        <time>2013-07-03T11:44:36Z</time>
      </trkpt>
      <trkpt lat="40.259417" lon="-4.911717">
        <ele>1540.0</ele>
        <time>2013-07-03T11:44:37Z</time>
      </trkpt>
      <trkpt lat="40.259367" lon="-4.911733">
        <ele>1540.0</ele>
        <time>2013-07-03T11:44:38Z</time>
      </trkpt>
      <trkpt lat="40.259317" lon="-4.911733">
        <ele>1540.0</ele>
        <time>2013-07-03T11:44:39Z</time>
      </trkpt>
      <trkpt lat="40.259267" lon="-4.911750">
        <ele>1539.0</ele>
        <time>2013-07-03T11:44:40Z</time>
      </trkpt>
      <trkpt lat="40.259200" lon="-4.911783">
        <ele>1538.0</ele>
        <time>2013-07-03T11:44:41Z</time>
      </trkpt>
      <trkpt lat="40.259150" lon="-4.911817">
        <ele>1536.0</ele>
        <time>2013-07-03T11:44:42Z</time>
      </trkpt>
      <trkpt lat="40.259083" lon="-4.911850">
        <ele>1535.0</ele>
        <time>2013-07-03T11:44:43Z</time>
      </trkpt>
      <trkpt lat="40.259017" lon="-4.911883">
        <ele>1535.0</ele>
        <time>2013-07-03T11:44:44Z</time>
      </trkpt>
      <trkpt lat="40.258967" lon="-4.911917">
        <ele>1534.0</ele>
        <time>2013-07-03T11:44:45Z</time>
      </trkpt>
      <trkpt lat="40.258917" lon="-4.911933">
        <ele>1534.0</ele>
        <time>2013-07-03T11:44:46Z</time>
      </trkpt>
      <trkpt lat="40.258883" lon="-4.911933">
        <ele>1532.0</ele>
        <time>2013-07-03T11:44:47Z</time>
      </trkpt>
      <trkpt lat="40.258817" lon="-4.911967">
        <ele>1530.0</ele>
        <time>2013-07-03T11:44:48Z</time>
      </trkpt>
      <trkpt lat="40.258750" lon="-4.912017">
        <ele>1529.0</ele>
        <time>2013-07-03T11:44:49Z</time>
      </trkpt>
      <trkpt lat="40.258683" lon="-4.912083">
        <ele>1529.0</ele>
        <time>2013-07-03T11:44:50Z</time>
      </trkpt>
      <trkpt lat="40.258633" lon="-4.912100">
        <ele>1529.0</ele>
        <time>2013-07-03T11:44:51Z</time>
      </trkpt>
      <trkpt lat="40.258583" lon="-4.912117">
        <ele>1529.0</ele>
        <time>2013-07-03T11:44:52Z</time>
      </trkpt>
      <trkpt lat="40.258533" lon="-4.912133">
        <ele>1528.0</ele>
        <time>2013-07-03T11:44:53Z</time>
      </trkpt>
      <trkpt lat="40.258483" lon="-4.912150">
        <ele>1526.0</ele>
        <time>2013-07-03T11:44:54Z</time>
      </trkpt>
      <trkpt lat="40.258417" lon="-4.912183">
        <ele>1524.0</ele>
        <time>2013-07-03T11:44:55Z</time>
      </trkpt>
      <trkpt lat="40.258333" lon="-4.912217">
        <ele>1523.0</ele>
        <time>2013-07-03T11:44:56Z</time>
      </trkpt>
      <trkpt lat="40.258267" lon="-4.912250">
        <ele>1525.0</ele>
        <time>2013-07-03T11:44:57Z</time>
      </trkpt>
      <trkpt lat="40.258200" lon="-4.912283">
        <ele>1527.0</ele>
        <time>2013-07-03T11:44:58Z</time>
      </trkpt>
      <trkpt lat="40.258167" lon="-4.912317">
        <ele>1528.0</ele>
        <time>2013-07-03T11:44:59Z</time>
      </trkpt>
      <trkpt lat="40.258117" lon="-4.912350">
        <ele>1528.0</ele>
        <time>2013-07-03T11:45:00Z</time>
      </trkpt>
      <trkpt lat="40.258083" lon="-4.912367">
        <ele>1527.0</ele>
        <time>2013-07-03T11:45:01Z</time>
      </trkpt>
      <trkpt lat="40.258017" lon="-4.912400">
        <ele>1525.0</ele>
        <time>2013-07-03T11:45:02Z</time>
      </trkpt>
      <trkpt lat="40.257950" lon="-4.912433">
        <ele>1523.0</ele>
        <time>2013-07-03T11:45:03Z</time>
      </trkpt>
      <trkpt lat="40.257883" lon="-4.912467">
        <ele>1522.0</ele>
        <time>2013-07-03T11:45:04Z</time>
      </trkpt>
      <trkpt lat="40.257817" lon="-4.912517">
        <ele>1521.0</ele>
        <time>2013-07-03T11:45:05Z</time>
      </trkpt>
      <trkpt lat="40.257750" lon="-4.912550">
        <ele>1520.0</ele>
        <time>2013-07-03T11:45:06Z</time>
      </trkpt>
      <trkpt lat="40.257700" lon="-4.912617">
        <ele>1519.0</ele>
        <time>2013-07-03T11:45:07Z</time>
      </trkpt>
      <trkpt lat="40.257617" lon="-4.912667">
        <ele>1517.0</ele>
        <time>2013-07-03T11:45:08Z</time>
      </trkpt>
      <trkpt lat="40.257550" lon="-4.912733">
        <ele>1517.0</ele>
        <time>2013-07-03T11:45:09Z</time>
      </trkpt>
      <trkpt lat="40.257500" lon="-4.912817">
        <ele>1519.0</ele>
        <time>2013-07-03T11:45:10Z</time>
      </trkpt>
      <trkpt lat="40.257467" lon="-4.912867">
        <ele>1522.0</ele>
        <time>2013-07-03T11:45:11Z</time>
      </trkpt>
      <trkpt lat="40.257433" lon="-4.912933">
        <ele>1523.0</ele>
        <time>2013-07-03T11:45:12Z</time>
      </trkpt>
      <trkpt lat="40.257400" lon="-4.912967">
        <ele>1524.0</ele>
        <time>2013-07-03T11:45:13Z</time>
      </trkpt>
      <trkpt lat="40.257367" lon="-4.912983">
        <ele>1524.0</ele>
        <time>2013-07-03T11:45:14Z</time>
      </trkpt>
      <trkpt lat="40.257333" lon="-4.913017">
        <ele>1525.0</ele>
        <time>2013-07-03T11:45:15Z</time>
      </trkpt>
      <trkpt lat="40.257300" lon="-4.913050">
        <ele>1524.0</ele>
        <time>2013-07-03T11:45:16Z</time>
      </trkpt>
      <trkpt lat="40.257250" lon="-4.913083">
        <ele>1524.0</ele>
        <time>2013-07-03T11:45:17Z</time>
      </trkpt>
      <trkpt lat="40.257183" lon="-4.913100">
        <ele>1524.0</ele>
        <time>2013-07-03T11:45:18Z</time>
      </trkpt>
      <trkpt lat="40.257133" lon="-4.913100">
        <ele>1523.0</ele>
        <time>2013-07-03T11:45:19Z</time>
      </trkpt>
      <trkpt lat="40.257067" lon="-4.913117">
        <ele>1524.0</ele>
        <time>2013-07-03T11:45:20Z</time>
      </trkpt>
      <trkpt lat="40.257000" lon="-4.913150">
        <ele>1525.0</ele>
        <time>2013-07-03T11:45:21Z</time>
      </trkpt>
      <trkpt lat="40.256950" lon="-4.913183">
        <ele>1526.0</ele>
        <time>2013-07-03T11:45:22Z</time>
      </trkpt>
      <trkpt lat="40.256900" lon="-4.913217">
        <ele>1528.0</ele>
        <time>2013-07-03T11:45:23Z</time>
      </trkpt>
      <trkpt lat="40.256850" lon="-4.913217">
        <ele>1530.0</ele>
        <time>2013-07-03T11:45:24Z</time>
      </trkpt>
      <trkpt lat="40.256800" lon="-4.913233">
        <ele>1533.0</ele>
        <time>2013-07-03T11:45:25Z</time>
      </trkpt>
      <trkpt lat="40.256767" lon="-4.913233">
        <ele>1535.0</ele>
        <time>2013-07-03T11:45:26Z</time>
      </trkpt>
      <trkpt lat="40.256750" lon="-4.913250">
        <ele>1536.0</ele>
        <time>2013-07-03T11:45:27Z</time>
      </trkpt>
      <trkpt lat="40.256717" lon="-4.913267">
        <ele>1537.0</ele>
        <time>2013-07-03T11:45:28Z</time>
      </trkpt>
      <trkpt lat="40.256700" lon="-4.913283">
        <ele>1537.0</ele>
        <time>2013-07-03T11:45:29Z</time>
      </trkpt>
      <trkpt lat="40.256667" lon="-4.913300">
        <ele>1537.0</ele>
        <time>2013-07-03T11:45:30Z</time>
      </trkpt>
      <trkpt lat="40.256633" lon="-4.913300">
        <ele>1537.0</ele>
        <time>2013-07-03T11:45:31Z</time>
      </trkpt>
      <trkpt lat="40.256583" lon="-4.913333">
        <ele>1537.0</ele>
        <time>2013-07-03T11:45:32Z</time>
      </trkpt>
      <trkpt lat="40.256550" lon="-4.913350">
        <ele>1537.0</ele>
        <time>2013-07-03T11:45:33Z</time>
      </trkpt>
      <trkpt lat="40.256500" lon="-4.913383">
        <ele>1537.0</ele>
        <time>2013-07-03T11:45:34Z</time>
      </trkpt>
      <trkpt lat="40.256450" lon="-4.913417">
        <ele>1537.0</ele>
        <time>2013-07-03T11:45:35Z</time>
      </trkpt>
      <trkpt lat="40.256417" lon="-4.913450">
        <ele>1538.0</ele>
        <time>2013-07-03T11:45:36Z</time>
      </trkpt>
      <trkpt lat="40.256367" lon="-4.913500">
        <ele>1539.0</ele>
        <time>2013-07-03T11:45:37Z</time>
      </trkpt>
      <trkpt lat="40.256317" lon="-4.913550">
        <ele>1541.0</ele>
        <time>2013-07-03T11:45:38Z</time>
      </trkpt>
      <trkpt lat="40.256283" lon="-4.913583">
        <ele>1543.0</ele>
        <time>2013-07-03T11:45:39Z</time>
      </trkpt>
      <trkpt lat="40.256267" lon="-4.913600">
        <ele>1545.0</ele>
        <time>2013-07-03T11:45:40Z</time>
      </trkpt>
      <trkpt lat="40.256217" lon="-4.913567">
        <ele>1545.0</ele>
        <time>2013-07-03T11:45:41Z</time>
      </trkpt>
      <trkpt lat="40.256167" lon="-4.913500">
        <ele>1545.0</ele>
        <time>2013-07-03T11:45:42Z</time>
      </trkpt>
      <trkpt lat="40.256133" lon="-4.913433">
        <ele>1547.0</ele>
        <time>2013-07-03T11:45:43Z</time>
      </trkpt>
      <trkpt lat="40.256117" lon="-4.913350">
        <ele>1550.0</ele>
        <time>2013-07-03T11:45:44Z</time>
      </trkpt>
      <trkpt lat="40.256117" lon="-4.913267">
        <ele>1554.0</ele>
        <time>2013-07-03T11:45:45Z</time>
      </trkpt>
      <trkpt lat="40.256133" lon="-4.913200">
        <ele>1556.0</ele>
        <time>2013-07-03T11:45:46Z</time>
      </trkpt>
      <trkpt lat="40.256150" lon="-4.913117">
        <ele>1558.0</ele>
        <time>2013-07-03T11:45:47Z</time>
      </trkpt>
      <trkpt lat="40.256167" lon="-4.913033">
        <ele>1558.0</ele>
        <time>2013-07-03T11:45:48Z</time>
      </trkpt>
      <trkpt lat="40.256200" lon="-4.912917">
        <ele>1558.0</ele>
        <time>2013-07-03T11:45:49Z</time>
      </trkpt>
      <trkpt lat="40.256250" lon="-4.912800">
        <ele>1557.0</ele>
        <time>2013-07-03T11:45:50Z</time>
      </trkpt>
      <trkpt lat="40.256333" lon="-4.912700">
        <ele>1556.0</ele>
        <time>2013-07-03T11:45:51Z</time>
      </trkpt>
      <trkpt lat="40.256467" lon="-4.912650">
        <ele>1554.0</ele>
        <time>2013-07-03T11:45:52Z</time>
      </trkpt>
      <trkpt lat="40.256600" lon="-4.912667">
        <ele>1552.0</ele>
        <time>2013-07-03T11:45:53Z</time>
      </trkpt>
      <trkpt lat="40.256717" lon="-4.912733">
        <ele>1551.0</ele>
        <time>2013-07-03T11:45:54Z</time>
      </trkpt>
      <trkpt lat="40.256800" lon="-4.912833">
        <ele>1551.0</ele>
        <time>2013-07-03T11:45:55Z</time>
      </trkpt>
      <trkpt lat="40.256867" lon="-4.912950">
        <ele>1550.0</ele>
        <time>2013-07-03T11:45:56Z</time>
      </trkpt>
      <trkpt lat="40.256900" lon="-4.913050">
        <ele>1552.0</ele>
        <time>2013-07-03T11:45:57Z</time>
      </trkpt>
      <trkpt lat="40.256917" lon="-4.913167">
        <ele>1553.0</ele>
        <time>2013-07-03T11:45:58Z</time>
      </trkpt>
      <trkpt lat="40.256933" lon="-4.913267">
        <ele>1556.0</ele>
        <time>2013-07-03T11:45:59Z</time>
      </trkpt>
      <trkpt lat="40.256933" lon="-4.913367">
        <ele>1559.0</ele>
        <time>2013-07-03T11:46:00Z</time>
      </trkpt>
      <trkpt lat="40.256933" lon="-4.913450">
        <ele>1561.0</ele>
        <time>2013-07-03T11:46:01Z</time>
      </trkpt>
      <trkpt lat="40.256933" lon="-4.913517">
        <ele>1564.0</ele>
        <time>2013-07-03T11:46:02Z</time>
      </trkpt>
      <trkpt lat="40.256933" lon="-4.913583">
        <ele>1565.0</ele>
        <time>2013-07-03T11:46:03Z</time>
      </trkpt>
      <trkpt lat="40.256917" lon="-4.913667">
        <ele>1565.0</ele>
        <time>2013-07-03T11:46:04Z</time>
      </trkpt>
      <trkpt lat="40.256850" lon="-4.913750">
        <ele>1566.0</ele>
        <time>2013-07-03T11:46:05Z</time>
      </trkpt>
      <trkpt lat="40.256783" lon="-4.913817">
        <ele>1568.0</ele>
        <time>2013-07-03T11:46:06Z</time>
      </trkpt>
      <trkpt lat="40.256700" lon="-4.913833">
        <ele>1571.0</ele>
        <time>2013-07-03T11:46:07Z</time>
      </trkpt>
      <trkpt lat="40.256650" lon="-4.913783">
        <ele>1573.0</ele>
        <time>2013-07-03T11:46:08Z</time>
      </trkpt>
      <trkpt lat="40.256633" lon="-4.913733">
        <ele>1575.0</ele>
        <time>2013-07-03T11:46:09Z</time>
      </trkpt>
      <trkpt lat="40.256617" lon="-4.913683">
        <ele>1577.0</ele>
        <time>2013-07-03T11:46:10Z</time>
      </trkpt>
      <trkpt lat="40.256617" lon="-4.913617">
        <ele>1577.0</ele>
        <time>2013-07-03T11:46:11Z</time>
      </trkpt>
      <trkpt lat="40.256617" lon="-4.913550">
        <ele>1577.0</ele>
        <time>2013-07-03T11:46:12Z</time>
      </trkpt>
      <trkpt lat="40.256617" lon="-4.913467">
        <ele>1577.0</ele>
        <time>2013-07-03T11:46:13Z</time>
      </trkpt>
      <trkpt lat="40.256667" lon="-4.913367">
        <ele>1576.0</ele>
        <time>2013-07-03T11:46:14Z</time>
      </trkpt>
      <trkpt lat="40.256733" lon="-4.913267">
        <ele>1575.0</ele>
        <time>2013-07-03T11:46:15Z</time>
      </trkpt>
      <trkpt lat="40.256833" lon="-4.913200">
        <ele>1576.0</ele>
        <time>2013-07-03T11:46:16Z</time>
      </trkpt>
      <trkpt lat="40.256933" lon="-4.913133">
        <ele>1578.0</ele>
        <time>2013-07-03T11:46:17Z</time>
      </trkpt>
      <trkpt lat="40.257017" lon="-4.913083">
        <ele>1580.0</ele>
        <time>2013-07-03T11:46:18Z</time>
      </trkpt>
      <trkpt lat="40.257100" lon="-4.913050">
        <ele>1582.0</ele>
        <time>2013-07-03T11:46:19Z</time>
      </trkpt>
      <trkpt lat="40.257183" lon="-4.913050">
        <ele>1583.0</ele>
        <time>2013-07-03T11:46:20Z</time>
      </trkpt>
      <trkpt lat="40.257283" lon="-4.913050">
        <ele>1583.0</ele>
        <time>2013-07-03T11:46:21Z</time>
      </trkpt>
      <trkpt lat="40.257383" lon="-4.913067">
        <ele>1585.0</ele>
        <time>2013-07-03T11:46:22Z</time>
      </trkpt>
      <trkpt lat="40.257500" lon="-4.913083">
        <ele>1587.0</ele>
        <time>2013-07-03T11:46:23Z</time>
      </trkpt>
      <trkpt lat="40.257583" lon="-4.913100">
        <ele>1590.0</ele>
        <time>2013-07-03T11:46:24Z</time>
      </trkpt>
      <trkpt lat="40.257667" lon="-4.913117">
        <ele>1593.0</ele>
        <time>2013-07-03T11:46:25Z</time>
      </trkpt>
      <trkpt lat="40.257750" lon="-4.913150">
        <ele>1595.0</ele>
        <time>2013-07-03T11:46:26Z</time>
      </trkpt>
      <trkpt lat="40.257817" lon="-4.913183">
        <ele>1595.0</ele>
        <time>2013-07-03T11:46:27Z</time>
      </trkpt>
      <trkpt lat="40.257883" lon="-4.913250">
        <ele>1595.0</ele>
        <time>2013-07-03T11:46:28Z</time>
      </trkpt>
      <trkpt lat="40.257933" lon="-4.913333">
        <ele>1594.0</ele>
        <time>2013-07-03T11:46:29Z</time>
      </trkpt>
      <trkpt lat="40.257983" lon="-4.913417">
        <ele>1593.0</ele>
        <time>2013-07-03T11:46:30Z</time>
      </trkpt>
      <trkpt lat="40.258000" lon="-4.913533">
        <ele>1592.0</ele>
        <time>2013-07-03T11:46:31Z</time>
      </trkpt>
      <trkpt lat="40.258017" lon="-4.913650">
        <ele>1591.0</ele>
        <time>2013-07-03T11:46:32Z</time>
      </trkpt>
      <trkpt lat="40.258033" lon="-4.913783">
        <ele>1591.0</ele>
        <time>2013-07-03T11:46:33Z</time>
      </trkpt>
      <trkpt lat="40.258033" lon="-4.913917">
        <ele>1592.0</ele>
        <time>2013-07-03T11:46:34Z</time>
      </trkpt>
      <trkpt lat="40.258050" lon="-4.914033">
        <ele>1594.0</ele>
        <time>2013-07-03T11:46:35Z</time>
      </trkpt>
      <trkpt lat="40.258050" lon="-4.914150">
        <ele>1595.0</ele>
        <time>2013-07-03T11:46:36Z</time>
      </trkpt>
      <trkpt lat="40.258067" lon="-4.914250">
        <ele>1598.0</ele>
        <time>2013-07-03T11:46:37Z</time>
      </trkpt>
      <trkpt lat="40.258067" lon="-4.914333">
        <ele>1601.0</ele>
        <time>2013-07-03T11:46:38Z</time>
      </trkpt>
      <trkpt lat="40.258067" lon="-4.914417">
        <ele>1602.0</ele>
        <time>2013-07-03T11:46:39Z</time>
      </trkpt>
      <trkpt lat="40.258033" lon="-4.914500">
        <ele>1603.0</ele>
        <time>2013-07-03T11:46:40Z</time>
      </trkpt>
      <trkpt lat="40.257983" lon="-4.914550">
        <ele>1604.0</ele>
        <time>2013-07-03T11:46:41Z</time>
      </trkpt>
      <trkpt lat="40.257933" lon="-4.914583">
        <ele>1605.0</ele>
        <time>2013-07-03T11:46:42Z</time>
      </trkpt>
      <trkpt lat="40.257867" lon="-4.914583">
        <ele>1607.0</ele>
        <time>2013-07-03T11:46:43Z</time>
      </trkpt>
      <trkpt lat="40.257817" lon="-4.914567">
        <ele>1608.0</ele>
        <time>2013-07-03T11:46:44Z</time>
      </trkpt>
      <trkpt lat="40.257783" lon="-4.914533">
        <ele>1611.0</ele>
        <time>2013-07-03T11:46:45Z</time>
      </trkpt>
      <trkpt lat="40.257750" lon="-4.914517">
        <ele>1614.0</ele>
        <time>2013-07-03T11:46:46Z</time>
      </trkpt>
      <trkpt lat="40.257733" lon="-4.914500">
        <ele>1615.0</ele>
        <time>2013-07-03T11:46:47Z</time>
      </trkpt>
      <trkpt lat="40.257717" lon="-4.914467">
        <ele>1617.0</ele>
        <time>2013-07-03T11:46:48Z</time>
      </trkpt>
      <trkpt lat="40.257700" lon="-4.914417">
        <ele>1617.0</ele>
        <time>2013-07-03T11:46:49Z</time>
      </trkpt>
      <trkpt lat="40.257717" lon="-4.914333">
        <ele>1617.0</ele>
        <time>2013-07-03T11:46:50Z</time>
      </trkpt>
      <trkpt lat="40.257767" lon="-4.914233">
        <ele>1617.0</ele>
        <time>2013-07-03T11:46:51Z</time>
      </trkpt>
      <trkpt lat="40.257850" lon="-4.914167">
        <ele>1619.0</ele>
        <time>2013-07-03T11:46:52Z</time>
      </trkpt>
      <trkpt lat="40.257933" lon="-4.914117">
        <ele>1621.0</ele>
        <time>2013-07-03T11:46:53Z</time>
      </trkpt>
      <trkpt lat="40.258000" lon="-4.914100">
        <ele>1624.0</ele>
        <time>2013-07-03T11:46:54Z</time>
      </trkpt>
      <trkpt lat="40.258083" lon="-4.914067">
        <ele>1626.0</ele>
        <time>2013-07-03T11:46:55Z</time>
      </trkpt>
      <trkpt lat="40.258167" lon="-4.914050">
        <ele>1627.0</ele>
        <time>2013-07-03T11:46:56Z</time>
      </trkpt>
      <trkpt lat="40.258267" lon="-4.914033">
        <ele>1627.0</ele>
        <time>2013-07-03T11:46:57Z</time>
      </trkpt>
      <trkpt lat="40.258367" lon="-4.914033">
        <ele>1628.0</ele>
        <time>2013-07-03T11:46:58Z</time>
      </trkpt>
      <trkpt lat="40.258483" lon="-4.914050">
        <ele>1629.0</ele>
        <time>2013-07-03T11:46:59Z</time>
      </trkpt>
      <trkpt lat="40.258583" lon="-4.914117">
        <ele>1631.0</ele>
        <time>2013-07-03T11:47:00Z</time>
      </trkpt>
      <trkpt lat="40.258650" lon="-4.914200">
        <ele>1632.0</ele>
        <time>2013-07-03T11:47:01Z</time>
      </trkpt>
      <trkpt lat="40.258683" lon="-4.914317">
        <ele>1632.0</ele>
        <time>2013-07-03T11:47:02Z</time>
      </trkpt>
      <trkpt lat="40.258683" lon="-4.914433">
        <ele>1633.0</ele>
        <time>2013-07-03T11:47:03Z</time>
      </trkpt>
      <trkpt lat="40.258683" lon="-4.914550">
        <ele>1635.0</ele>
        <time>2013-07-03T11:47:04Z</time>
      </trkpt>
      <trkpt lat="40.258650" lon="-4.914650">
        <ele>1637.0</ele>
        <time>2013-07-03T11:47:05Z</time>
      </trkpt>
      <trkpt lat="40.258633" lon="-4.914750">
        <ele>1639.0</ele>
        <time>2013-07-03T11:47:06Z</time>
      </trkpt>
      <trkpt lat="40.258600" lon="-4.914817">
        <ele>1640.0</ele>
        <time>2013-07-03T11:47:07Z</time>
      </trkpt>
      <trkpt lat="40.258567" lon="-4.914883">
        <ele>1641.0</ele>
        <time>2013-07-03T11:47:08Z</time>
      </trkpt>
      <trkpt lat="40.258533" lon="-4.914950">
        <ele>1642.0</ele>
        <time>2013-07-03T11:47:09Z</time>
      </trkpt>
      <trkpt lat="40.258483" lon="-4.915017">
        <ele>1642.0</ele>
        <time>2013-07-03T11:47:10Z</time>
      </trkpt>
      <trkpt lat="40.258433" lon="-4.915050">
        <ele>1642.0</ele>
        <time>2013-07-03T11:47:11Z</time>
      </trkpt>
      <trkpt lat="40.258367" lon="-4.915067">
        <ele>1643.0</ele>
        <time>2013-07-03T11:47:12Z</time>
      </trkpt>
      <trkpt lat="40.258317" lon="-4.915033">
        <ele>1643.0</ele>
        <time>2013-07-03T11:47:13Z</time>
      </trkpt>
      <trkpt lat="40.258283" lon="-4.915000">
        <ele>1644.0</ele>
        <time>2013-07-03T11:47:14Z</time>
      </trkpt>
      <trkpt lat="40.258250" lon="-4.914967">
        <ele>1646.0</ele>
        <time>2013-07-03T11:47:15Z</time>
      </trkpt>
      <trkpt lat="40.258233" lon="-4.914917">
        <ele>1648.0</ele>
        <time>2013-07-03T11:47:16Z</time>
      </trkpt>
      <trkpt lat="40.258217" lon="-4.914883">
        <ele>1649.0</ele>
        <time>2013-07-03T11:47:17Z</time>
      </trkpt>
      <trkpt lat="40.258200" lon="-4.914850">
        <ele>1650.0</ele>
        <time>2013-07-03T11:47:18Z</time>
      </trkpt>
      <trkpt lat="40.258183" lon="-4.914800">
        <ele>1651.0</ele>
        <time>2013-07-03T11:47:19Z</time>
      </trkpt>
      <trkpt lat="40.258167" lon="-4.914750">
        <ele>1652.0</ele>
        <time>2013-07-03T11:47:20Z</time>
      </trkpt>
      <trkpt lat="40.258183" lon="-4.914683">
        <ele>1653.0</ele>
        <time>2013-07-03T11:47:21Z</time>
      </trkpt>
      <trkpt lat="40.258200" lon="-4.914617">
        <ele>1654.0</ele>
        <time>2013-07-03T11:47:22Z</time>
      </trkpt>
      <trkpt lat="40.258233" lon="-4.914550">
        <ele>1655.0</ele>
        <time>2013-07-03T11:47:23Z</time>
      </trkpt>
      <trkpt lat="40.258300" lon="-4.914500">
        <ele>1656.0</ele>
        <time>2013-07-03T11:47:24Z</time>
      </trkpt>
      <trkpt lat="40.258400" lon="-4.914467">
        <ele>1656.0</ele>
        <time>2013-07-03T11:47:25Z</time>
      </trkpt>
      <trkpt lat="40.258500" lon="-4.914467">
        <ele>1656.0</ele>
        <time>2013-07-03T11:47:26Z</time>
      </trkpt>
      <trkpt lat="40.258617" lon="-4.914517">
        <ele>1657.0</ele>
        <time>2013-07-03T11:47:27Z</time>
      </trkpt>
      <trkpt lat="40.258700" lon="-4.914583">
        <ele>1659.0</ele>
        <time>2013-07-03T11:47:28Z</time>
      </trkpt>
      <trkpt lat="40.258783" lon="-4.914667">
        <ele>1662.0</ele>
        <time>2013-07-03T11:47:29Z</time>
      </trkpt>
      <trkpt lat="40.258833" lon="-4.914733">
        <ele>1665.0</ele>
        <time>2013-07-03T11:47:30Z</time>
      </trkpt>
      <trkpt lat="40.258900" lon="-4.914800">
        <ele>1666.0</ele>
        <time>2013-07-03T11:47:31Z</time>
      </trkpt>
      <trkpt lat="40.258950" lon="-4.914883">
        <ele>1668.0</ele>
        <time>2013-07-03T11:47:32Z</time>
      </trkpt>
      <trkpt lat="40.259000" lon="-4.914983">
        <ele>1669.0</ele>
        <time>2013-07-03T11:47:33Z</time>
      </trkpt>
      <trkpt lat="40.259017" lon="-4.915083">
        <ele>1670.0</ele>
        <time>2013-07-03T11:47:34Z</time>
      </trkpt>
      <trkpt lat="40.259017" lon="-4.915200">
        <ele>1671.0</ele>
        <time>2013-07-03T11:47:35Z</time>
      </trkpt>
      <trkpt lat="40.259017" lon="-4.915300">
        <ele>1673.0</ele>
        <time>2013-07-03T11:47:36Z</time>
      </trkpt>
      <trkpt lat="40.258983" lon="-4.915400">
        <ele>1674.0</ele>
        <time>2013-07-03T11:47:37Z</time>
      </trkpt>
      <trkpt lat="40.258967" lon="-4.915483">
        <ele>1675.0</ele>
        <time>2013-07-03T11:47:38Z</time>
      </trkpt>
      <trkpt lat="40.258917" lon="-4.915533">
        <ele>1675.0</ele>
        <time>2013-07-03T11:47:39Z</time>
      </trkpt>
      <trkpt lat="40.258867" lon="-4.915550">
        <ele>1676.0</ele>
        <time>2013-07-03T11:47:40Z</time>
      </trkpt>
      <trkpt lat="40.258800" lon="-4.915517">
        <ele>1676.0</ele>
        <time>2013-07-03T11:47:41Z</time>
      </trkpt>
      <trkpt lat="40.258783" lon="-4.915450">
        <ele>1678.0</ele>
        <time>2013-07-03T11:47:42Z</time>
      </trkpt>
      <trkpt lat="40.258783" lon="-4.915367">
        <ele>1679.0</ele>
        <time>2013-07-03T11:47:43Z</time>
      </trkpt>
      <trkpt lat="40.258833" lon="-4.915283">
        <ele>1681.0</ele>
        <time>2013-07-03T11:47:44Z</time>
      </trkpt>
      <trkpt lat="40.258883" lon="-4.915217">
        <ele>1683.0</ele>
        <time>2013-07-03T11:47:45Z</time>
      </trkpt>
      <trkpt lat="40.258967" lon="-4.915167">
        <ele>1684.0</ele>
        <time>2013-07-03T11:47:46Z</time>
      </trkpt>
      <trkpt lat="40.259033" lon="-4.915133">
        <ele>1686.0</ele>
        <time>2013-07-03T11:47:47Z</time>
      </trkpt>
      <trkpt lat="40.259117" lon="-4.915100">
        <ele>1687.0</ele>
        <time>2013-07-03T11:47:48Z</time>
      </trkpt>
      <trkpt lat="40.259217" lon="-4.915100">
        <ele>1689.0</ele>
        <time>2013-07-03T11:47:49Z</time>
      </trkpt>
      <trkpt lat="40.259300" lon="-4.915117">
        <ele>1690.0</ele>
        <time>2013-07-03T11:47:50Z</time>
      </trkpt>
      <trkpt lat="40.259383" lon="-4.915167">
        <ele>1692.0</ele>
        <time>2013-07-03T11:47:51Z</time>
      </trkpt>
      <trkpt lat="40.259467" lon="-4.915233">
        <ele>1693.0</ele>
        <time>2013-07-03T11:47:52Z</time>
      </trkpt>
      <trkpt lat="40.259533" lon="-4.915333">
        <ele>1695.0</ele>
        <time>2013-07-03T11:47:53Z</time>
      </trkpt>
      <trkpt lat="40.259600" lon="-4.915450">
        <ele>1697.0</ele>
        <time>2013-07-03T11:47:54Z</time>
      </trkpt>
      <trkpt lat="40.259633" lon="-4.915567">
        <ele>1699.0</ele>
        <time>2013-07-03T11:47:55Z</time>
      </trkpt>
      <trkpt lat="40.259667" lon="-4.915667">
        <ele>1702.0</ele>
        <time>2013-07-03T11:47:56Z</time>
      </trkpt>
      <trkpt lat="40.259683" lon="-4.915783">
        <ele>1704.0</ele>
        <time>2013-07-03T11:47:57Z</time>
      </trkpt>
      <trkpt lat="40.259667" lon="-4.915883">
        <ele>1706.0</ele>
        <time>2013-07-03T11:47:58Z</time>
      </trkpt>
      <trkpt lat="40.259617" lon="-4.915967">
        <ele>1709.0</ele>
        <time>2013-07-03T11:47:59Z</time>
      </trkpt>
      <trkpt lat="40.259567" lon="-4.916050">
        <ele>1713.0</ele>
        <time>2013-07-03T11:48:00Z</time>
      </trkpt>
      <trkpt lat="40.259500" lon="-4.916100">
        <ele>1717.0</ele>
        <time>2013-07-03T11:48:01Z</time>
      </trkpt>
      <trkpt lat="40.259450" lon="-4.916100">
        <ele>1721.0</ele>
        <time>2013-07-03T11:48:02Z</time>
      </trkpt>
      <trkpt lat="40.259400" lon="-4.916083">
        <ele>1723.0</ele>
        <time>2013-07-03T11:48:03Z</time>
      </trkpt>
      <trkpt lat="40.259350" lon="-4.916067">
        <ele>1724.0</ele>
        <time>2013-07-03T11:48:04Z</time>
      </trkpt>
      <trkpt lat="40.259300" lon="-4.916050">
        <ele>1726.0</ele>
        <time>2013-07-03T11:48:05Z</time>
      </trkpt>
      <trkpt lat="40.259267" lon="-4.916000">
        <ele>1727.0</ele>
        <time>2013-07-03T11:48:06Z</time>
      </trkpt>
      <trkpt lat="40.259250" lon="-4.915933">
        <ele>1727.0</ele>
        <time>2013-07-03T11:48:07Z</time>
      </trkpt>
      <trkpt lat="40.259283" lon="-4.915850">
        <ele>1727.0</ele>
        <time>2013-07-03T11:48:08Z</time>
      </trkpt>
      <trkpt lat="40.259350" lon="-4.915767">
        <ele>1727.0</ele>
        <time>2013-07-03T11:48:09Z</time>
      </trkpt>
      <trkpt lat="40.259433" lon="-4.915733">
        <ele>1729.0</ele>
        <time>2013-07-03T11:48:10Z</time>
      </trkpt>
      <trkpt lat="40.259517" lon="-4.915717">
        <ele>1731.0</ele>
        <time>2013-07-03T11:48:11Z</time>
      </trkpt>
      <trkpt lat="40.259600" lon="-4.915717">
        <ele>1734.0</ele>
        <time>2013-07-03T11:48:12Z</time>
      </trkpt>
      <trkpt lat="40.259683" lon="-4.915733">
        <ele>1736.0</ele>
        <time>2013-07-03T11:48:13Z</time>
      </trkpt>
      <trkpt lat="40.259750" lon="-4.915750">
        <ele>1737.0</ele>
        <time>2013-07-03T11:48:14Z</time>
      </trkpt>
      <trkpt lat="40.259833" lon="-4.915800">
        <ele>1739.0</ele>
        <time>2013-07-03T11:48:15Z</time>
      </trkpt>
      <trkpt lat="40.259917" lon="-4.915867">
        <ele>1741.0</ele>
        <time>2013-07-03T11:48:16Z</time>
      </trkpt>
      <trkpt lat="40.259983" lon="-4.915950">
        <ele>1745.0</ele>
        <time>2013-07-03T11:48:17Z</time>
      </trkpt>
      <trkpt lat="40.260017" lon="-4.916050">
        <ele>1749.0</ele>
        <time>2013-07-03T11:48:18Z</time>
      </trkpt>
      <trkpt lat="40.260033" lon="-4.916133">
        <ele>1751.0</ele>
        <time>2013-07-03T11:48:19Z</time>
      </trkpt>
      <trkpt lat="40.260033" lon="-4.916217">
        <ele>1753.0</ele>
        <time>2013-07-03T11:48:20Z</time>
      </trkpt>
      <trkpt lat="40.260050" lon="-4.916333">
        <ele>1755.0</ele>
        <time>2013-07-03T11:48:21Z</time>
      </trkpt>
      <trkpt lat="40.260067" lon="-4.916450">
        <ele>1758.0</ele>
        <time>2013-07-03T11:48:22Z</time>
      </trkpt>
      <trkpt lat="40.260050" lon="-4.916583">
        <ele>1762.0</ele>
        <time>2013-07-03T11:48:23Z</time>
      </trkpt>
      <trkpt lat="40.260033" lon="-4.916683">
        <ele>1766.0</ele>
        <time>2013-07-03T11:48:24Z</time>
      </trkpt>
      <trkpt lat="40.260000" lon="-4.916767">
        <ele>1769.0</ele>
        <time>2013-07-03T11:48:25Z</time>
      </trkpt>
      <trkpt lat="40.259967" lon="-4.916800">
        <ele>1772.0</ele>
        <time>2013-07-03T11:48:26Z</time>
      </trkpt>
      <trkpt lat="40.259933" lon="-4.916833">
        <ele>1775.0</ele>
        <time>2013-07-03T11:48:27Z</time>
      </trkpt>
      <trkpt lat="40.259883" lon="-4.916867">
        <ele>1776.0</ele>
        <time>2013-07-03T11:48:28Z</time>
      </trkpt>
      <trkpt lat="40.259833" lon="-4.916883">
        <ele>1778.0</ele>
        <time>2013-07-03T11:48:29Z</time>
      </trkpt>
      <trkpt lat="40.259767" lon="-4.916850">
        <ele>1779.0</ele>
        <time>2013-07-03T11:48:30Z</time>
      </trkpt>
      <trkpt lat="40.259750" lon="-4.916767">
        <ele>1780.0</ele>
        <time>2013-07-03T11:48:31Z</time>
      </trkpt>
      <trkpt lat="40.259767" lon="-4.916650">
        <ele>1780.0</ele>
        <time>2013-07-03T11:48:32Z</time>
      </trkpt>
      <trkpt lat="40.259850" lon="-4.916567">
        <ele>1782.0</ele>
        <time>2013-07-03T11:48:33Z</time>
      </trkpt>
      <trkpt lat="40.259950" lon="-4.916517">
        <ele>1785.0</ele>
        <time>2013-07-03T11:48:34Z</time>
      </trkpt>
      <trkpt lat="40.260033" lon="-4.916517">
        <ele>1789.0</ele>
        <time>2013-07-03T11:48:35Z</time>
      </trkpt>
      <trkpt lat="40.260117" lon="-4.916567">
        <ele>1793.0</ele>
        <time>2013-07-03T11:48:36Z</time>
      </trkpt>
      <trkpt lat="40.260200" lon="-4.916633">
        <ele>1795.0</ele>
        <time>2013-07-03T11:48:37Z</time>
      </trkpt>
      <trkpt lat="40.260283" lon="-4.916700">
        <ele>1797.0</ele>
        <time>2013-07-03T11:48:38Z</time>
      </trkpt>
      <trkpt lat="40.260367" lon="-4.916767">
        <ele>1800.0</ele>
        <time>2013-07-03T11:48:39Z</time>
      </trkpt>
      <trkpt lat="40.260433" lon="-4.916833">
        <ele>1803.0</ele>
        <time>2013-07-03T11:48:40Z</time>
      </trkpt>
      <trkpt lat="40.260500" lon="-4.916917">
        <ele>1806.0</ele>
        <time>2013-07-03T11:48:41Z</time>
      </trkpt>
      <trkpt lat="40.260533" lon="-4.917050">
        <ele>1808.0</ele>
        <time>2013-07-03T11:48:42Z</time>
      </trkpt>
      <trkpt lat="40.260550" lon="-4.917183">
        <ele>1810.0</ele>
        <time>2013-07-03T11:48:43Z</time>
      </trkpt>
      <trkpt lat="40.260533" lon="-4.917317">
        <ele>1813.0</ele>
        <time>2013-07-03T11:48:44Z</time>
      </trkpt>
      <trkpt lat="40.260500" lon="-4.917417">
        <ele>1816.0</ele>
        <time>2013-07-03T11:48:45Z</time>
      </trkpt>
      <trkpt lat="40.260433" lon="-4.917467">
        <ele>1820.0</ele>
        <time>2013-07-03T11:48:46Z</time>
      </trkpt>
      <trkpt lat="40.260383" lon="-4.917467">
        <ele>1822.0</ele>
        <time>2013-07-03T11:48:47Z</time>
      </trkpt>
      <trkpt lat="40.260333" lon="-4.917417">
        <ele>1825.0</ele>
        <time>2013-07-03T11:48:48Z</time>
      </trkpt>
      <trkpt lat="40.260300" lon="-4.917367">
        <ele>1827.0</ele>
        <time>2013-07-03T11:48:49Z</time>
      </trkpt>
      <trkpt lat="40.260267" lon="-4.917317">
        <ele>1829.0</ele>
        <time>2013-07-03T11:48:50Z</time>
      </trkpt>
      <trkpt lat="40.260250" lon="-4.917250">
        <ele>1832.0</ele>
        <time>2013-07-03T11:48:51Z</time>
      </trkpt>
      <trkpt lat="40.260250" lon="-4.917167">
        <ele>1834.0</ele>
        <time>2013-07-03T11:48:52Z</time>
      </trkpt>
      <trkpt lat="40.260283" lon="-4.917083">
        <ele>1835.0</ele>
        <time>2013-07-03T11:48:53Z</time>
      </trkpt>
      <trkpt lat="40.260350" lon="-4.917000">
        <ele>1836.0</ele>
        <time>2013-07-03T11:48:54Z</time>
      </trkpt>
      <trkpt lat="40.260450" lon="-4.916933">
        <ele>1838.0</ele>
        <time>2013-07-03T11:48:55Z</time>
      </trkpt>
      <trkpt lat="40.260550" lon="-4.916917">
        <ele>1841.0</ele>
        <time>2013-07-03T11:48:56Z</time>
      </trkpt>
      <trkpt lat="40.260650" lon="-4.916933">
        <ele>1844.0</ele>
        <time>2013-07-03T11:48:57Z</time>
      </trkpt>
      <trkpt lat="40.260733" lon="-4.916967">
        <ele>1847.0</ele>
        <time>2013-07-03T11:48:58Z</time>
      </trkpt>
      <trkpt lat="40.260817" lon="-4.917033">
        <ele>1849.0</ele>
        <time>2013-07-03T11:48:59Z</time>
      </trkpt>
      <trkpt lat="40.260883" lon="-4.917133">
        <ele>1851.0</ele>
        <time>2013-07-03T11:49:00Z</time>
      </trkpt>
      <trkpt lat="40.260933" lon="-4.917233">
        <ele>1853.0</ele>
        <time>2013-07-03T11:49:01Z</time>
      </trkpt>
      <trkpt lat="40.260967" lon="-4.917350">
        <ele>1856.0</ele>
        <time>2013-07-03T11:49:02Z</time>
      </trkpt>
      <trkpt lat="40.261000" lon="-4.917467">
        <ele>1859.0</ele>
        <time>2013-07-03T11:49:03Z</time>
      </trkpt>
      <trkpt lat="40.261000" lon="-4.917583">
        <ele>1862.0</ele>
        <time>2013-07-03T11:49:04Z</time>
      </trkpt>
      <trkpt lat="40.260983" lon="-4.917667">
        <ele>1865.0</ele>
        <time>2013-07-03T11:49:05Z</time>
      </trkpt>
      <trkpt lat="40.260950" lon="-4.917733">
        <ele>1866.0</ele>
        <time>2013-07-03T11:49:06Z</time>
      </trkpt>
      <trkpt lat="40.260900" lon="-4.917767">
        <ele>1869.0</ele>
        <time>2013-07-03T11:49:07Z</time>
      </trkpt>
      <trkpt lat="40.260850" lon="-4.917767">
        <ele>1871.0</ele>
        <time>2013-07-03T11:49:08Z</time>
      </trkpt>
      <trkpt lat="40.260783" lon="-4.917783">
        <ele>1876.0</ele>
        <time>2013-07-03T11:49:09Z</time>
      </trkpt>
      <trkpt lat="40.260733" lon="-4.917767">
        <ele>1881.0</ele>
        <time>2013-07-03T11:49:10Z</time>
      </trkpt>
      <trkpt lat="40.260700" lon="-4.917750">
        <ele>1884.0</ele>
        <time>2013-07-03T11:49:11Z</time>
      </trkpt>
      <trkpt lat="40.260683" lon="-4.917700">
        <ele>1887.0</ele>
        <time>2013-07-03T11:49:12Z</time>
      </trkpt>
      <trkpt lat="40.260650" lon="-4.917617">
        <ele>1889.0</ele>
        <time>2013-07-03T11:49:13Z</time>
      </trkpt>
      <trkpt lat="40.260650" lon="-4.917533">
        <ele>1892.0</ele>
        <time>2013-07-03T11:49:14Z</time>
      </trkpt>
      <trkpt lat="40.260683" lon="-4.917467">
        <ele>1895.0</ele>
        <time>2013-07-03T11:49:15Z</time>
      </trkpt>
      <trkpt lat="40.260733" lon="-4.917400">
        <ele>1897.0</ele>
        <time>2013-07-03T11:49:16Z</time>
      </trkpt>
      <trkpt lat="40.260817" lon="-4.917350">
        <ele>1898.0</ele>
        <time>2013-07-03T11:49:17Z</time>
      </trkpt>
      <trkpt lat="40.260900" lon="-4.917300">
        <ele>1900.0</ele>
        <time>2013-07-03T11:49:18Z</time>
      </trkpt>
      <trkpt lat="40.260983" lon="-4.917283">
        <ele>1902.0</ele>
        <time>2013-07-03T11:49:19Z</time>
      </trkpt>
      <trkpt lat="40.261067" lon="-4.917267">
        <ele>1906.0</ele>
        <time>2013-07-03T11:49:20Z</time>
      </trkpt>
      <trkpt lat="40.261150" lon="-4.917283">
        <ele>1909.0</ele>
        <time>2013-07-03T11:49:21Z</time>
      </trkpt>
      <trkpt lat="40.261233" lon="-4.917317">
        <ele>1912.0</ele>
        <time>2013-07-03T11:49:22Z</time>
      </trkpt>
      <trkpt lat="40.261317" lon="-4.917383">
        <ele>1915.0</ele>
        <time>2013-07-03T11:49:23Z</time>
      </trkpt>
      <trkpt lat="40.261383" lon="-4.917467">
        <ele>1917.0</ele>
        <time>2013-07-03T11:49:24Z</time>
      </trkpt>
      <trkpt lat="40.261417" lon="-4.917600">
        <ele>1919.0</ele>
        <time>2013-07-03T11:49:25Z</time>
      </trkpt>
      <trkpt lat="40.261417" lon="-4.917733">
        <ele>1921.0</ele>
        <time>2013-07-03T11:49:26Z</time>
      </trkpt>
      <trkpt lat="40.261383" lon="-4.917833">
        <ele>1923.0</ele>
        <time>2013-07-03T11:49:27Z</time>
      </trkpt>
      <trkpt lat="40.261350" lon="-4.917917">
        <ele>1926.0</ele>
        <time>2013-07-03T11:49:28Z</time>
      </trkpt>
      <trkpt lat="40.261300" lon="-4.917983">
        <ele>1930.0</ele>
        <time>2013-07-03T11:49:29Z</time>
      </trkpt>
      <trkpt lat="40.261283" lon="-4.918050">
        <ele>1933.0</ele>
        <time>2013-07-03T11:49:30Z</time>
      </trkpt>
      <trkpt lat="40.261267" lon="-4.918133">
        <ele>1936.0</ele>
        <time>2013-07-03T11:49:31Z</time>
      </trkpt>
      <trkpt lat="40.261250" lon="-4.918200">
        <ele>1939.0</ele>
        <time>2013-07-03T11:49:32Z</time>
      </trkpt>
      <trkpt lat="40.261217" lon="-4.918267">
        <ele>1940.0</ele>
        <time>2013-07-03T11:49:33Z</time>
      </trkpt>
      <trkpt lat="40.261150" lon="-4.918300">
        <ele>1941.0</ele>
        <time>2013-07-03T11:49:34Z</time>
      </trkpt>
      <trkpt lat="40.261083" lon="-4.918317">
        <ele>1944.0</ele>
        <time>2013-07-03T11:49:35Z</time>
      </trkpt>
      <trkpt lat="40.261033" lon="-4.918317">
        <ele>1948.0</ele>
        <time>2013-07-03T11:49:36Z</time>
      </trkpt>
      <trkpt lat="40.260983" lon="-4.918317">
        <ele>1952.0</ele>
        <time>2013-07-03T11:49:37Z</time>
      </trkpt>
      <trkpt lat="40.260967" lon="-4.918283">
        <ele>1955.0</ele>
        <time>2013-07-03T11:49:38Z</time>
      </trkpt>
      <trkpt lat="40.260933" lon="-4.918233">
        <ele>1958.0</ele>
        <time>2013-07-03T11:49:39Z</time>
      </trkpt>
      <trkpt lat="40.260900" lon="-4.918183">
        <ele>1959.0</ele>
        <time>2013-07-03T11:49:40Z</time>
      </trkpt>
      <trkpt lat="40.260850" lon="-4.918117">
        <ele>1961.0</ele>
        <time>2013-07-03T11:49:41Z</time>
      </trkpt>
      <trkpt lat="40.260833" lon="-4.918050">
        <ele>1964.0</ele>
        <time>2013-07-03T11:49:42Z</time>
      </trkpt>
      <trkpt lat="40.260850" lon="-4.917950">
        <ele>1966.0</ele>
        <time>2013-07-03T11:49:43Z</time>
      </trkpt>
      <trkpt lat="40.260900" lon="-4.917867">
        <ele>1968.0</ele>
        <time>2013-07-03T11:49:44Z</time>
      </trkpt>
      <trkpt lat="40.260983" lon="-4.917783">
        <ele>1970.0</ele>
        <time>2013-07-03T11:49:45Z</time>
      </trkpt>
      <trkpt lat="40.261050" lon="-4.917733">
        <ele>1974.0</ele>
        <time>2013-07-03T11:49:46Z</time>
      </trkpt>
      <trkpt lat="40.261117" lon="-4.917700">
        <ele>1978.0</ele>
        <time>2013-07-03T11:49:47Z</time>
      </trkpt>
      <trkpt lat="40.261183" lon="-4.917683">
        <ele>1980.0</ele>
        <time>2013-07-03T11:49:48Z</time>
      </trkpt>
      <trkpt lat="40.261267" lon="-4.917667">
        <ele>1982.0</ele>
        <time>2013-07-03T11:49:49Z</time>
      </trkpt>
      <trkpt lat="40.261367" lon="-4.917683">
        <ele>1984.0</ele>
        <time>2013-07-03T11:49:50Z</time>
      </trkpt>
      <trkpt lat="40.261450" lon="-4.917717">
        <ele>1988.0</ele>
        <time>2013-07-03T11:49:51Z</time>
      </trkpt>
      <trkpt lat="40.261517" lon="-4.917783">
        <ele>1991.0</ele>
        <time>2013-07-03T11:49:52Z</time>
      </trkpt>
      <trkpt lat="40.261567" lon="-4.917883">
        <ele>1994.0</ele>
        <time>2013-07-03T11:49:53Z</time>
      </trkpt>
      <trkpt lat="40.261567" lon="-4.917983">
        <ele>1995.0</ele>
        <time>2013-07-03T11:49:54Z</time>
      </trkpt>
      <trkpt lat="40.261567" lon="-4.918083">
        <ele>1998.0</ele>
        <time>2013-07-03T11:49:55Z</time>
      </trkpt>
      <trkpt lat="40.261533" lon="-4.918200">
        <ele>2001.0</ele>
        <time>2013-07-03T11:49:56Z</time>
      </trkpt>
      <trkpt lat="40.261517" lon="-4.918283">
        <ele>2004.0</ele>
        <time>2013-07-03T11:49:57Z</time>
      </trkpt>
      <trkpt lat="40.261500" lon="-4.918350">
        <ele>2006.0</ele>
        <time>2013-07-03T11:49:58Z</time>
      </trkpt>
      <trkpt lat="40.261467" lon="-4.918417">
        <ele>2008.0</ele>
        <time>2013-07-03T11:49:59Z</time>
      </trkpt>
      <trkpt lat="40.261433" lon="-4.918483">
        <ele>2010.0</ele>
        <time>2013-07-03T11:50:00Z</time>
      </trkpt>
      <trkpt lat="40.261383" lon="-4.918533">
        <ele>2012.0</ele>
        <time>2013-07-03T11:50:01Z</time>
      </trkpt>
      <trkpt lat="40.261333" lon="-4.918550">
        <ele>2015.0</ele>
        <time>2013-07-03T11:50:02Z</time>
      </trkpt>
      <trkpt lat="40.261283" lon="-4.918550">
        <ele>2018.0</ele>
        <time>2013-07-03T11:50:03Z</time>
      </trkpt>
      <trkpt lat="40.261250" lon="-4.918517">
        <ele>2021.0</ele>
        <time>2013-07-03T11:50:04Z</time>
      </trkpt>
      <trkpt lat="40.261217" lon="-4.918467">
        <ele>2023.0</ele>
        <time>2013-07-03T11:50:05Z</time>
      </trkpt>
      <trkpt lat="40.261200" lon="-4.918400">
        <ele>2025.0</ele>
        <time>2013-07-03T11:50:06Z</time>
      </trkpt>
      <trkpt lat="40.261183" lon="-4.918333">
        <ele>2027.0</ele>
        <time>2013-07-03T11:50:07Z</time>
      </trkpt>
      <trkpt lat="40.261150" lon="-4.918233">
        <ele>2029.0</ele>
        <time>2013-07-03T11:50:08Z</time>
      </trkpt>
      <trkpt lat="40.261133" lon="-4.918150">
        <ele>2032.0</ele>
        <time>2013-07-03T11:50:09Z</time>
      </trkpt>
      <trkpt lat="40.261117" lon="-4.918083">
        <ele>2034.0</ele>
        <time>2013-07-03T11:50:10Z</time>
      </trkpt>
      <trkpt lat="40.261117" lon="-4.917983">
        <ele>2036.0</ele>
        <time>2013-07-03T11:50:11Z</time>
      </trkpt>
      <trkpt lat="40.261133" lon="-4.917900">
        <ele>2037.0</ele>
        <time>2013-07-03T11:50:12Z</time>
      </trkpt>
      <trkpt lat="40.261150" lon="-4.917783">
        <ele>2038.0</ele>
        <time>2013-07-03T11:50:13Z</time>
      </trkpt>
      <trkpt lat="40.261183" lon="-4.917650">
        <ele>2039.0</ele>
        <time>2013-07-03T11:50:14Z</time>
      </trkpt>
      <trkpt lat="40.261233" lon="-4.917550">
        <ele>2042.0</ele>
        <time>2013-07-03T11:50:15Z</time>
      </trkpt>
      <trkpt lat="40.261300" lon="-4.917467">
        <ele>2045.0</ele>
        <time>2013-07-03T11:50:16Z</time>
      </trkpt>
      <trkpt lat="40.261350" lon="-4.917400">
        <ele>2047.0</ele>
        <time>2013-07-03T11:50:17Z</time>
      </trkpt>
      <trkpt lat="40.261417" lon="-4.917367">
        <ele>2049.0</ele>
        <time>2013-07-03T11:50:18Z</time>
      </trkpt>
      <trkpt lat="40.261500" lon="-4.917350">
        <ele>2050.0</ele>
        <time>2013-07-03T11:50:19Z</time>
      </trkpt>
      <trkpt lat="40.261583" lon="-4.917317">
        <ele>2052.0</ele>
        <time>2013-07-03T11:50:20Z</time>
      </trkpt>
      <trkpt lat="40.261667" lon="-4.917300">
        <ele>2056.0</ele>
        <time>2013-07-03T11:50:21Z</time>
      </trkpt>
      <trkpt lat="40.261733" lon="-4.917283">
        <ele>2059.0</ele>
        <time>2013-07-03T11:50:22Z</time>
      </trkpt>
      <trkpt lat="40.261800" lon="-4.917267">
        <ele>2062.0</ele>
        <time>2013-07-03T11:50:23Z</time>
      </trkpt>
      <trkpt lat="40.261867" lon="-4.917250">
        <ele>2064.0</ele>
        <time>2013-07-03T11:50:24Z</time>
      </trkpt>
      <trkpt lat="40.261933" lon="-4.917233">
        <ele>2067.0</ele>
        <time>2013-07-03T11:50:25Z</time>
      </trkpt>
      <trkpt lat="40.262017" lon="-4.917217">
        <ele>2070.0</ele>
        <time>2013-07-03T11:50:26Z</time>
      </trkpt>
      <trkpt lat="40.262100" lon="-4.917233">
        <ele>2073.0</ele>
        <time>2013-07-03T11:50:27Z</time>
      </trkpt>
      <trkpt lat="40.262183" lon="-4.917300">
        <ele>2076.0</ele>
        <time>2013-07-03T11:50:28Z</time>
      </trkpt>
      <trkpt lat="40.262250" lon="-4.917400">
        <ele>2079.0</ele>
        <time>2013-07-03T11:50:29Z</time>
      </trkpt>
      <trkpt lat="40.262283" lon="-4.917517">
        <ele>2082.0</ele>
        <time>2013-07-03T11:50:30Z</time>
      </trkpt>
      <trkpt lat="40.262317" lon="-4.917633">
        <ele>2084.0</ele>
        <time>2013-07-03T11:50:31Z</time>
      </trkpt>
      <trkpt lat="40.262333" lon="-4.917750">
        <ele>2086.0</ele>
        <time>2013-07-03T11:50:32Z</time>
      </trkpt>
      <trkpt lat="40.262333" lon="-4.917867">
        <ele>2089.0</ele>
        <time>2013-07-03T11:50:33Z</time>
      </trkpt>
      <trkpt lat="40.262333" lon="-4.917967">
        <ele>2091.0</ele>
        <time>2013-07-03T11:50:34Z</time>
      </trkpt>
      <trkpt lat="40.262317" lon="-4.918050">
        <ele>2094.0</ele>
        <time>2013-07-03T11:50:35Z</time>
      </trkpt>
      <trkpt lat="40.262283" lon="-4.918150">
        <ele>2097.0</ele>
        <time>2013-07-03T11:50:36Z</time>
      </trkpt>
      <trkpt lat="40.262267" lon="-4.918233">
        <ele>2099.0</ele>
        <time>2013-07-03T11:50:37Z</time>
      </trkpt>
      <trkpt lat="40.262233" lon="-4.918300">
        <ele>2101.0</ele>
        <time>2013-07-03T11:50:38Z</time>
      </trkpt>
      <trkpt lat="40.262183" lon="-4.918367">
        <ele>2103.0</ele>
        <time>2013-07-03T11:50:39Z</time>
      </trkpt>
      <trkpt lat="40.262117" lon="-4.918417">
        <ele>2105.0</ele>
        <time>2013-07-03T11:50:40Z</time>
      </trkpt>
      <trkpt lat="40.262067" lon="-4.918433">
        <ele>2107.0</ele>
        <time>2013-07-03T11:50:41Z</time>
      </trkpt>
      <trkpt lat="40.262000" lon="-4.918433">
        <ele>2108.0</ele>
        <time>2013-07-03T11:50:42Z</time>
      </trkpt>
      <trkpt lat="40.261950" lon="-4.918400">
        <ele>2108.0</ele>
        <time>2013-07-03T11:50:43Z</time>
      </trkpt>
      <trkpt lat="40.261933" lon="-4.918333">
        <ele>2109.0</ele>
        <time>2013-07-03T11:50:44Z</time>
      </trkpt>
      <trkpt lat="40.261917" lon="-4.918250">
        <ele>2110.0</ele>
        <time>2013-07-03T11:50:45Z</time>
      </trkpt>
      <trkpt lat="40.261900" lon="-4.918167">
        <ele>2111.0</ele>
        <time>2013-07-03T11:50:46Z</time>
      </trkpt>
      <trkpt lat="40.261883" lon="-4.918083">
        <ele>2112.0</ele>
        <time>2013-07-03T11:50:47Z</time>
      </trkpt>
      <trkpt lat="40.261867" lon="-4.918017">
        <ele>2114.0</ele>
        <time>2013-07-03T11:50:48Z</time>
      </trkpt>
      <trkpt lat="40.261833" lon="-4.917950">
        <ele>2115.0</ele>
        <time>2013-07-03T11:50:49Z</time>
      </trkpt>
      <trkpt lat="40.261817" lon="-4.917867">
        <ele>2117.0</ele>
        <time>2013-07-03T11:50:50Z</time>
      </trkpt>
      <trkpt lat="40.261817" lon="-4.917800">
        <ele>2118.0</ele>
        <time>2013-07-03T11:50:51Z</time>
      </trkpt>
      <trkpt lat="40.261800" lon="-4.917717">
        <ele>2118.0</ele>
        <time>2013-07-03T11:50:52Z</time>
      </trkpt>
      <trkpt lat="40.261817" lon="-4.917633">
        <ele>2118.0</ele>
        <time>2013-07-03T11:50:53Z</time>
      </trkpt>
      <trkpt lat="40.261817" lon="-4.917533">
        <ele>2117.0</ele>
        <time>2013-07-03T11:50:54Z</time>
      </trkpt>
      <trkpt lat="40.261850" lon="-4.917417">
        <ele>2118.0</ele>
        <time>2013-07-03T11:50:55Z</time>
      </trkpt>
      <trkpt lat="40.261883" lon="-4.917300">
        <ele>2119.0</ele>
        <time>2013-07-03T11:50:56Z</time>
      </trkpt>
      <trkpt lat="40.261933" lon="-4.917217">
        <ele>2120.0</ele>
        <time>2013-07-03T11:50:57Z</time>
      </trkpt>
      <trkpt lat="40.261967" lon="-4.917117">
        <ele>2122.0</ele>
        <time>2013-07-03T11:50:58Z</time>
      </trkpt>
      <trkpt lat="40.262000" lon="-4.917050">
        <ele>2124.0</ele>
        <time>2013-07-03T11:50:59Z</time>
      </trkpt>
      <trkpt lat="40.262033" lon="-4.916967">
        <ele>2127.0</ele>
        <time>2013-07-03T11:51:00Z</time>
      </trkpt>
      <trkpt lat="40.262050" lon="-4.916883">
        <ele>2129.0</ele>
        <time>2013-07-03T11:51:01Z</time>
      </trkpt>
      <trkpt lat="40.262067" lon="-4.916783">
        <ele>2132.0</ele>
        <time>2013-07-03T11:51:02Z</time>
      </trkpt>
      <trkpt lat="40.262083" lon="-4.916700">
        <ele>2135.0</ele>
        <time>2013-07-03T11:51:03Z</time>
      </trkpt>
      <trkpt lat="40.262117" lon="-4.916633">
        <ele>2136.0</ele>
        <time>2013-07-03T11:51:04Z</time>
      </trkpt>
      <trkpt lat="40.262150" lon="-4.916550">
        <ele>2138.0</ele>
        <time>2013-07-03T11:51:05Z</time>
      </trkpt>
      <trkpt lat="40.262183" lon="-4.916467">
        <ele>2140.0</ele>
        <time>2013-07-03T11:51:06Z</time>
      </trkpt>
      <trkpt lat="40.262217" lon="-4.916383">
        <ele>2142.0</ele>
        <time>2013-07-03T11:51:07Z</time>
      </trkpt>
      <trkpt lat="40.262250" lon="-4.916283">
        <ele>2144.0</ele>
        <time>2013-07-03T11:51:08Z</time>
      </trkpt>
      <trkpt lat="40.262300" lon="-4.916183">
        <ele>2147.0</ele>
        <time>2013-07-03T11:51:09Z</time>
      </trkpt>
      <trkpt lat="40.262333" lon="-4.916100">
        <ele>2150.0</ele>
        <time>2013-07-03T11:51:10Z</time>
      </trkpt>
      <trkpt lat="40.262367" lon="-4.916000">
        <ele>2153.0</ele>
        <time>2013-07-03T11:51:11Z</time>
      </trkpt>
      <trkpt lat="40.262400" lon="-4.915917">
        <ele>2156.0</ele>
        <time>2013-07-03T11:51:12Z</time>
      </trkpt>
      <trkpt lat="40.262433" lon="-4.915817">
        <ele>2161.0</ele>
        <time>2013-07-03T11:51:13Z</time>
      </trkpt>
      <trkpt lat="40.262450" lon="-4.915733">
        <ele>2164.0</ele>
        <time>2013-07-03T11:51:14Z</time>
      </trkpt>
      <trkpt lat="40.262483" lon="-4.915650">
        <ele>2167.0</ele>
        <time>2013-07-03T11:51:15Z</time>
      </trkpt>
      <trkpt lat="40.262517" lon="-4.915567">
        <ele>2170.0</ele>
        <time>2013-07-03T11:51:16Z</time>
      </trkpt>
      <trkpt lat="40.262567" lon="-4.915483">
        <ele>2172.0</ele>
        <time>2013-07-03T11:51:17Z</time>
      </trkpt>
      <trkpt lat="40.262633" lon="-4.915417">
        <ele>2175.0</ele>
        <time>2013-07-03T11:51:18Z</time>
      </trkpt>
      <trkpt lat="40.262717" lon="-4.915400">
        <ele>2178.0</ele>
        <time>2013-07-03T11:51:19Z</time>
      </trkpt>
      <trkpt lat="40.262800" lon="-4.915417">
        <ele>2180.0</ele>
        <time>2013-07-03T11:51:20Z</time>
      </trkpt>
      <trkpt lat="40.262883" lon="-4.915467">
        <ele>2183.0</ele>
        <time>2013-07-03T11:51:21Z</time>
      </trkpt>
      <trkpt lat="40.262933" lon="-4.915550">
        <ele>2186.0</ele>
        <time>2013-07-03T11:51:22Z</time>
      </trkpt>
      <trkpt lat="40.262983" lon="-4.915633">
        <ele>2188.0</ele>
        <time>2013-07-03T11:51:23Z</time>
      </trkpt>
      <trkpt lat="40.263000" lon="-4.915717">
        <ele>2191.0</ele>
        <time>2013-07-03T11:51:24Z</time>
      </trkpt>
      <trkpt lat="40.263000" lon="-4.915800">
        <ele>2195.0</ele>
        <time>2013-07-03T11:51:25Z</time>
      </trkpt>
      <trkpt lat="40.263000" lon="-4.915850">
        <ele>2198.0</ele>
        <time>2013-07-03T11:51:26Z</time>
      </trkpt>
      <trkpt lat="40.263000" lon="-4.915933">
        <ele>2200.0</ele>
        <time>2013-07-03T11:51:27Z</time>
      </trkpt>
      <trkpt lat="40.262967" lon="-4.916017">
        <ele>2201.0</ele>
        <time>2013-07-03T11:51:28Z</time>
      </trkpt>
      <trkpt lat="40.262917" lon="-4.916083">
        <ele>2201.0</ele>
        <time>2013-07-03T11:51:29Z</time>
      </trkpt>
      <trkpt lat="40.262833" lon="-4.916133">
        <ele>2202.0</ele>
        <time>2013-07-03T11:51:30Z</time>
      </trkpt>
      <trkpt lat="40.262750" lon="-4.916150">
        <ele>2203.0</ele>
        <time>2013-07-03T11:51:31Z</time>
      </trkpt>
      <trkpt lat="40.262667" lon="-4.916117">
        <ele>2205.0</ele>
        <time>2013-07-03T11:51:32Z</time>
      </trkpt>
      <trkpt lat="40.262600" lon="-4.916067">
        <ele>2206.0</ele>
        <time>2013-07-03T11:51:33Z</time>
      </trkpt>
      <trkpt lat="40.262517" lon="-4.916000">
        <ele>2207.0</ele>
        <time>2013-07-03T11:51:34Z</time>
      </trkpt>
      <trkpt lat="40.262467" lon="-4.915917">
        <ele>2209.0</ele>
        <time>2013-07-03T11:51:35Z</time>
      </trkpt>
      <trkpt lat="40.262400" lon="-4.915800">
        <ele>2210.0</ele>
        <time>2013-07-03T11:51:36Z</time>
      </trkpt>
      <trkpt lat="40.262367" lon="-4.915700">
        <ele>2213.0</ele>
        <time>2013-07-03T11:51:37Z</time>
      </trkpt>
      <trkpt lat="40.262333" lon="-4.915583">
        <ele>2215.0</ele>
        <time>2013-07-03T11:51:38Z</time>
      </trkpt>
      <trkpt lat="40.262333" lon="-4.915467">
        <ele>2219.0</ele>
        <time>2013-07-03T11:51:39Z</time>
      </trkpt>
      <trkpt lat="40.262333" lon="-4.915383">
        <ele>2222.0</ele>
        <time>2013-07-03T11:51:40Z</time>
      </trkpt>
      <trkpt lat="40.262333" lon="-4.915283">
        <ele>2226.0</ele>
        <time>2013-07-03T11:51:41Z</time>
      </trkpt>
      <trkpt lat="40.262333" lon="-4.915217">
        <ele>2229.0</ele>
        <time>2013-07-03T11:51:42Z</time>
      </trkpt>
      <trkpt lat="40.262333" lon="-4.915133">
        <ele>2232.0</ele>
        <time>2013-07-03T11:51:43Z</time>
      </trkpt>
      <trkpt lat="40.262367" lon="-4.915050">
        <ele>2234.0</ele>
        <time>2013-07-03T11:51:44Z</time>
      </trkpt>
      <trkpt lat="40.262400" lon="-4.915000">
        <ele>2236.0</ele>
        <time>2013-07-03T11:51:45Z</time>
      </trkpt>
      <trkpt lat="40.262467" lon="-4.914950">
        <ele>2239.0</ele>
        <time>2013-07-03T11:51:46Z</time>
      </trkpt>
      <trkpt lat="40.262533" lon="-4.914917">
        <ele>2242.0</ele>
        <time>2013-07-03T11:51:47Z</time>
      </trkpt>
      <trkpt lat="40.262600" lon="-4.914917">
        <ele>2246.0</ele>
        <time>2013-07-03T11:51:48Z</time>
      </trkpt>
      <trkpt lat="40.262650" lon="-4.914933">
        <ele>2250.0</ele>
        <time>2013-07-03T11:51:49Z</time>
      </trkpt>
      <trkpt lat="40.262717" lon="-4.914933">
        <ele>2253.0</ele>
        <time>2013-07-03T11:51:50Z</time>
      </trkpt>
      <trkpt lat="40.262783" lon="-4.914950">
        <ele>2256.0</ele>
        <time>2013-07-03T11:51:51Z</time>
      </trkpt>
      <trkpt lat="40.262850" lon="-4.915000">
        <ele>2259.0</ele>
        <time>2013-07-03T11:51:52Z</time>
      </trkpt>
      <trkpt lat="40.262900" lon="-4.915083">
        <ele>2261.0</ele>
        <time>2013-07-03T11:51:53Z</time>
      </trkpt>
      <trkpt lat="40.262950" lon="-4.915167">
        <ele>2264.0</ele>
        <time>2013-07-03T11:51:54Z</time>
      </trkpt>
      <trkpt lat="40.262950" lon="-4.915283">
        <ele>2267.0</ele>
        <time>2013-07-03T11:51:55Z</time>
      </trkpt>
      <trkpt lat="40.262917" lon="-4.915383">
        <ele>2270.0</ele>
        <time>2013-07-03T11:51:56Z</time>
      </trkpt>
      <trkpt lat="40.262867" lon="-4.915467">
        <ele>2272.0</ele>
        <time>2013-07-03T11:51:57Z</time>
      </trkpt>
      <trkpt lat="40.262800" lon="-4.915533">
        <ele>2273.0</ele>
        <time>2013-07-03T11:51:58Z</time>
      </trkpt>
      <trkpt lat="40.262733" lon="-4.915600">
        <ele>2274.0</ele>
        <time>2013-07-03T11:51:59Z</time>
      </trkpt>
      <trkpt lat="40.262650" lon="-4.915683">
        <ele>2276.0</ele>
        <time>2013-07-03T11:52:00Z</time>
      </trkpt>
      <trkpt lat="40.262567" lon="-4.915733">
        <ele>2277.0</ele>
        <time>2013-07-03T11:52:01Z</time>
      </trkpt>
      <trkpt lat="40.262483" lon="-4.915767">
        <ele>2279.0</ele>
        <time>2013-07-03T11:52:02Z</time>
      </trkpt>
      <trkpt lat="40.262383" lon="-4.915783">
        <ele>2280.0</ele>
        <time>2013-07-03T11:52:03Z</time>
      </trkpt>
      <trkpt lat="40.262283" lon="-4.915767">
        <ele>2281.0</ele>
        <time>2013-07-03T11:52:04Z</time>
      </trkpt>
      <trkpt lat="40.262183" lon="-4.915733">
        <ele>2283.0</ele>
        <time>2013-07-03T11:52:05Z</time>
      </trkpt>
      <trkpt lat="40.262100" lon="-4.915700">
        <ele>2285.0</ele>
        <time>2013-07-03T11:52:06Z</time>
      </trkpt>
      <trkpt lat="40.262017" lon="-4.915667">
        <ele>2286.0</ele>
        <time>2013-07-03T11:52:07Z</time>
      </trkpt>
      <trkpt lat="40.261917" lon="-4.915617">
        <ele>2285.0</ele>
        <time>2013-07-03T11:52:08Z</time>
      </trkpt>
      <trkpt lat="40.261817" lon="-4.915550">
        <ele>2285.0</ele>
        <time>2013-07-03T11:52:09Z</time>
      </trkpt>
      <trkpt lat="40.261717" lon="-4.915500">
        <ele>2286.0</ele>
        <time>2013-07-03T11:52:10Z</time>
      </trkpt>
      <trkpt lat="40.261600" lon="-4.915450">
        <ele>2288.0</ele>
        <time>2013-07-03T11:52:11Z</time>
      </trkpt>
      <trkpt lat="40.261517" lon="-4.915383">
        <ele>2291.0</ele>
        <time>2013-07-03T11:52:12Z</time>
      </trkpt>
      <trkpt lat="40.261450" lon="-4.915300">
        <ele>2293.0</ele>
        <time>2013-07-03T11:52:13Z</time>
      </trkpt>
      <trkpt lat="40.261383" lon="-4.915217">
        <ele>2295.0</ele>
        <time>2013-07-03T11:52:14Z</time>
      </trkpt>
      <trkpt lat="40.261333" lon="-4.915100">
        <ele>2295.0</ele>
        <time>2013-07-03T11:52:15Z</time>
      </trkpt>
      <trkpt lat="40.261300" lon="-4.914983">
        <ele>2297.0</ele>
        <time>2013-07-03T11:52:16Z</time>
      </trkpt>
      <trkpt lat="40.261267" lon="-4.914867">
        <ele>2298.0</ele>
        <time>2013-07-03T11:52:17Z</time>
      </trkpt>
      <trkpt lat="40.261233" lon="-4.914750">
        <ele>2300.0</ele>
        <time>2013-07-03T11:52:18Z</time>
      </trkpt>
      <trkpt lat="40.261217" lon="-4.914650">
        <ele>2302.0</ele>
        <time>2013-07-03T11:52:19Z</time>
      </trkpt>
      <trkpt lat="40.261200" lon="-4.914533">
        <ele>2303.0</ele>
        <time>2013-07-03T11:52:20Z</time>
      </trkpt>
      <trkpt lat="40.261183" lon="-4.914417">
        <ele>2303.0</ele>
        <time>2013-07-03T11:52:21Z</time>
      </trkpt>
      <trkpt lat="40.261150" lon="-4.914300">
        <ele>2304.0</ele>
        <time>2013-07-03T11:52:22Z</time>
      </trkpt>
      <trkpt lat="40.261133" lon="-4.914167">
        <ele>2305.0</ele>
        <time>2013-07-03T11:52:23Z</time>
      </trkpt>
      <trkpt lat="40.261117" lon="-4.914033">
        <ele>2308.0</ele>
        <time>2013-07-03T11:52:24Z</time>
      </trkpt>
      <trkpt lat="40.261100" lon="-4.913917">
        <ele>2311.0</ele>
        <time>2013-07-03T11:52:25Z</time>
      </trkpt>
      <trkpt lat="40.261100" lon="-4.913817">
        <ele>2314.0</ele>
        <time>2013-07-03T11:52:26Z</time>
      </trkpt>
      <trkpt lat="40.261083" lon="-4.913717">
        <ele>2316.0</ele>
        <time>2013-07-03T11:52:27Z</time>
      </trkpt>
      <trkpt lat="40.261083" lon="-4.913617">
        <ele>2317.0</ele>
        <time>2013-07-03T11:52:28Z</time>
      </trkpt>
      <trkpt lat="40.261100" lon="-4.913517">
        <ele>2319.0</ele>
        <time>2013-07-03T11:52:29Z</time>
      </trkpt>
      <trkpt lat="40.261117" lon="-4.913417">
        <ele>2320.0</ele>
        <time>2013-07-03T11:52:30Z</time>
      </trkpt>
      <trkpt lat="40.261150" lon="-4.913333">
        <ele>2320.0</ele>
        <time>2013-07-03T11:52:31Z</time>
      </trkpt>
      <trkpt lat="40.261200" lon="-4.913267">
        <ele>2321.0</ele>
        <time>2013-07-03T11:52:32Z</time>
      </trkpt>
      <trkpt lat="40.261267" lon="-4.913217">
        <ele>2322.0</ele>
        <time>2013-07-03T11:52:33Z</time>
      </trkpt>
      <trkpt lat="40.261333" lon="-4.913183">
        <ele>2323.0</ele>
        <time>2013-07-03T11:52:34Z</time>
      </trkpt>
      <trkpt lat="40.261383" lon="-4.913150">
        <ele>2323.0</ele>
        <time>2013-07-03T11:52:35Z</time>
      </trkpt>
      <trkpt lat="40.261433" lon="-4.913150">
        <ele>2324.0</ele>
        <time>2013-07-03T11:52:36Z</time>
      </trkpt>
      <trkpt lat="40.261483" lon="-4.913150">
        <ele>2323.0</ele>
        <time>2013-07-03T11:52:37Z</time>
      </trkpt>
      <trkpt lat="40.261533" lon="-4.913167">
        <ele>2322.0</ele>
        <time>2013-07-03T11:52:38Z</time>
      </trkpt>
      <trkpt lat="40.261600" lon="-4.913200">
        <ele>2322.0</ele>
        <time>2013-07-03T11:52:39Z</time>
      </trkpt>
      <trkpt lat="40.261667" lon="-4.913250">
        <ele>2323.0</ele>
        <time>2013-07-03T11:52:40Z</time>
      </trkpt>
      <trkpt lat="40.261733" lon="-4.913300">
        <ele>2324.0</ele>
        <time>2013-07-03T11:52:41Z</time>
      </trkpt>
      <trkpt lat="40.261783" lon="-4.913350">
        <ele>2326.0</ele>
        <time>2013-07-03T11:52:42Z</time>
      </trkpt>
      <trkpt lat="40.261833" lon="-4.913417">
        <ele>2327.0</ele>
        <time>2013-07-03T11:52:43Z</time>
      </trkpt>
      <trkpt lat="40.261883" lon="-4.913467">
        <ele>2329.0</ele>
        <time>2013-07-03T11:52:44Z</time>
      </trkpt>
      <trkpt lat="40.261933" lon="-4.913517">
        <ele>2330.0</ele>
        <time>2013-07-03T11:52:45Z</time>
      </trkpt>
      <trkpt lat="40.261967" lon="-4.913583">
        <ele>2332.0</ele>
        <time>2013-07-03T11:52:46Z</time>
      </trkpt>
      <trkpt lat="40.262000" lon="-4.913650">
        <ele>2333.0</ele>
        <time>2013-07-03T11:52:47Z</time>
      </trkpt>
      <trkpt lat="40.262017" lon="-4.913733">
        <ele>2335.0</ele>
        <time>2013-07-03T11:52:48Z</time>
      </trkpt>
      <trkpt lat="40.262000" lon="-4.913833">
        <ele>2336.0</ele>
        <time>2013-07-03T11:52:49Z</time>
      </trkpt>
      <trkpt lat="40.261967" lon="-4.913933">
        <ele>2337.0</ele>
        <time>2013-07-03T11:52:50Z</time>
      </trkpt>
      <trkpt lat="40.261950" lon="-4.914033">
        <ele>2338.0</ele>
        <time>2013-07-03T11:52:51Z</time>
      </trkpt>
      <trkpt lat="40.261933" lon="-4.914100">
        <ele>2340.0</ele>
        <time>2013-07-03T11:52:52Z</time>
      </trkpt>
      <trkpt lat="40.261900" lon="-4.914167">
        <ele>2342.0</ele>
        <time>2013-07-03T11:52:53Z</time>
      </trkpt>
      <trkpt lat="40.261867" lon="-4.914233">
        <ele>2344.0</ele>
        <time>2013-07-03T11:52:54Z</time>
      </trkpt>
      <trkpt lat="40.261817" lon="-4.914300">
        <ele>2345.0</ele>
        <time>2013-07-03T11:52:55Z</time>
      </trkpt>
      <trkpt lat="40.261750" lon="-4.914350">
        <ele>2347.0</ele>
        <time>2013-07-03T11:52:56Z</time>
      </trkpt>
      <trkpt lat="40.261700" lon="-4.914417">
        <ele>2350.0</ele>
        <time>2013-07-03T11:52:57Z</time>
      </trkpt>
      <trkpt lat="40.261633" lon="-4.914450">
        <ele>2352.0</ele>
        <time>2013-07-03T11:52:58Z</time>
      </trkpt>
      <trkpt lat="40.261567" lon="-4.914500">
        <ele>2353.0</ele>
        <time>2013-07-03T11:52:59Z</time>
      </trkpt>
      <trkpt lat="40.261500" lon="-4.914533">
        <ele>2354.0</ele>
        <time>2013-07-03T11:53:00Z</time>
      </trkpt>
      <trkpt lat="40.261417" lon="-4.914550">
        <ele>2355.0</ele>
        <time>2013-07-03T11:53:01Z</time>
      </trkpt>
      <trkpt lat="40.261333" lon="-4.914567">
        <ele>2355.0</ele>
        <time>2013-07-03T11:53:02Z</time>
      </trkpt>
      <trkpt lat="40.261233" lon="-4.914550">
        <ele>2356.0</ele>
        <time>2013-07-03T11:53:03Z</time>
      </trkpt>
      <trkpt lat="40.261133" lon="-4.914500">
        <ele>2357.0</ele>
        <time>2013-07-03T11:53:04Z</time>
      </trkpt>
      <trkpt lat="40.261050" lon="-4.914433">
        <ele>2359.0</ele>
        <time>2013-07-03T11:53:05Z</time>
      </trkpt>
      <trkpt lat="40.260983" lon="-4.914333">
        <ele>2360.0</ele>
        <time>2013-07-03T11:53:06Z</time>
      </trkpt>
      <trkpt lat="40.260950" lon="-4.914233">
        <ele>2362.0</ele>
        <time>2013-07-03T11:53:07Z</time>
      </trkpt>
      <trkpt lat="40.260917" lon="-4.914117">
        <ele>2362.0</ele>
        <time>2013-07-03T11:53:08Z</time>
      </trkpt>
      <trkpt lat="40.260883" lon="-4.914000">
        <ele>2363.0</ele>
        <time>2013-07-03T11:53:09Z</time>
      </trkpt>
      <trkpt lat="40.260833" lon="-4.913883">
        <ele>2363.0</ele>
        <time>2013-07-03T11:53:10Z</time>
      </trkpt>
      <trkpt lat="40.260800" lon="-4.913767">
        <ele>2364.0</ele>
        <time>2013-07-03T11:53:11Z</time>
      </trkpt>
      <trkpt lat="40.260750" lon="-4.913633">
        <ele>2366.0</ele>
        <time>2013-07-03T11:53:12Z</time>
      </trkpt>
      <trkpt lat="40.260717" lon="-4.913500">
        <ele>2367.0</ele>
        <time>2013-07-03T11:53:13Z</time>
      </trkpt>
      <trkpt lat="40.260717" lon="-4.913383">
        <ele>2368.0</ele>
        <time>2013-07-03T11:53:14Z</time>
      </trkpt>
      <trkpt lat="40.260700" lon="-4.913267">
        <ele>2370.0</ele>
        <time>2013-07-03T11:53:15Z</time>
      </trkpt>
      <trkpt lat="40.260700" lon="-4.913150">
        <ele>2371.0</ele>
        <time>2013-07-03T11:53:16Z</time>
      </trkpt>
      <trkpt lat="40.260683" lon="-4.913050">
        <ele>2371.0</ele>
        <time>2013-07-03T11:53:17Z</time>
      </trkpt>
      <trkpt lat="40.260683" lon="-4.912933">
        <ele>2371.0</ele>
        <time>2013-07-03T11:53:18Z</time>
      </trkpt>
      <trkpt lat="40.260700" lon="-4.912817">
        <ele>2370.0</ele>
        <time>2013-07-03T11:53:19Z</time>
      </trkpt>
      <trkpt lat="40.260717" lon="-4.912700">
        <ele>2370.0</ele>
        <time>2013-07-03T11:53:20Z</time>
      </trkpt>
      <trkpt lat="40.260750" lon="-4.912617">
        <ele>2370.0</ele>
        <time>2013-07-03T11:53:21Z</time>
      </trkpt>
      <trkpt lat="40.260800" lon="-4.912533">
        <ele>2370.0</ele>
        <time>2013-07-03T11:53:22Z</time>
      </trkpt>
      <trkpt lat="40.260850" lon="-4.912500">
        <ele>2369.0</ele>
        <time>2013-07-03T11:53:23Z</time>
      </trkpt>
      <trkpt lat="40.260917" lon="-4.912483">
        <ele>2369.0</ele>
        <time>2013-07-03T11:53:24Z</time>
      </trkpt>
      <trkpt lat="40.260983" lon="-4.912500">
        <ele>2368.0</ele>
        <time>2013-07-03T11:53:25Z</time>
      </trkpt>
      <trkpt lat="40.261050" lon="-4.912533">
        <ele>2369.0</ele>
        <time>2013-07-03T11:53:26Z</time>
      </trkpt>
      <trkpt lat="40.261083" lon="-4.912567">
        <ele>2371.0</ele>
        <time>2013-07-03T11:53:27Z</time>
      </trkpt>
      <trkpt lat="40.261117" lon="-4.912617">
        <ele>2371.0</ele>
        <time>2013-07-03T11:53:28Z</time>
      </trkpt>
      <trkpt lat="40.261133" lon="-4.912667">
        <ele>2371.0</ele>
        <time>2013-07-03T11:53:29Z</time>
      </trkpt>
      <trkpt lat="40.261150" lon="-4.912717">
        <ele>2371.0</ele>
        <time>2013-07-03T11:53:30Z</time>
      </trkpt>
      <trkpt lat="40.261183" lon="-4.912750">
        <ele>2370.0</ele>
        <time>2013-07-03T11:53:31Z</time>
      </trkpt>
      <trkpt lat="40.261233" lon="-4.912800">
        <ele>2370.0</ele>
        <time>2013-07-03T11:53:32Z</time>
      </trkpt>
      <trkpt lat="40.261300" lon="-4.912833">
        <ele>2369.0</ele>
        <time>2013-07-03T11:53:33Z</time>
      </trkpt>
      <trkpt lat="40.261367" lon="-4.912850">
        <ele>2369.0</ele>
        <time>2013-07-03T11:53:34Z</time>
      </trkpt>
      <trkpt lat="40.261417" lon="-4.912867">
        <ele>2369.0</ele>
        <time>2013-07-03T11:53:35Z</time>
      </trkpt>
      <trkpt lat="40.261467" lon="-4.912900">
        <ele>2369.0</ele>
        <time>2013-07-03T11:53:36Z</time>
      </trkpt>
      <trkpt lat="40.261517" lon="-4.912917">
        <ele>2368.0</ele>
        <time>2013-07-03T11:53:37Z</time>
      </trkpt>
      <trkpt lat="40.261567" lon="-4.912917">
        <ele>2368.0</ele>
        <time>2013-07-03T11:53:38Z</time>
      </trkpt>
      <trkpt lat="40.261633" lon="-4.912933">
        <ele>2367.0</ele>
        <time>2013-07-03T11:53:39Z</time>
      </trkpt>
      <trkpt lat="40.261700" lon="-4.912967">
        <ele>2366.0</ele>
        <time>2013-07-03T11:53:40Z</time>
      </trkpt>
      <trkpt lat="40.261767" lon="-4.913000">
        <ele>2366.0</ele>
        <time>2013-07-03T11:53:41Z</time>
      </trkpt>
      <trkpt lat="40.261850" lon="-4.913017">
        <ele>2367.0</ele>
        <time>2013-07-03T11:53:42Z</time>
      </trkpt>
      <trkpt lat="40.261917" lon="-4.913033">
        <ele>2368.0</ele>
        <time>2013-07-03T11:53:43Z</time>
      </trkpt>
      <trkpt lat="40.261983" lon="-4.913050">
        <ele>2369.0</ele>
        <time>2013-07-03T11:53:44Z</time>
      </trkpt>
      <trkpt lat="40.262050" lon="-4.913067">
        <ele>2370.0</ele>
        <time>2013-07-03T11:53:45Z</time>
      </trkpt>
      <trkpt lat="40.262133" lon="-4.913067">
        <ele>2372.0</ele>
        <time>2013-07-03T11:53:46Z</time>
      </trkpt>
      <trkpt lat="40.262183" lon="-4.913083">
        <ele>2374.0</ele>
        <time>2013-07-03T11:53:47Z</time>
      </trkpt>
      <trkpt lat="40.262250" lon="-4.913100">
        <ele>2375.0</ele>
        <time>2013-07-03T11:53:48Z</time>
      </trkpt>
      <trkpt lat="40.262300" lon="-4.913117">
        <ele>2376.0</ele>
        <time>2013-07-03T11:53:49Z</time>
      </trkpt>
      <trkpt lat="40.262350" lon="-4.913150">
        <ele>2377.0</ele>
        <time>2013-07-03T11:53:50Z</time>
      </trkpt>
      <trkpt lat="40.262383" lon="-4.913200">
        <ele>2379.0</ele>
        <time>2013-07-03T11:53:51Z</time>
      </trkpt>
      <trkpt lat="40.262417" lon="-4.913217">
        <ele>2381.0</ele>
        <time>2013-07-03T11:53:52Z</time>
      </trkpt>
      <trkpt lat="40.262450" lon="-4.913233">
        <ele>2383.0</ele>
        <time>2013-07-03T11:53:53Z</time>
      </trkpt>
      <trkpt lat="40.262500" lon="-4.913267">
        <ele>2384.0</ele>
        <time>2013-07-03T11:53:54Z</time>
      </trkpt>
      <trkpt lat="40.262533" lon="-4.913300">
        <ele>2386.0</ele>
        <time>2013-07-03T11:53:55Z</time>
      </trkpt>
      <trkpt lat="40.262567" lon="-4.913350">
        <ele>2388.0</ele>
        <time>2013-07-03T11:53:56Z</time>
      </trkpt>
      <trkpt lat="40.262600" lon="-4.913400">
        <ele>2391.0</ele>
        <time>2013-07-03T11:53:57Z</time>
      </trkpt>
      <trkpt lat="40.262633" lon="-4.913433">
        <ele>2393.0</ele>
        <time>2013-07-03T11:53:58Z</time>
      </trkpt>
      <trkpt lat="40.262650" lon="-4.913467">
        <ele>2394.0</ele>
        <time>2013-07-03T11:53:59Z</time>
      </trkpt>
      <trkpt lat="40.262683" lon="-4.913500">
        <ele>2395.0</ele>
        <time>2013-07-03T11:54:00Z</time>
      </trkpt>
      <trkpt lat="40.262717" lon="-4.913567">
        <ele>2397.0</ele>
        <time>2013-07-03T11:54:01Z</time>
      </trkpt>
      <trkpt lat="40.262733" lon="-4.913650">
        <ele>2398.0</ele>
        <time>2013-07-03T11:54:02Z</time>
      </trkpt>
      <trkpt lat="40.262717" lon="-4.913733">
        <ele>2400.0</ele>
        <time>2013-07-03T11:54:03Z</time>
      </trkpt>
      <trkpt lat="40.262700" lon="-4.913817">
        <ele>2402.0</ele>
        <time>2013-07-03T11:54:04Z</time>
      </trkpt>
      <trkpt lat="40.262667" lon="-4.913883">
        <ele>2404.0</ele>
        <time>2013-07-03T11:54:05Z</time>
      </trkpt>
      <trkpt lat="40.262617" lon="-4.913950">
        <ele>2406.0</ele>
        <time>2013-07-03T11:54:06Z</time>
      </trkpt>
      <trkpt lat="40.262533" lon="-4.914017">
        <ele>2407.0</ele>
        <time>2013-07-03T11:54:07Z</time>
      </trkpt>
      <trkpt lat="40.262450" lon="-4.914083">
        <ele>2408.0</ele>
        <time>2013-07-03T11:54:08Z</time>
      </trkpt>
      <trkpt lat="40.262333" lon="-4.914100">
        <ele>2409.0</ele>
        <time>2013-07-03T11:54:09Z</time>
      </trkpt>
      <trkpt lat="40.262217" lon="-4.914083">
        <ele>2410.0</ele>
        <time>2013-07-03T11:54:10Z</time>
      </trkpt>
      <trkpt lat="40.262100" lon="-4.914017">
        <ele>2412.0</ele>
        <time>2013-07-03T11:54:11Z</time>
      </trkpt>
      <trkpt lat="40.262000" lon="-4.913917">
        <ele>2414.0</ele>
        <time>2013-07-03T11:54:12Z</time>
      </trkpt>
      <trkpt lat="40.261950" lon="-4.913800">
        <ele>2416.0</ele>
        <time>2013-07-03T11:54:13Z</time>
      </trkpt>
      <trkpt lat="40.261933" lon="-4.913667">
        <ele>2418.0</ele>
        <time>2013-07-03T11:54:14Z</time>
      </trkpt>
      <trkpt lat="40.261933" lon="-4.913567">
        <ele>2419.0</ele>
        <time>2013-07-03T11:54:15Z</time>
      </trkpt>
      <trkpt lat="40.261950" lon="-4.913483">
        <ele>2420.0</ele>
        <time>2013-07-03T11:54:16Z</time>
      </trkpt>
      <trkpt lat="40.261967" lon="-4.913400">
        <ele>2420.0</ele>
        <time>2013-07-03T11:54:17Z</time>
      </trkpt>
      <trkpt lat="40.262000" lon="-4.913317">
        <ele>2420.0</ele>
        <time>2013-07-03T11:54:18Z</time>
      </trkpt>
      <trkpt lat="40.262033" lon="-4.913233">
        <ele>2420.0</ele>
        <time>2013-07-03T11:54:19Z</time>
      </trkpt>
      <trkpt lat="40.262083" lon="-4.913167">
        <ele>2419.0</ele>
        <time>2013-07-03T11:54:20Z</time>
      </trkpt>
      <trkpt lat="40.262150" lon="-4.913117">
        <ele>2417.0</ele>
        <time>2013-07-03T11:54:21Z</time>
      </trkpt>
      <trkpt lat="40.262233" lon="-4.913067">
        <ele>2418.0</ele>
        <time>2013-07-03T11:54:22Z</time>
      </trkpt>
      <trkpt lat="40.262300" lon="-4.913000">
        <ele>2420.0</ele>
        <time>2013-07-03T11:54:23Z</time>
      </trkpt>
      <trkpt lat="40.262367" lon="-4.912933">
        <ele>2423.0</ele>
        <time>2013-07-03T11:54:24Z</time>
      </trkpt>
      <trkpt lat="40.262400" lon="-4.912867">
        <ele>2427.0</ele>
        <time>2013-07-03T11:54:25Z</time>
      </trkpt>
      <trkpt lat="40.262433" lon="-4.912783">
        <ele>2432.0</ele>
        <time>2013-07-03T11:54:26Z</time>
      </trkpt>
      <trkpt lat="40.262450" lon="-4.912700">
        <ele>2436.0</ele>
        <time>2013-07-03T11:54:27Z</time>
      </trkpt>
      <trkpt lat="40.262450" lon="-4.912617">
        <ele>2439.0</ele>
        <time>2013-07-03T11:54:28Z</time>
      </trkpt>
      <trkpt lat="40.262483" lon="-4.912550">
        <ele>2442.0</ele>
        <time>2013-07-03T11:54:29Z</time>
      </trkpt>
      <trkpt lat="40.262517" lon="-4.912517">
        <ele>2443.0</ele>
        <time>2013-07-03T11:54:30Z</time>
      </trkpt>
      <trkpt lat="40.262550" lon="-4.912533">
        <ele>2444.0</ele>
        <time>2013-07-03T11:54:31Z</time>
      </trkpt>
      <trkpt lat="40.262567" lon="-4.912583">
        <ele>2444.0</ele>
        <time>2013-07-03T11:54:32Z</time>
      </trkpt>
      <trkpt lat="40.262583" lon="-4.912683">
        <ele>2444.0</ele>
        <time>2013-07-03T11:54:33Z</time>
      </trkpt>
      <trkpt lat="40.262550" lon="-4.912767">
        <ele>2444.0</ele>
        <time>2013-07-03T11:54:34Z</time>
      </trkpt>
      <trkpt lat="40.262483" lon="-4.912833">
        <ele>2446.0</ele>
        <time>2013-07-03T11:54:35Z</time>
      </trkpt>
      <trkpt lat="40.262383" lon="-4.912867">
        <ele>2446.0</ele>
        <time>2013-07-03T11:54:36Z</time>
      </trkpt>
      <trkpt lat="40.262283" lon="-4.912883">
        <ele>2447.0</ele>
        <time>2013-07-03T11:54:37Z</time>
      </trkpt>
      <trkpt lat="40.262150" lon="-4.912883">
        <ele>2448.0</ele>
        <time>2013-07-03T11:54:38Z</time>
      </trkpt>
      <trkpt lat="40.262033" lon="-4.912850">
        <ele>2452.0</ele>
        <time>2013-07-03T11:54:39Z</time>
      </trkpt>
      <trkpt lat="40.261933" lon="-4.912817">
        <ele>2455.0</ele>
        <time>2013-07-03T11:54:40Z</time>
      </trkpt>
      <trkpt lat="40.261867" lon="-4.912767">
        <ele>2458.0</ele>
        <time>2013-07-03T11:54:41Z</time>
      </trkpt>
      <trkpt lat="40.261800" lon="-4.912700">
        <ele>2460.0</ele>
        <time>2013-07-03T11:54:42Z</time>
      </trkpt>
      <trkpt lat="40.261733" lon="-4.912600">
        <ele>2460.0</ele>
        <time>2013-07-03T11:54:43Z</time>
      </trkpt>
      <trkpt lat="40.261683" lon="-4.912500">
        <ele>2459.0</ele>
        <time>2013-07-03T11:54:44Z</time>
      </trkpt>
      <trkpt lat="40.261650" lon="-4.912367">
        <ele>2459.0</ele>
        <time>2013-07-03T11:54:45Z</time>
      </trkpt>
      <trkpt lat="40.261633" lon="-4.912233">
        <ele>2459.0</ele>
        <time>2013-07-03T11:54:46Z</time>
      </trkpt>
      <trkpt lat="40.261667" lon="-4.912117">
        <ele>2459.0</ele>
        <time>2013-07-03T11:54:47Z</time>
      </trkpt>
      <trkpt lat="40.261700" lon="-4.912000">
        <ele>2459.0</ele>
        <time>2013-07-03T11:54:48Z</time>
      </trkpt>
      <trkpt lat="40.261733" lon="-4.911917">
        <ele>2460.0</ele>
        <time>2013-07-03T11:54:49Z</time>
      </trkpt>
      <trkpt lat="40.261750" lon="-4.911817">
        <ele>2460.0</ele>
        <time>2013-07-03T11:54:50Z</time>
      </trkpt>
      <trkpt lat="40.261767" lon="-4.911700">
        <ele>2459.0</ele>
        <time>2013-07-03T11:54:51Z</time>
      </trkpt>
      <trkpt lat="40.261783" lon="-4.911567">
        <ele>2458.0</ele>
        <time>2013-07-03T11:54:52Z</time>
      </trkpt>
      <trkpt lat="40.261833" lon="-4.911450">
        <ele>2455.0</ele>
        <time>2013-07-03T11:54:53Z</time>
      </trkpt>
      <trkpt lat="40.261933" lon="-4.911333">
        <ele>2455.0</ele>
        <time>2013-07-03T11:54:54Z</time>
      </trkpt>
      <trkpt lat="40.262017" lon="-4.911233">
        <ele>2457.0</ele>
        <time>2013-07-03T11:54:55Z</time>
      </trkpt>
      <trkpt lat="40.262100" lon="-4.911133">
        <ele>2460.0</ele>
        <time>2013-07-03T11:54:56Z</time>
      </trkpt>
      <trkpt lat="40.262150" lon="-4.911067">
        <ele>2462.0</ele>
        <time>2013-07-03T11:54:57Z</time>
      </trkpt>
      <trkpt lat="40.262183" lon="-4.910983">
        <ele>2463.0</ele>
        <time>2013-07-03T11:54:58Z</time>
      </trkpt>
      <trkpt lat="40.262233" lon="-4.910900">
        <ele>2463.0</ele>
        <time>2013-07-03T11:54:59Z</time>
      </trkpt>
      <trkpt lat="40.262283" lon="-4.910817">
        <ele>2462.0</ele>
        <time>2013-07-03T11:55:00Z</time>
      </trkpt>
      <trkpt lat="40.262367" lon="-4.910717">
        <ele>2462.0</ele>
        <time>2013-07-03T11:55:01Z</time>
      </trkpt>
      <trkpt lat="40.262450" lon="-4.910617">
        <ele>2462.0</ele>
        <time>2013-07-03T11:55:02Z</time>
      </trkpt>
      <trkpt lat="40.262533" lon="-4.910517">
        <ele>2464.0</ele>
        <time>2013-07-03T11:55:03Z</time>
      </trkpt>
      <trkpt lat="40.262600" lon="-4.910433">
        <ele>2466.0</ele>
        <time>2013-07-03T11:55:04Z</time>
      </trkpt>
      <trkpt lat="40.262683" lon="-4.910367">
        <ele>2467.0</ele>
        <time>2013-07-03T11:55:05Z</time>
      </trkpt>
      <trkpt lat="40.262733" lon="-4.910283">
        <ele>2467.0</ele>
        <time>2013-07-03T11:55:06Z</time>
      </trkpt>
      <trkpt lat="40.262800" lon="-4.910200">
        <ele>2467.0</ele>
        <time>2013-07-03T11:55:07Z</time>
      </trkpt>
      <trkpt lat="40.262850" lon="-4.910100">
        <ele>2467.0</ele>
        <time>2013-07-03T11:55:08Z</time>
      </trkpt>
      <trkpt lat="40.262917" lon="-4.910017">
        <ele>2467.0</ele>
        <time>2013-07-03T11:55:09Z</time>
      </trkpt>
      <trkpt lat="40.263000" lon="-4.909933">
        <ele>2465.0</ele>
        <time>2013-07-03T11:55:10Z</time>
      </trkpt>
      <trkpt lat="40.263100" lon="-4.909850">
        <ele>2465.0</ele>
        <time>2013-07-03T11:55:11Z</time>
      </trkpt>
      <trkpt lat="40.263183" lon="-4.909767">
        <ele>2466.0</ele>
        <time>2013-07-03T11:55:12Z</time>
      </trkpt>
      <trkpt lat="40.263283" lon="-4.909717">
        <ele>2467.0</ele>
        <time>2013-07-03T11:55:13Z</time>
      </trkpt>
      <trkpt lat="40.263367" lon="-4.909667">
        <ele>2469.0</ele>
        <time>2013-07-03T11:55:14Z</time>
      </trkpt>
      <trkpt lat="40.263433" lon="-4.909617">
        <ele>2470.0</ele>
        <time>2013-07-03T11:55:15Z</time>
      </trkpt>
      <trkpt lat="40.263517" lon="-4.909567">
        <ele>2470.0</ele>
        <time>2013-07-03T11:55:16Z</time>
      </trkpt>
      <trkpt lat="40.263583" lon="-4.909533">
        <ele>2470.0</ele>
        <time>2013-07-03T11:55:17Z</time>
      </trkpt>
      <trkpt lat="40.263667" lon="-4.909500">
        <ele>2469.0</ele>
        <time>2013-07-03T11:55:18Z</time>
      </trkpt>
      <trkpt lat="40.263767" lon="-4.909467">
        <ele>2468.0</ele>
        <time>2013-07-03T11:55:19Z</time>
      </trkpt>
      <trkpt lat="40.263850" lon="-4.909450">
        <ele>2467.0</ele>
        <time>2013-07-03T11:55:20Z</time>
      </trkpt>
      <trkpt lat="40.263950" lon="-4.909417">
        <ele>2466.0</ele>
        <time>2013-07-03T11:55:21Z</time>
      </trkpt>
      <trkpt lat="40.264050" lon="-4.909400">
        <ele>2466.0</ele>
        <time>2013-07-03T11:55:22Z</time>
      </trkpt>
      <trkpt lat="40.264133" lon="-4.909383">
        <ele>2466.0</ele>
        <time>2013-07-03T11:55:23Z</time>
      </trkpt>
      <trkpt lat="40.264217" lon="-4.909400">
        <ele>2467.0</ele>
        <time>2013-07-03T11:55:24Z</time>
      </trkpt>
      <trkpt lat="40.264300" lon="-4.909400">
        <ele>2467.0</ele>
        <time>2013-07-03T11:55:25Z</time>
      </trkpt>
      <trkpt lat="40.264383" lon="-4.909383">
        <ele>2467.0</ele>
        <time>2013-07-03T11:55:26Z</time>
      </trkpt>
      <trkpt lat="40.264467" lon="-4.909367">
        <ele>2468.0</ele>
        <time>2013-07-03T11:55:27Z</time>
      </trkpt>
      <trkpt lat="40.264567" lon="-4.909333">
        <ele>2470.0</ele>
        <time>2013-07-03T11:55:28Z</time>
      </trkpt>
      <trkpt lat="40.264667" lon="-4.909333">
        <ele>2473.0</ele>
        <time>2013-07-03T11:55:29Z</time>
      </trkpt>
      <trkpt lat="40.264733" lon="-4.909333">
        <ele>2478.0</ele>
        <time>2013-07-03T11:55:30Z</time>
      </trkpt>
      <trkpt lat="40.264783" lon="-4.909350">
        <ele>2484.0</ele>
        <time>2013-07-03T11:55:31Z</time>
      </trkpt>
      <trkpt lat="40.264817" lon="-4.909317">
        <ele>2488.0</ele>
        <time>2013-07-03T11:55:32Z</time>
      </trkpt>
      <trkpt lat="40.264867" lon="-4.909283">
        <ele>2491.0</ele>
        <time>2013-07-03T11:55:33Z</time>
      </trkpt>
      <trkpt lat="40.264917" lon="-4.909283">
        <ele>2494.0</ele>
        <time>2013-07-03T11:55:34Z</time>
      </trkpt>
      <trkpt lat="40.264967" lon="-4.909317">
        <ele>2496.0</ele>
        <time>2013-07-03T11:55:35Z</time>
      </trkpt>
      <trkpt lat="40.265017" lon="-4.909400">
        <ele>2497.0</ele>
        <time>2013-07-03T11:55:36Z</time>
      </trkpt>
      <trkpt lat="40.265017" lon="-4.909500">
        <ele>2499.0</ele>
        <time>2013-07-03T11:55:37Z</time>
      </trkpt>
      <trkpt lat="40.265017" lon="-4.909600">
        <ele>2503.0</ele>
        <time>2013-07-03T11:55:38Z</time>
      </trkpt>
      <trkpt lat="40.264967" lon="-4.909683">
        <ele>2506.0</ele>
        <time>2013-07-03T11:55:39Z</time>
      </trkpt>
      <trkpt lat="40.264900" lon="-4.909750">
        <ele>2509.0</ele>
        <time>2013-07-03T11:55:40Z</time>
      </trkpt>
      <trkpt lat="40.264817" lon="-4.909767">
        <ele>2511.0</ele>
        <time>2013-07-03T11:55:41Z</time>
      </trkpt>
      <trkpt lat="40.264733" lon="-4.909783">
        <ele>2514.0</ele>
        <time>2013-07-03T11:55:42Z</time>
      </trkpt>
      <trkpt lat="40.264650" lon="-4.909800">
        <ele>2516.0</ele>
        <time>2013-07-03T11:55:43Z</time>
      </trkpt>
      <trkpt lat="40.264583" lon="-4.909800">
        <ele>2518.0</ele>
        <time>2013-07-03T11:55:44Z</time>
      </trkpt>
      <trkpt lat="40.264483" lon="-4.909767">
        <ele>2519.0</ele>
        <time>2013-07-03T11:55:45Z</time>
      </trkpt>
      <trkpt lat="40.264417" lon="-4.909683">
        <ele>2520.0</ele>
        <time>2013-07-03T11:55:46Z</time>
      </trkpt>
      <trkpt lat="40.264383" lon="-4.909550">
        <ele>2520.0</ele>
        <time>2013-07-03T11:55:47Z</time>
      </trkpt>
      <trkpt lat="40.264383" lon="-4.909433">
        <ele>2522.0</ele>
        <time>2013-07-03T11:55:48Z</time>
      </trkpt>
      <trkpt lat="40.264400" lon="-4.909317">
        <ele>2525.0</ele>
        <time>2013-07-03T11:55:49Z</time>
      </trkpt>
      <trkpt lat="40.264400" lon="-4.909200">
        <ele>2528.0</ele>
        <time>2013-07-03T11:55:50Z</time>
      </trkpt>
      <trkpt lat="40.264383" lon="-4.909100">
        <ele>2532.0</ele>
        <time>2013-07-03T11:55:51Z</time>
      </trkpt>
      <trkpt lat="40.264400" lon="-4.909017">
        <ele>2534.0</ele>
        <time>2013-07-03T11:55:52Z</time>
      </trkpt>
      <trkpt lat="40.264417" lon="-4.908950">
        <ele>2536.0</ele>
        <time>2013-07-03T11:55:53Z</time>
      </trkpt>
      <trkpt lat="40.264467" lon="-4.908900">
        <ele>2538.0</ele>
        <time>2013-07-03T11:55:54Z</time>
      </trkpt>
      <trkpt lat="40.264517" lon="-4.908883">
        <ele>2540.0</ele>
        <time>2013-07-03T11:55:55Z</time>
      </trkpt>
      <trkpt lat="40.264567" lon="-4.908883">
        <ele>2542.0</ele>
        <time>2013-07-03T11:55:56Z</time>
      </trkpt>
      <trkpt lat="40.264617" lon="-4.908883">
        <ele>2545.0</ele>
        <time>2013-07-03T11:55:57Z</time>
      </trkpt>
      <trkpt lat="40.264650" lon="-4.908900">
        <ele>2547.0</ele>
        <time>2013-07-03T11:55:58Z</time>
      </trkpt>
      <trkpt lat="40.264683" lon="-4.908917">
        <ele>2550.0</ele>
        <time>2013-07-03T11:55:59Z</time>
      </trkpt>
      <trkpt lat="40.264733" lon="-4.908950">
        <ele>2552.0</ele>
        <time>2013-07-03T11:56:00Z</time>
      </trkpt>
      <trkpt lat="40.264767" lon="-4.908983">
        <ele>2554.0</ele>
        <time>2013-07-03T11:56:01Z</time>
      </trkpt>
      <trkpt lat="40.264800" lon="-4.909017">
        <ele>2556.0</ele>
        <time>2013-07-03T11:56:02Z</time>
      </trkpt>
      <trkpt lat="40.264850" lon="-4.909050">
        <ele>2558.0</ele>
        <time>2013-07-03T11:56:03Z</time>
      </trkpt>
      <trkpt lat="40.264900" lon="-4.909083">
        <ele>2559.0</ele>
        <time>2013-07-03T11:56:04Z</time>
      </trkpt>
      <trkpt lat="40.264950" lon="-4.909133">
        <ele>2560.0</ele>
        <time>2013-07-03T11:56:05Z</time>
      </trkpt>
      <trkpt lat="40.265017" lon="-4.909167">
        <ele>2562.0</ele>
        <time>2013-07-03T11:56:06Z</time>
      </trkpt>
      <trkpt lat="40.265100" lon="-4.909217">
        <ele>2564.0</ele>
        <time>2013-07-03T11:56:07Z</time>
      </trkpt>
      <trkpt lat="40.265167" lon="-4.909233">
        <ele>2567.0</ele>
        <time>2013-07-03T11:56:08Z</time>
      </trkpt>
      <trkpt lat="40.265233" lon="-4.909250">
        <ele>2570.0</ele>
        <time>2013-07-03T11:56:09Z</time>
      </trkpt>
      <trkpt lat="40.265300" lon="-4.909267">
        <ele>2573.0</ele>
        <time>2013-07-03T11:56:10Z</time>
      </trkpt>
      <trkpt lat="40.265350" lon="-4.909317">
        <ele>2575.0</ele>
        <time>2013-07-03T11:56:11Z</time>
      </trkpt>
      <trkpt lat="40.265383" lon="-4.909383">
        <ele>2577.0</ele>
        <time>2013-07-03T11:56:12Z</time>
      </trkpt>
      <trkpt lat="40.265417" lon="-4.909467">
        <ele>2579.0</ele>
        <time>2013-07-03T11:56:13Z</time>
      </trkpt>
      <trkpt lat="40.265433" lon="-4.909550">
        <ele>2583.0</ele>
        <time>2013-07-03T11:56:14Z</time>
      </trkpt>
      <trkpt lat="40.265450" lon="-4.909650">
        <ele>2586.0</ele>
        <time>2013-07-03T11:56:15Z</time>
      </trkpt>
      <trkpt lat="40.265450" lon="-4.909717">
        <ele>2589.0</ele>
        <time>2013-07-03T11:56:16Z</time>
      </trkpt>
      <trkpt lat="40.265450" lon="-4.909800">
        <ele>2592.0</ele>
        <time>2013-07-03T11:56:17Z</time>
      </trkpt>
      <trkpt lat="40.265450" lon="-4.909867">
        <ele>2594.0</ele>
        <time>2013-07-03T11:56:18Z</time>
      </trkpt>
      <trkpt lat="40.265417" lon="-4.909933">
        <ele>2595.0</ele>
        <time>2013-07-03T11:56:19Z</time>
      </trkpt>
      <trkpt lat="40.265367" lon="-4.910000">
        <ele>2596.0</ele>
        <time>2013-07-03T11:56:20Z</time>
      </trkpt>
      <trkpt lat="40.265300" lon="-4.910050">
        <ele>2596.0</ele>
        <time>2013-07-03T11:56:21Z</time>
      </trkpt>
      <trkpt lat="40.265200" lon="-4.910033">
        <ele>2597.0</ele>
        <time>2013-07-03T11:56:22Z</time>
      </trkpt>
      <trkpt lat="40.265100" lon="-4.910000">
        <ele>2598.0</ele>
        <time>2013-07-03T11:56:23Z</time>
      </trkpt>
      <trkpt lat="40.265000" lon="-4.909967">
        <ele>2600.0</ele>
        <time>2013-07-03T11:56:24Z</time>
      </trkpt>
      <trkpt lat="40.264917" lon="-4.909917">
        <ele>2602.0</ele>
        <time>2013-07-03T11:56:25Z</time>
      </trkpt>
      <trkpt lat="40.264850" lon="-4.909867">
        <ele>2605.0</ele>
        <time>2013-07-03T11:56:26Z</time>
      </trkpt>
      <trkpt lat="40.264783" lon="-4.909800">
        <ele>2607.0</ele>
        <time>2013-07-03T11:56:27Z</time>
      </trkpt>
      <trkpt lat="40.264733" lon="-4.909700">
        <ele>2608.0</ele>
        <time>2013-07-03T11:56:28Z</time>
      </trkpt>
      <trkpt lat="40.264717" lon="-4.909583">
        <ele>2608.0</ele>
        <time>2013-07-03T11:56:29Z</time>
      </trkpt>
      <trkpt lat="40.264683" lon="-4.909450">
        <ele>2610.0</ele>
        <time>2013-07-03T11:56:30Z</time>
      </trkpt>
      <trkpt lat="40.264667" lon="-4.909350">
        <ele>2611.0</ele>
        <time>2013-07-03T11:56:31Z</time>
      </trkpt>
      <trkpt lat="40.264683" lon="-4.909233">
        <ele>2614.0</ele>
        <time>2013-07-03T11:56:32Z</time>
      </trkpt>
      <trkpt lat="40.264683" lon="-4.909133">
        <ele>2617.0</ele>
        <time>2013-07-03T11:56:33Z</time>
      </trkpt>
      <trkpt lat="40.264700" lon="-4.909033">
        <ele>2619.0</ele>
        <time>2013-07-03T11:56:34Z</time>
      </trkpt>
      <trkpt lat="40.264717" lon="-4.908933">
        <ele>2622.0</ele>
        <time>2013-07-03T11:56:35Z</time>
      </trkpt>
      <trkpt lat="40.264750" lon="-4.908867">
        <ele>2623.0</ele>
        <time>2013-07-03T11:56:36Z</time>
      </trkpt>
      <trkpt lat="40.264817" lon="-4.908783">
        <ele>2625.0</ele>
        <time>2013-07-03T11:56:37Z</time>
      </trkpt>
      <trkpt lat="40.264883" lon="-4.908733">
        <ele>2626.0</ele>
        <time>2013-07-03T11:56:38Z</time>
      </trkpt>
      <trkpt lat="40.264967" lon="-4.908717">
        <ele>2627.0</ele>
        <time>2013-07-03T11:56:39Z</time>
      </trkpt>
      <trkpt lat="40.265033" lon="-4.908733">
        <ele>2629.0</ele>
        <time>2013-07-03T11:56:40Z</time>
      </trkpt>
      <trkpt lat="40.265100" lon="-4.908783">
        <ele>2631.0</ele>
        <time>2013-07-03T11:56:41Z</time>
      </trkpt>
      <trkpt lat="40.265150" lon="-4.908833">
        <ele>2632.0</ele>
        <time>2013-07-03T11:56:42Z</time>
      </trkpt>
      <trkpt lat="40.265183" lon="-4.908917">
        <ele>2634.0</ele>
        <time>2013-07-03T11:56:43Z</time>
      </trkpt>
      <trkpt lat="40.265200" lon="-4.909000">
        <ele>2635.0</ele>
        <time>2013-07-03T11:56:44Z</time>
      </trkpt>
      <trkpt lat="40.265200" lon="-4.909100">
        <ele>2637.0</ele>
        <time>2013-07-03T11:56:45Z</time>
      </trkpt>
      <trkpt lat="40.265200" lon="-4.909200">
        <ele>2639.0</ele>
        <time>2013-07-03T11:56:46Z</time>
      </trkpt>
      <trkpt lat="40.265183" lon="-4.909300">
        <ele>2642.0</ele>
        <time>2013-07-03T11:56:47Z</time>
      </trkpt>
      <trkpt lat="40.265150" lon="-4.909400">
        <ele>2644.0</ele>
        <time>2013-07-03T11:56:48Z</time>
      </trkpt>
      <trkpt lat="40.265100" lon="-4.909483">
        <ele>2647.0</ele>
        <time>2013-07-03T11:56:49Z</time>
      </trkpt>
      <trkpt lat="40.265050" lon="-4.909550">
        <ele>2650.0</ele>
        <time>2013-07-03T11:56:50Z</time>
      </trkpt>
      <trkpt lat="40.265000" lon="-4.909617">
        <ele>2652.0</ele>
        <time>2013-07-03T11:56:51Z</time>
      </trkpt>
      <trkpt lat="40.264917" lon="-4.909683">
        <ele>2654.0</ele>
        <time>2013-07-03T11:56:52Z</time>
      </trkpt>
      <trkpt lat="40.264833" lon="-4.909733">
        <ele>2656.0</ele>
        <time>2013-07-03T11:56:53Z</time>
      </trkpt>
      <trkpt lat="40.264750" lon="-4.909767">
        <ele>2658.0</ele>
        <time>2013-07-03T11:56:54Z</time>
      </trkpt>
      <trkpt lat="40.264650" lon="-4.909783">
        <ele>2659.0</ele>
        <time>2013-07-03T11:56:55Z</time>
      </trkpt>
      <trkpt lat="40.264567" lon="-4.909767">
        <ele>2661.0</ele>
        <time>2013-07-03T11:56:56Z</time>
      </trkpt>
      <trkpt lat="40.264483" lon="-4.909733">
        <ele>2662.0</ele>
        <time>2013-07-03T11:56:57Z</time>
      </trkpt>
      <trkpt lat="40.264400" lon="-4.909683">
        <ele>2663.0</ele>
        <time>2013-07-03T11:56:58Z</time>
      </trkpt>
      <trkpt lat="40.264333" lon="-4.909600">
        <ele>2663.0</ele>
        <time>2013-07-03T11:56:59Z</time>
      </trkpt>
      <trkpt lat="40.264267" lon="-4.909517">
        <ele>2664.0</ele>
        <time>2013-07-03T11:57:00Z</time>
      </trkpt>
      <trkpt lat="40.264217" lon="-4.909417">
        <ele>2665.0</ele>
        <time>2013-07-03T11:57:01Z</time>
      </trkpt>
      <trkpt lat="40.264200" lon="-4.909300">
        <ele>2666.0</ele>
        <time>2013-07-03T11:57:02Z</time>
      </trkpt>
      <trkpt lat="40.264200" lon="-4.909200">
        <ele>2668.0</ele>
        <time>2013-07-03T11:57:03Z</time>
      </trkpt>
      <trkpt lat="40.264183" lon="-4.909117">
        <ele>2671.0</ele>
        <time>2013-07-03T11:57:04Z</time>
      </trkpt>
      <trkpt lat="40.264183" lon="-4.909033">
        <ele>2675.0</ele>
        <time>2013-07-03T11:57:05Z</time>
      </trkpt>
      <trkpt lat="40.264183" lon="-4.908967">
        <ele>2678.0</ele>
        <time>2013-07-03T11:57:06Z</time>
      </trkpt>
      <trkpt lat="40.264183" lon="-4.908900">
        <ele>2680.0</ele>
        <time>2013-07-03T11:57:07Z</time>
      </trkpt>
      <trkpt lat="40.264183" lon="-4.908833">
        <ele>2682.0</ele>
        <time>2013-07-03T11:57:08Z</time>
      </trkpt>
      <trkpt lat="40.264200" lon="-4.908750">
        <ele>2684.0</ele>
        <time>2013-07-03T11:57:09Z</time>
      </trkpt>
      <trkpt lat="40.264250" lon="-4.908683">
        <ele>2686.0</ele>
        <time>2013-07-03T11:57:10Z</time>
      </trkpt>
      <trkpt lat="40.264317" lon="-4.908650">
        <ele>2688.0</ele>
        <time>2013-07-03T11:57:11Z</time>
      </trkpt>
      <trkpt lat="40.264400" lon="-4.908633">
        <ele>2689.0</ele>
        <time>2013-07-03T11:57:12Z</time>
      </trkpt>
      <trkpt lat="40.264467" lon="-4.908650">
        <ele>2691.0</ele>
        <time>2013-07-03T11:57:13Z</time>
      </trkpt>
      <trkpt lat="40.264533" lon="-4.908683">
        <ele>2693.0</ele>
        <time>2013-07-03T11:57:14Z</time>
      </trkpt>
      <trkpt lat="40.264600" lon="-4.908700">
        <ele>2695.0</ele>
        <time>2013-07-03T11:57:15Z</time>
      </trkpt>
      <trkpt lat="40.264633" lon="-4.908717">
        <ele>2697.0</ele>
        <time>2013-07-03T11:57:16Z</time>
      </trkpt>
      <trkpt lat="40.264683" lon="-4.908733">
        <ele>2697.0</ele>
        <time>2013-07-03T11:57:17Z</time>
      </trkpt>
      <trkpt lat="40.264717" lon="-4.908783">
        <ele>2696.0</ele>
        <time>2013-07-03T11:57:18Z</time>
      </trkpt>
      <trkpt lat="40.264767" lon="-4.908867">
        <ele>2694.0</ele>
        <time>2013-07-03T11:57:19Z</time>
      </trkpt>
      <trkpt lat="40.264800" lon="-4.908967">
        <ele>2694.0</ele>
        <time>2013-07-03T11:57:20Z</time>
      </trkpt>
      <trkpt lat="40.264833" lon="-4.909100">
        <ele>2694.0</ele>
        <time>2013-07-03T11:57:21Z</time>
      </trkpt>
      <trkpt lat="40.264833" lon="-4.909217">
        <ele>2694.0</ele>
        <time>2013-07-03T11:57:22Z</time>
      </trkpt>
      <trkpt lat="40.264850" lon="-4.909333">
        <ele>2696.0</ele>
        <time>2013-07-03T11:57:23Z</time>
      </trkpt>
      <trkpt lat="40.264833" lon="-4.909433">
        <ele>2699.0</ele>
        <time>2013-07-03T11:57:24Z</time>
      </trkpt>
      <trkpt lat="40.264817" lon="-4.909517">
        <ele>2701.0</ele>
        <time>2013-07-03T11:57:25Z</time>
      </trkpt>
      <trkpt lat="40.264783" lon="-4.909567">
        <ele>2702.0</ele>
        <time>2013-07-03T11:57:26Z</time>
      </trkpt>
      <trkpt lat="40.264767" lon="-4.909667">
        <ele>2701.0</ele>
        <time>2013-07-03T11:57:27Z</time>
      </trkpt>
      <trkpt lat="40.264717" lon="-4.909767">
        <ele>2701.0</ele>
        <time>2013-07-03T11:57:28Z</time>
      </trkpt>
      <trkpt lat="40.264667" lon="-4.909883">
        <ele>2701.0</ele>
        <time>2013-07-03T11:57:29Z</time>
      </trkpt>
      <trkpt lat="40.264600" lon="-4.909950">
        <ele>2701.0</ele>
        <time>2013-07-03T11:57:30Z</time>
      </trkpt>
      <trkpt lat="40.264517" lon="-4.910000">
        <ele>2700.0</ele>
        <time>2013-07-03T11:57:31Z</time>
      </trkpt>
      <trkpt lat="40.264400" lon="-4.910017">
        <ele>2700.0</ele>
        <time>2013-07-03T11:57:32Z</time>
      </trkpt>
      <trkpt lat="40.264300" lon="-4.910017">
        <ele>2699.0</ele>
        <time>2013-07-03T11:57:33Z</time>
      </trkpt>
      <trkpt lat="40.264200" lon="-4.910017">
        <ele>2700.0</ele>
        <time>2013-07-03T11:57:34Z</time>
      </trkpt>
      <trkpt lat="40.264100" lon="-4.910033">
        <ele>2699.0</ele>
        <time>2013-07-03T11:57:35Z</time>
      </trkpt>
      <trkpt lat="40.264000" lon="-4.910033">
        <ele>2698.0</ele>
        <time>2013-07-03T11:57:36Z</time>
      </trkpt>
      <trkpt lat="40.263900" lon="-4.910017">
        <ele>2697.0</ele>
        <time>2013-07-03T11:57:37Z</time>
      </trkpt>
      <trkpt lat="40.263800" lon="-4.910000">
        <ele>2695.0</ele>
        <time>2013-07-03T11:57:38Z</time>
      </trkpt>
      <trkpt lat="40.263683" lon="-4.909967">
        <ele>2695.0</ele>
        <time>2013-07-03T11:57:39Z</time>
      </trkpt>
      <trkpt lat="40.263567" lon="-4.909917">
        <ele>2694.0</ele>
        <time>2013-07-03T11:57:40Z</time>
      </trkpt>
      <trkpt lat="40.263450" lon="-4.909867">
        <ele>2693.0</ele>
        <time>2013-07-03T11:57:41Z</time>
      </trkpt>
      <trkpt lat="40.263350" lon="-4.909817">
        <ele>2692.0</ele>
        <time>2013-07-03T11:57:42Z</time>
      </trkpt>
      <trkpt lat="40.263250" lon="-4.909750">
        <ele>2691.0</ele>
        <time>2013-07-03T11:57:43Z</time>
      </trkpt>
      <trkpt lat="40.263133" lon="-4.909683">
        <ele>2690.0</ele>
        <time>2013-07-03T11:57:44Z</time>
      </trkpt>
      <trkpt lat="40.263033" lon="-4.909600">
        <ele>2689.0</ele>
        <time>2013-07-03T11:57:45Z</time>
      </trkpt>
      <trkpt lat="40.262950" lon="-4.909517">
        <ele>2688.0</ele>
        <time>2013-07-03T11:57:46Z</time>
      </trkpt>
      <trkpt lat="40.262883" lon="-4.909417">
        <ele>2688.0</ele>
        <time>2013-07-03T11:57:47Z</time>
      </trkpt>
      <trkpt lat="40.262833" lon="-4.909333">
        <ele>2689.0</ele>
        <time>2013-07-03T11:57:48Z</time>
      </trkpt>
      <trkpt lat="40.262783" lon="-4.909250">
        <ele>2689.0</ele>
        <time>2013-07-03T11:57:49Z</time>
      </trkpt>
      <trkpt lat="40.262733" lon="-4.909167">
        <ele>2690.0</ele>
        <time>2013-07-03T11:57:50Z</time>
      </trkpt>
      <trkpt lat="40.262700" lon="-4.909083">
        <ele>2690.0</ele>
        <time>2013-07-03T11:57:51Z</time>
      </trkpt>
      <trkpt lat="40.262683" lon="-4.909000">
        <ele>2690.0</ele>
        <time>2013-07-03T11:57:52Z</time>
      </trkpt>
      <trkpt lat="40.262717" lon="-4.908917">
        <ele>2690.0</ele>
        <time>2013-07-03T11:57:53Z</time>
      </trkpt>
      <trkpt lat="40.262750" lon="-4.908867">
        <ele>2689.0</ele>
        <time>2013-07-03T11:57:54Z</time>
      </trkpt>
      <trkpt lat="40.262817" lon="-4.908833">
        <ele>2689.0</ele>
        <time>2013-07-03T11:57:55Z</time>
      </trkpt>
      <trkpt lat="40.262867" lon="-4.908800">
        <ele>2689.0</ele>
        <time>2013-07-03T11:57:56Z</time>
      </trkpt>
      <trkpt lat="40.262900" lon="-4.908767">
        <ele>2688.0</ele>
        <time>2013-07-03T11:57:57Z</time>
      </trkpt>
      <trkpt lat="40.262950" lon="-4.908733">
        <ele>2686.0</ele>
        <time>2013-07-03T11:57:58Z</time>
      </trkpt>
      <trkpt lat="40.263017" lon="-4.908683">
        <ele>2684.0</ele>
        <time>2013-07-03T11:57:59Z</time>
      </trkpt>
      <trkpt lat="40.263083" lon="-4.908633">
        <ele>2681.0</ele>
        <time>2013-07-03T11:58:00Z</time>
      </trkpt>
      <trkpt lat="40.263167" lon="-4.908583">
        <ele>2679.0</ele>
        <time>2013-07-03T11:58:01Z</time>
      </trkpt>
      <trkpt lat="40.263233" lon="-4.908517">
        <ele>2678.0</ele>
        <time>2013-07-03T11:58:02Z</time>
      </trkpt>
      <trkpt lat="40.263300" lon="-4.908450">
        <ele>2678.0</ele>
        <time>2013-07-03T11:58:03Z</time>
      </trkpt>
      <trkpt lat="40.263350" lon="-4.908383">
        <ele>2678.0</ele>
        <time>2013-07-03T11:58:04Z</time>
      </trkpt>
      <trkpt lat="40.263383" lon="-4.908333">
        <ele>2678.0</ele>
        <time>2013-07-03T11:58:05Z</time>
      </trkpt>
      <trkpt lat="40.263433" lon="-4.908300">
        <ele>2676.0</ele>
        <time>2013-07-03T11:58:06Z</time>
      </trkpt>
      <trkpt lat="40.263483" lon="-4.908283">
        <ele>2674.0</ele>
        <time>2013-07-03T11:58:07Z</time>
      </trkpt>
      <trkpt lat="40.263550" lon="-4.908283">
        <ele>2672.0</ele>
        <time>2013-07-03T11:58:08Z</time>
      </trkpt>
      <trkpt lat="40.263617" lon="-4.908300">
        <ele>2670.0</ele>
        <time>2013-07-03T11:58:09Z</time>
      </trkpt>
      <trkpt lat="40.263683" lon="-4.908333">
        <ele>2668.0</ele>
        <time>2013-07-03T11:58:10Z</time>
      </trkpt>
      <trkpt lat="40.263750" lon="-4.908350">
        <ele>2666.0</ele>
        <time>2013-07-03T11:58:11Z</time>
      </trkpt>
      <trkpt lat="40.263817" lon="-4.908383">
        <ele>2663.0</ele>
        <time>2013-07-03T11:58:12Z</time>
      </trkpt>
      <trkpt lat="40.263867" lon="-4.908400">
        <ele>2662.0</ele>
        <time>2013-07-03T11:58:13Z</time>
      </trkpt>
      <trkpt lat="40.263900" lon="-4.908467">
        <ele>2660.0</ele>
        <time>2013-07-03T11:58:14Z</time>
      </trkpt>
      <trkpt lat="40.263917" lon="-4.908550">
        <ele>2656.0</ele>
        <time>2013-07-03T11:58:15Z</time>
      </trkpt>
      <trkpt lat="40.263900" lon="-4.908683">
        <ele>2654.0</ele>
        <time>2013-07-03T11:58:16Z</time>
      </trkpt>
      <trkpt lat="40.263850" lon="-4.908833">
        <ele>2652.0</ele>
        <time>2013-07-03T11:58:17Z</time>
      </trkpt>
      <trkpt lat="40.263783" lon="-4.908967">
        <ele>2651.0</ele>
        <time>2013-07-03T11:58:18Z</time>
      </trkpt>
      <trkpt lat="40.263683" lon="-4.909083">
        <ele>2650.0</ele>
        <time>2013-07-03T11:58:19Z</time>
      </trkpt>
      <trkpt lat="40.263600" lon="-4.909167">
        <ele>2649.0</ele>
        <time>2013-07-03T11:58:20Z</time>
      </trkpt>
      <trkpt lat="40.263500" lon="-4.909267">
        <ele>2647.0</ele>
        <time>2013-07-03T11:58:21Z</time>
      </trkpt>
      <trkpt lat="40.263400" lon="-4.909367">
        <ele>2644.0</ele>
        <time>2013-07-03T11:58:22Z</time>
      </trkpt>
      <trkpt lat="40.263283" lon="-4.909467">
        <ele>2641.0</ele>
        <time>2013-07-03T11:58:23Z</time>
      </trkpt>
      <trkpt lat="40.263150" lon="-4.909517">
        <ele>2639.0</ele>
        <time>2013-07-03T11:58:24Z</time>
      </trkpt>
      <trkpt lat="40.263000" lon="-4.909550">
        <ele>2638.0</ele>
        <time>2013-07-03T11:58:25Z</time>
      </trkpt>
      <trkpt lat="40.262867" lon="-4.909583">
        <ele>2637.0</ele>
        <time>2013-07-03T11:58:26Z</time>
      </trkpt>
      <trkpt lat="40.262750" lon="-4.909600">
        <ele>2637.0</ele>
        <time>2013-07-03T11:58:27Z</time>
      </trkpt>
      <trkpt lat="40.262617" lon="-4.909633">
        <ele>2636.0</ele>
        <time>2013-07-03T11:58:28Z</time>
      </trkpt>
      <trkpt lat="40.262500" lon="-4.909683">
        <ele>2634.0</ele>
        <time>2013-07-03T11:58:29Z</time>
      </trkpt>
      <trkpt lat="40.262383" lon="-4.909717">
        <ele>2632.0</ele>
        <time>2013-07-03T11:58:30Z</time>
      </trkpt>
      <trkpt lat="40.262250" lon="-4.909733">
        <ele>2630.0</ele>
        <time>2013-07-03T11:58:31Z</time>
      </trkpt>
      <trkpt lat="40.262133" lon="-4.909750">
        <ele>2627.0</ele>
        <time>2013-07-03T11:58:32Z</time>
      </trkpt>
      <trkpt lat="40.262000" lon="-4.909750">
        <ele>2625.0</ele>
        <time>2013-07-03T11:58:33Z</time>
      </trkpt>
      <trkpt lat="40.261883" lon="-4.909767">
        <ele>2622.0</ele>
        <time>2013-07-03T11:58:34Z</time>
      </trkpt>
      <trkpt lat="40.261750" lon="-4.909783">
        <ele>2619.0</ele>
        <time>2013-07-03T11:58:35Z</time>
      </trkpt>
      <trkpt lat="40.261617" lon="-4.909817">
        <ele>2616.0</ele>
        <time>2013-07-03T11:58:36Z</time>
      </trkpt>
      <trkpt lat="40.261500" lon="-4.909850">
        <ele>2614.0</ele>
        <time>2013-07-03T11:58:37Z</time>
      </trkpt>
      <trkpt lat="40.261367" lon="-4.909883">
        <ele>2612.0</ele>
        <time>2013-07-03T11:58:38Z</time>
      </trkpt>
      <trkpt lat="40.261233" lon="-4.909917">
        <ele>2609.0</ele>
        <time>2013-07-03T11:58:39Z</time>
      </trkpt>
      <trkpt lat="40.261100" lon="-4.909933">
        <ele>2605.0</ele>
        <time>2013-07-03T11:58:40Z</time>
      </trkpt>
      <trkpt lat="40.260967" lon="-4.909917">
        <ele>2602.0</ele>
        <time>2013-07-03T11:58:41Z</time>
      </trkpt>
      <trkpt lat="40.260850" lon="-4.909917">
        <ele>2600.0</ele>
        <time>2013-07-03T11:58:42Z</time>
      </trkpt>
      <trkpt lat="40.260750" lon="-4.909900">
        <ele>2598.0</ele>
        <time>2013-07-03T11:58:43Z</time>
      </trkpt>
      <trkpt lat="40.260667" lon="-4.909867">
        <ele>2595.0</ele>
        <time>2013-07-03T11:58:44Z</time>
      </trkpt>
      <trkpt lat="40.260567" lon="-4.909833">
        <ele>2590.0</ele>
        <time>2013-07-03T11:58:45Z</time>
      </trkpt>
      <trkpt lat="40.260483" lon="-4.909767">
        <ele>2584.0</ele>
        <time>2013-07-03T11:58:46Z</time>
      </trkpt>
      <trkpt lat="40.260367" lon="-4.909700">
        <ele>2578.0</ele>
        <time>2013-07-03T11:58:47Z</time>
      </trkpt>
      <trkpt lat="40.260250" lon="-4.909650">
        <ele>2574.0</ele>
        <time>2013-07-03T11:58:48Z</time>
      </trkpt>
      <trkpt lat="40.260133" lon="-4.909600">
        <ele>2570.0</ele>
        <time>2013-07-03T11:58:49Z</time>
      </trkpt>
      <trkpt lat="40.260017" lon="-4.909550">
        <ele>2567.0</ele>
        <time>2013-07-03T11:58:50Z</time>
      </trkpt>
      <trkpt lat="40.259917" lon="-4.909517">
        <ele>2563.0</ele>
        <time>2013-07-03T11:58:51Z</time>
      </trkpt>
      <trkpt lat="40.259800" lon="-4.909483">
        <ele>2559.0</ele>
        <time>2013-07-03T11:58:52Z</time>
      </trkpt>
      <trkpt lat="40.259683" lon="-4.909433">
        <ele>2554.0</ele>
        <time>2013-07-03T11:58:53Z</time>
      </trkpt>
      <trkpt lat="40.259583" lon="-4.909383">
        <ele>2549.0</ele>
        <time>2013-07-03T11:58:54Z</time>
      </trkpt>
      <trkpt lat="40.259467" lon="-4.909317">
        <ele>2545.0</ele>
        <time>2013-07-03T11:58:55Z</time>
      </trkpt>
      <trkpt lat="40.259383" lon="-4.909267">
        <ele>2541.0</ele>
        <time>2013-07-03T11:58:56Z</time>
      </trkpt>
      <trkpt lat="40.259283" lon="-4.909200">
        <ele>2537.0</ele>
        <time>2013-07-03T11:58:57Z</time>
      </trkpt>
      <trkpt lat="40.259183" lon="-4.909117">
        <ele>2530.0</ele>
        <time>2013-07-03T11:58:58Z</time>
      </trkpt>
      <trkpt lat="40.259083" lon="-4.909033">
        <ele>2524.0</ele>
        <time>2013-07-03T11:58:59Z</time>
      </trkpt>
      <trkpt lat="40.259000" lon="-4.908933">
        <ele>2519.0</ele>
        <time>2013-07-03T11:59:00Z</time>
      </trkpt>
      <trkpt lat="40.258900" lon="-4.908833">
        <ele>2513.0</ele>
        <time>2013-07-03T11:59:01Z</time>
      </trkpt>
      <trkpt lat="40.258800" lon="-4.908750">
        <ele>2508.0</ele>
        <time>2013-07-03T11:59:02Z</time>
      </trkpt>
      <trkpt lat="40.258717" lon="-4.908683">
        <ele>2502.0</ele>
        <time>2013-07-03T11:59:03Z</time>
      </trkpt>
      <trkpt lat="40.258633" lon="-4.908583">
        <ele>2497.0</ele>
        <time>2013-07-03T11:59:04Z</time>
      </trkpt>
      <trkpt lat="40.258550" lon="-4.908483">
        <ele>2491.0</ele>
        <time>2013-07-03T11:59:05Z</time>
      </trkpt>
      <trkpt lat="40.258467" lon="-4.908367">
        <ele>2485.0</ele>
        <time>2013-07-03T11:59:06Z</time>
      </trkpt>
      <trkpt lat="40.258383" lon="-4.908267">
        <ele>2480.0</ele>
        <time>2013-07-03T11:59:07Z</time>
      </trkpt>
      <trkpt lat="40.258300" lon="-4.908150">
        <ele>2474.0</ele>
        <time>2013-07-03T11:59:08Z</time>
      </trkpt>
      <trkpt lat="40.258217" lon="-4.908033">
        <ele>2469.0</ele>
        <time>2013-07-03T11:59:09Z</time>
      </trkpt>
      <trkpt lat="40.258133" lon="-4.907933">
        <ele>2464.0</ele>
        <time>2013-07-03T11:59:10Z</time>
      </trkpt>
      <trkpt lat="40.258050" lon="-4.907817">
        <ele>2459.0</ele>
        <time>2013-07-03T11:59:11Z</time>
      </trkpt>
      <trkpt lat="40.257950" lon="-4.907700">
        <ele>2455.0</ele>
        <time>2013-07-03T11:59:12Z</time>
      </trkpt>
      <trkpt lat="40.257850" lon="-4.907617">
        <ele>2450.0</ele>
        <time>2013-07-03T11:59:13Z</time>
      </trkpt>
      <trkpt lat="40.257733" lon="-4.907517">
        <ele>2444.0</ele>
        <time>2013-07-03T11:59:14Z</time>
      </trkpt>
      <trkpt lat="40.257633" lon="-4.907400">
        <ele>2437.0</ele>
        <time>2013-07-03T11:59:15Z</time>
      </trkpt>
      <trkpt lat="40.257517" lon="-4.907283">
        <ele>2430.0</ele>
        <time>2013-07-03T11:59:16Z</time>
      </trkpt>
      <trkpt lat="40.257400" lon="-4.907167">
        <ele>2424.0</ele>
        <time>2013-07-03T11:59:17Z</time>
      </trkpt>
      <trkpt lat="40.257283" lon="-4.907050">
        <ele>2418.0</ele>
        <time>2013-07-03T11:59:18Z</time>
      </trkpt>
      <trkpt lat="40.257167" lon="-4.906950">
        <ele>2413.0</ele>
        <time>2013-07-03T11:59:19Z</time>
      </trkpt>
      <trkpt lat="40.257033" lon="-4.906867">
        <ele>2410.0</ele>
        <time>2013-07-03T11:59:20Z</time>
      </trkpt>
      <trkpt lat="40.256917" lon="-4.906800">
        <ele>2408.0</ele>
        <time>2013-07-03T11:59:21Z</time>
      </trkpt>
      <trkpt lat="40.256800" lon="-4.906733">
        <ele>2405.0</ele>
        <time>2013-07-03T11:59:22Z</time>
      </trkpt>
      <trkpt lat="40.256700" lon="-4.906683">
        <ele>2401.0</ele>
        <time>2013-07-03T11:59:23Z</time>
      </trkpt>
      <trkpt lat="40.256567" lon="-4.906617">
        <ele>2396.0</ele>
        <time>2013-07-03T11:59:24Z</time>
      </trkpt>
      <trkpt lat="40.256450" lon="-4.906550">
        <ele>2389.0</ele>
        <time>2013-07-03T11:59:25Z</time>
      </trkpt>
      <trkpt lat="40.256300" lon="-4.906483">
        <ele>2382.0</ele>
        <time>2013-07-03T11:59:26Z</time>
      </trkpt>
      <trkpt lat="40.256167" lon="-4.906400">
        <ele>2376.0</ele>
        <time>2013-07-03T11:59:27Z</time>
      </trkpt>
      <trkpt lat="40.256033" lon="-4.906317">
        <ele>2373.0</ele>
        <time>2013-07-03T11:59:28Z</time>
      </trkpt>
      <trkpt lat="40.255917" lon="-4.906233">
        <ele>2372.0</ele>
        <time>2013-07-03T11:59:29Z</time>
      </trkpt>
      <trkpt lat="40.255817" lon="-4.906183">
        <ele>2370.0</ele>
        <time>2013-07-03T11:59:30Z</time>
      </trkpt>
      <trkpt lat="40.255717" lon="-4.906133">
        <ele>2366.0</ele>
        <time>2013-07-03T11:59:31Z</time>
      </trkpt>
      <trkpt lat="40.255600" lon="-4.906100">
        <ele>2361.0</ele>
        <time>2013-07-03T11:59:32Z</time>
      </trkpt>
      <trkpt lat="40.255483" lon="-4.906050">
        <ele>2356.0</ele>
        <time>2013-07-03T11:59:33Z</time>
      </trkpt>
      <trkpt lat="40.255333" lon="-4.905983">
        <ele>2352.0</ele>
        <time>2013-07-03T11:59:34Z</time>
      </trkpt>
      <trkpt lat="40.255217" lon="-4.905917">
        <ele>2349.0</ele>
        <time>2013-07-03T11:59:35Z</time>
      </trkpt>
      <trkpt lat="40.255100" lon="-4.905850">
        <ele>2346.0</ele>
        <time>2013-07-03T11:59:36Z</time>
      </trkpt>
      <trkpt lat="40.255000" lon="-4.905783">
        <ele>2343.0</ele>
        <time>2013-07-03T11:59:37Z</time>
      </trkpt>
      <trkpt lat="40.254883" lon="-4.905733">
        <ele>2339.0</ele>
        <time>2013-07-03T11:59:38Z</time>
      </trkpt>
      <trkpt lat="40.254767" lon="-4.905667">
        <ele>2334.0</ele>
        <time>2013-07-03T11:59:39Z</time>
      </trkpt>
      <trkpt lat="40.254633" lon="-4.905583">
        <ele>2328.0</ele>
        <time>2013-07-03T11:59:40Z</time>
      </trkpt>
      <trkpt lat="40.254517" lon="-4.905483">
        <ele>2325.0</ele>
        <time>2013-07-03T11:59:41Z</time>
      </trkpt>
      <trkpt lat="40.254400" lon="-4.905383">
        <ele>2324.0</ele>
        <time>2013-07-03T11:59:42Z</time>
      </trkpt>
      <trkpt lat="40.254283" lon="-4.905300">
        <ele>2322.0</ele>
        <time>2013-07-03T11:59:43Z</time>
      </trkpt>
      <trkpt lat="40.254167" lon="-4.905250">
        <ele>2320.0</ele>
        <time>2013-07-03T11:59:44Z</time>
      </trkpt>
      <trkpt lat="40.254067" lon="-4.905200">
        <ele>2317.0</ele>
        <time>2013-07-03T11:59:45Z</time>
      </trkpt>
      <trkpt lat="40.253950" lon="-4.905150">
        <ele>2313.0</ele>
        <time>2013-07-03T11:59:46Z</time>
      </trkpt>
      <trkpt lat="40.253833" lon="-4.905083">
        <ele>2309.0</ele>
        <time>2013-07-03T11:59:47Z</time>
      </trkpt>
      <trkpt lat="40.253717" lon="-4.905017">
        <ele>2305.0</ele>
        <time>2013-07-03T11:59:48Z</time>
      </trkpt>
      <trkpt lat="40.253600" lon="-4.904933">
        <ele>2302.0</ele>
        <time>2013-07-03T11:59:49Z</time>
      </trkpt>
      <trkpt lat="40.253483" lon="-4.904850">
        <ele>2300.0</ele>
        <time>2013-07-03T11:59:50Z</time>
      </trkpt>
      <trkpt lat="40.253367" lon="-4.904783">
        <ele>2297.0</ele>
        <time>2013-07-03T11:59:51Z</time>
      </trkpt>
      <trkpt lat="40.253267" lon="-4.904717">
        <ele>2294.0</ele>
        <time>2013-07-03T11:59:52Z</time>
      </trkpt>
      <trkpt lat="40.253167" lon="-4.904667">
        <ele>2291.0</ele>
        <time>2013-07-03T11:59:53Z</time>
      </trkpt>
      <trkpt lat="40.253050" lon="-4.904617">
        <ele>2287.0</ele>
        <time>2013-07-03T11:59:54Z</time>
      </trkpt>
      <trkpt lat="40.252950" lon="-4.904533">
        <ele>2284.0</ele>
        <time>2013-07-03T11:59:55Z</time>
      </trkpt>
      <trkpt lat="40.252833" lon="-4.904467">
        <ele>2281.0</ele>
        <time>2013-07-03T11:59:56Z</time>
      </trkpt>
      <trkpt lat="40.252717" lon="-4.904400">
        <ele>2279.0</ele>
        <time>2013-07-03T11:59:57Z</time>
      </trkpt>
      <trkpt lat="40.252600" lon="-4.904350">
        <ele>2277.0</ele>
        <time>2013-07-03T11:59:58Z</time>
      </trkpt>
      <trkpt lat="40.252500" lon="-4.904300">
        <ele>2274.0</ele>
        <time>2013-07-03T11:59:59Z</time>
      </trkpt>
      <trkpt lat="40.252383" lon="-4.904250">
        <ele>2270.0</ele>
        <time>2013-07-03T12:00:00Z</time>
      </trkpt>
      <trkpt lat="40.252267" lon="-4.904183">
        <ele>2266.0</ele>
        <time>2013-07-03T12:00:01Z</time>
      </trkpt>
      <trkpt lat="40.252150" lon="-4.904083">
        <ele>2264.0</ele>
        <time>2013-07-03T12:00:02Z</time>
      </trkpt>
      <trkpt lat="40.252033" lon="-4.904000">
        <ele>2262.0</ele>
        <time>2013-07-03T12:00:03Z</time>
      </trkpt>
      <trkpt lat="40.251900" lon="-4.903917">
        <ele>2262.0</ele>
        <time>2013-07-03T12:00:04Z</time>
      </trkpt>
      <trkpt lat="40.251800" lon="-4.903850">
        <ele>2262.0</ele>
        <time>2013-07-03T12:00:05Z</time>
      </trkpt>
      <trkpt lat="40.251683" lon="-4.903783">
        <ele>2261.0</ele>
        <time>2013-07-03T12:00:06Z</time>
      </trkpt>
      <trkpt lat="40.251567" lon="-4.903683">
        <ele>2258.0</ele>
        <time>2013-07-03T12:00:07Z</time>
      </trkpt>
      <trkpt lat="40.251450" lon="-4.903583">
        <ele>2256.0</ele>
        <time>2013-07-03T12:00:08Z</time>
      </trkpt>
      <trkpt lat="40.251333" lon="-4.903500">
        <ele>2255.0</ele>
        <time>2013-07-03T12:00:09Z</time>
      </trkpt>
      <trkpt lat="40.251217" lon="-4.903417">
        <ele>2255.0</ele>
        <time>2013-07-03T12:00:10Z</time>
      </trkpt>
      <trkpt lat="40.251083" lon="-4.903350">
        <ele>2255.0</ele>
        <time>2013-07-03T12:00:11Z</time>
      </trkpt>
      <trkpt lat="40.250983" lon="-4.903267">
        <ele>2255.0</ele>
        <time>2013-07-03T12:00:12Z</time>
      </trkpt>
      <trkpt lat="40.250867" lon="-4.903200">
        <ele>2255.0</ele>
        <time>2013-07-03T12:00:13Z</time>
      </trkpt>
      <trkpt lat="40.250750" lon="-4.903150">
        <ele>2255.0</ele>
        <time>2013-07-03T12:00:14Z</time>
      </trkpt>
      <trkpt lat="40.250633" lon="-4.903083">
        <ele>2255.0</ele>
        <time>2013-07-03T12:00:15Z</time>
      </trkpt>
      <trkpt lat="40.250517" lon="-4.903017">
        <ele>2253.0</ele>
        <time>2013-07-03T12:00:16Z</time>
      </trkpt>
      <trkpt lat="40.250400" lon="-4.902950">
        <ele>2252.0</ele>
        <time>2013-07-03T12:00:17Z</time>
      </trkpt>
      <trkpt lat="40.250283" lon="-4.902883">
        <ele>2251.0</ele>
        <time>2013-07-03T12:00:18Z</time>
      </trkpt>
      <trkpt lat="40.250150" lon="-4.902833">
        <ele>2251.0</ele>
        <time>2013-07-03T12:00:19Z</time>
      </trkpt>
      <trkpt lat="40.250033" lon="-4.902783">
        <ele>2250.0</ele>
        <time>2013-07-03T12:00:20Z</time>
      </trkpt>
      <trkpt lat="40.249900" lon="-4.902733">
        <ele>2249.0</ele>
        <time>2013-07-03T12:00:21Z</time>
      </trkpt>
      <trkpt lat="40.249767" lon="-4.902667">
        <ele>2248.0</ele>
        <time>2013-07-03T12:00:22Z</time>
      </trkpt>
      <trkpt lat="40.249633" lon="-4.902600">
        <ele>2247.0</ele>
        <time>2013-07-03T12:00:23Z</time>
      </trkpt>
      <trkpt lat="40.249517" lon="-4.902533">
        <ele>2248.0</ele>
        <time>2013-07-03T12:00:24Z</time>
      </trkpt>
      <trkpt lat="40.249400" lon="-4.902483">
        <ele>2249.0</ele>
        <time>2013-07-03T12:00:25Z</time>
      </trkpt>
      <trkpt lat="40.249283" lon="-4.902417">
        <ele>2250.0</ele>
        <time>2013-07-03T12:00:26Z</time>
      </trkpt>
      <trkpt lat="40.249183" lon="-4.902350">
        <ele>2250.0</ele>
        <time>2013-07-03T12:00:27Z</time>
      </trkpt>
      <trkpt lat="40.249067" lon="-4.902300">
        <ele>2249.0</ele>
        <time>2013-07-03T12:00:28Z</time>
      </trkpt>
      <trkpt lat="40.248950" lon="-4.902250">
        <ele>2248.0</ele>
        <time>2013-07-03T12:00:29Z</time>
      </trkpt>
      <trkpt lat="40.248817" lon="-4.902200">
        <ele>2248.0</ele>
        <time>2013-07-03T12:00:30Z</time>
      </trkpt>
      <trkpt lat="40.248717" lon="-4.902167">
        <ele>2250.0</ele>
        <time>2013-07-03T12:00:31Z</time>
      </trkpt>
      <trkpt lat="40.248617" lon="-4.902133">
        <ele>2252.0</ele>
        <time>2013-07-03T12:00:32Z</time>
      </trkpt>
      <trkpt lat="40.248517" lon="-4.902083">
        <ele>2252.0</ele>
        <time>2013-07-03T12:00:33Z</time>
      </trkpt>
      <trkpt lat="40.248417" lon="-4.902050">
        <ele>2252.0</ele>
        <time>2013-07-03T12:00:34Z</time>
      </trkpt>
      <trkpt lat="40.248317" lon="-4.902000">
        <ele>2252.0</ele>
        <time>2013-07-03T12:00:35Z</time>
      </trkpt>
      <trkpt lat="40.248200" lon="-4.901967">
        <ele>2250.0</ele>
        <time>2013-07-03T12:00:36Z</time>
      </trkpt>
      <trkpt lat="40.248083" lon="-4.901950">
        <ele>2250.0</ele>
        <time>2013-07-03T12:00:37Z</time>
      </trkpt>
      <trkpt lat="40.247983" lon="-4.901917">
        <ele>2250.0</ele>
        <time>2013-07-03T12:00:38Z</time>
      </trkpt>
      <trkpt lat="40.247867" lon="-4.901900">
        <ele>2250.0</ele>
        <time>2013-07-03T12:00:39Z</time>
      </trkpt>
      <trkpt lat="40.247767" lon="-4.901883">
        <ele>2251.0</ele>
        <time>2013-07-03T12:00:40Z</time>
      </trkpt>
      <trkpt lat="40.247683" lon="-4.901850">
        <ele>2250.0</ele>
        <time>2013-07-03T12:00:41Z</time>
      </trkpt>
      <trkpt lat="40.247583" lon="-4.901833">
        <ele>2248.0</ele>
        <time>2013-07-03T12:00:42Z</time>
      </trkpt>
      <trkpt lat="40.247467" lon="-4.901800">
        <ele>2246.0</ele>
        <time>2013-07-03T12:00:43Z</time>
      </trkpt>
      <trkpt lat="40.247350" lon="-4.901750">
        <ele>2244.0</ele>
        <time>2013-07-03T12:00:44Z</time>
      </trkpt>
      <trkpt lat="40.247233" lon="-4.901717">
        <ele>2244.0</ele>
        <time>2013-07-03T12:00:45Z</time>
      </trkpt>
      <trkpt lat="40.247117" lon="-4.901683">
        <ele>2245.0</ele>
        <time>2013-07-03T12:00:46Z</time>
      </trkpt>
      <trkpt lat="40.247017" lon="-4.901650">
        <ele>2245.0</ele>
        <time>2013-07-03T12:00:47Z</time>
      </trkpt>
      <trkpt lat="40.246917" lon="-4.901633">
        <ele>2244.0</ele>
        <time>2013-07-03T12:00:48Z</time>
      </trkpt>
      <trkpt lat="40.246817" lon="-4.901583">
        <ele>2243.0</ele>
        <time>2013-07-03T12:00:49Z</time>
      </trkpt>
      <trkpt lat="40.246700" lon="-4.901533">
        <ele>2241.0</ele>
        <time>2013-07-03T12:00:50Z</time>
      </trkpt>
      <trkpt lat="40.246583" lon="-4.901483">
        <ele>2240.0</ele>
        <time>2013-07-03T12:00:51Z</time>
      </trkpt>
      <trkpt lat="40.246483" lon="-4.901433">
        <ele>2241.0</ele>
        <time>2013-07-03T12:00:52Z</time>
      </trkpt>
      <trkpt lat="40.246383" lon="-4.901383">
        <ele>2240.0</ele>
        <time>2013-07-03T12:00:53Z</time>
      </trkpt>
      <trkpt lat="40.246283" lon="-4.901350">
        <ele>2239.0</ele>
        <time>2013-07-03T12:00:54Z</time>
      </trkpt>
      <trkpt lat="40.246183" lon="-4.901317">
        <ele>2237.0</ele>
        <time>2013-07-03T12:00:55Z</time>
      </trkpt>
      <trkpt lat="40.246067" lon="-4.901267">
        <ele>2235.0</ele>
        <time>2013-07-03T12:00:56Z</time>
      </trkpt>
      <trkpt lat="40.245933" lon="-4.901233">
        <ele>2234.0</ele>
        <time>2013-07-03T12:00:57Z</time>
      </trkpt>
      <trkpt lat="40.245817" lon="-4.901183">
        <ele>2234.0</ele>
        <time>2013-07-03T12:00:58Z</time>
      </trkpt>
      <trkpt lat="40.245717" lon="-4.901133">
        <ele>2234.0</ele>
        <time>2013-07-03T12:00:59Z</time>
      </trkpt>
      <trkpt lat="40.245600" lon="-4.901083">
        <ele>2234.0</ele>
        <time>2013-07-03T12:01:00Z</time>
      </trkpt>
      <trkpt lat="40.245500" lon="-4.901017">
        <ele>2233.0</ele>
        <time>2013-07-03T12:01:01Z</time>
      </trkpt>
      <trkpt lat="40.245383" lon="-4.900983">
        <ele>2231.0</ele>
        <time>2013-07-03T12:01:02Z</time>
      </trkpt>
      <trkpt lat="40.245267" lon="-4.900933">
        <ele>2230.0</ele>
        <time>2013-07-03T12:01:03Z</time>
      </trkpt>
      <trkpt lat="40.245150" lon="-4.900900">
        <ele>2230.0</ele>
        <time>2013-07-03T12:01:04Z</time>
      </trkpt>
      <trkpt lat="40.245033" lon="-4.900850">
        <ele>2229.0</ele>
        <time>2013-07-03T12:01:05Z</time>
      </trkpt>
      <trkpt lat="40.244900" lon="-4.900817">
        <ele>2228.0</ele>
        <time>2013-07-03T12:01:06Z</time>
      </trkpt>
      <trkpt lat="40.244783" lon="-4.900767">
        <ele>2228.0</ele>
        <time>2013-07-03T12:01:07Z</time>
      </trkpt>
      <trkpt lat="40.244650" lon="-4.900733">
        <ele>2228.0</ele>
        <time>2013-07-03T12:01:08Z</time>
      </trkpt>
      <trkpt lat="40.244533" lon="-4.900700">
        <ele>2228.0</ele>
        <time>2013-07-03T12:01:09Z</time>
      </trkpt>
      <trkpt lat="40.244417" lon="-4.900683">
        <ele>2229.0</ele>
        <time>2013-07-03T12:01:10Z</time>
      </trkpt>
      <trkpt lat="40.244300" lon="-4.900650">
        <ele>2229.0</ele>
        <time>2013-07-03T12:01:11Z</time>
      </trkpt>
      <trkpt lat="40.244183" lon="-4.900600">
        <ele>2228.0</ele>
        <time>2013-07-03T12:01:12Z</time>
      </trkpt>
      <trkpt lat="40.244067" lon="-4.900550">
        <ele>2227.0</ele>
        <time>2013-07-03T12:01:13Z</time>
      </trkpt>
      <trkpt lat="40.243933" lon="-4.900517">
        <ele>2227.0</ele>
        <time>2013-07-03T12:01:14Z</time>
      </trkpt>
      <trkpt lat="40.243817" lon="-4.900483">
        <ele>2226.0</ele>
        <time>2013-07-03T12:01:15Z</time>
      </trkpt>
      <trkpt lat="40.243683" lon="-4.900450">
        <ele>2226.0</ele>
        <time>2013-07-03T12:01:16Z</time>
      </trkpt>
      <trkpt lat="40.243567" lon="-4.900417">
        <ele>2226.0</ele>
        <time>2013-07-03T12:01:17Z</time>
      </trkpt>
      <trkpt lat="40.243450" lon="-4.900367">
        <ele>2226.0</ele>
        <time>2013-07-03T12:01:18Z</time>
      </trkpt>
      <trkpt lat="40.243333" lon="-4.900333">
        <ele>2226.0</ele>
        <time>2013-07-03T12:01:19Z</time>
      </trkpt>
      <trkpt lat="40.243200" lon="-4.900300">
        <ele>2225.0</ele>
        <time>2013-07-03T12:01:20Z</time>
      </trkpt>
      <trkpt lat="40.243067" lon="-4.900267">
        <ele>2225.0</ele>
        <time>2013-07-03T12:01:21Z</time>
      </trkpt>
      <trkpt lat="40.242950" lon="-4.900217">
        <ele>2224.0</ele>
        <time>2013-07-03T12:01:22Z</time>
      </trkpt>
      <trkpt lat="40.242817" lon="-4.900167">
        <ele>2224.0</ele>
        <time>2013-07-03T12:01:23Z</time>
      </trkpt>
      <trkpt lat="40.242683" lon="-4.900133">
        <ele>2223.0</ele>
        <time>2013-07-03T12:01:24Z</time>
      </trkpt>
      <trkpt lat="40.242567" lon="-4.900083">
        <ele>2223.0</ele>
        <time>2013-07-03T12:01:25Z</time>
      </trkpt>
      <trkpt lat="40.242433" lon="-4.900050">
        <ele>2222.0</ele>
        <time>2013-07-03T12:01:26Z</time>
      </trkpt>
      <trkpt lat="40.242300" lon="-4.900017">
        <ele>2221.0</ele>
        <time>2013-07-03T12:01:27Z</time>
      </trkpt>
      <trkpt lat="40.242167" lon="-4.899967">
        <ele>2219.0</ele>
        <time>2013-07-03T12:01:28Z</time>
      </trkpt>
      <trkpt lat="40.242033" lon="-4.899917">
        <ele>2219.0</ele>
        <time>2013-07-03T12:01:29Z</time>
      </trkpt>
      <trkpt lat="40.241917" lon="-4.899867">
        <ele>2218.0</ele>
        <time>2013-07-03T12:01:30Z</time>
      </trkpt>
      <trkpt lat="40.241800" lon="-4.899817">
        <ele>2217.0</ele>
        <time>2013-07-03T12:01:31Z</time>
      </trkpt>
      <trkpt lat="40.241667" lon="-4.899783">
        <ele>2215.0</ele>
        <time>2013-07-03T12:01:32Z</time>
      </trkpt>
      <trkpt lat="40.241550" lon="-4.899733">
        <ele>2214.0</ele>
        <time>2013-07-03T12:01:33Z</time>
      </trkpt>
      <trkpt lat="40.241433" lon="-4.899700">
        <ele>2213.0</ele>
        <time>2013-07-03T12:01:34Z</time>
      </trkpt>
      <trkpt lat="40.241300" lon="-4.899650">
        <ele>2212.0</ele>
        <time>2013-07-03T12:01:35Z</time>
      </trkpt>
      <trkpt lat="40.241183" lon="-4.899617">
        <ele>2211.0</ele>
        <time>2013-07-03T12:01:36Z</time>
      </trkpt>
      <trkpt lat="40.241050" lon="-4.899567">
        <ele>2210.0</ele>
        <time>2013-07-03T12:01:37Z</time>
      </trkpt>
      <trkpt lat="40.240917" lon="-4.899517">
        <ele>2209.0</ele>
        <time>2013-07-03T12:01:38Z</time>
      </trkpt>
      <trkpt lat="40.240800" lon="-4.899467">
        <ele>2209.0</ele>
        <time>2013-07-03T12:01:39Z</time>
      </trkpt>
      <trkpt lat="40.240683" lon="-4.899400">
        <ele>2210.0</ele>
        <time>2013-07-03T12:01:40Z</time>
      </trkpt>
      <trkpt lat="40.240583" lon="-4.899350">
        <ele>2210.0</ele>
        <time>2013-07-03T12:01:41Z</time>
      </trkpt>
      <trkpt lat="40.240483" lon="-4.899300">
        <ele>2210.0</ele>
        <time>2013-07-03T12:01:42Z</time>
      </trkpt>
      <trkpt lat="40.240383" lon="-4.899267">
        <ele>2209.0</ele>
        <time>2013-07-03T12:01:43Z</time>
      </trkpt>
      <trkpt lat="40.240267" lon="-4.899233">
        <ele>2208.0</ele>
        <time>2013-07-03T12:01:44Z</time>
      </trkpt>
      <trkpt lat="40.240167" lon="-4.899200">
        <ele>2207.0</ele>
        <time>2013-07-03T12:01:45Z</time>
      </trkpt>
      <trkpt lat="40.240050" lon="-4.899183">
        <ele>2206.0</ele>
        <time>2013-07-03T12:01:46Z</time>
      </trkpt>
      <trkpt lat="40.239950" lon="-4.899150">
        <ele>2206.0</ele>
        <time>2013-07-03T12:01:47Z</time>
      </trkpt>
      <trkpt lat="40.239833" lon="-4.899117">
        <ele>2206.0</ele>
        <time>2013-07-03T12:01:48Z</time>
      </trkpt>
      <trkpt lat="40.239733" lon="-4.899083">
        <ele>2205.0</ele>
        <time>2013-07-03T12:01:49Z</time>
      </trkpt>
      <trkpt lat="40.239633" lon="-4.899067">
        <ele>2204.0</ele>
        <time>2013-07-03T12:01:50Z</time>
      </trkpt>
      <trkpt lat="40.239517" lon="-4.899050">
        <ele>2202.0</ele>
        <time>2013-07-03T12:01:51Z</time>
      </trkpt>
      <trkpt lat="40.239400" lon="-4.899000">
        <ele>2201.0</ele>
        <time>2013-07-03T12:01:52Z</time>
      </trkpt>
      <trkpt lat="40.239283" lon="-4.898967">
        <ele>2200.0</ele>
        <time>2013-07-03T12:01:53Z</time>
      </trkpt>
      <trkpt lat="40.239200" lon="-4.898950">
        <ele>2201.0</ele>
        <time>2013-07-03T12:01:54Z</time>
      </trkpt>
      <trkpt lat="40.239100" lon="-4.898933">
        <ele>2201.0</ele>
        <time>2013-07-03T12:01:55Z</time>
      </trkpt>
      <trkpt lat="40.239017" lon="-4.898933">
        <ele>2199.0</ele>
        <time>2013-07-03T12:01:56Z</time>
      </trkpt>
      <trkpt lat="40.238917" lon="-4.898933">
        <ele>2197.0</ele>
        <time>2013-07-03T12:01:57Z</time>
      </trkpt>
      <trkpt lat="40.238817" lon="-4.898917">
        <ele>2194.0</ele>
        <time>2013-07-03T12:01:58Z</time>
      </trkpt>
      <trkpt lat="40.238700" lon="-4.898900">
        <ele>2192.0</ele>
        <time>2013-07-03T12:01:59Z</time>
      </trkpt>
      <trkpt lat="40.238583" lon="-4.898900">
        <ele>2191.0</ele>
        <time>2013-07-03T12:02:00Z</time>
      </trkpt>
      <trkpt lat="40.238483" lon="-4.898867">
        <ele>2190.0</ele>
        <time>2013-07-03T12:02:01Z</time>
      </trkpt>
      <trkpt lat="40.238367" lon="-4.898817">
        <ele>2188.0</ele>
        <time>2013-07-03T12:02:02Z</time>
      </trkpt>
      <trkpt lat="40.238267" lon="-4.898767">
        <ele>2187.0</ele>
        <time>2013-07-03T12:02:03Z</time>
      </trkpt>
      <trkpt lat="40.238167" lon="-4.898733">
        <ele>2186.0</ele>
        <time>2013-07-03T12:02:04Z</time>
      </trkpt>
      <trkpt lat="40.238067" lon="-4.898700">
        <ele>2185.0</ele>
        <time>2013-07-03T12:02:05Z</time>
      </trkpt>
      <trkpt lat="40.237967" lon="-4.898683">
        <ele>2183.0</ele>
        <time>2013-07-03T12:02:06Z</time>
      </trkpt>
      <trkpt lat="40.237850" lon="-4.898633">
        <ele>2181.0</ele>
        <time>2013-07-03T12:02:07Z</time>
      </trkpt>
      <trkpt lat="40.237733" lon="-4.898600">
        <ele>2179.0</ele>
        <time>2013-07-03T12:02:08Z</time>
      </trkpt>
      <trkpt lat="40.237617" lon="-4.898583">
        <ele>2179.0</ele>
        <time>2013-07-03T12:02:09Z</time>
      </trkpt>
      <trkpt lat="40.237500" lon="-4.898583">
        <ele>2179.0</ele>
        <time>2013-07-03T12:02:10Z</time>
      </trkpt>
      <trkpt lat="40.237400" lon="-4.898583">
        <ele>2180.0</ele>
        <time>2013-07-03T12:02:11Z</time>
      </trkpt>
      <trkpt lat="40.237300" lon="-4.898567">
        <ele>2181.0</ele>
        <time>2013-07-03T12:02:12Z</time>
      </trkpt>
      <trkpt lat="40.237217" lon="-4.898567">
        <ele>2182.0</ele>
        <time>2013-07-03T12:02:13Z</time>
      </trkpt>
      <trkpt lat="40.237133" lon="-4.898550">
        <ele>2183.0</ele>
        <time>2013-07-03T12:02:14Z</time>
      </trkpt>
      <trkpt lat="40.237067" lon="-4.898550">
        <ele>2184.0</ele>
        <time>2013-07-03T12:02:15Z</time>
      </trkpt>
      <trkpt lat="40.237017" lon="-4.898533">
        <ele>2184.0</ele>
        <time>2013-07-03T12:02:16Z</time>
      </trkpt>
      <trkpt lat="40.236950" lon="-4.898517">
        <ele>2183.0</ele>
        <time>2013-07-03T12:02:17Z</time>
      </trkpt>
      <trkpt lat="40.236883" lon="-4.898500">
        <ele>2181.0</ele>
        <time>2013-07-03T12:02:18Z</time>
      </trkpt>
      <trkpt lat="40.236800" lon="-4.898483">
        <ele>2180.0</ele>
        <time>2013-07-03T12:02:19Z</time>
      </trkpt>
      <trkpt lat="40.236717" lon="-4.898450">
        <ele>2178.0</ele>
        <time>2013-07-03T12:02:20Z</time>
      </trkpt>
      <trkpt lat="40.236617" lon="-4.898417">
        <ele>2177.0</ele>
        <time>2013-07-03T12:02:21Z</time>
      </trkpt>
      <trkpt lat="40.236517" lon="-4.898400">
        <ele>2175.0</ele>
        <time>2013-07-03T12:02:22Z</time>
      </trkpt>
      <trkpt lat="40.236433" lon="-4.898383">
        <ele>2173.0</ele>
        <time>2013-07-03T12:02:23Z</time>
      </trkpt>
      <trkpt lat="40.236333" lon="-4.898367">
        <ele>2171.0</ele>
        <time>2013-07-03T12:02:24Z</time>
      </trkpt>
      <trkpt lat="40.236233" lon="-4.898350">
        <ele>2170.0</ele>
        <time>2013-07-03T12:02:25Z</time>
      </trkpt>
      <trkpt lat="40.236133" lon="-4.898300">
        <ele>2168.0</ele>
        <time>2013-07-03T12:02:26Z</time>
      </trkpt>
      <trkpt lat="40.236033" lon="-4.898267">
        <ele>2166.0</ele>
        <time>2013-07-03T12:02:27Z</time>
      </trkpt>
      <trkpt lat="40.235950" lon="-4.898200">
        <ele>2164.0</ele>
        <time>2013-07-03T12:02:28Z</time>
      </trkpt>
      <trkpt lat="40.235850" lon="-4.898150">
        <ele>2162.0</ele>
        <time>2013-07-03T12:02:29Z</time>
      </trkpt>
      <trkpt lat="40.235750" lon="-4.898083">
        <ele>2161.0</ele>
        <time>2013-07-03T12:02:30Z</time>
      </trkpt>
      <trkpt lat="40.235650" lon="-4.898050">
        <ele>2159.0</ele>
        <time>2013-07-03T12:02:31Z</time>
      </trkpt>
      <trkpt lat="40.235567" lon="-4.898000">
        <ele>2157.0</ele>
        <time>2013-07-03T12:02:32Z</time>
      </trkpt>
      <trkpt lat="40.235467" lon="-4.897967">
        <ele>2155.0</ele>
        <time>2013-07-03T12:02:33Z</time>
      </trkpt>
      <trkpt lat="40.235367" lon="-4.897933">
        <ele>2152.0</ele>
        <time>2013-07-03T12:02:34Z</time>
      </trkpt>
      <trkpt lat="40.235267" lon="-4.897883">
        <ele>2150.0</ele>
        <time>2013-07-03T12:02:35Z</time>
      </trkpt>
      <trkpt lat="40.235150" lon="-4.897850">
        <ele>2147.0</ele>
        <time>2013-07-03T12:02:36Z</time>
      </trkpt>
      <trkpt lat="40.235050" lon="-4.897817">
        <ele>2145.0</ele>
        <time>2013-07-03T12:02:37Z</time>
      </trkpt>
      <trkpt lat="40.234950" lon="-4.897800">
        <ele>2143.0</ele>
        <time>2013-07-03T12:02:38Z</time>
      </trkpt>
      <trkpt lat="40.234833" lon="-4.897767">
        <ele>2140.0</ele>
        <time>2013-07-03T12:02:39Z</time>
      </trkpt>
      <trkpt lat="40.234733" lon="-4.897733">
        <ele>2137.0</ele>
        <time>2013-07-03T12:02:40Z</time>
      </trkpt>
      <trkpt lat="40.234600" lon="-4.897700">
        <ele>2132.0</ele>
        <time>2013-07-03T12:02:41Z</time>
      </trkpt>
      <trkpt lat="40.234467" lon="-4.897667">
        <ele>2128.0</ele>
        <time>2013-07-03T12:02:42Z</time>
      </trkpt>
      <trkpt lat="40.234333" lon="-4.897650">
        <ele>2125.0</ele>
        <time>2013-07-03T12:02:43Z</time>
      </trkpt>
      <trkpt lat="40.234200" lon="-4.897633">
        <ele>2122.0</ele>
        <time>2013-07-03T12:02:44Z</time>
      </trkpt>
      <trkpt lat="40.234083" lon="-4.897633">
        <ele>2120.0</ele>
        <time>2013-07-03T12:02:45Z</time>
      </trkpt>
      <trkpt lat="40.233967" lon="-4.897650">
        <ele>2117.0</ele>
        <time>2013-07-03T12:02:46Z</time>
      </trkpt>
      <trkpt lat="40.233867" lon="-4.897667">
        <ele>2114.0</ele>
        <time>2013-07-03T12:02:47Z</time>
      </trkpt>
      <trkpt lat="40.233733" lon="-4.897683">
        <ele>2109.0</ele>
        <time>2013-07-03T12:02:48Z</time>
      </trkpt>
      <trkpt lat="40.233600" lon="-4.897717">
        <ele>2105.0</ele>
        <time>2013-07-03T12:02:49Z</time>
      </trkpt>
      <trkpt lat="40.233450" lon="-4.897733">
        <ele>2101.0</ele>
        <time>2013-07-03T12:02:50Z</time>
      </trkpt>
      <trkpt lat="40.233317" lon="-4.897733">
        <ele>2099.0</ele>
        <time>2013-07-03T12:02:51Z</time>
      </trkpt>
      <trkpt lat="40.233183" lon="-4.897750">
        <ele>2097.0</ele>
        <time>2013-07-03T12:02:52Z</time>
      </trkpt>
      <trkpt lat="40.233050" lon="-4.897767">
        <ele>2095.0</ele>
        <time>2013-07-03T12:02:53Z</time>
      </trkpt>
      <trkpt lat="40.232933" lon="-4.897783">
        <ele>2093.0</ele>
        <time>2013-07-03T12:02:54Z</time>
      </trkpt>
      <trkpt lat="40.232800" lon="-4.897767">
        <ele>2091.0</ele>
        <time>2013-07-03T12:02:55Z</time>
      </trkpt>
      <trkpt lat="40.232667" lon="-4.897767">
        <ele>2089.0</ele>
        <time>2013-07-03T12:02:56Z</time>
      </trkpt>
      <trkpt lat="40.232533" lon="-4.897750">
        <ele>2087.0</ele>
        <time>2013-07-03T12:02:57Z</time>
      </trkpt>
      <trkpt lat="40.232400" lon="-4.897767">
        <ele>2087.0</ele>
        <time>2013-07-03T12:02:58Z</time>
      </trkpt>
      <trkpt lat="40.232267" lon="-4.897783">
        <ele>2086.0</ele>
        <time>2013-07-03T12:02:59Z</time>
      </trkpt>
      <trkpt lat="40.232150" lon="-4.897783">
        <ele>2084.0</ele>
        <time>2013-07-03T12:03:00Z</time>
      </trkpt>
      <trkpt lat="40.232033" lon="-4.897767">
        <ele>2082.0</ele>
        <time>2013-07-03T12:03:01Z</time>
      </trkpt>
      <trkpt lat="40.231900" lon="-4.897767">
        <ele>2080.0</ele>
        <time>2013-07-03T12:03:02Z</time>
      </trkpt>
      <trkpt lat="40.231767" lon="-4.897767">
        <ele>2077.0</ele>
        <time>2013-07-03T12:03:03Z</time>
      </trkpt>
      <trkpt lat="40.231633" lon="-4.897767">
        <ele>2075.0</ele>
        <time>2013-07-03T12:03:04Z</time>
      </trkpt>
      <trkpt lat="40.231500" lon="-4.897767">
        <ele>2073.0</ele>
        <time>2013-07-03T12:03:05Z</time>
      </trkpt>
      <trkpt lat="40.231383" lon="-4.897750">
        <ele>2071.0</ele>
        <time>2013-07-03T12:03:06Z</time>
      </trkpt>
      <trkpt lat="40.231267" lon="-4.897733">
        <ele>2069.0</ele>
        <time>2013-07-03T12:03:07Z</time>
      </trkpt>
      <trkpt lat="40.231133" lon="-4.897733">
        <ele>2066.0</ele>
        <time>2013-07-03T12:03:08Z</time>
      </trkpt>
      <trkpt lat="40.231000" lon="-4.897717">
        <ele>2063.0</ele>
        <time>2013-07-03T12:03:09Z</time>
      </trkpt>
      <trkpt lat="40.230883" lon="-4.897700">
        <ele>2061.0</ele>
        <time>2013-07-03T12:03:10Z</time>
      </trkpt>
      <trkpt lat="40.230750" lon="-4.897683">
        <ele>2058.0</ele>
        <time>2013-07-03T12:03:11Z</time>
      </trkpt>
      <trkpt lat="40.230617" lon="-4.897650">
        <ele>2056.0</ele>
        <time>2013-07-03T12:03:12Z</time>
      </trkpt>
      <trkpt lat="40.230483" lon="-4.897617">
        <ele>2054.0</ele>
        <time>2013-07-03T12:03:13Z</time>
      </trkpt>
      <trkpt lat="40.230367" lon="-4.897600">
        <ele>2052.0</ele>
        <time>2013-07-03T12:03:14Z</time>
      </trkpt>
      <trkpt lat="40.230233" lon="-4.897567">
        <ele>2050.0</ele>
        <time>2013-07-03T12:03:15Z</time>
      </trkpt>
      <trkpt lat="40.230117" lon="-4.897533">
        <ele>2047.0</ele>
        <time>2013-07-03T12:03:16Z</time>
      </trkpt>
      <trkpt lat="40.229983" lon="-4.897500">
        <ele>2045.0</ele>
        <time>2013-07-03T12:03:17Z</time>
      </trkpt>
      <trkpt lat="40.229850" lon="-4.897467">
        <ele>2042.0</ele>
        <time>2013-07-03T12:03:18Z</time>
      </trkpt>
      <trkpt lat="40.229733" lon="-4.897433">
        <ele>2040.0</ele>
        <time>2013-07-03T12:03:19Z</time>
      </trkpt>
      <trkpt lat="40.229600" lon="-4.897400">
        <ele>2038.0</ele>
        <time>2013-07-03T12:03:20Z</time>
      </trkpt>
      <trkpt lat="40.229483" lon="-4.897367">
        <ele>2036.0</ele>
        <time>2013-07-03T12:03:21Z</time>
      </trkpt>
      <trkpt lat="40.229367" lon="-4.897333">
        <ele>2034.0</ele>
        <time>2013-07-03T12:03:22Z</time>
      </trkpt>
      <trkpt lat="40.229233" lon="-4.897283">
        <ele>2032.0</ele>
        <time>2013-07-03T12:03:23Z</time>
      </trkpt>
      <trkpt lat="40.229117" lon="-4.897250">
        <ele>2030.0</ele>
        <time>2013-07-03T12:03:24Z</time>
      </trkpt>
      <trkpt lat="40.229000" lon="-4.897217">
        <ele>2028.0</ele>
        <time>2013-07-03T12:03:25Z</time>
      </trkpt>
      <trkpt lat="40.228883" lon="-4.897167">
        <ele>2026.0</ele>
        <time>2013-07-03T12:03:26Z</time>
      </trkpt>
      <trkpt lat="40.228767" lon="-4.897117">
        <ele>2024.0</ele>
        <time>2013-07-03T12:03:27Z</time>
      </trkpt>
      <trkpt lat="40.228650" lon="-4.897083">
        <ele>2022.0</ele>
        <time>2013-07-03T12:03:28Z</time>
      </trkpt>
      <trkpt lat="40.228533" lon="-4.897033">
        <ele>2019.0</ele>
        <time>2013-07-03T12:03:29Z</time>
      </trkpt>
      <trkpt lat="40.228417" lon="-4.896983">
        <ele>2017.0</ele>
        <time>2013-07-03T12:03:30Z</time>
      </trkpt>
      <trkpt lat="40.228300" lon="-4.896917">
        <ele>2015.0</ele>
        <time>2013-07-03T12:03:31Z</time>
      </trkpt>
      <trkpt lat="40.228167" lon="-4.896867">
        <ele>2013.0</ele>
        <time>2013-07-03T12:03:32Z</time>
      </trkpt>
      <trkpt lat="40.228050" lon="-4.896833">
        <ele>2011.0</ele>
        <time>2013-07-03T12:03:33Z</time>
      </trkpt>
      <trkpt lat="40.227933" lon="-4.896800">
        <ele>2009.0</ele>
        <time>2013-07-03T12:03:34Z</time>
      </trkpt>
      <trkpt lat="40.227800" lon="-4.896750">
        <ele>2008.0</ele>
        <time>2013-07-03T12:03:35Z</time>
      </trkpt>
      <trkpt lat="40.227683" lon="-4.896717">
        <ele>2006.0</ele>
        <time>2013-07-03T12:03:36Z</time>
      </trkpt>
      <trkpt lat="40.227567" lon="-4.896667">
        <ele>2005.0</ele>
        <time>2013-07-03T12:03:37Z</time>
      </trkpt>
      <trkpt lat="40.227450" lon="-4.896650">
        <ele>2004.0</ele>
        <time>2013-07-03T12:03:38Z</time>
      </trkpt>
      <trkpt lat="40.227333" lon="-4.896617">
        <ele>2002.0</ele>
        <time>2013-07-03T12:03:39Z</time>
      </trkpt>
      <trkpt lat="40.227217" lon="-4.896617">
        <ele>2001.0</ele>
        <time>2013-07-03T12:03:40Z</time>
      </trkpt>
      <trkpt lat="40.227100" lon="-4.896600">
        <ele>1999.0</ele>
        <time>2013-07-03T12:03:41Z</time>
      </trkpt>
      <trkpt lat="40.226983" lon="-4.896583">
        <ele>1998.0</ele>
        <time>2013-07-03T12:03:42Z</time>
      </trkpt>
      <trkpt lat="40.226867" lon="-4.896583">
        <ele>1997.0</ele>
        <time>2013-07-03T12:03:43Z</time>
      </trkpt>
      <trkpt lat="40.226750" lon="-4.896583">
        <ele>1996.0</ele>
        <time>2013-07-03T12:03:44Z</time>
      </trkpt>
      <trkpt lat="40.226633" lon="-4.896600">
        <ele>1995.0</ele>
        <time>2013-07-03T12:03:45Z</time>
      </trkpt>
      <trkpt lat="40.226500" lon="-4.896617">
        <ele>1993.0</ele>
        <time>2013-07-03T12:03:46Z</time>
      </trkpt>
      <trkpt lat="40.226383" lon="-4.896600">
        <ele>1992.0</ele>
        <time>2013-07-03T12:03:47Z</time>
      </trkpt>
      <trkpt lat="40.226267" lon="-4.896567">
        <ele>1991.0</ele>
        <time>2013-07-03T12:03:48Z</time>
      </trkpt>
      <trkpt lat="40.226150" lon="-4.896533">
        <ele>1990.0</ele>
        <time>2013-07-03T12:03:49Z</time>
      </trkpt>
      <trkpt lat="40.226033" lon="-4.896483">
        <ele>1989.0</ele>
        <time>2013-07-03T12:03:50Z</time>
      </trkpt>
      <trkpt lat="40.225917" lon="-4.896433">
        <ele>1989.0</ele>
        <time>2013-07-03T12:03:51Z</time>
      </trkpt>
      <trkpt lat="40.225800" lon="-4.896383">
        <ele>1989.0</ele>
        <time>2013-07-03T12:03:52Z</time>
      </trkpt>
      <trkpt lat="40.225700" lon="-4.896333">
        <ele>1988.0</ele>
        <time>2013-07-03T12:03:53Z</time>
      </trkpt>
      <trkpt lat="40.225583" lon="-4.896283">
        <ele>1987.0</ele>
        <time>2013-07-03T12:03:54Z</time>
      </trkpt>
      <trkpt lat="40.225467" lon="-4.896233">
        <ele>1985.0</ele>
        <time>2013-07-03T12:03:55Z</time>
      </trkpt>
      <trkpt lat="40.225350" lon="-4.896167">
        <ele>1984.0</ele>
        <time>2013-07-03T12:03:56Z</time>
      </trkpt>
      <trkpt lat="40.225217" lon="-4.896117">
        <ele>1983.0</ele>
        <time>2013-07-03T12:03:57Z</time>
      </trkpt>
      <trkpt lat="40.225100" lon="-4.896083">
        <ele>1983.0</ele>
        <time>2013-07-03T12:03:58Z</time>
      </trkpt>
      <trkpt lat="40.225000" lon="-4.896033">
        <ele>1983.0</ele>
        <time>2013-07-03T12:03:59Z</time>
      </trkpt>
      <trkpt lat="40.224883" lon="-4.896000">
        <ele>1983.0</ele>
        <time>2013-07-03T12:04:00Z</time>
      </trkpt>
      <trkpt lat="40.224767" lon="-4.895967">
        <ele>1981.0</ele>
        <time>2013-07-03T12:04:01Z</time>
      </trkpt>
      <trkpt lat="40.224650" lon="-4.895917">
        <ele>1980.0</ele>
        <time>2013-07-03T12:04:02Z</time>
      </trkpt>
      <trkpt lat="40.224533" lon="-4.895867">
        <ele>1980.0</ele>
        <time>2013-07-03T12:04:03Z</time>
      </trkpt>
      <trkpt lat="40.224433" lon="-4.895817">
        <ele>1980.0</ele>
        <time>2013-07-03T12:04:04Z</time>
      </trkpt>
      <trkpt lat="40.224317" lon="-4.895750">
        <ele>1980.0</ele>
        <time>2013-07-03T12:04:05Z</time>
      </trkpt>
      <trkpt lat="40.224217" lon="-4.895700">
        <ele>1981.0</ele>
        <time>2013-07-03T12:04:06Z</time>
      </trkpt>
      <trkpt lat="40.224117" lon="-4.895650">
        <ele>1980.0</ele>
        <time>2013-07-03T12:04:07Z</time>
      </trkpt>
      <trkpt lat="40.224000" lon="-4.895617">
        <ele>1979.0</ele>
        <time>2013-07-03T12:04:08Z</time>
      </trkpt>
      <trkpt lat="40.223883" lon="-4.895567">
        <ele>1979.0</ele>
        <time>2013-07-03T12:04:09Z</time>
      </trkpt>
      <trkpt lat="40.223767" lon="-4.895500">
        <ele>1979.0</ele>
        <time>2013-07-03T12:04:10Z</time>
      </trkpt>
      <trkpt lat="40.223650" lon="-4.895433">
        <ele>1979.0</ele>
        <time>2013-07-03T12:04:11Z</time>
      </trkpt>
      <trkpt lat="40.223550" lon="-4.895383">
        <ele>1979.0</ele>
        <time>2013-07-03T12:04:12Z</time>
      </trkpt>
      <trkpt lat="40.223450" lon="-4.895333">
        <ele>1980.0</ele>
        <time>2013-07-03T12:04:13Z</time>
      </trkpt>
      <trkpt lat="40.223350" lon="-4.895267">
        <ele>1980.0</ele>
        <time>2013-07-03T12:04:14Z</time>
      </trkpt>
      <trkpt lat="40.223250" lon="-4.895217">
        <ele>1980.0</ele>
        <time>2013-07-03T12:04:15Z</time>
      </trkpt>
      <trkpt lat="40.223167" lon="-4.895167">
        <ele>1980.0</ele>
        <time>2013-07-03T12:04:16Z</time>
      </trkpt>
      <trkpt lat="40.223083" lon="-4.895117">
        <ele>1980.0</ele>
        <time>2013-07-03T12:04:17Z</time>
      </trkpt>
      <trkpt lat="40.222983" lon="-4.895067">
        <ele>1980.0</ele>
        <time>2013-07-03T12:04:18Z</time>
      </trkpt>
      <trkpt lat="40.222900" lon="-4.895017">
        <ele>1980.0</ele>
        <time>2013-07-03T12:04:19Z</time>
      </trkpt>
      <trkpt lat="40.222817" lon="-4.894967">
        <ele>1979.0</ele>
        <time>2013-07-03T12:04:20Z</time>
      </trkpt>
      <trkpt lat="40.222717" lon="-4.894917">
        <ele>1978.0</ele>
        <time>2013-07-03T12:04:21Z</time>
      </trkpt>
      <trkpt lat="40.222600" lon="-4.894850">
        <ele>1977.0</ele>
        <time>2013-07-03T12:04:22Z</time>
      </trkpt>
      <trkpt lat="40.222500" lon="-4.894783">
        <ele>1978.0</ele>
        <time>2013-07-03T12:04:23Z</time>
      </trkpt>
      <trkpt lat="40.222417" lon="-4.894717">
        <ele>1978.0</ele>
        <time>2013-07-03T12:04:24Z</time>
      </trkpt>
      <trkpt lat="40.222333" lon="-4.894650">
        <ele>1979.0</ele>
        <time>2013-07-03T12:04:25Z</time>
      </trkpt>
      <trkpt lat="40.222233" lon="-4.894600">
        <ele>1979.0</ele>
        <time>2013-07-03T12:04:26Z</time>
      </trkpt>
      <trkpt lat="40.222150" lon="-4.894533">
        <ele>1978.0</ele>
        <time>2013-07-03T12:04:27Z</time>
      </trkpt>
      <trkpt lat="40.222050" lon="-4.894467">
        <ele>1978.0</ele>
        <time>2013-07-03T12:04:28Z</time>
      </trkpt>
      <trkpt lat="40.221950" lon="-4.894383">
        <ele>1978.0</ele>
        <time>2013-07-03T12:04:29Z</time>
      </trkpt>
      <trkpt lat="40.221850" lon="-4.894317">
        <ele>1978.0</ele>
        <time>2013-07-03T12:04:30Z</time>
      </trkpt>
      <trkpt lat="40.221750" lon="-4.894267">
        <ele>1978.0</ele>
        <time>2013-07-03T12:04:31Z</time>
      </trkpt>
      <trkpt lat="40.221667" lon="-4.894200">
        <ele>1979.0</ele>
        <time>2013-07-03T12:04:32Z</time>
      </trkpt>
      <trkpt lat="40.221583" lon="-4.894133">
        <ele>1980.0</ele>
        <time>2013-07-03T12:04:33Z</time>
      </trkpt>
      <trkpt lat="40.221500" lon="-4.894083">
        <ele>1982.0</ele>
        <time>2013-07-03T12:04:34Z</time>
      </trkpt>
      <trkpt lat="40.221417" lon="-4.894033">
        <ele>1984.0</ele>
        <time>2013-07-03T12:04:35Z</time>
      </trkpt>
      <trkpt lat="40.221333" lon="-4.894000">
        <ele>1985.0</ele>
        <time>2013-07-03T12:04:36Z</time>
      </trkpt>
      <trkpt lat="40.221267" lon="-4.893983">
        <ele>1986.0</ele>
        <time>2013-07-03T12:04:37Z</time>
      </trkpt>
      <trkpt lat="40.221200" lon="-4.893950">
        <ele>1987.0</ele>
        <time>2013-07-03T12:04:38Z</time>
      </trkpt>
      <trkpt lat="40.221133" lon="-4.893917">
        <ele>1987.0</ele>
        <time>2013-07-03T12:04:39Z</time>
      </trkpt>
      <trkpt lat="40.221067" lon="-4.893833">
        <ele>1987.0</ele>
        <time>2013-07-03T12:04:40Z</time>
      </trkpt>
      <trkpt lat="40.221033" lon="-4.893733">
        <ele>1987.0</ele>
        <time>2013-07-03T12:04:41Z</time>
      </trkpt>
      <trkpt lat="40.221017" lon="-4.893617">
        <ele>1989.0</ele>
        <time>2013-07-03T12:04:42Z</time>
      </trkpt>
      <trkpt lat="40.221017" lon="-4.893533">
        <ele>1990.0</ele>
        <time>2013-07-03T12:04:43Z</time>
      </trkpt>
      <trkpt lat="40.221033" lon="-4.893467">
        <ele>1990.0</ele>
        <time>2013-07-03T12:04:44Z</time>
      </trkpt>
      <trkpt lat="40.221067" lon="-4.893400">
        <ele>1989.0</ele>
        <time>2013-07-03T12:04:45Z</time>
      </trkpt>
      <trkpt lat="40.221133" lon="-4.893333">
        <ele>1989.0</ele>
        <time>2013-07-03T12:04:46Z</time>
      </trkpt>
      <trkpt lat="40.221200" lon="-4.893283">
        <ele>1990.0</ele>
        <time>2013-07-03T12:04:47Z</time>
      </trkpt>
      <trkpt lat="40.221250" lon="-4.893267">
        <ele>1992.0</ele>
        <time>2013-07-03T12:04:48Z</time>
      </trkpt>
      <trkpt lat="40.221300" lon="-4.893283">
        <ele>1994.0</ele>
        <time>2013-07-03T12:04:49Z</time>
      </trkpt>
      <trkpt lat="40.221333" lon="-4.893317">
        <ele>1995.0</ele>
        <time>2013-07-03T12:04:50Z</time>
      </trkpt>
      <trkpt lat="40.221367" lon="-4.893383">
        <ele>1996.0</ele>
        <time>2013-07-03T12:04:51Z</time>
      </trkpt>
      <trkpt lat="40.221400" lon="-4.893450">
        <ele>1996.0</ele>
        <time>2013-07-03T12:04:52Z</time>
      </trkpt>
      <trkpt lat="40.221417" lon="-4.893533">
        <ele>1997.0</ele>
        <time>2013-07-03T12:04:53Z</time>
      </trkpt>
      <trkpt lat="40.221417" lon="-4.893617">
        <ele>1998.0</ele>
        <time>2013-07-03T12:04:54Z</time>
      </trkpt>
      <trkpt lat="40.221400" lon="-4.893700">
        <ele>1998.0</ele>
        <time>2013-07-03T12:04:55Z</time>
      </trkpt>
      <trkpt lat="40.221350" lon="-4.893800">
        <ele>1998.0</ele>
        <time>2013-07-03T12:04:56Z</time>
      </trkpt>
      <trkpt lat="40.221283" lon="-4.893867">
        <ele>1998.0</ele>
        <time>2013-07-03T12:04:57Z</time>
      </trkpt>
      <trkpt lat="40.221200" lon="-4.893933">
        <ele>1998.0</ele>
        <time>2013-07-03T12:04:58Z</time>
      </trkpt>
      <trkpt lat="40.221133" lon="-4.894000">
        <ele>2000.0</ele>
        <time>2013-07-03T12:04:59Z</time>
      </trkpt>
      <trkpt lat="40.221067" lon="-4.894050">
        <ele>2001.0</ele>
        <time>2013-07-03T12:05:00Z</time>
      </trkpt>
      <trkpt lat="40.221000" lon="-4.894100">
        <ele>2003.0</ele>
        <time>2013-07-03T12:05:01Z</time>
      </trkpt>
      <trkpt lat="40.220933" lon="-4.894133">
        <ele>2004.0</ele>
        <time>2013-07-03T12:05:02Z</time>
      </trkpt>
      <trkpt lat="40.220867" lon="-4.894167">
        <ele>2004.0</ele>
        <time>2013-07-03T12:05:03Z</time>
      </trkpt>
      <trkpt lat="40.220783" lon="-4.894167">
        <ele>2004.0</ele>
        <time>2013-07-03T12:05:04Z</time>
      </trkpt>
      <trkpt lat="40.220683" lon="-4.894167">
        <ele>2004.0</ele>
        <time>2013-07-03T12:05:05Z</time>
      </trkpt>
      <trkpt lat="40.220583" lon="-4.894117">
        <ele>2004.0</ele>
        <time>2013-07-03T12:05:06Z</time>
      </trkpt>
      <trkpt lat="40.220483" lon="-4.894067">
        <ele>2006.0</ele>
        <time>2013-07-03T12:05:07Z</time>
      </trkpt>
      <trkpt lat="40.220417" lon="-4.894017">
        <ele>2008.0</ele>
        <time>2013-07-03T12:05:08Z</time>
      </trkpt>
      <trkpt lat="40.220350" lon="-4.893950">
        <ele>2009.0</ele>
        <time>2013-07-03T12:05:09Z</time>
      </trkpt>
      <trkpt lat="40.220300" lon="-4.893900">
        <ele>2010.0</ele>
        <time>2013-07-03T12:05:10Z</time>
      </trkpt>
      <trkpt lat="40.220233" lon="-4.893833">
        <ele>2010.0</ele>
        <time>2013-07-03T12:05:11Z</time>
      </trkpt>
      <trkpt lat="40.220183" lon="-4.893733">
        <ele>2010.0</ele>
        <time>2013-07-03T12:05:12Z</time>
      </trkpt>
      <trkpt lat="40.220150" lon="-4.893633">
        <ele>2009.0</ele>
        <time>2013-07-03T12:05:13Z</time>
      </trkpt>
      <trkpt lat="40.220167" lon="-4.893517">
        <ele>2009.0</ele>
        <time>2013-07-03T12:05:14Z</time>
      </trkpt>
      <trkpt lat="40.220200" lon="-4.893433">
        <ele>2010.0</ele>
        <time>2013-07-03T12:05:15Z</time>
      </trkpt>
      <trkpt lat="40.220267" lon="-4.893367">
        <ele>2012.0</ele>
        <time>2013-07-03T12:05:16Z</time>
      </trkpt>
      <trkpt lat="40.220317" lon="-4.893350">
        <ele>2016.0</ele>
        <time>2013-07-03T12:05:17Z</time>
      </trkpt>
      <trkpt lat="40.220350" lon="-4.893350">
        <ele>2020.0</ele>
        <time>2013-07-03T12:05:18Z</time>
      </trkpt>
      <trkpt lat="40.220367" lon="-4.893383">
        <ele>2022.0</ele>
        <time>2013-07-03T12:05:19Z</time>
      </trkpt>
      <trkpt lat="40.220383" lon="-4.893450">
        <ele>2022.0</ele>
        <time>2013-07-03T12:05:20Z</time>
      </trkpt>
      <trkpt lat="40.220433" lon="-4.893533">
        <ele>2022.0</ele>
        <time>2013-07-03T12:05:21Z</time>
      </trkpt>
      <trkpt lat="40.220450" lon="-4.893650">
        <ele>2023.0</ele>
        <time>2013-07-03T12:05:22Z</time>
      </trkpt>
      <trkpt lat="40.220450" lon="-4.893767">
        <ele>2026.0</ele>
        <time>2013-07-03T12:05:23Z</time>
      </trkpt>
      <trkpt lat="40.220400" lon="-4.893867">
        <ele>2027.0</ele>
        <time>2013-07-03T12:05:24Z</time>
      </trkpt>
      <trkpt lat="40.220317" lon="-4.893933">
        <ele>2028.0</ele>
        <time>2013-07-03T12:05:25Z</time>
      </trkpt>
      <trkpt lat="40.220217" lon="-4.893967">
        <ele>2030.0</ele>
        <time>2013-07-03T12:05:26Z</time>
      </trkpt>
      <trkpt lat="40.220117" lon="-4.893967">
        <ele>2033.0</ele>
        <time>2013-07-03T12:05:27Z</time>
      </trkpt>
      <trkpt lat="40.220033" lon="-4.893950">
        <ele>2034.0</ele>
        <time>2013-07-03T12:05:28Z</time>
      </trkpt>
      <trkpt lat="40.219967" lon="-4.893900">
        <ele>2036.0</ele>
        <time>2013-07-03T12:05:29Z</time>
      </trkpt>
      <trkpt lat="40.219900" lon="-4.893833">
        <ele>2036.0</ele>
        <time>2013-07-03T12:05:30Z</time>
      </trkpt>
      <trkpt lat="40.219850" lon="-4.893750">
        <ele>2037.0</ele>
        <time>2013-07-03T12:05:31Z</time>
      </trkpt>
      <trkpt lat="40.219850" lon="-4.893633">
        <ele>2036.0</ele>
        <time>2013-07-03T12:05:32Z</time>
      </trkpt>
      <trkpt lat="40.219867" lon="-4.893533">
        <ele>2036.0</ele>
        <time>2013-07-03T12:05:33Z</time>
      </trkpt>
      <trkpt lat="40.219917" lon="-4.893450">
        <ele>2036.0</ele>
        <time>2013-07-03T12:05:34Z</time>
      </trkpt>
      <trkpt lat="40.219983" lon="-4.893400">
        <ele>2038.0</ele>
        <time>2013-07-03T12:05:35Z</time>
      </trkpt>
      <trkpt lat="40.220033" lon="-4.893400">
        <ele>2041.0</ele>
        <time>2013-07-03T12:05:36Z</time>
      </trkpt>
      <trkpt lat="40.220067" lon="-4.893417">
        <ele>2044.0</ele>
        <time>2013-07-03T12:05:37Z</time>
      </trkpt>
      <trkpt lat="40.220100" lon="-4.893450">
        <ele>2045.0</ele>
        <time>2013-07-03T12:05:38Z</time>
      </trkpt>
      <trkpt lat="40.220133" lon="-4.893517">
        <ele>2044.0</ele>
        <time>2013-07-03T12:05:39Z</time>
      </trkpt>
      <trkpt lat="40.220167" lon="-4.893583">
        <ele>2044.0</ele>
        <time>2013-07-03T12:05:40Z</time>
      </trkpt>
      <trkpt lat="40.220200" lon="-4.893667">
        <ele>2045.0</ele>
        <time>2013-07-03T12:05:41Z</time>
      </trkpt>
      <trkpt lat="40.220217" lon="-4.893767">
        <ele>2047.0</ele>
        <time>2013-07-03T12:05:42Z</time>
      </trkpt>
      <trkpt lat="40.220200" lon="-4.893867">
        <ele>2049.0</ele>
        <time>2013-07-03T12:05:43Z</time>
      </trkpt>
      <trkpt lat="40.220183" lon="-4.893967">
        <ele>2050.0</ele>
        <time>2013-07-03T12:05:44Z</time>
      </trkpt>
      <trkpt lat="40.220133" lon="-4.894067">
        <ele>2052.0</ele>
        <time>2013-07-03T12:05:45Z</time>
      </trkpt>
      <trkpt lat="40.220067" lon="-4.894150">
        <ele>2053.0</ele>
        <time>2013-07-03T12:05:46Z</time>
      </trkpt>
      <trkpt lat="40.220000" lon="-4.894217">
        <ele>2055.0</ele>
        <time>2013-07-03T12:05:47Z</time>
      </trkpt>
      <trkpt lat="40.219917" lon="-4.894283">
        <ele>2056.0</ele>
        <time>2013-07-03T12:05:48Z</time>
      </trkpt>
      <trkpt lat="40.219817" lon="-4.894317">
        <ele>2057.0</ele>
        <time>2013-07-03T12:05:49Z</time>
      </trkpt>
      <trkpt lat="40.219717" lon="-4.894333">
        <ele>2058.0</ele>
        <time>2013-07-03T12:05:50Z</time>
      </trkpt>
      <trkpt lat="40.219617" lon="-4.894317">
        <ele>2059.0</ele>
        <time>2013-07-03T12:05:51Z</time>
      </trkpt>
      <trkpt lat="40.219550" lon="-4.894267">
        <ele>2060.0</ele>
        <time>2013-07-03T12:05:52Z</time>
      </trkpt>
      <trkpt lat="40.219483" lon="-4.894183">
        <ele>2062.0</ele>
        <time>2013-07-03T12:05:53Z</time>
      </trkpt>
      <trkpt lat="40.219467" lon="-4.894100">
        <ele>2063.0</ele>
        <time>2013-07-03T12:05:54Z</time>
      </trkpt>
      <trkpt lat="40.219467" lon="-4.894000">
        <ele>2063.0</ele>
        <time>2013-07-03T12:05:55Z</time>
      </trkpt>
      <trkpt lat="40.219483" lon="-4.893933">
        <ele>2065.0</ele>
        <time>2013-07-03T12:05:56Z</time>
      </trkpt>
      <trkpt lat="40.219500" lon="-4.893867">
        <ele>2065.0</ele>
        <time>2013-07-03T12:05:57Z</time>
      </trkpt>
      <trkpt lat="40.219550" lon="-4.893817">
        <ele>2066.0</ele>
        <time>2013-07-03T12:05:58Z</time>
      </trkpt>
      <trkpt lat="40.219600" lon="-4.893783">
        <ele>2067.0</ele>
        <time>2013-07-03T12:05:59Z</time>
      </trkpt>
      <trkpt lat="40.219650" lon="-4.893767">
        <ele>2067.0</ele>
        <time>2013-07-03T12:06:00Z</time>
      </trkpt>
      <trkpt lat="40.219700" lon="-4.893767">
        <ele>2069.0</ele>
        <time>2013-07-03T12:06:01Z</time>
      </trkpt>
      <trkpt lat="40.219750" lon="-4.893817">
        <ele>2070.0</ele>
        <time>2013-07-03T12:06:02Z</time>
      </trkpt>
      <trkpt lat="40.219783" lon="-4.893867">
        <ele>2071.0</ele>
        <time>2013-07-03T12:06:03Z</time>
      </trkpt>
      <trkpt lat="40.219800" lon="-4.893933">
        <ele>2072.0</ele>
        <time>2013-07-03T12:06:04Z</time>
      </trkpt>
      <trkpt lat="40.219833" lon="-4.894000">
        <ele>2072.0</ele>
        <time>2013-07-03T12:06:05Z</time>
      </trkpt>
      <trkpt lat="40.219850" lon="-4.894083">
        <ele>2073.0</ele>
        <time>2013-07-03T12:06:06Z</time>
      </trkpt>
      <trkpt lat="40.219850" lon="-4.894167">
        <ele>2073.0</ele>
        <time>2013-07-03T12:06:07Z</time>
      </trkpt>
      <trkpt lat="40.219817" lon="-4.894267">
        <ele>2074.0</ele>
        <time>2013-07-03T12:06:08Z</time>
      </trkpt>
      <trkpt lat="40.219767" lon="-4.894367">
        <ele>2074.0</ele>
        <time>2013-07-03T12:06:09Z</time>
      </trkpt>
      <trkpt lat="40.219700" lon="-4.894467">
        <ele>2075.0</ele>
        <time>2013-07-03T12:06:10Z</time>
      </trkpt>
      <trkpt lat="40.219633" lon="-4.894533">
        <ele>2077.0</ele>
        <time>2013-07-03T12:06:11Z</time>
      </trkpt>
      <trkpt lat="40.219550" lon="-4.894567">
        <ele>2078.0</ele>
        <time>2013-07-03T12:06:12Z</time>
      </trkpt>
      <trkpt lat="40.219467" lon="-4.894600">
        <ele>2078.0</ele>
        <time>2013-07-03T12:06:13Z</time>
      </trkpt>
      <trkpt lat="40.219367" lon="-4.894617">
        <ele>2078.0</ele>
        <time>2013-07-03T12:06:14Z</time>
      </trkpt>
      <trkpt lat="40.219283" lon="-4.894617">
        <ele>2078.0</ele>
        <time>2013-07-03T12:06:15Z</time>
      </trkpt>
      <trkpt lat="40.219200" lon="-4.894617">
        <ele>2079.0</ele>
        <time>2013-07-03T12:06:16Z</time>
      </trkpt>
      <trkpt lat="40.219117" lon="-4.894567">
        <ele>2080.0</ele>
        <time>2013-07-03T12:06:17Z</time>
      </trkpt>
      <trkpt lat="40.219067" lon="-4.894517">
        <ele>2080.0</ele>
        <time>2013-07-03T12:06:18Z</time>
      </trkpt>
      <trkpt lat="40.219033" lon="-4.894450">
        <ele>2081.0</ele>
        <time>2013-07-03T12:06:19Z</time>
      </trkpt>
      <trkpt lat="40.219000" lon="-4.894367">
        <ele>2080.0</ele>
        <time>2013-07-03T12:06:20Z</time>
      </trkpt>
      <trkpt lat="40.219000" lon="-4.894300">
        <ele>2080.0</ele>
        <time>2013-07-03T12:06:21Z</time>
      </trkpt>
      <trkpt lat="40.219000" lon="-4.894233">
        <ele>2080.0</ele>
        <time>2013-07-03T12:06:22Z</time>
      </trkpt>
      <trkpt lat="40.219017" lon="-4.894167">
        <ele>2080.0</ele>
        <time>2013-07-03T12:06:23Z</time>
      </trkpt>
      <trkpt lat="40.219050" lon="-4.894117">
        <ele>2080.0</ele>
        <time>2013-07-03T12:06:24Z</time>
      </trkpt>
      <trkpt lat="40.219100" lon="-4.894067">
        <ele>2080.0</ele>
        <time>2013-07-03T12:06:25Z</time>
      </trkpt>
      <trkpt lat="40.219150" lon="-4.894033">
        <ele>2080.0</ele>
        <time>2013-07-03T12:06:26Z</time>
      </trkpt>
      <trkpt lat="40.219200" lon="-4.894000">
        <ele>2080.0</ele>
        <time>2013-07-03T12:06:27Z</time>
      </trkpt>
      <trkpt lat="40.219267" lon="-4.893983">
        <ele>2079.0</ele>
        <time>2013-07-03T12:06:28Z</time>
      </trkpt>
      <trkpt lat="40.219333" lon="-4.893983">
        <ele>2079.0</ele>
        <time>2013-07-03T12:06:29Z</time>
      </trkpt>
      <trkpt lat="40.219400" lon="-4.894000">
        <ele>2079.0</ele>
        <time>2013-07-03T12:06:30Z</time>
      </trkpt>
      <trkpt lat="40.219483" lon="-4.894017">
        <ele>2080.0</ele>
        <time>2013-07-03T12:06:31Z</time>
      </trkpt>
      <trkpt lat="40.219533" lon="-4.894050">
        <ele>2081.0</ele>
        <time>2013-07-03T12:06:32Z</time>
      </trkpt>
      <trkpt lat="40.219583" lon="-4.894100">
        <ele>2081.0</ele>
        <time>2013-07-03T12:06:33Z</time>
      </trkpt>
      <trkpt lat="40.219633" lon="-4.894150">
        <ele>2083.0</ele>
        <time>2013-07-03T12:06:34Z</time>
      </trkpt>
      <trkpt lat="40.219667" lon="-4.894217">
        <ele>2084.0</ele>
        <time>2013-07-03T12:06:35Z</time>
      </trkpt>
      <trkpt lat="40.219700" lon="-4.894283">
        <ele>2085.0</ele>
        <time>2013-07-03T12:06:36Z</time>
      </trkpt>
      <trkpt lat="40.219717" lon="-4.894367">
        <ele>2085.0</ele>
        <time>2013-07-03T12:06:37Z</time>
      </trkpt>
      <trkpt lat="40.219750" lon="-4.894450">
        <ele>2085.0</ele>
        <time>2013-07-03T12:06:38Z</time>
      </trkpt>
      <trkpt lat="40.219783" lon="-4.894533">
        <ele>2086.0</ele>
        <time>2013-07-03T12:06:39Z</time>
      </trkpt>
      <trkpt lat="40.219817" lon="-4.894600">
        <ele>2086.0</ele>
        <time>2013-07-03T12:06:40Z</time>
      </trkpt>
      <trkpt lat="40.219833" lon="-4.894683">
        <ele>2087.0</ele>
        <time>2013-07-03T12:06:41Z</time>
      </trkpt>
      <trkpt lat="40.219833" lon="-4.894783">
        <ele>2087.0</ele>
        <time>2013-07-03T12:06:42Z</time>
      </trkpt>
      <trkpt lat="40.219817" lon="-4.894883">
        <ele>2089.0</ele>
        <time>2013-07-03T12:06:43Z</time>
      </trkpt>
      <trkpt lat="40.219800" lon="-4.894967">
        <ele>2090.0</ele>
        <time>2013-07-03T12:06:44Z</time>
      </trkpt>
      <trkpt lat="40.219767" lon="-4.895050">
        <ele>2091.0</ele>
        <time>2013-07-03T12:06:45Z</time>
      </trkpt>
      <trkpt lat="40.219733" lon="-4.895133">
        <ele>2092.0</ele>
        <time>2013-07-03T12:06:46Z</time>
      </trkpt>
      <trkpt lat="40.219683" lon="-4.895200">
        <ele>2093.0</ele>
        <time>2013-07-03T12:06:47Z</time>
      </trkpt>
      <trkpt lat="40.219617" lon="-4.895267">
        <ele>2093.0</ele>
        <time>2013-07-03T12:06:48Z</time>
      </trkpt>
      <trkpt lat="40.219550" lon="-4.895317">
        <ele>2094.0</ele>
        <time>2013-07-03T12:06:49Z</time>
      </trkpt>
      <trkpt lat="40.219467" lon="-4.895350">
        <ele>2094.0</ele>
        <time>2013-07-03T12:06:50Z</time>
      </trkpt>
      <trkpt lat="40.219367" lon="-4.895367">
        <ele>2095.0</ele>
        <time>2013-07-03T12:06:51Z</time>
      </trkpt>
      <trkpt lat="40.219283" lon="-4.895367">
        <ele>2095.0</ele>
        <time>2013-07-03T12:06:52Z</time>
      </trkpt>
      <trkpt lat="40.219183" lon="-4.895350">
        <ele>2096.0</ele>
        <time>2013-07-03T12:06:53Z</time>
      </trkpt>
      <trkpt lat="40.219100" lon="-4.895333">
        <ele>2097.0</ele>
        <time>2013-07-03T12:06:54Z</time>
      </trkpt>
      <trkpt lat="40.219017" lon="-4.895283">
        <ele>2097.0</ele>
        <time>2013-07-03T12:06:55Z</time>
      </trkpt>
      <trkpt lat="40.218933" lon="-4.895233">
        <ele>2098.0</ele>
        <time>2013-07-03T12:06:56Z</time>
      </trkpt>
      <trkpt lat="40.218867" lon="-4.895167">
        <ele>2098.0</ele>
        <time>2013-07-03T12:06:57Z</time>
      </trkpt>
      <trkpt lat="40.218817" lon="-4.895083">
        <ele>2098.0</ele>
        <time>2013-07-03T12:06:58Z</time>
      </trkpt>
      <trkpt lat="40.218767" lon="-4.895000">
        <ele>2098.0</ele>
        <time>2013-07-03T12:06:59Z</time>
      </trkpt>
      <trkpt lat="40.218733" lon="-4.894917">
        <ele>2099.0</ele>
        <time>2013-07-03T12:07:00Z</time>
      </trkpt>
      <trkpt lat="40.218700" lon="-4.894833">
        <ele>2099.0</ele>
        <time>2013-07-03T12:07:01Z</time>
      </trkpt>
      <trkpt lat="40.218667" lon="-4.894750">
        <ele>2099.0</ele>
        <time>2013-07-03T12:07:02Z</time>
      </trkpt>
      <trkpt lat="40.218667" lon="-4.894667">
        <ele>2099.0</ele>
        <time>2013-07-03T12:07:03Z</time>
      </trkpt>
      <trkpt lat="40.218667" lon="-4.894583">
        <ele>2099.0</ele>
        <time>2013-07-03T12:07:04Z</time>
      </trkpt>
      <trkpt lat="40.218683" lon="-4.894517">
        <ele>2098.0</ele>
        <time>2013-07-03T12:07:05Z</time>
      </trkpt>
      <trkpt lat="40.218733" lon="-4.894433">
        <ele>2098.0</ele>
        <time>2013-07-03T12:07:06Z</time>
      </trkpt>
      <trkpt lat="40.218767" lon="-4.894367">
        <ele>2097.0</ele>
        <time>2013-07-03T12:07:07Z</time>
      </trkpt>
      <trkpt lat="40.218817" lon="-4.894283">
        <ele>2097.0</ele>
        <time>2013-07-03T12:07:08Z</time>
      </trkpt>
      <trkpt lat="40.218850" lon="-4.894217">
        <ele>2098.0</ele>
        <time>2013-07-03T12:07:09Z</time>
      </trkpt>
      <trkpt lat="40.218883" lon="-4.894167">
        <ele>2098.0</ele>
        <time>2013-07-03T12:07:10Z</time>
      </trkpt>
      <trkpt lat="40.218933" lon="-4.894100">
        <ele>2098.0</ele>
        <time>2013-07-03T12:07:11Z</time>
      </trkpt>
      <trkpt lat="40.218967" lon="-4.894033">
        <ele>2099.0</ele>
        <time>2013-07-03T12:07:12Z</time>
      </trkpt>
      <trkpt lat="40.219017" lon="-4.893967">
        <ele>2100.0</ele>
        <time>2013-07-03T12:07:13Z</time>
      </trkpt>
      <trkpt lat="40.219050" lon="-4.893917">
        <ele>2101.0</ele>
        <time>2013-07-03T12:07:14Z</time>
      </trkpt>
      <trkpt lat="40.219100" lon="-4.893867">
        <ele>2102.0</ele>
        <time>2013-07-03T12:07:15Z</time>
      </trkpt>
      <trkpt lat="40.219133" lon="-4.893833">
        <ele>2102.0</ele>
        <time>2013-07-03T12:07:16Z</time>
      </trkpt>
      <trkpt lat="40.219167" lon="-4.893783">
        <ele>2101.0</ele>
        <time>2013-07-03T12:07:17Z</time>
      </trkpt>
      <trkpt lat="40.219217" lon="-4.893750">
        <ele>2100.0</ele>
        <time>2013-07-03T12:07:18Z</time>
      </trkpt>
      <trkpt lat="40.219283" lon="-4.893717">
        <ele>2099.0</ele>
        <time>2013-07-03T12:07:19Z</time>
      </trkpt>
      <trkpt lat="40.219333" lon="-4.893700">
        <ele>2098.0</ele>
        <time>2013-07-03T12:07:20Z</time>
      </trkpt>
      <trkpt lat="40.219383" lon="-4.893667">
        <ele>2098.0</ele>
        <time>2013-07-03T12:07:21Z</time>
      </trkpt>
      <trkpt lat="40.219433" lon="-4.893650">
        <ele>2097.0</ele>
        <time>2013-07-03T12:07:22Z</time>
      </trkpt>
      <trkpt lat="40.219483" lon="-4.893617">
        <ele>2096.0</ele>
        <time>2013-07-03T12:07:23Z</time>
      </trkpt>
      <trkpt lat="40.219533" lon="-4.893583">
        <ele>2095.0</ele>
        <time>2013-07-03T12:07:24Z</time>
      </trkpt>
      <trkpt lat="40.219600" lon="-4.893567">
        <ele>2094.0</ele>
        <time>2013-07-03T12:07:25Z</time>
      </trkpt>
      <trkpt lat="40.219667" lon="-4.893567">
        <ele>2094.0</ele>
        <time>2013-07-03T12:07:26Z</time>
      </trkpt>
      <trkpt lat="40.219717" lon="-4.893567">
        <ele>2094.0</ele>
        <time>2013-07-03T12:07:27Z</time>
      </trkpt>
      <trkpt lat="40.219783" lon="-4.893600">
        <ele>2093.0</ele>
        <time>2013-07-03T12:07:28Z</time>
      </trkpt>
      <trkpt lat="40.219850" lon="-4.893633">
        <ele>2093.0</ele>
        <time>2013-07-03T12:07:29Z</time>
      </trkpt>
      <trkpt lat="40.219900" lon="-4.893667">
        <ele>2093.0</ele>
        <time>2013-07-03T12:07:30Z</time>
      </trkpt>
      <trkpt lat="40.219950" lon="-4.893700">
        <ele>2093.0</ele>
        <time>2013-07-03T12:07:31Z</time>
      </trkpt>
      <trkpt lat="40.220000" lon="-4.893750">
        <ele>2094.0</ele>
        <time>2013-07-03T12:07:32Z</time>
      </trkpt>
      <trkpt lat="40.220033" lon="-4.893817">
        <ele>2094.0</ele>
        <time>2013-07-03T12:07:33Z</time>
      </trkpt>
      <trkpt lat="40.220083" lon="-4.893900">
        <ele>2094.0</ele>
        <time>2013-07-03T12:07:34Z</time>
      </trkpt>
      <trkpt lat="40.220100" lon="-4.893983">
        <ele>2094.0</ele>
        <time>2013-07-03T12:07:35Z</time>
      </trkpt>
      <trkpt lat="40.220083" lon="-4.894067">
        <ele>2095.0</ele>
        <time>2013-07-03T12:07:36Z</time>
      </trkpt>
      <trkpt lat="40.220083" lon="-4.894167">
        <ele>2096.0</ele>
        <time>2013-07-03T12:07:37Z</time>
      </trkpt>
      <trkpt lat="40.220067" lon="-4.894250">
        <ele>2096.0</ele>
        <time>2013-07-03T12:07:38Z</time>
      </trkpt>
      <trkpt lat="40.220083" lon="-4.894350">
        <ele>2096.0</ele>
        <time>2013-07-03T12:07:39Z</time>
      </trkpt>
      <trkpt lat="40.220083" lon="-4.894433">
        <ele>2096.0</ele>
        <time>2013-07-03T12:07:40Z</time>
      </trkpt>
      <trkpt lat="40.220067" lon="-4.894533">
        <ele>2097.0</ele>
        <time>2013-07-03T12:07:41Z</time>
      </trkpt>
      <trkpt lat="40.220050" lon="-4.894650">
        <ele>2097.0</ele>
        <time>2013-07-03T12:07:42Z</time>
      </trkpt>
      <trkpt lat="40.220017" lon="-4.894750">
        <ele>2097.0</ele>
        <time>2013-07-03T12:07:43Z</time>
      </trkpt>
      <trkpt lat="40.219967" lon="-4.894833">
        <ele>2097.0</ele>
        <time>2013-07-03T12:07:44Z</time>
      </trkpt>
      <trkpt lat="40.219933" lon="-4.894933">
        <ele>2096.0</ele>
        <time>2013-07-03T12:07:45Z</time>
      </trkpt>
      <trkpt lat="40.219867" lon="-4.895050">
        <ele>2096.0</ele>
        <time>2013-07-03T12:07:46Z</time>
      </trkpt>
      <trkpt lat="40.219817" lon="-4.895167">
        <ele>2095.0</ele>
        <time>2013-07-03T12:07:47Z</time>
      </trkpt>
      <trkpt lat="40.219733" lon="-4.895267">
        <ele>2095.0</ele>
        <time>2013-07-03T12:07:48Z</time>
      </trkpt>
      <trkpt lat="40.219667" lon="-4.895350">
        <ele>2095.0</ele>
        <time>2013-07-03T12:07:49Z</time>
      </trkpt>
      <trkpt lat="40.219583" lon="-4.895383">
        <ele>2094.0</ele>
        <time>2013-07-03T12:07:50Z</time>
      </trkpt>
      <trkpt lat="40.219500" lon="-4.895400">
        <ele>2093.0</ele>
        <time>2013-07-03T12:07:51Z</time>
      </trkpt>
      <trkpt lat="40.219400" lon="-4.895400">
        <ele>2090.0</ele>
        <time>2013-07-03T12:07:52Z</time>
      </trkpt>
      <trkpt lat="40.219283" lon="-4.895383">
        <ele>2087.0</ele>
        <time>2013-07-03T12:07:53Z</time>
      </trkpt>
      <trkpt lat="40.219183" lon="-4.895367">
        <ele>2086.0</ele>
        <time>2013-07-03T12:07:54Z</time>
      </trkpt>
      <trkpt lat="40.219083" lon="-4.895333">
        <ele>2086.0</ele>
        <time>2013-07-03T12:07:55Z</time>
      </trkpt>
      <trkpt lat="40.219000" lon="-4.895333">
        <ele>2085.0</ele>
        <time>2013-07-03T12:07:56Z</time>
      </trkpt>
      <trkpt lat="40.218900" lon="-4.895317">
        <ele>2084.0</ele>
        <time>2013-07-03T12:07:57Z</time>
      </trkpt>
      <trkpt lat="40.218817" lon="-4.895283">
        <ele>2082.0</ele>
        <time>2013-07-03T12:07:58Z</time>
      </trkpt>
      <trkpt lat="40.218717" lon="-4.895233">
        <ele>2080.0</ele>
        <time>2013-07-03T12:07:59Z</time>
      </trkpt>
      <trkpt lat="40.218617" lon="-4.895167">
        <ele>2080.0</ele>
        <time>2013-07-03T12:08:00Z</time>
      </trkpt>
      <trkpt lat="40.218517" lon="-4.895117">
        <ele>2080.0</ele>
        <time>2013-07-03T12:08:01Z</time>
      </trkpt>
      <trkpt lat="40.218433" lon="-4.895067">
        <ele>2079.0</ele>
        <time>2013-07-03T12:08:02Z</time>
      </trkpt>
      <trkpt lat="40.218350" lon="-4.895033">
        <ele>2078.0</ele>
        <time>2013-07-03T12:08:03Z</time>
      </trkpt>
      <trkpt lat="40.218267" lon="-4.895017">
        <ele>2076.0</ele>
        <time>2013-07-03T12:08:04Z</time>
      </trkpt>
      <trkpt lat="40.218183" lon="-4.894967">
        <ele>2074.0</ele>
        <time>2013-07-03T12:08:05Z</time>
      </trkpt>
      <trkpt lat="40.218083" lon="-4.894917">
        <ele>2073.0</ele>
        <time>2013-07-03T12:08:06Z</time>
      </trkpt>
      <trkpt lat="40.218000" lon="-4.894867">
        <ele>2072.0</ele>
        <time>2013-07-03T12:08:07Z</time>
      </trkpt>
      <trkpt lat="40.217917" lon="-4.894800">
        <ele>2072.0</ele>
        <time>2013-07-03T12:08:08Z</time>
      </trkpt>
      <trkpt lat="40.217850" lon="-4.894733">
        <ele>2072.0</ele>
        <time>2013-07-03T12:08:09Z</time>
      </trkpt>
      <trkpt lat="40.217767" lon="-4.894700">
        <ele>2072.0</ele>
        <time>2013-07-03T12:08:10Z</time>
      </trkpt>
      <trkpt lat="40.217700" lon="-4.894667">
        <ele>2071.0</ele>
        <time>2013-07-03T12:08:11Z</time>
      </trkpt>
      <trkpt lat="40.217650" lon="-4.894650">
        <ele>2069.0</ele>
        <time>2013-07-03T12:08:12Z</time>
      </trkpt>
      <trkpt lat="40.217583" lon="-4.894617">
        <ele>2067.0</ele>
        <time>2013-07-03T12:08:13Z</time>
      </trkpt>
      <trkpt lat="40.217500" lon="-4.894583">
        <ele>2063.0</ele>
        <time>2013-07-03T12:08:14Z</time>
      </trkpt>
      <trkpt lat="40.217417" lon="-4.894550">
        <ele>2060.0</ele>
        <time>2013-07-03T12:08:15Z</time>
      </trkpt>
      <trkpt lat="40.217333" lon="-4.894500">
        <ele>2058.0</ele>
        <time>2013-07-03T12:08:16Z</time>
      </trkpt>
      <trkpt lat="40.217267" lon="-4.894450">
        <ele>2055.0</ele>
        <time>2013-07-03T12:08:17Z</time>
      </trkpt>
      <trkpt lat="40.217183" lon="-4.894417">
        <ele>2052.0</ele>
        <time>2013-07-03T12:08:18Z</time>
      </trkpt>
      <trkpt lat="40.217083" lon="-4.894350">
        <ele>2047.0</ele>
        <time>2013-07-03T12:08:19Z</time>
      </trkpt>
      <trkpt lat="40.216983" lon="-4.894283">
        <ele>2043.0</ele>
        <time>2013-07-03T12:08:20Z</time>
      </trkpt>
      <trkpt lat="40.216850" lon="-4.894233">
        <ele>2040.0</ele>
        <time>2013-07-03T12:08:21Z</time>
      </trkpt>
      <trkpt lat="40.216733" lon="-4.894167">
        <ele>2039.0</ele>
        <time>2013-07-03T12:08:22Z</time>
      </trkpt>
      <trkpt lat="40.216650" lon="-4.894117">
        <ele>2041.0</ele>
        <time>2013-07-03T12:08:23Z</time>
      </trkpt>
      <trkpt lat="40.216583" lon="-4.894050">
        <ele>2042.0</ele>
        <time>2013-07-03T12:08:24Z</time>
      </trkpt>
      <trkpt lat="40.216533" lon="-4.894017">
        <ele>2042.0</ele>
        <time>2013-07-03T12:08:25Z</time>
      </trkpt>
      <trkpt lat="40.216483" lon="-4.893983">
        <ele>2041.0</ele>
        <time>2013-07-03T12:08:26Z</time>
      </trkpt>
      <trkpt lat="40.216400" lon="-4.893950">
        <ele>2039.0</ele>
        <time>2013-07-03T12:08:27Z</time>
      </trkpt>
      <trkpt lat="40.216300" lon="-4.893900">
        <ele>2036.0</ele>
        <time>2013-07-03T12:08:28Z</time>
      </trkpt>
      <trkpt lat="40.216217" lon="-4.893833">
        <ele>2034.0</ele>
        <time>2013-07-03T12:08:29Z</time>
      </trkpt>
      <trkpt lat="40.216117" lon="-4.893767">
        <ele>2033.0</ele>
        <time>2013-07-03T12:08:30Z</time>
      </trkpt>
      <trkpt lat="40.216050" lon="-4.893717">
        <ele>2034.0</ele>
        <time>2013-07-03T12:08:31Z</time>
      </trkpt>
      <trkpt lat="40.215967" lon="-4.893667">
        <ele>2033.0</ele>
        <time>2013-07-03T12:08:32Z</time>
      </trkpt>
      <trkpt lat="40.215883" lon="-4.893633">
        <ele>2031.0</ele>
        <time>2013-07-03T12:08:33Z</time>
      </trkpt>
      <trkpt lat="40.215783" lon="-4.893583">
        <ele>2029.0</ele>
        <time>2013-07-03T12:08:34Z</time>
      </trkpt>
      <trkpt lat="40.215700" lon="-4.893517">
        <ele>2027.0</ele>
        <time>2013-07-03T12:08:35Z</time>
      </trkpt>
      <trkpt lat="40.215617" lon="-4.893450">
        <ele>2026.0</ele>
        <time>2013-07-03T12:08:36Z</time>
      </trkpt>
      <trkpt lat="40.215533" lon="-4.893383">
        <ele>2025.0</ele>
        <time>2013-07-03T12:08:37Z</time>
      </trkpt>
      <trkpt lat="40.215450" lon="-4.893333">
        <ele>2024.0</ele>
        <time>2013-07-03T12:08:38Z</time>
      </trkpt>
      <trkpt lat="40.215367" lon="-4.893267">
        <ele>2023.0</ele>
        <time>2013-07-03T12:08:39Z</time>
      </trkpt>
      <trkpt lat="40.215283" lon="-4.893233">
        <ele>2021.0</ele>
        <time>2013-07-03T12:08:40Z</time>
      </trkpt>
      <trkpt lat="40.215183" lon="-4.893167">
        <ele>2018.0</ele>
        <time>2013-07-03T12:08:41Z</time>
      </trkpt>
      <trkpt lat="40.215067" lon="-4.893117">
        <ele>2015.0</ele>
        <time>2013-07-03T12:08:42Z</time>
      </trkpt>
      <trkpt lat="40.214967" lon="-4.893067">
        <ele>2012.0</ele>
        <time>2013-07-03T12:08:43Z</time>
      </trkpt>
      <trkpt lat="40.214867" lon="-4.893000">
        <ele>2010.0</ele>
        <time>2013-07-03T12:08:44Z</time>
      </trkpt>
      <trkpt lat="40.214783" lon="-4.892950">
        <ele>2008.0</ele>
        <time>2013-07-03T12:08:45Z</time>
      </trkpt>
      <trkpt lat="40.214700" lon="-4.892883">
        <ele>2006.0</ele>
        <time>2013-07-03T12:08:46Z</time>
      </trkpt>
      <trkpt lat="40.214600" lon="-4.892833">
        <ele>2003.0</ele>
        <time>2013-07-03T12:08:47Z</time>
      </trkpt>
      <trkpt lat="40.214500" lon="-4.892767">
        <ele>1999.0</ele>
        <time>2013-07-03T12:08:48Z</time>
      </trkpt>
      <trkpt lat="40.214400" lon="-4.892717">
        <ele>1997.0</ele>
        <time>2013-07-03T12:08:49Z</time>
      </trkpt>
      <trkpt lat="40.214283" lon="-4.892650">
        <ele>1995.0</ele>
        <time>2013-07-03T12:08:50Z</time>
      </trkpt>
      <trkpt lat="40.214183" lon="-4.892583">
        <ele>1994.0</ele>
        <time>2013-07-03T12:08:51Z</time>
      </trkpt>
      <trkpt lat="40.214100" lon="-4.892533">
        <ele>1993.0</ele>
        <time>2013-07-03T12:08:52Z</time>
      </trkpt>
      <trkpt lat="40.214000" lon="-4.892483">
        <ele>1992.0</ele>
        <time>2013-07-03T12:08:53Z</time>
      </trkpt>
      <trkpt lat="40.213917" lon="-4.892450">
        <ele>1991.0</ele>
        <time>2013-07-03T12:08:54Z</time>
      </trkpt>
      <trkpt lat="40.213833" lon="-4.892400">
        <ele>1989.0</ele>
        <time>2013-07-03T12:08:55Z</time>
      </trkpt>
      <trkpt lat="40.213750" lon="-4.892350">
        <ele>1986.0</ele>
        <time>2013-07-03T12:08:56Z</time>
      </trkpt>
      <trkpt lat="40.213650" lon="-4.892283">
        <ele>1984.0</ele>
        <time>2013-07-03T12:08:57Z</time>
      </trkpt>
      <trkpt lat="40.213567" lon="-4.892233">
        <ele>1981.0</ele>
        <time>2013-07-03T12:08:58Z</time>
      </trkpt>
      <trkpt lat="40.213467" lon="-4.892183">
        <ele>1979.0</ele>
        <time>2013-07-03T12:08:59Z</time>
      </trkpt>
      <trkpt lat="40.213383" lon="-4.892133">
        <ele>1977.0</ele>
        <time>2013-07-03T12:09:00Z</time>
      </trkpt>
      <trkpt lat="40.213300" lon="-4.892067">
        <ele>1976.0</ele>
        <time>2013-07-03T12:09:01Z</time>
      </trkpt>
      <trkpt lat="40.213217" lon="-4.892017">
        <ele>1973.0</ele>
        <time>2013-07-03T12:09:02Z</time>
      </trkpt>
      <trkpt lat="40.213133" lon="-4.891967">
        <ele>1970.0</ele>
        <time>2013-07-03T12:09:03Z</time>
      </trkpt>
      <trkpt lat="40.213050" lon="-4.891900">
        <ele>1966.0</ele>
        <time>2013-07-03T12:09:04Z</time>
      </trkpt>
      <trkpt lat="40.212950" lon="-4.891850">
        <ele>1963.0</ele>
        <time>2013-07-03T12:09:05Z</time>
      </trkpt>
      <trkpt lat="40.212867" lon="-4.891800">
        <ele>1961.0</ele>
        <time>2013-07-03T12:09:06Z</time>
      </trkpt>
      <trkpt lat="40.212783" lon="-4.891750">
        <ele>1960.0</ele>
        <time>2013-07-03T12:09:07Z</time>
      </trkpt>
      <trkpt lat="40.212700" lon="-4.891700">
        <ele>1958.0</ele>
        <time>2013-07-03T12:09:08Z</time>
      </trkpt>
      <trkpt lat="40.212617" lon="-4.891650">
        <ele>1954.0</ele>
        <time>2013-07-03T12:09:09Z</time>
      </trkpt>
      <trkpt lat="40.212533" lon="-4.891600">
        <ele>1951.0</ele>
        <time>2013-07-03T12:09:10Z</time>
      </trkpt>
      <trkpt lat="40.212433" lon="-4.891567">
        <ele>1948.0</ele>
        <time>2013-07-03T12:09:11Z</time>
      </trkpt>
      <trkpt lat="40.212333" lon="-4.891517">
        <ele>1945.0</ele>
        <time>2013-07-03T12:09:12Z</time>
      </trkpt>
      <trkpt lat="40.212233" lon="-4.891483">
        <ele>1944.0</ele>
        <time>2013-07-03T12:09:13Z</time>
      </trkpt>
      <trkpt lat="40.212133" lon="-4.891433">
        <ele>1943.0</ele>
        <time>2013-07-03T12:09:14Z</time>
      </trkpt>
      <trkpt lat="40.212050" lon="-4.891400">
        <ele>1942.0</ele>
        <time>2013-07-03T12:09:15Z</time>
      </trkpt>
      <trkpt lat="40.211967" lon="-4.891350">
        <ele>1940.0</ele>
        <time>2013-07-03T12:09:16Z</time>
      </trkpt>
      <trkpt lat="40.211883" lon="-4.891300">
        <ele>1939.0</ele>
        <time>2013-07-03T12:09:17Z</time>
      </trkpt>
      <trkpt lat="40.211783" lon="-4.891250">
        <ele>1937.0</ele>
        <time>2013-07-03T12:09:18Z</time>
      </trkpt>
      <trkpt lat="40.211700" lon="-4.891200">
        <ele>1935.0</ele>
        <time>2013-07-03T12:09:19Z</time>
      </trkpt>
      <trkpt lat="40.211600" lon="-4.891167">
        <ele>1934.0</ele>
        <time>2013-07-03T12:09:20Z</time>
      </trkpt>
      <trkpt lat="40.211517" lon="-4.891117">
        <ele>1932.0</ele>
        <time>2013-07-03T12:09:21Z</time>
      </trkpt>
      <trkpt lat="40.211417" lon="-4.891083">
        <ele>1931.0</ele>
        <time>2013-07-03T12:09:22Z</time>
      </trkpt>
      <trkpt lat="40.211317" lon="-4.891050">
        <ele>1929.0</ele>
        <time>2013-07-03T12:09:23Z</time>
      </trkpt>
      <trkpt lat="40.211233" lon="-4.891000">
        <ele>1928.0</ele>
        <time>2013-07-03T12:09:24Z</time>
      </trkpt>
      <trkpt lat="40.211133" lon="-4.890950">
        <ele>1927.0</ele>
        <time>2013-07-03T12:09:25Z</time>
      </trkpt>
      <trkpt lat="40.211033" lon="-4.890883">
        <ele>1926.0</ele>
        <time>2013-07-03T12:09:26Z</time>
      </trkpt>
      <trkpt lat="40.210950" lon="-4.890817">
        <ele>1925.0</ele>
        <time>2013-07-03T12:09:27Z</time>
      </trkpt>
      <trkpt lat="40.210850" lon="-4.890767">
        <ele>1925.0</ele>
        <time>2013-07-03T12:09:28Z</time>
      </trkpt>
      <trkpt lat="40.210767" lon="-4.890700">
        <ele>1925.0</ele>
        <time>2013-07-03T12:09:29Z</time>
      </trkpt>
      <trkpt lat="40.210667" lon="-4.890650">
        <ele>1927.0</ele>
        <time>2013-07-03T12:09:30Z</time>
      </trkpt>
      <trkpt lat="40.210600" lon="-4.890600">
        <ele>1929.0</ele>
        <time>2013-07-03T12:09:31Z</time>
      </trkpt>
      <trkpt lat="40.210533" lon="-4.890567">
        <ele>1929.0</ele>
        <time>2013-07-03T12:09:32Z</time>
      </trkpt>
      <trkpt lat="40.210483" lon="-4.890517">
        <ele>1928.0</ele>
        <time>2013-07-03T12:09:33Z</time>
      </trkpt>
      <trkpt lat="40.210417" lon="-4.890450">
        <ele>1925.0</ele>
        <time>2013-07-03T12:09:34Z</time>
      </trkpt>
      <trkpt lat="40.210350" lon="-4.890367">
        <ele>1924.0</ele>
        <time>2013-07-03T12:09:35Z</time>
      </trkpt>
      <trkpt lat="40.210283" lon="-4.890300">
        <ele>1924.0</ele>
        <time>2013-07-03T12:09:36Z</time>
      </trkpt>
      <trkpt lat="40.210200" lon="-4.890250">
        <ele>1924.0</ele>
        <time>2013-07-03T12:09:37Z</time>
      </trkpt>
      <trkpt lat="40.210117" lon="-4.890200">
        <ele>1925.0</ele>
        <time>2013-07-03T12:09:38Z</time>
      </trkpt>
      <trkpt lat="40.210050" lon="-4.890167">
        <ele>1926.0</ele>
        <time>2013-07-03T12:09:39Z</time>
      </trkpt>
      <trkpt lat="40.209983" lon="-4.890133">
        <ele>1925.0</ele>
        <time>2013-07-03T12:09:40Z</time>
      </trkpt>
      <trkpt lat="40.209917" lon="-4.890083">
        <ele>1924.0</ele>
        <time>2013-07-03T12:09:41Z</time>
      </trkpt>
      <trkpt lat="40.209833" lon="-4.890033">
        <ele>1922.0</ele>
        <time>2013-07-03T12:09:42Z</time>
      </trkpt>
      <trkpt lat="40.209733" lon="-4.889983">
        <ele>1919.0</ele>
        <time>2013-07-03T12:09:43Z</time>
      </trkpt>
      <trkpt lat="40.209650" lon="-4.889950">
        <ele>1917.0</ele>
        <time>2013-07-03T12:09:44Z</time>
      </trkpt>
      <trkpt lat="40.209550" lon="-4.889883">
        <ele>1918.0</ele>
        <time>2013-07-03T12:09:45Z</time>
      </trkpt>
      <trkpt lat="40.209483" lon="-4.889833">
        <ele>1920.0</ele>
        <time>2013-07-03T12:09:46Z</time>
      </trkpt>
      <trkpt lat="40.209433" lon="-4.889800">
        <ele>1923.0</ele>
        <time>2013-07-03T12:09:47Z</time>
      </trkpt>
      <trkpt lat="40.209367" lon="-4.889783">
        <ele>1925.0</ele>
        <time>2013-07-03T12:09:48Z</time>
      </trkpt>
      <trkpt lat="40.209317" lon="-4.889767">
        <ele>1927.0</ele>
        <time>2013-07-03T12:09:49Z</time>
      </trkpt>
      <trkpt lat="40.209250" lon="-4.889750">
        <ele>1929.0</ele>
        <time>2013-07-03T12:09:50Z</time>
      </trkpt>
      <trkpt lat="40.209200" lon="-4.889717">
        <ele>1931.0</ele>
        <time>2013-07-03T12:09:51Z</time>
      </trkpt>
      <trkpt lat="40.209150" lon="-4.889683">
        <ele>1932.0</ele>
        <time>2013-07-03T12:09:52Z</time>
      </trkpt>
      <trkpt lat="40.209117" lon="-4.889617">
        <ele>1933.0</ele>
        <time>2013-07-03T12:09:53Z</time>
      </trkpt>
      <trkpt lat="40.209083" lon="-4.889533">
        <ele>1934.0</ele>
        <time>2013-07-03T12:09:54Z</time>
      </trkpt>
      <trkpt lat="40.209100" lon="-4.889433">
        <ele>1936.0</ele>
        <time>2013-07-03T12:09:55Z</time>
      </trkpt>
      <trkpt lat="40.209133" lon="-4.889350">
        <ele>1938.0</ele>
        <time>2013-07-03T12:09:56Z</time>
      </trkpt>
      <trkpt lat="40.209183" lon="-4.889283">
        <ele>1939.0</ele>
        <time>2013-07-03T12:09:57Z</time>
      </trkpt>
      <trkpt lat="40.209233" lon="-4.889233">
        <ele>1941.0</ele>
        <time>2013-07-03T12:09:58Z</time>
      </trkpt>
      <trkpt lat="40.209300" lon="-4.889200">
        <ele>1942.0</ele>
        <time>2013-07-03T12:09:59Z</time>
      </trkpt>
      <trkpt lat="40.209383" lon="-4.889183">
        <ele>1943.0</ele>
        <time>2013-07-03T12:10:00Z</time>
      </trkpt>
      <trkpt lat="40.209467" lon="-4.889200">
        <ele>1945.0</ele>
        <time>2013-07-03T12:10:01Z</time>
      </trkpt>
      <trkpt lat="40.209533" lon="-4.889233">
        <ele>1946.0</ele>
        <time>2013-07-03T12:10:02Z</time>
      </trkpt>
      <trkpt lat="40.209600" lon="-4.889317">
        <ele>1948.0</ele>
        <time>2013-07-03T12:10:03Z</time>
      </trkpt>
      <trkpt lat="40.209633" lon="-4.889400">
        <ele>1949.0</ele>
        <time>2013-07-03T12:10:04Z</time>
      </trkpt>
      <trkpt lat="40.209650" lon="-4.889500">
        <ele>1951.0</ele>
        <time>2013-07-03T12:10:05Z</time>
      </trkpt>
      <trkpt lat="40.209633" lon="-4.889583">
        <ele>1954.0</ele>
        <time>2013-07-03T12:10:06Z</time>
      </trkpt>
      <trkpt lat="40.209600" lon="-4.889667">
        <ele>1956.0</ele>
        <time>2013-07-03T12:10:07Z</time>
      </trkpt>
      <trkpt lat="40.209550" lon="-4.889733">
        <ele>1957.0</ele>
        <time>2013-07-03T12:10:08Z</time>
      </trkpt>
      <trkpt lat="40.209467" lon="-4.889783">
        <ele>1958.0</ele>
        <time>2013-07-03T12:10:09Z</time>
      </trkpt>
      <trkpt lat="40.209383" lon="-4.889800">
        <ele>1960.0</ele>
        <time>2013-07-03T12:10:10Z</time>
      </trkpt>
      <trkpt lat="40.209300" lon="-4.889833">
        <ele>1962.0</ele>
        <time>2013-07-03T12:10:11Z</time>
      </trkpt>
      <trkpt lat="40.209233" lon="-4.889833">
        <ele>1965.0</ele>
        <time>2013-07-03T12:10:12Z</time>
      </trkpt>
      <trkpt lat="40.209183" lon="-4.889817">
        <ele>1967.0</ele>
        <time>2013-07-03T12:10:13Z</time>
      </trkpt>
      <trkpt lat="40.209117" lon="-4.889800">
        <ele>1969.0</ele>
        <time>2013-07-03T12:10:14Z</time>
      </trkpt>
      <trkpt lat="40.209067" lon="-4.889767">
        <ele>1968.0</ele>
        <time>2013-07-03T12:10:15Z</time>
      </trkpt>
      <trkpt lat="40.209000" lon="-4.889717">
        <ele>1968.0</ele>
        <time>2013-07-03T12:10:16Z</time>
      </trkpt>
      <trkpt lat="40.208950" lon="-4.889650">
        <ele>1969.0</ele>
        <time>2013-07-03T12:10:17Z</time>
      </trkpt>
      <trkpt lat="40.208917" lon="-4.889550">
        <ele>1969.0</ele>
        <time>2013-07-03T12:10:18Z</time>
      </trkpt>
      <trkpt lat="40.208917" lon="-4.889450">
        <ele>1971.0</ele>
        <time>2013-07-03T12:10:19Z</time>
      </trkpt>
      <trkpt lat="40.208950" lon="-4.889367">
        <ele>1972.0</ele>
        <time>2013-07-03T12:10:20Z</time>
      </trkpt>
      <trkpt lat="40.208983" lon="-4.889317">
        <ele>1973.0</ele>
        <time>2013-07-03T12:10:21Z</time>
      </trkpt>
      <trkpt lat="40.209017" lon="-4.889267">
        <ele>1974.0</ele>
        <time>2013-07-03T12:10:22Z</time>
      </trkpt>
      <trkpt lat="40.209067" lon="-4.889200">
        <ele>1974.0</ele>
        <time>2013-07-03T12:10:23Z</time>
      </trkpt>
      <trkpt lat="40.209133" lon="-4.889117">
        <ele>1974.0</ele>
        <time>2013-07-03T12:10:24Z</time>
      </trkpt>
      <trkpt lat="40.209183" lon="-4.889050">
        <ele>1974.0</ele>
        <time>2013-07-03T12:10:25Z</time>
      </trkpt>
      <trkpt lat="40.209250" lon="-4.888983">
        <ele>1975.0</ele>
        <time>2013-07-03T12:10:26Z</time>
      </trkpt>
      <trkpt lat="40.209317" lon="-4.888933">
        <ele>1976.0</ele>
        <time>2013-07-03T12:10:27Z</time>
      </trkpt>
      <trkpt lat="40.209400" lon="-4.888917">
        <ele>1976.0</ele>
        <time>2013-07-03T12:10:28Z</time>
      </trkpt>
      <trkpt lat="40.209483" lon="-4.888933">
        <ele>1976.0</ele>
        <time>2013-07-03T12:10:29Z</time>
      </trkpt>
      <trkpt lat="40.209550" lon="-4.889000">
        <ele>1976.0</ele>
        <time>2013-07-03T12:10:30Z</time>
      </trkpt>
      <trkpt lat="40.209617" lon="-4.889067">
        <ele>1977.0</ele>
        <time>2013-07-03T12:10:31Z</time>
      </trkpt>
      <trkpt lat="40.209667" lon="-4.889150">
        <ele>1978.0</ele>
        <time>2013-07-03T12:10:32Z</time>
      </trkpt>
      <trkpt lat="40.209700" lon="-4.889233">
        <ele>1980.0</ele>
        <time>2013-07-03T12:10:33Z</time>
      </trkpt>
      <trkpt lat="40.209717" lon="-4.889317">
        <ele>1982.0</ele>
        <time>2013-07-03T12:10:34Z</time>
      </trkpt>
      <trkpt lat="40.209717" lon="-4.889400">
        <ele>1984.0</ele>
        <time>2013-07-03T12:10:35Z</time>
      </trkpt>
      <trkpt lat="40.209683" lon="-4.889483">
        <ele>1986.0</ele>
        <time>2013-07-03T12:10:36Z</time>
      </trkpt>
      <trkpt lat="40.209617" lon="-4.889533">
        <ele>1987.0</ele>
        <time>2013-07-03T12:10:37Z</time>
      </trkpt>
      <trkpt lat="40.209550" lon="-4.889583">
        <ele>1989.0</ele>
        <time>2013-07-03T12:10:38Z</time>
      </trkpt>
      <trkpt lat="40.209483" lon="-4.889600">
        <ele>1991.0</ele>
        <time>2013-07-03T12:10:39Z</time>
      </trkpt>
      <trkpt lat="40.209417" lon="-4.889633">
        <ele>1993.0</ele>
        <time>2013-07-03T12:10:40Z</time>
      </trkpt>
      <trkpt lat="40.209333" lon="-4.889633">
        <ele>1995.0</ele>
        <time>2013-07-03T12:10:41Z</time>
      </trkpt>
      <trkpt lat="40.209267" lon="-4.889617">
        <ele>1996.0</ele>
        <time>2013-07-03T12:10:42Z</time>
      </trkpt>
      <trkpt lat="40.209200" lon="-4.889583">
        <ele>1998.0</ele>
        <time>2013-07-03T12:10:43Z</time>
      </trkpt>
      <trkpt lat="40.209133" lon="-4.889517">
        <ele>1999.0</ele>
        <time>2013-07-03T12:10:44Z</time>
      </trkpt>
      <trkpt lat="40.209083" lon="-4.889467">
        <ele>2001.0</ele>
        <time>2013-07-03T12:10:45Z</time>
      </trkpt>
      <trkpt lat="40.209050" lon="-4.889383">
        <ele>2002.0</ele>
        <time>2013-07-03T12:10:46Z</time>
      </trkpt>
      <trkpt lat="40.209033" lon="-4.889283">
        <ele>2003.0</ele>
        <time>2013-07-03T12:10:47Z</time>
      </trkpt>
      <trkpt lat="40.209017" lon="-4.889183">
        <ele>2005.0</ele>
        <time>2013-07-03T12:10:48Z</time>
      </trkpt>
      <trkpt lat="40.209033" lon="-4.889067">
        <ele>2006.0</ele>
        <time>2013-07-03T12:10:49Z</time>
      </trkpt>
      <trkpt lat="40.209050" lon="-4.888967">
        <ele>2008.0</ele>
        <time>2013-07-03T12:10:50Z</time>
      </trkpt>
      <trkpt lat="40.209083" lon="-4.888883">
        <ele>2009.0</ele>
        <time>2013-07-03T12:10:51Z</time>
      </trkpt>
      <trkpt lat="40.209117" lon="-4.888833">
        <ele>2009.0</ele>
        <time>2013-07-03T12:10:52Z</time>
      </trkpt>
      <trkpt lat="40.209150" lon="-4.888767">
        <ele>2009.0</ele>
        <time>2013-07-03T12:10:53Z</time>
      </trkpt>
      <trkpt lat="40.209217" lon="-4.888700">
        <ele>2007.0</ele>
        <time>2013-07-03T12:10:54Z</time>
      </trkpt>
      <trkpt lat="40.209300" lon="-4.888667">
        <ele>2006.0</ele>
        <time>2013-07-03T12:10:55Z</time>
      </trkpt>
      <trkpt lat="40.209400" lon="-4.888650">
        <ele>2004.0</ele>
        <time>2013-07-03T12:10:56Z</time>
      </trkpt>
      <trkpt lat="40.209483" lon="-4.888700">
        <ele>2003.0</ele>
        <time>2013-07-03T12:10:57Z</time>
      </trkpt>
      <trkpt lat="40.209533" lon="-4.888817">
        <ele>2002.0</ele>
        <time>2013-07-03T12:10:58Z</time>
      </trkpt>
      <trkpt lat="40.209550" lon="-4.888933">
        <ele>2004.0</ele>
        <time>2013-07-03T12:10:59Z</time>
      </trkpt>
      <trkpt lat="40.209533" lon="-4.889050">
        <ele>2006.0</ele>
        <time>2013-07-03T12:11:00Z</time>
      </trkpt>
      <trkpt lat="40.209517" lon="-4.889133">
        <ele>2008.0</ele>
        <time>2013-07-03T12:11:01Z</time>
      </trkpt>
      <trkpt lat="40.209483" lon="-4.889200">
        <ele>2010.0</ele>
        <time>2013-07-03T12:11:02Z</time>
      </trkpt>
      <trkpt lat="40.209450" lon="-4.889267">
        <ele>2012.0</ele>
        <time>2013-07-03T12:11:03Z</time>
      </trkpt>
      <trkpt lat="40.209433" lon="-4.889350">
        <ele>2012.0</ele>
        <time>2013-07-03T12:11:04Z</time>
      </trkpt>
      <trkpt lat="40.209383" lon="-4.889433">
        <ele>2013.0</ele>
        <time>2013-07-03T12:11:05Z</time>
      </trkpt>
      <trkpt lat="40.209300" lon="-4.889517">
        <ele>2015.0</ele>
        <time>2013-07-03T12:11:06Z</time>
      </trkpt>
      <trkpt lat="40.209217" lon="-4.889533">
        <ele>2018.0</ele>
        <time>2013-07-03T12:11:07Z</time>
      </trkpt>
      <trkpt lat="40.209150" lon="-4.889517">
        <ele>2021.0</ele>
        <time>2013-07-03T12:11:08Z</time>
      </trkpt>
      <trkpt lat="40.209100" lon="-4.889467">
        <ele>2023.0</ele>
        <time>2013-07-03T12:11:09Z</time>
      </trkpt>
      <trkpt lat="40.209050" lon="-4.889433">
        <ele>2024.0</ele>
        <time>2013-07-03T12:11:10Z</time>
      </trkpt>
      <trkpt lat="40.209000" lon="-4.889400">
        <ele>2023.0</ele>
        <time>2013-07-03T12:11:11Z</time>
      </trkpt>
      <trkpt lat="40.208933" lon="-4.889350">
        <ele>2022.0</ele>
        <time>2013-07-03T12:11:12Z</time>
      </trkpt>
      <trkpt lat="40.208867" lon="-4.889250">
        <ele>2021.0</ele>
        <time>2013-07-03T12:11:13Z</time>
      </trkpt>
      <trkpt lat="40.208817" lon="-4.889117">
        <ele>2021.0</ele>
        <time>2013-07-03T12:11:14Z</time>
      </trkpt>
      <trkpt lat="40.208800" lon="-4.888983">
        <ele>2022.0</ele>
        <time>2013-07-03T12:11:15Z</time>
      </trkpt>
      <trkpt lat="40.208833" lon="-4.888867">
        <ele>2024.0</ele>
        <time>2013-07-03T12:11:16Z</time>
      </trkpt>
      <trkpt lat="40.208883" lon="-4.888783">
        <ele>2026.0</ele>
        <time>2013-07-03T12:11:17Z</time>
      </trkpt>
      <trkpt lat="40.208950" lon="-4.888767">
        <ele>2026.0</ele>
        <time>2013-07-03T12:11:18Z</time>
      </trkpt>
      <trkpt lat="40.209033" lon="-4.888767">
        <ele>2025.0</ele>
        <time>2013-07-03T12:11:19Z</time>
      </trkpt>
      <trkpt lat="40.209117" lon="-4.888783">
        <ele>2026.0</ele>
        <time>2013-07-03T12:11:20Z</time>
      </trkpt>
      <trkpt lat="40.209183" lon="-4.888817">
        <ele>2026.0</ele>
        <time>2013-07-03T12:11:21Z</time>
      </trkpt>
      <trkpt lat="40.209233" lon="-4.888850">
        <ele>2025.0</ele>
        <time>2013-07-03T12:11:22Z</time>
      </trkpt>
      <trkpt lat="40.209283" lon="-4.888900">
        <ele>2024.0</ele>
        <time>2013-07-03T12:11:23Z</time>
      </trkpt>
      <trkpt lat="40.209350" lon="-4.888983">
        <ele>2022.0</ele>
        <time>2013-07-03T12:11:24Z</time>
      </trkpt>
      <trkpt lat="40.209400" lon="-4.889100">
        <ele>2021.0</ele>
        <time>2013-07-03T12:11:25Z</time>
      </trkpt>
      <trkpt lat="40.209417" lon="-4.889250">
        <ele>2021.0</ele>
        <time>2013-07-03T12:11:26Z</time>
      </trkpt>
      <trkpt lat="40.209417" lon="-4.889383">
        <ele>2023.0</ele>
        <time>2013-07-03T12:11:27Z</time>
      </trkpt>
      <trkpt lat="40.209400" lon="-4.889500">
        <ele>2027.0</ele>
        <time>2013-07-03T12:11:28Z</time>
      </trkpt>
      <trkpt lat="40.209400" lon="-4.889583">
        <ele>2030.0</ele>
        <time>2013-07-03T12:11:29Z</time>
      </trkpt>
      <trkpt lat="40.209383" lon="-4.889667">
        <ele>2031.0</ele>
        <time>2013-07-03T12:11:30Z</time>
      </trkpt>
      <trkpt lat="40.209350" lon="-4.889750">
        <ele>2032.0</ele>
        <time>2013-07-03T12:11:31Z</time>
      </trkpt>
      <trkpt lat="40.209300" lon="-4.889833">
        <ele>2032.0</ele>
        <time>2013-07-03T12:11:32Z</time>
      </trkpt>
      <trkpt lat="40.209233" lon="-4.889883">
        <ele>2032.0</ele>
        <time>2013-07-03T12:11:33Z</time>
      </trkpt>
      <trkpt lat="40.209167" lon="-4.889900">
        <ele>2033.0</ele>
        <time>2013-07-03T12:11:34Z</time>
      </trkpt>
      <trkpt lat="40.209083" lon="-4.889883">
        <ele>2032.0</ele>
        <time>2013-07-03T12:11:35Z</time>
      </trkpt>
      <trkpt lat="40.209017" lon="-4.889800">
        <ele>2031.0</ele>
        <time>2013-07-03T12:11:36Z</time>
      </trkpt>
      <trkpt lat="40.208983" lon="-4.889683">
        <ele>2029.0</ele>
        <time>2013-07-03T12:11:37Z</time>
      </trkpt>
      <trkpt lat="40.208967" lon="-4.889567">
        <ele>2029.0</ele>
        <time>2013-07-03T12:11:38Z</time>
      </trkpt>
      <trkpt lat="40.208983" lon="-4.889467">
        <ele>2029.0</ele>
        <time>2013-07-03T12:11:39Z</time>
      </trkpt>
      <trkpt lat="40.209033" lon="-4.889383">
        <ele>2030.0</ele>
        <time>2013-07-03T12:11:40Z</time>
      </trkpt>
      <trkpt lat="40.209100" lon="-4.889350">
        <ele>2029.0</ele>
        <time>2013-07-03T12:11:41Z</time>
      </trkpt>
      <trkpt lat="40.209167" lon="-4.889350">
        <ele>2029.0</ele>
        <time>2013-07-03T12:11:42Z</time>
      </trkpt>
      <trkpt lat="40.209217" lon="-4.889367">
        <ele>2028.0</ele>
        <time>2013-07-03T12:11:43Z</time>
      </trkpt>
      <trkpt lat="40.209283" lon="-4.889433">
        <ele>2027.0</ele>
        <time>2013-07-03T12:11:44Z</time>
      </trkpt>
      <trkpt lat="40.209317" lon="-4.889517">
        <ele>2027.0</ele>
        <time>2013-07-03T12:11:45Z</time>
      </trkpt>
      <trkpt lat="40.209350" lon="-4.889633">
        <ele>2027.0</ele>
        <time>2013-07-03T12:11:46Z</time>
      </trkpt>
      <trkpt lat="40.209333" lon="-4.889750">
        <ele>2028.0</ele>
        <time>2013-07-03T12:11:47Z</time>
      </trkpt>
      <trkpt lat="40.209333" lon="-4.889867">
        <ele>2028.0</ele>
        <time>2013-07-03T12:11:48Z</time>
      </trkpt>
      <trkpt lat="40.209317" lon="-4.889983">
        <ele>2030.0</ele>
        <time>2013-07-03T12:11:49Z</time>
      </trkpt>
      <trkpt lat="40.209317" lon="-4.890083">
        <ele>2031.0</ele>
        <time>2013-07-03T12:11:50Z</time>
      </trkpt>
      <trkpt lat="40.209300" lon="-4.890183">
        <ele>2032.0</ele>
        <time>2013-07-03T12:11:51Z</time>
      </trkpt>
      <trkpt lat="40.209283" lon="-4.890283">
        <ele>2034.0</ele>
        <time>2013-07-03T12:11:52Z</time>
      </trkpt>
      <trkpt lat="40.209233" lon="-4.890383">
        <ele>2035.0</ele>
        <time>2013-07-03T12:11:53Z</time>
      </trkpt>
      <trkpt lat="40.209200" lon="-4.890467">
        <ele>2036.0</ele>
        <time>2013-07-03T12:11:54Z</time>
      </trkpt>
      <trkpt lat="40.209150" lon="-4.890567">
        <ele>2037.0</ele>
        <time>2013-07-03T12:11:55Z</time>
      </trkpt>
      <trkpt lat="40.209117" lon="-4.890650">
        <ele>2039.0</ele>
        <time>2013-07-03T12:11:56Z</time>
      </trkpt>
      <trkpt lat="40.209083" lon="-4.890750">
        <ele>2041.0</ele>
        <time>2013-07-03T12:11:57Z</time>
      </trkpt>
      <trkpt lat="40.209050" lon="-4.890850">
        <ele>2042.0</ele>
        <time>2013-07-03T12:11:58Z</time>
      </trkpt>
      <trkpt lat="40.209000" lon="-4.890950">
        <ele>2044.0</ele>
        <time>2013-07-03T12:11:59Z</time>
      </trkpt>
      <trkpt lat="40.208950" lon="-4.891033">
        <ele>2045.0</ele>
        <time>2013-07-03T12:12:00Z</time>
      </trkpt>
      <trkpt lat="40.208900" lon="-4.891133">
        <ele>2046.0</ele>
        <time>2013-07-03T12:12:01Z</time>
      </trkpt>
      <trkpt lat="40.208850" lon="-4.891200">
        <ele>2047.0</ele>
        <time>2013-07-03T12:12:02Z</time>
      </trkpt>
      <trkpt lat="40.208783" lon="-4.891267">
        <ele>2047.0</ele>
        <time>2013-07-03T12:12:03Z</time>
      </trkpt>
      <trkpt lat="40.208733" lon="-4.891333">
        <ele>2047.0</ele>
        <time>2013-07-03T12:12:04Z</time>
      </trkpt>
      <trkpt lat="40.208667" lon="-4.891417">
        <ele>2047.0</ele>
        <time>2013-07-03T12:12:05Z</time>
      </trkpt>
      <trkpt lat="40.208600" lon="-4.891500">
        <ele>2046.0</ele>
        <time>2013-07-03T12:12:06Z</time>
      </trkpt>
      <trkpt lat="40.208517" lon="-4.891567">
        <ele>2045.0</ele>
        <time>2013-07-03T12:12:07Z</time>
      </trkpt>
      <trkpt lat="40.208417" lon="-4.891617">
        <ele>2043.0</ele>
        <time>2013-07-03T12:12:08Z</time>
      </trkpt>
      <trkpt lat="40.208317" lon="-4.891667">
        <ele>2041.0</ele>
        <time>2013-07-03T12:12:09Z</time>
      </trkpt>
      <trkpt lat="40.208200" lon="-4.891717">
        <ele>2039.0</ele>
        <time>2013-07-03T12:12:10Z</time>
      </trkpt>
      <trkpt lat="40.208083" lon="-4.891767">
        <ele>2037.0</ele>
        <time>2013-07-03T12:12:11Z</time>
      </trkpt>
      <trkpt lat="40.207967" lon="-4.891817">
        <ele>2036.0</ele>
        <time>2013-07-03T12:12:12Z</time>
      </trkpt>
      <trkpt lat="40.207867" lon="-4.891867">
        <ele>2035.0</ele>
        <time>2013-07-03T12:12:13Z</time>
      </trkpt>
      <trkpt lat="40.207767" lon="-4.891900">
        <ele>2034.0</ele>
        <time>2013-07-03T12:12:14Z</time>
      </trkpt>
      <trkpt lat="40.207667" lon="-4.891917">
        <ele>2032.0</ele>
        <time>2013-07-03T12:12:15Z</time>
      </trkpt>
      <trkpt lat="40.207550" lon="-4.891933">
        <ele>2030.0</ele>
        <time>2013-07-03T12:12:16Z</time>
      </trkpt>
      <trkpt lat="40.207450" lon="-4.891967">
        <ele>2026.0</ele>
        <time>2013-07-03T12:12:17Z</time>
      </trkpt>
      <trkpt lat="40.207333" lon="-4.891983">
        <ele>2024.0</ele>
        <time>2013-07-03T12:12:18Z</time>
      </trkpt>
      <trkpt lat="40.207217" lon="-4.892017">
        <ele>2021.0</ele>
        <time>2013-07-03T12:12:19Z</time>
      </trkpt>
      <trkpt lat="40.207100" lon="-4.892033">
        <ele>2019.0</ele>
        <time>2013-07-03T12:12:20Z</time>
      </trkpt>
      <trkpt lat="40.206983" lon="-4.892050">
        <ele>2017.0</ele>
        <time>2013-07-03T12:12:21Z</time>
      </trkpt>
      <trkpt lat="40.206867" lon="-4.892050">
        <ele>2014.0</ele>
        <time>2013-07-03T12:12:22Z</time>
      </trkpt>
      <trkpt lat="40.206767" lon="-4.892067">
        <ele>2011.0</ele>
        <time>2013-07-03T12:12:23Z</time>
      </trkpt>
      <trkpt lat="40.206650" lon="-4.892067">
        <ele>2009.0</ele>
        <time>2013-07-03T12:12:24Z</time>
      </trkpt>
      <trkpt lat="40.206533" lon="-4.892083">
        <ele>2006.0</ele>
        <time>2013-07-03T12:12:25Z</time>
      </trkpt>
      <trkpt lat="40.206433" lon="-4.892083">
        <ele>2004.0</ele>
        <time>2013-07-03T12:12:26Z</time>
      </trkpt>
      <trkpt lat="40.206317" lon="-4.892100">
        <ele>2001.0</ele>
        <time>2013-07-03T12:12:27Z</time>
      </trkpt>
      <trkpt lat="40.206200" lon="-4.892100">
        <ele>1999.0</ele>
        <time>2013-07-03T12:12:28Z</time>
      </trkpt>
      <trkpt lat="40.206083" lon="-4.892117">
        <ele>1997.0</ele>
        <time>2013-07-03T12:12:29Z</time>
      </trkpt>
      <trkpt lat="40.205967" lon="-4.892150">
        <ele>1993.0</ele>
        <time>2013-07-03T12:12:30Z</time>
      </trkpt>
      <trkpt lat="40.205850" lon="-4.892167">
        <ele>1990.0</ele>
        <time>2013-07-03T12:12:31Z</time>
      </trkpt>
      <trkpt lat="40.205717" lon="-4.892183">
        <ele>1987.0</ele>
        <time>2013-07-03T12:12:32Z</time>
      </trkpt>
      <trkpt lat="40.205583" lon="-4.892200">
        <ele>1984.0</ele>
        <time>2013-07-03T12:12:33Z</time>
      </trkpt>
      <trkpt lat="40.205467" lon="-4.892200">
        <ele>1983.0</ele>
        <time>2013-07-03T12:12:34Z</time>
      </trkpt>
      <trkpt lat="40.205333" lon="-4.892200">
        <ele>1981.0</ele>
        <time>2013-07-03T12:12:35Z</time>
      </trkpt>
      <trkpt lat="40.205217" lon="-4.892200">
        <ele>1979.0</ele>
        <time>2013-07-03T12:12:36Z</time>
      </trkpt>
      <trkpt lat="40.205100" lon="-4.892217">
        <ele>1977.0</ele>
        <time>2013-07-03T12:12:37Z</time>
      </trkpt>
      <trkpt lat="40.204983" lon="-4.892217">
        <ele>1974.0</ele>
        <time>2013-07-03T12:12:38Z</time>
      </trkpt>
      <trkpt lat="40.204850" lon="-4.892217">
        <ele>1971.0</ele>
        <time>2013-07-03T12:12:39Z</time>
      </trkpt>
      <trkpt lat="40.204717" lon="-4.892217">
        <ele>1969.0</ele>
        <time>2013-07-03T12:12:40Z</time>
      </trkpt>
      <trkpt lat="40.204583" lon="-4.892217">
        <ele>1968.0</ele>
        <time>2013-07-03T12:12:41Z</time>
      </trkpt>
      <trkpt lat="40.204450" lon="-4.892217">
        <ele>1967.0</ele>
        <time>2013-07-03T12:12:42Z</time>
      </trkpt>
      <trkpt lat="40.204333" lon="-4.892217">
        <ele>1966.0</ele>
        <time>2013-07-03T12:12:43Z</time>
      </trkpt>
      <trkpt lat="40.204217" lon="-4.892200">
        <ele>1965.0</ele>
        <time>2013-07-03T12:12:44Z</time>
      </trkpt>
      <trkpt lat="40.204083" lon="-4.892183">
        <ele>1963.0</ele>
        <time>2013-07-03T12:12:45Z</time>
      </trkpt>
      <trkpt lat="40.203950" lon="-4.892183">
        <ele>1960.0</ele>
        <time>2013-07-03T12:12:46Z</time>
      </trkpt>
      <trkpt lat="40.203817" lon="-4.892167">
        <ele>1958.0</ele>
        <time>2013-07-03T12:12:47Z</time>
      </trkpt>
      <trkpt lat="40.203683" lon="-4.892167">
        <ele>1956.0</ele>
        <time>2013-07-03T12:12:48Z</time>
      </trkpt>
      <trkpt lat="40.203550" lon="-4.892150">
        <ele>1955.0</ele>
        <time>2013-07-03T12:12:49Z</time>
      </trkpt>
      <trkpt lat="40.203417" lon="-4.892133">
        <ele>1954.0</ele>
        <time>2013-07-03T12:12:50Z</time>
      </trkpt>
      <trkpt lat="40.203283" lon="-4.892133">
        <ele>1952.0</ele>
        <time>2013-07-03T12:12:51Z</time>
      </trkpt>
      <trkpt lat="40.203167" lon="-4.892117">
        <ele>1951.0</ele>
        <time>2013-07-03T12:12:52Z</time>
      </trkpt>
      <trkpt lat="40.203033" lon="-4.892100">
        <ele>1949.0</ele>
        <time>2013-07-03T12:12:53Z</time>
      </trkpt>
      <trkpt lat="40.202900" lon="-4.892083">
        <ele>1947.0</ele>
        <time>2013-07-03T12:12:54Z</time>
      </trkpt>
      <trkpt lat="40.202767" lon="-4.892067">
        <ele>1945.0</ele>
        <time>2013-07-03T12:12:55Z</time>
      </trkpt>
      <trkpt lat="40.202650" lon="-4.892050">
        <ele>1943.0</ele>
        <time>2013-07-03T12:12:56Z</time>
      </trkpt>
      <trkpt lat="40.202517" lon="-4.892033">
        <ele>1941.0</ele>
        <time>2013-07-03T12:12:57Z</time>
      </trkpt>
      <trkpt lat="40.202383" lon="-4.892017">
        <ele>1940.0</ele>
        <time>2013-07-03T12:12:58Z</time>
      </trkpt>
      <trkpt lat="40.202267" lon="-4.892000">
        <ele>1938.0</ele>
        <time>2013-07-03T12:12:59Z</time>
      </trkpt>
      <trkpt lat="40.202133" lon="-4.891967">
        <ele>1936.0</ele>
        <time>2013-07-03T12:13:00Z</time>
      </trkpt>
      <trkpt lat="40.202017" lon="-4.891950">
        <ele>1934.0</ele>
        <time>2013-07-03T12:13:01Z</time>
      </trkpt>
      <trkpt lat="40.201900" lon="-4.891917">
        <ele>1932.0</ele>
        <time>2013-07-03T12:13:02Z</time>
      </trkpt>
      <trkpt lat="40.201767" lon="-4.891917">
        <ele>1931.0</ele>
        <time>2013-07-03T12:13:03Z</time>
      </trkpt>
      <trkpt lat="40.201650" lon="-4.891917">
        <ele>1931.0</ele>
        <time>2013-07-03T12:13:04Z</time>
      </trkpt>
      <trkpt lat="40.201533" lon="-4.891917">
        <ele>1930.0</ele>
        <time>2013-07-03T12:13:05Z</time>
      </trkpt>
      <trkpt lat="40.201433" lon="-4.891917">
        <ele>1930.0</ele>
        <time>2013-07-03T12:13:06Z</time>
      </trkpt>
      <trkpt lat="40.201333" lon="-4.891933">
        <ele>1928.0</ele>
        <time>2013-07-03T12:13:07Z</time>
      </trkpt>
      <trkpt lat="40.201217" lon="-4.891933">
        <ele>1926.0</ele>
        <time>2013-07-03T12:13:08Z</time>
      </trkpt>
      <trkpt lat="40.201083" lon="-4.891950">
        <ele>1924.0</ele>
        <time>2013-07-03T12:13:09Z</time>
      </trkpt>
      <trkpt lat="40.200967" lon="-4.891967">
        <ele>1923.0</ele>
        <time>2013-07-03T12:13:10Z</time>
      </trkpt>
      <trkpt lat="40.200850" lon="-4.891983">
        <ele>1923.0</ele>
        <time>2013-07-03T12:13:11Z</time>
      </trkpt>
      <trkpt lat="40.200733" lon="-4.891983">
        <ele>1924.0</ele>
        <time>2013-07-03T12:13:12Z</time>
      </trkpt>
      <trkpt lat="40.200633" lon="-4.892000">
        <ele>1925.0</ele>
        <time>2013-07-03T12:13:13Z</time>
      </trkpt>
      <trkpt lat="40.200533" lon="-4.892017">
        <ele>1926.0</ele>
        <time>2013-07-03T12:13:14Z</time>
      </trkpt>
      <trkpt lat="40.200450" lon="-4.892033">
        <ele>1926.0</ele>
        <time>2013-07-03T12:13:15Z</time>
      </trkpt>
      <trkpt lat="40.200367" lon="-4.892033">
        <ele>1926.0</ele>
        <time>2013-07-03T12:13:16Z</time>
      </trkpt>
      <trkpt lat="40.200267" lon="-4.892033">
        <ele>1925.0</ele>
        <time>2013-07-03T12:13:17Z</time>
      </trkpt>
      <trkpt lat="40.200183" lon="-4.892050">
        <ele>1925.0</ele>
        <time>2013-07-03T12:13:18Z</time>
      </trkpt>
      <trkpt lat="40.200083" lon="-4.892083">
        <ele>1924.0</ele>
        <time>2013-07-03T12:13:19Z</time>
      </trkpt>
      <trkpt lat="40.199983" lon="-4.892117">
        <ele>1923.0</ele>
        <time>2013-07-03T12:13:20Z</time>
      </trkpt>
      <trkpt lat="40.199867" lon="-4.892150">
        <ele>1922.0</ele>
        <time>2013-07-03T12:13:21Z</time>
      </trkpt>
      <trkpt lat="40.199767" lon="-4.892150">
        <ele>1922.0</ele>
        <time>2013-07-03T12:13:22Z</time>
      </trkpt>
      <trkpt lat="40.199650" lon="-4.892167">
        <ele>1924.0</ele>
        <time>2013-07-03T12:13:23Z</time>
      </trkpt>
      <trkpt lat="40.199550" lon="-4.892183">
        <ele>1925.0</ele>
        <time>2013-07-03T12:13:24Z</time>
      </trkpt>
      <trkpt lat="40.199467" lon="-4.892200">
        <ele>1926.0</ele>
        <time>2013-07-03T12:13:25Z</time>
      </trkpt>
      <trkpt lat="40.199383" lon="-4.892233">
        <ele>1926.0</ele>
        <time>2013-07-03T12:13:26Z</time>
      </trkpt>
      <trkpt lat="40.199317" lon="-4.892250">
        <ele>1927.0</ele>
        <time>2013-07-03T12:13:27Z</time>
      </trkpt>
      <trkpt lat="40.199250" lon="-4.892267">
        <ele>1927.0</ele>
        <time>2013-07-03T12:13:28Z</time>
      </trkpt>
      <trkpt lat="40.199183" lon="-4.892267">
        <ele>1928.0</ele>
        <time>2013-07-03T12:13:29Z</time>
      </trkpt>
      <trkpt lat="40.199100" lon="-4.892267">
        <ele>1928.0</ele>
        <time>2013-07-03T12:13:30Z</time>
      </trkpt>
      <trkpt lat="40.199033" lon="-4.892267">
        <ele>1928.0</ele>
        <time>2013-07-03T12:13:31Z</time>
      </trkpt>
      <trkpt lat="40.198967" lon="-4.892267">
        <ele>1927.0</ele>
        <time>2013-07-03T12:13:32Z</time>
      </trkpt>
      <trkpt lat="40.198883" lon="-4.892250">
        <ele>1927.0</ele>
        <time>2013-07-03T12:13:33Z</time>
      </trkpt>
      <trkpt lat="40.198800" lon="-4.892233">
        <ele>1926.0</ele>
        <time>2013-07-03T12:13:34Z</time>
      </trkpt>
      <trkpt lat="40.198717" lon="-4.892217">
        <ele>1926.0</ele>
        <time>2013-07-03T12:13:35Z</time>
      </trkpt>
      <trkpt lat="40.198633" lon="-4.892200">
        <ele>1926.0</ele>
        <time>2013-07-03T12:13:36Z</time>
      </trkpt>
      <trkpt lat="40.198567" lon="-4.892183">
        <ele>1926.0</ele>
        <time>2013-07-03T12:13:37Z</time>
      </trkpt>
      <trkpt lat="40.198483" lon="-4.892167">
        <ele>1926.0</ele>
        <time>2013-07-03T12:13:38Z</time>
      </trkpt>
      <trkpt lat="40.198400" lon="-4.892150">
        <ele>1926.0</ele>
        <time>2013-07-03T12:13:39Z</time>
      </trkpt>
      <trkpt lat="40.198317" lon="-4.892117">
        <ele>1925.0</ele>
        <time>2013-07-03T12:13:40Z</time>
      </trkpt>
      <trkpt lat="40.198233" lon="-4.892083">
        <ele>1924.0</ele>
        <time>2013-07-03T12:13:41Z</time>
      </trkpt>
      <trkpt lat="40.198150" lon="-4.892050">
        <ele>1923.0</ele>
        <time>2013-07-03T12:13:42Z</time>
      </trkpt>
      <trkpt lat="40.198067" lon="-4.892000">
        <ele>1922.0</ele>
        <time>2013-07-03T12:13:43Z</time>
      </trkpt>
      <trkpt lat="40.197967" lon="-4.891967">
        <ele>1920.0</ele>
        <time>2013-07-03T12:13:44Z</time>
      </trkpt>
      <trkpt lat="40.197867" lon="-4.891917">
        <ele>1920.0</ele>
        <time>2013-07-03T12:13:45Z</time>
      </trkpt>
      <trkpt lat="40.197783" lon="-4.891883">
        <ele>1920.0</ele>
        <time>2013-07-03T12:13:46Z</time>
      </trkpt>
      <trkpt lat="40.197683" lon="-4.891850">
        <ele>1920.0</ele>
        <time>2013-07-03T12:13:47Z</time>
      </trkpt>
      <trkpt lat="40.197600" lon="-4.891833">
        <ele>1920.0</ele>
        <time>2013-07-03T12:13:48Z</time>
      </trkpt>
      <trkpt lat="40.197517" lon="-4.891800">
        <ele>1920.0</ele>
        <time>2013-07-03T12:13:49Z</time>
      </trkpt>
      <trkpt lat="40.197450" lon="-4.891750">
        <ele>1919.0</ele>
        <time>2013-07-03T12:13:50Z</time>
      </trkpt>
      <trkpt lat="40.197367" lon="-4.891700">
        <ele>1917.0</ele>
        <time>2013-07-03T12:13:51Z</time>
      </trkpt>
      <trkpt lat="40.197317" lon="-4.891633">
        <ele>1916.0</ele>
        <time>2013-07-03T12:13:52Z</time>
      </trkpt>
      <trkpt lat="40.197250" lon="-4.891567">
        <ele>1914.0</ele>
        <time>2013-07-03T12:13:53Z</time>
      </trkpt>
      <trkpt lat="40.197183" lon="-4.891500">
        <ele>1913.0</ele>
        <time>2013-07-03T12:13:54Z</time>
      </trkpt>
      <trkpt lat="40.197117" lon="-4.891417">
        <ele>1912.0</ele>
        <time>2013-07-03T12:13:55Z</time>
      </trkpt>
      <trkpt lat="40.197033" lon="-4.891333">
        <ele>1910.0</ele>
        <time>2013-07-03T12:13:56Z</time>
      </trkpt>
      <trkpt lat="40.196967" lon="-4.891267">
        <ele>1910.0</ele>
        <time>2013-07-03T12:13:57Z</time>
      </trkpt>
      <trkpt lat="40.196917" lon="-4.891200">
        <ele>1909.0</ele>
        <time>2013-07-03T12:13:58Z</time>
      </trkpt>
      <trkpt lat="40.196867" lon="-4.891133">
        <ele>1908.0</ele>
        <time>2013-07-03T12:13:59Z</time>
      </trkpt>
      <trkpt lat="40.196817" lon="-4.891067">
        <ele>1906.0</ele>
        <time>2013-07-03T12:14:00Z</time>
      </trkpt>
      <trkpt lat="40.196783" lon="-4.890983">
        <ele>1903.0</ele>
        <time>2013-07-03T12:14:01Z</time>
      </trkpt>
      <trkpt lat="40.196733" lon="-4.890883">
        <ele>1901.0</ele>
        <time>2013-07-03T12:14:02Z</time>
      </trkpt>
      <trkpt lat="40.196683" lon="-4.890800">
        <ele>1899.0</ele>
        <time>2013-07-03T12:14:03Z</time>
      </trkpt>
      <trkpt lat="40.196617" lon="-4.890717">
        <ele>1898.0</ele>
        <time>2013-07-03T12:14:04Z</time>
      </trkpt>
      <trkpt lat="40.196567" lon="-4.890667">
        <ele>1899.0</ele>
        <time>2013-07-03T12:14:05Z</time>
      </trkpt>
      <trkpt lat="40.196517" lon="-4.890617">
        <ele>1899.0</ele>
        <time>2013-07-03T12:14:06Z</time>
      </trkpt>
      <trkpt lat="40.196483" lon="-4.890550">
        <ele>1899.0</ele>
        <time>2013-07-03T12:14:07Z</time>
      </trkpt>
      <trkpt lat="40.196433" lon="-4.890500">
        <ele>1900.0</ele>
        <time>2013-07-03T12:14:08Z</time>
      </trkpt>
      <trkpt lat="40.196400" lon="-4.890483">
        <ele>1901.0</ele>
        <time>2013-07-03T12:14:09Z</time>
      </trkpt>
      <trkpt lat="40.196367" lon="-4.890467">
        <ele>1903.0</ele>
        <time>2013-07-03T12:14:10Z</time>
      </trkpt>
      <trkpt lat="40.196333" lon="-4.890450">
        <ele>1904.0</ele>
        <time>2013-07-03T12:14:11Z</time>
      </trkpt>
      <trkpt lat="40.196300" lon="-4.890433">
        <ele>1904.0</ele>
        <time>2013-07-03T12:14:12Z</time>
      </trkpt>
      <trkpt lat="40.196267" lon="-4.890383">
        <ele>1904.0</ele>
        <time>2013-07-03T12:14:13Z</time>
      </trkpt>
      <trkpt lat="40.196233" lon="-4.890333">
        <ele>1904.0</ele>
        <time>2013-07-03T12:14:14Z</time>
      </trkpt>
      <trkpt lat="40.196217" lon="-4.890283">
        <ele>1904.0</ele>
        <time>2013-07-03T12:14:15Z</time>
      </trkpt>
      <trkpt lat="40.196200" lon="-4.890233">
        <ele>1904.0</ele>
        <time>2013-07-03T12:14:16Z</time>
      </trkpt>
      <trkpt lat="40.196200" lon="-4.890150">
        <ele>1903.0</ele>
        <time>2013-07-03T12:14:17Z</time>
      </trkpt>
      <trkpt lat="40.196200" lon="-4.890083">
        <ele>1903.0</ele>
        <time>2013-07-03T12:14:18Z</time>
      </trkpt>
      <trkpt lat="40.196200" lon="-4.890000">
        <ele>1902.0</ele>
        <time>2013-07-03T12:14:19Z</time>
      </trkpt>
      <trkpt lat="40.196183" lon="-4.889917">
        <ele>1902.0</ele>
        <time>2013-07-03T12:14:20Z</time>
      </trkpt>
      <trkpt lat="40.196183" lon="-4.889850">
        <ele>1902.0</ele>
        <time>2013-07-03T12:14:21Z</time>
      </trkpt>
      <trkpt lat="40.196183" lon="-4.889767">
        <ele>1901.0</ele>
        <time>2013-07-03T12:14:22Z</time>
      </trkpt>
      <trkpt lat="40.196200" lon="-4.889683">
        <ele>1900.0</ele>
        <time>2013-07-03T12:14:23Z</time>
      </trkpt>
      <trkpt lat="40.196217" lon="-4.889583">
        <ele>1900.0</ele>
        <time>2013-07-03T12:14:24Z</time>
      </trkpt>
      <trkpt lat="40.196233" lon="-4.889483">
        <ele>1899.0</ele>
        <time>2013-07-03T12:14:25Z</time>
      </trkpt>
      <trkpt lat="40.196250" lon="-4.889383">
        <ele>1899.0</ele>
        <time>2013-07-03T12:14:26Z</time>
      </trkpt>
      <trkpt lat="40.196250" lon="-4.889267">
        <ele>1899.0</ele>
        <time>2013-07-03T12:14:27Z</time>
      </trkpt>
      <trkpt lat="40.196250" lon="-4.889167">
        <ele>1899.0</ele>
        <time>2013-07-03T12:14:28Z</time>
      </trkpt>
      <trkpt lat="40.196233" lon="-4.889067">
        <ele>1900.0</ele>
        <time>2013-07-03T12:14:29Z</time>
      </trkpt>
      <trkpt lat="40.196217" lon="-4.889000">
        <ele>1902.0</ele>
        <time>2013-07-03T12:14:30Z</time>
      </trkpt>
      <trkpt lat="40.196217" lon="-4.888917">
        <ele>1903.0</ele>
        <time>2013-07-03T12:14:31Z</time>
      </trkpt>
      <trkpt lat="40.196217" lon="-4.888867">
        <ele>1905.0</ele>
        <time>2013-07-03T12:14:32Z</time>
      </trkpt>
      <trkpt lat="40.196217" lon="-4.888817">
        <ele>1905.0</ele>
        <time>2013-07-03T12:14:33Z</time>
      </trkpt>
      <trkpt lat="40.196217" lon="-4.888750">
        <ele>1905.0</ele>
        <time>2013-07-03T12:14:34Z</time>
      </trkpt>
      <trkpt lat="40.196200" lon="-4.888700">
        <ele>1906.0</ele>
        <time>2013-07-03T12:14:35Z</time>
      </trkpt>
      <trkpt lat="40.196183" lon="-4.888667">
        <ele>1905.0</ele>
        <time>2013-07-03T12:14:36Z</time>
      </trkpt>
      <trkpt lat="40.196133" lon="-4.888633">
        <ele>1905.0</ele>
        <time>2013-07-03T12:14:37Z</time>
      </trkpt>
      <trkpt lat="40.196083" lon="-4.888633">
        <ele>1905.0</ele>
        <time>2013-07-03T12:14:38Z</time>
      </trkpt>
      <trkpt lat="40.196033" lon="-4.888667">
        <ele>1904.0</ele>
        <time>2013-07-03T12:14:39Z</time>
      </trkpt>
      <trkpt lat="40.195967" lon="-4.888700">
        <ele>1904.0</ele>
        <time>2013-07-03T12:14:40Z</time>
      </trkpt>
      <trkpt lat="40.195917" lon="-4.888767">
        <ele>1904.0</ele>
        <time>2013-07-03T12:14:41Z</time>
      </trkpt>
      <trkpt lat="40.195850" lon="-4.888817">
        <ele>1903.0</ele>
        <time>2013-07-03T12:14:42Z</time>
      </trkpt>
      <trkpt lat="40.195783" lon="-4.888883">
        <ele>1902.0</ele>
        <time>2013-07-03T12:14:43Z</time>
      </trkpt>
      <trkpt lat="40.195683" lon="-4.888933">
        <ele>1902.0</ele>
        <time>2013-07-03T12:14:44Z</time>
      </trkpt>
      <trkpt lat="40.195600" lon="-4.888983">
        <ele>1902.0</ele>
        <time>2013-07-03T12:14:45Z</time>
      </trkpt>
      <trkpt lat="40.195533" lon="-4.889033">
        <ele>1903.0</ele>
        <time>2013-07-03T12:14:46Z</time>
      </trkpt>
      <trkpt lat="40.195467" lon="-4.889083">
        <ele>1902.0</ele>
        <time>2013-07-03T12:14:47Z</time>
      </trkpt>
      <trkpt lat="40.195400" lon="-4.889133">
        <ele>1901.0</ele>
        <time>2013-07-03T12:14:48Z</time>
      </trkpt>
      <trkpt lat="40.195333" lon="-4.889200">
        <ele>1899.0</ele>
        <time>2013-07-03T12:14:49Z</time>
      </trkpt>
      <trkpt lat="40.195250" lon="-4.889250">
        <ele>1897.0</ele>
        <time>2013-07-03T12:14:50Z</time>
      </trkpt>
      <trkpt lat="40.195167" lon="-4.889300">
        <ele>1896.0</ele>
        <time>2013-07-03T12:14:51Z</time>
      </trkpt>
      <trkpt lat="40.195083" lon="-4.889350">
        <ele>1896.0</ele>
        <time>2013-07-03T12:14:52Z</time>
      </trkpt>
      <trkpt lat="40.195000" lon="-4.889383">
        <ele>1895.0</ele>
        <time>2013-07-03T12:14:53Z</time>
      </trkpt>
      <trkpt lat="40.194917" lon="-4.889400">
        <ele>1894.0</ele>
        <time>2013-07-03T12:14:54Z</time>
      </trkpt>
      <trkpt lat="40.194833" lon="-4.889433">
        <ele>1892.0</ele>
        <time>2013-07-03T12:14:55Z</time>
      </trkpt>
      <trkpt lat="40.194750" lon="-4.889433">
        <ele>1890.0</ele>
        <time>2013-07-03T12:14:56Z</time>
      </trkpt>
      <trkpt lat="40.194650" lon="-4.889417">
        <ele>1889.0</ele>
        <time>2013-07-03T12:14:57Z</time>
      </trkpt>
      <trkpt lat="40.194550" lon="-4.889417">
        <ele>1890.0</ele>
        <time>2013-07-03T12:14:58Z</time>
      </trkpt>
      <trkpt lat="40.194450" lon="-4.889417">
        <ele>1891.0</ele>
        <time>2013-07-03T12:14:59Z</time>
      </trkpt>
      <trkpt lat="40.194367" lon="-4.889433">
        <ele>1892.0</ele>
        <time>2013-07-03T12:15:00Z</time>
      </trkpt>
      <trkpt lat="40.194283" lon="-4.889450">
        <ele>1893.0</ele>
        <time>2013-07-03T12:15:01Z</time>
      </trkpt>
      <trkpt lat="40.194200" lon="-4.889450">
        <ele>1894.0</ele>
        <time>2013-07-03T12:15:02Z</time>
      </trkpt>
      <trkpt lat="40.194117" lon="-4.889433">
        <ele>1896.0</ele>
        <time>2013-07-03T12:15:03Z</time>
      </trkpt>
      <trkpt lat="40.194050" lon="-4.889417">
        <ele>1897.0</ele>
        <time>2013-07-03T12:15:04Z</time>
      </trkpt>
      <trkpt lat="40.194000" lon="-4.889367">
        <ele>1898.0</ele>
        <time>2013-07-03T12:15:05Z</time>
      </trkpt>
      <trkpt lat="40.193967" lon="-4.889317">
        <ele>1899.0</ele>
        <time>2013-07-03T12:15:06Z</time>
      </trkpt>
      <trkpt lat="40.193917" lon="-4.889250">
        <ele>1900.0</ele>
        <time>2013-07-03T12:15:07Z</time>
      </trkpt>
      <trkpt lat="40.193900" lon="-4.889183">
        <ele>1900.0</ele>
        <time>2013-07-03T12:15:08Z</time>
      </trkpt>
      <trkpt lat="40.193883" lon="-4.889100">
        <ele>1901.0</ele>
        <time>2013-07-03T12:15:09Z</time>
      </trkpt>
      <trkpt lat="40.193883" lon="-4.889000">
        <ele>1901.0</ele>
        <time>2013-07-03T12:15:10Z</time>
      </trkpt>
      <trkpt lat="40.193933" lon="-4.888933">
        <ele>1902.0</ele>
        <time>2013-07-03T12:15:11Z</time>
      </trkpt>
      <trkpt lat="40.193983" lon="-4.888867">
        <ele>1902.0</ele>
        <time>2013-07-03T12:15:12Z</time>
      </trkpt>
      <trkpt lat="40.194050" lon="-4.888817">
        <ele>1903.0</ele>
        <time>2013-07-03T12:15:13Z</time>
      </trkpt>
      <trkpt lat="40.194133" lon="-4.888800">
        <ele>1904.0</ele>
        <time>2013-07-03T12:15:14Z</time>
      </trkpt>
      <trkpt lat="40.194200" lon="-4.888800">
        <ele>1904.0</ele>
        <time>2013-07-03T12:15:15Z</time>
      </trkpt>
      <trkpt lat="40.194283" lon="-4.888817">
        <ele>1904.0</ele>
        <time>2013-07-03T12:15:16Z</time>
      </trkpt>
      <trkpt lat="40.194350" lon="-4.888867">
        <ele>1904.0</ele>
        <time>2013-07-03T12:15:17Z</time>
      </trkpt>
      <trkpt lat="40.194400" lon="-4.888933">
        <ele>1904.0</ele>
        <time>2013-07-03T12:15:18Z</time>
      </trkpt>
      <trkpt lat="40.194450" lon="-4.889017">
        <ele>1904.0</ele>
        <time>2013-07-03T12:15:19Z</time>
      </trkpt>
      <trkpt lat="40.194467" lon="-4.889117">
        <ele>1904.0</ele>
        <time>2013-07-03T12:15:20Z</time>
      </trkpt>
      <trkpt lat="40.194483" lon="-4.889233">
        <ele>1904.0</ele>
        <time>2013-07-03T12:15:21Z</time>
      </trkpt>
      <trkpt lat="40.194500" lon="-4.889333">
        <ele>1905.0</ele>
        <time>2013-07-03T12:15:22Z</time>
      </trkpt>
      <trkpt lat="40.194500" lon="-4.889433">
        <ele>1907.0</ele>
        <time>2013-07-03T12:15:23Z</time>
      </trkpt>
      <trkpt lat="40.194500" lon="-4.889533">
        <ele>1908.0</ele>
        <time>2013-07-03T12:15:24Z</time>
      </trkpt>
      <trkpt lat="40.194483" lon="-4.889617">
        <ele>1908.0</ele>
        <time>2013-07-03T12:15:25Z</time>
      </trkpt>
      <trkpt lat="40.194450" lon="-4.889717">
        <ele>1908.0</ele>
        <time>2013-07-03T12:15:26Z</time>
      </trkpt>
      <trkpt lat="40.194400" lon="-4.889800">
        <ele>1908.0</ele>
        <time>2013-07-03T12:15:27Z</time>
      </trkpt>
      <trkpt lat="40.194350" lon="-4.889883">
        <ele>1909.0</ele>
        <time>2013-07-03T12:15:28Z</time>
      </trkpt>
      <trkpt lat="40.194283" lon="-4.889950">
        <ele>1909.0</ele>
        <time>2013-07-03T12:15:29Z</time>
      </trkpt>
      <trkpt lat="40.194217" lon="-4.890000">
        <ele>1910.0</ele>
        <time>2013-07-03T12:15:30Z</time>
      </trkpt>
      <trkpt lat="40.194167" lon="-4.890033">
        <ele>1910.0</ele>
        <time>2013-07-03T12:15:31Z</time>
      </trkpt>
      <trkpt lat="40.194100" lon="-4.890050">
        <ele>1911.0</ele>
        <time>2013-07-03T12:15:32Z</time>
      </trkpt>
      <trkpt lat="40.194033" lon="-4.890067">
        <ele>1911.0</ele>
        <time>2013-07-03T12:15:33Z</time>
      </trkpt>
      <trkpt lat="40.193967" lon="-4.890050">
        <ele>1912.0</ele>
        <time>2013-07-03T12:15:34Z</time>
      </trkpt>
      <trkpt lat="40.193900" lon="-4.890050">
        <ele>1913.0</ele>
        <time>2013-07-03T12:15:35Z</time>
      </trkpt>
      <trkpt lat="40.193850" lon="-4.890017">
        <ele>1913.0</ele>
        <time>2013-07-03T12:15:36Z</time>
      </trkpt>
      <trkpt lat="40.193800" lon="-4.889983">
        <ele>1914.0</ele>
        <time>2013-07-03T12:15:37Z</time>
      </trkpt>
      <trkpt lat="40.193750" lon="-4.889933">
        <ele>1915.0</ele>
        <time>2013-07-03T12:15:38Z</time>
      </trkpt>
      <trkpt lat="40.193717" lon="-4.889883">
        <ele>1915.0</ele>
        <time>2013-07-03T12:15:39Z</time>
      </trkpt>
      <trkpt lat="40.193683" lon="-4.889817">
        <ele>1916.0</ele>
        <time>2013-07-03T12:15:40Z</time>
      </trkpt>
      <trkpt lat="40.193667" lon="-4.889750">
        <ele>1916.0</ele>
        <time>2013-07-03T12:15:41Z</time>
      </trkpt>
      <trkpt lat="40.193650" lon="-4.889683">
        <ele>1917.0</ele>
        <time>2013-07-03T12:15:42Z</time>
      </trkpt>
      <trkpt lat="40.193633" lon="-4.889617">
        <ele>1917.0</ele>
        <time>2013-07-03T12:15:43Z</time>
      </trkpt>
      <trkpt lat="40.193633" lon="-4.889550">
        <ele>1917.0</ele>
        <time>2013-07-03T12:15:44Z</time>
      </trkpt>
      <trkpt lat="40.193633" lon="-4.889467">
        <ele>1917.0</ele>
        <time>2013-07-03T12:15:45Z</time>
      </trkpt>
      <trkpt lat="40.193650" lon="-4.889383">
        <ele>1918.0</ele>
        <time>2013-07-03T12:15:46Z</time>
      </trkpt>
      <trkpt lat="40.193667" lon="-4.889300">
        <ele>1919.0</ele>
        <time>2013-07-03T12:15:47Z</time>
      </trkpt>
      <trkpt lat="40.193683" lon="-4.889233">
        <ele>1920.0</ele>
        <time>2013-07-03T12:15:48Z</time>
      </trkpt>
      <trkpt lat="40.193717" lon="-4.889167">
        <ele>1921.0</ele>
        <time>2013-07-03T12:15:49Z</time>
      </trkpt>
      <trkpt lat="40.193750" lon="-4.889100">
        <ele>1922.0</ele>
        <time>2013-07-03T12:15:50Z</time>
      </trkpt>
      <trkpt lat="40.193783" lon="-4.889033">
        <ele>1922.0</ele>
        <time>2013-07-03T12:15:51Z</time>
      </trkpt>
      <trkpt lat="40.193817" lon="-4.888983">
        <ele>1922.0</ele>
        <time>2013-07-03T12:15:52Z</time>
      </trkpt>
      <trkpt lat="40.193867" lon="-4.888917">
        <ele>1921.0</ele>
        <time>2013-07-03T12:15:53Z</time>
      </trkpt>
      <trkpt lat="40.193917" lon="-4.888883">
        <ele>1920.0</ele>
        <time>2013-07-03T12:15:54Z</time>
      </trkpt>
      <trkpt lat="40.194000" lon="-4.888850">
        <ele>1919.0</ele>
        <time>2013-07-03T12:15:55Z</time>
      </trkpt>
      <trkpt lat="40.194067" lon="-4.888833">
        <ele>1918.0</ele>
        <time>2013-07-03T12:15:56Z</time>
      </trkpt>
      <trkpt lat="40.194150" lon="-4.888850">
        <ele>1918.0</ele>
        <time>2013-07-03T12:15:57Z</time>
      </trkpt>
      <trkpt lat="40.194233" lon="-4.888883">
        <ele>1918.0</ele>
        <time>2013-07-03T12:15:58Z</time>
      </trkpt>
      <trkpt lat="40.194300" lon="-4.888917">
        <ele>1918.0</ele>
        <time>2013-07-03T12:15:59Z</time>
      </trkpt>
      <trkpt lat="40.194367" lon="-4.888983">
        <ele>1918.0</ele>
        <time>2013-07-03T12:16:00Z</time>
      </trkpt>
      <trkpt lat="40.194417" lon="-4.889050">
        <ele>1918.0</ele>
        <time>2013-07-03T12:16:01Z</time>
      </trkpt>
      <trkpt lat="40.194483" lon="-4.889150">
        <ele>1917.0</ele>
        <time>2013-07-03T12:16:02Z</time>
      </trkpt>
      <trkpt lat="40.194517" lon="-4.889250">
        <ele>1916.0</ele>
        <time>2013-07-03T12:16:03Z</time>
      </trkpt>
      <trkpt lat="40.194550" lon="-4.889383">
        <ele>1916.0</ele>
        <time>2013-07-03T12:16:04Z</time>
      </trkpt>
      <trkpt lat="40.194550" lon="-4.889500">
        <ele>1916.0</ele>
        <time>2013-07-03T12:16:05Z</time>
      </trkpt>
      <trkpt lat="40.194550" lon="-4.889617">
        <ele>1916.0</ele>
        <time>2013-07-03T12:16:06Z</time>
      </trkpt>
      <trkpt lat="40.194517" lon="-4.889733">
        <ele>1917.0</ele>
        <time>2013-07-03T12:16:07Z</time>
      </trkpt>
      <trkpt lat="40.194483" lon="-4.889817">
        <ele>1918.0</ele>
        <time>2013-07-03T12:16:08Z</time>
      </trkpt>
      <trkpt lat="40.194433" lon="-4.889900">
        <ele>1919.0</ele>
        <time>2013-07-03T12:16:09Z</time>
      </trkpt>
      <trkpt lat="40.194383" lon="-4.889983">
        <ele>1919.0</ele>
        <time>2013-07-03T12:16:10Z</time>
      </trkpt>
      <trkpt lat="40.194317" lon="-4.890017">
        <ele>1920.0</ele>
        <time>2013-07-03T12:16:11Z</time>
      </trkpt>
      <trkpt lat="40.194250" lon="-4.890050">
        <ele>1921.0</ele>
        <time>2013-07-03T12:16:12Z</time>
      </trkpt>
      <trkpt lat="40.194183" lon="-4.890067">
        <ele>1921.0</ele>
        <time>2013-07-03T12:16:13Z</time>
      </trkpt>
      <trkpt lat="40.194117" lon="-4.890067">
        <ele>1922.0</ele>
        <time>2013-07-03T12:16:14Z</time>
      </trkpt>
      <trkpt lat="40.194050" lon="-4.890050">
        <ele>1922.0</ele>
        <time>2013-07-03T12:16:15Z</time>
      </trkpt>
      <trkpt lat="40.194000" lon="-4.890033">
        <ele>1922.0</ele>
        <time>2013-07-03T12:16:16Z</time>
      </trkpt>
      <trkpt lat="40.193933" lon="-4.890017">
        <ele>1923.0</ele>
        <time>2013-07-03T12:16:17Z</time>
      </trkpt>
      <trkpt lat="40.193883" lon="-4.889983">
        <ele>1923.0</ele>
        <time>2013-07-03T12:16:18Z</time>
      </trkpt>
      <trkpt lat="40.193817" lon="-4.889950">
        <ele>1924.0</ele>
        <time>2013-07-03T12:16:19Z</time>
      </trkpt>
      <trkpt lat="40.193783" lon="-4.889917">
        <ele>1924.0</ele>
        <time>2013-07-03T12:16:20Z</time>
      </trkpt>
      <trkpt lat="40.193733" lon="-4.889867">
        <ele>1925.0</ele>
        <time>2013-07-03T12:16:21Z</time>
      </trkpt>
      <trkpt lat="40.193700" lon="-4.889817">
        <ele>1925.0</ele>
        <time>2013-07-03T12:16:22Z</time>
      </trkpt>
      <trkpt lat="40.193650" lon="-4.889767">
        <ele>1925.0</ele>
        <time>2013-07-03T12:16:23Z</time>
      </trkpt>
      <trkpt lat="40.193633" lon="-4.889717">
        <ele>1925.0</ele>
        <time>2013-07-03T12:16:24Z</time>
      </trkpt>
      <trkpt lat="40.193617" lon="-4.889633">
        <ele>1924.0</ele>
        <time>2013-07-03T12:16:25Z</time>
      </trkpt>
      <trkpt lat="40.193600" lon="-4.889567">
        <ele>1924.0</ele>
        <time>2013-07-03T12:16:26Z</time>
      </trkpt>
      <trkpt lat="40.193617" lon="-4.889483">
        <ele>1923.0</ele>
        <time>2013-07-03T12:16:27Z</time>
      </trkpt>
      <trkpt lat="40.193617" lon="-4.889417">
        <ele>1923.0</ele>
        <time>2013-07-03T12:16:28Z</time>
      </trkpt>
      <trkpt lat="40.193617" lon="-4.889333">
        <ele>1921.0</ele>
        <time>2013-07-03T12:16:29Z</time>
      </trkpt>
      <trkpt lat="40.193617" lon="-4.889250">
        <ele>1920.0</ele>
        <time>2013-07-03T12:16:30Z</time>
      </trkpt>
      <trkpt lat="40.193617" lon="-4.889150">
        <ele>1919.0</ele>
        <time>2013-07-03T12:16:31Z</time>
      </trkpt>
      <trkpt lat="40.193600" lon="-4.889050">
        <ele>1919.0</ele>
        <time>2013-07-03T12:16:32Z</time>
      </trkpt>
      <trkpt lat="40.193600" lon="-4.888950">
        <ele>1920.0</ele>
        <time>2013-07-03T12:16:33Z</time>
      </trkpt>
      <trkpt lat="40.193583" lon="-4.888850">
        <ele>1920.0</ele>
        <time>2013-07-03T12:16:34Z</time>
      </trkpt>
      <trkpt lat="40.193600" lon="-4.888750">
        <ele>1921.0</ele>
        <time>2013-07-03T12:16:35Z</time>
      </trkpt>
      <trkpt lat="40.193600" lon="-4.888667">
        <ele>1922.0</ele>
        <time>2013-07-03T12:16:36Z</time>
      </trkpt>
      <trkpt lat="40.193617" lon="-4.888600">
        <ele>1923.0</ele>
        <time>2013-07-03T12:16:37Z</time>
      </trkpt>
      <trkpt lat="40.193633" lon="-4.888517">
        <ele>1923.0</ele>
        <time>2013-07-03T12:16:38Z</time>
      </trkpt>
      <trkpt lat="40.193633" lon="-4.888450">
        <ele>1924.0</ele>
        <time>2013-07-03T12:16:39Z</time>
      </trkpt>
      <trkpt lat="40.193633" lon="-4.888367">
        <ele>1924.0</ele>
        <time>2013-07-03T12:16:40Z</time>
      </trkpt>
      <trkpt lat="40.193617" lon="-4.888283">
        <ele>1924.0</ele>
        <time>2013-07-03T12:16:41Z</time>
      </trkpt>
      <trkpt lat="40.193600" lon="-4.888217">
        <ele>1925.0</ele>
        <time>2013-07-03T12:16:42Z</time>
      </trkpt>
      <trkpt lat="40.193567" lon="-4.888167">
        <ele>1925.0</ele>
        <time>2013-07-03T12:16:43Z</time>
      </trkpt>
      <trkpt lat="40.193533" lon="-4.888117">
        <ele>1924.0</ele>
        <time>2013-07-03T12:16:44Z</time>
      </trkpt>
      <trkpt lat="40.193483" lon="-4.888083">
        <ele>1923.0</ele>
        <time>2013-07-03T12:16:45Z</time>
      </trkpt>
      <trkpt lat="40.193433" lon="-4.888050">
        <ele>1922.0</ele>
        <time>2013-07-03T12:16:46Z</time>
      </trkpt>
      <trkpt lat="40.193383" lon="-4.888017">
        <ele>1920.0</ele>
        <time>2013-07-03T12:16:47Z</time>
      </trkpt>
      <trkpt lat="40.193317" lon="-4.887950">
        <ele>1918.0</ele>
        <time>2013-07-03T12:16:48Z</time>
      </trkpt>
      <trkpt lat="40.193250" lon="-4.887867">
        <ele>1916.0</ele>
        <time>2013-07-03T12:16:49Z</time>
      </trkpt>
      <trkpt lat="40.193183" lon="-4.887783">
        <ele>1915.0</ele>
        <time>2013-07-03T12:16:50Z</time>
      </trkpt>
      <trkpt lat="40.193117" lon="-4.887717">
        <ele>1916.0</ele>
        <time>2013-07-03T12:16:51Z</time>
      </trkpt>
      <trkpt lat="40.193050" lon="-4.887667">
        <ele>1916.0</ele>
        <time>2013-07-03T12:16:52Z</time>
      </trkpt>
      <trkpt lat="40.192983" lon="-4.887617">
        <ele>1916.0</ele>
        <time>2013-07-03T12:16:53Z</time>
      </trkpt>
      <trkpt lat="40.192917" lon="-4.887567">
        <ele>1916.0</ele>
        <time>2013-07-03T12:16:54Z</time>
      </trkpt>
      <trkpt lat="40.192850" lon="-4.887483">
        <ele>1914.0</ele>
        <time>2013-07-03T12:16:55Z</time>
      </trkpt>
      <trkpt lat="40.192800" lon="-4.887400">
        <ele>1913.0</ele>
        <time>2013-07-03T12:16:56Z</time>
      </trkpt>
      <trkpt lat="40.192733" lon="-4.887317">
        <ele>1913.0</ele>
        <time>2013-07-03T12:16:57Z</time>
      </trkpt>
      <trkpt lat="40.192667" lon="-4.887267">
        <ele>1914.0</ele>
        <time>2013-07-03T12:16:58Z</time>
      </trkpt>
      <trkpt lat="40.192617" lon="-4.887200">
        <ele>1914.0</ele>
        <time>2013-07-03T12:16:59Z</time>
      </trkpt>
      <trkpt lat="40.192567" lon="-4.887150">
        <ele>1915.0</ele>
        <time>2013-07-03T12:17:00Z</time>
      </trkpt>
      <trkpt lat="40.192517" lon="-4.887083">
        <ele>1915.0</ele>
        <time>2013-07-03T12:17:01Z</time>
      </trkpt>
      <trkpt lat="40.192500" lon="-4.887033">
        <ele>1916.0</ele>
        <time>2013-07-03T12:17:02Z</time>
      </trkpt>
      <trkpt lat="40.192483" lon="-4.886983">
        <ele>1916.0</ele>
        <time>2013-07-03T12:17:03Z</time>
      </trkpt>
      <trkpt lat="40.192467" lon="-4.886933">
        <ele>1916.0</ele>
        <time>2013-07-03T12:17:04Z</time>
      </trkpt>
      <trkpt lat="40.192467" lon="-4.886867">
        <ele>1916.0</ele>
        <time>2013-07-03T12:17:05Z</time>
      </trkpt>
      <trkpt lat="40.192483" lon="-4.886800">
        <ele>1915.0</ele>
        <time>2013-07-03T12:17:06Z</time>
      </trkpt>
      <trkpt lat="40.192483" lon="-4.886733">
        <ele>1915.0</ele>
        <time>2013-07-03T12:17:07Z</time>
      </trkpt>
      <trkpt lat="40.192483" lon="-4.886650">
        <ele>1915.0</ele>
        <time>2013-07-03T12:17:08Z</time>
      </trkpt>
      <trkpt lat="40.192483" lon="-4.886567">
        <ele>1914.0</ele>
        <time>2013-07-03T12:17:09Z</time>
      </trkpt>
      <trkpt lat="40.192483" lon="-4.886483">
        <ele>1914.0</ele>
        <time>2013-07-03T12:17:10Z</time>
      </trkpt>
      <trkpt lat="40.192467" lon="-4.886417">
        <ele>1913.0</ele>
        <time>2013-07-03T12:17:11Z</time>
      </trkpt>
      <trkpt lat="40.192450" lon="-4.886333">
        <ele>1913.0</ele>
        <time>2013-07-03T12:17:12Z</time>
      </trkpt>
      <trkpt lat="40.192417" lon="-4.886267">
        <ele>1911.0</ele>
        <time>2013-07-03T12:17:13Z</time>
      </trkpt>
      <trkpt lat="40.192383" lon="-4.886200">
        <ele>1910.0</ele>
        <time>2013-07-03T12:17:14Z</time>
      </trkpt>
      <trkpt lat="40.192350" lon="-4.886117">
        <ele>1907.0</ele>
        <time>2013-07-03T12:17:15Z</time>
      </trkpt>
      <trkpt lat="40.192317" lon="-4.886033">
        <ele>1905.0</ele>
        <time>2013-07-03T12:17:16Z</time>
      </trkpt>
      <trkpt lat="40.192283" lon="-4.885950">
        <ele>1902.0</ele>
        <time>2013-07-03T12:17:17Z</time>
      </trkpt>
      <trkpt lat="40.192233" lon="-4.885883">
        <ele>1900.0</ele>
        <time>2013-07-03T12:17:18Z</time>
      </trkpt>
      <trkpt lat="40.192183" lon="-4.885800">
        <ele>1898.0</ele>
        <time>2013-07-03T12:17:19Z</time>
      </trkpt>
      <trkpt lat="40.192117" lon="-4.885733">
        <ele>1897.0</ele>
        <time>2013-07-03T12:17:20Z</time>
      </trkpt>
      <trkpt lat="40.192067" lon="-4.885667">
        <ele>1895.0</ele>
        <time>2013-07-03T12:17:21Z</time>
      </trkpt>
      <trkpt lat="40.192000" lon="-4.885600">
        <ele>1892.0</ele>
        <time>2013-07-03T12:17:22Z</time>
      </trkpt>
      <trkpt lat="40.191933" lon="-4.885517">
        <ele>1890.0</ele>
        <time>2013-07-03T12:17:23Z</time>
      </trkpt>
      <trkpt lat="40.191867" lon="-4.885450">
        <ele>1886.0</ele>
        <time>2013-07-03T12:17:24Z</time>
      </trkpt>
      <trkpt lat="40.191800" lon="-4.885367">
        <ele>1884.0</ele>
        <time>2013-07-03T12:17:25Z</time>
      </trkpt>
      <trkpt lat="40.191733" lon="-4.885300">
        <ele>1881.0</ele>
        <time>2013-07-03T12:17:26Z</time>
      </trkpt>
      <trkpt lat="40.191683" lon="-4.885217">
        <ele>1879.0</ele>
        <time>2013-07-03T12:17:27Z</time>
      </trkpt>
      <trkpt lat="40.191633" lon="-4.885133">
        <ele>1877.0</ele>
        <time>2013-07-03T12:17:28Z</time>
      </trkpt>
      <trkpt lat="40.191583" lon="-4.885050">
        <ele>1875.0</ele>
        <time>2013-07-03T12:17:29Z</time>
      </trkpt>
      <trkpt lat="40.191533" lon="-4.884967">
        <ele>1873.0</ele>
        <time>2013-07-03T12:17:30Z</time>
      </trkpt>
      <trkpt lat="40.191500" lon="-4.884883">
        <ele>1871.0</ele>
        <time>2013-07-03T12:17:31Z</time>
      </trkpt>
      <trkpt lat="40.191467" lon="-4.884800">
        <ele>1868.0</ele>
        <time>2013-07-03T12:17:32Z</time>
      </trkpt>
      <trkpt lat="40.191433" lon="-4.884700">
        <ele>1866.0</ele>
        <time>2013-07-03T12:17:33Z</time>
      </trkpt>
      <trkpt lat="40.191400" lon="-4.884617">
        <ele>1863.0</ele>
        <time>2013-07-03T12:17:34Z</time>
      </trkpt>
      <trkpt lat="40.191367" lon="-4.884517">
        <ele>1861.0</ele>
        <time>2013-07-03T12:17:35Z</time>
      </trkpt>
      <trkpt lat="40.191350" lon="-4.884433">
        <ele>1858.0</ele>
        <time>2013-07-03T12:17:36Z</time>
      </trkpt>
      <trkpt lat="40.191317" lon="-4.884333">
        <ele>1855.0</ele>
        <time>2013-07-03T12:17:37Z</time>
      </trkpt>
      <trkpt lat="40.191300" lon="-4.884217">
        <ele>1852.0</ele>
        <time>2013-07-03T12:17:38Z</time>
      </trkpt>
      <trkpt lat="40.191267" lon="-4.884117">
        <ele>1850.0</ele>
        <time>2013-07-03T12:17:39Z</time>
      </trkpt>
      <trkpt lat="40.191233" lon="-4.884000">
        <ele>1848.0</ele>
        <time>2013-07-03T12:17:40Z</time>
      </trkpt>
      <trkpt lat="40.191200" lon="-4.883900">
        <ele>1846.0</ele>
        <time>2013-07-03T12:17:41Z</time>
      </trkpt>
      <trkpt lat="40.191150" lon="-4.883800">
        <ele>1843.0</ele>
        <time>2013-07-03T12:17:42Z</time>
      </trkpt>
      <trkpt lat="40.191117" lon="-4.883700">
        <ele>1839.0</ele>
        <time>2013-07-03T12:17:43Z</time>
      </trkpt>
      <trkpt lat="40.191050" lon="-4.883567">
        <ele>1835.0</ele>
        <time>2013-07-03T12:17:44Z</time>
      </trkpt>
      <trkpt lat="40.191000" lon="-4.883450">
        <ele>1831.0</ele>
        <time>2013-07-03T12:17:45Z</time>
      </trkpt>
      <trkpt lat="40.190933" lon="-4.883333">
        <ele>1829.0</ele>
        <time>2013-07-03T12:17:46Z</time>
      </trkpt>
      <trkpt lat="40.190883" lon="-4.883233">
        <ele>1826.0</ele>
        <time>2013-07-03T12:17:47Z</time>
      </trkpt>
      <trkpt lat="40.190833" lon="-4.883117">
        <ele>1825.0</ele>
        <time>2013-07-03T12:17:48Z</time>
      </trkpt>
      <trkpt lat="40.190783" lon="-4.883017">
        <ele>1823.0</ele>
        <time>2013-07-03T12:17:49Z</time>
      </trkpt>
      <trkpt lat="40.190717" lon="-4.882917">
        <ele>1822.0</ele>
        <time>2013-07-03T12:17:50Z</time>
      </trkpt>
      <trkpt lat="40.190650" lon="-4.882817">
        <ele>1821.0</ele>
        <time>2013-07-03T12:17:51Z</time>
      </trkpt>
      <trkpt lat="40.190583" lon="-4.882717">
        <ele>1820.0</ele>
        <time>2013-07-03T12:17:52Z</time>
      </trkpt>
      <trkpt lat="40.190533" lon="-4.882617">
        <ele>1818.0</ele>
        <time>2013-07-03T12:17:53Z</time>
      </trkpt>
      <trkpt lat="40.190467" lon="-4.882517">
        <ele>1815.0</ele>
        <time>2013-07-03T12:17:54Z</time>
      </trkpt>
      <trkpt lat="40.190417" lon="-4.882433">
        <ele>1812.0</ele>
        <time>2013-07-03T12:17:55Z</time>
      </trkpt>
      <trkpt lat="40.190367" lon="-4.882317">
        <ele>1808.0</ele>
        <time>2013-07-03T12:17:56Z</time>
      </trkpt>
      <trkpt lat="40.190317" lon="-4.882200">
        <ele>1803.0</ele>
        <time>2013-07-03T12:17:57Z</time>
      </trkpt>
      <trkpt lat="40.190267" lon="-4.882067">
        <ele>1799.0</ele>
        <time>2013-07-03T12:17:58Z</time>
      </trkpt>
      <trkpt lat="40.190200" lon="-4.881950">
        <ele>1795.0</ele>
        <time>2013-07-03T12:17:59Z</time>
      </trkpt>
      <trkpt lat="40.190133" lon="-4.881850">
        <ele>1792.0</ele>
        <time>2013-07-03T12:18:00Z</time>
      </trkpt>
      <trkpt lat="40.190067" lon="-4.881733">
        <ele>1789.0</ele>
        <time>2013-07-03T12:18:01Z</time>
      </trkpt>
      <trkpt lat="40.190000" lon="-4.881633">
        <ele>1786.0</ele>
        <time>2013-07-03T12:18:02Z</time>
      </trkpt>
      <trkpt lat="40.189933" lon="-4.881533">
        <ele>1783.0</ele>
        <time>2013-07-03T12:18:03Z</time>
      </trkpt>
      <trkpt lat="40.189867" lon="-4.881417">
        <ele>1780.0</ele>
        <time>2013-07-03T12:18:04Z</time>
      </trkpt>
      <trkpt lat="40.189783" lon="-4.881317">
        <ele>1777.0</ele>
        <time>2013-07-03T12:18:05Z</time>
      </trkpt>
      <trkpt lat="40.189717" lon="-4.881217">
        <ele>1774.0</ele>
        <time>2013-07-03T12:18:06Z</time>
      </trkpt>
      <trkpt lat="40.189633" lon="-4.881117">
        <ele>1772.0</ele>
        <time>2013-07-03T12:18:07Z</time>
      </trkpt>
      <trkpt lat="40.189567" lon="-4.881017">
        <ele>1769.0</ele>
        <time>2013-07-03T12:18:08Z</time>
      </trkpt>
      <trkpt lat="40.189483" lon="-4.880917">
        <ele>1767.0</ele>
        <time>2013-07-03T12:18:09Z</time>
      </trkpt>
      <trkpt lat="40.189417" lon="-4.880817">
        <ele>1764.0</ele>
        <time>2013-07-03T12:18:10Z</time>
      </trkpt>
      <trkpt lat="40.189333" lon="-4.880717">
        <ele>1761.0</ele>
        <time>2013-07-03T12:18:11Z</time>
      </trkpt>
      <trkpt lat="40.189267" lon="-4.880617">
        <ele>1758.0</ele>
        <time>2013-07-03T12:18:12Z</time>
      </trkpt>
      <trkpt lat="40.189183" lon="-4.880533">
        <ele>1755.0</ele>
        <time>2013-07-03T12:18:13Z</time>
      </trkpt>
      <trkpt lat="40.189117" lon="-4.880433">
        <ele>1753.0</ele>
        <time>2013-07-03T12:18:14Z</time>
      </trkpt>
      <trkpt lat="40.189033" lon="-4.880350">
        <ele>1750.0</ele>
        <time>2013-07-03T12:18:15Z</time>
      </trkpt>
      <trkpt lat="40.188950" lon="-4.880267">
        <ele>1747.0</ele>
        <time>2013-07-03T12:18:16Z</time>
      </trkpt>
      <trkpt lat="40.188867" lon="-4.880183">
        <ele>1744.0</ele>
        <time>2013-07-03T12:18:17Z</time>
      </trkpt>
      <trkpt lat="40.188783" lon="-4.880100">
        <ele>1741.0</ele>
        <time>2013-07-03T12:18:18Z</time>
      </trkpt>
      <trkpt lat="40.188683" lon="-4.880033">
        <ele>1739.0</ele>
        <time>2013-07-03T12:18:19Z</time>
      </trkpt>
      <trkpt lat="40.188600" lon="-4.879967">
        <ele>1737.0</ele>
        <time>2013-07-03T12:18:20Z</time>
      </trkpt>
      <trkpt lat="40.188517" lon="-4.879917">
        <ele>1735.0</ele>
        <time>2013-07-03T12:18:21Z</time>
      </trkpt>
      <trkpt lat="40.188433" lon="-4.879883">
        <ele>1732.0</ele>
        <time>2013-07-03T12:18:22Z</time>
      </trkpt>
      <trkpt lat="40.188333" lon="-4.879833">
        <ele>1729.0</ele>
        <time>2013-07-03T12:18:23Z</time>
      </trkpt>
      <trkpt lat="40.188233" lon="-4.879783">
        <ele>1726.0</ele>
        <time>2013-07-03T12:18:24Z</time>
      </trkpt>
      <trkpt lat="40.188133" lon="-4.879750">
        <ele>1723.0</ele>
        <time>2013-07-03T12:18:25Z</time>
      </trkpt>
      <trkpt lat="40.188050" lon="-4.879700">
        <ele>1721.0</ele>
        <time>2013-07-03T12:18:26Z</time>
      </trkpt>
      <trkpt lat="40.187967" lon="-4.879650">
        <ele>1719.0</ele>
        <time>2013-07-03T12:18:27Z</time>
      </trkpt>
      <trkpt lat="40.187867" lon="-4.879617">
        <ele>1716.0</ele>
        <time>2013-07-03T12:18:28Z</time>
      </trkpt>
      <trkpt lat="40.187783" lon="-4.879567">
        <ele>1713.0</ele>
        <time>2013-07-03T12:18:29Z</time>
      </trkpt>
      <trkpt lat="40.187683" lon="-4.879517">
        <ele>1710.0</ele>
        <time>2013-07-03T12:18:30Z</time>
      </trkpt>
      <trkpt lat="40.187600" lon="-4.879467">
        <ele>1707.0</ele>
        <time>2013-07-03T12:18:31Z</time>
      </trkpt>
      <trkpt lat="40.187500" lon="-4.879417">
        <ele>1704.0</ele>
        <time>2013-07-03T12:18:32Z</time>
      </trkpt>
      <trkpt lat="40.187400" lon="-4.879383">
        <ele>1702.0</ele>
        <time>2013-07-03T12:18:33Z</time>
      </trkpt>
      <trkpt lat="40.187317" lon="-4.879367">
        <ele>1700.0</ele>
        <time>2013-07-03T12:18:34Z</time>
      </trkpt>
      <trkpt lat="40.187217" lon="-4.879333">
        <ele>1698.0</ele>
        <time>2013-07-03T12:18:35Z</time>
      </trkpt>
      <trkpt lat="40.187133" lon="-4.879317">
        <ele>1696.0</ele>
        <time>2013-07-03T12:18:36Z</time>
      </trkpt>
      <trkpt lat="40.187050" lon="-4.879300">
        <ele>1694.0</ele>
        <time>2013-07-03T12:18:37Z</time>
      </trkpt>
      <trkpt lat="40.186950" lon="-4.879283">
        <ele>1691.0</ele>
        <time>2013-07-03T12:18:38Z</time>
      </trkpt>
      <trkpt lat="40.186867" lon="-4.879267">
        <ele>1689.0</ele>
        <time>2013-07-03T12:18:39Z</time>
      </trkpt>
      <trkpt lat="40.186783" lon="-4.879250">
        <ele>1687.0</ele>
        <time>2013-07-03T12:18:40Z</time>
      </trkpt>
      <trkpt lat="40.186700" lon="-4.879233">
        <ele>1685.0</ele>
        <time>2013-07-03T12:18:41Z</time>
      </trkpt>
      <trkpt lat="40.186600" lon="-4.879233">
        <ele>1681.0</ele>
        <time>2013-07-03T12:18:42Z</time>
      </trkpt>
      <trkpt lat="40.186500" lon="-4.879217">
        <ele>1678.0</ele>
        <time>2013-07-03T12:18:43Z</time>
      </trkpt>
      <trkpt lat="40.186417" lon="-4.879200">
        <ele>1674.0</ele>
        <time>2013-07-03T12:18:44Z</time>
      </trkpt>
      <trkpt lat="40.186317" lon="-4.879150">
        <ele>1671.0</ele>
        <time>2013-07-03T12:18:45Z</time>
      </trkpt>
      <trkpt lat="40.186217" lon="-4.879100">
        <ele>1667.0</ele>
        <time>2013-07-03T12:18:46Z</time>
      </trkpt>
      <trkpt lat="40.186133" lon="-4.879033">
        <ele>1664.0</ele>
        <time>2013-07-03T12:18:47Z</time>
      </trkpt>
      <trkpt lat="40.186033" lon="-4.878983">
        <ele>1660.0</ele>
        <time>2013-07-03T12:18:48Z</time>
      </trkpt>
      <trkpt lat="40.185933" lon="-4.878950">
        <ele>1655.0</ele>
        <time>2013-07-03T12:18:49Z</time>
      </trkpt>
      <trkpt lat="40.185833" lon="-4.878933">
        <ele>1651.0</ele>
        <time>2013-07-03T12:18:50Z</time>
      </trkpt>
      <trkpt lat="40.185733" lon="-4.878900">
        <ele>1647.0</ele>
        <time>2013-07-03T12:18:51Z</time>
      </trkpt>
      <trkpt lat="40.185633" lon="-4.878867">
        <ele>1643.0</ele>
        <time>2013-07-03T12:18:52Z</time>
      </trkpt>
      <trkpt lat="40.185517" lon="-4.878833">
        <ele>1640.0</ele>
        <time>2013-07-03T12:18:53Z</time>
      </trkpt>
      <trkpt lat="40.185417" lon="-4.878817">
        <ele>1637.0</ele>
        <time>2013-07-03T12:18:54Z</time>
      </trkpt>
      <trkpt lat="40.185300" lon="-4.878800">
        <ele>1634.0</ele>
        <time>2013-07-03T12:18:55Z</time>
      </trkpt>
      <trkpt lat="40.185183" lon="-4.878783">
        <ele>1631.0</ele>
        <time>2013-07-03T12:18:56Z</time>
      </trkpt>
      <trkpt lat="40.185083" lon="-4.878750">
        <ele>1628.0</ele>
        <time>2013-07-03T12:18:57Z</time>
      </trkpt>
      <trkpt lat="40.184983" lon="-4.878733">
        <ele>1626.0</ele>
        <time>2013-07-03T12:18:58Z</time>
      </trkpt>
      <trkpt lat="40.184883" lon="-4.878683">
        <ele>1624.0</ele>
        <time>2013-07-03T12:18:59Z</time>
      </trkpt>
      <trkpt lat="40.184783" lon="-4.878650">
        <ele>1622.0</ele>
        <time>2013-07-03T12:19:00Z</time>
      </trkpt>
      <trkpt lat="40.184700" lon="-4.878617">
        <ele>1620.0</ele>
        <time>2013-07-03T12:19:01Z</time>
      </trkpt>
      <trkpt lat="40.184600" lon="-4.878567">
        <ele>1617.0</ele>
        <time>2013-07-03T12:19:02Z</time>
      </trkpt>
      <trkpt lat="40.184517" lon="-4.878517">
        <ele>1615.0</ele>
        <time>2013-07-03T12:19:03Z</time>
      </trkpt>
      <trkpt lat="40.184433" lon="-4.878467">
        <ele>1612.0</ele>
        <time>2013-07-03T12:19:04Z</time>
      </trkpt>
      <trkpt lat="40.184333" lon="-4.878417">
        <ele>1610.0</ele>
        <time>2013-07-03T12:19:05Z</time>
      </trkpt>
      <trkpt lat="40.184250" lon="-4.878367">
        <ele>1607.0</ele>
        <time>2013-07-03T12:19:06Z</time>
      </trkpt>
      <trkpt lat="40.184167" lon="-4.878317">
        <ele>1604.0</ele>
        <time>2013-07-03T12:19:07Z</time>
      </trkpt>
      <trkpt lat="40.184067" lon="-4.878267">
        <ele>1600.0</ele>
        <time>2013-07-03T12:19:08Z</time>
      </trkpt>
      <trkpt lat="40.183967" lon="-4.878200">
        <ele>1597.0</ele>
        <time>2013-07-03T12:19:09Z</time>
      </trkpt>
      <trkpt lat="40.183867" lon="-4.878150">
        <ele>1595.0</ele>
        <time>2013-07-03T12:19:10Z</time>
      </trkpt>
      <trkpt lat="40.183767" lon="-4.878100">
        <ele>1593.0</ele>
        <time>2013-07-03T12:19:11Z</time>
      </trkpt>
      <trkpt lat="40.183667" lon="-4.878067">
        <ele>1591.0</ele>
        <time>2013-07-03T12:19:12Z</time>
      </trkpt>
      <trkpt lat="40.183583" lon="-4.878017">
        <ele>1589.0</ele>
        <time>2013-07-03T12:19:13Z</time>
      </trkpt>
      <trkpt lat="40.183483" lon="-4.877950">
        <ele>1587.0</ele>
        <time>2013-07-03T12:19:14Z</time>
      </trkpt>
      <trkpt lat="40.183400" lon="-4.877883">
        <ele>1586.0</ele>
        <time>2013-07-03T12:19:15Z</time>
      </trkpt>
      <trkpt lat="40.183333" lon="-4.877817">
        <ele>1585.0</ele>
        <time>2013-07-03T12:19:16Z</time>
      </trkpt>
      <trkpt lat="40.183233" lon="-4.877767">
        <ele>1583.0</ele>
        <time>2013-07-03T12:19:17Z</time>
      </trkpt>
      <trkpt lat="40.183150" lon="-4.877733">
        <ele>1581.0</ele>
        <time>2013-07-03T12:19:18Z</time>
      </trkpt>
      <trkpt lat="40.183050" lon="-4.877683">
        <ele>1579.0</ele>
        <time>2013-07-03T12:19:19Z</time>
      </trkpt>
      <trkpt lat="40.182967" lon="-4.877633">
        <ele>1577.0</ele>
        <time>2013-07-03T12:19:20Z</time>
      </trkpt>
      <trkpt lat="40.182883" lon="-4.877583">
        <ele>1576.0</ele>
        <time>2013-07-03T12:19:21Z</time>
      </trkpt>
      <trkpt lat="40.182783" lon="-4.877533">
        <ele>1574.0</ele>
        <time>2013-07-03T12:19:22Z</time>
      </trkpt>
      <trkpt lat="40.182700" lon="-4.877500">
        <ele>1572.0</ele>
        <time>2013-07-03T12:19:23Z</time>
      </trkpt>
      <trkpt lat="40.182617" lon="-4.877450">
        <ele>1570.0</ele>
        <time>2013-07-03T12:19:24Z</time>
      </trkpt>
      <trkpt lat="40.182533" lon="-4.877400">
        <ele>1568.0</ele>
        <time>2013-07-03T12:19:25Z</time>
      </trkpt>
      <trkpt lat="40.182450" lon="-4.877350">
        <ele>1566.0</ele>
        <time>2013-07-03T12:19:26Z</time>
      </trkpt>
      <trkpt lat="40.182367" lon="-4.877300">
        <ele>1563.0</ele>
        <time>2013-07-03T12:19:27Z</time>
      </trkpt>
      <trkpt lat="40.182267" lon="-4.877267">
        <ele>1560.0</ele>
        <time>2013-07-03T12:19:28Z</time>
      </trkpt>
      <trkpt lat="40.182183" lon="-4.877217">
        <ele>1558.0</ele>
        <time>2013-07-03T12:19:29Z</time>
      </trkpt>
      <trkpt lat="40.182100" lon="-4.877167">
        <ele>1555.0</ele>
        <time>2013-07-03T12:19:30Z</time>
      </trkpt>
      <trkpt lat="40.182017" lon="-4.877117">
        <ele>1553.0</ele>
        <time>2013-07-03T12:19:31Z</time>
      </trkpt>
      <trkpt lat="40.181950" lon="-4.877067">
        <ele>1551.0</ele>
        <time>2013-07-03T12:19:32Z</time>
      </trkpt>
      <trkpt lat="40.181850" lon="-4.877033">
        <ele>1548.0</ele>
        <time>2013-07-03T12:19:33Z</time>
      </trkpt>
      <trkpt lat="40.181767" lon="-4.877000">
        <ele>1545.0</ele>
        <time>2013-07-03T12:19:34Z</time>
      </trkpt>
      <trkpt lat="40.181667" lon="-4.876967">
        <ele>1541.0</ele>
        <time>2013-07-03T12:19:35Z</time>
      </trkpt>
      <trkpt lat="40.181583" lon="-4.876917">
        <ele>1539.0</ele>
        <time>2013-07-03T12:19:36Z</time>
      </trkpt>
      <trkpt lat="40.181483" lon="-4.876850">
        <ele>1536.0</ele>
        <time>2013-07-03T12:19:37Z</time>
      </trkpt>
      <trkpt lat="40.181383" lon="-4.876800">
        <ele>1535.0</ele>
        <time>2013-07-03T12:19:38Z</time>
      </trkpt>
      <trkpt lat="40.181300" lon="-4.876750">
        <ele>1534.0</ele>
        <time>2013-07-03T12:19:39Z</time>
      </trkpt>
      <trkpt lat="40.181200" lon="-4.876700">
        <ele>1533.0</ele>
        <time>2013-07-03T12:19:40Z</time>
      </trkpt>
      <trkpt lat="40.181117" lon="-4.876650">
        <ele>1533.0</ele>
        <time>2013-07-03T12:19:41Z</time>
      </trkpt>
      <trkpt lat="40.181033" lon="-4.876617">
        <ele>1532.0</ele>
        <time>2013-07-03T12:19:42Z</time>
      </trkpt>
      <trkpt lat="40.180967" lon="-4.876583">
        <ele>1530.0</ele>
        <time>2013-07-03T12:19:43Z</time>
      </trkpt>
      <trkpt lat="40.180900" lon="-4.876533">
        <ele>1528.0</ele>
        <time>2013-07-03T12:19:44Z</time>
      </trkpt>
      <trkpt lat="40.180817" lon="-4.876483">
        <ele>1524.0</ele>
        <time>2013-07-03T12:19:45Z</time>
      </trkpt>
      <trkpt lat="40.180717" lon="-4.876417">
        <ele>1520.0</ele>
        <time>2013-07-03T12:19:46Z</time>
      </trkpt>
      <trkpt lat="40.180617" lon="-4.876350">
        <ele>1516.0</ele>
        <time>2013-07-03T12:19:47Z</time>
      </trkpt>
      <trkpt lat="40.180517" lon="-4.876300">
        <ele>1514.0</ele>
        <time>2013-07-03T12:19:48Z</time>
      </trkpt>
      <trkpt lat="40.180417" lon="-4.876267">
        <ele>1511.0</ele>
        <time>2013-07-03T12:19:49Z</time>
      </trkpt>
      <trkpt lat="40.180317" lon="-4.876233">
        <ele>1509.0</ele>
        <time>2013-07-03T12:19:50Z</time>
      </trkpt>
      <trkpt lat="40.180217" lon="-4.876200">
        <ele>1505.0</ele>
        <time>2013-07-03T12:19:51Z</time>
      </trkpt>
      <trkpt lat="40.180117" lon="-4.876167">
        <ele>1501.0</ele>
        <time>2013-07-03T12:19:52Z</time>
      </trkpt>
      <trkpt lat="40.180000" lon="-4.876117">
        <ele>1497.0</ele>
        <time>2013-07-03T12:19:53Z</time>
      </trkpt>
      <trkpt lat="40.179900" lon="-4.876067">
        <ele>1494.0</ele>
        <time>2013-07-03T12:19:54Z</time>
      </trkpt>
      <trkpt lat="40.179800" lon="-4.876017">
        <ele>1492.0</ele>
        <time>2013-07-03T12:19:55Z</time>
      </trkpt>
      <trkpt lat="40.179683" lon="-4.875967">
        <ele>1490.0</ele>
        <time>2013-07-03T12:19:56Z</time>
      </trkpt>
      <trkpt lat="40.179583" lon="-4.875917">
        <ele>1486.0</ele>
        <time>2013-07-03T12:19:57Z</time>
      </trkpt>
      <trkpt lat="40.179483" lon="-4.875867">
        <ele>1483.0</ele>
        <time>2013-07-03T12:19:58Z</time>
      </trkpt>
      <trkpt lat="40.179383" lon="-4.875800">
        <ele>1480.0</ele>
        <time>2013-07-03T12:19:59Z</time>
      </trkpt>
      <trkpt lat="40.179283" lon="-4.875750">
        <ele>1477.0</ele>
        <time>2013-07-03T12:20:00Z</time>
      </trkpt>
      <trkpt lat="40.179167" lon="-4.875700">
        <ele>1474.0</ele>
        <time>2013-07-03T12:20:01Z</time>
      </trkpt>
      <trkpt lat="40.179067" lon="-4.875667">
        <ele>1472.0</ele>
        <time>2013-07-03T12:20:02Z</time>
      </trkpt>
      <trkpt lat="40.178967" lon="-4.875650">
        <ele>1469.0</ele>
        <time>2013-07-03T12:20:03Z</time>
      </trkpt>
      <trkpt lat="40.178867" lon="-4.875617">
        <ele>1466.0</ele>
        <time>2013-07-03T12:20:04Z</time>
      </trkpt>
      <trkpt lat="40.178767" lon="-4.875567">
        <ele>1464.0</ele>
        <time>2013-07-03T12:20:05Z</time>
      </trkpt>
      <trkpt lat="40.178667" lon="-4.875533">
        <ele>1461.0</ele>
        <time>2013-07-03T12:20:06Z</time>
      </trkpt>
      <trkpt lat="40.178567" lon="-4.875500">
        <ele>1459.0</ele>
        <time>2013-07-03T12:20:07Z</time>
      </trkpt>
      <trkpt lat="40.178467" lon="-4.875467">
        <ele>1457.0</ele>
        <time>2013-07-03T12:20:08Z</time>
      </trkpt>
      <trkpt lat="40.178367" lon="-4.875450">
        <ele>1454.0</ele>
        <time>2013-07-03T12:20:09Z</time>
      </trkpt>
      <trkpt lat="40.178267" lon="-4.875433">
        <ele>1451.0</ele>
        <time>2013-07-03T12:20:10Z</time>
      </trkpt>
      <trkpt lat="40.178167" lon="-4.875400">
        <ele>1448.0</ele>
        <time>2013-07-03T12:20:11Z</time>
      </trkpt>
      <trkpt lat="40.178050" lon="-4.875383">
        <ele>1445.0</ele>
        <time>2013-07-03T12:20:12Z</time>
      </trkpt>
      <trkpt lat="40.177950" lon="-4.875350">
        <ele>1443.0</ele>
        <time>2013-07-03T12:20:13Z</time>
      </trkpt>
      <trkpt lat="40.177850" lon="-4.875333">
        <ele>1441.0</ele>
        <time>2013-07-03T12:20:14Z</time>
      </trkpt>
      <trkpt lat="40.177750" lon="-4.875300">
        <ele>1438.0</ele>
        <time>2013-07-03T12:20:15Z</time>
      </trkpt>
      <trkpt lat="40.177667" lon="-4.875267">
        <ele>1436.0</ele>
        <time>2013-07-03T12:20:16Z</time>
      </trkpt>
      <trkpt lat="40.177567" lon="-4.875217">
        <ele>1433.0</ele>
        <time>2013-07-03T12:20:17Z</time>
      </trkpt>
      <trkpt lat="40.177467" lon="-4.875183">
        <ele>1431.0</ele>
        <time>2013-07-03T12:20:18Z</time>
      </trkpt>
      <trkpt lat="40.177383" lon="-4.875133">
        <ele>1429.0</ele>
        <time>2013-07-03T12:20:19Z</time>
      </trkpt>
      <trkpt lat="40.177283" lon="-4.875100">
        <ele>1427.0</ele>
        <time>2013-07-03T12:20:20Z</time>
      </trkpt>
      <trkpt lat="40.177200" lon="-4.875067">
        <ele>1425.0</ele>
        <time>2013-07-03T12:20:21Z</time>
      </trkpt>
      <trkpt lat="40.177117" lon="-4.875033">
        <ele>1422.0</ele>
        <time>2013-07-03T12:20:22Z</time>
      </trkpt>
      <trkpt lat="40.177017" lon="-4.874983">
        <ele>1419.0</ele>
        <time>2013-07-03T12:20:23Z</time>
      </trkpt>
      <trkpt lat="40.176917" lon="-4.874950">
        <ele>1416.0</ele>
        <time>2013-07-03T12:20:24Z</time>
      </trkpt>
      <trkpt lat="40.176800" lon="-4.874900">
        <ele>1412.0</ele>
        <time>2013-07-03T12:20:25Z</time>
      </trkpt>
      <trkpt lat="40.176700" lon="-4.874867">
        <ele>1410.0</ele>
        <time>2013-07-03T12:20:26Z</time>
      </trkpt>
      <trkpt lat="40.176583" lon="-4.874833">
        <ele>1407.0</ele>
        <time>2013-07-03T12:20:27Z</time>
      </trkpt>
      <trkpt lat="40.176483" lon="-4.874800">
        <ele>1405.0</ele>
        <time>2013-07-03T12:20:28Z</time>
      </trkpt>
      <trkpt lat="40.176383" lon="-4.874767">
        <ele>1403.0</ele>
        <time>2013-07-03T12:20:29Z</time>
      </trkpt>
      <trkpt lat="40.176283" lon="-4.874750">
        <ele>1400.0</ele>
        <time>2013-07-03T12:20:30Z</time>
      </trkpt>
      <trkpt lat="40.176167" lon="-4.874717">
        <ele>1397.0</ele>
        <time>2013-07-03T12:20:31Z</time>
      </trkpt>
      <trkpt lat="40.176050" lon="-4.874700">
        <ele>1394.0</ele>
        <time>2013-07-03T12:20:32Z</time>
      </trkpt>
      <trkpt lat="40.175933" lon="-4.874667">
        <ele>1391.0</ele>
        <time>2013-07-03T12:20:33Z</time>
      </trkpt>
      <trkpt lat="40.175817" lon="-4.874650">
        <ele>1388.0</ele>
        <time>2013-07-03T12:20:34Z</time>
      </trkpt>
      <trkpt lat="40.175700" lon="-4.874633">
        <ele>1386.0</ele>
        <time>2013-07-03T12:20:35Z</time>
      </trkpt>
      <trkpt lat="40.175583" lon="-4.874633">
        <ele>1384.0</ele>
        <time>2013-07-03T12:20:36Z</time>
      </trkpt>
      <trkpt lat="40.175483" lon="-4.874617">
        <ele>1382.0</ele>
        <time>2013-07-03T12:20:37Z</time>
      </trkpt>
      <trkpt lat="40.175383" lon="-4.874600">
        <ele>1380.0</ele>
        <time>2013-07-03T12:20:38Z</time>
      </trkpt>
      <trkpt lat="40.175267" lon="-4.874583">
        <ele>1377.0</ele>
        <time>2013-07-03T12:20:39Z</time>
      </trkpt>
      <trkpt lat="40.175167" lon="-4.874567">
        <ele>1373.0</ele>
        <time>2013-07-03T12:20:40Z</time>
      </trkpt>
      <trkpt lat="40.175050" lon="-4.874550">
        <ele>1369.0</ele>
        <time>2013-07-03T12:20:41Z</time>
      </trkpt>
      <trkpt lat="40.174933" lon="-4.874517">
        <ele>1366.0</ele>
        <time>2013-07-03T12:20:42Z</time>
      </trkpt>
      <trkpt lat="40.174817" lon="-4.874500">
        <ele>1363.0</ele>
        <time>2013-07-03T12:20:43Z</time>
      </trkpt>
      <trkpt lat="40.174700" lon="-4.874483">
        <ele>1361.0</ele>
        <time>2013-07-03T12:20:44Z</time>
      </trkpt>
      <trkpt lat="40.174583" lon="-4.874467">
        <ele>1358.0</ele>
        <time>2013-07-03T12:20:45Z</time>
      </trkpt>
      <trkpt lat="40.174467" lon="-4.874450">
        <ele>1355.0</ele>
        <time>2013-07-03T12:20:46Z</time>
      </trkpt>
      <trkpt lat="40.174367" lon="-4.874417">
        <ele>1352.0</ele>
        <time>2013-07-03T12:20:47Z</time>
      </trkpt>
      <trkpt lat="40.174250" lon="-4.874383">
        <ele>1349.0</ele>
        <time>2013-07-03T12:20:48Z</time>
      </trkpt>
      <trkpt lat="40.174133" lon="-4.874367">
        <ele>1346.0</ele>
        <time>2013-07-03T12:20:49Z</time>
      </trkpt>
      <trkpt lat="40.174017" lon="-4.874333">
        <ele>1343.0</ele>
        <time>2013-07-03T12:20:50Z</time>
      </trkpt>
      <trkpt lat="40.173883" lon="-4.874317">
        <ele>1339.0</ele>
        <time>2013-07-03T12:20:51Z</time>
      </trkpt>
      <trkpt lat="40.173750" lon="-4.874317">
        <ele>1336.0</ele>
        <time>2013-07-03T12:20:52Z</time>
      </trkpt>
      <trkpt lat="40.173617" lon="-4.874300">
        <ele>1334.0</ele>
        <time>2013-07-03T12:20:53Z</time>
      </trkpt>
      <trkpt lat="40.173500" lon="-4.874283">
        <ele>1331.0</ele>
        <time>2013-07-03T12:20:54Z</time>
      </trkpt>
      <trkpt lat="40.173367" lon="-4.874267">
        <ele>1329.0</ele>
        <time>2013-07-03T12:20:55Z</time>
      </trkpt>
      <trkpt lat="40.173233" lon="-4.874267">
        <ele>1326.0</ele>
        <time>2013-07-03T12:20:56Z</time>
      </trkpt>
      <trkpt lat="40.173117" lon="-4.874267">
        <ele>1324.0</ele>
        <time>2013-07-03T12:20:57Z</time>
      </trkpt>
      <trkpt lat="40.172983" lon="-4.874267">
        <ele>1322.0</ele>
        <time>2013-07-03T12:20:58Z</time>
      </trkpt>
      <trkpt lat="40.172867" lon="-4.874267">
        <ele>1320.0</ele>
        <time>2013-07-03T12:20:59Z</time>
      </trkpt>
      <trkpt lat="40.172750" lon="-4.874267">
        <ele>1318.0</ele>
        <time>2013-07-03T12:21:00Z</time>
      </trkpt>
      <trkpt lat="40.172633" lon="-4.874250">
        <ele>1316.0</ele>
        <time>2013-07-03T12:21:01Z</time>
      </trkpt>
      <trkpt lat="40.172517" lon="-4.874250">
        <ele>1313.0</ele>
        <time>2013-07-03T12:21:02Z</time>
      </trkpt>
      <trkpt lat="40.172400" lon="-4.874233">
        <ele>1310.0</ele>
        <time>2013-07-03T12:21:03Z</time>
      </trkpt>
      <trkpt lat="40.172267" lon="-4.874233">
        <ele>1307.0</ele>
        <time>2013-07-03T12:21:04Z</time>
      </trkpt>
      <trkpt lat="40.172133" lon="-4.874217">
        <ele>1305.0</ele>
        <time>2013-07-03T12:21:05Z</time>
      </trkpt>
      <trkpt lat="40.172017" lon="-4.874200">
        <ele>1303.0</ele>
        <time>2013-07-03T12:21:06Z</time>
      </trkpt>
      <trkpt lat="40.171900" lon="-4.874183">
        <ele>1302.0</ele>
        <time>2013-07-03T12:21:07Z</time>
      </trkpt>
      <trkpt lat="40.171783" lon="-4.874167">
        <ele>1300.0</ele>
        <time>2013-07-03T12:21:08Z</time>
      </trkpt>
      <trkpt lat="40.171667" lon="-4.874150">
        <ele>1297.0</ele>
        <time>2013-07-03T12:21:09Z</time>
      </trkpt>
      <trkpt lat="40.171550" lon="-4.874133">
        <ele>1294.0</ele>
        <time>2013-07-03T12:21:10Z</time>
      </trkpt>
      <trkpt lat="40.171433" lon="-4.874083">
        <ele>1291.0</ele>
        <time>2013-07-03T12:21:11Z</time>
      </trkpt>
      <trkpt lat="40.171317" lon="-4.874033">
        <ele>1288.0</ele>
        <time>2013-07-03T12:21:12Z</time>
      </trkpt>
      <trkpt lat="40.171200" lon="-4.873967">
        <ele>1285.0</ele>
        <time>2013-07-03T12:21:13Z</time>
      </trkpt>
      <trkpt lat="40.171083" lon="-4.873917">
        <ele>1282.0</ele>
        <time>2013-07-03T12:21:14Z</time>
      </trkpt>
      <trkpt lat="40.170967" lon="-4.873850">
        <ele>1279.0</ele>
        <time>2013-07-03T12:21:15Z</time>
      </trkpt>
      <trkpt lat="40.170850" lon="-4.873800">
        <ele>1276.0</ele>
        <time>2013-07-03T12:21:16Z</time>
      </trkpt>
      <trkpt lat="40.170717" lon="-4.873750">
        <ele>1273.0</ele>
        <time>2013-07-03T12:21:17Z</time>
      </trkpt>
      <trkpt lat="40.170600" lon="-4.873683">
        <ele>1270.0</ele>
        <time>2013-07-03T12:21:18Z</time>
      </trkpt>
      <trkpt lat="40.170483" lon="-4.873633">
        <ele>1268.0</ele>
        <time>2013-07-03T12:21:19Z</time>
      </trkpt>
      <trkpt lat="40.170367" lon="-4.873567">
        <ele>1266.0</ele>
        <time>2013-07-03T12:21:20Z</time>
      </trkpt>
      <trkpt lat="40.170267" lon="-4.873517">
        <ele>1265.0</ele>
        <time>2013-07-03T12:21:21Z</time>
      </trkpt>
      <trkpt lat="40.170150" lon="-4.873467">
        <ele>1262.0</ele>
        <time>2013-07-03T12:21:22Z</time>
      </trkpt>
      <trkpt lat="40.170050" lon="-4.873417">
        <ele>1259.0</ele>
        <time>2013-07-03T12:21:23Z</time>
      </trkpt>
      <trkpt lat="40.169933" lon="-4.873367">
        <ele>1256.0</ele>
        <time>2013-07-03T12:21:24Z</time>
      </trkpt>
      <trkpt lat="40.169817" lon="-4.873300">
        <ele>1252.0</ele>
        <time>2013-07-03T12:21:25Z</time>
      </trkpt>
      <trkpt lat="40.169700" lon="-4.873233">
        <ele>1249.0</ele>
        <time>2013-07-03T12:21:26Z</time>
      </trkpt>
      <trkpt lat="40.169600" lon="-4.873183">
        <ele>1247.0</ele>
        <time>2013-07-03T12:21:27Z</time>
      </trkpt>
      <trkpt lat="40.169483" lon="-4.873133">
        <ele>1246.0</ele>
        <time>2013-07-03T12:21:28Z</time>
      </trkpt>
      <trkpt lat="40.169383" lon="-4.873083">
        <ele>1244.0</ele>
        <time>2013-07-03T12:21:29Z</time>
      </trkpt>
      <trkpt lat="40.169267" lon="-4.873017">
        <ele>1241.0</ele>
        <time>2013-07-03T12:21:30Z</time>
      </trkpt>
      <trkpt lat="40.169167" lon="-4.872967">
        <ele>1238.0</ele>
        <time>2013-07-03T12:21:31Z</time>
      </trkpt>
      <trkpt lat="40.169050" lon="-4.872917">
        <ele>1235.0</ele>
        <time>2013-07-03T12:21:32Z</time>
      </trkpt>
      <trkpt lat="40.168950" lon="-4.872850">
        <ele>1232.0</ele>
        <time>2013-07-03T12:21:33Z</time>
      </trkpt>
      <trkpt lat="40.168833" lon="-4.872800">
        <ele>1229.0</ele>
        <time>2013-07-03T12:21:34Z</time>
      </trkpt>
      <trkpt lat="40.168717" lon="-4.872733">
        <ele>1226.0</ele>
        <time>2013-07-03T12:21:35Z</time>
      </trkpt>
      <trkpt lat="40.168600" lon="-4.872683">
        <ele>1223.0</ele>
        <time>2013-07-03T12:21:36Z</time>
      </trkpt>
      <trkpt lat="40.168483" lon="-4.872617">
        <ele>1220.0</ele>
        <time>2013-07-03T12:21:37Z</time>
      </trkpt>
      <trkpt lat="40.168383" lon="-4.872550">
        <ele>1216.0</ele>
        <time>2013-07-03T12:21:38Z</time>
      </trkpt>
      <trkpt lat="40.168283" lon="-4.872483">
        <ele>1213.0</ele>
        <time>2013-07-03T12:21:39Z</time>
      </trkpt>
      <trkpt lat="40.168167" lon="-4.872417">
        <ele>1209.0</ele>
        <time>2013-07-03T12:21:40Z</time>
      </trkpt>
      <trkpt lat="40.168067" lon="-4.872333">
        <ele>1204.0</ele>
        <time>2013-07-03T12:21:41Z</time>
      </trkpt>
      <trkpt lat="40.167967" lon="-4.872233">
        <ele>1201.0</ele>
        <time>2013-07-03T12:21:42Z</time>
      </trkpt>
      <trkpt lat="40.167850" lon="-4.872150">
        <ele>1198.0</ele>
        <time>2013-07-03T12:21:43Z</time>
      </trkpt>
      <trkpt lat="40.167750" lon="-4.872067">
        <ele>1195.0</ele>
        <time>2013-07-03T12:21:44Z</time>
      </trkpt>
      <trkpt lat="40.167633" lon="-4.872000">
        <ele>1192.0</ele>
        <time>2013-07-03T12:21:45Z</time>
      </trkpt>
      <trkpt lat="40.167533" lon="-4.871933">
        <ele>1190.0</ele>
        <time>2013-07-03T12:21:46Z</time>
      </trkpt>
      <trkpt lat="40.167433" lon="-4.871883">
        <ele>1187.0</ele>
        <time>2013-07-03T12:21:47Z</time>
      </trkpt>
      <trkpt lat="40.167317" lon="-4.871817">
        <ele>1185.0</ele>
        <time>2013-07-03T12:21:48Z</time>
      </trkpt>
      <trkpt lat="40.167217" lon="-4.871750">
        <ele>1182.0</ele>
        <time>2013-07-03T12:21:49Z</time>
      </trkpt>
      <trkpt lat="40.167100" lon="-4.871683">
        <ele>1179.0</ele>
        <time>2013-07-03T12:21:50Z</time>
      </trkpt>
      <trkpt lat="40.166983" lon="-4.871617">
        <ele>1176.0</ele>
        <time>2013-07-03T12:21:51Z</time>
      </trkpt>
      <trkpt lat="40.166883" lon="-4.871550">
        <ele>1173.0</ele>
        <time>2013-07-03T12:21:52Z</time>
      </trkpt>
      <trkpt lat="40.166767" lon="-4.871483">
        <ele>1170.0</ele>
        <time>2013-07-03T12:21:53Z</time>
      </trkpt>
      <trkpt lat="40.166667" lon="-4.871417">
        <ele>1167.0</ele>
        <time>2013-07-03T12:21:54Z</time>
      </trkpt>
      <trkpt lat="40.166550" lon="-4.871367">
        <ele>1164.0</ele>
        <time>2013-07-03T12:21:55Z</time>
      </trkpt>
      <trkpt lat="40.166450" lon="-4.871317">
        <ele>1161.0</ele>
        <time>2013-07-03T12:21:56Z</time>
      </trkpt>
      <trkpt lat="40.166350" lon="-4.871267">
        <ele>1158.0</ele>
        <time>2013-07-03T12:21:57Z</time>
      </trkpt>
      <trkpt lat="40.166250" lon="-4.871217">
        <ele>1155.0</ele>
        <time>2013-07-03T12:21:58Z</time>
      </trkpt>
      <trkpt lat="40.166167" lon="-4.871150">
        <ele>1151.0</ele>
        <time>2013-07-03T12:21:59Z</time>
      </trkpt>
      <trkpt lat="40.166067" lon="-4.871100">
        <ele>1146.0</ele>
        <time>2013-07-03T12:22:00Z</time>
      </trkpt>
      <trkpt lat="40.165967" lon="-4.871067">
        <ele>1141.0</ele>
        <time>2013-07-03T12:22:01Z</time>
      </trkpt>
      <trkpt lat="40.165850" lon="-4.871017">
        <ele>1136.0</ele>
        <time>2013-07-03T12:22:02Z</time>
      </trkpt>
      <trkpt lat="40.165750" lon="-4.870983">
        <ele>1131.0</ele>
        <time>2013-07-03T12:22:03Z</time>
      </trkpt>
      <trkpt lat="40.165633" lon="-4.870933">
        <ele>1127.0</ele>
        <time>2013-07-03T12:22:04Z</time>
      </trkpt>
      <trkpt lat="40.165533" lon="-4.870900">
        <ele>1123.0</ele>
        <time>2013-07-03T12:22:05Z</time>
      </trkpt>
      <trkpt lat="40.165417" lon="-4.870867">
        <ele>1119.0</ele>
        <time>2013-07-03T12:22:06Z</time>
      </trkpt>
      <trkpt lat="40.165300" lon="-4.870850">
        <ele>1115.0</ele>
        <time>2013-07-03T12:22:07Z</time>
      </trkpt>
      <trkpt lat="40.165200" lon="-4.870800">
        <ele>1111.0</ele>
        <time>2013-07-03T12:22:08Z</time>
      </trkpt>
      <trkpt lat="40.165100" lon="-4.870750">
        <ele>1106.0</ele>
        <time>2013-07-03T12:22:09Z</time>
      </trkpt>
      <trkpt lat="40.164983" lon="-4.870683">
        <ele>1101.0</ele>
        <time>2013-07-03T12:22:10Z</time>
      </trkpt>
      <trkpt lat="40.164883" lon="-4.870617">
        <ele>1097.0</ele>
        <time>2013-07-03T12:22:11Z</time>
      </trkpt>
      <trkpt lat="40.164767" lon="-4.870533">
        <ele>1094.0</ele>
        <time>2013-07-03T12:22:12Z</time>
      </trkpt>
      <trkpt lat="40.164667" lon="-4.870450">
        <ele>1093.0</ele>
        <time>2013-07-03T12:22:13Z</time>
      </trkpt>
      <trkpt lat="40.164567" lon="-4.870367">
        <ele>1094.0</ele>
        <time>2013-07-03T12:22:14Z</time>
      </trkpt>
      <trkpt lat="40.164500" lon="-4.870317">
        <ele>1094.0</ele>
        <time>2013-07-03T12:22:15Z</time>
      </trkpt>
      <trkpt lat="40.164433" lon="-4.870267">
        <ele>1094.0</ele>
        <time>2013-07-03T12:22:16Z</time>
      </trkpt>
      <trkpt lat="40.164350" lon="-4.870217">
        <ele>1092.0</ele>
        <time>2013-07-03T12:22:17Z</time>
      </trkpt>
      <trkpt lat="40.164283" lon="-4.870167">
        <ele>1090.0</ele>
        <time>2013-07-03T12:22:18Z</time>
      </trkpt>
      <trkpt lat="40.164200" lon="-4.870100">
        <ele>1087.0</ele>
        <time>2013-07-03T12:22:19Z</time>
      </trkpt>
      <trkpt lat="40.164117" lon="-4.870017">
        <ele>1084.0</ele>
        <time>2013-07-03T12:22:20Z</time>
      </trkpt>
      <trkpt lat="40.164033" lon="-4.869917">
        <ele>1081.0</ele>
        <time>2013-07-03T12:22:21Z</time>
      </trkpt>
      <trkpt lat="40.163950" lon="-4.869817">
        <ele>1080.0</ele>
        <time>2013-07-03T12:22:22Z</time>
      </trkpt>
      <trkpt lat="40.163883" lon="-4.869733">
        <ele>1078.0</ele>
        <time>2013-07-03T12:22:23Z</time>
      </trkpt>
      <trkpt lat="40.163800" lon="-4.869650">
        <ele>1077.0</ele>
        <time>2013-07-03T12:22:24Z</time>
      </trkpt>
      <trkpt lat="40.163717" lon="-4.869567">
        <ele>1075.0</ele>
        <time>2013-07-03T12:22:25Z</time>
      </trkpt>
      <trkpt lat="40.163650" lon="-4.869467">
        <ele>1073.0</ele>
        <time>2013-07-03T12:22:26Z</time>
      </trkpt>
      <trkpt lat="40.163583" lon="-4.869367">
        <ele>1071.0</ele>
        <time>2013-07-03T12:22:27Z</time>
      </trkpt>
      <trkpt lat="40.163517" lon="-4.869267">
        <ele>1069.0</ele>
        <time>2013-07-03T12:22:28Z</time>
      </trkpt>
      <trkpt lat="40.163433" lon="-4.869167">
        <ele>1067.0</ele>
        <time>2013-07-03T12:22:29Z</time>
      </trkpt>
      <trkpt lat="40.163350" lon="-4.869067">
        <ele>1065.0</ele>
        <time>2013-07-03T12:22:30Z</time>
      </trkpt>
      <trkpt lat="40.163267" lon="-4.868950">
        <ele>1063.0</ele>
        <time>2013-07-03T12:22:31Z</time>
      </trkpt>
      <trkpt lat="40.163200" lon="-4.868833">
        <ele>1062.0</ele>
        <time>2013-07-03T12:22:32Z</time>
      </trkpt>
      <trkpt lat="40.163133" lon="-4.868733">
        <ele>1062.0</ele>
        <time>2013-07-03T12:22:33Z</time>
      </trkpt>
      <trkpt lat="40.163067" lon="-4.868633">
        <ele>1062.0</ele>
        <time>2013-07-03T12:22:34Z</time>
      </trkpt>
      <trkpt lat="40.163000" lon="-4.868550">
        <ele>1060.0</ele>
        <time>2013-07-03T12:22:35Z</time>
      </trkpt>
      <trkpt lat="40.162933" lon="-4.868450">
        <ele>1057.0</ele>
        <time>2013-07-03T12:22:36Z</time>
      </trkpt>
      <trkpt lat="40.162867" lon="-4.868317">
        <ele>1054.0</ele>
        <time>2013-07-03T12:22:37Z</time>
      </trkpt>
      <trkpt lat="40.162800" lon="-4.868183">
        <ele>1052.0</ele>
        <time>2013-07-03T12:22:38Z</time>
      </trkpt>
      <trkpt lat="40.162750" lon="-4.868050">
        <ele>1052.0</ele>
        <time>2013-07-03T12:22:39Z</time>
      </trkpt>
      <trkpt lat="40.162717" lon="-4.867950">
        <ele>1052.0</ele>
        <time>2013-07-03T12:22:40Z</time>
      </trkpt>
      <trkpt lat="40.162667" lon="-4.867850">
        <ele>1050.0</ele>
        <time>2013-07-03T12:22:41Z</time>
      </trkpt>
      <trkpt lat="40.162617" lon="-4.867733">
        <ele>1048.0</ele>
        <time>2013-07-03T12:22:42Z</time>
      </trkpt>
      <trkpt lat="40.162567" lon="-4.867617">
        <ele>1046.0</ele>
        <time>2013-07-03T12:22:43Z</time>
      </trkpt>
      <trkpt lat="40.162533" lon="-4.867483">
        <ele>1044.0</ele>
        <time>2013-07-03T12:22:44Z</time>
      </trkpt>
      <trkpt lat="40.162483" lon="-4.867367">
        <ele>1044.0</ele>
        <time>2013-07-03T12:22:45Z</time>
      </trkpt>
      <trkpt lat="40.162433" lon="-4.867250">
        <ele>1045.0</ele>
        <time>2013-07-03T12:22:46Z</time>
      </trkpt>
      <trkpt lat="40.162383" lon="-4.867133">
        <ele>1046.0</ele>
        <time>2013-07-03T12:22:47Z</time>
      </trkpt>
      <trkpt lat="40.162350" lon="-4.867033">
        <ele>1046.0</ele>
        <time>2013-07-03T12:22:48Z</time>
      </trkpt>
      <trkpt lat="40.162317" lon="-4.866933">
        <ele>1047.0</ele>
        <time>2013-07-03T12:22:49Z</time>
      </trkpt>
      <trkpt lat="40.162267" lon="-4.866850">
        <ele>1048.0</ele>
        <time>2013-07-03T12:22:50Z</time>
      </trkpt>
      <trkpt lat="40.162233" lon="-4.866783">
        <ele>1048.0</ele>
        <time>2013-07-03T12:22:51Z</time>
      </trkpt>
      <trkpt lat="40.162183" lon="-4.866700">
        <ele>1048.0</ele>
        <time>2013-07-03T12:22:52Z</time>
      </trkpt>
      <trkpt lat="40.162150" lon="-4.866633">
        <ele>1047.0</ele>
        <time>2013-07-03T12:22:53Z</time>
      </trkpt>
      <trkpt lat="40.162117" lon="-4.866533">
        <ele>1046.0</ele>
        <time>2013-07-03T12:22:54Z</time>
      </trkpt>
      <trkpt lat="40.162067" lon="-4.866417">
        <ele>1044.0</ele>
        <time>2013-07-03T12:22:55Z</time>
      </trkpt>
      <trkpt lat="40.162017" lon="-4.866300">
        <ele>1042.0</ele>
        <time>2013-07-03T12:22:56Z</time>
      </trkpt>
      <trkpt lat="40.161967" lon="-4.866167">
        <ele>1041.0</ele>
        <time>2013-07-03T12:22:57Z</time>
      </trkpt>
      <trkpt lat="40.161900" lon="-4.866033">
        <ele>1041.0</ele>
        <time>2013-07-03T12:22:58Z</time>
      </trkpt>
      <trkpt lat="40.161850" lon="-4.865917">
        <ele>1043.0</ele>
        <time>2013-07-03T12:22:59Z</time>
      </trkpt>
      <trkpt lat="40.161783" lon="-4.865800">
        <ele>1044.0</ele>
        <time>2013-07-03T12:23:00Z</time>
      </trkpt>
      <trkpt lat="40.161717" lon="-4.865700">
        <ele>1045.0</ele>
        <time>2013-07-03T12:23:01Z</time>
      </trkpt>
      <trkpt lat="40.161667" lon="-4.865600">
        <ele>1047.0</ele>
        <time>2013-07-03T12:23:02Z</time>
      </trkpt>
      <trkpt lat="40.161617" lon="-4.865500">
        <ele>1049.0</ele>
        <time>2013-07-03T12:23:03Z</time>
      </trkpt>
      <trkpt lat="40.161567" lon="-4.865433">
        <ele>1050.0</ele>
        <time>2013-07-03T12:23:04Z</time>
      </trkpt>
      <trkpt lat="40.161533" lon="-4.865350">
        <ele>1050.0</ele>
        <time>2013-07-03T12:23:05Z</time>
      </trkpt>
      <trkpt lat="40.161517" lon="-4.865233">
        <ele>1049.0</ele>
        <time>2013-07-03T12:23:06Z</time>
      </trkpt>
      <trkpt lat="40.161483" lon="-4.865117">
        <ele>1047.0</ele>
        <time>2013-07-03T12:23:07Z</time>
      </trkpt>
      <trkpt lat="40.161467" lon="-4.864967">
        <ele>1047.0</ele>
        <time>2013-07-03T12:23:08Z</time>
      </trkpt>
      <trkpt lat="40.161467" lon="-4.864817">
        <ele>1046.0</ele>
        <time>2013-07-03T12:23:09Z</time>
      </trkpt>
      <trkpt lat="40.161500" lon="-4.864683">
        <ele>1046.0</ele>
        <time>2013-07-03T12:23:10Z</time>
      </trkpt>
      <trkpt lat="40.161517" lon="-4.864567">
        <ele>1047.0</ele>
        <time>2013-07-03T12:23:11Z</time>
      </trkpt>
      <trkpt lat="40.161567" lon="-4.864450">
        <ele>1046.0</ele>
        <time>2013-07-03T12:23:12Z</time>
      </trkpt>
      <trkpt lat="40.161617" lon="-4.864367">
        <ele>1045.0</ele>
        <time>2013-07-03T12:23:13Z</time>
      </trkpt>
      <trkpt lat="40.161683" lon="-4.864300">
        <ele>1043.0</ele>
        <time>2013-07-03T12:23:14Z</time>
      </trkpt>
      <trkpt lat="40.161750" lon="-4.864267">
        <ele>1041.0</ele>
        <time>2013-07-03T12:23:15Z</time>
      </trkpt>
      <trkpt lat="40.161817" lon="-4.864267">
        <ele>1040.0</ele>
        <time>2013-07-03T12:23:16Z</time>
      </trkpt>
      <trkpt lat="40.161883" lon="-4.864283">
        <ele>1040.0</ele>
        <time>2013-07-03T12:23:17Z</time>
      </trkpt>
      <trkpt lat="40.161933" lon="-4.864333">
        <ele>1040.0</ele>
        <time>2013-07-03T12:23:18Z</time>
      </trkpt>
      <trkpt lat="40.161933" lon="-4.864400">
        <ele>1040.0</ele>
        <time>2013-07-03T12:23:19Z</time>
      </trkpt>
      <trkpt lat="40.161917" lon="-4.864467">
        <ele>1040.0</ele>
        <time>2013-07-03T12:23:20Z</time>
      </trkpt>
      <trkpt lat="40.161883" lon="-4.864533">
        <ele>1041.0</ele>
        <time>2013-07-03T12:23:21Z</time>
      </trkpt>
      <trkpt lat="40.161817" lon="-4.864567">
        <ele>1042.0</ele>
        <time>2013-07-03T12:23:22Z</time>
      </trkpt>
      <trkpt lat="40.161750" lon="-4.864583">
        <ele>1043.0</ele>
        <time>2013-07-03T12:23:23Z</time>
      </trkpt>
      <trkpt lat="40.161667" lon="-4.864550">
        <ele>1044.0</ele>
        <time>2013-07-03T12:23:24Z</time>
      </trkpt>
      <trkpt lat="40.161583" lon="-4.864500">
        <ele>1046.0</ele>
        <time>2013-07-03T12:23:25Z</time>
      </trkpt>
      <trkpt lat="40.161517" lon="-4.864417">
        <ele>1047.0</ele>
        <time>2013-07-03T12:23:26Z</time>
      </trkpt>
      <trkpt lat="40.161450" lon="-4.864317">
        <ele>1049.0</ele>
        <time>2013-07-03T12:23:27Z</time>
      </trkpt>
      <trkpt lat="40.161400" lon="-4.864200">
        <ele>1051.0</ele>
        <time>2013-07-03T12:23:28Z</time>
      </trkpt>
      <trkpt lat="40.161350" lon="-4.864100">
        <ele>1053.0</ele>
        <time>2013-07-03T12:23:29Z</time>
      </trkpt>
      <trkpt lat="40.161317" lon="-4.863983">
        <ele>1054.0</ele>
        <time>2013-07-03T12:23:30Z</time>
      </trkpt>
      <trkpt lat="40.161300" lon="-4.863867">
        <ele>1054.0</ele>
        <time>2013-07-03T12:23:31Z</time>
      </trkpt>
      <trkpt lat="40.161300" lon="-4.863750">
        <ele>1053.0</ele>
        <time>2013-07-03T12:23:32Z</time>
      </trkpt>
      <trkpt lat="40.161300" lon="-4.863617">
        <ele>1053.0</ele>
        <time>2013-07-03T12:23:33Z</time>
      </trkpt>
      <trkpt lat="40.161333" lon="-4.863483">
        <ele>1052.0</ele>
        <time>2013-07-03T12:23:34Z</time>
      </trkpt>
      <trkpt lat="40.161383" lon="-4.863383">
        <ele>1051.0</ele>
        <time>2013-07-03T12:23:35Z</time>
      </trkpt>
      <trkpt lat="40.161450" lon="-4.863333">
        <ele>1048.0</ele>
        <time>2013-07-03T12:23:36Z</time>
      </trkpt>
      <trkpt lat="40.161533" lon="-4.863333">
        <ele>1046.0</ele>
        <time>2013-07-03T12:23:37Z</time>
      </trkpt>
      <trkpt lat="40.161583" lon="-4.863383">
        <ele>1045.0</ele>
        <time>2013-07-03T12:23:38Z</time>
      </trkpt>
      <trkpt lat="40.161600" lon="-4.863450">
        <ele>1046.0</ele>
        <time>2013-07-03T12:23:39Z</time>
      </trkpt>
      <trkpt lat="40.161600" lon="-4.863517">
        <ele>1046.0</ele>
        <time>2013-07-03T12:23:40Z</time>
      </trkpt>
      <trkpt lat="40.161567" lon="-4.863600">
        <ele>1047.0</ele>
        <time>2013-07-03T12:23:41Z</time>
      </trkpt>
      <trkpt lat="40.161533" lon="-4.863650">
        <ele>1050.0</ele>
        <time>2013-07-03T12:23:42Z</time>
      </trkpt>
      <trkpt lat="40.161483" lon="-4.863683">
        <ele>1052.0</ele>
        <time>2013-07-03T12:23:43Z</time>
      </trkpt>
      <trkpt lat="40.161417" lon="-4.863700">
        <ele>1054.0</ele>
        <time>2013-07-03T12:23:44Z</time>
      </trkpt>
      <trkpt lat="40.161350" lon="-4.863683">
        <ele>1057.0</ele>
        <time>2013-07-03T12:23:45Z</time>
      </trkpt>
      <trkpt lat="40.161267" lon="-4.863667">
        <ele>1059.0</ele>
        <time>2013-07-03T12:23:46Z</time>
      </trkpt>
      <trkpt lat="40.161200" lon="-4.863667">
        <ele>1062.0</ele>
        <time>2013-07-03T12:23:47Z</time>
      </trkpt>
      <trkpt lat="40.161133" lon="-4.863633">
        <ele>1065.0</ele>
        <time>2013-07-03T12:23:48Z</time>
      </trkpt>
      <trkpt lat="40.161083" lon="-4.863617">
        <ele>1067.0</ele>
        <time>2013-07-03T12:23:49Z</time>
      </trkpt>
      <trkpt lat="40.161033" lon="-4.863567">
        <ele>1068.0</ele>
        <time>2013-07-03T12:23:50Z</time>
      </trkpt>
      <trkpt lat="40.160983" lon="-4.863467">
        <ele>1066.0</ele>
        <time>2013-07-03T12:23:51Z</time>
      </trkpt>
      <trkpt lat="40.160933" lon="-4.863333">
        <ele>1065.0</ele>
        <time>2013-07-03T12:23:52Z</time>
      </trkpt>
      <trkpt lat="40.160917" lon="-4.863200">
        <ele>1064.0</ele>
        <time>2013-07-03T12:23:53Z</time>
      </trkpt>
      <trkpt lat="40.160933" lon="-4.863050">
        <ele>1064.0</ele>
        <time>2013-07-03T12:23:54Z</time>
      </trkpt>
      <trkpt lat="40.160983" lon="-4.862950">
        <ele>1064.0</ele>
        <time>2013-07-03T12:23:55Z</time>
      </trkpt>
      <trkpt lat="40.161067" lon="-4.862900">
        <ele>1065.0</ele>
        <time>2013-07-03T12:23:56Z</time>
      </trkpt>
      <trkpt lat="40.161150" lon="-4.862917">
        <ele>1067.0</ele>
        <time>2013-07-03T12:23:57Z</time>
      </trkpt>
      <trkpt lat="40.161217" lon="-4.862933">
        <ele>1070.0</ele>
        <time>2013-07-03T12:23:58Z</time>
      </trkpt>
      <trkpt lat="40.161250" lon="-4.862950">
        <ele>1073.0</ele>
        <time>2013-07-03T12:23:59Z</time>
      </trkpt>
      <trkpt lat="40.161283" lon="-4.862983">
        <ele>1075.0</ele>
        <time>2013-07-03T12:24:00Z</time>
      </trkpt>
      <trkpt lat="40.161300" lon="-4.863050">
        <ele>1075.0</ele>
        <time>2013-07-03T12:24:01Z</time>
      </trkpt>
      <trkpt lat="40.161300" lon="-4.863117">
        <ele>1076.0</ele>
        <time>2013-07-03T12:24:02Z</time>
      </trkpt>
      <trkpt lat="40.161250" lon="-4.863183">
        <ele>1077.0</ele>
        <time>2013-07-03T12:24:03Z</time>
      </trkpt>
      <trkpt lat="40.161183" lon="-4.863217">
        <ele>1078.0</ele>
        <time>2013-07-03T12:24:04Z</time>
      </trkpt>
      <trkpt lat="40.161083" lon="-4.863167">
        <ele>1079.0</ele>
        <time>2013-07-03T12:24:05Z</time>
      </trkpt>
      <trkpt lat="40.161000" lon="-4.863083">
        <ele>1081.0</ele>
        <time>2013-07-03T12:24:06Z</time>
      </trkpt>
      <trkpt lat="40.160950" lon="-4.862950">
        <ele>1082.0</ele>
        <time>2013-07-03T12:24:07Z</time>
      </trkpt>
      <trkpt lat="40.160933" lon="-4.862817">
        <ele>1084.0</ele>
        <time>2013-07-03T12:24:08Z</time>
      </trkpt>
      <trkpt lat="40.160933" lon="-4.862683">
        <ele>1086.0</ele>
        <time>2013-07-03T12:24:09Z</time>
      </trkpt>
      <trkpt lat="40.160933" lon="-4.862567">
        <ele>1089.0</ele>
        <time>2013-07-03T12:24:10Z</time>
      </trkpt>
      <trkpt lat="40.160967" lon="-4.862467">
        <ele>1092.0</ele>
        <time>2013-07-03T12:24:11Z</time>
      </trkpt>
      <trkpt lat="40.161000" lon="-4.862367">
        <ele>1093.0</ele>
        <time>2013-07-03T12:24:12Z</time>
      </trkpt>
      <trkpt lat="40.161050" lon="-4.862300">
        <ele>1094.0</ele>
        <time>2013-07-03T12:24:13Z</time>
      </trkpt>
      <trkpt lat="40.161117" lon="-4.862267">
        <ele>1094.0</ele>
        <time>2013-07-03T12:24:14Z</time>
      </trkpt>
      <trkpt lat="40.161167" lon="-4.862283">
        <ele>1094.0</ele>
        <time>2013-07-03T12:24:15Z</time>
      </trkpt>
      <trkpt lat="40.161217" lon="-4.862333">
        <ele>1094.0</ele>
        <time>2013-07-03T12:24:16Z</time>
      </trkpt>
      <trkpt lat="40.161233" lon="-4.862417">
        <ele>1093.0</ele>
        <time>2013-07-03T12:24:17Z</time>
      </trkpt>
      <trkpt lat="40.161200" lon="-4.862517">
        <ele>1093.0</ele>
        <time>2013-07-03T12:24:18Z</time>
      </trkpt>
      <trkpt lat="40.161117" lon="-4.862583">
        <ele>1095.0</ele>
        <time>2013-07-03T12:24:19Z</time>
      </trkpt>
      <trkpt lat="40.161033" lon="-4.862583">
        <ele>1098.0</ele>
        <time>2013-07-03T12:24:20Z</time>
      </trkpt>
      <trkpt lat="40.160967" lon="-4.862567">
        <ele>1102.0</ele>
        <time>2013-07-03T12:24:21Z</time>
      </trkpt>
      <trkpt lat="40.160900" lon="-4.862533">
        <ele>1104.0</ele>
        <time>2013-07-03T12:24:22Z</time>
      </trkpt>
      <trkpt lat="40.160850" lon="-4.862500">
        <ele>1106.0</ele>
        <time>2013-07-03T12:24:23Z</time>
      </trkpt>
      <trkpt lat="40.160767" lon="-4.862467">
        <ele>1107.0</ele>
        <time>2013-07-03T12:24:24Z</time>
      </trkpt>
      <trkpt lat="40.160683" lon="-4.862417">
        <ele>1107.0</ele>
        <time>2013-07-03T12:24:25Z</time>
      </trkpt>
      <trkpt lat="40.160617" lon="-4.862333">
        <ele>1107.0</ele>
        <time>2013-07-03T12:24:26Z</time>
      </trkpt>
      <trkpt lat="40.160567" lon="-4.862200">
        <ele>1106.0</ele>
        <time>2013-07-03T12:24:27Z</time>
      </trkpt>
      <trkpt lat="40.160550" lon="-4.862033">
        <ele>1106.0</ele>
        <time>2013-07-03T12:24:28Z</time>
      </trkpt>
      <trkpt lat="40.160567" lon="-4.861883">
        <ele>1107.0</ele>
        <time>2013-07-03T12:24:29Z</time>
      </trkpt>
      <trkpt lat="40.160600" lon="-4.861750">
        <ele>1109.0</ele>
        <time>2013-07-03T12:24:30Z</time>
      </trkpt>
      <trkpt lat="40.160650" lon="-4.861633">
        <ele>1111.0</ele>
        <time>2013-07-03T12:24:31Z</time>
      </trkpt>
      <trkpt lat="40.160683" lon="-4.861567">
        <ele>1113.0</ele>
        <time>2013-07-03T12:24:32Z</time>
      </trkpt>
      <trkpt lat="40.160733" lon="-4.861517">
        <ele>1113.0</ele>
        <time>2013-07-03T12:24:33Z</time>
      </trkpt>
      <trkpt lat="40.160783" lon="-4.861483">
        <ele>1113.0</ele>
        <time>2013-07-03T12:24:34Z</time>
      </trkpt>
      <trkpt lat="40.160833" lon="-4.861467">
        <ele>1113.0</ele>
        <time>2013-07-03T12:24:35Z</time>
      </trkpt>
      <trkpt lat="40.160900" lon="-4.861483">
        <ele>1112.0</ele>
        <time>2013-07-03T12:24:36Z</time>
      </trkpt>
      <trkpt lat="40.160933" lon="-4.861533">
        <ele>1111.0</ele>
        <time>2013-07-03T12:24:37Z</time>
      </trkpt>
      <trkpt lat="40.160950" lon="-4.861617">
        <ele>1110.0</ele>
        <time>2013-07-03T12:24:38Z</time>
      </trkpt>
      <trkpt lat="40.160917" lon="-4.861717">
        <ele>1110.0</ele>
        <time>2013-07-03T12:24:39Z</time>
      </trkpt>
      <trkpt lat="40.160883" lon="-4.861783">
        <ele>1111.0</ele>
        <time>2013-07-03T12:24:40Z</time>
      </trkpt>
      <trkpt lat="40.160817" lon="-4.861833">
        <ele>1112.0</ele>
        <time>2013-07-03T12:24:41Z</time>
      </trkpt>
      <trkpt lat="40.160750" lon="-4.861867">
        <ele>1113.0</ele>
        <time>2013-07-03T12:24:42Z</time>
      </trkpt>
      <trkpt lat="40.160683" lon="-4.861900">
        <ele>1116.0</ele>
        <time>2013-07-03T12:24:43Z</time>
      </trkpt>
      <trkpt lat="40.160617" lon="-4.861917">
        <ele>1119.0</ele>
        <time>2013-07-03T12:24:44Z</time>
      </trkpt>
      <trkpt lat="40.160533" lon="-4.861900">
        <ele>1122.0</ele>
        <time>2013-07-03T12:24:45Z</time>
      </trkpt>
      <trkpt lat="40.160467" lon="-4.861867">
        <ele>1123.0</ele>
        <time>2013-07-03T12:24:46Z</time>
      </trkpt>
      <trkpt lat="40.160383" lon="-4.861817">
        <ele>1125.0</ele>
        <time>2013-07-03T12:24:47Z</time>
      </trkpt>
      <trkpt lat="40.160317" lon="-4.861750">
        <ele>1127.0</ele>
        <time>2013-07-03T12:24:48Z</time>
      </trkpt>
      <trkpt lat="40.160250" lon="-4.861667">
        <ele>1128.0</ele>
        <time>2013-07-03T12:24:49Z</time>
      </trkpt>
      <trkpt lat="40.160183" lon="-4.861567">
        <ele>1130.0</ele>
        <time>2013-07-03T12:24:50Z</time>
      </trkpt>
      <trkpt lat="40.160167" lon="-4.861433">
        <ele>1131.0</ele>
        <time>2013-07-03T12:24:51Z</time>
      </trkpt>
      <trkpt lat="40.160150" lon="-4.861317">
        <ele>1133.0</ele>
        <time>2013-07-03T12:24:52Z</time>
      </trkpt>
      <trkpt lat="40.160183" lon="-4.861183">
        <ele>1134.0</ele>
        <time>2013-07-03T12:24:53Z</time>
      </trkpt>
      <trkpt lat="40.160217" lon="-4.861100">
        <ele>1137.0</ele>
        <time>2013-07-03T12:24:54Z</time>
      </trkpt>
      <trkpt lat="40.160267" lon="-4.861050">
        <ele>1139.0</ele>
        <time>2013-07-03T12:24:55Z</time>
      </trkpt>
      <trkpt lat="40.160317" lon="-4.861033">
        <ele>1139.0</ele>
        <time>2013-07-03T12:24:56Z</time>
      </trkpt>
      <trkpt lat="40.160367" lon="-4.861033">
        <ele>1138.0</ele>
        <time>2013-07-03T12:24:57Z</time>
      </trkpt>
      <trkpt lat="40.160417" lon="-4.861033">
        <ele>1138.0</ele>
        <time>2013-07-03T12:24:58Z</time>
      </trkpt>
      <trkpt lat="40.160483" lon="-4.861067">
        <ele>1138.0</ele>
        <time>2013-07-03T12:24:59Z</time>
      </trkpt>
      <trkpt lat="40.160500" lon="-4.861117">
        <ele>1139.0</ele>
        <time>2013-07-03T12:25:00Z</time>
      </trkpt>
      <trkpt lat="40.160517" lon="-4.861200">
        <ele>1139.0</ele>
        <time>2013-07-03T12:25:01Z</time>
      </trkpt>
      <trkpt lat="40.160500" lon="-4.861283">
        <ele>1140.0</ele>
        <time>2013-07-03T12:25:02Z</time>
      </trkpt>
      <trkpt lat="40.160483" lon="-4.861367">
        <ele>1141.0</ele>
        <time>2013-07-03T12:25:03Z</time>
      </trkpt>
      <trkpt lat="40.160433" lon="-4.861433">
        <ele>1142.0</ele>
        <time>2013-07-03T12:25:04Z</time>
      </trkpt>
      <trkpt lat="40.160383" lon="-4.861500">
        <ele>1143.0</ele>
        <time>2013-07-03T12:25:05Z</time>
      </trkpt>
      <trkpt lat="40.160317" lon="-4.861550">
        <ele>1144.0</ele>
        <time>2013-07-03T12:25:06Z</time>
      </trkpt>
      <trkpt lat="40.160250" lon="-4.861600">
        <ele>1146.0</ele>
        <time>2013-07-03T12:25:07Z</time>
      </trkpt>
      <trkpt lat="40.160167" lon="-4.861650">
        <ele>1148.0</ele>
        <time>2013-07-03T12:25:08Z</time>
      </trkpt>
      <trkpt lat="40.160100" lon="-4.861683">
        <ele>1150.0</ele>
        <time>2013-07-03T12:25:09Z</time>
      </trkpt>
      <trkpt lat="40.160017" lon="-4.861683">
        <ele>1153.0</ele>
        <time>2013-07-03T12:25:10Z</time>
      </trkpt>
      <trkpt lat="40.159950" lon="-4.861683">
        <ele>1154.0</ele>
        <time>2013-07-03T12:25:11Z</time>
      </trkpt>
      <trkpt lat="40.159867" lon="-4.861667">
        <ele>1156.0</ele>
        <time>2013-07-03T12:25:12Z</time>
      </trkpt>
      <trkpt lat="40.159767" lon="-4.861650">
        <ele>1158.0</ele>
        <time>2013-07-03T12:25:13Z</time>
      </trkpt>
      <trkpt lat="40.159667" lon="-4.861600">
        <ele>1160.0</ele>
        <time>2013-07-03T12:25:14Z</time>
      </trkpt>
      <trkpt lat="40.159600" lon="-4.861533">
        <ele>1162.0</ele>
        <time>2013-07-03T12:25:15Z</time>
      </trkpt>
      <trkpt lat="40.159550" lon="-4.861433">
        <ele>1164.0</ele>
        <time>2013-07-03T12:25:16Z</time>
      </trkpt>
      <trkpt lat="40.159533" lon="-4.861317">
        <ele>1165.0</ele>
        <time>2013-07-03T12:25:17Z</time>
      </trkpt>
      <trkpt lat="40.159550" lon="-4.861217">
        <ele>1166.0</ele>
        <time>2013-07-03T12:25:18Z</time>
      </trkpt>
      <trkpt lat="40.159600" lon="-4.861150">
        <ele>1168.0</ele>
        <time>2013-07-03T12:25:19Z</time>
      </trkpt>
      <trkpt lat="40.159667" lon="-4.861133">
        <ele>1169.0</ele>
        <time>2013-07-03T12:25:20Z</time>
      </trkpt>
      <trkpt lat="40.159717" lon="-4.861150">
        <ele>1171.0</ele>
        <time>2013-07-03T12:25:21Z</time>
      </trkpt>
      <trkpt lat="40.159767" lon="-4.861183">
        <ele>1172.0</ele>
        <time>2013-07-03T12:25:22Z</time>
      </trkpt>
      <trkpt lat="40.159800" lon="-4.861233">
        <ele>1174.0</ele>
        <time>2013-07-03T12:25:23Z</time>
      </trkpt>
      <trkpt lat="40.159833" lon="-4.861300">
        <ele>1176.0</ele>
        <time>2013-07-03T12:25:24Z</time>
      </trkpt>
      <trkpt lat="40.159850" lon="-4.861383">
        <ele>1177.0</ele>
        <time>2013-07-03T12:25:25Z</time>
      </trkpt>
      <trkpt lat="40.159850" lon="-4.861500">
        <ele>1179.0</ele>
        <time>2013-07-03T12:25:26Z</time>
      </trkpt>
      <trkpt lat="40.159817" lon="-4.861633">
        <ele>1182.0</ele>
        <time>2013-07-03T12:25:27Z</time>
      </trkpt>
      <trkpt lat="40.159767" lon="-4.861750">
        <ele>1187.0</ele>
        <time>2013-07-03T12:25:28Z</time>
      </trkpt>
      <trkpt lat="40.159717" lon="-4.861833">
        <ele>1192.0</ele>
        <time>2013-07-03T12:25:29Z</time>
      </trkpt>
      <trkpt lat="40.159667" lon="-4.861883">
        <ele>1196.0</ele>
        <time>2013-07-03T12:25:30Z</time>
      </trkpt>
      <trkpt lat="40.159600" lon="-4.861933">
        <ele>1200.0</ele>
        <time>2013-07-03T12:25:31Z</time>
      </trkpt>
      <trkpt lat="40.159517" lon="-4.861983">
        <ele>1203.0</ele>
        <time>2013-07-03T12:25:32Z</time>
      </trkpt>
      <trkpt lat="40.159433" lon="-4.862033">
        <ele>1205.0</ele>
        <time>2013-07-03T12:25:33Z</time>
      </trkpt>
      <trkpt lat="40.159333" lon="-4.862033">
        <ele>1207.0</ele>
        <time>2013-07-03T12:25:34Z</time>
      </trkpt>
      <trkpt lat="40.159250" lon="-4.862000">
        <ele>1209.0</ele>
        <time>2013-07-03T12:25:35Z</time>
      </trkpt>
      <trkpt lat="40.159150" lon="-4.861950">
        <ele>1211.0</ele>
        <time>2013-07-03T12:25:36Z</time>
      </trkpt>
      <trkpt lat="40.159067" lon="-4.861867">
        <ele>1213.0</ele>
        <time>2013-07-03T12:25:37Z</time>
      </trkpt>
      <trkpt lat="40.159017" lon="-4.861783">
        <ele>1216.0</ele>
        <time>2013-07-03T12:25:38Z</time>
      </trkpt>
      <trkpt lat="40.158983" lon="-4.861683">
        <ele>1219.0</ele>
        <time>2013-07-03T12:25:39Z</time>
      </trkpt>
      <trkpt lat="40.158983" lon="-4.861600">
        <ele>1221.0</ele>
        <time>2013-07-03T12:25:40Z</time>
      </trkpt>
      <trkpt lat="40.159000" lon="-4.861517">
        <ele>1224.0</ele>
        <time>2013-07-03T12:25:41Z</time>
      </trkpt>
      <trkpt lat="40.159017" lon="-4.861450">
        <ele>1228.0</ele>
        <time>2013-07-03T12:25:42Z</time>
      </trkpt>
      <trkpt lat="40.159050" lon="-4.861400">
        <ele>1232.0</ele>
        <time>2013-07-03T12:25:43Z</time>
      </trkpt>
      <trkpt lat="40.159083" lon="-4.861400">
        <ele>1234.0</ele>
        <time>2013-07-03T12:25:44Z</time>
      </trkpt>
      <trkpt lat="40.159133" lon="-4.861417">
        <ele>1236.0</ele>
        <time>2013-07-03T12:25:45Z</time>
      </trkpt>
      <trkpt lat="40.159183" lon="-4.861433">
        <ele>1236.0</ele>
        <time>2013-07-03T12:25:46Z</time>
      </trkpt>
      <trkpt lat="40.159233" lon="-4.861483">
        <ele>1238.0</ele>
        <time>2013-07-03T12:25:47Z</time>
      </trkpt>
      <trkpt lat="40.159267" lon="-4.861550">
        <ele>1240.0</ele>
        <time>2013-07-03T12:25:48Z</time>
      </trkpt>
      <trkpt lat="40.159300" lon="-4.861633">
        <ele>1242.0</ele>
        <time>2013-07-03T12:25:49Z</time>
      </trkpt>
      <trkpt lat="40.159317" lon="-4.861733">
        <ele>1245.0</ele>
        <time>2013-07-03T12:25:50Z</time>
      </trkpt>
      <trkpt lat="40.159333" lon="-4.861850">
        <ele>1249.0</ele>
        <time>2013-07-03T12:25:51Z</time>
      </trkpt>
      <trkpt lat="40.159333" lon="-4.861950">
        <ele>1253.0</ele>
        <time>2013-07-03T12:25:52Z</time>
      </trkpt>
      <trkpt lat="40.159317" lon="-4.862033">
        <ele>1255.0</ele>
        <time>2013-07-03T12:25:53Z</time>
      </trkpt>
      <trkpt lat="40.159300" lon="-4.862117">
        <ele>1256.0</ele>
        <time>2013-07-03T12:25:54Z</time>
      </trkpt>
      <trkpt lat="40.159300" lon="-4.862200">
        <ele>1256.0</ele>
        <time>2013-07-03T12:25:55Z</time>
      </trkpt>
      <trkpt lat="40.159267" lon="-4.862283">
        <ele>1256.0</ele>
        <time>2013-07-03T12:25:56Z</time>
      </trkpt>
      <trkpt lat="40.159217" lon="-4.862350">
        <ele>1255.0</ele>
        <time>2013-07-03T12:25:57Z</time>
      </trkpt>
      <trkpt lat="40.159133" lon="-4.862367">
        <ele>1254.0</ele>
        <time>2013-07-03T12:25:58Z</time>
      </trkpt>
      <trkpt lat="40.159033" lon="-4.862350">
        <ele>1254.0</ele>
        <time>2013-07-03T12:25:59Z</time>
      </trkpt>
      <trkpt lat="40.158933" lon="-4.862317">
        <ele>1255.0</ele>
        <time>2013-07-03T12:26:00Z</time>
      </trkpt>
      <trkpt lat="40.158867" lon="-4.862267">
        <ele>1257.0</ele>
        <time>2013-07-03T12:26:01Z</time>
      </trkpt>
      <trkpt lat="40.158800" lon="-4.862217">
        <ele>1258.0</ele>
        <time>2013-07-03T12:26:02Z</time>
      </trkpt>
      <trkpt lat="40.158750" lon="-4.862150">
        <ele>1258.0</ele>
        <time>2013-07-03T12:26:03Z</time>
      </trkpt>
      <trkpt lat="40.158683" lon="-4.862050">
        <ele>1258.0</ele>
        <time>2013-07-03T12:26:04Z</time>
      </trkpt>
      <trkpt lat="40.158633" lon="-4.861933">
        <ele>1257.0</ele>
        <time>2013-07-03T12:26:05Z</time>
      </trkpt>
      <trkpt lat="40.158617" lon="-4.861783">
        <ele>1258.0</ele>
        <time>2013-07-03T12:26:06Z</time>
      </trkpt>
      <trkpt lat="40.158617" lon="-4.861667">
        <ele>1260.0</ele>
        <time>2013-07-03T12:26:07Z</time>
      </trkpt>
      <trkpt lat="40.158650" lon="-4.861567">
        <ele>1264.0</ele>
        <time>2013-07-03T12:26:08Z</time>
      </trkpt>
      <trkpt lat="40.158667" lon="-4.861467">
        <ele>1267.0</ele>
        <time>2013-07-03T12:26:09Z</time>
      </trkpt>
      <trkpt lat="40.158683" lon="-4.861383">
        <ele>1270.0</ele>
        <time>2013-07-03T12:26:10Z</time>
      </trkpt>
      <trkpt lat="40.158700" lon="-4.861300">
        <ele>1274.0</ele>
        <time>2013-07-03T12:26:11Z</time>
      </trkpt>
      <trkpt lat="40.158717" lon="-4.861250">
        <ele>1278.0</ele>
        <time>2013-07-03T12:26:12Z</time>
      </trkpt>
      <trkpt lat="40.158733" lon="-4.861217">
        <ele>1282.0</ele>
        <time>2013-07-03T12:26:13Z</time>
      </trkpt>
      <trkpt lat="40.158767" lon="-4.861200">
        <ele>1285.0</ele>
        <time>2013-07-03T12:26:14Z</time>
      </trkpt>
      <trkpt lat="40.158800" lon="-4.861200">
        <ele>1287.0</ele>
        <time>2013-07-03T12:26:15Z</time>
      </trkpt>
      <trkpt lat="40.158850" lon="-4.861217">
        <ele>1289.0</ele>
        <time>2013-07-03T12:26:16Z</time>
      </trkpt>
      <trkpt lat="40.158883" lon="-4.861267">
        <ele>1291.0</ele>
        <time>2013-07-03T12:26:17Z</time>
      </trkpt>
      <trkpt lat="40.158900" lon="-4.861333">
        <ele>1294.0</ele>
        <time>2013-07-03T12:26:18Z</time>
      </trkpt>
      <trkpt lat="40.158900" lon="-4.861450">
        <ele>1296.0</ele>
        <time>2013-07-03T12:26:19Z</time>
      </trkpt>
      <trkpt lat="40.158867" lon="-4.861550">
        <ele>1298.0</ele>
        <time>2013-07-03T12:26:20Z</time>
      </trkpt>
      <trkpt lat="40.158800" lon="-4.861633">
        <ele>1303.0</ele>
        <time>2013-07-03T12:26:21Z</time>
      </trkpt>
      <trkpt lat="40.158717" lon="-4.861683">
        <ele>1306.0</ele>
        <time>2013-07-03T12:26:22Z</time>
      </trkpt>
      <trkpt lat="40.158633" lon="-4.861683">
        <ele>1309.0</ele>
        <time>2013-07-03T12:26:23Z</time>
      </trkpt>
      <trkpt lat="40.158550" lon="-4.861667">
        <ele>1312.0</ele>
        <time>2013-07-03T12:26:24Z</time>
      </trkpt>
      <trkpt lat="40.158450" lon="-4.861633">
        <ele>1314.0</ele>
        <time>2013-07-03T12:26:25Z</time>
      </trkpt>
      <trkpt lat="40.158367" lon="-4.861583">
        <ele>1317.0</ele>
        <time>2013-07-03T12:26:26Z</time>
      </trkpt>
      <trkpt lat="40.158317" lon="-4.861483">
        <ele>1319.0</ele>
        <time>2013-07-03T12:26:27Z</time>
      </trkpt>
      <trkpt lat="40.158283" lon="-4.861367">
        <ele>1321.0</ele>
        <time>2013-07-03T12:26:28Z</time>
      </trkpt>
      <trkpt lat="40.158283" lon="-4.861233">
        <ele>1324.0</ele>
        <time>2013-07-03T12:26:29Z</time>
      </trkpt>
      <trkpt lat="40.158300" lon="-4.861133">
        <ele>1327.0</ele>
        <time>2013-07-03T12:26:30Z</time>
      </trkpt>
      <trkpt lat="40.158317" lon="-4.861050">
        <ele>1331.0</ele>
        <time>2013-07-03T12:26:31Z</time>
      </trkpt>
      <trkpt lat="40.158350" lon="-4.860983">
        <ele>1333.0</ele>
        <time>2013-07-03T12:26:32Z</time>
      </trkpt>
      <trkpt lat="40.158383" lon="-4.860933">
        <ele>1335.0</ele>
        <time>2013-07-03T12:26:33Z</time>
      </trkpt>
      <trkpt lat="40.158467" lon="-4.860900">
        <ele>1337.0</ele>
        <time>2013-07-03T12:26:34Z</time>
      </trkpt>
      <trkpt lat="40.158550" lon="-4.860900">
        <ele>1339.0</ele>
        <time>2013-07-03T12:26:35Z</time>
      </trkpt>
      <trkpt lat="40.158617" lon="-4.860967">
        <ele>1342.0</ele>
        <time>2013-07-03T12:26:36Z</time>
      </trkpt>
      <trkpt lat="40.158650" lon="-4.861083">
        <ele>1345.0</ele>
        <time>2013-07-03T12:26:37Z</time>
      </trkpt>
      <trkpt lat="40.158650" lon="-4.861200">
        <ele>1350.0</ele>
        <time>2013-07-03T12:26:38Z</time>
      </trkpt>
      <trkpt lat="40.158617" lon="-4.861300">
        <ele>1355.0</ele>
        <time>2013-07-03T12:26:39Z</time>
      </trkpt>
      <trkpt lat="40.158567" lon="-4.861367">
        <ele>1359.0</ele>
        <time>2013-07-03T12:26:40Z</time>
      </trkpt>
      <trkpt lat="40.158500" lon="-4.861417">
        <ele>1363.0</ele>
        <time>2013-07-03T12:26:41Z</time>
      </trkpt>
      <trkpt lat="40.158433" lon="-4.861467">
        <ele>1366.0</ele>
        <time>2013-07-03T12:26:42Z</time>
      </trkpt>
      <trkpt lat="40.158350" lon="-4.861500">
        <ele>1368.0</ele>
        <time>2013-07-03T12:26:43Z</time>
      </trkpt>
      <trkpt lat="40.158267" lon="-4.861517">
        <ele>1370.0</ele>
        <time>2013-07-03T12:26:44Z</time>
      </trkpt>
      <trkpt lat="40.158183" lon="-4.861517">
        <ele>1372.0</ele>
        <time>2013-07-03T12:26:45Z</time>
      </trkpt>
      <trkpt lat="40.158100" lon="-4.861483">
        <ele>1374.0</ele>
        <time>2013-07-03T12:26:46Z</time>
      </trkpt>
      <trkpt lat="40.158033" lon="-4.861417">
        <ele>1375.0</ele>
        <time>2013-07-03T12:26:47Z</time>
      </trkpt>
      <trkpt lat="40.157983" lon="-4.861317">
        <ele>1377.0</ele>
        <time>2013-07-03T12:26:48Z</time>
      </trkpt>
      <trkpt lat="40.157967" lon="-4.861200">
        <ele>1380.0</ele>
        <time>2013-07-03T12:26:49Z</time>
      </trkpt>
      <trkpt lat="40.157983" lon="-4.861100">
        <ele>1383.0</ele>
        <time>2013-07-03T12:26:50Z</time>
      </trkpt>
      <trkpt lat="40.158017" lon="-4.861033">
        <ele>1385.0</ele>
        <time>2013-07-03T12:26:51Z</time>
      </trkpt>
      <trkpt lat="40.158050" lon="-4.861000">
        <ele>1387.0</ele>
        <time>2013-07-03T12:26:52Z</time>
      </trkpt>
      <trkpt lat="40.158117" lon="-4.860983">
        <ele>1388.0</ele>
        <time>2013-07-03T12:26:53Z</time>
      </trkpt>
      <trkpt lat="40.158167" lon="-4.861000">
        <ele>1389.0</ele>
        <time>2013-07-03T12:26:54Z</time>
      </trkpt>
      <trkpt lat="40.158217" lon="-4.861050">
        <ele>1391.0</ele>
        <time>2013-07-03T12:26:55Z</time>
      </trkpt>
      <trkpt lat="40.158250" lon="-4.861150">
        <ele>1393.0</ele>
        <time>2013-07-03T12:26:56Z</time>
      </trkpt>
      <trkpt lat="40.158250" lon="-4.861233">
        <ele>1395.0</ele>
        <time>2013-07-03T12:26:57Z</time>
      </trkpt>
      <trkpt lat="40.158233" lon="-4.861333">
        <ele>1398.0</ele>
        <time>2013-07-03T12:26:58Z</time>
      </trkpt>
      <trkpt lat="40.158200" lon="-4.861400">
        <ele>1400.0</ele>
        <time>2013-07-03T12:26:59Z</time>
      </trkpt>
      <trkpt lat="40.158150" lon="-4.861467">
        <ele>1402.0</ele>
        <time>2013-07-03T12:27:00Z</time>
      </trkpt>
      <trkpt lat="40.158100" lon="-4.861533">
        <ele>1403.0</ele>
        <time>2013-07-03T12:27:01Z</time>
      </trkpt>
      <trkpt lat="40.158050" lon="-4.861600">
        <ele>1404.0</ele>
        <time>2013-07-03T12:27:02Z</time>
      </trkpt>
      <trkpt lat="40.157983" lon="-4.861650">
        <ele>1405.0</ele>
        <time>2013-07-03T12:27:03Z</time>
      </trkpt>
      <trkpt lat="40.157900" lon="-4.861700">
        <ele>1407.0</ele>
        <time>2013-07-03T12:27:04Z</time>
      </trkpt>
      <trkpt lat="40.157817" lon="-4.861700">
        <ele>1409.0</ele>
        <time>2013-07-03T12:27:05Z</time>
      </trkpt>
      <trkpt lat="40.157717" lon="-4.861683">
        <ele>1411.0</ele>
        <time>2013-07-03T12:27:06Z</time>
      </trkpt>
      <trkpt lat="40.157633" lon="-4.861633">
        <ele>1413.0</ele>
        <time>2013-07-03T12:27:07Z</time>
      </trkpt>
      <trkpt lat="40.157583" lon="-4.861567">
        <ele>1415.0</ele>
        <time>2013-07-03T12:27:08Z</time>
      </trkpt>
      <trkpt lat="40.157533" lon="-4.861467">
        <ele>1416.0</ele>
        <time>2013-07-03T12:27:09Z</time>
      </trkpt>
      <trkpt lat="40.157517" lon="-4.861350">
        <ele>1417.0</ele>
        <time>2013-07-03T12:27:10Z</time>
      </trkpt>
      <trkpt lat="40.157533" lon="-4.861250">
        <ele>1419.0</ele>
        <time>2013-07-03T12:27:11Z</time>
      </trkpt>
      <trkpt lat="40.157550" lon="-4.861167">
        <ele>1420.0</ele>
        <time>2013-07-03T12:27:12Z</time>
      </trkpt>
      <trkpt lat="40.157600" lon="-4.861100">
        <ele>1422.0</ele>
        <time>2013-07-03T12:27:13Z</time>
      </trkpt>
      <trkpt lat="40.157633" lon="-4.861017">
        <ele>1425.0</ele>
        <time>2013-07-03T12:27:14Z</time>
      </trkpt>
      <trkpt lat="40.157667" lon="-4.860950">
        <ele>1427.0</ele>
        <time>2013-07-03T12:27:15Z</time>
      </trkpt>
      <trkpt lat="40.157700" lon="-4.860900">
        <ele>1430.0</ele>
        <time>2013-07-03T12:27:16Z</time>
      </trkpt>
      <trkpt lat="40.157750" lon="-4.860850">
        <ele>1431.0</ele>
        <time>2013-07-03T12:27:17Z</time>
      </trkpt>
      <trkpt lat="40.157800" lon="-4.860800">
        <ele>1433.0</ele>
        <time>2013-07-03T12:27:18Z</time>
      </trkpt>
      <trkpt lat="40.157867" lon="-4.860783">
        <ele>1434.0</ele>
        <time>2013-07-03T12:27:19Z</time>
      </trkpt>
      <trkpt lat="40.157933" lon="-4.860767">
        <ele>1437.0</ele>
        <time>2013-07-03T12:27:20Z</time>
      </trkpt>
      <trkpt lat="40.158000" lon="-4.860800">
        <ele>1442.0</ele>
        <time>2013-07-03T12:27:21Z</time>
      </trkpt>
      <trkpt lat="40.158033" lon="-4.860833">
        <ele>1447.0</ele>
        <time>2013-07-03T12:27:22Z</time>
      </trkpt>
      <trkpt lat="40.158067" lon="-4.860867">
        <ele>1452.0</ele>
        <time>2013-07-03T12:27:23Z</time>
      </trkpt>
      <trkpt lat="40.158083" lon="-4.860917">
        <ele>1457.0</ele>
        <time>2013-07-03T12:27:24Z</time>
      </trkpt>
      <trkpt lat="40.158100" lon="-4.860983">
        <ele>1461.0</ele>
        <time>2013-07-03T12:27:25Z</time>
      </trkpt>
      <trkpt lat="40.158133" lon="-4.861050">
        <ele>1464.0</ele>
        <time>2013-07-03T12:27:26Z</time>
      </trkpt>
      <trkpt lat="40.158167" lon="-4.861133">
        <ele>1467.0</ele>
        <time>2013-07-03T12:27:27Z</time>
      </trkpt>
      <trkpt lat="40.158183" lon="-4.861233">
        <ele>1470.0</ele>
        <time>2013-07-03T12:27:28Z</time>
      </trkpt>
      <trkpt lat="40.158167" lon="-4.861333">
        <ele>1472.0</ele>
        <time>2013-07-03T12:27:29Z</time>
      </trkpt>
      <trkpt lat="40.158150" lon="-4.861450">
        <ele>1474.0</ele>
        <time>2013-07-03T12:27:30Z</time>
      </trkpt>
      <trkpt lat="40.158083" lon="-4.861567">
        <ele>1475.0</ele>
        <time>2013-07-03T12:27:31Z</time>
      </trkpt>
      <trkpt lat="40.158000" lon="-4.861667">
        <ele>1476.0</ele>
        <time>2013-07-03T12:27:32Z</time>
      </trkpt>
      <trkpt lat="40.157900" lon="-4.861733">
        <ele>1478.0</ele>
        <time>2013-07-03T12:27:33Z</time>
      </trkpt>
      <trkpt lat="40.157800" lon="-4.861717">
        <ele>1479.0</ele>
        <time>2013-07-03T12:27:34Z</time>
      </trkpt>
      <trkpt lat="40.157717" lon="-4.861667">
        <ele>1481.0</ele>
        <time>2013-07-03T12:27:35Z</time>
      </trkpt>
      <trkpt lat="40.157667" lon="-4.861583">
        <ele>1483.0</ele>
        <time>2013-07-03T12:27:36Z</time>
      </trkpt>
      <trkpt lat="40.157617" lon="-4.861517">
        <ele>1485.0</ele>
        <time>2013-07-03T12:27:37Z</time>
      </trkpt>
      <trkpt lat="40.157583" lon="-4.861433">
        <ele>1486.0</ele>
        <time>2013-07-03T12:27:38Z</time>
      </trkpt>
      <trkpt lat="40.157567" lon="-4.861350">
        <ele>1487.0</ele>
        <time>2013-07-03T12:27:39Z</time>
      </trkpt>
      <trkpt lat="40.157550" lon="-4.861250">
        <ele>1489.0</ele>
        <time>2013-07-03T12:27:40Z</time>
      </trkpt>
      <trkpt lat="40.157583" lon="-4.861183">
        <ele>1491.0</ele>
        <time>2013-07-03T12:27:41Z</time>
      </trkpt>
      <trkpt lat="40.157617" lon="-4.861117">
        <ele>1494.0</ele>
        <time>2013-07-03T12:27:42Z</time>
      </trkpt>
      <trkpt lat="40.157650" lon="-4.861083">
        <ele>1498.0</ele>
        <time>2013-07-03T12:27:43Z</time>
      </trkpt>
      <trkpt lat="40.157700" lon="-4.861067">
        <ele>1502.0</ele>
        <time>2013-07-03T12:27:44Z</time>
      </trkpt>
      <trkpt lat="40.157733" lon="-4.861067">
        <ele>1506.0</ele>
        <time>2013-07-03T12:27:45Z</time>
      </trkpt>
      <trkpt lat="40.157783" lon="-4.861067">
        <ele>1508.0</ele>
        <time>2013-07-03T12:27:46Z</time>
      </trkpt>
      <trkpt lat="40.157833" lon="-4.861100">
        <ele>1511.0</ele>
        <time>2013-07-03T12:27:47Z</time>
      </trkpt>
      <trkpt lat="40.157867" lon="-4.861183">
        <ele>1513.0</ele>
        <time>2013-07-03T12:27:48Z</time>
      </trkpt>
      <trkpt lat="40.157900" lon="-4.861300">
        <ele>1515.0</ele>
        <time>2013-07-03T12:27:49Z</time>
      </trkpt>
      <trkpt lat="40.157883" lon="-4.861417">
        <ele>1518.0</ele>
        <time>2013-07-03T12:27:50Z</time>
      </trkpt>
      <trkpt lat="40.157850" lon="-4.861533">
        <ele>1521.0</ele>
        <time>2013-07-03T12:27:51Z</time>
      </trkpt>
      <trkpt lat="40.157817" lon="-4.861617">
        <ele>1523.0</ele>
        <time>2013-07-03T12:27:52Z</time>
      </trkpt>
      <trkpt lat="40.157767" lon="-4.861700">
        <ele>1524.0</ele>
        <time>2013-07-03T12:27:53Z</time>
      </trkpt>
      <trkpt lat="40.157733" lon="-4.861817">
        <ele>1524.0</ele>
        <time>2013-07-03T12:27:54Z</time>
      </trkpt>
      <trkpt lat="40.157683" lon="-4.861917">
        <ele>1524.0</ele>
        <time>2013-07-03T12:27:55Z</time>
      </trkpt>
      <trkpt lat="40.157600" lon="-4.862033">
        <ele>1524.0</ele>
        <time>2013-07-03T12:27:56Z</time>
      </trkpt>
      <trkpt lat="40.157500" lon="-4.862100">
        <ele>1526.0</ele>
        <time>2013-07-03T12:27:57Z</time>
      </trkpt>
      <trkpt lat="40.157400" lon="-4.862117">
        <ele>1529.0</ele>
        <time>2013-07-03T12:27:58Z</time>
      </trkpt>
      <trkpt lat="40.157317" lon="-4.862100">
        <ele>1532.0</ele>
        <time>2013-07-03T12:27:59Z</time>
      </trkpt>
      <trkpt lat="40.157250" lon="-4.862083">
        <ele>1534.0</ele>
        <time>2013-07-03T12:28:00Z</time>
      </trkpt>
      <trkpt lat="40.157183" lon="-4.862033">
        <ele>1535.0</ele>
        <time>2013-07-03T12:28:01Z</time>
      </trkpt>
      <trkpt lat="40.157100" lon="-4.861983">
        <ele>1537.0</ele>
        <time>2013-07-03T12:28:02Z</time>
      </trkpt>
      <trkpt lat="40.157033" lon="-4.861900">
        <ele>1538.0</ele>
        <time>2013-07-03T12:28:03Z</time>
      </trkpt>
      <trkpt lat="40.157000" lon="-4.861800">
        <ele>1541.0</ele>
        <time>2013-07-03T12:28:04Z</time>
      </trkpt>
      <trkpt lat="40.156983" lon="-4.861717">
        <ele>1544.0</ele>
        <time>2013-07-03T12:28:05Z</time>
      </trkpt>
      <trkpt lat="40.156983" lon="-4.861650">
        <ele>1547.0</ele>
        <time>2013-07-03T12:28:06Z</time>
      </trkpt>
      <trkpt lat="40.157000" lon="-4.861583">
        <ele>1549.0</ele>
        <time>2013-07-03T12:28:07Z</time>
      </trkpt>
      <trkpt lat="40.157017" lon="-4.861533">
        <ele>1551.0</ele>
        <time>2013-07-03T12:28:08Z</time>
      </trkpt>
      <trkpt lat="40.157033" lon="-4.861467">
        <ele>1552.0</ele>
        <time>2013-07-03T12:28:09Z</time>
      </trkpt>
      <trkpt lat="40.157083" lon="-4.861400">
        <ele>1554.0</ele>
        <time>2013-07-03T12:28:10Z</time>
      </trkpt>
      <trkpt lat="40.157150" lon="-4.861367">
        <ele>1556.0</ele>
        <time>2013-07-03T12:28:11Z</time>
      </trkpt>
      <trkpt lat="40.157217" lon="-4.861367">
        <ele>1559.0</ele>
        <time>2013-07-03T12:28:12Z</time>
      </trkpt>
      <trkpt lat="40.157267" lon="-4.861400">
        <ele>1562.0</ele>
        <time>2013-07-03T12:28:13Z</time>
      </trkpt>
      <trkpt lat="40.157317" lon="-4.861450">
        <ele>1564.0</ele>
        <time>2013-07-03T12:28:14Z</time>
      </trkpt>
      <trkpt lat="40.157350" lon="-4.861483">
        <ele>1566.0</ele>
        <time>2013-07-03T12:28:15Z</time>
      </trkpt>
      <trkpt lat="40.157400" lon="-4.861533">
        <ele>1568.0</ele>
        <time>2013-07-03T12:28:16Z</time>
      </trkpt>
      <trkpt lat="40.157433" lon="-4.861600">
        <ele>1570.0</ele>
        <time>2013-07-03T12:28:17Z</time>
      </trkpt>
      <trkpt lat="40.157483" lon="-4.861683">
        <ele>1572.0</ele>
        <time>2013-07-03T12:28:18Z</time>
      </trkpt>
      <trkpt lat="40.157517" lon="-4.861783">
        <ele>1574.0</ele>
        <time>2013-07-03T12:28:19Z</time>
      </trkpt>
      <trkpt lat="40.157550" lon="-4.861883">
        <ele>1576.0</ele>
        <time>2013-07-03T12:28:20Z</time>
      </trkpt>
      <trkpt lat="40.157550" lon="-4.861983">
        <ele>1577.0</ele>
        <time>2013-07-03T12:28:21Z</time>
      </trkpt>
      <trkpt lat="40.157517" lon="-4.862117">
        <ele>1578.0</ele>
        <time>2013-07-03T12:28:22Z</time>
      </trkpt>
      <trkpt lat="40.157450" lon="-4.862233">
        <ele>1578.0</ele>
        <time>2013-07-03T12:28:23Z</time>
      </trkpt>
      <trkpt lat="40.157367" lon="-4.862333">
        <ele>1578.0</ele>
        <time>2013-07-03T12:28:24Z</time>
      </trkpt>
      <trkpt lat="40.157267" lon="-4.862400">
        <ele>1579.0</ele>
        <time>2013-07-03T12:28:25Z</time>
      </trkpt>
      <trkpt lat="40.157167" lon="-4.862467">
        <ele>1580.0</ele>
        <time>2013-07-03T12:28:26Z</time>
      </trkpt>
      <trkpt lat="40.157083" lon="-4.862517">
        <ele>1581.0</ele>
        <time>2013-07-03T12:28:27Z</time>
      </trkpt>
      <trkpt lat="40.157000" lon="-4.862567">
        <ele>1582.0</ele>
        <time>2013-07-03T12:28:28Z</time>
      </trkpt>
      <trkpt lat="40.156917" lon="-4.862600">
        <ele>1583.0</ele>
        <time>2013-07-03T12:28:29Z</time>
      </trkpt>
      <trkpt lat="40.156817" lon="-4.862617">
        <ele>1583.0</ele>
        <time>2013-07-03T12:28:30Z</time>
      </trkpt>
      <trkpt lat="40.156717" lon="-4.862600">
        <ele>1584.0</ele>
        <time>2013-07-03T12:28:31Z</time>
      </trkpt>
      <trkpt lat="40.156617" lon="-4.862550">
        <ele>1586.0</ele>
        <time>2013-07-03T12:28:32Z</time>
      </trkpt>
      <trkpt lat="40.156533" lon="-4.862500">
        <ele>1590.0</ele>
        <time>2013-07-03T12:28:33Z</time>
      </trkpt>
      <trkpt lat="40.156483" lon="-4.862450">
        <ele>1592.0</ele>
        <time>2013-07-03T12:28:34Z</time>
      </trkpt>
      <trkpt lat="40.156433" lon="-4.862383">
        <ele>1594.0</ele>
        <time>2013-07-03T12:28:35Z</time>
      </trkpt>
      <trkpt lat="40.156400" lon="-4.862317">
        <ele>1596.0</ele>
        <time>2013-07-03T12:28:36Z</time>
      </trkpt>
      <trkpt lat="40.156367" lon="-4.862233">
        <ele>1598.0</ele>
        <time>2013-07-03T12:28:37Z</time>
      </trkpt>
      <trkpt lat="40.156367" lon="-4.862150">
        <ele>1600.0</ele>
        <time>2013-07-03T12:28:38Z</time>
      </trkpt>
      <trkpt lat="40.156367" lon="-4.862067">
        <ele>1603.0</ele>
        <time>2013-07-03T12:28:39Z</time>
      </trkpt>
      <trkpt lat="40.156400" lon="-4.862000">
        <ele>1605.0</ele>
        <time>2013-07-03T12:28:40Z</time>
      </trkpt>
      <trkpt lat="40.156450" lon="-4.861967">
        <ele>1608.0</ele>
        <time>2013-07-03T12:28:41Z</time>
      </trkpt>
      <trkpt lat="40.156500" lon="-4.861950">
        <ele>1611.0</ele>
        <time>2013-07-03T12:28:42Z</time>
      </trkpt>
      <trkpt lat="40.156567" lon="-4.861967">
        <ele>1613.0</ele>
        <time>2013-07-03T12:28:43Z</time>
      </trkpt>
      <trkpt lat="40.156617" lon="-4.861983">
        <ele>1616.0</ele>
        <time>2013-07-03T12:28:44Z</time>
      </trkpt>
      <trkpt lat="40.156667" lon="-4.862017">
        <ele>1618.0</ele>
        <time>2013-07-03T12:28:45Z</time>
      </trkpt>
      <trkpt lat="40.156717" lon="-4.862067">
        <ele>1620.0</ele>
        <time>2013-07-03T12:28:46Z</time>
      </trkpt>
      <trkpt lat="40.156767" lon="-4.862117">
        <ele>1621.0</ele>
        <time>2013-07-03T12:28:47Z</time>
      </trkpt>
      <trkpt lat="40.156800" lon="-4.862200">
        <ele>1623.0</ele>
        <time>2013-07-03T12:28:48Z</time>
      </trkpt>
      <trkpt lat="40.156817" lon="-4.862317">
        <ele>1624.0</ele>
        <time>2013-07-03T12:28:49Z</time>
      </trkpt>
      <trkpt lat="40.156817" lon="-4.862433">
        <ele>1626.0</ele>
        <time>2013-07-03T12:28:50Z</time>
      </trkpt>
      <trkpt lat="40.156800" lon="-4.862533">
        <ele>1628.0</ele>
        <time>2013-07-03T12:28:51Z</time>
      </trkpt>
      <trkpt lat="40.156750" lon="-4.862633">
        <ele>1629.0</ele>
        <time>2013-07-03T12:28:52Z</time>
      </trkpt>
      <trkpt lat="40.156700" lon="-4.862717">
        <ele>1630.0</ele>
        <time>2013-07-03T12:28:53Z</time>
      </trkpt>
      <trkpt lat="40.156633" lon="-4.862800">
        <ele>1630.0</ele>
        <time>2013-07-03T12:28:54Z</time>
      </trkpt>
      <trkpt lat="40.156550" lon="-4.862883">
        <ele>1630.0</ele>
        <time>2013-07-03T12:28:55Z</time>
      </trkpt>
      <trkpt lat="40.156467" lon="-4.862950">
        <ele>1631.0</ele>
        <time>2013-07-03T12:28:56Z</time>
      </trkpt>
      <trkpt lat="40.156367" lon="-4.863000">
        <ele>1632.0</ele>
        <time>2013-07-03T12:28:57Z</time>
      </trkpt>
      <trkpt lat="40.156267" lon="-4.863017">
        <ele>1633.0</ele>
        <time>2013-07-03T12:28:58Z</time>
      </trkpt>
      <trkpt lat="40.156167" lon="-4.863000">
        <ele>1635.0</ele>
        <time>2013-07-03T12:28:59Z</time>
      </trkpt>
      <trkpt lat="40.156100" lon="-4.862950">
        <ele>1637.0</ele>
        <time>2013-07-03T12:29:00Z</time>
      </trkpt>
      <trkpt lat="40.156033" lon="-4.862900">
        <ele>1640.0</ele>
        <time>2013-07-03T12:29:01Z</time>
      </trkpt>
      <trkpt lat="40.155967" lon="-4.862850">
        <ele>1643.0</ele>
        <time>2013-07-03T12:29:02Z</time>
      </trkpt>
      <trkpt lat="40.155917" lon="-4.862800">
        <ele>1645.0</ele>
        <time>2013-07-03T12:29:03Z</time>
      </trkpt>
      <trkpt lat="40.155883" lon="-4.862733">
        <ele>1647.0</ele>
        <time>2013-07-03T12:29:04Z</time>
      </trkpt>
      <trkpt lat="40.155850" lon="-4.862683">
        <ele>1649.0</ele>
        <time>2013-07-03T12:29:05Z</time>
      </trkpt>
      <trkpt lat="40.155850" lon="-4.862600">
        <ele>1651.0</ele>
        <time>2013-07-03T12:29:06Z</time>
      </trkpt>
      <trkpt lat="40.155867" lon="-4.862550">
        <ele>1654.0</ele>
        <time>2013-07-03T12:29:07Z</time>
      </trkpt>
      <trkpt lat="40.155883" lon="-4.862500">
        <ele>1657.0</ele>
        <time>2013-07-03T12:29:08Z</time>
      </trkpt>
      <trkpt lat="40.155917" lon="-4.862467">
        <ele>1660.0</ele>
        <time>2013-07-03T12:29:09Z</time>
      </trkpt>
      <trkpt lat="40.155967" lon="-4.862433">
        <ele>1663.0</ele>
        <time>2013-07-03T12:29:10Z</time>
      </trkpt>
      <trkpt lat="40.156000" lon="-4.862433">
        <ele>1665.0</ele>
        <time>2013-07-03T12:29:11Z</time>
      </trkpt>
      <trkpt lat="40.156050" lon="-4.862433">
        <ele>1668.0</ele>
        <time>2013-07-03T12:29:12Z</time>
      </trkpt>
      <trkpt lat="40.156117" lon="-4.862450">
        <ele>1669.0</ele>
        <time>2013-07-03T12:29:13Z</time>
      </trkpt>
      <trkpt lat="40.156167" lon="-4.862483">
        <ele>1671.0</ele>
        <time>2013-07-03T12:29:14Z</time>
      </trkpt>
      <trkpt lat="40.156217" lon="-4.862533">
        <ele>1674.0</ele>
        <time>2013-07-03T12:29:15Z</time>
      </trkpt>
      <trkpt lat="40.156250" lon="-4.862600">
        <ele>1675.0</ele>
        <time>2013-07-03T12:29:16Z</time>
      </trkpt>
      <trkpt lat="40.156283" lon="-4.862683">
        <ele>1677.0</ele>
        <time>2013-07-03T12:29:17Z</time>
      </trkpt>
      <trkpt lat="40.156283" lon="-4.862800">
        <ele>1678.0</ele>
        <time>2013-07-03T12:29:18Z</time>
      </trkpt>
      <trkpt lat="40.156283" lon="-4.862917">
        <ele>1679.0</ele>
        <time>2013-07-03T12:29:19Z</time>
      </trkpt>
      <trkpt lat="40.156283" lon="-4.863033">
        <ele>1680.0</ele>
        <time>2013-07-03T12:29:20Z</time>
      </trkpt>
      <trkpt lat="40.156267" lon="-4.863133">
        <ele>1682.0</ele>
        <time>2013-07-03T12:29:21Z</time>
      </trkpt>
      <trkpt lat="40.156217" lon="-4.863250">
        <ele>1684.0</ele>
        <time>2013-07-03T12:29:22Z</time>
      </trkpt>
      <trkpt lat="40.156167" lon="-4.863333">
        <ele>1685.0</ele>
        <time>2013-07-03T12:29:23Z</time>
      </trkpt>
      <trkpt lat="40.156100" lon="-4.863417">
        <ele>1686.0</ele>
        <time>2013-07-03T12:29:24Z</time>
      </trkpt>
      <trkpt lat="40.156017" lon="-4.863500">
        <ele>1687.0</ele>
        <time>2013-07-03T12:29:25Z</time>
      </trkpt>
      <trkpt lat="40.155933" lon="-4.863550">
        <ele>1689.0</ele>
        <time>2013-07-03T12:29:26Z</time>
      </trkpt>
      <trkpt lat="40.155833" lon="-4.863600">
        <ele>1690.0</ele>
        <time>2013-07-03T12:29:27Z</time>
      </trkpt>
      <trkpt lat="40.155750" lon="-4.863633">
        <ele>1690.0</ele>
        <time>2013-07-03T12:29:28Z</time>
      </trkpt>
      <trkpt lat="40.155633" lon="-4.863650">
        <ele>1691.0</ele>
        <time>2013-07-03T12:29:29Z</time>
      </trkpt>
      <trkpt lat="40.155550" lon="-4.863617">
        <ele>1691.0</ele>
        <time>2013-07-03T12:29:30Z</time>
      </trkpt>
      <trkpt lat="40.155450" lon="-4.863567">
        <ele>1693.0</ele>
        <time>2013-07-03T12:29:31Z</time>
      </trkpt>
      <trkpt lat="40.155400" lon="-4.863500">
        <ele>1695.0</ele>
        <time>2013-07-03T12:29:32Z</time>
      </trkpt>
      <trkpt lat="40.155350" lon="-4.863433">
        <ele>1697.0</ele>
        <time>2013-07-03T12:29:33Z</time>
      </trkpt>
      <trkpt lat="40.155333" lon="-4.863367">
        <ele>1699.0</ele>
        <time>2013-07-03T12:29:34Z</time>
      </trkpt>
      <trkpt lat="40.155317" lon="-4.863317">
        <ele>1701.0</ele>
        <time>2013-07-03T12:29:35Z</time>
      </trkpt>
      <trkpt lat="40.155300" lon="-4.863267">
        <ele>1702.0</ele>
        <time>2013-07-03T12:29:36Z</time>
      </trkpt>
      <trkpt lat="40.155283" lon="-4.863200">
        <ele>1703.0</ele>
        <time>2013-07-03T12:29:37Z</time>
      </trkpt>
      <trkpt lat="40.155283" lon="-4.863150">
        <ele>1704.0</ele>
        <time>2013-07-03T12:29:38Z</time>
      </trkpt>
      <trkpt lat="40.155317" lon="-4.863083">
        <ele>1705.0</ele>
        <time>2013-07-03T12:29:39Z</time>
      </trkpt>
      <trkpt lat="40.155350" lon="-4.863033">
        <ele>1706.0</ele>
        <time>2013-07-03T12:29:40Z</time>
      </trkpt>
      <trkpt lat="40.155383" lon="-4.862983">
        <ele>1710.0</ele>
        <time>2013-07-03T12:29:41Z</time>
      </trkpt>
      <trkpt lat="40.155417" lon="-4.862967">
        <ele>1713.0</ele>
        <time>2013-07-03T12:29:42Z</time>
      </trkpt>
      <trkpt lat="40.155450" lon="-4.862933">
        <ele>1715.0</ele>
        <time>2013-07-03T12:29:43Z</time>
      </trkpt>
      <trkpt lat="40.155467" lon="-4.862917">
        <ele>1716.0</ele>
        <time>2013-07-03T12:29:44Z</time>
      </trkpt>
      <trkpt lat="40.155500" lon="-4.862900">
        <ele>1717.0</ele>
        <time>2013-07-03T12:29:45Z</time>
      </trkpt>
      <trkpt lat="40.155567" lon="-4.862900">
        <ele>1716.0</ele>
        <time>2013-07-03T12:29:46Z</time>
      </trkpt>
      <trkpt lat="40.155633" lon="-4.862917">
        <ele>1716.0</ele>
        <time>2013-07-03T12:29:47Z</time>
      </trkpt>
      <trkpt lat="40.155717" lon="-4.862950">
        <ele>1718.0</ele>
        <time>2013-07-03T12:29:48Z</time>
      </trkpt>
      <trkpt lat="40.155783" lon="-4.862983">
        <ele>1720.0</ele>
        <time>2013-07-03T12:29:49Z</time>
      </trkpt>
      <trkpt lat="40.155833" lon="-4.863033">
        <ele>1722.0</ele>
        <time>2013-07-03T12:29:50Z</time>
      </trkpt>
      <trkpt lat="40.155883" lon="-4.863083">
        <ele>1724.0</ele>
        <time>2013-07-03T12:29:51Z</time>
      </trkpt>
      <trkpt lat="40.155933" lon="-4.863133">
        <ele>1726.0</ele>
        <time>2013-07-03T12:29:52Z</time>
      </trkpt>
      <trkpt lat="40.155967" lon="-4.863200">
        <ele>1728.0</ele>
        <time>2013-07-03T12:29:53Z</time>
      </trkpt>
      <trkpt lat="40.155983" lon="-4.863283">
        <ele>1730.0</ele>
        <time>2013-07-03T12:29:54Z</time>
      </trkpt>
      <trkpt lat="40.156000" lon="-4.863367">
        <ele>1732.0</ele>
        <time>2013-07-03T12:29:55Z</time>
      </trkpt>
      <trkpt lat="40.156017" lon="-4.863450">
        <ele>1734.0</ele>
        <time>2013-07-03T12:29:56Z</time>
      </trkpt>
      <trkpt lat="40.156033" lon="-4.863533">
        <ele>1736.0</ele>
        <time>2013-07-03T12:29:57Z</time>
      </trkpt>
      <trkpt lat="40.156033" lon="-4.863633">
        <ele>1737.0</ele>
        <time>2013-07-03T12:29:58Z</time>
      </trkpt>
      <trkpt lat="40.156033" lon="-4.863733">
        <ele>1738.0</ele>
        <time>2013-07-03T12:29:59Z</time>
      </trkpt>
      <trkpt lat="40.156017" lon="-4.863850">
        <ele>1739.0</ele>
        <time>2013-07-03T12:30:00Z</time>
      </trkpt>
      <trkpt lat="40.155967" lon="-4.863950">
        <ele>1738.0</ele>
        <time>2013-07-03T12:30:01Z</time>
      </trkpt>
      <trkpt lat="40.155900" lon="-4.864050">
        <ele>1737.0</ele>
        <time>2013-07-03T12:30:02Z</time>
      </trkpt>
      <trkpt lat="40.155800" lon="-4.864117">
        <ele>1737.0</ele>
        <time>2013-07-03T12:30:03Z</time>
      </trkpt>
      <trkpt lat="40.155683" lon="-4.864150">
        <ele>1736.0</ele>
        <time>2013-07-03T12:30:04Z</time>
      </trkpt>
      <trkpt lat="40.155567" lon="-4.864167">
        <ele>1737.0</ele>
        <time>2013-07-03T12:30:05Z</time>
      </trkpt>
      <trkpt lat="40.155467" lon="-4.864167">
        <ele>1738.0</ele>
        <time>2013-07-03T12:30:06Z</time>
      </trkpt>
      <trkpt lat="40.155367" lon="-4.864167">
        <ele>1740.0</ele>
        <time>2013-07-03T12:30:07Z</time>
      </trkpt>
      <trkpt lat="40.155283" lon="-4.864167">
        <ele>1740.0</ele>
        <time>2013-07-03T12:30:08Z</time>
      </trkpt>
      <trkpt lat="40.155200" lon="-4.864133">
        <ele>1740.0</ele>
        <time>2013-07-03T12:30:09Z</time>
      </trkpt>
      <trkpt lat="40.155117" lon="-4.864100">
        <ele>1740.0</ele>
        <time>2013-07-03T12:30:10Z</time>
      </trkpt>
      <trkpt lat="40.155033" lon="-4.864033">
        <ele>1740.0</ele>
        <time>2013-07-03T12:30:11Z</time>
      </trkpt>
      <trkpt lat="40.154983" lon="-4.863950">
        <ele>1741.0</ele>
        <time>2013-07-03T12:30:12Z</time>
      </trkpt>
      <trkpt lat="40.154950" lon="-4.863867">
        <ele>1742.0</ele>
        <time>2013-07-03T12:30:13Z</time>
      </trkpt>
      <trkpt lat="40.154917" lon="-4.863800">
        <ele>1743.0</ele>
        <time>2013-07-03T12:30:14Z</time>
      </trkpt>
      <trkpt lat="40.154900" lon="-4.863733">
        <ele>1743.0</ele>
        <time>2013-07-03T12:30:15Z</time>
      </trkpt>
      <trkpt lat="40.154867" lon="-4.863650">
        <ele>1743.0</ele>
        <time>2013-07-03T12:30:16Z</time>
      </trkpt>
      <trkpt lat="40.154850" lon="-4.863567">
        <ele>1743.0</ele>
        <time>2013-07-03T12:30:17Z</time>
      </trkpt>
      <trkpt lat="40.154850" lon="-4.863483">
        <ele>1744.0</ele>
        <time>2013-07-03T12:30:18Z</time>
      </trkpt>
      <trkpt lat="40.154850" lon="-4.863417">
        <ele>1745.0</ele>
        <time>2013-07-03T12:30:19Z</time>
      </trkpt>
      <trkpt lat="40.154867" lon="-4.863350">
        <ele>1747.0</ele>
        <time>2013-07-03T12:30:20Z</time>
      </trkpt>
      <trkpt lat="40.154883" lon="-4.863300">
        <ele>1748.0</ele>
        <time>2013-07-03T12:30:21Z</time>
      </trkpt>
      <trkpt lat="40.154900" lon="-4.863250">
        <ele>1749.0</ele>
        <time>2013-07-03T12:30:22Z</time>
      </trkpt>
      <trkpt lat="40.154917" lon="-4.863200">
        <ele>1750.0</ele>
        <time>2013-07-03T12:30:23Z</time>
      </trkpt>
      <trkpt lat="40.154933" lon="-4.863150">
        <ele>1750.0</ele>
        <time>2013-07-03T12:30:24Z</time>
      </trkpt>
      <trkpt lat="40.154967" lon="-4.863117">
        <ele>1750.0</ele>
        <time>2013-07-03T12:30:25Z</time>
      </trkpt>
      <trkpt lat="40.155017" lon="-4.863083">
        <ele>1751.0</ele>
        <time>2013-07-03T12:30:26Z</time>
      </trkpt>
      <trkpt lat="40.155083" lon="-4.863067">
        <ele>1751.0</ele>
        <time>2013-07-03T12:30:27Z</time>
      </trkpt>
      <trkpt lat="40.155150" lon="-4.863083">
        <ele>1752.0</ele>
        <time>2013-07-03T12:30:28Z</time>
      </trkpt>
      <trkpt lat="40.155200" lon="-4.863117">
        <ele>1754.0</ele>
        <time>2013-07-03T12:30:29Z</time>
      </trkpt>
      <trkpt lat="40.155250" lon="-4.863150">
        <ele>1756.0</ele>
        <time>2013-07-03T12:30:30Z</time>
      </trkpt>
      <trkpt lat="40.155300" lon="-4.863167">
        <ele>1757.0</ele>
        <time>2013-07-03T12:30:31Z</time>
      </trkpt>
      <trkpt lat="40.155350" lon="-4.863200">
        <ele>1757.0</ele>
        <time>2013-07-03T12:30:32Z</time>
      </trkpt>
      <trkpt lat="40.155400" lon="-4.863217">
        <ele>1757.0</ele>
        <time>2013-07-03T12:30:33Z</time>
      </trkpt>
      <trkpt lat="40.155450" lon="-4.863250">
        <ele>1759.0</ele>
        <time>2013-07-03T12:30:34Z</time>
      </trkpt>
      <trkpt lat="40.155517" lon="-4.863267">
        <ele>1760.0</ele>
        <time>2013-07-03T12:30:35Z</time>
      </trkpt>
      <trkpt lat="40.155567" lon="-4.863283">
        <ele>1762.0</ele>
        <time>2013-07-03T12:30:36Z</time>
      </trkpt>
      <trkpt lat="40.155600" lon="-4.863300">
        <ele>1762.0</ele>
        <time>2013-07-03T12:30:37Z</time>
      </trkpt>
      <trkpt lat="40.155650" lon="-4.863333">
        <ele>1762.0</ele>
        <time>2013-07-03T12:30:38Z</time>
      </trkpt>
      <trkpt lat="40.155683" lon="-4.863383">
        <ele>1762.0</ele>
        <time>2013-07-03T12:30:39Z</time>
      </trkpt>
      <trkpt lat="40.155733" lon="-4.863450">
        <ele>1762.0</ele>
        <time>2013-07-03T12:30:40Z</time>
      </trkpt>
      <trkpt lat="40.155767" lon="-4.863550">
        <ele>1762.0</ele>
        <time>2013-07-03T12:30:41Z</time>
      </trkpt>
      <trkpt lat="40.155800" lon="-4.863633">
        <ele>1762.0</ele>
        <time>2013-07-03T12:30:42Z</time>
      </trkpt>
      <trkpt lat="40.155833" lon="-4.863733">
        <ele>1764.0</ele>
        <time>2013-07-03T12:30:43Z</time>
      </trkpt>
      <trkpt lat="40.155850" lon="-4.863833">
        <ele>1765.0</ele>
        <time>2013-07-03T12:30:44Z</time>
      </trkpt>
      <trkpt lat="40.155867" lon="-4.863917">
        <ele>1766.0</ele>
        <time>2013-07-03T12:30:45Z</time>
      </trkpt>
      <trkpt lat="40.155900" lon="-4.864000">
        <ele>1767.0</ele>
        <time>2013-07-03T12:30:46Z</time>
      </trkpt>
      <trkpt lat="40.155917" lon="-4.864100">
        <ele>1768.0</ele>
        <time>2013-07-03T12:30:47Z</time>
      </trkpt>
      <trkpt lat="40.155950" lon="-4.864200">
        <ele>1768.0</ele>
        <time>2013-07-03T12:30:48Z</time>
      </trkpt>
      <trkpt lat="40.155967" lon="-4.864317">
        <ele>1769.0</ele>
        <time>2013-07-03T12:30:49Z</time>
      </trkpt>
      <trkpt lat="40.155983" lon="-4.864450">
        <ele>1769.0</ele>
        <time>2013-07-03T12:30:50Z</time>
      </trkpt>
      <trkpt lat="40.155967" lon="-4.864583">
        <ele>1770.0</ele>
        <time>2013-07-03T12:30:51Z</time>
      </trkpt>
      <trkpt lat="40.155950" lon="-4.864733">
        <ele>1770.0</ele>
        <time>2013-07-03T12:30:52Z</time>
      </trkpt>
      <trkpt lat="40.155917" lon="-4.864867">
        <ele>1769.0</ele>
        <time>2013-07-03T12:30:53Z</time>
      </trkpt>
      <trkpt lat="40.155883" lon="-4.865017">
        <ele>1769.0</ele>
        <time>2013-07-03T12:30:54Z</time>
      </trkpt>
      <trkpt lat="40.155833" lon="-4.865133">
        <ele>1768.0</ele>
        <time>2013-07-03T12:30:55Z</time>
      </trkpt>
      <trkpt lat="40.155783" lon="-4.865267">
        <ele>1766.0</ele>
        <time>2013-07-03T12:30:56Z</time>
      </trkpt>
      <trkpt lat="40.155733" lon="-4.865383">
        <ele>1764.0</ele>
        <time>2013-07-03T12:30:57Z</time>
      </trkpt>
      <trkpt lat="40.155650" lon="-4.865500">
        <ele>1761.0</ele>
        <time>2013-07-03T12:30:58Z</time>
      </trkpt>
      <trkpt lat="40.155567" lon="-4.865617">
        <ele>1759.0</ele>
        <time>2013-07-03T12:30:59Z</time>
      </trkpt>
      <trkpt lat="40.155467" lon="-4.865733">
        <ele>1756.0</ele>
        <time>2013-07-03T12:31:00Z</time>
      </trkpt>
      <trkpt lat="40.155367" lon="-4.865833">
        <ele>1754.0</ele>
        <time>2013-07-03T12:31:01Z</time>
      </trkpt>
      <trkpt lat="40.155250" lon="-4.865917">
        <ele>1752.0</ele>
        <time>2013-07-03T12:31:02Z</time>
      </trkpt>
      <trkpt lat="40.155117" lon="-4.865967">
        <ele>1751.0</ele>
        <time>2013-07-03T12:31:03Z</time>
      </trkpt>
      <trkpt lat="40.155000" lon="-4.866017">
        <ele>1749.0</ele>
        <time>2013-07-03T12:31:04Z</time>
      </trkpt>
      <trkpt lat="40.154867" lon="-4.866067">
        <ele>1750.0</ele>
        <time>2013-07-03T12:31:05Z</time>
      </trkpt>
      <trkpt lat="40.154750" lon="-4.866117">
        <ele>1751.0</ele>
        <time>2013-07-03T12:31:06Z</time>
      </trkpt>
      <trkpt lat="40.154633" lon="-4.866150">
        <ele>1754.0</ele>
        <time>2013-07-03T12:31:07Z</time>
      </trkpt>
      <trkpt lat="40.154533" lon="-4.866183">
        <ele>1758.0</ele>
        <time>2013-07-03T12:31:08Z</time>
      </trkpt>
      <trkpt lat="40.154450" lon="-4.866233">
        <ele>1758.0</ele>
        <time>2013-07-03T12:31:09Z</time>
      </trkpt>
      <trkpt lat="40.154383" lon="-4.866283">
        <ele>1758.0</ele>
        <time>2013-07-03T12:31:10Z</time>
      </trkpt>
      <trkpt lat="40.154283" lon="-4.866350">
        <ele>1757.0</ele>
        <time>2013-07-03T12:31:11Z</time>
      </trkpt>
      <trkpt lat="40.154183" lon="-4.866417">
        <ele>1754.0</ele>
        <time>2013-07-03T12:31:12Z</time>
      </trkpt>
      <trkpt lat="40.154100" lon="-4.866517">
        <ele>1752.0</ele>
        <time>2013-07-03T12:31:13Z</time>
      </trkpt>
      <trkpt lat="40.154050" lon="-4.866650">
        <ele>1749.0</ele>
        <time>2013-07-03T12:31:14Z</time>
      </trkpt>
      <trkpt lat="40.154050" lon="-4.866800">
        <ele>1746.0</ele>
        <time>2013-07-03T12:31:15Z</time>
      </trkpt>
      <trkpt lat="40.154083" lon="-4.866900">
        <ele>1744.0</ele>
        <time>2013-07-03T12:31:16Z</time>
      </trkpt>
      <trkpt lat="40.154133" lon="-4.866983">
        <ele>1743.0</ele>
        <time>2013-07-03T12:31:17Z</time>
      </trkpt>
      <trkpt lat="40.154183" lon="-4.867033">
        <ele>1743.0</ele>
        <time>2013-07-03T12:31:18Z</time>
      </trkpt>
      <trkpt lat="40.154217" lon="-4.867083">
        <ele>1742.0</ele>
        <time>2013-07-03T12:31:19Z</time>
      </trkpt>
      <trkpt lat="40.154267" lon="-4.867133">
        <ele>1741.0</ele>
        <time>2013-07-03T12:31:20Z</time>
      </trkpt>
      <trkpt lat="40.154300" lon="-4.867167">
        <ele>1740.0</ele>
        <time>2013-07-03T12:31:21Z</time>
      </trkpt>
      <trkpt lat="40.154350" lon="-4.867183">
        <ele>1738.0</ele>
        <time>2013-07-03T12:31:22Z</time>
      </trkpt>
      <trkpt lat="40.154400" lon="-4.867167">
        <ele>1737.0</ele>
        <time>2013-07-03T12:31:23Z</time>
      </trkpt>
      <trkpt lat="40.154433" lon="-4.867133">
        <ele>1735.0</ele>
        <time>2013-07-03T12:31:24Z</time>
      </trkpt>
      <trkpt lat="40.154450" lon="-4.867067">
        <ele>1734.0</ele>
        <time>2013-07-03T12:31:25Z</time>
      </trkpt>
      <trkpt lat="40.154450" lon="-4.867000">
        <ele>1733.0</ele>
        <time>2013-07-03T12:31:26Z</time>
      </trkpt>
      <trkpt lat="40.154467" lon="-4.866917">
        <ele>1733.0</ele>
        <time>2013-07-03T12:31:27Z</time>
      </trkpt>
      <trkpt lat="40.154467" lon="-4.866833">
        <ele>1732.0</ele>
        <time>2013-07-03T12:31:28Z</time>
      </trkpt>
      <trkpt lat="40.154467" lon="-4.866733">
        <ele>1732.0</ele>
        <time>2013-07-03T12:31:29Z</time>
      </trkpt>
      <trkpt lat="40.154450" lon="-4.866650">
        <ele>1731.0</ele>
        <time>2013-07-03T12:31:30Z</time>
      </trkpt>
      <trkpt lat="40.154450" lon="-4.866550">
        <ele>1730.0</ele>
        <time>2013-07-03T12:31:31Z</time>
      </trkpt>
      <trkpt lat="40.154433" lon="-4.866450">
        <ele>1729.0</ele>
        <time>2013-07-03T12:31:32Z</time>
      </trkpt>
      <trkpt lat="40.154433" lon="-4.866333">
        <ele>1729.0</ele>
        <time>2013-07-03T12:31:33Z</time>
      </trkpt>
      <trkpt lat="40.154417" lon="-4.866233">
        <ele>1728.0</ele>
        <time>2013-07-03T12:31:34Z</time>
      </trkpt>
      <trkpt lat="40.154417" lon="-4.866117">
        <ele>1728.0</ele>
        <time>2013-07-03T12:31:35Z</time>
      </trkpt>
      <trkpt lat="40.154400" lon="-4.866017">
        <ele>1728.0</ele>
        <time>2013-07-03T12:31:36Z</time>
      </trkpt>
      <trkpt lat="40.154367" lon="-4.865900">
        <ele>1727.0</ele>
        <time>2013-07-03T12:31:37Z</time>
      </trkpt>
      <trkpt lat="40.154333" lon="-4.865783">
        <ele>1726.0</ele>
        <time>2013-07-03T12:31:38Z</time>
      </trkpt>
      <trkpt lat="40.154300" lon="-4.865650">
        <ele>1725.0</ele>
        <time>2013-07-03T12:31:39Z</time>
      </trkpt>
      <trkpt lat="40.154250" lon="-4.865517">
        <ele>1724.0</ele>
        <time>2013-07-03T12:31:40Z</time>
      </trkpt>
      <trkpt lat="40.154217" lon="-4.865383">
        <ele>1724.0</ele>
        <time>2013-07-03T12:31:41Z</time>
      </trkpt>
      <trkpt lat="40.154200" lon="-4.865283">
        <ele>1724.0</ele>
        <time>2013-07-03T12:31:42Z</time>
      </trkpt>
      <trkpt lat="40.154167" lon="-4.865183">
        <ele>1724.0</ele>
        <time>2013-07-03T12:31:43Z</time>
      </trkpt>
      <trkpt lat="40.154133" lon="-4.865100">
        <ele>1723.0</ele>
        <time>2013-07-03T12:31:44Z</time>
      </trkpt>
      <trkpt lat="40.154117" lon="-4.864983">
        <ele>1721.0</ele>
        <time>2013-07-03T12:31:45Z</time>
      </trkpt>
      <trkpt lat="40.154117" lon="-4.864867">
        <ele>1718.0</ele>
        <time>2013-07-03T12:31:46Z</time>
      </trkpt>
      <trkpt lat="40.154117" lon="-4.864750">
        <ele>1718.0</ele>
        <time>2013-07-03T12:31:47Z</time>
      </trkpt>
      <trkpt lat="40.154117" lon="-4.864650">
        <ele>1718.0</ele>
        <time>2013-07-03T12:31:48Z</time>
      </trkpt>
      <trkpt lat="40.154117" lon="-4.864550">
        <ele>1717.0</ele>
        <time>2013-07-03T12:31:49Z</time>
      </trkpt>
      <trkpt lat="40.154117" lon="-4.864450">
        <ele>1716.0</ele>
        <time>2013-07-03T12:31:50Z</time>
      </trkpt>
      <trkpt lat="40.154117" lon="-4.864350">
        <ele>1713.0</ele>
        <time>2013-07-03T12:31:51Z</time>
      </trkpt>
      <trkpt lat="40.154117" lon="-4.864250">
        <ele>1712.0</ele>
        <time>2013-07-03T12:31:52Z</time>
      </trkpt>
      <trkpt lat="40.154117" lon="-4.864133">
        <ele>1710.0</ele>
        <time>2013-07-03T12:31:53Z</time>
      </trkpt>
      <trkpt lat="40.154117" lon="-4.864033">
        <ele>1710.0</ele>
        <time>2013-07-03T12:31:54Z</time>
      </trkpt>
      <trkpt lat="40.154117" lon="-4.863933">
        <ele>1710.0</ele>
        <time>2013-07-03T12:31:55Z</time>
      </trkpt>
      <trkpt lat="40.154117" lon="-4.863850">
        <ele>1710.0</ele>
        <time>2013-07-03T12:31:56Z</time>
      </trkpt>
      <trkpt lat="40.154100" lon="-4.863767">
        <ele>1709.0</ele>
        <time>2013-07-03T12:31:57Z</time>
      </trkpt>
      <trkpt lat="40.154100" lon="-4.863650">
        <ele>1708.0</ele>
        <time>2013-07-03T12:31:58Z</time>
      </trkpt>
      <trkpt lat="40.154100" lon="-4.863550">
        <ele>1706.0</ele>
        <time>2013-07-03T12:31:59Z</time>
      </trkpt>
      <trkpt lat="40.154100" lon="-4.863433">
        <ele>1706.0</ele>
        <time>2013-07-03T12:32:00Z</time>
      </trkpt>
      <trkpt lat="40.154100" lon="-4.863350">
        <ele>1705.0</ele>
        <time>2013-07-03T12:32:01Z</time>
      </trkpt>
      <trkpt lat="40.154100" lon="-4.863250">
        <ele>1704.0</ele>
        <time>2013-07-03T12:32:02Z</time>
      </trkpt>
      <trkpt lat="40.154083" lon="-4.863167">
        <ele>1703.0</ele>
        <time>2013-07-03T12:32:03Z</time>
      </trkpt>
      <trkpt lat="40.154083" lon="-4.863083">
        <ele>1701.0</ele>
        <time>2013-07-03T12:32:04Z</time>
      </trkpt>
      <trkpt lat="40.154083" lon="-4.862967">
        <ele>1700.0</ele>
        <time>2013-07-03T12:32:05Z</time>
      </trkpt>
      <trkpt lat="40.154067" lon="-4.862867">
        <ele>1699.0</ele>
        <time>2013-07-03T12:32:06Z</time>
      </trkpt>
      <trkpt lat="40.154067" lon="-4.862767">
        <ele>1699.0</ele>
        <time>2013-07-03T12:32:07Z</time>
      </trkpt>
      <trkpt lat="40.154067" lon="-4.862683">
        <ele>1700.0</ele>
        <time>2013-07-03T12:32:08Z</time>
      </trkpt>
      <trkpt lat="40.154067" lon="-4.862583">
        <ele>1700.0</ele>
        <time>2013-07-03T12:32:09Z</time>
      </trkpt>
      <trkpt lat="40.154067" lon="-4.862483">
        <ele>1699.0</ele>
        <time>2013-07-03T12:32:10Z</time>
      </trkpt>
      <trkpt lat="40.154050" lon="-4.862383">
        <ele>1698.0</ele>
        <time>2013-07-03T12:32:11Z</time>
      </trkpt>
      <trkpt lat="40.154050" lon="-4.862283">
        <ele>1698.0</ele>
        <time>2013-07-03T12:32:12Z</time>
      </trkpt>
      <trkpt lat="40.154033" lon="-4.862200">
        <ele>1698.0</ele>
        <time>2013-07-03T12:32:13Z</time>
      </trkpt>
      <trkpt lat="40.154017" lon="-4.862100">
        <ele>1699.0</ele>
        <time>2013-07-03T12:32:14Z</time>
      </trkpt>
      <trkpt lat="40.154017" lon="-4.862000">
        <ele>1699.0</ele>
        <time>2013-07-03T12:32:15Z</time>
      </trkpt>
      <trkpt lat="40.154017" lon="-4.861917">
        <ele>1700.0</ele>
        <time>2013-07-03T12:32:16Z</time>
      </trkpt>
      <trkpt lat="40.154033" lon="-4.861817">
        <ele>1700.0</ele>
        <time>2013-07-03T12:32:17Z</time>
      </trkpt>
      <trkpt lat="40.154033" lon="-4.861717">
        <ele>1701.0</ele>
        <time>2013-07-03T12:32:18Z</time>
      </trkpt>
      <trkpt lat="40.154033" lon="-4.861617">
        <ele>1701.0</ele>
        <time>2013-07-03T12:32:19Z</time>
      </trkpt>
      <trkpt lat="40.154050" lon="-4.861500">
        <ele>1702.0</ele>
        <time>2013-07-03T12:32:20Z</time>
      </trkpt>
      <trkpt lat="40.154050" lon="-4.861383">
        <ele>1704.0</ele>
        <time>2013-07-03T12:32:21Z</time>
      </trkpt>
      <trkpt lat="40.154050" lon="-4.861283">
        <ele>1709.0</ele>
        <time>2013-07-03T12:32:22Z</time>
      </trkpt>
      <trkpt lat="40.154050" lon="-4.861217">
        <ele>1717.0</ele>
        <time>2013-07-03T12:32:23Z</time>
      </trkpt>
      <trkpt lat="40.154067" lon="-4.861183">
        <ele>1722.0</ele>
        <time>2013-07-03T12:32:24Z</time>
      </trkpt>
      <trkpt lat="40.154067" lon="-4.861167">
        <ele>1725.0</ele>
        <time>2013-07-03T12:32:25Z</time>
      </trkpt>
      <trkpt lat="40.154083" lon="-4.861117">
        <ele>1728.0</ele>
        <time>2013-07-03T12:32:26Z</time>
      </trkpt>
      <trkpt lat="40.154083" lon="-4.861033">
        <ele>1729.0</ele>
        <time>2013-07-03T12:32:27Z</time>
      </trkpt>
      <trkpt lat="40.154067" lon="-4.860933">
        <ele>1730.0</ele>
        <time>2013-07-03T12:32:28Z</time>
      </trkpt>
      <trkpt lat="40.154033" lon="-4.860867">
        <ele>1733.0</ele>
        <time>2013-07-03T12:32:29Z</time>
      </trkpt>
      <trkpt lat="40.153967" lon="-4.860850">
        <ele>1735.0</ele>
        <time>2013-07-03T12:32:30Z</time>
      </trkpt>
      <trkpt lat="40.153883" lon="-4.860883">
        <ele>1735.0</ele>
        <time>2013-07-03T12:32:31Z</time>
      </trkpt>
      <trkpt lat="40.153817" lon="-4.860967">
        <ele>1737.0</ele>
        <time>2013-07-03T12:32:32Z</time>
      </trkpt>
      <trkpt lat="40.153750" lon="-4.861050">
        <ele>1741.0</ele>
        <time>2013-07-03T12:32:33Z</time>
      </trkpt>
      <trkpt lat="40.153700" lon="-4.861117">
        <ele>1745.0</ele>
        <time>2013-07-03T12:32:34Z</time>
      </trkpt>
      <trkpt lat="40.153650" lon="-4.861200">
        <ele>1748.0</ele>
        <time>2013-07-03T12:32:35Z</time>
      </trkpt>
      <trkpt lat="40.153633" lon="-4.861283">
        <ele>1750.0</ele>
        <time>2013-07-03T12:32:36Z</time>
      </trkpt>
      <trkpt lat="40.153600" lon="-4.861400">
        <ele>1752.0</ele>
        <time>2013-07-03T12:32:37Z</time>
      </trkpt>
      <trkpt lat="40.153583" lon="-4.861517">
        <ele>1753.0</ele>
        <time>2013-07-03T12:32:38Z</time>
      </trkpt>
      <trkpt lat="40.153567" lon="-4.861633">
        <ele>1755.0</ele>
        <time>2013-07-03T12:32:39Z</time>
      </trkpt>
      <trkpt lat="40.153583" lon="-4.861750">
        <ele>1756.0</ele>
        <time>2013-07-03T12:32:40Z</time>
      </trkpt>
      <trkpt lat="40.153617" lon="-4.861867">
        <ele>1757.0</ele>
        <time>2013-07-03T12:32:41Z</time>
      </trkpt>
      <trkpt lat="40.153667" lon="-4.861950">
        <ele>1759.0</ele>
        <time>2013-07-03T12:32:42Z</time>
      </trkpt>
      <trkpt lat="40.153750" lon="-4.862000">
        <ele>1760.0</ele>
        <time>2013-07-03T12:32:43Z</time>
      </trkpt>
      <trkpt lat="40.153817" lon="-4.862033">
        <ele>1761.0</ele>
        <time>2013-07-03T12:32:44Z</time>
      </trkpt>
      <trkpt lat="40.153883" lon="-4.862050">
        <ele>1763.0</ele>
        <time>2013-07-03T12:32:45Z</time>
      </trkpt>
      <trkpt lat="40.153967" lon="-4.862067">
        <ele>1767.0</ele>
        <time>2013-07-03T12:32:46Z</time>
      </trkpt>
      <trkpt lat="40.154033" lon="-4.862083">
        <ele>1769.0</ele>
        <time>2013-07-03T12:32:47Z</time>
      </trkpt>
      <trkpt lat="40.154083" lon="-4.862083">
        <ele>1772.0</ele>
        <time>2013-07-03T12:32:48Z</time>
      </trkpt>
      <trkpt lat="40.154133" lon="-4.862067">
        <ele>1774.0</ele>
        <time>2013-07-03T12:32:49Z</time>
      </trkpt>
      <trkpt lat="40.154183" lon="-4.862017">
        <ele>1776.0</ele>
        <time>2013-07-03T12:32:50Z</time>
      </trkpt>
      <trkpt lat="40.154217" lon="-4.861967">
        <ele>1778.0</ele>
        <time>2013-07-03T12:32:51Z</time>
      </trkpt>
      <trkpt lat="40.154233" lon="-4.861900">
        <ele>1781.0</ele>
        <time>2013-07-03T12:32:52Z</time>
      </trkpt>
      <trkpt lat="40.154217" lon="-4.861833">
        <ele>1782.0</ele>
        <time>2013-07-03T12:32:53Z</time>
      </trkpt>
      <trkpt lat="40.154167" lon="-4.861783">
        <ele>1783.0</ele>
        <time>2013-07-03T12:32:54Z</time>
      </trkpt>
      <trkpt lat="40.154100" lon="-4.861767">
        <ele>1785.0</ele>
        <time>2013-07-03T12:32:55Z</time>
      </trkpt>
      <trkpt lat="40.154033" lon="-4.861783">
        <ele>1787.0</ele>
        <time>2013-07-03T12:32:56Z</time>
      </trkpt>
      <trkpt lat="40.153967" lon="-4.861817">
        <ele>1789.0</ele>
        <time>2013-07-03T12:32:57Z</time>
      </trkpt>
      <trkpt lat="40.153917" lon="-4.861850">
        <ele>1791.0</ele>
        <time>2013-07-03T12:32:58Z</time>
      </trkpt>
      <trkpt lat="40.153850" lon="-4.861883">
        <ele>1793.0</ele>
        <time>2013-07-03T12:32:59Z</time>
      </trkpt>
      <trkpt lat="40.153783" lon="-4.861950">
        <ele>1794.0</ele>
        <time>2013-07-03T12:33:00Z</time>
      </trkpt>
      <trkpt lat="40.153733" lon="-4.862017">
        <ele>1794.0</ele>
        <time>2013-07-03T12:33:01Z</time>
      </trkpt>
      <trkpt lat="40.153683" lon="-4.862117">
        <ele>1794.0</ele>
        <time>2013-07-03T12:33:02Z</time>
      </trkpt>
      <trkpt lat="40.153650" lon="-4.862200">
        <ele>1795.0</ele>
        <time>2013-07-03T12:33:03Z</time>
      </trkpt>
      <trkpt lat="40.153617" lon="-4.862317">
        <ele>1795.0</ele>
        <time>2013-07-03T12:33:04Z</time>
      </trkpt>
      <trkpt lat="40.153583" lon="-4.862417">
        <ele>1797.0</ele>
        <time>2013-07-03T12:33:05Z</time>
      </trkpt>
      <trkpt lat="40.153550" lon="-4.862533">
        <ele>1799.0</ele>
        <time>2013-07-03T12:33:06Z</time>
      </trkpt>
      <trkpt lat="40.153517" lon="-4.862633">
        <ele>1801.0</ele>
        <time>2013-07-03T12:33:07Z</time>
      </trkpt>
      <trkpt lat="40.153500" lon="-4.862733">
        <ele>1803.0</ele>
        <time>2013-07-03T12:33:08Z</time>
      </trkpt>
      <trkpt lat="40.153483" lon="-4.862833">
        <ele>1804.0</ele>
        <time>2013-07-03T12:33:09Z</time>
      </trkpt>
      <trkpt lat="40.153467" lon="-4.862950">
        <ele>1805.0</ele>
        <time>2013-07-03T12:33:10Z</time>
      </trkpt>
      <trkpt lat="40.153483" lon="-4.863067">
        <ele>1806.0</ele>
        <time>2013-07-03T12:33:11Z</time>
      </trkpt>
      <trkpt lat="40.153483" lon="-4.863183">
        <ele>1807.0</ele>
        <time>2013-07-03T12:33:12Z</time>
      </trkpt>
      <trkpt lat="40.153517" lon="-4.863300">
        <ele>1809.0</ele>
        <time>2013-07-03T12:33:13Z</time>
      </trkpt>
      <trkpt lat="40.153533" lon="-4.863400">
        <ele>1811.0</ele>
        <time>2013-07-03T12:33:14Z</time>
      </trkpt>
      <trkpt lat="40.153550" lon="-4.863500">
        <ele>1813.0</ele>
        <time>2013-07-03T12:33:15Z</time>
      </trkpt>
      <trkpt lat="40.153583" lon="-4.863583">
        <ele>1813.0</ele>
        <time>2013-07-03T12:33:16Z</time>
      </trkpt>
      <trkpt lat="40.153617" lon="-4.863667">
        <ele>1813.0</ele>
        <time>2013-07-03T12:33:17Z</time>
      </trkpt>
      <trkpt lat="40.153683" lon="-4.863733">
        <ele>1812.0</ele>
        <time>2013-07-03T12:33:18Z</time>
      </trkpt>
      <trkpt lat="40.153767" lon="-4.863767">
        <ele>1812.0</ele>
        <time>2013-07-03T12:33:19Z</time>
      </trkpt>
      <trkpt lat="40.153833" lon="-4.863783">
        <ele>1811.0</ele>
        <time>2013-07-03T12:33:20Z</time>
      </trkpt>
      <trkpt lat="40.153917" lon="-4.863767">
        <ele>1813.0</ele>
        <time>2013-07-03T12:33:21Z</time>
      </trkpt>
      <trkpt lat="40.153983" lon="-4.863733">
        <ele>1815.0</ele>
        <time>2013-07-03T12:33:22Z</time>
      </trkpt>
      <trkpt lat="40.154033" lon="-4.863700">
        <ele>1817.0</ele>
        <time>2013-07-03T12:33:23Z</time>
      </trkpt>
      <trkpt lat="40.154067" lon="-4.863667">
        <ele>1818.0</ele>
        <time>2013-07-03T12:33:24Z</time>
      </trkpt>
      <trkpt lat="40.154117" lon="-4.863633">
        <ele>1819.0</ele>
        <time>2013-07-03T12:33:25Z</time>
      </trkpt>
      <trkpt lat="40.154133" lon="-4.863583">
        <ele>1819.0</ele>
        <time>2013-07-03T12:33:26Z</time>
      </trkpt>
      <trkpt lat="40.154150" lon="-4.863517">
        <ele>1819.0</ele>
        <time>2013-07-03T12:33:27Z</time>
      </trkpt>
      <trkpt lat="40.154150" lon="-4.863450">
        <ele>1820.0</ele>
        <time>2013-07-03T12:33:28Z</time>
      </trkpt>
      <trkpt lat="40.154133" lon="-4.863383">
        <ele>1820.0</ele>
        <time>2013-07-03T12:33:29Z</time>
      </trkpt>
      <trkpt lat="40.154100" lon="-4.863317">
        <ele>1820.0</ele>
        <time>2013-07-03T12:33:30Z</time>
      </trkpt>
      <trkpt lat="40.154033" lon="-4.863250">
        <ele>1822.0</ele>
        <time>2013-07-03T12:33:31Z</time>
      </trkpt>
      <trkpt lat="40.153983" lon="-4.863200">
        <ele>1823.0</ele>
        <time>2013-07-03T12:33:32Z</time>
      </trkpt>
      <trkpt lat="40.153933" lon="-4.863167">
        <ele>1825.0</ele>
        <time>2013-07-03T12:33:33Z</time>
      </trkpt>
      <trkpt lat="40.153883" lon="-4.863150">
        <ele>1826.0</ele>
        <time>2013-07-03T12:33:34Z</time>
      </trkpt>
      <trkpt lat="40.153850" lon="-4.863117">
        <ele>1826.0</ele>
        <time>2013-07-03T12:33:35Z</time>
      </trkpt>
      <trkpt lat="40.153800" lon="-4.863067">
        <ele>1826.0</ele>
        <time>2013-07-03T12:33:36Z</time>
      </trkpt>
      <trkpt lat="40.153750" lon="-4.863000">
        <ele>1825.0</ele>
        <time>2013-07-03T12:33:37Z</time>
      </trkpt>
      <trkpt lat="40.153700" lon="-4.862933">
        <ele>1824.0</ele>
        <time>2013-07-03T12:33:38Z</time>
      </trkpt>
      <trkpt lat="40.153617" lon="-4.862867">
        <ele>1824.0</ele>
        <time>2013-07-03T12:33:39Z</time>
      </trkpt>
      <trkpt lat="40.153567" lon="-4.862783">
        <ele>1824.0</ele>
        <time>2013-07-03T12:33:40Z</time>
      </trkpt>
      <trkpt lat="40.153500" lon="-4.862683">
        <ele>1826.0</ele>
        <time>2013-07-03T12:33:41Z</time>
      </trkpt>
      <trkpt lat="40.153433" lon="-4.862617">
        <ele>1829.0</ele>
        <time>2013-07-03T12:33:42Z</time>
      </trkpt>
      <trkpt lat="40.153383" lon="-4.862583">
        <ele>1831.0</ele>
        <time>2013-07-03T12:33:43Z</time>
      </trkpt>
      <trkpt lat="40.153333" lon="-4.862550">
        <ele>1834.0</ele>
        <time>2013-07-03T12:33:44Z</time>
      </trkpt>
      <trkpt lat="40.153317" lon="-4.862517">
        <ele>1837.0</ele>
        <time>2013-07-03T12:33:45Z</time>
      </trkpt>
      <trkpt lat="40.153283" lon="-4.862467">
        <ele>1839.0</ele>
        <time>2013-07-03T12:33:46Z</time>
      </trkpt>
      <trkpt lat="40.153283" lon="-4.862417">
        <ele>1841.0</ele>
        <time>2013-07-03T12:33:47Z</time>
      </trkpt>
      <trkpt lat="40.153300" lon="-4.862350">
        <ele>1843.0</ele>
        <time>2013-07-03T12:33:48Z</time>
      </trkpt>
      <trkpt lat="40.153333" lon="-4.862283">
        <ele>1845.0</ele>
        <time>2013-07-03T12:33:49Z</time>
      </trkpt>
      <trkpt lat="40.153383" lon="-4.862233">
        <ele>1848.0</ele>
        <time>2013-07-03T12:33:50Z</time>
      </trkpt>
      <trkpt lat="40.153450" lon="-4.862183">
        <ele>1850.0</ele>
        <time>2013-07-03T12:33:51Z</time>
      </trkpt>
      <trkpt lat="40.153517" lon="-4.862133">
        <ele>1852.0</ele>
        <time>2013-07-03T12:33:52Z</time>
      </trkpt>
      <trkpt lat="40.153600" lon="-4.862100">
        <ele>1853.0</ele>
        <time>2013-07-03T12:33:53Z</time>
      </trkpt>
      <trkpt lat="40.153683" lon="-4.862083">
        <ele>1855.0</ele>
        <time>2013-07-03T12:33:54Z</time>
      </trkpt>
      <trkpt lat="40.153767" lon="-4.862100">
        <ele>1857.0</ele>
        <time>2013-07-03T12:33:55Z</time>
      </trkpt>
      <trkpt lat="40.153850" lon="-4.862150">
        <ele>1858.0</ele>
        <time>2013-07-03T12:33:56Z</time>
      </trkpt>
      <trkpt lat="40.153917" lon="-4.862217">
        <ele>1859.0</ele>
        <time>2013-07-03T12:33:57Z</time>
      </trkpt>
      <trkpt lat="40.154000" lon="-4.862283">
        <ele>1859.0</ele>
        <time>2013-07-03T12:33:58Z</time>
      </trkpt>
      <trkpt lat="40.154067" lon="-4.862367">
        <ele>1861.0</ele>
        <time>2013-07-03T12:33:59Z</time>
      </trkpt>
      <trkpt lat="40.154133" lon="-4.862450">
        <ele>1864.0</ele>
        <time>2013-07-03T12:34:00Z</time>
      </trkpt>
      <trkpt lat="40.154167" lon="-4.862567">
        <ele>1865.0</ele>
        <time>2013-07-03T12:34:01Z</time>
      </trkpt>
      <trkpt lat="40.154183" lon="-4.862683">
        <ele>1867.0</ele>
        <time>2013-07-03T12:34:02Z</time>
      </trkpt>
      <trkpt lat="40.154183" lon="-4.862800">
        <ele>1868.0</ele>
        <time>2013-07-03T12:34:03Z</time>
      </trkpt>
      <trkpt lat="40.154167" lon="-4.862917">
        <ele>1870.0</ele>
        <time>2013-07-03T12:34:04Z</time>
      </trkpt>
      <trkpt lat="40.154150" lon="-4.863017">
        <ele>1871.0</ele>
        <time>2013-07-03T12:34:05Z</time>
      </trkpt>
      <trkpt lat="40.154100" lon="-4.863100">
        <ele>1872.0</ele>
        <time>2013-07-03T12:34:06Z</time>
      </trkpt>
      <trkpt lat="40.154050" lon="-4.863183">
        <ele>1873.0</ele>
        <time>2013-07-03T12:34:07Z</time>
      </trkpt>
      <trkpt lat="40.153983" lon="-4.863283">
        <ele>1874.0</ele>
        <time>2013-07-03T12:34:08Z</time>
      </trkpt>
      <trkpt lat="40.153917" lon="-4.863350">
        <ele>1875.0</ele>
        <time>2013-07-03T12:34:09Z</time>
      </trkpt>
      <trkpt lat="40.153850" lon="-4.863417">
        <ele>1876.0</ele>
        <time>2013-07-03T12:34:10Z</time>
      </trkpt>
      <trkpt lat="40.153800" lon="-4.863483">
        <ele>1877.0</ele>
        <time>2013-07-03T12:34:11Z</time>
      </trkpt>
      <trkpt lat="40.153750" lon="-4.863533">
        <ele>1878.0</ele>
        <time>2013-07-03T12:34:12Z</time>
      </trkpt>
      <trkpt lat="40.153683" lon="-4.863600">
        <ele>1877.0</ele>
        <time>2013-07-03T12:34:13Z</time>
      </trkpt>
      <trkpt lat="40.153617" lon="-4.863667">
        <ele>1877.0</ele>
        <time>2013-07-03T12:34:14Z</time>
      </trkpt>
      <trkpt lat="40.153533" lon="-4.863717">
        <ele>1877.0</ele>
        <time>2013-07-03T12:34:15Z</time>
      </trkpt>
      <trkpt lat="40.153433" lon="-4.863767">
        <ele>1878.0</ele>
        <time>2013-07-03T12:34:16Z</time>
      </trkpt>
      <trkpt lat="40.153350" lon="-4.863800">
        <ele>1879.0</ele>
        <time>2013-07-03T12:34:17Z</time>
      </trkpt>
      <trkpt lat="40.153267" lon="-4.863833">
        <ele>1879.0</ele>
        <time>2013-07-03T12:34:18Z</time>
      </trkpt>
      <trkpt lat="40.153183" lon="-4.863867">
        <ele>1880.0</ele>
        <time>2013-07-03T12:34:19Z</time>
      </trkpt>
      <trkpt lat="40.153100" lon="-4.863900">
        <ele>1880.0</ele>
        <time>2013-07-03T12:34:20Z</time>
      </trkpt>
      <trkpt lat="40.153017" lon="-4.863950">
        <ele>1882.0</ele>
        <time>2013-07-03T12:34:21Z</time>
      </trkpt>
      <trkpt lat="40.152950" lon="-4.863983">
        <ele>1883.0</ele>
        <time>2013-07-03T12:34:22Z</time>
      </trkpt>
      <trkpt lat="40.152883" lon="-4.864017">
        <ele>1884.0</ele>
        <time>2013-07-03T12:34:23Z</time>
      </trkpt>
      <trkpt lat="40.152817" lon="-4.864050">
        <ele>1886.0</ele>
        <time>2013-07-03T12:34:24Z</time>
      </trkpt>
      <trkpt lat="40.152767" lon="-4.864067">
        <ele>1887.0</ele>
        <time>2013-07-03T12:34:25Z</time>
      </trkpt>
      <trkpt lat="40.152717" lon="-4.864100">
        <ele>1888.0</ele>
        <time>2013-07-03T12:34:26Z</time>
      </trkpt>
      <trkpt lat="40.152667" lon="-4.864100">
        <ele>1889.0</ele>
        <time>2013-07-03T12:34:27Z</time>
      </trkpt>
      <trkpt lat="40.152617" lon="-4.864117">
        <ele>1889.0</ele>
        <time>2013-07-03T12:34:28Z</time>
      </trkpt>
      <trkpt lat="40.152550" lon="-4.864100">
        <ele>1888.0</ele>
        <time>2013-07-03T12:34:29Z</time>
      </trkpt>
      <trkpt lat="40.152500" lon="-4.864083">
        <ele>1888.0</ele>
        <time>2013-07-03T12:34:30Z</time>
      </trkpt>
      <trkpt lat="40.152450" lon="-4.864050">
        <ele>1888.0</ele>
        <time>2013-07-03T12:34:31Z</time>
      </trkpt>
      <trkpt lat="40.152433" lon="-4.864000">
        <ele>1888.0</ele>
        <time>2013-07-03T12:34:32Z</time>
      </trkpt>
      <trkpt lat="40.152433" lon="-4.863933">
        <ele>1887.0</ele>
        <time>2013-07-03T12:34:33Z</time>
      </trkpt>
      <trkpt lat="40.152467" lon="-4.863867">
        <ele>1886.0</ele>
        <time>2013-07-03T12:34:34Z</time>
      </trkpt>
      <trkpt lat="40.152533" lon="-4.863800">
        <ele>1885.0</ele>
        <time>2013-07-03T12:34:35Z</time>
      </trkpt>
      <trkpt lat="40.152617" lon="-4.863750">
        <ele>1885.0</ele>
        <time>2013-07-03T12:34:36Z</time>
      </trkpt>
      <trkpt lat="40.152717" lon="-4.863700">
        <ele>1885.0</ele>
        <time>2013-07-03T12:34:37Z</time>
      </trkpt>
      <trkpt lat="40.152817" lon="-4.863650">
        <ele>1886.0</ele>
        <time>2013-07-03T12:34:38Z</time>
      </trkpt>
      <trkpt lat="40.152900" lon="-4.863583">
        <ele>1887.0</ele>
        <time>2013-07-03T12:34:39Z</time>
      </trkpt>
      <trkpt lat="40.152983" lon="-4.863533">
        <ele>1888.0</ele>
        <time>2013-07-03T12:34:40Z</time>
      </trkpt>
      <trkpt lat="40.153083" lon="-4.863483">
        <ele>1889.0</ele>
        <time>2013-07-03T12:34:41Z</time>
      </trkpt>
      <trkpt lat="40.153167" lon="-4.863450">
        <ele>1890.0</ele>
        <time>2013-07-03T12:34:42Z</time>
      </trkpt>
      <trkpt lat="40.153267" lon="-4.863417">
        <ele>1890.0</ele>
        <time>2013-07-03T12:34:43Z</time>
      </trkpt>
      <trkpt lat="40.153367" lon="-4.863383">
        <ele>1891.0</ele>
        <time>2013-07-03T12:34:44Z</time>
      </trkpt>
      <trkpt lat="40.153467" lon="-4.863333">
        <ele>1891.0</ele>
        <time>2013-07-03T12:34:45Z</time>
      </trkpt>
      <trkpt lat="40.153567" lon="-4.863300">
        <ele>1892.0</ele>
        <time>2013-07-03T12:34:46Z</time>
      </trkpt>
      <trkpt lat="40.153667" lon="-4.863250">
        <ele>1893.0</ele>
        <time>2013-07-03T12:34:47Z</time>
      </trkpt>
      <trkpt lat="40.153767" lon="-4.863217">
        <ele>1894.0</ele>
        <time>2013-07-03T12:34:48Z</time>
      </trkpt>
      <trkpt lat="40.153883" lon="-4.863183">
        <ele>1895.0</ele>
        <time>2013-07-03T12:34:49Z</time>
      </trkpt>
      <trkpt lat="40.153983" lon="-4.863167">
        <ele>1896.0</ele>
        <time>2013-07-03T12:34:50Z</time>
      </trkpt>
      <trkpt lat="40.154083" lon="-4.863150">
        <ele>1898.0</ele>
        <time>2013-07-03T12:34:51Z</time>
      </trkpt>
      <trkpt lat="40.154200" lon="-4.863117">
        <ele>1899.0</ele>
        <time>2013-07-03T12:34:52Z</time>
      </trkpt>
      <trkpt lat="40.154300" lon="-4.863083">
        <ele>1901.0</ele>
        <time>2013-07-03T12:34:53Z</time>
      </trkpt>
      <trkpt lat="40.154400" lon="-4.863067">
        <ele>1903.0</ele>
        <time>2013-07-03T12:34:54Z</time>
      </trkpt>
      <trkpt lat="40.154483" lon="-4.863050">
        <ele>1906.0</ele>
        <time>2013-07-03T12:34:55Z</time>
      </trkpt>
      <trkpt lat="40.154567" lon="-4.863050">
        <ele>1909.0</ele>
        <time>2013-07-03T12:34:56Z</time>
      </trkpt>
      <trkpt lat="40.154633" lon="-4.863050">
        <ele>1912.0</ele>
        <time>2013-07-03T12:34:57Z</time>
      </trkpt>
      <trkpt lat="40.154700" lon="-4.863033">
        <ele>1914.0</ele>
        <time>2013-07-03T12:34:58Z</time>
      </trkpt>
      <trkpt lat="40.154767" lon="-4.863033">
        <ele>1915.0</ele>
        <time>2013-07-03T12:34:59Z</time>
      </trkpt>
      <trkpt lat="40.154850" lon="-4.863033">
        <ele>1915.0</ele>
        <time>2013-07-03T12:35:00Z</time>
      </trkpt>
      <trkpt lat="40.154950" lon="-4.863083">
        <ele>1915.0</ele>
        <time>2013-07-03T12:35:01Z</time>
      </trkpt>
      <trkpt lat="40.155033" lon="-4.863150">
        <ele>1917.0</ele>
        <time>2013-07-03T12:35:02Z</time>
      </trkpt>
      <trkpt lat="40.155083" lon="-4.863267">
        <ele>1918.0</ele>
        <time>2013-07-03T12:35:03Z</time>
      </trkpt>
      <trkpt lat="40.155133" lon="-4.863367">
        <ele>1921.0</ele>
        <time>2013-07-03T12:35:04Z</time>
      </trkpt>
      <trkpt lat="40.155150" lon="-4.863467">
        <ele>1924.0</ele>
        <time>2013-07-03T12:35:05Z</time>
      </trkpt>
      <trkpt lat="40.155167" lon="-4.863567">
        <ele>1926.0</ele>
        <time>2013-07-03T12:35:06Z</time>
      </trkpt>
      <trkpt lat="40.155183" lon="-4.863650">
        <ele>1927.0</ele>
        <time>2013-07-03T12:35:07Z</time>
      </trkpt>
      <trkpt lat="40.155183" lon="-4.863767">
        <ele>1929.0</ele>
        <time>2013-07-03T12:35:08Z</time>
      </trkpt>
      <trkpt lat="40.155183" lon="-4.863867">
        <ele>1930.0</ele>
        <time>2013-07-03T12:35:09Z</time>
      </trkpt>
      <trkpt lat="40.155150" lon="-4.863967">
        <ele>1931.0</ele>
        <time>2013-07-03T12:35:10Z</time>
      </trkpt>
      <trkpt lat="40.155100" lon="-4.864033">
        <ele>1933.0</ele>
        <time>2013-07-03T12:35:11Z</time>
      </trkpt>
      <trkpt lat="40.155033" lon="-4.864083">
        <ele>1934.0</ele>
        <time>2013-07-03T12:35:12Z</time>
      </trkpt>
      <trkpt lat="40.154967" lon="-4.864117">
        <ele>1935.0</ele>
        <time>2013-07-03T12:35:13Z</time>
      </trkpt>
      <trkpt lat="40.154917" lon="-4.864133">
        <ele>1938.0</ele>
        <time>2013-07-03T12:35:14Z</time>
      </trkpt>
      <trkpt lat="40.154883" lon="-4.864167">
        <ele>1940.0</ele>
        <time>2013-07-03T12:35:15Z</time>
      </trkpt>
      <trkpt lat="40.154850" lon="-4.864183">
        <ele>1941.0</ele>
        <time>2013-07-03T12:35:16Z</time>
      </trkpt>
      <trkpt lat="40.154800" lon="-4.864217">
        <ele>1942.0</ele>
        <time>2013-07-03T12:35:17Z</time>
      </trkpt>
      <trkpt lat="40.154750" lon="-4.864217">
        <ele>1943.0</ele>
        <time>2013-07-03T12:35:18Z</time>
      </trkpt>
      <trkpt lat="40.154683" lon="-4.864183">
        <ele>1943.0</ele>
        <time>2013-07-03T12:35:19Z</time>
      </trkpt>
      <trkpt lat="40.154650" lon="-4.864117">
        <ele>1945.0</ele>
        <time>2013-07-03T12:35:20Z</time>
      </trkpt>
      <trkpt lat="40.154617" lon="-4.864067">
        <ele>1946.0</ele>
        <time>2013-07-03T12:35:21Z</time>
      </trkpt>
      <trkpt lat="40.154617" lon="-4.864000">
        <ele>1948.0</ele>
        <time>2013-07-03T12:35:22Z</time>
      </trkpt>
      <trkpt lat="40.154617" lon="-4.863933">
        <ele>1949.0</ele>
        <time>2013-07-03T12:35:23Z</time>
      </trkpt>
      <trkpt lat="40.154617" lon="-4.863850">
        <ele>1950.0</ele>
        <time>2013-07-03T12:35:24Z</time>
      </trkpt>
      <trkpt lat="40.154633" lon="-4.863767">
        <ele>1951.0</ele>
        <time>2013-07-03T12:35:25Z</time>
      </trkpt>
      <trkpt lat="40.154650" lon="-4.863683">
        <ele>1953.0</ele>
        <time>2013-07-03T12:35:26Z</time>
      </trkpt>
      <trkpt lat="40.154700" lon="-4.863617">
        <ele>1955.0</ele>
        <time>2013-07-03T12:35:27Z</time>
      </trkpt>
      <trkpt lat="40.154750" lon="-4.863567">
        <ele>1956.0</ele>
        <time>2013-07-03T12:35:28Z</time>
      </trkpt>
      <trkpt lat="40.154800" lon="-4.863517">
        <ele>1957.0</ele>
        <time>2013-07-03T12:35:29Z</time>
      </trkpt>
      <trkpt lat="40.154883" lon="-4.863483">
        <ele>1958.0</ele>
        <time>2013-07-03T12:35:30Z</time>
      </trkpt>
      <trkpt lat="40.154967" lon="-4.863467">
        <ele>1959.0</ele>
        <time>2013-07-03T12:35:31Z</time>
      </trkpt>
      <trkpt lat="40.155067" lon="-4.863450">
        <ele>1961.0</ele>
        <time>2013-07-03T12:35:32Z</time>
      </trkpt>
      <trkpt lat="40.155150" lon="-4.863450">
        <ele>1963.0</ele>
        <time>2013-07-03T12:35:33Z</time>
      </trkpt>
      <trkpt lat="40.155233" lon="-4.863467">
        <ele>1965.0</ele>
        <time>2013-07-03T12:35:34Z</time>
      </trkpt>
      <trkpt lat="40.155317" lon="-4.863500">
        <ele>1966.0</ele>
        <time>2013-07-03T12:35:35Z</time>
      </trkpt>
      <trkpt lat="40.155400" lon="-4.863533">
        <ele>1967.0</ele>
        <time>2013-07-03T12:35:36Z</time>
      </trkpt>
      <trkpt lat="40.155483" lon="-4.863583">
        <ele>1968.0</ele>
        <time>2013-07-03T12:35:37Z</time>
      </trkpt>
      <trkpt lat="40.155567" lon="-4.863633">
        <ele>1969.0</ele>
        <time>2013-07-03T12:35:38Z</time>
      </trkpt>
      <trkpt lat="40.155650" lon="-4.863667">
        <ele>1970.0</ele>
        <time>2013-07-03T12:35:39Z</time>
      </trkpt>
      <trkpt lat="40.155733" lon="-4.863717">
        <ele>1970.0</ele>
        <time>2013-07-03T12:35:40Z</time>
      </trkpt>
      <trkpt lat="40.155817" lon="-4.863767">
        <ele>1971.0</ele>
        <time>2013-07-03T12:35:41Z</time>
      </trkpt>
      <trkpt lat="40.155900" lon="-4.863817">
        <ele>1972.0</ele>
        <time>2013-07-03T12:35:42Z</time>
      </trkpt>
      <trkpt lat="40.155967" lon="-4.863883">
        <ele>1973.0</ele>
        <time>2013-07-03T12:35:43Z</time>
      </trkpt>
      <trkpt lat="40.156050" lon="-4.863950">
        <ele>1975.0</ele>
        <time>2013-07-03T12:35:44Z</time>
      </trkpt>
      <trkpt lat="40.156133" lon="-4.864000">
        <ele>1976.0</ele>
        <time>2013-07-03T12:35:45Z</time>
      </trkpt>
      <trkpt lat="40.156200" lon="-4.864050">
        <ele>1977.0</ele>
        <time>2013-07-03T12:35:46Z</time>
      </trkpt>
      <trkpt lat="40.156267" lon="-4.864117">
        <ele>1978.0</ele>
        <time>2013-07-03T12:35:47Z</time>
      </trkpt>
      <trkpt lat="40.156350" lon="-4.864167">
        <ele>1979.0</ele>
        <time>2013-07-03T12:35:48Z</time>
      </trkpt>
      <trkpt lat="40.156417" lon="-4.864217">
        <ele>1980.0</ele>
        <time>2013-07-03T12:35:49Z</time>
      </trkpt>
      <trkpt lat="40.156500" lon="-4.864267">
        <ele>1980.0</ele>
        <time>2013-07-03T12:35:50Z</time>
      </trkpt>
      <trkpt lat="40.156567" lon="-4.864333">
        <ele>1980.0</ele>
        <time>2013-07-03T12:35:51Z</time>
      </trkpt>
      <trkpt lat="40.156650" lon="-4.864433">
        <ele>1981.0</ele>
        <time>2013-07-03T12:35:52Z</time>
      </trkpt>
      <trkpt lat="40.156700" lon="-4.864517">
        <ele>1981.0</ele>
        <time>2013-07-03T12:35:53Z</time>
      </trkpt>
      <trkpt lat="40.156750" lon="-4.864617">
        <ele>1982.0</ele>
        <time>2013-07-03T12:35:54Z</time>
      </trkpt>
      <trkpt lat="40.156783" lon="-4.864700">
        <ele>1982.0</ele>
        <time>2013-07-03T12:35:55Z</time>
      </trkpt>
      <trkpt lat="40.156817" lon="-4.864800">
        <ele>1982.0</ele>
        <time>2013-07-03T12:35:56Z</time>
      </trkpt>
      <trkpt lat="40.156850" lon="-4.864900">
        <ele>1981.0</ele>
        <time>2013-07-03T12:35:57Z</time>
      </trkpt>
      <trkpt lat="40.156883" lon="-4.865017">
        <ele>1980.0</ele>
        <time>2013-07-03T12:35:58Z</time>
      </trkpt>
      <trkpt lat="40.156917" lon="-4.865150">
        <ele>1980.0</ele>
        <time>2013-07-03T12:35:59Z</time>
      </trkpt>
      <trkpt lat="40.156950" lon="-4.865283">
        <ele>1980.0</ele>
        <time>2013-07-03T12:36:00Z</time>
      </trkpt>
      <trkpt lat="40.156983" lon="-4.865417">
        <ele>1980.0</ele>
        <time>2013-07-03T12:36:01Z</time>
      </trkpt>
      <trkpt lat="40.157017" lon="-4.865550">
        <ele>1980.0</ele>
        <time>2013-07-03T12:36:02Z</time>
      </trkpt>
      <trkpt lat="40.157067" lon="-4.865683">
        <ele>1981.0</ele>
        <time>2013-07-03T12:36:03Z</time>
      </trkpt>
      <trkpt lat="40.157117" lon="-4.865800">
        <ele>1983.0</ele>
        <time>2013-07-03T12:36:04Z</time>
      </trkpt>
      <trkpt lat="40.157150" lon="-4.865917">
        <ele>1984.0</ele>
        <time>2013-07-03T12:36:05Z</time>
      </trkpt>
      <trkpt lat="40.157200" lon="-4.866017">
        <ele>1986.0</ele>
        <time>2013-07-03T12:36:06Z</time>
      </trkpt>
      <trkpt lat="40.157217" lon="-4.866117">
        <ele>1987.0</ele>
        <time>2013-07-03T12:36:07Z</time>
      </trkpt>
      <trkpt lat="40.157250" lon="-4.866233">
        <ele>1988.0</ele>
        <time>2013-07-03T12:36:08Z</time>
      </trkpt>
      <trkpt lat="40.157267" lon="-4.866350">
        <ele>1988.0</ele>
        <time>2013-07-03T12:36:09Z</time>
      </trkpt>
      <trkpt lat="40.157267" lon="-4.866500">
        <ele>1988.0</ele>
        <time>2013-07-03T12:36:10Z</time>
      </trkpt>
      <trkpt lat="40.157267" lon="-4.866633">
        <ele>1989.0</ele>
        <time>2013-07-03T12:36:11Z</time>
      </trkpt>
      <trkpt lat="40.157250" lon="-4.866750">
        <ele>1989.0</ele>
        <time>2013-07-03T12:36:12Z</time>
      </trkpt>
      <trkpt lat="40.157217" lon="-4.866867">
        <ele>1989.0</ele>
        <time>2013-07-03T12:36:13Z</time>
      </trkpt>
      <trkpt lat="40.157183" lon="-4.867000">
        <ele>1989.0</ele>
        <time>2013-07-03T12:36:14Z</time>
      </trkpt>
      <trkpt lat="40.157150" lon="-4.867117">
        <ele>1989.0</ele>
        <time>2013-07-03T12:36:15Z</time>
      </trkpt>
      <trkpt lat="40.157117" lon="-4.867250">
        <ele>1989.0</ele>
        <time>2013-07-03T12:36:16Z</time>
      </trkpt>
      <trkpt lat="40.157083" lon="-4.867383">
        <ele>1989.0</ele>
        <time>2013-07-03T12:36:17Z</time>
      </trkpt>
      <trkpt lat="40.157033" lon="-4.867483">
        <ele>1989.0</ele>
        <time>2013-07-03T12:36:18Z</time>
      </trkpt>
      <trkpt lat="40.156967" lon="-4.867583">
        <ele>1990.0</ele>
        <time>2013-07-03T12:36:19Z</time>
      </trkpt>
      <trkpt lat="40.156900" lon="-4.867683">
        <ele>1990.0</ele>
        <time>2013-07-03T12:36:20Z</time>
      </trkpt>
      <trkpt lat="40.156833" lon="-4.867783">
        <ele>1989.0</ele>
        <time>2013-07-03T12:36:21Z</time>
      </trkpt>
      <trkpt lat="40.156750" lon="-4.867867">
        <ele>1989.0</ele>
        <time>2013-07-03T12:36:22Z</time>
      </trkpt>
      <trkpt lat="40.156667" lon="-4.867967">
        <ele>1990.0</ele>
        <time>2013-07-03T12:36:23Z</time>
      </trkpt>
      <trkpt lat="40.156583" lon="-4.868050">
        <ele>1990.0</ele>
        <time>2013-07-03T12:36:24Z</time>
      </trkpt>
      <trkpt lat="40.156500" lon="-4.868117">
        <ele>1991.0</ele>
        <time>2013-07-03T12:36:25Z</time>
      </trkpt>
      <trkpt lat="40.156417" lon="-4.868200">
        <ele>1991.0</ele>
        <time>2013-07-03T12:36:26Z</time>
      </trkpt>
      <trkpt lat="40.156333" lon="-4.868267">
        <ele>1991.0</ele>
        <time>2013-07-03T12:36:27Z</time>
      </trkpt>
      <trkpt lat="40.156250" lon="-4.868333">
        <ele>1990.0</ele>
        <time>2013-07-03T12:36:28Z</time>
      </trkpt>
      <trkpt lat="40.156167" lon="-4.868400">
        <ele>1989.0</ele>
        <time>2013-07-03T12:36:29Z</time>
      </trkpt>
      <trkpt lat="40.156067" lon="-4.868467">
        <ele>1987.0</ele>
        <time>2013-07-03T12:36:30Z</time>
      </trkpt>
      <trkpt lat="40.155967" lon="-4.868517">
        <ele>1986.0</ele>
        <time>2013-07-03T12:36:31Z</time>
      </trkpt>
      <trkpt lat="40.155867" lon="-4.868583">
        <ele>1985.0</ele>
        <time>2013-07-03T12:36:32Z</time>
      </trkpt>
      <trkpt lat="40.155767" lon="-4.868650">
        <ele>1984.0</ele>
        <time>2013-07-03T12:36:33Z</time>
      </trkpt>
      <trkpt lat="40.155667" lon="-4.868700">
        <ele>1983.0</ele>
        <time>2013-07-03T12:36:34Z</time>
      </trkpt>
      <trkpt lat="40.155567" lon="-4.868733">
        <ele>1982.0</ele>
        <time>2013-07-03T12:36:35Z</time>
      </trkpt>
      <trkpt lat="40.155467" lon="-4.868750">
        <ele>1981.0</ele>
        <time>2013-07-03T12:36:36Z</time>
      </trkpt>
      <trkpt lat="40.155350" lon="-4.868767">
        <ele>1980.0</ele>
        <time>2013-07-03T12:36:37Z</time>
      </trkpt>
      <trkpt lat="40.155250" lon="-4.868783">
        <ele>1979.0</ele>
        <time>2013-07-03T12:36:38Z</time>
      </trkpt>
      <trkpt lat="40.155150" lon="-4.868783">
        <ele>1979.0</ele>
        <time>2013-07-03T12:36:39Z</time>
      </trkpt>
      <trkpt lat="40.155033" lon="-4.868783">
        <ele>1979.0</ele>
        <time>2013-07-03T12:36:40Z</time>
      </trkpt>
      <trkpt lat="40.154950" lon="-4.868783">
        <ele>1979.0</ele>
        <time>2013-07-03T12:36:41Z</time>
      </trkpt>
      <trkpt lat="40.154850" lon="-4.868767">
        <ele>1979.0</ele>
        <time>2013-07-03T12:36:42Z</time>
      </trkpt>
      <trkpt lat="40.154767" lon="-4.868767">
        <ele>1979.0</ele>
        <time>2013-07-03T12:36:43Z</time>
      </trkpt>
      <trkpt lat="40.154683" lon="-4.868750">
        <ele>1979.0</ele>
        <time>2013-07-03T12:36:44Z</time>
      </trkpt>
      <trkpt lat="40.154600" lon="-4.868733">
        <ele>1979.0</ele>
        <time>2013-07-03T12:36:45Z</time>
      </trkpt>
      <trkpt lat="40.154550" lon="-4.868733">
        <ele>1979.0</ele>
        <time>2013-07-03T12:36:46Z</time>
      </trkpt>
      <trkpt lat="40.154500" lon="-4.868717">
        <ele>1978.0</ele>
        <time>2013-07-03T12:36:47Z</time>
      </trkpt>
      <trkpt lat="40.154450" lon="-4.868700">
        <ele>1977.0</ele>
        <time>2013-07-03T12:36:48Z</time>
      </trkpt>
      <trkpt lat="40.154383" lon="-4.868683">
        <ele>1975.0</ele>
        <time>2013-07-03T12:36:49Z</time>
      </trkpt>
      <trkpt lat="40.154317" lon="-4.868650">
        <ele>1973.0</ele>
        <time>2013-07-03T12:36:50Z</time>
      </trkpt>
      <trkpt lat="40.154233" lon="-4.868617">
        <ele>1969.0</ele>
        <time>2013-07-03T12:36:51Z</time>
      </trkpt>
      <trkpt lat="40.154150" lon="-4.868583">
        <ele>1966.0</ele>
        <time>2013-07-03T12:36:52Z</time>
      </trkpt>
      <trkpt lat="40.154067" lon="-4.868533">
        <ele>1965.0</ele>
        <time>2013-07-03T12:36:53Z</time>
      </trkpt>
      <trkpt lat="40.154000" lon="-4.868483">
        <ele>1964.0</ele>
        <time>2013-07-03T12:36:54Z</time>
      </trkpt>
      <trkpt lat="40.153950" lon="-4.868417">
        <ele>1964.0</ele>
        <time>2013-07-03T12:36:55Z</time>
      </trkpt>
      <trkpt lat="40.153883" lon="-4.868350">
        <ele>1965.0</ele>
        <time>2013-07-03T12:36:56Z</time>
      </trkpt>
      <trkpt lat="40.153833" lon="-4.868267">
        <ele>1966.0</ele>
        <time>2013-07-03T12:36:57Z</time>
      </trkpt>
      <trkpt lat="40.153800" lon="-4.868183">
        <ele>1967.0</ele>
        <time>2013-07-03T12:36:58Z</time>
      </trkpt>
      <trkpt lat="40.153750" lon="-4.868117">
        <ele>1969.0</ele>
        <time>2013-07-03T12:36:59Z</time>
      </trkpt>
      <trkpt lat="40.153700" lon="-4.868033">
        <ele>1971.0</ele>
        <time>2013-07-03T12:37:00Z</time>
      </trkpt>
      <trkpt lat="40.153667" lon="-4.867950">
        <ele>1973.0</ele>
        <time>2013-07-03T12:37:01Z</time>
      </trkpt>
      <trkpt lat="40.153633" lon="-4.867883">
        <ele>1975.0</ele>
        <time>2013-07-03T12:37:02Z</time>
      </trkpt>
      <trkpt lat="40.153600" lon="-4.867817">
        <ele>1977.0</ele>
        <time>2013-07-03T12:37:03Z</time>
      </trkpt>
      <trkpt lat="40.153583" lon="-4.867750">
        <ele>1979.0</ele>
        <time>2013-07-03T12:37:04Z</time>
      </trkpt>
      <trkpt lat="40.153550" lon="-4.867700">
        <ele>1980.0</ele>
        <time>2013-07-03T12:37:05Z</time>
      </trkpt>
      <trkpt lat="40.153533" lon="-4.867633">
        <ele>1982.0</ele>
        <time>2013-07-03T12:37:06Z</time>
      </trkpt>
      <trkpt lat="40.153517" lon="-4.867583">
        <ele>1983.0</ele>
        <time>2013-07-03T12:37:07Z</time>
      </trkpt>
      <trkpt lat="40.153500" lon="-4.867533">
        <ele>1985.0</ele>
        <time>2013-07-03T12:37:08Z</time>
      </trkpt>
      <trkpt lat="40.153467" lon="-4.867467">
        <ele>1987.0</ele>
        <time>2013-07-03T12:37:09Z</time>
      </trkpt>
      <trkpt lat="40.153450" lon="-4.867400">
        <ele>1988.0</ele>
        <time>2013-07-03T12:37:10Z</time>
      </trkpt>
      <trkpt lat="40.153433" lon="-4.867333">
        <ele>1990.0</ele>
        <time>2013-07-03T12:37:11Z</time>
      </trkpt>
      <trkpt lat="40.153417" lon="-4.867283">
        <ele>1992.0</ele>
        <time>2013-07-03T12:37:12Z</time>
      </trkpt>
      <trkpt lat="40.153417" lon="-4.867217">
        <ele>1994.0</ele>
        <time>2013-07-03T12:37:13Z</time>
      </trkpt>
      <trkpt lat="40.153400" lon="-4.867167">
        <ele>1994.0</ele>
        <time>2013-07-03T12:37:14Z</time>
      </trkpt>
      <trkpt lat="40.153400" lon="-4.867100">
        <ele>1995.0</ele>
        <time>2013-07-03T12:37:15Z</time>
      </trkpt>
      <trkpt lat="40.153400" lon="-4.867017">
        <ele>1996.0</ele>
        <time>2013-07-03T12:37:16Z</time>
      </trkpt>
      <trkpt lat="40.153400" lon="-4.866933">
        <ele>1999.0</ele>
        <time>2013-07-03T12:37:17Z</time>
      </trkpt>
      <trkpt lat="40.153400" lon="-4.866850">
        <ele>2002.0</ele>
        <time>2013-07-03T12:37:18Z</time>
      </trkpt>
      <trkpt lat="40.153400" lon="-4.866783">
        <ele>2007.0</ele>
        <time>2013-07-03T12:37:19Z</time>
      </trkpt>
      <trkpt lat="40.153417" lon="-4.866717">
        <ele>2011.0</ele>
        <time>2013-07-03T12:37:20Z</time>
      </trkpt>
      <trkpt lat="40.153433" lon="-4.866667">
        <ele>2014.0</ele>
        <time>2013-07-03T12:37:21Z</time>
      </trkpt>
      <trkpt lat="40.153450" lon="-4.866617">
        <ele>2016.0</ele>
        <time>2013-07-03T12:37:22Z</time>
      </trkpt>
      <trkpt lat="40.153467" lon="-4.866567">
        <ele>2018.0</ele>
        <time>2013-07-03T12:37:23Z</time>
      </trkpt>
      <trkpt lat="40.153450" lon="-4.866517">
        <ele>2020.0</ele>
        <time>2013-07-03T12:37:24Z</time>
      </trkpt>
      <trkpt lat="40.153417" lon="-4.866467">
        <ele>2021.0</ele>
        <time>2013-07-03T12:37:25Z</time>
      </trkpt>
      <trkpt lat="40.153350" lon="-4.866450">
        <ele>2022.0</ele>
        <time>2013-07-03T12:37:26Z</time>
      </trkpt>
      <trkpt lat="40.153250" lon="-4.866483">
        <ele>2023.0</ele>
        <time>2013-07-03T12:37:27Z</time>
      </trkpt>
      <trkpt lat="40.153183" lon="-4.866567">
        <ele>2024.0</ele>
        <time>2013-07-03T12:37:28Z</time>
      </trkpt>
      <trkpt lat="40.153150" lon="-4.866700">
        <ele>2025.0</ele>
        <time>2013-07-03T12:37:29Z</time>
      </trkpt>
      <trkpt lat="40.153133" lon="-4.866833">
        <ele>2026.0</ele>
        <time>2013-07-03T12:37:30Z</time>
      </trkpt>
      <trkpt lat="40.153150" lon="-4.866967">
        <ele>2028.0</ele>
        <time>2013-07-03T12:37:31Z</time>
      </trkpt>
      <trkpt lat="40.153150" lon="-4.867083">
        <ele>2031.0</ele>
        <time>2013-07-03T12:37:32Z</time>
      </trkpt>
      <trkpt lat="40.153167" lon="-4.867183">
        <ele>2035.0</ele>
        <time>2013-07-03T12:37:33Z</time>
      </trkpt>
      <trkpt lat="40.153183" lon="-4.867300">
        <ele>2037.0</ele>
        <time>2013-07-03T12:37:34Z</time>
      </trkpt>
      <trkpt lat="40.153217" lon="-4.867417">
        <ele>2040.0</ele>
        <time>2013-07-03T12:37:35Z</time>
      </trkpt>
      <trkpt lat="40.153250" lon="-4.867517">
        <ele>2043.0</ele>
        <time>2013-07-03T12:37:36Z</time>
      </trkpt>
      <trkpt lat="40.153317" lon="-4.867567">
        <ele>2045.0</ele>
        <time>2013-07-03T12:37:37Z</time>
      </trkpt>
      <trkpt lat="40.153383" lon="-4.867600">
        <ele>2047.0</ele>
        <time>2013-07-03T12:37:38Z</time>
      </trkpt>
      <trkpt lat="40.153450" lon="-4.867617">
        <ele>2049.0</ele>
        <time>2013-07-03T12:37:39Z</time>
      </trkpt>
      <trkpt lat="40.153517" lon="-4.867600">
        <ele>2052.0</ele>
        <time>2013-07-03T12:37:40Z</time>
      </trkpt>
      <trkpt lat="40.153567" lon="-4.867583">
        <ele>2055.0</ele>
        <time>2013-07-03T12:37:41Z</time>
      </trkpt>
      <trkpt lat="40.153583" lon="-4.867533">
        <ele>2057.0</ele>
        <time>2013-07-03T12:37:42Z</time>
      </trkpt>
      <trkpt lat="40.153583" lon="-4.867483">
        <ele>2059.0</ele>
        <time>2013-07-03T12:37:43Z</time>
      </trkpt>
      <trkpt lat="40.153567" lon="-4.867433">
        <ele>2060.0</ele>
        <time>2013-07-03T12:37:44Z</time>
      </trkpt>
      <trkpt lat="40.153533" lon="-4.867400">
        <ele>2062.0</ele>
        <time>2013-07-03T12:37:45Z</time>
      </trkpt>
      <trkpt lat="40.153483" lon="-4.867383">
        <ele>2063.0</ele>
        <time>2013-07-03T12:37:46Z</time>
      </trkpt>
      <trkpt lat="40.153417" lon="-4.867400">
        <ele>2064.0</ele>
        <time>2013-07-03T12:37:47Z</time>
      </trkpt>
      <trkpt lat="40.153350" lon="-4.867417">
        <ele>2066.0</ele>
        <time>2013-07-03T12:37:48Z</time>
      </trkpt>
      <trkpt lat="40.153267" lon="-4.867467">
        <ele>2068.0</ele>
        <time>2013-07-03T12:37:49Z</time>
      </trkpt>
      <trkpt lat="40.153200" lon="-4.867517">
        <ele>2071.0</ele>
        <time>2013-07-03T12:37:50Z</time>
      </trkpt>
      <trkpt lat="40.153150" lon="-4.867567">
        <ele>2073.0</ele>
        <time>2013-07-03T12:37:51Z</time>
      </trkpt>
      <trkpt lat="40.153083" lon="-4.867633">
        <ele>2075.0</ele>
        <time>2013-07-03T12:37:52Z</time>
      </trkpt>
      <trkpt lat="40.153017" lon="-4.867717">
        <ele>2076.0</ele>
        <time>2013-07-03T12:37:53Z</time>
      </trkpt>
      <trkpt lat="40.152967" lon="-4.867817">
        <ele>2077.0</ele>
        <time>2013-07-03T12:37:54Z</time>
      </trkpt>
      <trkpt lat="40.152933" lon="-4.867933">
        <ele>2077.0</ele>
        <time>2013-07-03T12:37:55Z</time>
      </trkpt>
      <trkpt lat="40.152933" lon="-4.868050">
        <ele>2079.0</ele>
        <time>2013-07-03T12:37:56Z</time>
      </trkpt>
      <trkpt lat="40.152950" lon="-4.868167">
        <ele>2082.0</ele>
        <time>2013-07-03T12:37:57Z</time>
      </trkpt>
      <trkpt lat="40.153000" lon="-4.868250">
        <ele>2085.0</ele>
        <time>2013-07-03T12:37:58Z</time>
      </trkpt>
      <trkpt lat="40.153050" lon="-4.868317">
        <ele>2088.0</ele>
        <time>2013-07-03T12:37:59Z</time>
      </trkpt>
      <trkpt lat="40.153100" lon="-4.868383">
        <ele>2091.0</ele>
        <time>2013-07-03T12:38:00Z</time>
      </trkpt>
      <trkpt lat="40.153167" lon="-4.868417">
        <ele>2093.0</ele>
        <time>2013-07-03T12:38:01Z</time>
      </trkpt>
      <trkpt lat="40.153233" lon="-4.868450">
        <ele>2095.0</ele>
        <time>2013-07-03T12:38:02Z</time>
      </trkpt>
      <trkpt lat="40.153283" lon="-4.868450">
        <ele>2097.0</ele>
        <time>2013-07-03T12:38:03Z</time>
      </trkpt>
      <trkpt lat="40.153333" lon="-4.868450">
        <ele>2100.0</ele>
        <time>2013-07-03T12:38:04Z</time>
      </trkpt>
      <trkpt lat="40.153367" lon="-4.868417">
        <ele>2102.0</ele>
        <time>2013-07-03T12:38:05Z</time>
      </trkpt>
      <trkpt lat="40.153383" lon="-4.868383">
        <ele>2104.0</ele>
        <time>2013-07-03T12:38:06Z</time>
      </trkpt>
      <trkpt lat="40.153367" lon="-4.868333">
        <ele>2105.0</ele>
        <time>2013-07-03T12:38:07Z</time>
      </trkpt>
      <trkpt lat="40.153350" lon="-4.868283">
        <ele>2107.0</ele>
        <time>2013-07-03T12:38:08Z</time>
      </trkpt>
      <trkpt lat="40.153300" lon="-4.868233">
        <ele>2108.0</ele>
        <time>2013-07-03T12:38:09Z</time>
      </trkpt>
      <trkpt lat="40.153250" lon="-4.868217">
        <ele>2111.0</ele>
        <time>2013-07-03T12:38:10Z</time>
      </trkpt>
      <trkpt lat="40.153200" lon="-4.868217">
        <ele>2113.0</ele>
        <time>2013-07-03T12:38:11Z</time>
      </trkpt>
      <trkpt lat="40.153133" lon="-4.868217">
        <ele>2115.0</ele>
        <time>2013-07-03T12:38:12Z</time>
      </trkpt>
      <trkpt lat="40.153083" lon="-4.868217">
        <ele>2116.0</ele>
        <time>2013-07-03T12:38:13Z</time>
      </trkpt>
      <trkpt lat="40.153017" lon="-4.868233">
        <ele>2117.0</ele>
        <time>2013-07-03T12:38:14Z</time>
      </trkpt>
      <trkpt lat="40.152950" lon="-4.868233">
        <ele>2118.0</ele>
        <time>2013-07-03T12:38:15Z</time>
      </trkpt>
      <trkpt lat="40.152867" lon="-4.868250">
        <ele>2120.0</ele>
        <time>2013-07-03T12:38:16Z</time>
      </trkpt>
      <trkpt lat="40.152800" lon="-4.868300">
        <ele>2121.0</ele>
        <time>2013-07-03T12:38:17Z</time>
      </trkpt>
      <trkpt lat="40.152750" lon="-4.868400">
        <ele>2122.0</ele>
        <time>2013-07-03T12:38:18Z</time>
      </trkpt>
      <trkpt lat="40.152717" lon="-4.868517">
        <ele>2123.0</ele>
        <time>2013-07-03T12:38:19Z</time>
      </trkpt>
      <trkpt lat="40.152700" lon="-4.868650">
        <ele>2126.0</ele>
        <time>2013-07-03T12:38:20Z</time>
      </trkpt>
      <trkpt lat="40.152733" lon="-4.868750">
        <ele>2129.0</ele>
        <time>2013-07-03T12:38:21Z</time>
      </trkpt>
      <trkpt lat="40.152783" lon="-4.868833">
        <ele>2132.0</ele>
        <time>2013-07-03T12:38:22Z</time>
      </trkpt>
      <trkpt lat="40.152833" lon="-4.868883">
        <ele>2134.0</ele>
        <time>2013-07-03T12:38:23Z</time>
      </trkpt>
      <trkpt lat="40.152883" lon="-4.868917">
        <ele>2136.0</ele>
        <time>2013-07-03T12:38:24Z</time>
      </trkpt>
      <trkpt lat="40.152950" lon="-4.868950">
        <ele>2137.0</ele>
        <time>2013-07-03T12:38:25Z</time>
      </trkpt>
      <trkpt lat="40.153000" lon="-4.868950">
        <ele>2138.0</ele>
        <time>2013-07-03T12:38:26Z</time>
      </trkpt>
      <trkpt lat="40.153067" lon="-4.868933">
        <ele>2139.0</ele>
        <time>2013-07-03T12:38:27Z</time>
      </trkpt>
      <trkpt lat="40.153117" lon="-4.868900">
        <ele>2141.0</ele>
        <time>2013-07-03T12:38:28Z</time>
      </trkpt>
      <trkpt lat="40.153150" lon="-4.868867">
        <ele>2142.0</ele>
        <time>2013-07-03T12:38:29Z</time>
      </trkpt>
      <trkpt lat="40.153183" lon="-4.868817">
        <ele>2144.0</ele>
        <time>2013-07-03T12:38:30Z</time>
      </trkpt>
      <trkpt lat="40.153200" lon="-4.868783">
        <ele>2145.0</ele>
        <time>2013-07-03T12:38:31Z</time>
      </trkpt>
      <trkpt lat="40.153217" lon="-4.868717">
        <ele>2146.0</ele>
        <time>2013-07-03T12:38:32Z</time>
      </trkpt>
      <trkpt lat="40.153200" lon="-4.868650">
        <ele>2147.0</ele>
        <time>2013-07-03T12:38:33Z</time>
      </trkpt>
      <trkpt lat="40.153183" lon="-4.868567">
        <ele>2148.0</ele>
        <time>2013-07-03T12:38:34Z</time>
      </trkpt>
      <trkpt lat="40.153167" lon="-4.868517">
        <ele>2150.0</ele>
        <time>2013-07-03T12:38:35Z</time>
      </trkpt>
      <trkpt lat="40.153167" lon="-4.868467">
        <ele>2153.0</ele>
        <time>2013-07-03T12:38:36Z</time>
      </trkpt>
      <trkpt lat="40.153150" lon="-4.868417">
        <ele>2155.0</ele>
        <time>2013-07-03T12:38:37Z</time>
      </trkpt>
      <trkpt lat="40.153133" lon="-4.868383">
        <ele>2156.0</ele>
        <time>2013-07-03T12:38:38Z</time>
      </trkpt>
      <trkpt lat="40.153117" lon="-4.868333">
        <ele>2156.0</ele>
        <time>2013-07-03T12:38:39Z</time>
      </trkpt>
      <trkpt lat="40.153067" lon="-4.868283">
        <ele>2155.0</ele>
        <time>2013-07-03T12:38:40Z</time>
      </trkpt>
      <trkpt lat="40.153017" lon="-4.868250">
        <ele>2156.0</ele>
        <time>2013-07-03T12:38:41Z</time>
      </trkpt>
      <trkpt lat="40.152933" lon="-4.868250">
        <ele>2156.0</ele>
        <time>2013-07-03T12:38:42Z</time>
      </trkpt>
      <trkpt lat="40.152850" lon="-4.868267">
        <ele>2157.0</ele>
        <time>2013-07-03T12:38:43Z</time>
      </trkpt>
      <trkpt lat="40.152783" lon="-4.868300">
        <ele>2159.0</ele>
        <time>2013-07-03T12:38:44Z</time>
      </trkpt>
      <trkpt lat="40.152717" lon="-4.868350">
        <ele>2160.0</ele>
        <time>2013-07-03T12:38:45Z</time>
      </trkpt>
      <trkpt lat="40.152650" lon="-4.868417">
        <ele>2162.0</ele>
        <time>2013-07-03T12:38:46Z</time>
      </trkpt>
      <trkpt lat="40.152583" lon="-4.868483">
        <ele>2163.0</ele>
        <time>2013-07-03T12:38:47Z</time>
      </trkpt>
      <trkpt lat="40.152533" lon="-4.868583">
        <ele>2164.0</ele>
        <time>2013-07-03T12:38:48Z</time>
      </trkpt>
      <trkpt lat="40.152500" lon="-4.868700">
        <ele>2165.0</ele>
        <time>2013-07-03T12:38:49Z</time>
      </trkpt>
      <trkpt lat="40.152483" lon="-4.868833">
        <ele>2166.0</ele>
        <time>2013-07-03T12:38:50Z</time>
      </trkpt>
      <trkpt lat="40.152483" lon="-4.868950">
        <ele>2167.0</ele>
        <time>2013-07-03T12:38:51Z</time>
      </trkpt>
      <trkpt lat="40.152467" lon="-4.869050">
        <ele>2167.0</ele>
        <time>2013-07-03T12:38:52Z</time>
      </trkpt>
      <trkpt lat="40.152433" lon="-4.869183">
        <ele>2166.0</ele>
        <time>2013-07-03T12:38:53Z</time>
      </trkpt>
      <trkpt lat="40.152400" lon="-4.869317">
        <ele>2166.0</ele>
        <time>2013-07-03T12:38:54Z</time>
      </trkpt>
      <trkpt lat="40.152400" lon="-4.869467">
        <ele>2166.0</ele>
        <time>2013-07-03T12:38:55Z</time>
      </trkpt>
      <trkpt lat="40.152433" lon="-4.869600">
        <ele>2167.0</ele>
        <time>2013-07-03T12:38:56Z</time>
      </trkpt>
      <trkpt lat="40.152483" lon="-4.869700">
        <ele>2167.0</ele>
        <time>2013-07-03T12:38:57Z</time>
      </trkpt>
      <trkpt lat="40.152567" lon="-4.869767">
        <ele>2168.0</ele>
        <time>2013-07-03T12:38:58Z</time>
      </trkpt>
      <trkpt lat="40.152650" lon="-4.869800">
        <ele>2169.0</ele>
        <time>2013-07-03T12:38:59Z</time>
      </trkpt>
      <trkpt lat="40.152733" lon="-4.869833">
        <ele>2171.0</ele>
        <time>2013-07-03T12:39:00Z</time>
      </trkpt>
      <trkpt lat="40.152800" lon="-4.869867">
        <ele>2173.0</ele>
        <time>2013-07-03T12:39:01Z</time>
      </trkpt>
      <trkpt lat="40.152867" lon="-4.869900">
        <ele>2174.0</ele>
        <time>2013-07-03T12:39:02Z</time>
      </trkpt>
      <trkpt lat="40.152917" lon="-4.869950">
        <ele>2174.0</ele>
        <time>2013-07-03T12:39:03Z</time>
      </trkpt>
      <trkpt lat="40.152983" lon="-4.869967">
        <ele>2175.0</ele>
        <time>2013-07-03T12:39:04Z</time>
      </trkpt>
      <trkpt lat="40.153050" lon="-4.869967">
        <ele>2175.0</ele>
        <time>2013-07-03T12:39:05Z</time>
      </trkpt>
      <trkpt lat="40.153100" lon="-4.869950">
        <ele>2175.0</ele>
        <time>2013-07-03T12:39:06Z</time>
      </trkpt>
      <trkpt lat="40.153133" lon="-4.869900">
        <ele>2176.0</ele>
        <time>2013-07-03T12:39:07Z</time>
      </trkpt>
      <trkpt lat="40.153133" lon="-4.869833">
        <ele>2178.0</ele>
        <time>2013-07-03T12:39:08Z</time>
      </trkpt>
      <trkpt lat="40.153117" lon="-4.869767">
        <ele>2179.0</ele>
        <time>2013-07-03T12:39:09Z</time>
      </trkpt>
      <trkpt lat="40.153083" lon="-4.869717">
        <ele>2179.0</ele>
        <time>2013-07-03T12:39:10Z</time>
      </trkpt>
      <trkpt lat="40.153033" lon="-4.869683">
        <ele>2179.0</ele>
        <time>2013-07-03T12:39:11Z</time>
      </trkpt>
      <trkpt lat="40.152950" lon="-4.869650">
        <ele>2180.0</ele>
        <time>2013-07-03T12:39:12Z</time>
      </trkpt>
      <trkpt lat="40.152883" lon="-4.869650">
        <ele>2181.0</ele>
        <time>2013-07-03T12:39:13Z</time>
      </trkpt>
      <trkpt lat="40.152800" lon="-4.869667">
        <ele>2182.0</ele>
        <time>2013-07-03T12:39:14Z</time>
      </trkpt>
      <trkpt lat="40.152717" lon="-4.869700">
        <ele>2183.0</ele>
        <time>2013-07-03T12:39:15Z</time>
      </trkpt>
      <trkpt lat="40.152650" lon="-4.869733">
        <ele>2184.0</ele>
        <time>2013-07-03T12:39:16Z</time>
      </trkpt>
      <trkpt lat="40.152567" lon="-4.869767">
        <ele>2184.0</ele>
        <time>2013-07-03T12:39:17Z</time>
      </trkpt>
      <trkpt lat="40.152483" lon="-4.869800">
        <ele>2184.0</ele>
        <time>2013-07-03T12:39:18Z</time>
      </trkpt>
      <trkpt lat="40.152400" lon="-4.869817">
        <ele>2184.0</ele>
        <time>2013-07-03T12:39:19Z</time>
      </trkpt>
      <trkpt lat="40.152300" lon="-4.869817">
        <ele>2184.0</ele>
        <time>2013-07-03T12:39:20Z</time>
      </trkpt>
      <trkpt lat="40.152217" lon="-4.869800">
        <ele>2183.0</ele>
        <time>2013-07-03T12:39:21Z</time>
      </trkpt>
      <trkpt lat="40.152133" lon="-4.869767">
        <ele>2182.0</ele>
        <time>2013-07-03T12:39:22Z</time>
      </trkpt>
      <trkpt lat="40.152033" lon="-4.869717">
        <ele>2182.0</ele>
        <time>2013-07-03T12:39:23Z</time>
      </trkpt>
      <trkpt lat="40.151950" lon="-4.869700">
        <ele>2183.0</ele>
        <time>2013-07-03T12:39:24Z</time>
      </trkpt>
      <trkpt lat="40.151867" lon="-4.869683">
        <ele>2184.0</ele>
        <time>2013-07-03T12:39:25Z</time>
      </trkpt>
      <trkpt lat="40.151800" lon="-4.869683">
        <ele>2184.0</ele>
        <time>2013-07-03T12:39:26Z</time>
      </trkpt>
      <trkpt lat="40.151733" lon="-4.869683">
        <ele>2183.0</ele>
        <time>2013-07-03T12:39:27Z</time>
      </trkpt>
      <trkpt lat="40.151667" lon="-4.869650">
        <ele>2182.0</ele>
        <time>2013-07-03T12:39:28Z</time>
      </trkpt>
      <trkpt lat="40.151583" lon="-4.869633">
        <ele>2179.0</ele>
        <time>2013-07-03T12:39:29Z</time>
      </trkpt>
      <trkpt lat="40.151517" lon="-4.869600">
        <ele>2177.0</ele>
        <time>2013-07-03T12:39:30Z</time>
      </trkpt>
      <trkpt lat="40.151433" lon="-4.869567">
        <ele>2175.0</ele>
        <time>2013-07-03T12:39:31Z</time>
      </trkpt>
      <trkpt lat="40.151350" lon="-4.869517">
        <ele>2172.0</ele>
        <time>2013-07-03T12:39:32Z</time>
      </trkpt>
      <trkpt lat="40.151267" lon="-4.869467">
        <ele>2169.0</ele>
        <time>2013-07-03T12:39:33Z</time>
      </trkpt>
      <trkpt lat="40.151200" lon="-4.869417">
        <ele>2166.0</ele>
        <time>2013-07-03T12:39:34Z</time>
      </trkpt>
      <trkpt lat="40.151150" lon="-4.869333">
        <ele>2163.0</ele>
        <time>2013-07-03T12:39:35Z</time>
      </trkpt>
      <trkpt lat="40.151100" lon="-4.869250">
        <ele>2160.0</ele>
        <time>2013-07-03T12:39:36Z</time>
      </trkpt>
      <trkpt lat="40.151033" lon="-4.869183">
        <ele>2157.0</ele>
        <time>2013-07-03T12:39:37Z</time>
      </trkpt>
      <trkpt lat="40.150967" lon="-4.869117">
        <ele>2155.0</ele>
        <time>2013-07-03T12:39:38Z</time>
      </trkpt>
      <trkpt lat="40.150917" lon="-4.869050">
        <ele>2152.0</ele>
        <time>2013-07-03T12:39:39Z</time>
      </trkpt>
      <trkpt lat="40.150850" lon="-4.868983">
        <ele>2149.0</ele>
        <time>2013-07-03T12:39:40Z</time>
      </trkpt>
      <trkpt lat="40.150767" lon="-4.868917">
        <ele>2145.0</ele>
        <time>2013-07-03T12:39:41Z</time>
      </trkpt>
      <trkpt lat="40.150683" lon="-4.868833">
        <ele>2142.0</ele>
        <time>2013-07-03T12:39:42Z</time>
      </trkpt>
      <trkpt lat="40.150600" lon="-4.868767">
        <ele>2139.0</ele>
        <time>2013-07-03T12:39:43Z</time>
      </trkpt>
      <trkpt lat="40.150517" lon="-4.868683">
        <ele>2137.0</ele>
        <time>2013-07-03T12:39:44Z</time>
      </trkpt>
      <trkpt lat="40.150433" lon="-4.868600">
        <ele>2136.0</ele>
        <time>2013-07-03T12:39:45Z</time>
      </trkpt>
      <trkpt lat="40.150367" lon="-4.868517">
        <ele>2135.0</ele>
        <time>2013-07-03T12:39:46Z</time>
      </trkpt>
      <trkpt lat="40.150283" lon="-4.868450">
        <ele>2133.0</ele>
        <time>2013-07-03T12:39:47Z</time>
      </trkpt>
      <trkpt lat="40.150217" lon="-4.868367">
        <ele>2132.0</ele>
        <time>2013-07-03T12:39:48Z</time>
      </trkpt>
      <trkpt lat="40.150133" lon="-4.868283">
        <ele>2131.0</ele>
        <time>2013-07-03T12:39:49Z</time>
      </trkpt>
      <trkpt lat="40.150050" lon="-4.868217">
        <ele>2131.0</ele>
        <time>2013-07-03T12:39:50Z</time>
      </trkpt>
      <trkpt lat="40.149967" lon="-4.868150">
        <ele>2132.0</ele>
        <time>2013-07-03T12:39:51Z</time>
      </trkpt>
      <trkpt lat="40.149900" lon="-4.868083">
        <ele>2132.0</ele>
        <time>2013-07-03T12:39:52Z</time>
      </trkpt>
      <trkpt lat="40.149833" lon="-4.868017">
        <ele>2133.0</ele>
        <time>2013-07-03T12:39:53Z</time>
      </trkpt>
      <trkpt lat="40.149767" lon="-4.867950">
        <ele>2133.0</ele>
        <time>2013-07-03T12:39:54Z</time>
      </trkpt>
      <trkpt lat="40.149717" lon="-4.867883">
        <ele>2134.0</ele>
        <time>2013-07-03T12:39:55Z</time>
      </trkpt>
      <trkpt lat="40.149650" lon="-4.867833">
        <ele>2134.0</ele>
        <time>2013-07-03T12:39:56Z</time>
      </trkpt>
      <trkpt lat="40.149600" lon="-4.867800">
        <ele>2134.0</ele>
        <time>2013-07-03T12:39:57Z</time>
      </trkpt>
      <trkpt lat="40.149550" lon="-4.867750">
        <ele>2134.0</ele>
        <time>2013-07-03T12:39:58Z</time>
      </trkpt>
      <trkpt lat="40.149483" lon="-4.867717">
        <ele>2133.0</ele>
        <time>2013-07-03T12:39:59Z</time>
      </trkpt>
      <trkpt lat="40.149433" lon="-4.867667">
        <ele>2132.0</ele>
        <time>2013-07-03T12:40:00Z</time>
      </trkpt>
      <trkpt lat="40.149383" lon="-4.867617">
        <ele>2132.0</ele>
        <time>2013-07-03T12:40:01Z</time>
      </trkpt>
      <trkpt lat="40.149333" lon="-4.867550">
        <ele>2132.0</ele>
        <time>2013-07-03T12:40:02Z</time>
      </trkpt>
      <trkpt lat="40.149267" lon="-4.867517">
        <ele>2132.0</ele>
        <time>2013-07-03T12:40:03Z</time>
      </trkpt>
      <trkpt lat="40.149200" lon="-4.867467">
        <ele>2131.0</ele>
        <time>2013-07-03T12:40:04Z</time>
      </trkpt>
      <trkpt lat="40.149117" lon="-4.867400">
        <ele>2130.0</ele>
        <time>2013-07-03T12:40:05Z</time>
      </trkpt>
      <trkpt lat="40.149050" lon="-4.867333">
        <ele>2129.0</ele>
        <time>2013-07-03T12:40:06Z</time>
      </trkpt>
      <trkpt lat="40.148983" lon="-4.867250">
        <ele>2129.0</ele>
        <time>2013-07-03T12:40:07Z</time>
      </trkpt>
      <trkpt lat="40.148933" lon="-4.867167">
        <ele>2130.0</ele>
        <time>2013-07-03T12:40:08Z</time>
      </trkpt>
      <trkpt lat="40.148867" lon="-4.867117">
        <ele>2132.0</ele>
        <time>2013-07-03T12:40:09Z</time>
      </trkpt>
      <trkpt lat="40.148800" lon="-4.867083">
        <ele>2132.0</ele>
        <time>2013-07-03T12:40:10Z</time>
      </trkpt>
      <trkpt lat="40.148750" lon="-4.867033">
        <ele>2132.0</ele>
        <time>2013-07-03T12:40:11Z</time>
      </trkpt>
      <trkpt lat="40.148683" lon="-4.867000">
        <ele>2132.0</ele>
        <time>2013-07-03T12:40:12Z</time>
      </trkpt>
      <trkpt lat="40.148633" lon="-4.866967">
        <ele>2132.0</ele>
        <time>2013-07-03T12:40:13Z</time>
      </trkpt>
      <trkpt lat="40.148583" lon="-4.866917">
        <ele>2131.0</ele>
        <time>2013-07-03T12:40:14Z</time>
      </trkpt>
      <trkpt lat="40.148533" lon="-4.866867">
        <ele>2129.0</ele>
        <time>2013-07-03T12:40:15Z</time>
      </trkpt>
      <trkpt lat="40.148467" lon="-4.866800">
        <ele>2127.0</ele>
        <time>2013-07-03T12:40:16Z</time>
      </trkpt>
      <trkpt lat="40.148400" lon="-4.866733">
        <ele>2125.0</ele>
        <time>2013-07-03T12:40:17Z</time>
      </trkpt>
      <trkpt lat="40.148317" lon="-4.866650">
        <ele>2124.0</ele>
        <time>2013-07-03T12:40:18Z</time>
      </trkpt>
      <trkpt lat="40.148233" lon="-4.866567">
        <ele>2124.0</ele>
        <time>2013-07-03T12:40:19Z</time>
      </trkpt>
      <trkpt lat="40.148167" lon="-4.866500">
        <ele>2125.0</ele>
        <time>2013-07-03T12:40:20Z</time>
      </trkpt>
      <trkpt lat="40.148100" lon="-4.866433">
        <ele>2127.0</ele>
        <time>2013-07-03T12:40:21Z</time>
      </trkpt>
      <trkpt lat="40.148033" lon="-4.866367">
        <ele>2129.0</ele>
        <time>2013-07-03T12:40:22Z</time>
      </trkpt>
      <trkpt lat="40.147967" lon="-4.866317">
        <ele>2131.0</ele>
        <time>2013-07-03T12:40:23Z</time>
      </trkpt>
      <trkpt lat="40.147950" lon="-4.866283">
        <ele>2132.0</ele>
        <time>2013-07-03T12:40:24Z</time>
      </trkpt>
      <trkpt lat="40.147933" lon="-4.866233">
        <ele>2132.0</ele>
        <time>2013-07-03T12:40:25Z</time>
      </trkpt>
      <trkpt lat="40.147950" lon="-4.866183">
        <ele>2132.0</ele>
        <time>2013-07-03T12:40:26Z</time>
      </trkpt>
      <trkpt lat="40.147983" lon="-4.866117">
        <ele>2132.0</ele>
        <time>2013-07-03T12:40:27Z</time>
      </trkpt>
      <trkpt lat="40.148017" lon="-4.866083">
        <ele>2133.0</ele>
        <time>2013-07-03T12:40:28Z</time>
      </trkpt>
      <trkpt lat="40.148067" lon="-4.866067">
        <ele>2134.0</ele>
        <time>2013-07-03T12:40:29Z</time>
      </trkpt>
      <trkpt lat="40.148117" lon="-4.866083">
        <ele>2135.0</ele>
        <time>2013-07-03T12:40:30Z</time>
      </trkpt>
      <trkpt lat="40.148183" lon="-4.866133">
        <ele>2135.0</ele>
        <time>2013-07-03T12:40:31Z</time>
      </trkpt>
      <trkpt lat="40.148233" lon="-4.866217">
        <ele>2135.0</ele>
        <time>2013-07-03T12:40:32Z</time>
      </trkpt>
      <trkpt lat="40.148267" lon="-4.866333">
        <ele>2136.0</ele>
        <time>2013-07-03T12:40:33Z</time>
      </trkpt>
      <trkpt lat="40.148267" lon="-4.866483">
        <ele>2137.0</ele>
        <time>2013-07-03T12:40:34Z</time>
      </trkpt>
      <trkpt lat="40.148250" lon="-4.866617">
        <ele>2137.0</ele>
        <time>2013-07-03T12:40:35Z</time>
      </trkpt>
      <trkpt lat="40.148217" lon="-4.866733">
        <ele>2139.0</ele>
        <time>2013-07-03T12:40:36Z</time>
      </trkpt>
      <trkpt lat="40.148167" lon="-4.866867">
        <ele>2139.0</ele>
        <time>2013-07-03T12:40:37Z</time>
      </trkpt>
      <trkpt lat="40.148100" lon="-4.866967">
        <ele>2140.0</ele>
        <time>2013-07-03T12:40:38Z</time>
      </trkpt>
      <trkpt lat="40.148017" lon="-4.867050">
        <ele>2140.0</ele>
        <time>2013-07-03T12:40:39Z</time>
      </trkpt>
      <trkpt lat="40.147917" lon="-4.867083">
        <ele>2140.0</ele>
        <time>2013-07-03T12:40:40Z</time>
      </trkpt>
      <trkpt lat="40.147817" lon="-4.867100">
        <ele>2140.0</ele>
        <time>2013-07-03T12:40:41Z</time>
      </trkpt>
      <trkpt lat="40.147733" lon="-4.867100">
        <ele>2140.0</ele>
        <time>2013-07-03T12:40:42Z</time>
      </trkpt>
      <trkpt lat="40.147633" lon="-4.867100">
        <ele>2139.0</ele>
        <time>2013-07-03T12:40:43Z</time>
      </trkpt>
      <trkpt lat="40.147533" lon="-4.867083">
        <ele>2138.0</ele>
        <time>2013-07-03T12:40:44Z</time>
      </trkpt>
      <trkpt lat="40.147433" lon="-4.867067">
        <ele>2137.0</ele>
        <time>2013-07-03T12:40:45Z</time>
      </trkpt>
      <trkpt lat="40.147317" lon="-4.867033">
        <ele>2136.0</ele>
        <time>2013-07-03T12:40:46Z</time>
      </trkpt>
      <trkpt lat="40.147217" lon="-4.867017">
        <ele>2135.0</ele>
        <time>2013-07-03T12:40:47Z</time>
      </trkpt>
      <trkpt lat="40.147133" lon="-4.867000">
        <ele>2135.0</ele>
        <time>2013-07-03T12:40:48Z</time>
      </trkpt>
      <trkpt lat="40.147067" lon="-4.866983">
        <ele>2136.0</ele>
        <time>2013-07-03T12:40:49Z</time>
      </trkpt>
      <trkpt lat="40.147000" lon="-4.866967">
        <ele>2137.0</ele>
        <time>2013-07-03T12:40:50Z</time>
      </trkpt>
      <trkpt lat="40.146950" lon="-4.866933">
        <ele>2137.0</ele>
        <time>2013-07-03T12:40:51Z</time>
      </trkpt>
      <trkpt lat="40.146900" lon="-4.866900">
        <ele>2136.0</ele>
        <time>2013-07-03T12:40:52Z</time>
      </trkpt>
      <trkpt lat="40.146833" lon="-4.866850">
        <ele>2134.0</ele>
        <time>2013-07-03T12:40:53Z</time>
      </trkpt>
      <trkpt lat="40.146767" lon="-4.866817">
        <ele>2132.0</ele>
        <time>2013-07-03T12:40:54Z</time>
      </trkpt>
      <trkpt lat="40.146700" lon="-4.866783">
        <ele>2131.0</ele>
        <time>2013-07-03T12:40:55Z</time>
      </trkpt>
      <trkpt lat="40.146633" lon="-4.866733">
        <ele>2129.0</ele>
        <time>2013-07-03T12:40:56Z</time>
      </trkpt>
      <trkpt lat="40.146567" lon="-4.866700">
        <ele>2127.0</ele>
        <time>2013-07-03T12:40:57Z</time>
      </trkpt>
      <trkpt lat="40.146500" lon="-4.866667">
        <ele>2126.0</ele>
        <time>2013-07-03T12:40:58Z</time>
      </trkpt>
      <trkpt lat="40.146433" lon="-4.866617">
        <ele>2124.0</ele>
        <time>2013-07-03T12:40:59Z</time>
      </trkpt>
      <trkpt lat="40.146367" lon="-4.866583">
        <ele>2121.0</ele>
        <time>2013-07-03T12:41:00Z</time>
      </trkpt>
      <trkpt lat="40.146283" lon="-4.866533">
        <ele>2118.0</ele>
        <time>2013-07-03T12:41:01Z</time>
      </trkpt>
      <trkpt lat="40.146217" lon="-4.866483">
        <ele>2116.0</ele>
        <time>2013-07-03T12:41:02Z</time>
      </trkpt>
      <trkpt lat="40.146133" lon="-4.866433">
        <ele>2114.0</ele>
        <time>2013-07-03T12:41:03Z</time>
      </trkpt>
      <trkpt lat="40.146067" lon="-4.866400">
        <ele>2113.0</ele>
        <time>2013-07-03T12:41:04Z</time>
      </trkpt>
      <trkpt lat="40.146000" lon="-4.866350">
        <ele>2111.0</ele>
        <time>2013-07-03T12:41:05Z</time>
      </trkpt>
      <trkpt lat="40.145917" lon="-4.866300">
        <ele>2108.0</ele>
        <time>2013-07-03T12:41:06Z</time>
      </trkpt>
      <trkpt lat="40.145833" lon="-4.866250">
        <ele>2105.0</ele>
        <time>2013-07-03T12:41:07Z</time>
      </trkpt>
      <trkpt lat="40.145733" lon="-4.866200">
        <ele>2104.0</ele>
        <time>2013-07-03T12:41:08Z</time>
      </trkpt>
      <trkpt lat="40.145650" lon="-4.866167">
        <ele>2103.0</ele>
        <time>2013-07-03T12:41:09Z</time>
      </trkpt>
      <trkpt lat="40.145550" lon="-4.866133">
        <ele>2102.0</ele>
        <time>2013-07-03T12:41:10Z</time>
      </trkpt>
      <trkpt lat="40.145467" lon="-4.866100">
        <ele>2100.0</ele>
        <time>2013-07-03T12:41:11Z</time>
      </trkpt>
      <trkpt lat="40.145383" lon="-4.866067">
        <ele>2098.0</ele>
        <time>2013-07-03T12:41:12Z</time>
      </trkpt>
      <trkpt lat="40.145283" lon="-4.866017">
        <ele>2096.0</ele>
        <time>2013-07-03T12:41:13Z</time>
      </trkpt>
      <trkpt lat="40.145183" lon="-4.865967">
        <ele>2094.0</ele>
        <time>2013-07-03T12:41:14Z</time>
      </trkpt>
      <trkpt lat="40.145083" lon="-4.865933">
        <ele>2093.0</ele>
        <time>2013-07-03T12:41:15Z</time>
      </trkpt>
      <trkpt lat="40.144983" lon="-4.865900">
        <ele>2091.0</ele>
        <time>2013-07-03T12:41:16Z</time>
      </trkpt>
      <trkpt lat="40.144883" lon="-4.865850">
        <ele>2089.0</ele>
        <time>2013-07-03T12:41:17Z</time>
      </trkpt>
      <trkpt lat="40.144783" lon="-4.865817">
        <ele>2086.0</ele>
        <time>2013-07-03T12:41:18Z</time>
      </trkpt>
      <trkpt lat="40.144700" lon="-4.865750">
        <ele>2084.0</ele>
        <time>2013-07-03T12:41:19Z</time>
      </trkpt>
      <trkpt lat="40.144600" lon="-4.865700">
        <ele>2081.0</ele>
        <time>2013-07-03T12:41:20Z</time>
      </trkpt>
      <trkpt lat="40.144500" lon="-4.865650">
        <ele>2079.0</ele>
        <time>2013-07-03T12:41:21Z</time>
      </trkpt>
      <trkpt lat="40.144400" lon="-4.865583">
        <ele>2078.0</ele>
        <time>2013-07-03T12:41:22Z</time>
      </trkpt>
      <trkpt lat="40.144317" lon="-4.865533">
        <ele>2076.0</ele>
        <time>2013-07-03T12:41:23Z</time>
      </trkpt>
      <trkpt lat="40.144217" lon="-4.865483">
        <ele>2074.0</ele>
        <time>2013-07-03T12:41:24Z</time>
      </trkpt>
      <trkpt lat="40.144133" lon="-4.865433">
        <ele>2072.0</ele>
        <time>2013-07-03T12:41:25Z</time>
      </trkpt>
      <trkpt lat="40.144033" lon="-4.865383">
        <ele>2070.0</ele>
        <time>2013-07-03T12:41:26Z</time>
      </trkpt>
      <trkpt lat="40.143950" lon="-4.865317">
        <ele>2067.0</ele>
        <time>2013-07-03T12:41:27Z</time>
      </trkpt>
      <trkpt lat="40.143850" lon="-4.865250">
        <ele>2064.0</ele>
        <time>2013-07-03T12:41:28Z</time>
      </trkpt>
      <trkpt lat="40.143750" lon="-4.865183">
        <ele>2062.0</ele>
        <time>2013-07-03T12:41:29Z</time>
      </trkpt>
      <trkpt lat="40.143650" lon="-4.865117">
        <ele>2059.0</ele>
        <time>2013-07-03T12:41:30Z</time>
      </trkpt>
      <trkpt lat="40.143550" lon="-4.865067">
        <ele>2057.0</ele>
        <time>2013-07-03T12:41:31Z</time>
      </trkpt>
      <trkpt lat="40.143467" lon="-4.865000">
        <ele>2054.0</ele>
        <time>2013-07-03T12:41:32Z</time>
      </trkpt>
      <trkpt lat="40.143367" lon="-4.864933">
        <ele>2051.0</ele>
        <time>2013-07-03T12:41:33Z</time>
      </trkpt>
      <trkpt lat="40.143267" lon="-4.864883">
        <ele>2047.0</ele>
        <time>2013-07-03T12:41:34Z</time>
      </trkpt>
      <trkpt lat="40.143167" lon="-4.864817">
        <ele>2044.0</ele>
        <time>2013-07-03T12:41:35Z</time>
      </trkpt>
      <trkpt lat="40.143050" lon="-4.864750">
        <ele>2041.0</ele>
        <time>2013-07-03T12:41:36Z</time>
      </trkpt>
      <trkpt lat="40.142950" lon="-4.864700">
        <ele>2038.0</ele>
        <time>2013-07-03T12:41:37Z</time>
      </trkpt>
      <trkpt lat="40.142833" lon="-4.864633">
        <ele>2035.0</ele>
        <time>2013-07-03T12:41:38Z</time>
      </trkpt>
      <trkpt lat="40.142717" lon="-4.864567">
        <ele>2032.0</ele>
        <time>2013-07-03T12:41:39Z</time>
      </trkpt>
      <trkpt lat="40.142600" lon="-4.864483">
        <ele>2029.0</ele>
        <time>2013-07-03T12:41:40Z</time>
      </trkpt>
      <trkpt lat="40.142483" lon="-4.864417">
        <ele>2027.0</ele>
        <time>2013-07-03T12:41:41Z</time>
      </trkpt>
      <trkpt lat="40.142350" lon="-4.864367">
        <ele>2026.0</ele>
        <time>2013-07-03T12:41:42Z</time>
      </trkpt>
      <trkpt lat="40.142217" lon="-4.864333">
        <ele>2025.0</ele>
        <time>2013-07-03T12:41:43Z</time>
      </trkpt>
      <trkpt lat="40.142117" lon="-4.864300">
        <ele>2024.0</ele>
        <time>2013-07-03T12:41:44Z</time>
      </trkpt>
      <trkpt lat="40.142000" lon="-4.864250">
        <ele>2022.0</ele>
        <time>2013-07-03T12:41:45Z</time>
      </trkpt>
      <trkpt lat="40.141917" lon="-4.864200">
        <ele>2019.0</ele>
        <time>2013-07-03T12:41:46Z</time>
      </trkpt>
      <trkpt lat="40.141817" lon="-4.864150">
        <ele>2017.0</ele>
        <time>2013-07-03T12:41:47Z</time>
      </trkpt>
      <trkpt lat="40.141700" lon="-4.864100">
        <ele>2014.0</ele>
        <time>2013-07-03T12:41:48Z</time>
      </trkpt>
      <trkpt lat="40.141600" lon="-4.864033">
        <ele>2012.0</ele>
        <time>2013-07-03T12:41:49Z</time>
      </trkpt>
      <trkpt lat="40.141500" lon="-4.863983">
        <ele>2010.0</ele>
        <time>2013-07-03T12:41:50Z</time>
      </trkpt>
      <trkpt lat="40.141417" lon="-4.863917">
        <ele>2007.0</ele>
        <time>2013-07-03T12:41:51Z</time>
      </trkpt>
      <trkpt lat="40.141317" lon="-4.863850">
        <ele>2005.0</ele>
        <time>2013-07-03T12:41:52Z</time>
      </trkpt>
      <trkpt lat="40.141217" lon="-4.863783">
        <ele>2003.0</ele>
        <time>2013-07-03T12:41:53Z</time>
      </trkpt>
      <trkpt lat="40.141117" lon="-4.863733">
        <ele>2000.0</ele>
        <time>2013-07-03T12:41:54Z</time>
      </trkpt>
      <trkpt lat="40.141017" lon="-4.863683">
        <ele>1998.0</ele>
        <time>2013-07-03T12:41:55Z</time>
      </trkpt>
      <trkpt lat="40.140917" lon="-4.863617">
        <ele>1995.0</ele>
        <time>2013-07-03T12:41:56Z</time>
      </trkpt>
      <trkpt lat="40.140817" lon="-4.863550">
        <ele>1992.0</ele>
        <time>2013-07-03T12:41:57Z</time>
      </trkpt>
      <trkpt lat="40.140717" lon="-4.863483">
        <ele>1990.0</ele>
        <time>2013-07-03T12:41:58Z</time>
      </trkpt>
      <trkpt lat="40.140617" lon="-4.863417">
        <ele>1987.0</ele>
        <time>2013-07-03T12:41:59Z</time>
      </trkpt>
      <trkpt lat="40.140517" lon="-4.863367">
        <ele>1985.0</ele>
        <time>2013-07-03T12:42:00Z</time>
      </trkpt>
      <trkpt lat="40.140417" lon="-4.863317">
        <ele>1981.0</ele>
        <time>2013-07-03T12:42:01Z</time>
      </trkpt>
      <trkpt lat="40.140317" lon="-4.863250">
        <ele>1977.0</ele>
        <time>2013-07-03T12:42:02Z</time>
      </trkpt>
      <trkpt lat="40.140200" lon="-4.863217">
        <ele>1974.0</ele>
        <time>2013-07-03T12:42:03Z</time>
      </trkpt>
      <trkpt lat="40.140083" lon="-4.863150">
        <ele>1971.0</ele>
        <time>2013-07-03T12:42:04Z</time>
      </trkpt>
      <trkpt lat="40.139983" lon="-4.863100">
        <ele>1969.0</ele>
        <time>2013-07-03T12:42:05Z</time>
      </trkpt>
      <trkpt lat="40.139883" lon="-4.863033">
        <ele>1968.0</ele>
        <time>2013-07-03T12:42:06Z</time>
      </trkpt>
      <trkpt lat="40.139800" lon="-4.862967">
        <ele>1967.0</ele>
        <time>2013-07-03T12:42:07Z</time>
      </trkpt>
      <trkpt lat="40.139717" lon="-4.862900">
        <ele>1966.0</ele>
        <time>2013-07-03T12:42:08Z</time>
      </trkpt>
      <trkpt lat="40.139633" lon="-4.862833">
        <ele>1964.0</ele>
        <time>2013-07-03T12:42:09Z</time>
      </trkpt>
      <trkpt lat="40.139533" lon="-4.862767">
        <ele>1962.0</ele>
        <time>2013-07-03T12:42:10Z</time>
      </trkpt>
      <trkpt lat="40.139433" lon="-4.862700">
        <ele>1960.0</ele>
        <time>2013-07-03T12:42:11Z</time>
      </trkpt>
      <trkpt lat="40.139333" lon="-4.862633">
        <ele>1959.0</ele>
        <time>2013-07-03T12:42:12Z</time>
      </trkpt>
      <trkpt lat="40.139233" lon="-4.862550">
        <ele>1958.0</ele>
        <time>2013-07-03T12:42:13Z</time>
      </trkpt>
      <trkpt lat="40.139150" lon="-4.862483">
        <ele>1958.0</ele>
        <time>2013-07-03T12:42:14Z</time>
      </trkpt>
      <trkpt lat="40.139067" lon="-4.862417">
        <ele>1956.0</ele>
        <time>2013-07-03T12:42:15Z</time>
      </trkpt>
      <trkpt lat="40.138967" lon="-4.862367">
        <ele>1955.0</ele>
        <time>2013-07-03T12:42:16Z</time>
      </trkpt>
      <trkpt lat="40.138867" lon="-4.862283">
        <ele>1953.0</ele>
        <time>2013-07-03T12:42:17Z</time>
      </trkpt>
      <trkpt lat="40.138767" lon="-4.862200">
        <ele>1951.0</ele>
        <time>2013-07-03T12:42:18Z</time>
      </trkpt>
      <trkpt lat="40.138683" lon="-4.862117">
        <ele>1949.0</ele>
        <time>2013-07-03T12:42:19Z</time>
      </trkpt>
      <trkpt lat="40.138583" lon="-4.862033">
        <ele>1947.0</ele>
        <time>2013-07-03T12:42:20Z</time>
      </trkpt>
      <trkpt lat="40.138483" lon="-4.861950">
        <ele>1946.0</ele>
        <time>2013-07-03T12:42:21Z</time>
      </trkpt>
      <trkpt lat="40.138383" lon="-4.861867">
        <ele>1945.0</ele>
        <time>2013-07-03T12:42:22Z</time>
      </trkpt>
      <trkpt lat="40.138283" lon="-4.861783">
        <ele>1943.0</ele>
        <time>2013-07-03T12:42:23Z</time>
      </trkpt>
      <trkpt lat="40.138183" lon="-4.861717">
        <ele>1941.0</ele>
        <time>2013-07-03T12:42:24Z</time>
      </trkpt>
      <trkpt lat="40.138067" lon="-4.861633">
        <ele>1940.0</ele>
        <time>2013-07-03T12:42:25Z</time>
      </trkpt>
      <trkpt lat="40.137950" lon="-4.861583">
        <ele>1939.0</ele>
        <time>2013-07-03T12:42:26Z</time>
      </trkpt>
      <trkpt lat="40.137833" lon="-4.861517">
        <ele>1938.0</ele>
        <time>2013-07-03T12:42:27Z</time>
      </trkpt>
      <trkpt lat="40.137733" lon="-4.861467">
        <ele>1938.0</ele>
        <time>2013-07-03T12:42:28Z</time>
      </trkpt>
      <trkpt lat="40.137633" lon="-4.861433">
        <ele>1938.0</ele>
        <time>2013-07-03T12:42:29Z</time>
      </trkpt>
      <trkpt lat="40.137533" lon="-4.861400">
        <ele>1937.0</ele>
        <time>2013-07-03T12:42:30Z</time>
      </trkpt>
      <trkpt lat="40.137433" lon="-4.861350">
        <ele>1935.0</ele>
        <time>2013-07-03T12:42:31Z</time>
      </trkpt>
      <trkpt lat="40.137333" lon="-4.861317">
        <ele>1933.0</ele>
        <time>2013-07-03T12:42:32Z</time>
      </trkpt>
      <trkpt lat="40.137233" lon="-4.861283">
        <ele>1930.0</ele>
        <time>2013-07-03T12:42:33Z</time>
      </trkpt>
      <trkpt lat="40.137133" lon="-4.861217">
        <ele>1926.0</ele>
        <time>2013-07-03T12:42:34Z</time>
      </trkpt>
      <trkpt lat="40.137050" lon="-4.861150">
        <ele>1922.0</ele>
        <time>2013-07-03T12:42:35Z</time>
      </trkpt>
      <trkpt lat="40.136950" lon="-4.861067">
        <ele>1919.0</ele>
        <time>2013-07-03T12:42:36Z</time>
      </trkpt>
      <trkpt lat="40.136850" lon="-4.860967">
        <ele>1915.0</ele>
        <time>2013-07-03T12:42:37Z</time>
      </trkpt>
      <trkpt lat="40.136750" lon="-4.860883">
        <ele>1913.0</ele>
        <time>2013-07-03T12:42:38Z</time>
      </trkpt>
      <trkpt lat="40.136650" lon="-4.860800">
        <ele>1911.0</ele>
        <time>2013-07-03T12:42:39Z</time>
      </trkpt>
      <trkpt lat="40.136567" lon="-4.860700">
        <ele>1909.0</ele>
        <time>2013-07-03T12:42:40Z</time>
      </trkpt>
      <trkpt lat="40.136483" lon="-4.860633">
        <ele>1905.0</ele>
        <time>2013-07-03T12:42:41Z</time>
      </trkpt>
      <trkpt lat="40.136383" lon="-4.860550">
        <ele>1902.0</ele>
        <time>2013-07-03T12:42:42Z</time>
      </trkpt>
      <trkpt lat="40.136283" lon="-4.860483">
        <ele>1898.0</ele>
        <time>2013-07-03T12:42:43Z</time>
      </trkpt>
      <trkpt lat="40.136200" lon="-4.860400">
        <ele>1894.0</ele>
        <time>2013-07-03T12:42:44Z</time>
      </trkpt>
      <trkpt lat="40.136100" lon="-4.860317">
        <ele>1890.0</ele>
        <time>2013-07-03T12:42:45Z</time>
      </trkpt>
      <trkpt lat="40.136017" lon="-4.860217">
        <ele>1886.0</ele>
        <time>2013-07-03T12:42:46Z</time>
      </trkpt>
      <trkpt lat="40.135917" lon="-4.860133">
        <ele>1883.0</ele>
        <time>2013-07-03T12:42:47Z</time>
      </trkpt>
      <trkpt lat="40.135817" lon="-4.860050">
        <ele>1880.0</ele>
        <time>2013-07-03T12:42:48Z</time>
      </trkpt>
      <trkpt lat="40.135717" lon="-4.859967">
        <ele>1877.0</ele>
        <time>2013-07-03T12:42:49Z</time>
      </trkpt>
      <trkpt lat="40.135633" lon="-4.859883">
        <ele>1873.0</ele>
        <time>2013-07-03T12:42:50Z</time>
      </trkpt>
      <trkpt lat="40.135533" lon="-4.859767">
        <ele>1870.0</ele>
        <time>2013-07-03T12:42:51Z</time>
      </trkpt>
      <trkpt lat="40.135433" lon="-4.859650">
        <ele>1869.0</ele>
        <time>2013-07-03T12:42:52Z</time>
      </trkpt>
      <trkpt lat="40.135333" lon="-4.859583">
        <ele>1870.0</ele>
        <time>2013-07-03T12:42:53Z</time>
      </trkpt>
      <trkpt lat="40.135267" lon="-4.859517">
        <ele>1870.0</ele>
        <time>2013-07-03T12:42:54Z</time>
      </trkpt>
      <trkpt lat="40.135183" lon="-4.859450">
        <ele>1869.0</ele>
        <time>2013-07-03T12:42:55Z</time>
      </trkpt>
      <trkpt lat="40.135117" lon="-4.859367">
        <ele>1866.0</ele>
        <time>2013-07-03T12:42:56Z</time>
      </trkpt>
      <trkpt lat="40.135050" lon="-4.859250">
        <ele>1860.0</ele>
        <time>2013-07-03T12:42:57Z</time>
      </trkpt>
      <trkpt lat="40.134967" lon="-4.859117">
        <ele>1856.0</ele>
        <time>2013-07-03T12:42:58Z</time>
      </trkpt>
      <trkpt lat="40.134883" lon="-4.858983">
        <ele>1854.0</ele>
        <time>2013-07-03T12:42:59Z</time>
      </trkpt>
      <trkpt lat="40.134800" lon="-4.858883">
        <ele>1853.0</ele>
        <time>2013-07-03T12:43:00Z</time>
      </trkpt>
      <trkpt lat="40.134733" lon="-4.858800">
        <ele>1852.0</ele>
        <time>2013-07-03T12:43:01Z</time>
      </trkpt>
      <trkpt lat="40.134667" lon="-4.858717">
        <ele>1850.0</ele>
        <time>2013-07-03T12:43:02Z</time>
      </trkpt>
      <trkpt lat="40.134600" lon="-4.858633">
        <ele>1847.0</ele>
        <time>2013-07-03T12:43:03Z</time>
      </trkpt>
      <trkpt lat="40.134517" lon="-4.858550">
        <ele>1843.0</ele>
        <time>2013-07-03T12:43:04Z</time>
      </trkpt>
      <trkpt lat="40.134433" lon="-4.858450">
        <ele>1837.0</ele>
        <time>2013-07-03T12:43:05Z</time>
      </trkpt>
      <trkpt lat="40.134350" lon="-4.858350">
        <ele>1832.0</ele>
        <time>2013-07-03T12:43:06Z</time>
      </trkpt>
      <trkpt lat="40.134267" lon="-4.858250">
        <ele>1828.0</ele>
        <time>2013-07-03T12:43:07Z</time>
      </trkpt>
      <trkpt lat="40.134200" lon="-4.858150">
        <ele>1826.0</ele>
        <time>2013-07-03T12:43:08Z</time>
      </trkpt>
      <trkpt lat="40.134133" lon="-4.858067">
        <ele>1825.0</ele>
        <time>2013-07-03T12:43:09Z</time>
      </trkpt>
      <trkpt lat="40.134067" lon="-4.858000">
        <ele>1823.0</ele>
        <time>2013-07-03T12:43:10Z</time>
      </trkpt>
      <trkpt lat="40.134000" lon="-4.857917">
        <ele>1820.0</ele>
        <time>2013-07-03T12:43:11Z</time>
      </trkpt>
      <trkpt lat="40.133933" lon="-4.857800">
        <ele>1816.0</ele>
        <time>2013-07-03T12:43:12Z</time>
      </trkpt>
      <trkpt lat="40.133867" lon="-4.857683">
        <ele>1813.0</ele>
        <time>2013-07-03T12:43:13Z</time>
      </trkpt>
      <trkpt lat="40.133783" lon="-4.857550">
        <ele>1811.0</ele>
        <time>2013-07-03T12:43:14Z</time>
      </trkpt>
      <trkpt lat="40.133717" lon="-4.857433">
        <ele>1811.0</ele>
        <time>2013-07-03T12:43:15Z</time>
      </trkpt>
      <trkpt lat="40.133650" lon="-4.857333">
        <ele>1811.0</ele>
        <time>2013-07-03T12:43:16Z</time>
      </trkpt>
      <trkpt lat="40.133600" lon="-4.857267">
        <ele>1809.0</ele>
        <time>2013-07-03T12:43:17Z</time>
      </trkpt>
      <trkpt lat="40.133550" lon="-4.857183">
        <ele>1806.0</ele>
        <time>2013-07-03T12:43:18Z</time>
      </trkpt>
      <trkpt lat="40.133500" lon="-4.857100">
        <ele>1802.0</ele>
        <time>2013-07-03T12:43:19Z</time>
      </trkpt>
      <trkpt lat="40.133450" lon="-4.856983">
        <ele>1798.0</ele>
        <time>2013-07-03T12:43:20Z</time>
      </trkpt>
      <trkpt lat="40.133400" lon="-4.856850">
        <ele>1795.0</ele>
        <time>2013-07-03T12:43:21Z</time>
      </trkpt>
      <trkpt lat="40.133367" lon="-4.856733">
        <ele>1795.0</ele>
        <time>2013-07-03T12:43:22Z</time>
      </trkpt>
      <trkpt lat="40.133317" lon="-4.856633">
        <ele>1794.0</ele>
        <time>2013-07-03T12:43:23Z</time>
      </trkpt>
      <trkpt lat="40.133267" lon="-4.856567">
        <ele>1793.0</ele>
        <time>2013-07-03T12:43:24Z</time>
      </trkpt>
      <trkpt lat="40.133217" lon="-4.856483">
        <ele>1792.0</ele>
        <time>2013-07-03T12:43:25Z</time>
      </trkpt>
      <trkpt lat="40.133183" lon="-4.856400">
        <ele>1789.0</ele>
        <time>2013-07-03T12:43:26Z</time>
      </trkpt>
      <trkpt lat="40.133133" lon="-4.856283">
        <ele>1786.0</ele>
        <time>2013-07-03T12:43:27Z</time>
      </trkpt>
      <trkpt lat="40.133083" lon="-4.856183">
        <ele>1784.0</ele>
        <time>2013-07-03T12:43:28Z</time>
      </trkpt>
      <trkpt lat="40.133000" lon="-4.856083">
        <ele>1782.0</ele>
        <time>2013-07-03T12:43:29Z</time>
      </trkpt>
      <trkpt lat="40.132933" lon="-4.856000">
        <ele>1781.0</ele>
        <time>2013-07-03T12:43:30Z</time>
      </trkpt>
      <trkpt lat="40.132867" lon="-4.855917">
        <ele>1780.0</ele>
        <time>2013-07-03T12:43:31Z</time>
      </trkpt>
      <trkpt lat="40.132800" lon="-4.855850">
        <ele>1777.0</ele>
        <time>2013-07-03T12:43:32Z</time>
      </trkpt>
      <trkpt lat="40.132717" lon="-4.855767">
        <ele>1774.0</ele>
        <time>2013-07-03T12:43:33Z</time>
      </trkpt>
      <trkpt lat="40.132633" lon="-4.855667">
        <ele>1772.0</ele>
        <time>2013-07-03T12:43:34Z</time>
      </trkpt>
      <trkpt lat="40.132550" lon="-4.855583">
        <ele>1770.0</ele>
        <time>2013-07-03T12:43:35Z</time>
      </trkpt>
      <trkpt lat="40.132483" lon="-4.855483">
        <ele>1769.0</ele>
        <time>2013-07-03T12:43:36Z</time>
      </trkpt>
      <trkpt lat="40.132400" lon="-4.855383">
        <ele>1769.0</ele>
        <time>2013-07-03T12:43:37Z</time>
      </trkpt>
      <trkpt lat="40.132300" lon="-4.855283">
        <ele>1770.0</ele>
        <time>2013-07-03T12:43:38Z</time>
      </trkpt>
      <trkpt lat="40.132183" lon="-4.855200">
        <ele>1772.0</ele>
        <time>2013-07-03T12:43:39Z</time>
      </trkpt>
      <trkpt lat="40.132083" lon="-4.855100">
        <ele>1775.0</ele>
        <time>2013-07-03T12:43:40Z</time>
      </trkpt>
      <trkpt lat="40.131967" lon="-4.855017">
        <ele>1780.0</ele>
        <time>2013-07-03T12:43:41Z</time>
      </trkpt>
      <trkpt lat="40.131883" lon="-4.855000">
        <ele>1786.0</ele>
        <time>2013-07-03T12:43:42Z</time>
      </trkpt>
      <trkpt lat="40.131817" lon="-4.854967">
        <ele>1793.0</ele>
        <time>2013-07-03T12:43:43Z</time>
      </trkpt>
      <trkpt lat="40.131750" lon="-4.854967">
        <ele>1800.0</ele>
        <time>2013-07-03T12:43:44Z</time>
      </trkpt>
      <trkpt lat="40.131700" lon="-4.854967">
        <ele>1804.0</ele>
        <time>2013-07-03T12:43:45Z</time>
      </trkpt>
      <trkpt lat="40.131633" lon="-4.854933">
        <ele>1807.0</ele>
        <time>2013-07-03T12:43:46Z</time>
      </trkpt>
      <trkpt lat="40.131567" lon="-4.854883">
        <ele>1810.0</ele>
        <time>2013-07-03T12:43:47Z</time>
      </trkpt>
      <trkpt lat="40.131500" lon="-4.854833">
        <ele>1813.0</ele>
        <time>2013-07-03T12:43:48Z</time>
      </trkpt>
      <trkpt lat="40.131450" lon="-4.854783">
        <ele>1817.0</ele>
        <time>2013-07-03T12:43:49Z</time>
      </trkpt>
      <trkpt lat="40.131417" lon="-4.854717">
        <ele>1819.0</ele>
        <time>2013-07-03T12:43:50Z</time>
      </trkpt>
      <trkpt lat="40.131400" lon="-4.854633">
        <ele>1819.0</ele>
        <time>2013-07-03T12:43:51Z</time>
      </trkpt>
      <trkpt lat="40.131417" lon="-4.854533">
        <ele>1818.0</ele>
        <time>2013-07-03T12:43:52Z</time>
      </trkpt>
      <trkpt lat="40.131433" lon="-4.854400">
        <ele>1818.0</ele>
        <time>2013-07-03T12:43:53Z</time>
      </trkpt>
      <trkpt lat="40.131467" lon="-4.854283">
        <ele>1818.0</ele>
        <time>2013-07-03T12:43:54Z</time>
      </trkpt>
      <trkpt lat="40.131533" lon="-4.854167">
        <ele>1821.0</ele>
        <time>2013-07-03T12:43:55Z</time>
      </trkpt>
      <trkpt lat="40.131600" lon="-4.854067">
        <ele>1822.0</ele>
        <time>2013-07-03T12:43:56Z</time>
      </trkpt>
      <trkpt lat="40.131667" lon="-4.854000">
        <ele>1824.0</ele>
        <time>2013-07-03T12:43:57Z</time>
      </trkpt>
      <trkpt lat="40.131750" lon="-4.853950">
        <ele>1826.0</ele>
        <time>2013-07-03T12:43:58Z</time>
      </trkpt>
      <trkpt lat="40.131833" lon="-4.853917">
        <ele>1827.0</ele>
        <time>2013-07-03T12:43:59Z</time>
      </trkpt>
      <trkpt lat="40.131917" lon="-4.853900">
        <ele>1827.0</ele>
        <time>2013-07-03T12:44:00Z</time>
      </trkpt>
      <trkpt lat="40.132000" lon="-4.853900">
        <ele>1828.0</ele>
        <time>2013-07-03T12:44:01Z</time>
      </trkpt>
      <trkpt lat="40.132083" lon="-4.853933">
        <ele>1828.0</ele>
        <time>2013-07-03T12:44:02Z</time>
      </trkpt>
      <trkpt lat="40.132167" lon="-4.853983">
        <ele>1830.0</ele>
        <time>2013-07-03T12:44:03Z</time>
      </trkpt>
      <trkpt lat="40.132250" lon="-4.854050">
        <ele>1831.0</ele>
        <time>2013-07-03T12:44:04Z</time>
      </trkpt>
      <trkpt lat="40.132317" lon="-4.854117">
        <ele>1833.0</ele>
        <time>2013-07-03T12:44:05Z</time>
      </trkpt>
      <trkpt lat="40.132400" lon="-4.854167">
        <ele>1834.0</ele>
        <time>2013-07-03T12:44:06Z</time>
      </trkpt>
      <trkpt lat="40.132467" lon="-4.854233">
        <ele>1836.0</ele>
        <time>2013-07-03T12:44:07Z</time>
      </trkpt>
      <trkpt lat="40.132533" lon="-4.854317">
        <ele>1839.0</ele>
        <time>2013-07-03T12:44:08Z</time>
      </trkpt>
      <trkpt lat="40.132583" lon="-4.854400">
        <ele>1843.0</ele>
        <time>2013-07-03T12:44:09Z</time>
      </trkpt>
      <trkpt lat="40.132600" lon="-4.854483">
        <ele>1849.0</ele>
        <time>2013-07-03T12:44:10Z</time>
      </trkpt>
      <trkpt lat="40.132617" lon="-4.854550">
        <ele>1854.0</ele>
        <time>2013-07-03T12:44:11Z</time>
      </trkpt>
      <trkpt lat="40.132617" lon="-4.854583">
        <ele>1860.0</ele>
        <time>2013-07-03T12:44:12Z</time>
      </trkpt>
      <trkpt lat="40.132600" lon="-4.854633">
        <ele>1862.0</ele>
        <time>2013-07-03T12:44:13Z</time>
      </trkpt>
      <trkpt lat="40.132583" lon="-4.854700">
        <ele>1864.0</ele>
        <time>2013-07-03T12:44:14Z</time>
      </trkpt>
      <trkpt lat="40.132533" lon="-4.854800">
        <ele>1866.0</ele>
        <time>2013-07-03T12:44:15Z</time>
      </trkpt>
      <trkpt lat="40.132450" lon="-4.854883">
        <ele>1869.0</ele>
        <time>2013-07-03T12:44:16Z</time>
      </trkpt>
      <trkpt lat="40.132350" lon="-4.854917">
        <ele>1872.0</ele>
        <time>2013-07-03T12:44:17Z</time>
      </trkpt>
      <trkpt lat="40.132283" lon="-4.854883">
        <ele>1876.0</ele>
        <time>2013-07-03T12:44:18Z</time>
      </trkpt>
      <trkpt lat="40.132250" lon="-4.854800">
        <ele>1880.0</ele>
        <time>2013-07-03T12:44:19Z</time>
      </trkpt>
      <trkpt lat="40.132250" lon="-4.854717">
        <ele>1884.0</ele>
        <time>2013-07-03T12:44:20Z</time>
      </trkpt>
      <trkpt lat="40.132283" lon="-4.854650">
        <ele>1888.0</ele>
        <time>2013-07-03T12:44:21Z</time>
      </trkpt>
      <trkpt lat="40.132333" lon="-4.854600">
        <ele>1893.0</ele>
        <time>2013-07-03T12:44:22Z</time>
      </trkpt>
      <trkpt lat="40.132417" lon="-4.854567">
        <ele>1898.0</ele>
        <time>2013-07-03T12:44:23Z</time>
      </trkpt>
      <trkpt lat="40.132500" lon="-4.854567">
        <ele>1902.0</ele>
        <time>2013-07-03T12:44:24Z</time>
      </trkpt>
      <trkpt lat="40.132583" lon="-4.854633">
        <ele>1906.0</ele>
        <time>2013-07-03T12:44:25Z</time>
      </trkpt>
      <trkpt lat="40.132617" lon="-4.854733">
        <ele>1910.0</ele>
        <time>2013-07-03T12:44:26Z</time>
      </trkpt>
      <trkpt lat="40.132633" lon="-4.854867">
        <ele>1913.0</ele>
        <time>2013-07-03T12:44:27Z</time>
      </trkpt>
      <trkpt lat="40.132583" lon="-4.855000">
        <ele>1916.0</ele>
        <time>2013-07-03T12:44:28Z</time>
      </trkpt>
      <trkpt lat="40.132517" lon="-4.855083">
        <ele>1918.0</ele>
        <time>2013-07-03T12:44:29Z</time>
      </trkpt>
      <trkpt lat="40.132417" lon="-4.855133">
        <ele>1921.0</ele>
        <time>2013-07-03T12:44:30Z</time>
      </trkpt>
      <trkpt lat="40.132333" lon="-4.855150">
        <ele>1923.0</ele>
        <time>2013-07-03T12:44:31Z</time>
      </trkpt>
      <trkpt lat="40.132250" lon="-4.855133">
        <ele>1925.0</ele>
        <time>2013-07-03T12:44:32Z</time>
      </trkpt>
      <trkpt lat="40.132200" lon="-4.855083">
        <ele>1927.0</ele>
        <time>2013-07-03T12:44:33Z</time>
      </trkpt>
      <trkpt lat="40.132150" lon="-4.855050">
        <ele>1929.0</ele>
        <time>2013-07-03T12:44:34Z</time>
      </trkpt>
      <trkpt lat="40.132117" lon="-4.855000">
        <ele>1932.0</ele>
        <time>2013-07-03T12:44:35Z</time>
      </trkpt>
      <trkpt lat="40.132083" lon="-4.854950">
        <ele>1934.0</ele>
        <time>2013-07-03T12:44:36Z</time>
      </trkpt>
      <trkpt lat="40.132067" lon="-4.854883">
        <ele>1935.0</ele>
        <time>2013-07-03T12:44:37Z</time>
      </trkpt>
      <trkpt lat="40.132067" lon="-4.854817">
        <ele>1936.0</ele>
        <time>2013-07-03T12:44:38Z</time>
      </trkpt>
      <trkpt lat="40.132083" lon="-4.854717">
        <ele>1938.0</ele>
        <time>2013-07-03T12:44:39Z</time>
      </trkpt>
      <trkpt lat="40.132100" lon="-4.854617">
        <ele>1941.0</ele>
        <time>2013-07-03T12:44:40Z</time>
      </trkpt>
      <trkpt lat="40.132133" lon="-4.854533">
        <ele>1945.0</ele>
        <time>2013-07-03T12:44:41Z</time>
      </trkpt>
      <trkpt lat="40.132167" lon="-4.854467">
        <ele>1949.0</ele>
        <time>2013-07-03T12:44:42Z</time>
      </trkpt>
      <trkpt lat="40.132217" lon="-4.854400">
        <ele>1953.0</ele>
        <time>2013-07-03T12:44:43Z</time>
      </trkpt>
      <trkpt lat="40.132267" lon="-4.854367">
        <ele>1957.0</ele>
        <time>2013-07-03T12:44:44Z</time>
      </trkpt>
      <trkpt lat="40.132317" lon="-4.854333">
        <ele>1961.0</ele>
        <time>2013-07-03T12:44:45Z</time>
      </trkpt>
      <trkpt lat="40.132383" lon="-4.854317">
        <ele>1963.0</ele>
        <time>2013-07-03T12:44:46Z</time>
      </trkpt>
      <trkpt lat="40.132483" lon="-4.854350">
        <ele>1965.0</ele>
        <time>2013-07-03T12:44:47Z</time>
      </trkpt>
      <trkpt lat="40.132567" lon="-4.854433">
        <ele>1966.0</ele>
        <time>2013-07-03T12:44:48Z</time>
      </trkpt>
      <trkpt lat="40.132617" lon="-4.854567">
        <ele>1968.0</ele>
        <time>2013-07-03T12:44:49Z</time>
      </trkpt>
      <trkpt lat="40.132650" lon="-4.854700">
        <ele>1973.0</ele>
        <time>2013-07-03T12:44:50Z</time>
      </trkpt>
      <trkpt lat="40.132650" lon="-4.854800">
        <ele>1977.0</ele>
        <time>2013-07-03T12:44:51Z</time>
      </trkpt>
      <trkpt lat="40.132650" lon="-4.854900">
        <ele>1980.0</ele>
        <time>2013-07-03T12:44:52Z</time>
      </trkpt>
      <trkpt lat="40.132617" lon="-4.854983">
        <ele>1981.0</ele>
        <time>2013-07-03T12:44:53Z</time>
      </trkpt>
      <trkpt lat="40.132567" lon="-4.855083">
        <ele>1980.0</ele>
        <time>2013-07-03T12:44:54Z</time>
      </trkpt>
      <trkpt lat="40.132500" lon="-4.855183">
        <ele>1979.0</ele>
        <time>2013-07-03T12:44:55Z</time>
      </trkpt>
      <trkpt lat="40.132417" lon="-4.855283">
        <ele>1979.0</ele>
        <time>2013-07-03T12:44:56Z</time>
      </trkpt>
      <trkpt lat="40.132333" lon="-4.855350">
        <ele>1980.0</ele>
        <time>2013-07-03T12:44:57Z</time>
      </trkpt>
      <trkpt lat="40.132267" lon="-4.855400">
        <ele>1982.0</ele>
        <time>2013-07-03T12:44:58Z</time>
      </trkpt>
      <trkpt lat="40.132183" lon="-4.855417">
        <ele>1985.0</ele>
        <time>2013-07-03T12:44:59Z</time>
      </trkpt>
      <trkpt lat="40.132133" lon="-4.855417">
        <ele>1987.0</ele>
        <time>2013-07-03T12:45:00Z</time>
      </trkpt>
      <trkpt lat="40.132083" lon="-4.855417">
        <ele>1988.0</ele>
        <time>2013-07-03T12:45:01Z</time>
      </trkpt>
      <trkpt lat="40.132033" lon="-4.855383">
        <ele>1989.0</ele>
        <time>2013-07-03T12:45:02Z</time>
      </trkpt>
      <trkpt lat="40.131983" lon="-4.855350">
        <ele>1991.0</ele>
        <time>2013-07-03T12:45:03Z</time>
      </trkpt>
      <trkpt lat="40.131900" lon="-4.855283">
        <ele>1990.0</ele>
        <time>2013-07-03T12:45:04Z</time>
      </trkpt>
      <trkpt lat="40.131833" lon="-4.855217">
        <ele>1991.0</ele>
        <time>2013-07-03T12:45:05Z</time>
      </trkpt>
      <trkpt lat="40.131783" lon="-4.855133">
        <ele>1993.0</ele>
        <time>2013-07-03T12:45:06Z</time>
      </trkpt>
      <trkpt lat="40.131767" lon="-4.855033">
        <ele>1994.0</ele>
        <time>2013-07-03T12:45:07Z</time>
      </trkpt>
      <trkpt lat="40.131750" lon="-4.854933">
        <ele>1995.0</ele>
        <time>2013-07-03T12:45:08Z</time>
      </trkpt>
      <trkpt lat="40.131767" lon="-4.854817">
        <ele>1996.0</ele>
        <time>2013-07-03T12:45:09Z</time>
      </trkpt>
      <trkpt lat="40.131767" lon="-4.854700">
        <ele>1996.0</ele>
        <time>2013-07-03T12:45:10Z</time>
      </trkpt>
      <trkpt lat="40.131733" lon="-4.854583">
        <ele>1998.0</ele>
        <time>2013-07-03T12:45:11Z</time>
      </trkpt>
      <trkpt lat="40.131683" lon="-4.854483">
        <ele>2000.0</ele>
        <time>2013-07-03T12:45:12Z</time>
      </trkpt>
      <trkpt lat="40.131633" lon="-4.854433">
        <ele>2004.0</ele>
        <time>2013-07-03T12:45:13Z</time>
      </trkpt>
      <trkpt lat="40.131567" lon="-4.854417">
        <ele>2007.0</ele>
        <time>2013-07-03T12:45:14Z</time>
      </trkpt>
      <trkpt lat="40.131500" lon="-4.854383">
        <ele>2011.0</ele>
        <time>2013-07-03T12:45:15Z</time>
      </trkpt>
      <trkpt lat="40.131450" lon="-4.854333">
        <ele>2014.0</ele>
        <time>2013-07-03T12:45:16Z</time>
      </trkpt>
      <trkpt lat="40.131383" lon="-4.854283">
        <ele>2018.0</ele>
        <time>2013-07-03T12:45:17Z</time>
      </trkpt>
      <trkpt lat="40.131333" lon="-4.854200">
        <ele>2022.0</ele>
        <time>2013-07-03T12:45:18Z</time>
      </trkpt>
      <trkpt lat="40.131300" lon="-4.854100">
        <ele>2026.0</ele>
        <time>2013-07-03T12:45:19Z</time>
      </trkpt>
      <trkpt lat="40.131283" lon="-4.853967">
        <ele>2030.0</ele>
        <time>2013-07-03T12:45:20Z</time>
      </trkpt>
      <trkpt lat="40.131283" lon="-4.853850">
        <ele>2035.0</ele>
        <time>2013-07-03T12:45:21Z</time>
      </trkpt>
      <trkpt lat="40.131317" lon="-4.853750">
        <ele>2040.0</ele>
        <time>2013-07-03T12:45:22Z</time>
      </trkpt>
      <trkpt lat="40.131367" lon="-4.853667">
        <ele>2044.0</ele>
        <time>2013-07-03T12:45:23Z</time>
      </trkpt>
      <trkpt lat="40.131433" lon="-4.853633">
        <ele>2046.0</ele>
        <time>2013-07-03T12:45:24Z</time>
      </trkpt>
      <trkpt lat="40.131500" lon="-4.853617">
        <ele>2049.0</ele>
        <time>2013-07-03T12:45:25Z</time>
      </trkpt>
      <trkpt lat="40.131567" lon="-4.853650">
        <ele>2051.0</ele>
        <time>2013-07-03T12:45:26Z</time>
      </trkpt>
      <trkpt lat="40.131633" lon="-4.853717">
        <ele>2053.0</ele>
        <time>2013-07-03T12:45:27Z</time>
      </trkpt>
      <trkpt lat="40.131650" lon="-4.853817">
        <ele>2056.0</ele>
        <time>2013-07-03T12:45:28Z</time>
      </trkpt>
      <trkpt lat="40.131667" lon="-4.853917">
        <ele>2058.0</ele>
        <time>2013-07-03T12:45:29Z</time>
      </trkpt>
      <trkpt lat="40.131650" lon="-4.854017">
        <ele>2060.0</ele>
        <time>2013-07-03T12:45:30Z</time>
      </trkpt>
      <trkpt lat="40.131633" lon="-4.854083">
        <ele>2063.0</ele>
        <time>2013-07-03T12:45:31Z</time>
      </trkpt>
      <trkpt lat="40.131567" lon="-4.854133">
        <ele>2065.0</ele>
        <time>2013-07-03T12:45:32Z</time>
      </trkpt>
      <trkpt lat="40.131500" lon="-4.854167">
        <ele>2068.0</ele>
        <time>2013-07-03T12:45:33Z</time>
      </trkpt>
      <trkpt lat="40.131433" lon="-4.854183">
        <ele>2072.0</ele>
        <time>2013-07-03T12:45:34Z</time>
      </trkpt>
      <trkpt lat="40.131383" lon="-4.854183">
        <ele>2077.0</ele>
        <time>2013-07-03T12:45:35Z</time>
      </trkpt>
      <trkpt lat="40.131333" lon="-4.854200">
        <ele>2081.0</ele>
        <time>2013-07-03T12:45:36Z</time>
      </trkpt>
      <trkpt lat="40.131283" lon="-4.854217">
        <ele>2085.0</ele>
        <time>2013-07-03T12:45:37Z</time>
      </trkpt>
      <trkpt lat="40.131217" lon="-4.854200">
        <ele>2087.0</ele>
        <time>2013-07-03T12:45:38Z</time>
      </trkpt>
      <trkpt lat="40.131150" lon="-4.854167">
        <ele>2089.0</ele>
        <time>2013-07-03T12:45:39Z</time>
      </trkpt>
      <trkpt lat="40.131067" lon="-4.854100">
        <ele>2092.0</ele>
        <time>2013-07-03T12:45:40Z</time>
      </trkpt>
      <trkpt lat="40.131033" lon="-4.853983">
        <ele>2096.0</ele>
        <time>2013-07-03T12:45:41Z</time>
      </trkpt>
      <trkpt lat="40.131033" lon="-4.853867">
        <ele>2098.0</ele>
        <time>2013-07-03T12:45:42Z</time>
      </trkpt>
      <trkpt lat="40.131067" lon="-4.853750">
        <ele>2101.0</ele>
        <time>2013-07-03T12:45:43Z</time>
      </trkpt>
      <trkpt lat="40.131133" lon="-4.853667">
        <ele>2105.0</ele>
        <time>2013-07-03T12:45:44Z</time>
      </trkpt>
      <trkpt lat="40.131200" lon="-4.853617">
        <ele>2109.0</ele>
        <time>2013-07-03T12:45:45Z</time>
      </trkpt>
      <trkpt lat="40.131250" lon="-4.853600">
        <ele>2113.0</ele>
        <time>2013-07-03T12:45:46Z</time>
      </trkpt>
      <trkpt lat="40.131317" lon="-4.853600">
        <ele>2115.0</ele>
        <time>2013-07-03T12:45:47Z</time>
      </trkpt>
      <trkpt lat="40.131383" lon="-4.853600">
        <ele>2117.0</ele>
        <time>2013-07-03T12:45:48Z</time>
      </trkpt>
      <trkpt lat="40.131450" lon="-4.853617">
        <ele>2120.0</ele>
        <time>2013-07-03T12:45:49Z</time>
      </trkpt>
      <trkpt lat="40.131517" lon="-4.853650">
        <ele>2122.0</ele>
        <time>2013-07-03T12:45:50Z</time>
      </trkpt>
      <trkpt lat="40.131567" lon="-4.853717">
        <ele>2124.0</ele>
        <time>2013-07-03T12:45:51Z</time>
      </trkpt>
      <trkpt lat="40.131583" lon="-4.853833">
        <ele>2125.0</ele>
        <time>2013-07-03T12:45:52Z</time>
      </trkpt>
      <trkpt lat="40.131567" lon="-4.853950">
        <ele>2125.0</ele>
        <time>2013-07-03T12:45:53Z</time>
      </trkpt>
      <trkpt lat="40.131517" lon="-4.854050">
        <ele>2125.0</ele>
        <time>2013-07-03T12:45:54Z</time>
      </trkpt>
      <trkpt lat="40.131467" lon="-4.854133">
        <ele>2126.0</ele>
        <time>2013-07-03T12:45:55Z</time>
      </trkpt>
      <trkpt lat="40.131400" lon="-4.854217">
        <ele>2128.0</ele>
        <time>2013-07-03T12:45:56Z</time>
      </trkpt>
      <trkpt lat="40.131333" lon="-4.854283">
        <ele>2133.0</ele>
        <time>2013-07-03T12:45:57Z</time>
      </trkpt>
      <trkpt lat="40.131283" lon="-4.854333">
        <ele>2138.0</ele>
        <time>2013-07-03T12:45:58Z</time>
      </trkpt>
      <trkpt lat="40.131233" lon="-4.854350">
        <ele>2142.0</ele>
        <time>2013-07-03T12:45:59Z</time>
      </trkpt>
      <trkpt lat="40.131167" lon="-4.854350">
        <ele>2146.0</ele>
        <time>2013-07-03T12:46:00Z</time>
      </trkpt>
      <trkpt lat="40.131100" lon="-4.854333">
        <ele>2148.0</ele>
        <time>2013-07-03T12:46:01Z</time>
      </trkpt>
      <trkpt lat="40.131017" lon="-4.854300">
        <ele>2150.0</ele>
        <time>2013-07-03T12:46:02Z</time>
      </trkpt>
      <trkpt lat="40.130933" lon="-4.854233">
        <ele>2154.0</ele>
        <time>2013-07-03T12:46:03Z</time>
      </trkpt>
      <trkpt lat="40.130883" lon="-4.854150">
        <ele>2157.0</ele>
        <time>2013-07-03T12:46:04Z</time>
      </trkpt>
      <trkpt lat="40.130833" lon="-4.854050">
        <ele>2160.0</ele>
        <time>2013-07-03T12:46:05Z</time>
      </trkpt>
      <trkpt lat="40.130800" lon="-4.853933">
        <ele>2163.0</ele>
        <time>2013-07-03T12:46:06Z</time>
      </trkpt>
      <trkpt lat="40.130783" lon="-4.853817">
        <ele>2165.0</ele>
        <time>2013-07-03T12:46:07Z</time>
      </trkpt>
      <trkpt lat="40.130800" lon="-4.853700">
        <ele>2168.0</ele>
        <time>2013-07-03T12:46:08Z</time>
      </trkpt>
      <trkpt lat="40.130850" lon="-4.853633">
        <ele>2171.0</ele>
        <time>2013-07-03T12:46:09Z</time>
      </trkpt>
      <trkpt lat="40.130917" lon="-4.853600">
        <ele>2173.0</ele>
        <time>2013-07-03T12:46:10Z</time>
      </trkpt>
      <trkpt lat="40.131000" lon="-4.853617">
        <ele>2174.0</ele>
        <time>2013-07-03T12:46:11Z</time>
      </trkpt>
      <trkpt lat="40.131067" lon="-4.853667">
        <ele>2176.0</ele>
        <time>2013-07-03T12:46:12Z</time>
      </trkpt>
      <trkpt lat="40.131117" lon="-4.853767">
        <ele>2178.0</ele>
        <time>2013-07-03T12:46:13Z</time>
      </trkpt>
      <trkpt lat="40.131133" lon="-4.853867">
        <ele>2182.0</ele>
        <time>2013-07-03T12:46:14Z</time>
      </trkpt>
      <trkpt lat="40.131150" lon="-4.853967">
        <ele>2185.0</ele>
        <time>2013-07-03T12:46:15Z</time>
      </trkpt>
      <trkpt lat="40.131133" lon="-4.854050">
        <ele>2188.0</ele>
        <time>2013-07-03T12:46:16Z</time>
      </trkpt>
      <trkpt lat="40.131100" lon="-4.854133">
        <ele>2191.0</ele>
        <time>2013-07-03T12:46:17Z</time>
      </trkpt>
      <trkpt lat="40.131050" lon="-4.854217">
        <ele>2194.0</ele>
        <time>2013-07-03T12:46:18Z</time>
      </trkpt>
      <trkpt lat="40.130983" lon="-4.854267">
        <ele>2197.0</ele>
        <time>2013-07-03T12:46:19Z</time>
      </trkpt>
      <trkpt lat="40.130917" lon="-4.854267">
        <ele>2200.0</ele>
        <time>2013-07-03T12:46:20Z</time>
      </trkpt>
      <trkpt lat="40.130833" lon="-4.854233">
        <ele>2202.0</ele>
        <time>2013-07-03T12:46:21Z</time>
      </trkpt>
      <trkpt lat="40.130767" lon="-4.854183">
        <ele>2204.0</ele>
        <time>2013-07-03T12:46:22Z</time>
      </trkpt>
      <trkpt lat="40.130700" lon="-4.854117">
        <ele>2207.0</ele>
        <time>2013-07-03T12:46:23Z</time>
      </trkpt>
      <trkpt lat="40.130633" lon="-4.854067">
        <ele>2210.0</ele>
        <time>2013-07-03T12:46:24Z</time>
      </trkpt>
      <trkpt lat="40.130583" lon="-4.853983">
        <ele>2213.0</ele>
        <time>2013-07-03T12:46:25Z</time>
      </trkpt>
      <trkpt lat="40.130533" lon="-4.853883">
        <ele>2215.0</ele>
        <time>2013-07-03T12:46:26Z</time>
      </trkpt>
      <trkpt lat="40.130500" lon="-4.853783">
        <ele>2217.0</ele>
        <time>2013-07-03T12:46:27Z</time>
      </trkpt>
      <trkpt lat="40.130467" lon="-4.853683">
        <ele>2220.0</ele>
        <time>2013-07-03T12:46:28Z</time>
      </trkpt>
      <trkpt lat="40.130467" lon="-4.853583">
        <ele>2223.0</ele>
        <time>2013-07-03T12:46:29Z</time>
      </trkpt>
      <trkpt lat="40.130467" lon="-4.853500">
        <ele>2225.0</ele>
        <time>2013-07-03T12:46:30Z</time>
      </trkpt>
      <trkpt lat="40.130483" lon="-4.853400">
        <ele>2227.0</ele>
        <time>2013-07-03T12:46:31Z</time>
      </trkpt>
      <trkpt lat="40.130517" lon="-4.853333">
        <ele>2229.0</ele>
        <time>2013-07-03T12:46:32Z</time>
      </trkpt>
      <trkpt lat="40.130567" lon="-4.853283">
        <ele>2231.0</ele>
        <time>2013-07-03T12:46:33Z</time>
      </trkpt>
      <trkpt lat="40.130617" lon="-4.853233">
        <ele>2232.0</ele>
        <time>2013-07-03T12:46:34Z</time>
      </trkpt>
      <trkpt lat="40.130667" lon="-4.853217">
        <ele>2232.0</ele>
        <time>2013-07-03T12:46:35Z</time>
      </trkpt>
      <trkpt lat="40.130733" lon="-4.853233">
        <ele>2234.0</ele>
        <time>2013-07-03T12:46:36Z</time>
      </trkpt>
      <trkpt lat="40.130800" lon="-4.853283">
        <ele>2235.0</ele>
        <time>2013-07-03T12:46:37Z</time>
      </trkpt>
      <trkpt lat="40.130850" lon="-4.853333">
        <ele>2238.0</ele>
        <time>2013-07-03T12:46:38Z</time>
      </trkpt>
      <trkpt lat="40.130883" lon="-4.853417">
        <ele>2241.0</ele>
        <time>2013-07-03T12:46:39Z</time>
      </trkpt>
      <trkpt lat="40.130900" lon="-4.853483">
        <ele>2244.0</ele>
        <time>2013-07-03T12:46:40Z</time>
      </trkpt>
      <trkpt lat="40.130917" lon="-4.853567">
        <ele>2247.0</ele>
        <time>2013-07-03T12:46:41Z</time>
      </trkpt>
      <trkpt lat="40.130917" lon="-4.853667">
        <ele>2249.0</ele>
        <time>2013-07-03T12:46:42Z</time>
      </trkpt>
      <trkpt lat="40.130900" lon="-4.853767">
        <ele>2250.0</ele>
        <time>2013-07-03T12:46:43Z</time>
      </trkpt>
      <trkpt lat="40.130867" lon="-4.853867">
        <ele>2251.0</ele>
        <time>2013-07-03T12:46:44Z</time>
      </trkpt>
      <trkpt lat="40.130800" lon="-4.853967">
        <ele>2253.0</ele>
        <time>2013-07-03T12:46:45Z</time>
      </trkpt>
      <trkpt lat="40.130717" lon="-4.854050">
        <ele>2254.0</ele>
        <time>2013-07-03T12:46:46Z</time>
      </trkpt>
      <trkpt lat="40.130633" lon="-4.854083">
        <ele>2257.0</ele>
        <time>2013-07-03T12:46:47Z</time>
      </trkpt>
      <trkpt lat="40.130550" lon="-4.854083">
        <ele>2259.0</ele>
        <time>2013-07-03T12:46:48Z</time>
      </trkpt>
      <trkpt lat="40.130467" lon="-4.854067">
        <ele>2261.0</ele>
        <time>2013-07-03T12:46:49Z</time>
      </trkpt>
      <trkpt lat="40.130383" lon="-4.854067">
        <ele>2265.0</ele>
        <time>2013-07-03T12:46:50Z</time>
      </trkpt>
      <trkpt lat="40.130300" lon="-4.854067">
        <ele>2267.0</ele>
        <time>2013-07-03T12:46:51Z</time>
      </trkpt>
      <trkpt lat="40.130217" lon="-4.854050">
        <ele>2269.0</ele>
        <time>2013-07-03T12:46:52Z</time>
      </trkpt>
      <trkpt lat="40.130150" lon="-4.854000">
        <ele>2271.0</ele>
        <time>2013-07-03T12:46:53Z</time>
      </trkpt>
      <trkpt lat="40.130067" lon="-4.853933">
        <ele>2272.0</ele>
        <time>2013-07-03T12:46:54Z</time>
      </trkpt>
      <trkpt lat="40.130000" lon="-4.853850">
        <ele>2274.0</ele>
        <time>2013-07-03T12:46:55Z</time>
      </trkpt>
      <trkpt lat="40.129967" lon="-4.853767">
        <ele>2276.0</ele>
        <time>2013-07-03T12:46:56Z</time>
      </trkpt>
      <trkpt lat="40.129950" lon="-4.853667">
        <ele>2278.0</ele>
        <time>2013-07-03T12:46:57Z</time>
      </trkpt>
      <trkpt lat="40.129950" lon="-4.853583">
        <ele>2279.0</ele>
        <time>2013-07-03T12:46:58Z</time>
      </trkpt>
      <trkpt lat="40.129950" lon="-4.853500">
        <ele>2281.0</ele>
        <time>2013-07-03T12:46:59Z</time>
      </trkpt>
      <trkpt lat="40.129967" lon="-4.853433">
        <ele>2282.0</ele>
        <time>2013-07-03T12:47:00Z</time>
      </trkpt>
      <trkpt lat="40.129983" lon="-4.853367">
        <ele>2284.0</ele>
        <time>2013-07-03T12:47:01Z</time>
      </trkpt>
      <trkpt lat="40.130017" lon="-4.853317">
        <ele>2285.0</ele>
        <time>2013-07-03T12:47:02Z</time>
      </trkpt>
      <trkpt lat="40.130067" lon="-4.853300">
        <ele>2287.0</ele>
        <time>2013-07-03T12:47:03Z</time>
      </trkpt>
      <trkpt lat="40.130117" lon="-4.853333">
        <ele>2287.0</ele>
        <time>2013-07-03T12:47:04Z</time>
      </trkpt>
      <trkpt lat="40.130167" lon="-4.853367">
        <ele>2288.0</ele>
        <time>2013-07-03T12:47:05Z</time>
      </trkpt>
      <trkpt lat="40.130217" lon="-4.853433">
        <ele>2289.0</ele>
        <time>2013-07-03T12:47:06Z</time>
      </trkpt>
      <trkpt lat="40.130250" lon="-4.853533">
        <ele>2290.0</ele>
        <time>2013-07-03T12:47:07Z</time>
      </trkpt>
      <trkpt lat="40.130267" lon="-4.853633">
        <ele>2292.0</ele>
        <time>2013-07-03T12:47:08Z</time>
      </trkpt>
      <trkpt lat="40.130283" lon="-4.853750">
        <ele>2294.0</ele>
        <time>2013-07-03T12:47:09Z</time>
      </trkpt>
      <trkpt lat="40.130283" lon="-4.853867">
        <ele>2296.0</ele>
        <time>2013-07-03T12:47:10Z</time>
      </trkpt>
      <trkpt lat="40.130267" lon="-4.853967">
        <ele>2298.0</ele>
        <time>2013-07-03T12:47:11Z</time>
      </trkpt>
      <trkpt lat="40.130233" lon="-4.854050">
        <ele>2300.0</ele>
        <time>2013-07-03T12:47:12Z</time>
      </trkpt>
      <trkpt lat="40.130183" lon="-4.854150">
        <ele>2300.0</ele>
        <time>2013-07-03T12:47:13Z</time>
      </trkpt>
      <trkpt lat="40.130117" lon="-4.854250">
        <ele>2301.0</ele>
        <time>2013-07-03T12:47:14Z</time>
      </trkpt>
      <trkpt lat="40.130033" lon="-4.854317">
        <ele>2303.0</ele>
        <time>2013-07-03T12:47:15Z</time>
      </trkpt>
      <trkpt lat="40.129950" lon="-4.854367">
        <ele>2304.0</ele>
        <time>2013-07-03T12:47:16Z</time>
      </trkpt>
      <trkpt lat="40.129850" lon="-4.854417">
        <ele>2306.0</ele>
        <time>2013-07-03T12:47:17Z</time>
      </trkpt>
      <trkpt lat="40.129750" lon="-4.854433">
        <ele>2308.0</ele>
        <time>2013-07-03T12:47:18Z</time>
      </trkpt>
      <trkpt lat="40.129667" lon="-4.854450">
        <ele>2311.0</ele>
        <time>2013-07-03T12:47:19Z</time>
      </trkpt>
      <trkpt lat="40.129567" lon="-4.854450">
        <ele>2314.0</ele>
        <time>2013-07-03T12:47:20Z</time>
      </trkpt>
      <trkpt lat="40.129483" lon="-4.854450">
        <ele>2317.0</ele>
        <time>2013-07-03T12:47:21Z</time>
      </trkpt>
      <trkpt lat="40.129400" lon="-4.854417">
        <ele>2319.0</ele>
        <time>2013-07-03T12:47:22Z</time>
      </trkpt>
      <trkpt lat="40.129317" lon="-4.854367">
        <ele>2321.0</ele>
        <time>2013-07-03T12:47:23Z</time>
      </trkpt>
      <trkpt lat="40.129267" lon="-4.854283">
        <ele>2321.0</ele>
        <time>2013-07-03T12:47:24Z</time>
      </trkpt>
      <trkpt lat="40.129233" lon="-4.854183">
        <ele>2323.0</ele>
        <time>2013-07-03T12:47:25Z</time>
      </trkpt>
      <trkpt lat="40.129217" lon="-4.854083">
        <ele>2324.0</ele>
        <time>2013-07-03T12:47:26Z</time>
      </trkpt>
      <trkpt lat="40.129233" lon="-4.854017">
        <ele>2326.0</ele>
        <time>2013-07-03T12:47:27Z</time>
      </trkpt>
      <trkpt lat="40.129250" lon="-4.853950">
        <ele>2328.0</ele>
        <time>2013-07-03T12:47:28Z</time>
      </trkpt>
      <trkpt lat="40.129283" lon="-4.853900">
        <ele>2329.0</ele>
        <time>2013-07-03T12:47:29Z</time>
      </trkpt>
      <trkpt lat="40.129317" lon="-4.853833">
        <ele>2330.0</ele>
        <time>2013-07-03T12:47:30Z</time>
      </trkpt>
      <trkpt lat="40.129350" lon="-4.853783">
        <ele>2330.0</ele>
        <time>2013-07-03T12:47:31Z</time>
      </trkpt>
      <trkpt lat="40.129400" lon="-4.853750">
        <ele>2331.0</ele>
        <time>2013-07-03T12:47:32Z</time>
      </trkpt>
      <trkpt lat="40.129483" lon="-4.853750">
        <ele>2331.0</ele>
        <time>2013-07-03T12:47:33Z</time>
      </trkpt>
      <trkpt lat="40.129550" lon="-4.853800">
        <ele>2331.0</ele>
        <time>2013-07-03T12:47:34Z</time>
      </trkpt>
      <trkpt lat="40.129600" lon="-4.853867">
        <ele>2332.0</ele>
        <time>2013-07-03T12:47:35Z</time>
      </trkpt>
      <trkpt lat="40.129650" lon="-4.853950">
        <ele>2334.0</ele>
        <time>2013-07-03T12:47:36Z</time>
      </trkpt>
      <trkpt lat="40.129667" lon="-4.854050">
        <ele>2335.0</ele>
        <time>2013-07-03T12:47:37Z</time>
      </trkpt>
      <trkpt lat="40.129667" lon="-4.854150">
        <ele>2336.0</ele>
        <time>2013-07-03T12:47:38Z</time>
      </trkpt>
      <trkpt lat="40.129667" lon="-4.854250">
        <ele>2337.0</ele>
        <time>2013-07-03T12:47:39Z</time>
      </trkpt>
      <trkpt lat="40.129667" lon="-4.854367">
        <ele>2339.0</ele>
        <time>2013-07-03T12:47:40Z</time>
      </trkpt>
      <trkpt lat="40.129633" lon="-4.854500">
        <ele>2340.0</ele>
        <time>2013-07-03T12:47:41Z</time>
      </trkpt>
      <trkpt lat="40.129583" lon="-4.854600">
        <ele>2342.0</ele>
        <time>2013-07-03T12:47:42Z</time>
      </trkpt>
      <trkpt lat="40.129517" lon="-4.854700">
        <ele>2343.0</ele>
        <time>2013-07-03T12:47:43Z</time>
      </trkpt>
      <trkpt lat="40.129433" lon="-4.854767">
        <ele>2344.0</ele>
        <time>2013-07-03T12:47:44Z</time>
      </trkpt>
      <trkpt lat="40.129350" lon="-4.854833">
        <ele>2345.0</ele>
        <time>2013-07-03T12:47:45Z</time>
      </trkpt>
      <trkpt lat="40.129250" lon="-4.854883">
        <ele>2346.0</ele>
        <time>2013-07-03T12:47:46Z</time>
      </trkpt>
      <trkpt lat="40.129150" lon="-4.854933">
        <ele>2348.0</ele>
        <time>2013-07-03T12:47:47Z</time>
      </trkpt>
      <trkpt lat="40.129050" lon="-4.854967">
        <ele>2349.0</ele>
        <time>2013-07-03T12:47:48Z</time>
      </trkpt>
      <trkpt lat="40.128950" lon="-4.854967">
        <ele>2351.0</ele>
        <time>2013-07-03T12:47:49Z</time>
      </trkpt>
      <trkpt lat="40.128850" lon="-4.854967">
        <ele>2352.0</ele>
        <time>2013-07-03T12:47:50Z</time>
      </trkpt>
      <trkpt lat="40.128767" lon="-4.854933">
        <ele>2354.0</ele>
        <time>2013-07-03T12:47:51Z</time>
      </trkpt>
      <trkpt lat="40.128700" lon="-4.854883">
        <ele>2355.0</ele>
        <time>2013-07-03T12:47:52Z</time>
      </trkpt>
      <trkpt lat="40.128617" lon="-4.854833">
        <ele>2357.0</ele>
        <time>2013-07-03T12:47:53Z</time>
      </trkpt>
      <trkpt lat="40.128550" lon="-4.854783">
        <ele>2359.0</ele>
        <time>2013-07-03T12:47:54Z</time>
      </trkpt>
      <trkpt lat="40.128500" lon="-4.854717">
        <ele>2361.0</ele>
        <time>2013-07-03T12:47:55Z</time>
      </trkpt>
      <trkpt lat="40.128433" lon="-4.854650">
        <ele>2362.0</ele>
        <time>2013-07-03T12:47:56Z</time>
      </trkpt>
      <trkpt lat="40.128383" lon="-4.854583">
        <ele>2363.0</ele>
        <time>2013-07-03T12:47:57Z</time>
      </trkpt>
      <trkpt lat="40.128333" lon="-4.854517">
        <ele>2364.0</ele>
        <time>2013-07-03T12:47:58Z</time>
      </trkpt>
      <trkpt lat="40.128300" lon="-4.854433">
        <ele>2365.0</ele>
        <time>2013-07-03T12:47:59Z</time>
      </trkpt>
      <trkpt lat="40.128250" lon="-4.854367">
        <ele>2366.0</ele>
        <time>2013-07-03T12:48:00Z</time>
      </trkpt>
      <trkpt lat="40.128233" lon="-4.854283">
        <ele>2367.0</ele>
        <time>2013-07-03T12:48:01Z</time>
      </trkpt>
      <trkpt lat="40.128217" lon="-4.854200">
        <ele>2367.0</ele>
        <time>2013-07-03T12:48:02Z</time>
      </trkpt>
      <trkpt lat="40.128233" lon="-4.854117">
        <ele>2366.0</ele>
        <time>2013-07-03T12:48:03Z</time>
      </trkpt>
      <trkpt lat="40.128267" lon="-4.854033">
        <ele>2366.0</ele>
        <time>2013-07-03T12:48:04Z</time>
      </trkpt>
      <trkpt lat="40.128317" lon="-4.853967">
        <ele>2367.0</ele>
        <time>2013-07-03T12:48:05Z</time>
      </trkpt>
      <trkpt lat="40.128350" lon="-4.853917">
        <ele>2369.0</ele>
        <time>2013-07-03T12:48:06Z</time>
      </trkpt>
      <trkpt lat="40.128417" lon="-4.853917">
        <ele>2369.0</ele>
        <time>2013-07-03T12:48:07Z</time>
      </trkpt>
      <trkpt lat="40.128467" lon="-4.853933">
        <ele>2369.0</ele>
        <time>2013-07-03T12:48:08Z</time>
      </trkpt>
      <trkpt lat="40.128533" lon="-4.853967">
        <ele>2369.0</ele>
        <time>2013-07-03T12:48:09Z</time>
      </trkpt>
      <trkpt lat="40.128583" lon="-4.854017">
        <ele>2370.0</ele>
        <time>2013-07-03T12:48:10Z</time>
      </trkpt>
      <trkpt lat="40.128617" lon="-4.854100">
        <ele>2371.0</ele>
        <time>2013-07-03T12:48:11Z</time>
      </trkpt>
      <trkpt lat="40.128650" lon="-4.854183">
        <ele>2372.0</ele>
        <time>2013-07-03T12:48:12Z</time>
      </trkpt>
      <trkpt lat="40.128650" lon="-4.854283">
        <ele>2372.0</ele>
        <time>2013-07-03T12:48:13Z</time>
      </trkpt>
      <trkpt lat="40.128650" lon="-4.854400">
        <ele>2373.0</ele>
        <time>2013-07-03T12:48:14Z</time>
      </trkpt>
      <trkpt lat="40.128633" lon="-4.854500">
        <ele>2373.0</ele>
        <time>2013-07-03T12:48:15Z</time>
      </trkpt>
      <trkpt lat="40.128600" lon="-4.854617">
        <ele>2374.0</ele>
        <time>2013-07-03T12:48:16Z</time>
      </trkpt>
      <trkpt lat="40.128567" lon="-4.854733">
        <ele>2374.0</ele>
        <time>2013-07-03T12:48:17Z</time>
      </trkpt>
      <trkpt lat="40.128500" lon="-4.854850">
        <ele>2375.0</ele>
        <time>2013-07-03T12:48:18Z</time>
      </trkpt>
      <trkpt lat="40.128433" lon="-4.854950">
        <ele>2376.0</ele>
        <time>2013-07-03T12:48:19Z</time>
      </trkpt>
      <trkpt lat="40.128350" lon="-4.855033">
        <ele>2377.0</ele>
        <time>2013-07-03T12:48:20Z</time>
      </trkpt>
      <trkpt lat="40.128267" lon="-4.855100">
        <ele>2378.0</ele>
        <time>2013-07-03T12:48:21Z</time>
      </trkpt>
      <trkpt lat="40.128183" lon="-4.855183">
        <ele>2379.0</ele>
        <time>2013-07-03T12:48:22Z</time>
      </trkpt>
      <trkpt lat="40.128083" lon="-4.855233">
        <ele>2379.0</ele>
        <time>2013-07-03T12:48:23Z</time>
      </trkpt>
      <trkpt lat="40.127983" lon="-4.855267">
        <ele>2380.0</ele>
        <time>2013-07-03T12:48:24Z</time>
      </trkpt>
      <trkpt lat="40.127883" lon="-4.855300">
        <ele>2380.0</ele>
        <time>2013-07-03T12:48:25Z</time>
      </trkpt>
      <trkpt lat="40.127767" lon="-4.855333">
        <ele>2381.0</ele>
        <time>2013-07-03T12:48:26Z</time>
      </trkpt>
      <trkpt lat="40.127667" lon="-4.855367">
        <ele>2381.0</ele>
        <time>2013-07-03T12:48:27Z</time>
      </trkpt>
      <trkpt lat="40.127567" lon="-4.855400">
        <ele>2382.0</ele>
        <time>2013-07-03T12:48:28Z</time>
      </trkpt>
      <trkpt lat="40.127483" lon="-4.855450">
        <ele>2382.0</ele>
        <time>2013-07-03T12:48:29Z</time>
      </trkpt>
      <trkpt lat="40.127367" lon="-4.855500">
        <ele>2382.0</ele>
        <time>2013-07-03T12:48:30Z</time>
      </trkpt>
      <trkpt lat="40.127250" lon="-4.855550">
        <ele>2382.0</ele>
        <time>2013-07-03T12:48:31Z</time>
      </trkpt>
      <trkpt lat="40.127133" lon="-4.855567">
        <ele>2383.0</ele>
        <time>2013-07-03T12:48:32Z</time>
      </trkpt>
      <trkpt lat="40.127017" lon="-4.855567">
        <ele>2386.0</ele>
        <time>2013-07-03T12:48:33Z</time>
      </trkpt>
      <trkpt lat="40.126900" lon="-4.855550">
        <ele>2389.0</ele>
        <time>2013-07-03T12:48:34Z</time>
      </trkpt>
      <trkpt lat="40.126800" lon="-4.855533">
        <ele>2391.0</ele>
        <time>2013-07-03T12:48:35Z</time>
      </trkpt>
      <trkpt lat="40.126700" lon="-4.855550">
        <ele>2394.0</ele>
        <time>2013-07-03T12:48:36Z</time>
      </trkpt>
      <trkpt lat="40.126600" lon="-4.855550">
        <ele>2396.0</ele>
        <time>2013-07-03T12:48:37Z</time>
      </trkpt>
      <trkpt lat="40.126500" lon="-4.855567">
        <ele>2398.0</ele>
        <time>2013-07-03T12:48:38Z</time>
      </trkpt>
      <trkpt lat="40.126417" lon="-4.855533">
        <ele>2399.0</ele>
        <time>2013-07-03T12:48:39Z</time>
      </trkpt>
      <trkpt lat="40.126333" lon="-4.855450">
        <ele>2400.0</ele>
        <time>2013-07-03T12:48:40Z</time>
      </trkpt>
      <trkpt lat="40.126283" lon="-4.855367">
        <ele>2401.0</ele>
        <time>2013-07-03T12:48:41Z</time>
      </trkpt>
      <trkpt lat="40.126250" lon="-4.855283">
        <ele>2403.0</ele>
        <time>2013-07-03T12:48:42Z</time>
      </trkpt>
      <trkpt lat="40.126217" lon="-4.855200">
        <ele>2404.0</ele>
        <time>2013-07-03T12:48:43Z</time>
      </trkpt>
      <trkpt lat="40.126200" lon="-4.855133">
        <ele>2405.0</ele>
        <time>2013-07-03T12:48:44Z</time>
      </trkpt>
      <trkpt lat="40.126200" lon="-4.855050">
        <ele>2406.0</ele>
        <time>2013-07-03T12:48:45Z</time>
      </trkpt>
      <trkpt lat="40.126233" lon="-4.854983">
        <ele>2406.0</ele>
        <time>2013-07-03T12:48:46Z</time>
      </trkpt>
      <trkpt lat="40.126267" lon="-4.854950">
        <ele>2406.0</ele>
        <time>2013-07-03T12:48:47Z</time>
      </trkpt>
      <trkpt lat="40.126317" lon="-4.854917">
        <ele>2405.0</ele>
        <time>2013-07-03T12:48:48Z</time>
      </trkpt>
      <trkpt lat="40.126367" lon="-4.854917">
        <ele>2404.0</ele>
        <time>2013-07-03T12:48:49Z</time>
      </trkpt>
      <trkpt lat="40.126417" lon="-4.854917">
        <ele>2403.0</ele>
        <time>2013-07-03T12:48:50Z</time>
      </trkpt>
      <trkpt lat="40.126483" lon="-4.854933">
        <ele>2402.0</ele>
        <time>2013-07-03T12:48:51Z</time>
      </trkpt>
      <trkpt lat="40.126550" lon="-4.854950">
        <ele>2400.0</ele>
        <time>2013-07-03T12:48:52Z</time>
      </trkpt>
      <trkpt lat="40.126617" lon="-4.855000">
        <ele>2398.0</ele>
        <time>2013-07-03T12:48:53Z</time>
      </trkpt>
      <trkpt lat="40.126667" lon="-4.855067">
        <ele>2396.0</ele>
        <time>2013-07-03T12:48:54Z</time>
      </trkpt>
      <trkpt lat="40.126717" lon="-4.855150">
        <ele>2396.0</ele>
        <time>2013-07-03T12:48:55Z</time>
      </trkpt>
      <trkpt lat="40.126717" lon="-4.855250">
        <ele>2398.0</ele>
        <time>2013-07-03T12:48:56Z</time>
      </trkpt>
      <trkpt lat="40.126717" lon="-4.855367">
        <ele>2399.0</ele>
        <time>2013-07-03T12:48:57Z</time>
      </trkpt>
      <trkpt lat="40.126683" lon="-4.855467">
        <ele>2399.0</ele>
        <time>2013-07-03T12:48:58Z</time>
      </trkpt>
      <trkpt lat="40.126633" lon="-4.855583">
        <ele>2398.0</ele>
        <time>2013-07-03T12:48:59Z</time>
      </trkpt>
      <trkpt lat="40.126600" lon="-4.855700">
        <ele>2398.0</ele>
        <time>2013-07-03T12:49:00Z</time>
      </trkpt>
      <trkpt lat="40.126550" lon="-4.855833">
        <ele>2398.0</ele>
        <time>2013-07-03T12:49:01Z</time>
      </trkpt>
      <trkpt lat="40.126517" lon="-4.855983">
        <ele>2400.0</ele>
        <time>2013-07-03T12:49:02Z</time>
      </trkpt>
      <trkpt lat="40.126450" lon="-4.856100">
        <ele>2402.0</ele>
        <time>2013-07-03T12:49:03Z</time>
      </trkpt>
      <trkpt lat="40.126367" lon="-4.856217">
        <ele>2405.0</ele>
        <time>2013-07-03T12:49:04Z</time>
      </trkpt>
      <trkpt lat="40.126250" lon="-4.856283">
        <ele>2407.0</ele>
        <time>2013-07-03T12:49:05Z</time>
      </trkpt>
      <trkpt lat="40.126133" lon="-4.856333">
        <ele>2411.0</ele>
        <time>2013-07-03T12:49:06Z</time>
      </trkpt>
      <trkpt lat="40.126000" lon="-4.856350">
        <ele>2413.0</ele>
        <time>2013-07-03T12:49:07Z</time>
      </trkpt>
      <trkpt lat="40.125917" lon="-4.856333">
        <ele>2417.0</ele>
        <time>2013-07-03T12:49:08Z</time>
      </trkpt>
      <trkpt lat="40.125833" lon="-4.856300">
        <ele>2420.0</ele>
        <time>2013-07-03T12:49:09Z</time>
      </trkpt>
      <trkpt lat="40.125783" lon="-4.856233">
        <ele>2423.0</ele>
        <time>2013-07-03T12:49:10Z</time>
      </trkpt>
      <trkpt lat="40.125750" lon="-4.856133">
        <ele>2425.0</ele>
        <time>2013-07-03T12:49:11Z</time>
      </trkpt>
      <trkpt lat="40.125767" lon="-4.856033">
        <ele>2427.0</ele>
        <time>2013-07-03T12:49:12Z</time>
      </trkpt>
      <trkpt lat="40.125800" lon="-4.855967">
        <ele>2434.0</ele>
        <time>2013-07-03T12:49:13Z</time>
      </trkpt>
      <trkpt lat="40.125850" lon="-4.855967">
        <ele>2438.0</ele>
        <time>2013-07-03T12:49:14Z</time>
      </trkpt>
      <trkpt lat="40.125883" lon="-4.856033">
        <ele>2438.0</ele>
        <time>2013-07-03T12:49:15Z</time>
      </trkpt>
      <trkpt lat="40.125917" lon="-4.856150">
        <ele>2437.0</ele>
        <time>2013-07-03T12:49:16Z</time>
      </trkpt>
      <trkpt lat="40.125933" lon="-4.856283">
        <ele>2438.0</ele>
        <time>2013-07-03T12:49:17Z</time>
      </trkpt>
      <trkpt lat="40.125917" lon="-4.856417">
        <ele>2438.0</ele>
        <time>2013-07-03T12:49:18Z</time>
      </trkpt>
      <trkpt lat="40.125850" lon="-4.856567">
        <ele>2439.0</ele>
        <time>2013-07-03T12:49:19Z</time>
      </trkpt>
      <trkpt lat="40.125783" lon="-4.856700">
        <ele>2440.0</ele>
        <time>2013-07-03T12:49:20Z</time>
      </trkpt>
      <trkpt lat="40.125667" lon="-4.856783">
        <ele>2444.0</ele>
        <time>2013-07-03T12:49:21Z</time>
      </trkpt>
      <trkpt lat="40.125567" lon="-4.856833">
        <ele>2449.0</ele>
        <time>2013-07-03T12:49:22Z</time>
      </trkpt>
      <trkpt lat="40.125467" lon="-4.856850">
        <ele>2453.0</ele>
        <time>2013-07-03T12:49:23Z</time>
      </trkpt>
      <trkpt lat="40.125367" lon="-4.856833">
        <ele>2457.0</ele>
        <time>2013-07-03T12:49:24Z</time>
      </trkpt>
      <trkpt lat="40.125250" lon="-4.856800">
        <ele>2457.0</ele>
        <time>2013-07-03T12:49:25Z</time>
      </trkpt>
      <trkpt lat="40.125150" lon="-4.856733">
        <ele>2460.0</ele>
        <time>2013-07-03T12:49:26Z</time>
      </trkpt>
      <trkpt lat="40.125083" lon="-4.856633">
        <ele>2462.0</ele>
        <time>2013-07-03T12:49:27Z</time>
      </trkpt>
      <trkpt lat="40.125067" lon="-4.856533">
        <ele>2464.0</ele>
        <time>2013-07-03T12:49:28Z</time>
      </trkpt>
      <trkpt lat="40.125100" lon="-4.856450">
        <ele>2467.0</ele>
        <time>2013-07-03T12:49:29Z</time>
      </trkpt>
      <trkpt lat="40.125167" lon="-4.856433">
        <ele>2472.0</ele>
        <time>2013-07-03T12:49:30Z</time>
      </trkpt>
      <trkpt lat="40.125217" lon="-4.856517">
        <ele>2476.0</ele>
        <time>2013-07-03T12:49:31Z</time>
      </trkpt>
      <trkpt lat="40.125233" lon="-4.856617">
        <ele>2481.0</ele>
        <time>2013-07-03T12:49:32Z</time>
      </trkpt>
      <trkpt lat="40.125217" lon="-4.856750">
        <ele>2485.0</ele>
        <time>2013-07-03T12:49:33Z</time>
      </trkpt>
      <trkpt lat="40.125200" lon="-4.856867">
        <ele>2490.0</ele>
        <time>2013-07-03T12:49:34Z</time>
      </trkpt>
      <trkpt lat="40.125167" lon="-4.856983">
        <ele>2494.0</ele>
        <time>2013-07-03T12:49:35Z</time>
      </trkpt>
      <trkpt lat="40.125133" lon="-4.857083">
        <ele>2498.0</ele>
        <time>2013-07-03T12:49:36Z</time>
      </trkpt>
      <trkpt lat="40.125067" lon="-4.857200">
        <ele>2502.0</ele>
        <time>2013-07-03T12:49:37Z</time>
      </trkpt>
      <trkpt lat="40.124967" lon="-4.857283">
        <ele>2506.0</ele>
        <time>2013-07-03T12:49:38Z</time>
      </trkpt>
      <trkpt lat="40.124833" lon="-4.857317">
        <ele>2508.0</ele>
        <time>2013-07-03T12:49:39Z</time>
      </trkpt>
      <trkpt lat="40.124700" lon="-4.857300">
        <ele>2510.0</ele>
        <time>2013-07-03T12:49:40Z</time>
      </trkpt>
      <trkpt lat="40.124617" lon="-4.857233">
        <ele>2513.0</ele>
        <time>2013-07-03T12:49:41Z</time>
      </trkpt>
      <trkpt lat="40.124550" lon="-4.857167">
        <ele>2515.0</ele>
        <time>2013-07-03T12:49:42Z</time>
      </trkpt>
      <trkpt lat="40.124533" lon="-4.857100">
        <ele>2515.0</ele>
        <time>2013-07-03T12:49:43Z</time>
      </trkpt>
      <trkpt lat="40.124533" lon="-4.857050">
        <ele>2516.0</ele>
        <time>2013-07-03T12:49:44Z</time>
      </trkpt>
      <trkpt lat="40.124550" lon="-4.857000">
        <ele>2518.0</ele>
        <time>2013-07-03T12:49:45Z</time>
      </trkpt>
      <trkpt lat="40.124567" lon="-4.856950">
        <ele>2520.0</ele>
        <time>2013-07-03T12:49:46Z</time>
      </trkpt>
      <trkpt lat="40.124617" lon="-4.856933">
        <ele>2522.0</ele>
        <time>2013-07-03T12:49:47Z</time>
      </trkpt>
      <trkpt lat="40.124667" lon="-4.856950">
        <ele>2522.0</ele>
        <time>2013-07-03T12:49:48Z</time>
      </trkpt>
      <trkpt lat="40.124717" lon="-4.857033">
        <ele>2523.0</ele>
        <time>2013-07-03T12:49:49Z</time>
      </trkpt>
      <trkpt lat="40.124733" lon="-4.857150">
        <ele>2525.0</ele>
        <time>2013-07-03T12:49:50Z</time>
      </trkpt>
      <trkpt lat="40.124733" lon="-4.857283">
        <ele>2528.0</ele>
        <time>2013-07-03T12:49:51Z</time>
      </trkpt>
      <trkpt lat="40.124717" lon="-4.857417">
        <ele>2531.0</ele>
        <time>2013-07-03T12:49:52Z</time>
      </trkpt>
      <trkpt lat="40.124683" lon="-4.857517">
        <ele>2533.0</ele>
        <time>2013-07-03T12:49:53Z</time>
      </trkpt>
      <trkpt lat="40.124633" lon="-4.857617">
        <ele>2535.0</ele>
        <time>2013-07-03T12:49:54Z</time>
      </trkpt>
      <trkpt lat="40.124567" lon="-4.857750">
        <ele>2535.0</ele>
        <time>2013-07-03T12:49:55Z</time>
      </trkpt>
      <trkpt lat="40.124500" lon="-4.857900">
        <ele>2537.0</ele>
        <time>2013-07-03T12:49:56Z</time>
      </trkpt>
      <trkpt lat="40.124400" lon="-4.858000">
        <ele>2541.0</ele>
        <time>2013-07-03T12:49:57Z</time>
      </trkpt>
      <trkpt lat="40.124300" lon="-4.858067">
        <ele>2544.0</ele>
        <time>2013-07-03T12:49:58Z</time>
      </trkpt>
      <trkpt lat="40.124200" lon="-4.858050">
        <ele>2544.0</ele>
        <time>2013-07-03T12:49:59Z</time>
      </trkpt>
      <trkpt lat="40.124100" lon="-4.858000">
        <ele>2543.0</ele>
        <time>2013-07-03T12:50:00Z</time>
      </trkpt>
      <trkpt lat="40.124000" lon="-4.857933">
        <ele>2544.0</ele>
        <time>2013-07-03T12:50:01Z</time>
      </trkpt>
      <trkpt lat="40.123917" lon="-4.857883">
        <ele>2546.0</ele>
        <time>2013-07-03T12:50:02Z</time>
      </trkpt>
      <trkpt lat="40.123850" lon="-4.857833">
        <ele>2547.0</ele>
        <time>2013-07-03T12:50:03Z</time>
      </trkpt>
      <trkpt lat="40.123817" lon="-4.857750">
        <ele>2546.0</ele>
        <time>2013-07-03T12:50:04Z</time>
      </trkpt>
      <trkpt lat="40.123800" lon="-4.857667">
        <ele>2546.0</ele>
        <time>2013-07-03T12:50:05Z</time>
      </trkpt>
      <trkpt lat="40.123767" lon="-4.857583">
        <ele>2546.0</ele>
        <time>2013-07-03T12:50:06Z</time>
      </trkpt>
      <trkpt lat="40.123750" lon="-4.857500">
        <ele>2547.0</ele>
        <time>2013-07-03T12:50:07Z</time>
      </trkpt>
      <trkpt lat="40.123750" lon="-4.857450">
        <ele>2548.0</ele>
        <time>2013-07-03T12:50:08Z</time>
      </trkpt>
      <trkpt lat="40.123783" lon="-4.857417">
        <ele>2549.0</ele>
        <time>2013-07-03T12:50:09Z</time>
      </trkpt>
      <trkpt lat="40.123817" lon="-4.857417">
        <ele>2549.0</ele>
        <time>2013-07-03T12:50:10Z</time>
      </trkpt>
      <trkpt lat="40.123867" lon="-4.857433">
        <ele>2550.0</ele>
        <time>2013-07-03T12:50:11Z</time>
      </trkpt>
      <trkpt lat="40.123917" lon="-4.857500">
        <ele>2551.0</ele>
        <time>2013-07-03T12:50:12Z</time>
      </trkpt>
      <trkpt lat="40.123950" lon="-4.857583">
        <ele>2553.0</ele>
        <time>2013-07-03T12:50:13Z</time>
      </trkpt>
      <trkpt lat="40.123950" lon="-4.857700">
        <ele>2555.0</ele>
        <time>2013-07-03T12:50:14Z</time>
      </trkpt>
      <trkpt lat="40.123933" lon="-4.857817">
        <ele>2557.0</ele>
        <time>2013-07-03T12:50:15Z</time>
      </trkpt>
      <trkpt lat="40.123917" lon="-4.857917">
        <ele>2559.0</ele>
        <time>2013-07-03T12:50:16Z</time>
      </trkpt>
      <trkpt lat="40.123867" lon="-4.858017">
        <ele>2560.0</ele>
        <time>2013-07-03T12:50:17Z</time>
      </trkpt>
      <trkpt lat="40.123817" lon="-4.858133">
        <ele>2560.0</ele>
        <time>2013-07-03T12:50:18Z</time>
      </trkpt>
      <trkpt lat="40.123733" lon="-4.858267">
        <ele>2559.0</ele>
        <time>2013-07-03T12:50:19Z</time>
      </trkpt>
      <trkpt lat="40.123633" lon="-4.858400">
        <ele>2558.0</ele>
        <time>2013-07-03T12:50:20Z</time>
      </trkpt>
      <trkpt lat="40.123533" lon="-4.858500">
        <ele>2559.0</ele>
        <time>2013-07-03T12:50:21Z</time>
      </trkpt>
      <trkpt lat="40.123417" lon="-4.858567">
        <ele>2560.0</ele>
        <time>2013-07-03T12:50:22Z</time>
      </trkpt>
      <trkpt lat="40.123300" lon="-4.858583">
        <ele>2561.0</ele>
        <time>2013-07-03T12:50:23Z</time>
      </trkpt>
      <trkpt lat="40.123200" lon="-4.858567">
        <ele>2561.0</ele>
        <time>2013-07-03T12:50:24Z</time>
      </trkpt>
      <trkpt lat="40.123100" lon="-4.858567">
        <ele>2559.0</ele>
        <time>2013-07-03T12:50:25Z</time>
      </trkpt>
      <trkpt lat="40.123017" lon="-4.858567">
        <ele>2557.0</ele>
        <time>2013-07-03T12:50:26Z</time>
      </trkpt>
      <trkpt lat="40.122933" lon="-4.858550">
        <ele>2555.0</ele>
        <time>2013-07-03T12:50:27Z</time>
      </trkpt>
      <trkpt lat="40.122850" lon="-4.858533">
        <ele>2551.0</ele>
        <time>2013-07-03T12:50:28Z</time>
      </trkpt>
      <trkpt lat="40.122750" lon="-4.858483">
        <ele>2547.0</ele>
        <time>2013-07-03T12:50:29Z</time>
      </trkpt>
      <trkpt lat="40.122650" lon="-4.858433">
        <ele>2545.0</ele>
        <time>2013-07-03T12:50:30Z</time>
      </trkpt>
      <trkpt lat="40.122550" lon="-4.858400">
        <ele>2544.0</ele>
        <time>2013-07-03T12:50:31Z</time>
      </trkpt>
      <trkpt lat="40.122467" lon="-4.858333">
        <ele>2544.0</ele>
        <time>2013-07-03T12:50:32Z</time>
      </trkpt>
      <trkpt lat="40.122400" lon="-4.858283">
        <ele>2543.0</ele>
        <time>2013-07-03T12:50:33Z</time>
      </trkpt>
      <trkpt lat="40.122350" lon="-4.858233">
        <ele>2543.0</ele>
        <time>2013-07-03T12:50:34Z</time>
      </trkpt>
      <trkpt lat="40.122317" lon="-4.858167">
        <ele>2542.0</ele>
        <time>2013-07-03T12:50:35Z</time>
      </trkpt>
      <trkpt lat="40.122317" lon="-4.858083">
        <ele>2541.0</ele>
        <time>2013-07-03T12:50:36Z</time>
      </trkpt>
      <trkpt lat="40.122333" lon="-4.858033">
        <ele>2541.0</ele>
        <time>2013-07-03T12:50:37Z</time>
      </trkpt>
      <trkpt lat="40.122350" lon="-4.857983">
        <ele>2541.0</ele>
        <time>2013-07-03T12:50:38Z</time>
      </trkpt>
      <trkpt lat="40.122400" lon="-4.857933">
        <ele>2542.0</ele>
        <time>2013-07-03T12:50:39Z</time>
      </trkpt>
      <trkpt lat="40.122433" lon="-4.857900">
        <ele>2542.0</ele>
        <time>2013-07-03T12:50:40Z</time>
      </trkpt>
      <trkpt lat="40.122483" lon="-4.857900">
        <ele>2542.0</ele>
        <time>2013-07-03T12:50:41Z</time>
      </trkpt>
      <trkpt lat="40.122533" lon="-4.857900">
        <ele>2543.0</ele>
        <time>2013-07-03T12:50:42Z</time>
      </trkpt>
      <trkpt lat="40.122583" lon="-4.857933">
        <ele>2543.0</ele>
        <time>2013-07-03T12:50:43Z</time>
      </trkpt>
      <trkpt lat="40.122617" lon="-4.857983">
        <ele>2543.0</ele>
        <time>2013-07-03T12:50:44Z</time>
      </trkpt>
      <trkpt lat="40.122667" lon="-4.858050">
        <ele>2542.0</ele>
        <time>2013-07-03T12:50:45Z</time>
      </trkpt>
      <trkpt lat="40.122700" lon="-4.858133">
        <ele>2542.0</ele>
        <time>2013-07-03T12:50:46Z</time>
      </trkpt>
      <trkpt lat="40.122717" lon="-4.858233">
        <ele>2542.0</ele>
        <time>2013-07-03T12:50:47Z</time>
      </trkpt>
      <trkpt lat="40.122733" lon="-4.858350">
        <ele>2542.0</ele>
        <time>2013-07-03T12:50:48Z</time>
      </trkpt>
      <trkpt lat="40.122717" lon="-4.858450">
        <ele>2542.0</ele>
        <time>2013-07-03T12:50:49Z</time>
      </trkpt>
      <trkpt lat="40.122700" lon="-4.858567">
        <ele>2542.0</ele>
        <time>2013-07-03T12:50:50Z</time>
      </trkpt>
      <trkpt lat="40.122683" lon="-4.858700">
        <ele>2543.0</ele>
        <time>2013-07-03T12:50:51Z</time>
      </trkpt>
      <trkpt lat="40.122633" lon="-4.858817">
        <ele>2545.0</ele>
        <time>2013-07-03T12:50:52Z</time>
      </trkpt>
      <trkpt lat="40.122567" lon="-4.858933">
        <ele>2546.0</ele>
        <time>2013-07-03T12:50:53Z</time>
      </trkpt>
      <trkpt lat="40.122500" lon="-4.859033">
        <ele>2549.0</ele>
        <time>2013-07-03T12:50:54Z</time>
      </trkpt>
      <trkpt lat="40.122433" lon="-4.859117">
        <ele>2551.0</ele>
        <time>2013-07-03T12:50:55Z</time>
      </trkpt>
      <trkpt lat="40.122367" lon="-4.859183">
        <ele>2551.0</ele>
        <time>2013-07-03T12:50:56Z</time>
      </trkpt>
      <trkpt lat="40.122283" lon="-4.859250">
        <ele>2551.0</ele>
        <time>2013-07-03T12:50:57Z</time>
      </trkpt>
      <trkpt lat="40.122200" lon="-4.859333">
        <ele>2550.0</ele>
        <time>2013-07-03T12:50:58Z</time>
      </trkpt>
      <trkpt lat="40.122100" lon="-4.859417">
        <ele>2548.0</ele>
        <time>2013-07-03T12:50:59Z</time>
      </trkpt>
      <trkpt lat="40.122000" lon="-4.859483">
        <ele>2546.0</ele>
        <time>2013-07-03T12:51:00Z</time>
      </trkpt>
      <trkpt lat="40.121883" lon="-4.859517">
        <ele>2542.0</ele>
        <time>2013-07-03T12:51:01Z</time>
      </trkpt>
      <trkpt lat="40.121767" lon="-4.859533">
        <ele>2537.0</ele>
        <time>2013-07-03T12:51:02Z</time>
      </trkpt>
      <trkpt lat="40.121650" lon="-4.859550">
        <ele>2533.0</ele>
        <time>2013-07-03T12:51:03Z</time>
      </trkpt>
      <trkpt lat="40.121533" lon="-4.859567">
        <ele>2530.0</ele>
        <time>2013-07-03T12:51:04Z</time>
      </trkpt>
      <trkpt lat="40.121417" lon="-4.859583">
        <ele>2525.0</ele>
        <time>2013-07-03T12:51:05Z</time>
      </trkpt>
      <trkpt lat="40.121283" lon="-4.859600">
        <ele>2521.0</ele>
        <time>2013-07-03T12:51:06Z</time>
      </trkpt>
      <trkpt lat="40.121167" lon="-4.859600">
        <ele>2516.0</ele>
        <time>2013-07-03T12:51:07Z</time>
      </trkpt>
      <trkpt lat="40.121033" lon="-4.859600">
        <ele>2512.0</ele>
        <time>2013-07-03T12:51:08Z</time>
      </trkpt>
      <trkpt lat="40.120900" lon="-4.859583">
        <ele>2509.0</ele>
        <time>2013-07-03T12:51:09Z</time>
      </trkpt>
      <trkpt lat="40.120783" lon="-4.859567">
        <ele>2507.0</ele>
        <time>2013-07-03T12:51:10Z</time>
      </trkpt>
      <trkpt lat="40.120667" lon="-4.859533">
        <ele>2504.0</ele>
        <time>2013-07-03T12:51:11Z</time>
      </trkpt>
      <trkpt lat="40.120583" lon="-4.859500">
        <ele>2501.0</ele>
        <time>2013-07-03T12:51:12Z</time>
      </trkpt>
      <trkpt lat="40.120500" lon="-4.859450">
        <ele>2499.0</ele>
        <time>2013-07-03T12:51:13Z</time>
      </trkpt>
      <trkpt lat="40.120400" lon="-4.859400">
        <ele>2495.0</ele>
        <time>2013-07-03T12:51:14Z</time>
      </trkpt>
      <trkpt lat="40.120300" lon="-4.859367">
        <ele>2491.0</ele>
        <time>2013-07-03T12:51:15Z</time>
      </trkpt>
      <trkpt lat="40.120183" lon="-4.859350">
        <ele>2487.0</ele>
        <time>2013-07-03T12:51:16Z</time>
      </trkpt>
      <trkpt lat="40.120067" lon="-4.859283">
        <ele>2484.0</ele>
        <time>2013-07-03T12:51:17Z</time>
      </trkpt>
      <trkpt lat="40.119950" lon="-4.859217">
        <ele>2481.0</ele>
        <time>2013-07-03T12:51:18Z</time>
      </trkpt>
      <trkpt lat="40.119833" lon="-4.859150">
        <ele>2480.0</ele>
        <time>2013-07-03T12:51:19Z</time>
      </trkpt>
      <trkpt lat="40.119750" lon="-4.859083">
        <ele>2480.0</ele>
        <time>2013-07-03T12:51:20Z</time>
      </trkpt>
      <trkpt lat="40.119667" lon="-4.859050">
        <ele>2479.0</ele>
        <time>2013-07-03T12:51:21Z</time>
      </trkpt>
      <trkpt lat="40.119583" lon="-4.859000">
        <ele>2478.0</ele>
        <time>2013-07-03T12:51:22Z</time>
      </trkpt>
      <trkpt lat="40.119500" lon="-4.858967">
        <ele>2475.0</ele>
        <time>2013-07-03T12:51:23Z</time>
      </trkpt>
      <trkpt lat="40.119400" lon="-4.858933">
        <ele>2473.0</ele>
        <time>2013-07-03T12:51:24Z</time>
      </trkpt>
      <trkpt lat="40.119300" lon="-4.858883">
        <ele>2470.0</ele>
        <time>2013-07-03T12:51:25Z</time>
      </trkpt>
      <trkpt lat="40.119217" lon="-4.858817">
        <ele>2467.0</ele>
        <time>2013-07-03T12:51:26Z</time>
      </trkpt>
      <trkpt lat="40.119133" lon="-4.858733">
        <ele>2463.0</ele>
        <time>2013-07-03T12:51:27Z</time>
      </trkpt>
      <trkpt lat="40.119033" lon="-4.858650">
        <ele>2460.0</ele>
        <time>2013-07-03T12:51:28Z</time>
      </trkpt>
      <trkpt lat="40.118933" lon="-4.858583">
        <ele>2457.0</ele>
        <time>2013-07-03T12:51:29Z</time>
      </trkpt>
      <trkpt lat="40.118833" lon="-4.858533">
        <ele>2455.0</ele>
        <time>2013-07-03T12:51:30Z</time>
      </trkpt>
      <trkpt lat="40.118733" lon="-4.858483">
        <ele>2453.0</ele>
        <time>2013-07-03T12:51:31Z</time>
      </trkpt>
      <trkpt lat="40.118617" lon="-4.858433">
        <ele>2451.0</ele>
        <time>2013-07-03T12:51:32Z</time>
      </trkpt>
      <trkpt lat="40.118500" lon="-4.858383">
        <ele>2448.0</ele>
        <time>2013-07-03T12:51:33Z</time>
      </trkpt>
      <trkpt lat="40.118400" lon="-4.858333">
        <ele>2447.0</ele>
        <time>2013-07-03T12:51:34Z</time>
      </trkpt>
      <trkpt lat="40.118300" lon="-4.858283">
        <ele>2445.0</ele>
        <time>2013-07-03T12:51:35Z</time>
      </trkpt>
      <trkpt lat="40.118200" lon="-4.858233">
        <ele>2443.0</ele>
        <time>2013-07-03T12:51:36Z</time>
      </trkpt>
      <trkpt lat="40.118100" lon="-4.858183">
        <ele>2441.0</ele>
        <time>2013-07-03T12:51:37Z</time>
      </trkpt>
      <trkpt lat="40.117983" lon="-4.858133">
        <ele>2439.0</ele>
        <time>2013-07-03T12:51:38Z</time>
      </trkpt>
      <trkpt lat="40.117867" lon="-4.858083">
        <ele>2437.0</ele>
        <time>2013-07-03T12:51:39Z</time>
      </trkpt>
      <trkpt lat="40.117767" lon="-4.858033">
        <ele>2435.0</ele>
        <time>2013-07-03T12:51:40Z</time>
      </trkpt>
      <trkpt lat="40.117650" lon="-4.858000">
        <ele>2433.0</ele>
        <time>2013-07-03T12:51:41Z</time>
      </trkpt>
      <trkpt lat="40.117533" lon="-4.858000">
        <ele>2430.0</ele>
        <time>2013-07-03T12:51:42Z</time>
      </trkpt>
      <trkpt lat="40.117400" lon="-4.857983">
        <ele>2428.0</ele>
        <time>2013-07-03T12:51:43Z</time>
      </trkpt>
      <trkpt lat="40.117267" lon="-4.857950">
        <ele>2426.0</ele>
        <time>2013-07-03T12:51:44Z</time>
      </trkpt>
      <trkpt lat="40.117150" lon="-4.857917">
        <ele>2424.0</ele>
        <time>2013-07-03T12:51:45Z</time>
      </trkpt>
      <trkpt lat="40.117033" lon="-4.857867">
        <ele>2424.0</ele>
        <time>2013-07-03T12:51:46Z</time>
      </trkpt>
      <trkpt lat="40.116933" lon="-4.857817">
        <ele>2423.0</ele>
        <time>2013-07-03T12:51:47Z</time>
      </trkpt>
      <trkpt lat="40.116833" lon="-4.857767">
        <ele>2421.0</ele>
        <time>2013-07-03T12:51:48Z</time>
      </trkpt>
      <trkpt lat="40.116733" lon="-4.857717">
        <ele>2420.0</ele>
        <time>2013-07-03T12:51:49Z</time>
      </trkpt>
      <trkpt lat="40.116633" lon="-4.857667">
        <ele>2417.0</ele>
        <time>2013-07-03T12:51:50Z</time>
      </trkpt>
      <trkpt lat="40.116517" lon="-4.857600">
        <ele>2416.0</ele>
        <time>2013-07-03T12:51:51Z</time>
      </trkpt>
      <trkpt lat="40.116400" lon="-4.857533">
        <ele>2414.0</ele>
        <time>2013-07-03T12:51:52Z</time>
      </trkpt>
      <trkpt lat="40.116300" lon="-4.857467">
        <ele>2414.0</ele>
        <time>2013-07-03T12:51:53Z</time>
      </trkpt>
      <trkpt lat="40.116217" lon="-4.857383">
        <ele>2413.0</ele>
        <time>2013-07-03T12:51:54Z</time>
      </trkpt>
      <trkpt lat="40.116133" lon="-4.857317">
        <ele>2411.0</ele>
        <time>2013-07-03T12:51:55Z</time>
      </trkpt>
      <trkpt lat="40.116050" lon="-4.857250">
        <ele>2409.0</ele>
        <time>2013-07-03T12:51:56Z</time>
      </trkpt>
      <trkpt lat="40.115967" lon="-4.857167">
        <ele>2406.0</ele>
        <time>2013-07-03T12:51:57Z</time>
      </trkpt>
      <trkpt lat="40.115883" lon="-4.857083">
        <ele>2402.0</ele>
        <time>2013-07-03T12:51:58Z</time>
      </trkpt>
      <trkpt lat="40.115783" lon="-4.856983">
        <ele>2399.0</ele>
        <time>2013-07-03T12:51:59Z</time>
      </trkpt>
      <trkpt lat="40.115683" lon="-4.856900">
        <ele>2397.0</ele>
        <time>2013-07-03T12:52:00Z</time>
      </trkpt>
      <trkpt lat="40.115600" lon="-4.856833">
        <ele>2396.0</ele>
        <time>2013-07-03T12:52:01Z</time>
      </trkpt>
      <trkpt lat="40.115533" lon="-4.856767">
        <ele>2394.0</ele>
        <time>2013-07-03T12:52:02Z</time>
      </trkpt>
      <trkpt lat="40.115467" lon="-4.856683">
        <ele>2390.0</ele>
        <time>2013-07-03T12:52:03Z</time>
      </trkpt>
      <trkpt lat="40.115383" lon="-4.856600">
        <ele>2386.0</ele>
        <time>2013-07-03T12:52:04Z</time>
      </trkpt>
      <trkpt lat="40.115300" lon="-4.856517">
        <ele>2380.0</ele>
        <time>2013-07-03T12:52:05Z</time>
      </trkpt>
      <trkpt lat="40.115200" lon="-4.856433">
        <ele>2376.0</ele>
        <time>2013-07-03T12:52:06Z</time>
      </trkpt>
      <trkpt lat="40.115100" lon="-4.856367">
        <ele>2371.0</ele>
        <time>2013-07-03T12:52:07Z</time>
      </trkpt>
      <trkpt lat="40.115000" lon="-4.856300">
        <ele>2368.0</ele>
        <time>2013-07-03T12:52:08Z</time>
      </trkpt>
      <trkpt lat="40.114917" lon="-4.856233">
        <ele>2365.0</ele>
        <time>2013-07-03T12:52:09Z</time>
      </trkpt>
      <trkpt lat="40.114817" lon="-4.856183">
        <ele>2361.0</ele>
        <time>2013-07-03T12:52:10Z</time>
      </trkpt>
      <trkpt lat="40.114717" lon="-4.856117">
        <ele>2355.0</ele>
        <time>2013-07-03T12:52:11Z</time>
      </trkpt>
      <trkpt lat="40.114617" lon="-4.856067">
        <ele>2350.0</ele>
        <time>2013-07-03T12:52:12Z</time>
      </trkpt>
      <trkpt lat="40.114500" lon="-4.856000">
        <ele>2344.0</ele>
        <time>2013-07-03T12:52:13Z</time>
      </trkpt>
      <trkpt lat="40.114400" lon="-4.855917">
        <ele>2339.0</ele>
        <time>2013-07-03T12:52:14Z</time>
      </trkpt>
      <trkpt lat="40.114283" lon="-4.855833">
        <ele>2334.0</ele>
        <time>2013-07-03T12:52:15Z</time>
      </trkpt>
      <trkpt lat="40.114167" lon="-4.855750">
        <ele>2329.0</ele>
        <time>2013-07-03T12:52:16Z</time>
      </trkpt>
      <trkpt lat="40.114050" lon="-4.855667">
        <ele>2325.0</ele>
        <time>2013-07-03T12:52:17Z</time>
      </trkpt>
      <trkpt lat="40.113933" lon="-4.855600">
        <ele>2321.0</ele>
        <time>2013-07-03T12:52:18Z</time>
      </trkpt>
      <trkpt lat="40.113817" lon="-4.855533">
        <ele>2317.0</ele>
        <time>2013-07-03T12:52:19Z</time>
      </trkpt>
      <trkpt lat="40.113700" lon="-4.855467">
        <ele>2313.0</ele>
        <time>2013-07-03T12:52:20Z</time>
      </trkpt>
      <trkpt lat="40.113583" lon="-4.855383">
        <ele>2309.0</ele>
        <time>2013-07-03T12:52:21Z</time>
      </trkpt>
      <trkpt lat="40.113450" lon="-4.855300">
        <ele>2306.0</ele>
        <time>2013-07-03T12:52:22Z</time>
      </trkpt>
      <trkpt lat="40.113333" lon="-4.855233">
        <ele>2302.0</ele>
        <time>2013-07-03T12:52:23Z</time>
      </trkpt>
      <trkpt lat="40.113200" lon="-4.855167">
        <ele>2299.0</ele>
        <time>2013-07-03T12:52:24Z</time>
      </trkpt>
      <trkpt lat="40.113083" lon="-4.855117">
        <ele>2297.0</ele>
        <time>2013-07-03T12:52:25Z</time>
      </trkpt>
      <trkpt lat="40.112983" lon="-4.855067">
        <ele>2297.0</ele>
        <time>2013-07-03T12:52:26Z</time>
      </trkpt>
      <trkpt lat="40.112883" lon="-4.855017">
        <ele>2295.0</ele>
        <time>2013-07-03T12:52:27Z</time>
      </trkpt>
      <trkpt lat="40.112767" lon="-4.854967">
        <ele>2293.0</ele>
        <time>2013-07-03T12:52:28Z</time>
      </trkpt>
      <trkpt lat="40.112667" lon="-4.854917">
        <ele>2289.0</ele>
        <time>2013-07-03T12:52:29Z</time>
      </trkpt>
      <trkpt lat="40.112533" lon="-4.854867">
        <ele>2286.0</ele>
        <time>2013-07-03T12:52:30Z</time>
      </trkpt>
      <trkpt lat="40.112400" lon="-4.854833">
        <ele>2283.0</ele>
        <time>2013-07-03T12:52:31Z</time>
      </trkpt>
      <trkpt lat="40.112267" lon="-4.854800">
        <ele>2282.0</ele>
        <time>2013-07-03T12:52:32Z</time>
      </trkpt>
      <trkpt lat="40.112150" lon="-4.854767">
        <ele>2281.0</ele>
        <time>2013-07-03T12:52:33Z</time>
      </trkpt>
      <trkpt lat="40.112033" lon="-4.854733">
        <ele>2279.0</ele>
        <time>2013-07-03T12:52:34Z</time>
      </trkpt>
      <trkpt lat="40.111917" lon="-4.854700">
        <ele>2276.0</ele>
        <time>2013-07-03T12:52:35Z</time>
      </trkpt>
      <trkpt lat="40.111800" lon="-4.854683">
        <ele>2273.0</ele>
        <time>2013-07-03T12:52:36Z</time>
      </trkpt>
      <trkpt lat="40.111667" lon="-4.854650">
        <ele>2271.0</ele>
        <time>2013-07-03T12:52:37Z</time>
      </trkpt>
      <trkpt lat="40.111550" lon="-4.854633">
        <ele>2268.0</ele>
        <time>2013-07-03T12:52:38Z</time>
      </trkpt>
      <trkpt lat="40.111417" lon="-4.854617">
        <ele>2266.0</ele>
        <time>2013-07-03T12:52:39Z</time>
      </trkpt>
      <trkpt lat="40.111283" lon="-4.854617">
        <ele>2264.0</ele>
        <time>2013-07-03T12:52:40Z</time>
      </trkpt>
      <trkpt lat="40.111167" lon="-4.854617">
        <ele>2262.0</ele>
        <time>2013-07-03T12:52:41Z</time>
      </trkpt>
      <trkpt lat="40.111033" lon="-4.854617">
        <ele>2260.0</ele>
        <time>2013-07-03T12:52:42Z</time>
      </trkpt>
      <trkpt lat="40.110917" lon="-4.854617">
        <ele>2257.0</ele>
        <time>2013-07-03T12:52:43Z</time>
      </trkpt>
      <trkpt lat="40.110783" lon="-4.854617">
        <ele>2253.0</ele>
        <time>2013-07-03T12:52:44Z</time>
      </trkpt>
      <trkpt lat="40.110650" lon="-4.854617">
        <ele>2251.0</ele>
        <time>2013-07-03T12:52:45Z</time>
      </trkpt>
      <trkpt lat="40.110533" lon="-4.854600">
        <ele>2248.0</ele>
        <time>2013-07-03T12:52:46Z</time>
      </trkpt>
      <trkpt lat="40.110417" lon="-4.854583">
        <ele>2247.0</ele>
        <time>2013-07-03T12:52:47Z</time>
      </trkpt>
      <trkpt lat="40.110300" lon="-4.854567">
        <ele>2245.0</ele>
        <time>2013-07-03T12:52:48Z</time>
      </trkpt>
      <trkpt lat="40.110200" lon="-4.854550">
        <ele>2242.0</ele>
        <time>2013-07-03T12:52:49Z</time>
      </trkpt>
      <trkpt lat="40.110083" lon="-4.854517">
        <ele>2239.0</ele>
        <time>2013-07-03T12:52:50Z</time>
      </trkpt>
      <trkpt lat="40.109950" lon="-4.854500">
        <ele>2236.0</ele>
        <time>2013-07-03T12:52:51Z</time>
      </trkpt>
      <trkpt lat="40.109833" lon="-4.854467">
        <ele>2233.0</ele>
        <time>2013-07-03T12:52:52Z</time>
      </trkpt>
      <trkpt lat="40.109717" lon="-4.854450">
        <ele>2231.0</ele>
        <time>2013-07-03T12:52:53Z</time>
      </trkpt>
      <trkpt lat="40.109600" lon="-4.854433">
        <ele>2228.0</ele>
        <time>2013-07-03T12:52:54Z</time>
      </trkpt>
      <trkpt lat="40.109483" lon="-4.854433">
        <ele>2225.0</ele>
        <time>2013-07-03T12:52:55Z</time>
      </trkpt>
      <trkpt lat="40.109367" lon="-4.854417">
        <ele>2222.0</ele>
        <time>2013-07-03T12:52:56Z</time>
      </trkpt>
      <trkpt lat="40.109233" lon="-4.854383">
        <ele>2218.0</ele>
        <time>2013-07-03T12:52:57Z</time>
      </trkpt>
      <trkpt lat="40.109117" lon="-4.854350">
        <ele>2215.0</ele>
        <time>2013-07-03T12:52:58Z</time>
      </trkpt>
      <trkpt lat="40.109000" lon="-4.854317">
        <ele>2213.0</ele>
        <time>2013-07-03T12:52:59Z</time>
      </trkpt>
      <trkpt lat="40.108900" lon="-4.854283">
        <ele>2210.0</ele>
        <time>2013-07-03T12:53:00Z</time>
      </trkpt>
      <trkpt lat="40.108783" lon="-4.854233">
        <ele>2208.0</ele>
        <time>2013-07-03T12:53:01Z</time>
      </trkpt>
      <trkpt lat="40.108683" lon="-4.854183">
        <ele>2206.0</ele>
        <time>2013-07-03T12:53:02Z</time>
      </trkpt>
      <trkpt lat="40.108583" lon="-4.854117">
        <ele>2203.0</ele>
        <time>2013-07-03T12:53:03Z</time>
      </trkpt>
      <trkpt lat="40.108483" lon="-4.854033">
        <ele>2200.0</ele>
        <time>2013-07-03T12:53:04Z</time>
      </trkpt>
      <trkpt lat="40.108383" lon="-4.853950">
        <ele>2197.0</ele>
        <time>2013-07-03T12:53:05Z</time>
      </trkpt>
      <trkpt lat="40.108283" lon="-4.853850">
        <ele>2195.0</ele>
        <time>2013-07-03T12:53:06Z</time>
      </trkpt>
      <trkpt lat="40.108183" lon="-4.853750">
        <ele>2192.0</ele>
        <time>2013-07-03T12:53:07Z</time>
      </trkpt>
      <trkpt lat="40.108083" lon="-4.853667">
        <ele>2190.0</ele>
        <time>2013-07-03T12:53:08Z</time>
      </trkpt>
      <trkpt lat="40.107983" lon="-4.853583">
        <ele>2188.0</ele>
        <time>2013-07-03T12:53:09Z</time>
      </trkpt>
      <trkpt lat="40.107883" lon="-4.853500">
        <ele>2186.0</ele>
        <time>2013-07-03T12:53:10Z</time>
      </trkpt>
      <trkpt lat="40.107767" lon="-4.853433">
        <ele>2183.0</ele>
        <time>2013-07-03T12:53:11Z</time>
      </trkpt>
      <trkpt lat="40.107650" lon="-4.853350">
        <ele>2181.0</ele>
        <time>2013-07-03T12:53:12Z</time>
      </trkpt>
      <trkpt lat="40.107533" lon="-4.853267">
        <ele>2178.0</ele>
        <time>2013-07-03T12:53:13Z</time>
      </trkpt>
      <trkpt lat="40.107417" lon="-4.853200">
        <ele>2176.0</ele>
        <time>2013-07-03T12:53:14Z</time>
      </trkpt>
      <trkpt lat="40.107300" lon="-4.853133">
        <ele>2174.0</ele>
        <time>2013-07-03T12:53:15Z</time>
      </trkpt>
      <trkpt lat="40.107183" lon="-4.853067">
        <ele>2173.0</ele>
        <time>2013-07-03T12:53:16Z</time>
      </trkpt>
      <trkpt lat="40.107083" lon="-4.853017">
        <ele>2172.0</ele>
        <time>2013-07-03T12:53:17Z</time>
      </trkpt>
      <trkpt lat="40.106967" lon="-4.852967">
        <ele>2171.0</ele>
        <time>2013-07-03T12:53:18Z</time>
      </trkpt>
      <trkpt lat="40.106883" lon="-4.852900">
        <ele>2169.0</ele>
        <time>2013-07-03T12:53:19Z</time>
      </trkpt>
      <trkpt lat="40.106783" lon="-4.852833">
        <ele>2167.0</ele>
        <time>2013-07-03T12:53:20Z</time>
      </trkpt>
      <trkpt lat="40.106683" lon="-4.852767">
        <ele>2163.0</ele>
        <time>2013-07-03T12:53:21Z</time>
      </trkpt>
      <trkpt lat="40.106567" lon="-4.852700">
        <ele>2160.0</ele>
        <time>2013-07-03T12:53:22Z</time>
      </trkpt>
      <trkpt lat="40.106450" lon="-4.852650">
        <ele>2156.0</ele>
        <time>2013-07-03T12:53:23Z</time>
      </trkpt>
      <trkpt lat="40.106333" lon="-4.852583">
        <ele>2154.0</ele>
        <time>2013-07-03T12:53:24Z</time>
      </trkpt>
      <trkpt lat="40.106217" lon="-4.852533">
        <ele>2151.0</ele>
        <time>2013-07-03T12:53:25Z</time>
      </trkpt>
      <trkpt lat="40.106117" lon="-4.852467">
        <ele>2149.0</ele>
        <time>2013-07-03T12:53:26Z</time>
      </trkpt>
      <trkpt lat="40.106000" lon="-4.852417">
        <ele>2145.0</ele>
        <time>2013-07-03T12:53:27Z</time>
      </trkpt>
      <trkpt lat="40.105883" lon="-4.852350">
        <ele>2141.0</ele>
        <time>2013-07-03T12:53:28Z</time>
      </trkpt>
      <trkpt lat="40.105767" lon="-4.852283">
        <ele>2136.0</ele>
        <time>2013-07-03T12:53:29Z</time>
      </trkpt>
      <trkpt lat="40.105633" lon="-4.852200">
        <ele>2132.0</ele>
        <time>2013-07-03T12:53:30Z</time>
      </trkpt>
      <trkpt lat="40.105517" lon="-4.852117">
        <ele>2128.0</ele>
        <time>2013-07-03T12:53:31Z</time>
      </trkpt>
      <trkpt lat="40.105400" lon="-4.852033">
        <ele>2126.0</ele>
        <time>2013-07-03T12:53:32Z</time>
      </trkpt>
      <trkpt lat="40.105283" lon="-4.851967">
        <ele>2124.0</ele>
        <time>2013-07-03T12:53:33Z</time>
      </trkpt>
      <trkpt lat="40.105167" lon="-4.851917">
        <ele>2122.0</ele>
        <time>2013-07-03T12:53:34Z</time>
      </trkpt>
      <trkpt lat="40.105050" lon="-4.851850">
        <ele>2118.0</ele>
        <time>2013-07-03T12:53:35Z</time>
      </trkpt>
      <trkpt lat="40.104917" lon="-4.851800">
        <ele>2115.0</ele>
        <time>2013-07-03T12:53:36Z</time>
      </trkpt>
      <trkpt lat="40.104783" lon="-4.851733">
        <ele>2112.0</ele>
        <time>2013-07-03T12:53:37Z</time>
      </trkpt>
      <trkpt lat="40.104650" lon="-4.851667">
        <ele>2110.0</ele>
        <time>2013-07-03T12:53:38Z</time>
      </trkpt>
      <trkpt lat="40.104533" lon="-4.851583">
        <ele>2109.0</ele>
        <time>2013-07-03T12:53:39Z</time>
      </trkpt>
      <trkpt lat="40.104433" lon="-4.851517">
        <ele>2107.0</ele>
        <time>2013-07-03T12:53:40Z</time>
      </trkpt>
      <trkpt lat="40.104317" lon="-4.851433">
        <ele>2105.0</ele>
        <time>2013-07-03T12:53:41Z</time>
      </trkpt>
      <trkpt lat="40.104200" lon="-4.851350">
        <ele>2101.0</ele>
        <time>2013-07-03T12:53:42Z</time>
      </trkpt>
      <trkpt lat="40.104067" lon="-4.851250">
        <ele>2099.0</ele>
        <time>2013-07-03T12:53:43Z</time>
      </trkpt>
      <trkpt lat="40.103933" lon="-4.851167">
        <ele>2098.0</ele>
        <time>2013-07-03T12:53:44Z</time>
      </trkpt>
      <trkpt lat="40.103817" lon="-4.851083">
        <ele>2097.0</ele>
        <time>2013-07-03T12:53:45Z</time>
      </trkpt>
      <trkpt lat="40.103700" lon="-4.851017">
        <ele>2097.0</ele>
        <time>2013-07-03T12:53:46Z</time>
      </trkpt>
      <trkpt lat="40.103600" lon="-4.850950">
        <ele>2096.0</ele>
        <time>2013-07-03T12:53:47Z</time>
      </trkpt>
      <trkpt lat="40.103500" lon="-4.850867">
        <ele>2094.0</ele>
        <time>2013-07-03T12:53:48Z</time>
      </trkpt>
      <trkpt lat="40.103400" lon="-4.850783">
        <ele>2092.0</ele>
        <time>2013-07-03T12:53:49Z</time>
      </trkpt>
      <trkpt lat="40.103267" lon="-4.850700">
        <ele>2090.0</ele>
        <time>2013-07-03T12:53:50Z</time>
      </trkpt>
      <trkpt lat="40.103150" lon="-4.850633">
        <ele>2087.0</ele>
        <time>2013-07-03T12:53:51Z</time>
      </trkpt>
      <trkpt lat="40.103017" lon="-4.850550">
        <ele>2085.0</ele>
        <time>2013-07-03T12:53:52Z</time>
      </trkpt>
      <trkpt lat="40.102917" lon="-4.850467">
        <ele>2084.0</ele>
        <time>2013-07-03T12:53:53Z</time>
      </trkpt>
      <trkpt lat="40.102800" lon="-4.850400">
        <ele>2082.0</ele>
        <time>2013-07-03T12:53:54Z</time>
      </trkpt>
      <trkpt lat="40.102717" lon="-4.850333">
        <ele>2080.0</ele>
        <time>2013-07-03T12:53:55Z</time>
      </trkpt>
      <trkpt lat="40.102600" lon="-4.850267">
        <ele>2077.0</ele>
        <time>2013-07-03T12:53:56Z</time>
      </trkpt>
      <trkpt lat="40.102500" lon="-4.850217">
        <ele>2073.0</ele>
        <time>2013-07-03T12:53:57Z</time>
      </trkpt>
      <trkpt lat="40.102367" lon="-4.850150">
        <ele>2069.0</ele>
        <time>2013-07-03T12:53:58Z</time>
      </trkpt>
      <trkpt lat="40.102250" lon="-4.850083">
        <ele>2065.0</ele>
        <time>2013-07-03T12:53:59Z</time>
      </trkpt>
      <trkpt lat="40.102117" lon="-4.850033">
        <ele>2062.0</ele>
        <time>2013-07-03T12:54:00Z</time>
      </trkpt>
      <trkpt lat="40.101983" lon="-4.849983">
        <ele>2061.0</ele>
        <time>2013-07-03T12:54:01Z</time>
      </trkpt>
      <trkpt lat="40.101883" lon="-4.849900">
        <ele>2060.0</ele>
        <time>2013-07-03T12:54:02Z</time>
      </trkpt>
      <trkpt lat="40.101800" lon="-4.849833">
        <ele>2058.0</ele>
        <time>2013-07-03T12:54:03Z</time>
      </trkpt>
      <trkpt lat="40.101700" lon="-4.849767">
        <ele>2056.0</ele>
        <time>2013-07-03T12:54:04Z</time>
      </trkpt>
      <trkpt lat="40.101600" lon="-4.849700">
        <ele>2052.0</ele>
        <time>2013-07-03T12:54:05Z</time>
      </trkpt>
      <trkpt lat="40.101500" lon="-4.849650">
        <ele>2049.0</ele>
        <time>2013-07-03T12:54:06Z</time>
      </trkpt>
      <trkpt lat="40.101383" lon="-4.849600">
        <ele>2045.0</ele>
        <time>2013-07-03T12:54:07Z</time>
      </trkpt>
      <trkpt lat="40.101267" lon="-4.849533">
        <ele>2042.0</ele>
        <time>2013-07-03T12:54:08Z</time>
      </trkpt>
      <trkpt lat="40.101167" lon="-4.849467">
        <ele>2040.0</ele>
        <time>2013-07-03T12:54:09Z</time>
      </trkpt>
      <trkpt lat="40.101067" lon="-4.849400">
        <ele>2037.0</ele>
        <time>2013-07-03T12:54:10Z</time>
      </trkpt>
      <trkpt lat="40.100967" lon="-4.849350">
        <ele>2034.0</ele>
        <time>2013-07-03T12:54:11Z</time>
      </trkpt>
      <trkpt lat="40.100867" lon="-4.849300">
        <ele>2031.0</ele>
        <time>2013-07-03T12:54:12Z</time>
      </trkpt>
      <trkpt lat="40.100767" lon="-4.849250">
        <ele>2027.0</ele>
        <time>2013-07-03T12:54:13Z</time>
      </trkpt>
      <trkpt lat="40.100667" lon="-4.849183">
        <ele>2022.0</ele>
        <time>2013-07-03T12:54:14Z</time>
      </trkpt>
      <trkpt lat="40.100550" lon="-4.849133">
        <ele>2018.0</ele>
        <time>2013-07-03T12:54:15Z</time>
      </trkpt>
      <trkpt lat="40.100433" lon="-4.849067">
        <ele>2014.0</ele>
        <time>2013-07-03T12:54:16Z</time>
      </trkpt>
      <trkpt lat="40.100317" lon="-4.849017">
        <ele>2011.0</ele>
        <time>2013-07-03T12:54:17Z</time>
      </trkpt>
      <trkpt lat="40.100200" lon="-4.848967">
        <ele>2008.0</ele>
        <time>2013-07-03T12:54:18Z</time>
      </trkpt>
      <trkpt lat="40.100100" lon="-4.848933">
        <ele>2005.0</ele>
        <time>2013-07-03T12:54:19Z</time>
      </trkpt>
      <trkpt lat="40.099983" lon="-4.848883">
        <ele>2002.0</ele>
        <time>2013-07-03T12:54:20Z</time>
      </trkpt>
      <trkpt lat="40.099867" lon="-4.848817">
        <ele>1998.0</ele>
        <time>2013-07-03T12:54:21Z</time>
      </trkpt>
      <trkpt lat="40.099750" lon="-4.848767">
        <ele>1995.0</ele>
        <time>2013-07-03T12:54:22Z</time>
      </trkpt>
      <trkpt lat="40.099633" lon="-4.848733">
        <ele>1992.0</ele>
        <time>2013-07-03T12:54:23Z</time>
      </trkpt>
      <trkpt lat="40.099533" lon="-4.848683">
        <ele>1991.0</ele>
        <time>2013-07-03T12:54:24Z</time>
      </trkpt>
      <trkpt lat="40.099433" lon="-4.848650">
        <ele>1991.0</ele>
        <time>2013-07-03T12:54:25Z</time>
      </trkpt>
      <trkpt lat="40.099333" lon="-4.848600">
        <ele>1991.0</ele>
        <time>2013-07-03T12:54:26Z</time>
      </trkpt>
      <trkpt lat="40.099250" lon="-4.848550">
        <ele>1989.0</ele>
        <time>2013-07-03T12:54:27Z</time>
      </trkpt>
      <trkpt lat="40.099150" lon="-4.848500">
        <ele>1988.0</ele>
        <time>2013-07-03T12:54:28Z</time>
      </trkpt>
      <trkpt lat="40.099050" lon="-4.848433">
        <ele>1986.0</ele>
        <time>2013-07-03T12:54:29Z</time>
      </trkpt>
      <trkpt lat="40.098933" lon="-4.848367">
        <ele>1985.0</ele>
        <time>2013-07-03T12:54:30Z</time>
      </trkpt>
      <trkpt lat="40.098817" lon="-4.848317">
        <ele>1985.0</ele>
        <time>2013-07-03T12:54:31Z</time>
      </trkpt>
      <trkpt lat="40.098733" lon="-4.848267">
        <ele>1987.0</ele>
        <time>2013-07-03T12:54:32Z</time>
      </trkpt>
      <trkpt lat="40.098650" lon="-4.848217">
        <ele>1988.0</ele>
        <time>2013-07-03T12:54:33Z</time>
      </trkpt>
      <trkpt lat="40.098567" lon="-4.848167">
        <ele>1988.0</ele>
        <time>2013-07-03T12:54:34Z</time>
      </trkpt>
      <trkpt lat="40.098467" lon="-4.848133">
        <ele>1988.0</ele>
        <time>2013-07-03T12:54:35Z</time>
      </trkpt>
      <trkpt lat="40.098350" lon="-4.848117">
        <ele>1987.0</ele>
        <time>2013-07-03T12:54:36Z</time>
      </trkpt>
      <trkpt lat="40.098250" lon="-4.848100">
        <ele>1986.0</ele>
        <time>2013-07-03T12:54:37Z</time>
      </trkpt>
      <trkpt lat="40.098133" lon="-4.848050">
        <ele>1987.0</ele>
        <time>2013-07-03T12:54:38Z</time>
      </trkpt>
      <trkpt lat="40.098050" lon="-4.848000">
        <ele>1988.0</ele>
        <time>2013-07-03T12:54:39Z</time>
      </trkpt>
      <trkpt lat="40.097983" lon="-4.847950">
        <ele>1990.0</ele>
        <time>2013-07-03T12:54:40Z</time>
      </trkpt>
      <trkpt lat="40.097900" lon="-4.847917">
        <ele>1992.0</ele>
        <time>2013-07-03T12:54:41Z</time>
      </trkpt>
      <trkpt lat="40.097817" lon="-4.847883">
        <ele>1994.0</ele>
        <time>2013-07-03T12:54:42Z</time>
      </trkpt>
      <trkpt lat="40.097750" lon="-4.847850">
        <ele>1998.0</ele>
        <time>2013-07-03T12:54:43Z</time>
      </trkpt>
      <trkpt lat="40.097683" lon="-4.847817">
        <ele>2001.0</ele>
        <time>2013-07-03T12:54:44Z</time>
      </trkpt>
      <trkpt lat="40.097633" lon="-4.847783">
        <ele>2004.0</ele>
        <time>2013-07-03T12:54:45Z</time>
      </trkpt>
      <trkpt lat="40.097583" lon="-4.847767">
        <ele>2007.0</ele>
        <time>2013-07-03T12:54:46Z</time>
      </trkpt>
      <trkpt lat="40.097533" lon="-4.847717">
        <ele>2008.0</ele>
        <time>2013-07-03T12:54:47Z</time>
      </trkpt>
      <trkpt lat="40.097483" lon="-4.847633">
        <ele>2008.0</ele>
        <time>2013-07-03T12:54:48Z</time>
      </trkpt>
      <trkpt lat="40.097450" lon="-4.847500">
        <ele>2010.0</ele>
        <time>2013-07-03T12:54:49Z</time>
      </trkpt>
      <trkpt lat="40.097433" lon="-4.847383">
        <ele>2013.0</ele>
        <time>2013-07-03T12:54:50Z</time>
      </trkpt>
      <trkpt lat="40.097450" lon="-4.847283">
        <ele>2017.0</ele>
        <time>2013-07-03T12:54:51Z</time>
      </trkpt>
      <trkpt lat="40.097483" lon="-4.847200">
        <ele>2020.0</ele>
        <time>2013-07-03T12:54:52Z</time>
      </trkpt>
      <trkpt lat="40.097533" lon="-4.847133">
        <ele>2021.0</ele>
        <time>2013-07-03T12:54:53Z</time>
      </trkpt>
      <trkpt lat="40.097600" lon="-4.847100">
        <ele>2023.0</ele>
        <time>2013-07-03T12:54:54Z</time>
      </trkpt>
      <trkpt lat="40.097667" lon="-4.847117">
        <ele>2023.0</ele>
        <time>2013-07-03T12:54:55Z</time>
      </trkpt>
      <trkpt lat="40.097717" lon="-4.847167">
        <ele>2023.0</ele>
        <time>2013-07-03T12:54:56Z</time>
      </trkpt>
      <trkpt lat="40.097733" lon="-4.847267">
        <ele>2023.0</ele>
        <time>2013-07-03T12:54:57Z</time>
      </trkpt>
      <trkpt lat="40.097717" lon="-4.847367">
        <ele>2023.0</ele>
        <time>2013-07-03T12:54:58Z</time>
      </trkpt>
      <trkpt lat="40.097683" lon="-4.847467">
        <ele>2023.0</ele>
        <time>2013-07-03T12:54:59Z</time>
      </trkpt>
      <trkpt lat="40.097617" lon="-4.847567">
        <ele>2024.0</ele>
        <time>2013-07-03T12:55:00Z</time>
      </trkpt>
      <trkpt lat="40.097533" lon="-4.847650">
        <ele>2025.0</ele>
        <time>2013-07-03T12:55:01Z</time>
      </trkpt>
      <trkpt lat="40.097467" lon="-4.847733">
        <ele>2027.0</ele>
        <time>2013-07-03T12:55:02Z</time>
      </trkpt>
      <trkpt lat="40.097383" lon="-4.847767">
        <ele>2030.0</ele>
        <time>2013-07-03T12:55:03Z</time>
      </trkpt>
      <trkpt lat="40.097317" lon="-4.847800">
        <ele>2034.0</ele>
        <time>2013-07-03T12:55:04Z</time>
      </trkpt>
      <trkpt lat="40.097233" lon="-4.847817">
        <ele>2037.0</ele>
        <time>2013-07-03T12:55:05Z</time>
      </trkpt>
      <trkpt lat="40.097167" lon="-4.847833">
        <ele>2040.0</ele>
        <time>2013-07-03T12:55:06Z</time>
      </trkpt>
      <trkpt lat="40.097083" lon="-4.847867">
        <ele>2042.0</ele>
        <time>2013-07-03T12:55:07Z</time>
      </trkpt>
      <trkpt lat="40.096983" lon="-4.847883">
        <ele>2044.0</ele>
        <time>2013-07-03T12:55:08Z</time>
      </trkpt>
      <trkpt lat="40.096900" lon="-4.847883">
        <ele>2047.0</ele>
        <time>2013-07-03T12:55:09Z</time>
      </trkpt>
      <trkpt lat="40.096833" lon="-4.847850">
        <ele>2049.0</ele>
        <time>2013-07-03T12:55:10Z</time>
      </trkpt>
      <trkpt lat="40.096767" lon="-4.847817">
        <ele>2050.0</ele>
        <time>2013-07-03T12:55:11Z</time>
      </trkpt>
      <trkpt lat="40.096700" lon="-4.847783">
        <ele>2051.0</ele>
        <time>2013-07-03T12:55:12Z</time>
      </trkpt>
      <trkpt lat="40.096633" lon="-4.847733">
        <ele>2052.0</ele>
        <time>2013-07-03T12:55:13Z</time>
      </trkpt>
      <trkpt lat="40.096567" lon="-4.847683">
        <ele>2054.0</ele>
        <time>2013-07-03T12:55:14Z</time>
      </trkpt>
      <trkpt lat="40.096517" lon="-4.847617">
        <ele>2056.0</ele>
        <time>2013-07-03T12:55:15Z</time>
      </trkpt>
      <trkpt lat="40.096467" lon="-4.847550">
        <ele>2057.0</ele>
        <time>2013-07-03T12:55:16Z</time>
      </trkpt>
      <trkpt lat="40.096433" lon="-4.847467">
        <ele>2058.0</ele>
        <time>2013-07-03T12:55:17Z</time>
      </trkpt>
      <trkpt lat="40.096383" lon="-4.847367">
        <ele>2060.0</ele>
        <time>2013-07-03T12:55:18Z</time>
      </trkpt>
      <trkpt lat="40.096350" lon="-4.847283">
        <ele>2061.0</ele>
        <time>2013-07-03T12:55:19Z</time>
      </trkpt>
      <trkpt lat="40.096300" lon="-4.847200">
        <ele>2064.0</ele>
        <time>2013-07-03T12:55:20Z</time>
      </trkpt>
      <trkpt lat="40.096267" lon="-4.847133">
        <ele>2065.0</ele>
        <time>2013-07-03T12:55:21Z</time>
      </trkpt>
      <trkpt lat="40.096250" lon="-4.847067">
        <ele>2066.0</ele>
        <time>2013-07-03T12:55:22Z</time>
      </trkpt>
      <trkpt lat="40.096217" lon="-4.846983">
        <ele>2067.0</ele>
        <time>2013-07-03T12:55:23Z</time>
      </trkpt>
      <trkpt lat="40.096183" lon="-4.846867">
        <ele>2068.0</ele>
        <time>2013-07-03T12:55:24Z</time>
      </trkpt>
      <trkpt lat="40.096167" lon="-4.846733">
        <ele>2070.0</ele>
        <time>2013-07-03T12:55:25Z</time>
      </trkpt>
      <trkpt lat="40.096167" lon="-4.846617">
        <ele>2073.0</ele>
        <time>2013-07-03T12:55:26Z</time>
      </trkpt>
      <trkpt lat="40.096167" lon="-4.846517">
        <ele>2078.0</ele>
        <time>2013-07-03T12:55:27Z</time>
      </trkpt>
      <trkpt lat="40.096167" lon="-4.846433">
        <ele>2081.0</ele>
        <time>2013-07-03T12:55:28Z</time>
      </trkpt>
      <trkpt lat="40.096167" lon="-4.846383">
        <ele>2084.0</ele>
        <time>2013-07-03T12:55:29Z</time>
      </trkpt>
      <trkpt lat="40.096200" lon="-4.846333">
        <ele>2086.0</ele>
        <time>2013-07-03T12:55:30Z</time>
      </trkpt>
      <trkpt lat="40.096233" lon="-4.846283">
        <ele>2086.0</ele>
        <time>2013-07-03T12:55:31Z</time>
      </trkpt>
      <trkpt lat="40.096283" lon="-4.846250">
        <ele>2087.0</ele>
        <time>2013-07-03T12:55:32Z</time>
      </trkpt>
      <trkpt lat="40.096350" lon="-4.846267">
        <ele>2088.0</ele>
        <time>2013-07-03T12:55:33Z</time>
      </trkpt>
      <trkpt lat="40.096383" lon="-4.846317">
        <ele>2090.0</ele>
        <time>2013-07-03T12:55:34Z</time>
      </trkpt>
      <trkpt lat="40.096400" lon="-4.846400">
        <ele>2091.0</ele>
        <time>2013-07-03T12:55:35Z</time>
      </trkpt>
      <trkpt lat="40.096383" lon="-4.846483">
        <ele>2093.0</ele>
        <time>2013-07-03T12:55:36Z</time>
      </trkpt>
      <trkpt lat="40.096350" lon="-4.846583">
        <ele>2095.0</ele>
        <time>2013-07-03T12:55:37Z</time>
      </trkpt>
      <trkpt lat="40.096300" lon="-4.846650">
        <ele>2097.0</ele>
        <time>2013-07-03T12:55:38Z</time>
      </trkpt>
      <trkpt lat="40.096250" lon="-4.846717">
        <ele>2099.0</ele>
        <time>2013-07-03T12:55:39Z</time>
      </trkpt>
      <trkpt lat="40.096200" lon="-4.846800">
        <ele>2101.0</ele>
        <time>2013-07-03T12:55:40Z</time>
      </trkpt>
      <trkpt lat="40.096167" lon="-4.846883">
        <ele>2104.0</ele>
        <time>2013-07-03T12:55:41Z</time>
      </trkpt>
      <trkpt lat="40.096133" lon="-4.846950">
        <ele>2108.0</ele>
        <time>2013-07-03T12:55:42Z</time>
      </trkpt>
      <trkpt lat="40.096100" lon="-4.847017">
        <ele>2111.0</ele>
        <time>2013-07-03T12:55:43Z</time>
      </trkpt>
      <trkpt lat="40.096050" lon="-4.847050">
        <ele>2113.0</ele>
        <time>2013-07-03T12:55:44Z</time>
      </trkpt>
      <trkpt lat="40.095967" lon="-4.847067">
        <ele>2114.0</ele>
        <time>2013-07-03T12:55:45Z</time>
      </trkpt>
      <trkpt lat="40.095883" lon="-4.847067">
        <ele>2115.0</ele>
        <time>2013-07-03T12:55:46Z</time>
      </trkpt>
      <trkpt lat="40.095783" lon="-4.847050">
        <ele>2117.0</ele>
        <time>2013-07-03T12:55:47Z</time>
      </trkpt>
      <trkpt lat="40.095700" lon="-4.847033">
        <ele>2119.0</ele>
        <time>2013-07-03T12:55:48Z</time>
      </trkpt>
      <trkpt lat="40.095617" lon="-4.846983">
        <ele>2120.0</ele>
        <time>2013-07-03T12:55:49Z</time>
      </trkpt>
      <trkpt lat="40.095567" lon="-4.846933">
        <ele>2121.0</ele>
        <time>2013-07-03T12:55:50Z</time>
      </trkpt>
      <trkpt lat="40.095517" lon="-4.846867">
        <ele>2122.0</ele>
        <time>2013-07-03T12:55:51Z</time>
      </trkpt>
      <trkpt lat="40.095467" lon="-4.846800">
        <ele>2120.0</ele>
        <time>2013-07-03T12:55:52Z</time>
      </trkpt>
      <trkpt lat="40.095417" lon="-4.846700">
        <ele>2120.0</ele>
        <time>2013-07-03T12:55:53Z</time>
      </trkpt>
      <trkpt lat="40.095383" lon="-4.846583">
        <ele>2120.0</ele>
        <time>2013-07-03T12:55:54Z</time>
      </trkpt>
      <trkpt lat="40.095350" lon="-4.846450">
        <ele>2121.0</ele>
        <time>2013-07-03T12:55:55Z</time>
      </trkpt>
      <trkpt lat="40.095317" lon="-4.846317">
        <ele>2123.0</ele>
        <time>2013-07-03T12:55:56Z</time>
      </trkpt>
      <trkpt lat="40.095250" lon="-4.846200">
        <ele>2126.0</ele>
        <time>2013-07-03T12:55:57Z</time>
      </trkpt>
      <trkpt lat="40.095200" lon="-4.846117">
        <ele>2129.0</ele>
        <time>2013-07-03T12:55:58Z</time>
      </trkpt>
      <trkpt lat="40.095150" lon="-4.846050">
        <ele>2131.0</ele>
        <time>2013-07-03T12:55:59Z</time>
      </trkpt>
      <trkpt lat="40.095133" lon="-4.845967">
        <ele>2132.0</ele>
        <time>2013-07-03T12:56:00Z</time>
      </trkpt>
      <trkpt lat="40.095150" lon="-4.845867">
        <ele>2130.0</ele>
        <time>2013-07-03T12:56:01Z</time>
      </trkpt>
      <trkpt lat="40.095167" lon="-4.845750">
        <ele>2130.0</ele>
        <time>2013-07-03T12:56:02Z</time>
      </trkpt>
      <trkpt lat="40.095200" lon="-4.845650">
        <ele>2131.0</ele>
        <time>2013-07-03T12:56:03Z</time>
      </trkpt>
      <trkpt lat="40.095250" lon="-4.845567">
        <ele>2133.0</ele>
        <time>2013-07-03T12:56:04Z</time>
      </trkpt>
      <trkpt lat="40.095283" lon="-4.845517">
        <ele>2135.0</ele>
        <time>2013-07-03T12:56:05Z</time>
      </trkpt>
      <trkpt lat="40.095333" lon="-4.845500">
        <ele>2137.0</ele>
        <time>2013-07-03T12:56:06Z</time>
      </trkpt>
      <trkpt lat="40.095383" lon="-4.845483">
        <ele>2139.0</ele>
        <time>2013-07-03T12:56:07Z</time>
      </trkpt>
      <trkpt lat="40.095433" lon="-4.845467">
        <ele>2140.0</ele>
        <time>2013-07-03T12:56:08Z</time>
      </trkpt>
      <trkpt lat="40.095483" lon="-4.845433">
        <ele>2142.0</ele>
        <time>2013-07-03T12:56:09Z</time>
      </trkpt>
      <trkpt lat="40.095533" lon="-4.845433">
        <ele>2143.0</ele>
        <time>2013-07-03T12:56:10Z</time>
      </trkpt>
      <trkpt lat="40.095583" lon="-4.845467">
        <ele>2144.0</ele>
        <time>2013-07-03T12:56:11Z</time>
      </trkpt>
      <trkpt lat="40.095633" lon="-4.845517">
        <ele>2147.0</ele>
        <time>2013-07-03T12:56:12Z</time>
      </trkpt>
      <trkpt lat="40.095667" lon="-4.845567">
        <ele>2149.0</ele>
        <time>2013-07-03T12:56:13Z</time>
      </trkpt>
      <trkpt lat="40.095700" lon="-4.845633">
        <ele>2151.0</ele>
        <time>2013-07-03T12:56:14Z</time>
      </trkpt>
      <trkpt lat="40.095683" lon="-4.845717">
        <ele>2153.0</ele>
        <time>2013-07-03T12:56:15Z</time>
      </trkpt>
      <trkpt lat="40.095650" lon="-4.845783">
        <ele>2155.0</ele>
        <time>2013-07-03T12:56:16Z</time>
      </trkpt>
      <trkpt lat="40.095583" lon="-4.845867">
        <ele>2156.0</ele>
        <time>2013-07-03T12:56:17Z</time>
      </trkpt>
      <trkpt lat="40.095517" lon="-4.845933">
        <ele>2157.0</ele>
        <time>2013-07-03T12:56:18Z</time>
      </trkpt>
      <trkpt lat="40.095450" lon="-4.846000">
        <ele>2158.0</ele>
        <time>2013-07-03T12:56:19Z</time>
      </trkpt>
      <trkpt lat="40.095383" lon="-4.846050">
        <ele>2159.0</ele>
        <time>2013-07-03T12:56:20Z</time>
      </trkpt>
      <trkpt lat="40.095317" lon="-4.846100">
        <ele>2160.0</ele>
        <time>2013-07-03T12:56:21Z</time>
      </trkpt>
      <trkpt lat="40.095250" lon="-4.846133">
        <ele>2161.0</ele>
        <time>2013-07-03T12:56:22Z</time>
      </trkpt>
      <trkpt lat="40.095167" lon="-4.846167">
        <ele>2162.0</ele>
        <time>2013-07-03T12:56:23Z</time>
      </trkpt>
      <trkpt lat="40.095083" lon="-4.846167">
        <ele>2163.0</ele>
        <time>2013-07-03T12:56:24Z</time>
      </trkpt>
      <trkpt lat="40.095000" lon="-4.846167">
        <ele>2164.0</ele>
        <time>2013-07-03T12:56:25Z</time>
      </trkpt>
      <trkpt lat="40.094917" lon="-4.846133">
        <ele>2165.0</ele>
        <time>2013-07-03T12:56:26Z</time>
      </trkpt>
      <trkpt lat="40.094833" lon="-4.846067">
        <ele>2166.0</ele>
        <time>2013-07-03T12:56:27Z</time>
      </trkpt>
      <trkpt lat="40.094767" lon="-4.845983">
        <ele>2167.0</ele>
        <time>2013-07-03T12:56:28Z</time>
      </trkpt>
      <trkpt lat="40.094700" lon="-4.845900">
        <ele>2169.0</ele>
        <time>2013-07-03T12:56:29Z</time>
      </trkpt>
      <trkpt lat="40.094650" lon="-4.845817">
        <ele>2170.0</ele>
        <time>2013-07-03T12:56:30Z</time>
      </trkpt>
      <trkpt lat="40.094617" lon="-4.845717">
        <ele>2171.0</ele>
        <time>2013-07-03T12:56:31Z</time>
      </trkpt>
      <trkpt lat="40.094583" lon="-4.845633">
        <ele>2172.0</ele>
        <time>2013-07-03T12:56:32Z</time>
      </trkpt>
      <trkpt lat="40.094550" lon="-4.845517">
        <ele>2172.0</ele>
        <time>2013-07-03T12:56:33Z</time>
      </trkpt>
      <trkpt lat="40.094517" lon="-4.845417">
        <ele>2172.0</ele>
        <time>2013-07-03T12:56:34Z</time>
      </trkpt>
      <trkpt lat="40.094500" lon="-4.845300">
        <ele>2172.0</ele>
        <time>2013-07-03T12:56:35Z</time>
      </trkpt>
      <trkpt lat="40.094500" lon="-4.845200">
        <ele>2172.0</ele>
        <time>2013-07-03T12:56:36Z</time>
      </trkpt>
      <trkpt lat="40.094500" lon="-4.845100">
        <ele>2171.0</ele>
        <time>2013-07-03T12:56:37Z</time>
      </trkpt>
      <trkpt lat="40.094533" lon="-4.845017">
        <ele>2171.0</ele>
        <time>2013-07-03T12:56:38Z</time>
      </trkpt>
      <trkpt lat="40.094567" lon="-4.844917">
        <ele>2171.0</ele>
        <time>2013-07-03T12:56:39Z</time>
      </trkpt>
      <trkpt lat="40.094617" lon="-4.844833">
        <ele>2171.0</ele>
        <time>2013-07-03T12:56:40Z</time>
      </trkpt>
      <trkpt lat="40.094667" lon="-4.844750">
        <ele>2172.0</ele>
        <time>2013-07-03T12:56:41Z</time>
      </trkpt>
      <trkpt lat="40.094733" lon="-4.844683">
        <ele>2174.0</ele>
        <time>2013-07-03T12:56:42Z</time>
      </trkpt>
      <trkpt lat="40.094800" lon="-4.844617">
        <ele>2178.0</ele>
        <time>2013-07-03T12:56:43Z</time>
      </trkpt>
      <trkpt lat="40.094867" lon="-4.844550">
        <ele>2182.0</ele>
        <time>2013-07-03T12:56:44Z</time>
      </trkpt>
      <trkpt lat="40.094917" lon="-4.844517">
        <ele>2186.0</ele>
        <time>2013-07-03T12:56:45Z</time>
      </trkpt>
      <trkpt lat="40.094967" lon="-4.844483">
        <ele>2189.0</ele>
        <time>2013-07-03T12:56:46Z</time>
      </trkpt>
      <trkpt lat="40.095000" lon="-4.844450">
        <ele>2191.0</ele>
        <time>2013-07-03T12:56:47Z</time>
      </trkpt>
      <trkpt lat="40.095050" lon="-4.844433">
        <ele>2191.0</ele>
        <time>2013-07-03T12:56:48Z</time>
      </trkpt>
      <trkpt lat="40.095100" lon="-4.844433">
        <ele>2190.0</ele>
        <time>2013-07-03T12:56:49Z</time>
      </trkpt>
      <trkpt lat="40.095150" lon="-4.844467">
        <ele>2190.0</ele>
        <time>2013-07-03T12:56:50Z</time>
      </trkpt>
      <trkpt lat="40.095167" lon="-4.844533">
        <ele>2189.0</ele>
        <time>2013-07-03T12:56:51Z</time>
      </trkpt>
      <trkpt lat="40.095167" lon="-4.844617">
        <ele>2188.0</ele>
        <time>2013-07-03T12:56:52Z</time>
      </trkpt>
      <trkpt lat="40.095133" lon="-4.844700">
        <ele>2187.0</ele>
        <time>2013-07-03T12:56:53Z</time>
      </trkpt>
      <trkpt lat="40.095100" lon="-4.844800">
        <ele>2187.0</ele>
        <time>2013-07-03T12:56:54Z</time>
      </trkpt>
      <trkpt lat="40.095050" lon="-4.844900">
        <ele>2187.0</ele>
        <time>2013-07-03T12:56:55Z</time>
      </trkpt>
      <trkpt lat="40.094983" lon="-4.844983">
        <ele>2187.0</ele>
        <time>2013-07-03T12:56:56Z</time>
      </trkpt>
      <trkpt lat="40.094883" lon="-4.845050">
        <ele>2187.0</ele>
        <time>2013-07-03T12:56:57Z</time>
      </trkpt>
      <trkpt lat="40.094767" lon="-4.845067">
        <ele>2187.0</ele>
        <time>2013-07-03T12:56:58Z</time>
      </trkpt>
      <trkpt lat="40.094667" lon="-4.845067">
        <ele>2188.0</ele>
        <time>2013-07-03T12:56:59Z</time>
      </trkpt>
      <trkpt lat="40.094567" lon="-4.845050">
        <ele>2188.0</ele>
        <time>2013-07-03T12:57:00Z</time>
      </trkpt>
      <trkpt lat="40.094467" lon="-4.845033">
        <ele>2188.0</ele>
        <time>2013-07-03T12:57:01Z</time>
      </trkpt>
      <trkpt lat="40.094383" lon="-4.845033">
        <ele>2188.0</ele>
        <time>2013-07-03T12:57:02Z</time>
      </trkpt>
      <trkpt lat="40.094300" lon="-4.845033">
        <ele>2188.0</ele>
        <time>2013-07-03T12:57:03Z</time>
      </trkpt>
      <trkpt lat="40.094183" lon="-4.845033">
        <ele>2187.0</ele>
        <time>2013-07-03T12:57:04Z</time>
      </trkpt>
      <trkpt lat="40.094083" lon="-4.845050">
        <ele>2184.0</ele>
        <time>2013-07-03T12:57:05Z</time>
      </trkpt>
      <trkpt lat="40.093967" lon="-4.845050">
        <ele>2183.0</ele>
        <time>2013-07-03T12:57:06Z</time>
      </trkpt>
      <trkpt lat="40.093833" lon="-4.845067">
        <ele>2183.0</ele>
        <time>2013-07-03T12:57:07Z</time>
      </trkpt>
      <trkpt lat="40.093717" lon="-4.845083">
        <ele>2186.0</ele>
        <time>2013-07-03T12:57:08Z</time>
      </trkpt>
      <trkpt lat="40.093600" lon="-4.845100">
        <ele>2189.0</ele>
        <time>2013-07-03T12:57:09Z</time>
      </trkpt>
      <trkpt lat="40.093500" lon="-4.845100">
        <ele>2192.0</ele>
        <time>2013-07-03T12:57:10Z</time>
      </trkpt>
      <trkpt lat="40.093417" lon="-4.845083">
        <ele>2196.0</ele>
        <time>2013-07-03T12:57:11Z</time>
      </trkpt>
      <trkpt lat="40.093333" lon="-4.845050">
        <ele>2202.0</ele>
        <time>2013-07-03T12:57:12Z</time>
      </trkpt>
      <trkpt lat="40.093267" lon="-4.845033">
        <ele>2206.0</ele>
        <time>2013-07-03T12:57:13Z</time>
      </trkpt>
      <trkpt lat="40.093217" lon="-4.845033">
        <ele>2208.0</ele>
        <time>2013-07-03T12:57:14Z</time>
      </trkpt>
      <trkpt lat="40.093133" lon="-4.845017">
        <ele>2211.0</ele>
        <time>2013-07-03T12:57:15Z</time>
      </trkpt>
      <trkpt lat="40.093050" lon="-4.844983">
        <ele>2212.0</ele>
        <time>2013-07-03T12:57:16Z</time>
      </trkpt>
      <trkpt lat="40.092983" lon="-4.844900">
        <ele>2213.0</ele>
        <time>2013-07-03T12:57:17Z</time>
      </trkpt>
      <trkpt lat="40.092933" lon="-4.844783">
        <ele>2214.0</ele>
        <time>2013-07-03T12:57:18Z</time>
      </trkpt>
      <trkpt lat="40.092950" lon="-4.844667">
        <ele>2215.0</ele>
        <time>2013-07-03T12:57:19Z</time>
      </trkpt>
      <trkpt lat="40.093000" lon="-4.844583">
        <ele>2217.0</ele>
        <time>2013-07-03T12:57:20Z</time>
      </trkpt>
      <trkpt lat="40.093067" lon="-4.844567">
        <ele>2218.0</ele>
        <time>2013-07-03T12:57:21Z</time>
      </trkpt>
      <trkpt lat="40.093150" lon="-4.844600">
        <ele>2219.0</ele>
        <time>2013-07-03T12:57:22Z</time>
      </trkpt>
      <trkpt lat="40.093200" lon="-4.844667">
        <ele>2221.0</ele>
        <time>2013-07-03T12:57:23Z</time>
      </trkpt>
      <trkpt lat="40.093233" lon="-4.844733">
        <ele>2223.0</ele>
        <time>2013-07-03T12:57:24Z</time>
      </trkpt>
      <trkpt lat="40.093267" lon="-4.844800">
        <ele>2224.0</ele>
        <time>2013-07-03T12:57:25Z</time>
      </trkpt>
      <trkpt lat="40.093300" lon="-4.844867">
        <ele>2226.0</ele>
        <time>2013-07-03T12:57:26Z</time>
      </trkpt>
      <trkpt lat="40.093317" lon="-4.844967">
        <ele>2227.0</ele>
        <time>2013-07-03T12:57:27Z</time>
      </trkpt>
      <trkpt lat="40.093300" lon="-4.845067">
        <ele>2228.0</ele>
        <time>2013-07-03T12:57:28Z</time>
      </trkpt>
      <trkpt lat="40.093283" lon="-4.845167">
        <ele>2230.0</ele>
        <time>2013-07-03T12:57:29Z</time>
      </trkpt>
      <trkpt lat="40.093250" lon="-4.845233">
        <ele>2233.0</ele>
        <time>2013-07-03T12:57:30Z</time>
      </trkpt>
      <trkpt lat="40.093200" lon="-4.845300">
        <ele>2234.0</ele>
        <time>2013-07-03T12:57:31Z</time>
      </trkpt>
      <trkpt lat="40.093150" lon="-4.845333">
        <ele>2236.0</ele>
        <time>2013-07-03T12:57:32Z</time>
      </trkpt>
      <trkpt lat="40.093067" lon="-4.845383">
        <ele>2236.0</ele>
        <time>2013-07-03T12:57:33Z</time>
      </trkpt>
      <trkpt lat="40.092967" lon="-4.845417">
        <ele>2237.0</ele>
        <time>2013-07-03T12:57:34Z</time>
      </trkpt>
      <trkpt lat="40.092883" lon="-4.845417">
        <ele>2242.0</ele>
        <time>2013-07-03T12:57:35Z</time>
      </trkpt>
      <trkpt lat="40.092817" lon="-4.845383">
        <ele>2245.0</ele>
        <time>2013-07-03T12:57:36Z</time>
      </trkpt>
      <trkpt lat="40.092750" lon="-4.845317">
        <ele>2247.0</ele>
        <time>2013-07-03T12:57:37Z</time>
      </trkpt>
      <trkpt lat="40.092683" lon="-4.845217">
        <ele>2246.0</ele>
        <time>2013-07-03T12:57:38Z</time>
      </trkpt>
      <trkpt lat="40.092617" lon="-4.845117">
        <ele>2246.0</ele>
        <time>2013-07-03T12:57:39Z</time>
      </trkpt>
      <trkpt lat="40.092550" lon="-4.845000">
        <ele>2245.0</ele>
        <time>2013-07-03T12:57:40Z</time>
      </trkpt>
      <trkpt lat="40.092517" lon="-4.844883">
        <ele>2246.0</ele>
        <time>2013-07-03T12:57:41Z</time>
      </trkpt>
      <trkpt lat="40.092483" lon="-4.844767">
        <ele>2247.0</ele>
        <time>2013-07-03T12:57:42Z</time>
      </trkpt>
      <trkpt lat="40.092467" lon="-4.844650">
        <ele>2248.0</ele>
        <time>2013-07-03T12:57:43Z</time>
      </trkpt>
      <trkpt lat="40.092467" lon="-4.844533">
        <ele>2249.0</ele>
        <time>2013-07-03T12:57:44Z</time>
      </trkpt>
      <trkpt lat="40.092467" lon="-4.844417">
        <ele>2250.0</ele>
        <time>2013-07-03T12:57:45Z</time>
      </trkpt>
      <trkpt lat="40.092483" lon="-4.844333">
        <ele>2251.0</ele>
        <time>2013-07-03T12:57:46Z</time>
      </trkpt>
      <trkpt lat="40.092533" lon="-4.844267">
        <ele>2250.0</ele>
        <time>2013-07-03T12:57:47Z</time>
      </trkpt>
      <trkpt lat="40.092583" lon="-4.844217">
        <ele>2250.0</ele>
        <time>2013-07-03T12:57:48Z</time>
      </trkpt>
      <trkpt lat="40.092650" lon="-4.844183">
        <ele>2250.0</ele>
        <time>2013-07-03T12:57:49Z</time>
      </trkpt>
      <trkpt lat="40.092700" lon="-4.844183">
        <ele>2251.0</ele>
        <time>2013-07-03T12:57:50Z</time>
      </trkpt>
      <trkpt lat="40.092750" lon="-4.844233">
        <ele>2252.0</ele>
        <time>2013-07-03T12:57:51Z</time>
      </trkpt>
      <trkpt lat="40.092783" lon="-4.844283">
        <ele>2252.0</ele>
        <time>2013-07-03T12:57:52Z</time>
      </trkpt>
      <trkpt lat="40.092800" lon="-4.844383">
        <ele>2253.0</ele>
        <time>2013-07-03T12:57:53Z</time>
      </trkpt>
      <trkpt lat="40.092817" lon="-4.844483">
        <ele>2254.0</ele>
        <time>2013-07-03T12:57:54Z</time>
      </trkpt>
      <trkpt lat="40.092800" lon="-4.844567">
        <ele>2256.0</ele>
        <time>2013-07-03T12:57:55Z</time>
      </trkpt>
      <trkpt lat="40.092767" lon="-4.844650">
        <ele>2257.0</ele>
        <time>2013-07-03T12:57:56Z</time>
      </trkpt>
      <trkpt lat="40.092733" lon="-4.844717">
        <ele>2258.0</ele>
        <time>2013-07-03T12:57:57Z</time>
      </trkpt>
      <trkpt lat="40.092700" lon="-4.844800">
        <ele>2259.0</ele>
        <time>2013-07-03T12:57:58Z</time>
      </trkpt>
      <trkpt lat="40.092683" lon="-4.844883">
        <ele>2258.0</ele>
        <time>2013-07-03T12:57:59Z</time>
      </trkpt>
      <trkpt lat="40.092633" lon="-4.844933">
        <ele>2258.0</ele>
        <time>2013-07-03T12:58:00Z</time>
      </trkpt>
      <trkpt lat="40.092567" lon="-4.844983">
        <ele>2256.0</ele>
        <time>2013-07-03T12:58:01Z</time>
      </trkpt>
      <trkpt lat="40.092467" lon="-4.845000">
        <ele>2254.0</ele>
        <time>2013-07-03T12:58:02Z</time>
      </trkpt>
      <trkpt lat="40.092367" lon="-4.845017">
        <ele>2253.0</ele>
        <time>2013-07-03T12:58:03Z</time>
      </trkpt>
      <trkpt lat="40.092267" lon="-4.845000">
        <ele>2252.0</ele>
        <time>2013-07-03T12:58:04Z</time>
      </trkpt>
      <trkpt lat="40.092150" lon="-4.844983">
        <ele>2252.0</ele>
        <time>2013-07-03T12:58:05Z</time>
      </trkpt>
      <trkpt lat="40.092033" lon="-4.844950">
        <ele>2251.0</ele>
        <time>2013-07-03T12:58:06Z</time>
      </trkpt>
      <trkpt lat="40.091917" lon="-4.844883">
        <ele>2251.0</ele>
        <time>2013-07-03T12:58:07Z</time>
      </trkpt>
      <trkpt lat="40.091800" lon="-4.844833">
        <ele>2252.0</ele>
        <time>2013-07-03T12:58:08Z</time>
      </trkpt>
      <trkpt lat="40.091700" lon="-4.844767">
        <ele>2253.0</ele>
        <time>2013-07-03T12:58:09Z</time>
      </trkpt>
      <trkpt lat="40.091600" lon="-4.844733">
        <ele>2255.0</ele>
        <time>2013-07-03T12:58:10Z</time>
      </trkpt>
      <trkpt lat="40.091517" lon="-4.844683">
        <ele>2257.0</ele>
        <time>2013-07-03T12:58:11Z</time>
      </trkpt>
      <trkpt lat="40.091433" lon="-4.844650">
        <ele>2259.0</ele>
        <time>2013-07-03T12:58:12Z</time>
      </trkpt>
      <trkpt lat="40.091350" lon="-4.844600">
        <ele>2261.0</ele>
        <time>2013-07-03T12:58:13Z</time>
      </trkpt>
      <trkpt lat="40.091283" lon="-4.844550">
        <ele>2261.0</ele>
        <time>2013-07-03T12:58:14Z</time>
      </trkpt>
      <trkpt lat="40.091217" lon="-4.844517">
        <ele>2262.0</ele>
        <time>2013-07-03T12:58:15Z</time>
      </trkpt>
      <trkpt lat="40.091133" lon="-4.844483">
        <ele>2261.0</ele>
        <time>2013-07-03T12:58:16Z</time>
      </trkpt>
      <trkpt lat="40.091033" lon="-4.844433">
        <ele>2260.0</ele>
        <time>2013-07-03T12:58:17Z</time>
      </trkpt>
      <trkpt lat="40.090933" lon="-4.844367">
        <ele>2259.0</ele>
        <time>2013-07-03T12:58:18Z</time>
      </trkpt>
      <trkpt lat="40.090817" lon="-4.844267">
        <ele>2259.0</ele>
        <time>2013-07-03T12:58:19Z</time>
      </trkpt>
      <trkpt lat="40.090683" lon="-4.844167">
        <ele>2261.0</ele>
        <time>2013-07-03T12:58:20Z</time>
      </trkpt>
      <trkpt lat="40.090583" lon="-4.844083">
        <ele>2263.0</ele>
        <time>2013-07-03T12:58:21Z</time>
      </trkpt>
      <trkpt lat="40.090483" lon="-4.844017">
        <ele>2264.0</ele>
        <time>2013-07-03T12:58:22Z</time>
      </trkpt>
      <trkpt lat="40.090367" lon="-4.843950">
        <ele>2264.0</ele>
        <time>2013-07-03T12:58:23Z</time>
      </trkpt>
      <trkpt lat="40.090267" lon="-4.843883">
        <ele>2263.0</ele>
        <time>2013-07-03T12:58:24Z</time>
      </trkpt>
      <trkpt lat="40.090133" lon="-4.843817">
        <ele>2261.0</ele>
        <time>2013-07-03T12:58:25Z</time>
      </trkpt>
      <trkpt lat="40.090017" lon="-4.843733">
        <ele>2260.0</ele>
        <time>2013-07-03T12:58:26Z</time>
      </trkpt>
      <trkpt lat="40.089883" lon="-4.843650">
        <ele>2259.0</ele>
        <time>2013-07-03T12:58:27Z</time>
      </trkpt>
      <trkpt lat="40.089767" lon="-4.843550">
        <ele>2258.0</ele>
        <time>2013-07-03T12:58:28Z</time>
      </trkpt>
      <trkpt lat="40.089650" lon="-4.843467">
        <ele>2258.0</ele>
        <time>2013-07-03T12:58:29Z</time>
      </trkpt>
      <trkpt lat="40.089533" lon="-4.843400">
        <ele>2257.0</ele>
        <time>2013-07-03T12:58:30Z</time>
      </trkpt>
      <trkpt lat="40.089400" lon="-4.843317">
        <ele>2256.0</ele>
        <time>2013-07-03T12:58:31Z</time>
      </trkpt>
      <trkpt lat="40.089267" lon="-4.843233">
        <ele>2255.0</ele>
        <time>2013-07-03T12:58:32Z</time>
      </trkpt>
      <trkpt lat="40.089133" lon="-4.843167">
        <ele>2254.0</ele>
        <time>2013-07-03T12:58:33Z</time>
      </trkpt>
      <trkpt lat="40.089000" lon="-4.843083">
        <ele>2256.0</ele>
        <time>2013-07-03T12:58:34Z</time>
      </trkpt>
      <trkpt lat="40.088883" lon="-4.843017">
        <ele>2257.0</ele>
        <time>2013-07-03T12:58:35Z</time>
      </trkpt>
      <trkpt lat="40.088783" lon="-4.842950">
        <ele>2257.0</ele>
        <time>2013-07-03T12:58:36Z</time>
      </trkpt>
      <trkpt lat="40.088683" lon="-4.842900">
        <ele>2256.0</ele>
        <time>2013-07-03T12:58:37Z</time>
      </trkpt>
      <trkpt lat="40.088583" lon="-4.842817">
        <ele>2255.0</ele>
        <time>2013-07-03T12:58:38Z</time>
      </trkpt>
      <trkpt lat="40.088483" lon="-4.842750">
        <ele>2251.0</ele>
        <time>2013-07-03T12:58:39Z</time>
      </trkpt>
      <trkpt lat="40.088350" lon="-4.842650">
        <ele>2248.0</ele>
        <time>2013-07-03T12:58:40Z</time>
      </trkpt>
      <trkpt lat="40.088233" lon="-4.842583">
        <ele>2246.0</ele>
        <time>2013-07-03T12:58:41Z</time>
      </trkpt>
      <trkpt lat="40.088117" lon="-4.842517">
        <ele>2244.0</ele>
        <time>2013-07-03T12:58:42Z</time>
      </trkpt>
      <trkpt lat="40.088000" lon="-4.842467">
        <ele>2243.0</ele>
        <time>2013-07-03T12:58:43Z</time>
      </trkpt>
      <trkpt lat="40.087917" lon="-4.842400">
        <ele>2242.0</ele>
        <time>2013-07-03T12:58:44Z</time>
      </trkpt>
      <trkpt lat="40.087817" lon="-4.842333">
        <ele>2239.0</ele>
        <time>2013-07-03T12:58:45Z</time>
      </trkpt>
      <trkpt lat="40.087717" lon="-4.842267">
        <ele>2236.0</ele>
        <time>2013-07-03T12:58:46Z</time>
      </trkpt>
      <trkpt lat="40.087617" lon="-4.842200">
        <ele>2231.0</ele>
        <time>2013-07-03T12:58:47Z</time>
      </trkpt>
      <trkpt lat="40.087500" lon="-4.842117">
        <ele>2228.0</ele>
        <time>2013-07-03T12:58:48Z</time>
      </trkpt>
      <trkpt lat="40.087400" lon="-4.842033">
        <ele>2226.0</ele>
        <time>2013-07-03T12:58:49Z</time>
      </trkpt>
      <trkpt lat="40.087300" lon="-4.841950">
        <ele>2225.0</ele>
        <time>2013-07-03T12:58:50Z</time>
      </trkpt>
      <trkpt lat="40.087200" lon="-4.841867">
        <ele>2224.0</ele>
        <time>2013-07-03T12:58:51Z</time>
      </trkpt>
      <trkpt lat="40.087117" lon="-4.841767">
        <ele>2222.0</ele>
        <time>2013-07-03T12:58:52Z</time>
      </trkpt>
      <trkpt lat="40.087017" lon="-4.841683">
        <ele>2221.0</ele>
        <time>2013-07-03T12:58:53Z</time>
      </trkpt>
      <trkpt lat="40.086933" lon="-4.841567">
        <ele>2219.0</ele>
        <time>2013-07-03T12:58:54Z</time>
      </trkpt>
      <trkpt lat="40.086833" lon="-4.841467">
        <ele>2219.0</ele>
        <time>2013-07-03T12:58:55Z</time>
      </trkpt>
      <trkpt lat="40.086750" lon="-4.841367">
        <ele>2218.0</ele>
        <time>2013-07-03T12:58:56Z</time>
      </trkpt>
      <trkpt lat="40.086650" lon="-4.841267">
        <ele>2218.0</ele>
        <time>2013-07-03T12:58:57Z</time>
      </trkpt>
      <trkpt lat="40.086567" lon="-4.841167">
        <ele>2218.0</ele>
        <time>2013-07-03T12:58:58Z</time>
      </trkpt>
      <trkpt lat="40.086483" lon="-4.841067">
        <ele>2218.0</ele>
        <time>2013-07-03T12:58:59Z</time>
      </trkpt>
      <trkpt lat="40.086400" lon="-4.840983">
        <ele>2219.0</ele>
        <time>2013-07-03T12:59:00Z</time>
      </trkpt>
      <trkpt lat="40.086333" lon="-4.840883">
        <ele>2219.0</ele>
        <time>2013-07-03T12:59:01Z</time>
      </trkpt>
      <trkpt lat="40.086267" lon="-4.840800">
        <ele>2221.0</ele>
        <time>2013-07-03T12:59:02Z</time>
      </trkpt>
      <trkpt lat="40.086217" lon="-4.840733">
        <ele>2223.0</ele>
        <time>2013-07-03T12:59:03Z</time>
      </trkpt>
      <trkpt lat="40.086183" lon="-4.840633">
        <ele>2223.0</ele>
        <time>2013-07-03T12:59:04Z</time>
      </trkpt>
      <trkpt lat="40.086183" lon="-4.840517">
        <ele>2222.0</ele>
        <time>2013-07-03T12:59:05Z</time>
      </trkpt>
      <trkpt lat="40.086217" lon="-4.840383">
        <ele>2221.0</ele>
        <time>2013-07-03T12:59:06Z</time>
      </trkpt>
      <trkpt lat="40.086250" lon="-4.840283">
        <ele>2223.0</ele>
        <time>2013-07-03T12:59:07Z</time>
      </trkpt>
      <trkpt lat="40.086267" lon="-4.840217">
        <ele>2225.0</ele>
        <time>2013-07-03T12:59:08Z</time>
      </trkpt>
      <trkpt lat="40.086300" lon="-4.840183">
        <ele>2225.0</ele>
        <time>2013-07-03T12:59:09Z</time>
      </trkpt>
      <trkpt lat="40.086317" lon="-4.840183">
        <ele>2224.0</ele>
        <time>2013-07-03T12:59:10Z</time>
      </trkpt>
      <trkpt lat="40.086350" lon="-4.840183">
        <ele>2222.0</ele>
        <time>2013-07-03T12:59:11Z</time>
      </trkpt>
      <trkpt lat="40.086383" lon="-4.840217">
        <ele>2220.0</ele>
        <time>2013-07-03T12:59:12Z</time>
      </trkpt>
      <trkpt lat="40.086417" lon="-4.840250">
        <ele>2219.0</ele>
        <time>2013-07-03T12:59:13Z</time>
      </trkpt>
      <trkpt lat="40.086417" lon="-4.840300">
        <ele>2217.0</ele>
        <time>2013-07-03T12:59:14Z</time>
      </trkpt>
      <trkpt lat="40.086400" lon="-4.840383">
        <ele>2215.0</ele>
        <time>2013-07-03T12:59:15Z</time>
      </trkpt>
      <trkpt lat="40.086333" lon="-4.840467">
        <ele>2213.0</ele>
        <time>2013-07-03T12:59:16Z</time>
      </trkpt>
      <trkpt lat="40.086267" lon="-4.840550">
        <ele>2214.0</ele>
        <time>2013-07-03T12:59:17Z</time>
      </trkpt>
      <trkpt lat="40.086200" lon="-4.840617">
        <ele>2215.0</ele>
        <time>2013-07-03T12:59:18Z</time>
      </trkpt>
      <trkpt lat="40.086150" lon="-4.840667">
        <ele>2216.0</ele>
        <time>2013-07-03T12:59:19Z</time>
      </trkpt>
      <trkpt lat="40.086083" lon="-4.840700">
        <ele>2217.0</ele>
        <time>2013-07-03T12:59:20Z</time>
      </trkpt>
      <trkpt lat="40.086017" lon="-4.840717">
        <ele>2217.0</ele>
        <time>2013-07-03T12:59:21Z</time>
      </trkpt>
      <trkpt lat="40.085933" lon="-4.840700">
        <ele>2217.0</ele>
        <time>2013-07-03T12:59:22Z</time>
      </trkpt>
      <trkpt lat="40.085833" lon="-4.840683">
        <ele>2217.0</ele>
        <time>2013-07-03T12:59:23Z</time>
      </trkpt>
      <trkpt lat="40.085733" lon="-4.840650">
        <ele>2216.0</ele>
        <time>2013-07-03T12:59:24Z</time>
      </trkpt>
      <trkpt lat="40.085617" lon="-4.840617">
        <ele>2214.0</ele>
        <time>2013-07-03T12:59:25Z</time>
      </trkpt>
      <trkpt lat="40.085500" lon="-4.840600">
        <ele>2214.0</ele>
        <time>2013-07-03T12:59:26Z</time>
      </trkpt>
      <trkpt lat="40.085367" lon="-4.840583">
        <ele>2213.0</ele>
        <time>2013-07-03T12:59:27Z</time>
      </trkpt>
      <trkpt lat="40.085250" lon="-4.840550">
        <ele>2214.0</ele>
        <time>2013-07-03T12:59:28Z</time>
      </trkpt>
      <trkpt lat="40.085150" lon="-4.840533">
        <ele>2214.0</ele>
        <time>2013-07-03T12:59:29Z</time>
      </trkpt>
      <trkpt lat="40.085050" lon="-4.840483">
        <ele>2214.0</ele>
        <time>2013-07-03T12:59:30Z</time>
      </trkpt>
      <trkpt lat="40.084933" lon="-4.840433">
        <ele>2215.0</ele>
        <time>2013-07-03T12:59:31Z</time>
      </trkpt>
      <trkpt lat="40.084817" lon="-4.840367">
        <ele>2218.0</ele>
        <time>2013-07-03T12:59:32Z</time>
      </trkpt>
      <trkpt lat="40.084733" lon="-4.840317">
        <ele>2222.0</ele>
        <time>2013-07-03T12:59:33Z</time>
      </trkpt>
      <trkpt lat="40.084650" lon="-4.840233">
        <ele>2224.0</ele>
        <time>2013-07-03T12:59:34Z</time>
      </trkpt>
      <trkpt lat="40.084583" lon="-4.840133">
        <ele>2224.0</ele>
        <time>2013-07-03T12:59:35Z</time>
      </trkpt>
      <trkpt lat="40.084500" lon="-4.840000">
        <ele>2223.0</ele>
        <time>2013-07-03T12:59:36Z</time>
      </trkpt>
      <trkpt lat="40.084433" lon="-4.839850">
        <ele>2222.0</ele>
        <time>2013-07-03T12:59:37Z</time>
      </trkpt>
      <trkpt lat="40.084383" lon="-4.839700">
        <ele>2221.0</ele>
        <time>2013-07-03T12:59:38Z</time>
      </trkpt>
      <trkpt lat="40.084367" lon="-4.839533">
        <ele>2222.0</ele>
        <time>2013-07-03T12:59:39Z</time>
      </trkpt>
      <trkpt lat="40.084383" lon="-4.839400">
        <ele>2222.0</ele>
        <time>2013-07-03T12:59:40Z</time>
      </trkpt>
      <trkpt lat="40.084417" lon="-4.839300">
        <ele>2223.0</ele>
        <time>2013-07-03T12:59:41Z</time>
      </trkpt>
      <trkpt lat="40.084467" lon="-4.839217">
        <ele>2223.0</ele>
        <time>2013-07-03T12:59:42Z</time>
      </trkpt>
      <trkpt lat="40.084500" lon="-4.839167">
        <ele>2222.0</ele>
        <time>2013-07-03T12:59:43Z</time>
      </trkpt>
      <trkpt lat="40.084550" lon="-4.839183">
        <ele>2221.0</ele>
        <time>2013-07-03T12:59:44Z</time>
      </trkpt>
      <trkpt lat="40.084583" lon="-4.839217">
        <ele>2219.0</ele>
        <time>2013-07-03T12:59:45Z</time>
      </trkpt>
      <trkpt lat="40.084600" lon="-4.839283">
        <ele>2218.0</ele>
        <time>2013-07-03T12:59:46Z</time>
      </trkpt>
      <trkpt lat="40.084550" lon="-4.839350">
        <ele>2220.0</ele>
        <time>2013-07-03T12:59:47Z</time>
      </trkpt>
      <trkpt lat="40.084483" lon="-4.839367">
        <ele>2221.0</ele>
        <time>2013-07-03T12:59:48Z</time>
      </trkpt>
      <trkpt lat="40.084400" lon="-4.839367">
        <ele>2222.0</ele>
        <time>2013-07-03T12:59:49Z</time>
      </trkpt>
      <trkpt lat="40.084300" lon="-4.839350">
        <ele>2223.0</ele>
        <time>2013-07-03T12:59:50Z</time>
      </trkpt>
      <trkpt lat="40.084200" lon="-4.839317">
        <ele>2225.0</ele>
        <time>2013-07-03T12:59:51Z</time>
      </trkpt>
      <trkpt lat="40.084100" lon="-4.839267">
        <ele>2228.0</ele>
        <time>2013-07-03T12:59:52Z</time>
      </trkpt>
      <trkpt lat="40.084017" lon="-4.839217">
        <ele>2230.0</ele>
        <time>2013-07-03T12:59:53Z</time>
      </trkpt>
      <trkpt lat="40.083917" lon="-4.839133">
        <ele>2230.0</ele>
        <time>2013-07-03T12:59:54Z</time>
      </trkpt>
      <trkpt lat="40.083833" lon="-4.839050">
        <ele>2230.0</ele>
        <time>2013-07-03T12:59:55Z</time>
      </trkpt>
      <trkpt lat="40.083750" lon="-4.838933">
        <ele>2230.0</ele>
        <time>2013-07-03T12:59:56Z</time>
      </trkpt>
      <trkpt lat="40.083667" lon="-4.838800">
        <ele>2230.0</ele>
        <time>2013-07-03T12:59:57Z</time>
      </trkpt>
      <trkpt lat="40.083600" lon="-4.838650">
        <ele>2230.0</ele>
        <time>2013-07-03T12:59:58Z</time>
      </trkpt>
      <trkpt lat="40.083567" lon="-4.838500">
        <ele>2231.0</ele>
        <time>2013-07-03T12:59:59Z</time>
      </trkpt>
      <trkpt lat="40.083550" lon="-4.838350">
        <ele>2231.0</ele>
        <time>2013-07-03T13:00:00Z</time>
      </trkpt>
      <trkpt lat="40.083567" lon="-4.838217">
        <ele>2232.0</ele>
        <time>2013-07-03T13:00:01Z</time>
      </trkpt>
      <trkpt lat="40.083583" lon="-4.838100">
        <ele>2233.0</ele>
        <time>2013-07-03T13:00:02Z</time>
      </trkpt>
      <trkpt lat="40.083617" lon="-4.838017">
        <ele>2233.0</ele>
        <time>2013-07-03T13:00:03Z</time>
      </trkpt>
      <trkpt lat="40.083667" lon="-4.837950">
        <ele>2232.0</ele>
        <time>2013-07-03T13:00:04Z</time>
      </trkpt>
      <trkpt lat="40.083717" lon="-4.837933">
        <ele>2232.0</ele>
        <time>2013-07-03T13:00:05Z</time>
      </trkpt>
      <trkpt lat="40.083767" lon="-4.837967">
        <ele>2232.0</ele>
        <time>2013-07-03T13:00:06Z</time>
      </trkpt>
      <trkpt lat="40.083783" lon="-4.838017">
        <ele>2232.0</ele>
        <time>2013-07-03T13:00:07Z</time>
      </trkpt>
      <trkpt lat="40.083783" lon="-4.838067">
        <ele>2233.0</ele>
        <time>2013-07-03T13:00:08Z</time>
      </trkpt>
      <trkpt lat="40.083750" lon="-4.838100">
        <ele>2233.0</ele>
        <time>2013-07-03T13:00:09Z</time>
      </trkpt>
      <trkpt lat="40.083683" lon="-4.838133">
        <ele>2234.0</ele>
        <time>2013-07-03T13:00:10Z</time>
      </trkpt>
      <trkpt lat="40.083617" lon="-4.838167">
        <ele>2235.0</ele>
        <time>2013-07-03T13:00:11Z</time>
      </trkpt>
      <trkpt lat="40.083533" lon="-4.838167">
        <ele>2237.0</ele>
        <time>2013-07-03T13:00:12Z</time>
      </trkpt>
      <trkpt lat="40.083450" lon="-4.838150">
        <ele>2239.0</ele>
        <time>2013-07-03T13:00:13Z</time>
      </trkpt>
      <trkpt lat="40.083350" lon="-4.838117">
        <ele>2240.0</ele>
        <time>2013-07-03T13:00:14Z</time>
      </trkpt>
      <trkpt lat="40.083267" lon="-4.838067">
        <ele>2241.0</ele>
        <time>2013-07-03T13:00:15Z</time>
      </trkpt>
      <trkpt lat="40.083167" lon="-4.837983">
        <ele>2241.0</ele>
        <time>2013-07-03T13:00:16Z</time>
      </trkpt>
      <trkpt lat="40.083067" lon="-4.837883">
        <ele>2242.0</ele>
        <time>2013-07-03T13:00:17Z</time>
      </trkpt>
      <trkpt lat="40.083000" lon="-4.837767">
        <ele>2242.0</ele>
        <time>2013-07-03T13:00:18Z</time>
      </trkpt>
      <trkpt lat="40.082933" lon="-4.837633">
        <ele>2242.0</ele>
        <time>2013-07-03T13:00:19Z</time>
      </trkpt>
      <trkpt lat="40.082883" lon="-4.837500">
        <ele>2241.0</ele>
        <time>2013-07-03T13:00:20Z</time>
      </trkpt>
      <trkpt lat="40.082850" lon="-4.837367">
        <ele>2241.0</ele>
        <time>2013-07-03T13:00:21Z</time>
      </trkpt>
      <trkpt lat="40.082833" lon="-4.837233">
        <ele>2238.0</ele>
        <time>2013-07-03T13:00:22Z</time>
      </trkpt>
      <trkpt lat="40.082833" lon="-4.837083">
        <ele>2237.0</ele>
        <time>2013-07-03T13:00:23Z</time>
      </trkpt>
      <trkpt lat="40.082850" lon="-4.836933">
        <ele>2236.0</ele>
        <time>2013-07-03T13:00:24Z</time>
      </trkpt>
      <trkpt lat="40.082883" lon="-4.836800">
        <ele>2236.0</ele>
        <time>2013-07-03T13:00:25Z</time>
      </trkpt>
      <trkpt lat="40.082917" lon="-4.836700">
        <ele>2237.0</ele>
        <time>2013-07-03T13:00:26Z</time>
      </trkpt>
      <trkpt lat="40.082967" lon="-4.836633">
        <ele>2237.0</ele>
        <time>2013-07-03T13:00:27Z</time>
      </trkpt>
      <trkpt lat="40.083000" lon="-4.836600">
        <ele>2237.0</ele>
        <time>2013-07-03T13:00:28Z</time>
      </trkpt>
      <trkpt lat="40.083033" lon="-4.836600">
        <ele>2237.0</ele>
        <time>2013-07-03T13:00:29Z</time>
      </trkpt>
      <trkpt lat="40.083067" lon="-4.836617">
        <ele>2236.0</ele>
        <time>2013-07-03T13:00:30Z</time>
      </trkpt>
      <trkpt lat="40.083083" lon="-4.836650">
        <ele>2236.0</ele>
        <time>2013-07-03T13:00:31Z</time>
      </trkpt>
      <trkpt lat="40.083083" lon="-4.836700">
        <ele>2237.0</ele>
        <time>2013-07-03T13:00:32Z</time>
      </trkpt>
      <trkpt lat="40.083067" lon="-4.836750">
        <ele>2237.0</ele>
        <time>2013-07-03T13:00:33Z</time>
      </trkpt>
      <trkpt lat="40.083017" lon="-4.836800">
        <ele>2237.0</ele>
        <time>2013-07-03T13:00:34Z</time>
      </trkpt>
      <trkpt lat="40.082933" lon="-4.836817">
        <ele>2237.0</ele>
        <time>2013-07-03T13:00:35Z</time>
      </trkpt>
      <trkpt lat="40.082833" lon="-4.836817">
        <ele>2237.0</ele>
        <time>2013-07-03T13:00:36Z</time>
      </trkpt>
      <trkpt lat="40.082717" lon="-4.836800">
        <ele>2237.0</ele>
        <time>2013-07-03T13:00:37Z</time>
      </trkpt>
      <trkpt lat="40.082600" lon="-4.836750">
        <ele>2238.0</ele>
        <time>2013-07-03T13:00:38Z</time>
      </trkpt>
      <trkpt lat="40.082500" lon="-4.836683">
        <ele>2238.0</ele>
        <time>2013-07-03T13:00:39Z</time>
      </trkpt>
      <trkpt lat="40.082400" lon="-4.836617">
        <ele>2237.0</ele>
        <time>2013-07-03T13:00:40Z</time>
      </trkpt>
      <trkpt lat="40.082300" lon="-4.836550">
        <ele>2236.0</ele>
        <time>2013-07-03T13:00:41Z</time>
      </trkpt>
      <trkpt lat="40.082183" lon="-4.836467">
        <ele>2235.0</ele>
        <time>2013-07-03T13:00:42Z</time>
      </trkpt>
      <trkpt lat="40.082067" lon="-4.836367">
        <ele>2234.0</ele>
        <time>2013-07-03T13:00:43Z</time>
      </trkpt>
      <trkpt lat="40.081950" lon="-4.836267">
        <ele>2233.0</ele>
        <time>2013-07-03T13:00:44Z</time>
      </trkpt>
      <trkpt lat="40.081817" lon="-4.836183">
        <ele>2233.0</ele>
        <time>2013-07-03T13:00:45Z</time>
      </trkpt>
      <trkpt lat="40.081717" lon="-4.836083">
        <ele>2234.0</ele>
        <time>2013-07-03T13:00:46Z</time>
      </trkpt>
      <trkpt lat="40.081600" lon="-4.836000">
        <ele>2234.0</ele>
        <time>2013-07-03T13:00:47Z</time>
      </trkpt>
      <trkpt lat="40.081500" lon="-4.835917">
        <ele>2235.0</ele>
        <time>2013-07-03T13:00:48Z</time>
      </trkpt>
      <trkpt lat="40.081400" lon="-4.835833">
        <ele>2235.0</ele>
        <time>2013-07-03T13:00:49Z</time>
      </trkpt>
      <trkpt lat="40.081300" lon="-4.835750">
        <ele>2237.0</ele>
        <time>2013-07-03T13:00:50Z</time>
      </trkpt>
      <trkpt lat="40.081233" lon="-4.835650">
        <ele>2237.0</ele>
        <time>2013-07-03T13:00:51Z</time>
      </trkpt>
      <trkpt lat="40.081167" lon="-4.835567">
        <ele>2237.0</ele>
        <time>2013-07-03T13:00:52Z</time>
      </trkpt>
      <trkpt lat="40.081100" lon="-4.835483">
        <ele>2236.0</ele>
        <time>2013-07-03T13:00:53Z</time>
      </trkpt>
      <trkpt lat="40.081033" lon="-4.835383">
        <ele>2233.0</ele>
        <time>2013-07-03T13:00:54Z</time>
      </trkpt>
      <trkpt lat="40.080950" lon="-4.835283">
        <ele>2229.0</ele>
        <time>2013-07-03T13:00:55Z</time>
      </trkpt>
      <trkpt lat="40.080850" lon="-4.835183">
        <ele>2226.0</ele>
        <time>2013-07-03T13:00:56Z</time>
      </trkpt>
      <trkpt lat="40.080733" lon="-4.835083">
        <ele>2224.0</ele>
        <time>2013-07-03T13:00:57Z</time>
      </trkpt>
      <trkpt lat="40.080633" lon="-4.835000">
        <ele>2223.0</ele>
        <time>2013-07-03T13:00:58Z</time>
      </trkpt>
      <trkpt lat="40.080533" lon="-4.834917">
        <ele>2222.0</ele>
        <time>2013-07-03T13:00:59Z</time>
      </trkpt>
      <trkpt lat="40.080450" lon="-4.834850">
        <ele>2221.0</ele>
        <time>2013-07-03T13:01:00Z</time>
      </trkpt>
      <trkpt lat="40.080367" lon="-4.834783">
        <ele>2218.0</ele>
        <time>2013-07-03T13:01:01Z</time>
      </trkpt>
      <trkpt lat="40.080267" lon="-4.834717">
        <ele>2214.0</ele>
        <time>2013-07-03T13:01:02Z</time>
      </trkpt>
      <trkpt lat="40.080167" lon="-4.834650">
        <ele>2210.0</ele>
        <time>2013-07-03T13:01:03Z</time>
      </trkpt>
      <trkpt lat="40.080067" lon="-4.834567">
        <ele>2206.0</ele>
        <time>2013-07-03T13:01:04Z</time>
      </trkpt>
      <trkpt lat="40.079950" lon="-4.834500">
        <ele>2202.0</ele>
        <time>2013-07-03T13:01:05Z</time>
      </trkpt>
      <trkpt lat="40.079850" lon="-4.834433">
        <ele>2199.0</ele>
        <time>2013-07-03T13:01:06Z</time>
      </trkpt>
      <trkpt lat="40.079750" lon="-4.834367">
        <ele>2195.0</ele>
        <time>2013-07-03T13:01:07Z</time>
      </trkpt>
      <trkpt lat="40.079633" lon="-4.834300">
        <ele>2191.0</ele>
        <time>2013-07-03T13:01:08Z</time>
      </trkpt>
      <trkpt lat="40.079517" lon="-4.834233">
        <ele>2187.0</ele>
        <time>2013-07-03T13:01:09Z</time>
      </trkpt>
      <trkpt lat="40.079400" lon="-4.834167">
        <ele>2183.0</ele>
        <time>2013-07-03T13:01:10Z</time>
      </trkpt>
      <trkpt lat="40.079267" lon="-4.834100">
        <ele>2180.0</ele>
        <time>2013-07-03T13:01:11Z</time>
      </trkpt>
      <trkpt lat="40.079150" lon="-4.834033">
        <ele>2179.0</ele>
        <time>2013-07-03T13:01:12Z</time>
      </trkpt>
      <trkpt lat="40.079050" lon="-4.833933">
        <ele>2180.0</ele>
        <time>2013-07-03T13:01:13Z</time>
      </trkpt>
      <trkpt lat="40.078983" lon="-4.833850">
        <ele>2180.0</ele>
        <time>2013-07-03T13:01:14Z</time>
      </trkpt>
      <trkpt lat="40.078917" lon="-4.833767">
        <ele>2179.0</ele>
        <time>2013-07-03T13:01:15Z</time>
      </trkpt>
      <trkpt lat="40.078850" lon="-4.833683">
        <ele>2176.0</ele>
        <time>2013-07-03T13:01:16Z</time>
      </trkpt>
      <trkpt lat="40.078750" lon="-4.833600">
        <ele>2173.0</ele>
        <time>2013-07-03T13:01:17Z</time>
      </trkpt>
      <trkpt lat="40.078667" lon="-4.833500">
        <ele>2171.0</ele>
        <time>2013-07-03T13:01:18Z</time>
      </trkpt>
      <trkpt lat="40.078583" lon="-4.833400">
        <ele>2169.0</ele>
        <time>2013-07-03T13:01:19Z</time>
      </trkpt>
      <trkpt lat="40.078500" lon="-4.833300">
        <ele>2168.0</ele>
        <time>2013-07-03T13:01:20Z</time>
      </trkpt>
      <trkpt lat="40.078417" lon="-4.833200">
        <ele>2167.0</ele>
        <time>2013-07-03T13:01:21Z</time>
      </trkpt>
      <trkpt lat="40.078333" lon="-4.833100">
        <ele>2166.0</ele>
        <time>2013-07-03T13:01:22Z</time>
      </trkpt>
      <trkpt lat="40.078233" lon="-4.833017">
        <ele>2165.0</ele>
        <time>2013-07-03T13:01:23Z</time>
      </trkpt>
      <trkpt lat="40.078133" lon="-4.832933">
        <ele>2166.0</ele>
        <time>2013-07-03T13:01:24Z</time>
      </trkpt>
      <trkpt lat="40.078067" lon="-4.832850">
        <ele>2166.0</ele>
        <time>2013-07-03T13:01:25Z</time>
      </trkpt>
      <trkpt lat="40.077983" lon="-4.832783">
        <ele>2167.0</ele>
        <time>2013-07-03T13:01:26Z</time>
      </trkpt>
      <trkpt lat="40.077900" lon="-4.832717">
        <ele>2169.0</ele>
        <time>2013-07-03T13:01:27Z</time>
      </trkpt>
      <trkpt lat="40.077817" lon="-4.832683">
        <ele>2172.0</ele>
        <time>2013-07-03T13:01:28Z</time>
      </trkpt>
      <trkpt lat="40.077750" lon="-4.832683">
        <ele>2174.0</ele>
        <time>2013-07-03T13:01:29Z</time>
      </trkpt>
      <trkpt lat="40.077700" lon="-4.832667">
        <ele>2174.0</ele>
        <time>2013-07-03T13:01:30Z</time>
      </trkpt>
      <trkpt lat="40.077650" lon="-4.832650">
        <ele>2175.0</ele>
        <time>2013-07-03T13:01:31Z</time>
      </trkpt>
      <trkpt lat="40.077567" lon="-4.832650">
        <ele>2173.0</ele>
        <time>2013-07-03T13:01:32Z</time>
      </trkpt>
      <trkpt lat="40.077483" lon="-4.832667">
        <ele>2170.0</ele>
        <time>2013-07-03T13:01:33Z</time>
      </trkpt>
      <trkpt lat="40.077400" lon="-4.832733">
        <ele>2168.0</ele>
        <time>2013-07-03T13:01:34Z</time>
      </trkpt>
      <trkpt lat="40.077350" lon="-4.832833">
        <ele>2166.0</ele>
        <time>2013-07-03T13:01:35Z</time>
      </trkpt>
      <trkpt lat="40.077317" lon="-4.832950">
        <ele>2164.0</ele>
        <time>2013-07-03T13:01:36Z</time>
      </trkpt>
      <trkpt lat="40.077317" lon="-4.833067">
        <ele>2164.0</ele>
        <time>2013-07-03T13:01:37Z</time>
      </trkpt>
      <trkpt lat="40.077300" lon="-4.833167">
        <ele>2166.0</ele>
        <time>2013-07-03T13:01:38Z</time>
      </trkpt>
      <trkpt lat="40.077317" lon="-4.833233">
        <ele>2167.0</ele>
        <time>2013-07-03T13:01:39Z</time>
      </trkpt>
      <trkpt lat="40.077333" lon="-4.833300">
        <ele>2166.0</ele>
        <time>2013-07-03T13:01:40Z</time>
      </trkpt>
      <trkpt lat="40.077350" lon="-4.833350">
        <ele>2165.0</ele>
        <time>2013-07-03T13:01:41Z</time>
      </trkpt>
      <trkpt lat="40.077383" lon="-4.833417">
        <ele>2164.0</ele>
        <time>2013-07-03T13:01:42Z</time>
      </trkpt>
      <trkpt lat="40.077417" lon="-4.833500">
        <ele>2162.0</ele>
        <time>2013-07-03T13:01:43Z</time>
      </trkpt>
      <trkpt lat="40.077450" lon="-4.833550">
        <ele>2160.0</ele>
        <time>2013-07-03T13:01:44Z</time>
      </trkpt>
      <trkpt lat="40.077517" lon="-4.833550">
        <ele>2157.0</ele>
        <time>2013-07-03T13:01:45Z</time>
      </trkpt>
      <trkpt lat="40.077583" lon="-4.833533">
        <ele>2153.0</ele>
        <time>2013-07-03T13:01:46Z</time>
      </trkpt>
      <trkpt lat="40.077650" lon="-4.833467">
        <ele>2149.0</ele>
        <time>2013-07-03T13:01:47Z</time>
      </trkpt>
      <trkpt lat="40.077683" lon="-4.833367">
        <ele>2145.0</ele>
        <time>2013-07-03T13:01:48Z</time>
      </trkpt>
      <trkpt lat="40.077683" lon="-4.833217">
        <ele>2141.0</ele>
        <time>2013-07-03T13:01:49Z</time>
      </trkpt>
      <trkpt lat="40.077633" lon="-4.833050">
        <ele>2136.0</ele>
        <time>2013-07-03T13:01:50Z</time>
      </trkpt>
      <trkpt lat="40.077550" lon="-4.832883">
        <ele>2133.0</ele>
        <time>2013-07-03T13:01:51Z</time>
      </trkpt>
      <trkpt lat="40.077450" lon="-4.832767">
        <ele>2132.0</ele>
        <time>2013-07-03T13:01:52Z</time>
      </trkpt>
      <trkpt lat="40.077367" lon="-4.832667">
        <ele>2134.0</ele>
        <time>2013-07-03T13:01:53Z</time>
      </trkpt>
      <trkpt lat="40.077283" lon="-4.832600">
        <ele>2135.0</ele>
        <time>2013-07-03T13:01:54Z</time>
      </trkpt>
      <trkpt lat="40.077217" lon="-4.832533">
        <ele>2135.0</ele>
        <time>2013-07-03T13:01:55Z</time>
      </trkpt>
      <trkpt lat="40.077167" lon="-4.832483">
        <ele>2134.0</ele>
        <time>2013-07-03T13:01:56Z</time>
      </trkpt>
      <trkpt lat="40.077117" lon="-4.832417">
        <ele>2133.0</ele>
        <time>2013-07-03T13:01:57Z</time>
      </trkpt>
      <trkpt lat="40.077033" lon="-4.832333">
        <ele>2132.0</ele>
        <time>2013-07-03T13:01:58Z</time>
      </trkpt>
      <trkpt lat="40.076933" lon="-4.832267">
        <ele>2131.0</ele>
        <time>2013-07-03T13:01:59Z</time>
      </trkpt>
      <trkpt lat="40.076833" lon="-4.832217">
        <ele>2132.0</ele>
        <time>2013-07-03T13:02:00Z</time>
      </trkpt>
      <trkpt lat="40.076750" lon="-4.832200">
        <ele>2133.0</ele>
        <time>2013-07-03T13:02:01Z</time>
      </trkpt>
      <trkpt lat="40.076683" lon="-4.832183">
        <ele>2134.0</ele>
        <time>2013-07-03T13:02:02Z</time>
      </trkpt>
      <trkpt lat="40.076617" lon="-4.832150">
        <ele>2134.0</ele>
        <time>2013-07-03T13:02:03Z</time>
      </trkpt>
      <trkpt lat="40.076550" lon="-4.832100">
        <ele>2132.0</ele>
        <time>2013-07-03T13:02:04Z</time>
      </trkpt>
      <trkpt lat="40.076467" lon="-4.832033">
        <ele>2130.0</ele>
        <time>2013-07-03T13:02:05Z</time>
      </trkpt>
      <trkpt lat="40.076367" lon="-4.831967">
        <ele>2129.0</ele>
        <time>2013-07-03T13:02:06Z</time>
      </trkpt>
      <trkpt lat="40.076267" lon="-4.831917">
        <ele>2130.0</ele>
        <time>2013-07-03T13:02:07Z</time>
      </trkpt>
      <trkpt lat="40.076183" lon="-4.831900">
        <ele>2131.0</ele>
        <time>2013-07-03T13:02:08Z</time>
      </trkpt>
      <trkpt lat="40.076100" lon="-4.831883">
        <ele>2132.0</ele>
        <time>2013-07-03T13:02:09Z</time>
      </trkpt>
      <trkpt lat="40.076033" lon="-4.831867">
        <ele>2131.0</ele>
        <time>2013-07-03T13:02:10Z</time>
      </trkpt>
      <trkpt lat="40.075950" lon="-4.831817">
        <ele>2129.0</ele>
        <time>2013-07-03T13:02:11Z</time>
      </trkpt>
      <trkpt lat="40.075867" lon="-4.831767">
        <ele>2127.0</ele>
        <time>2013-07-03T13:02:12Z</time>
      </trkpt>
      <trkpt lat="40.075767" lon="-4.831683">
        <ele>2125.0</ele>
        <time>2013-07-03T13:02:13Z</time>
      </trkpt>
      <trkpt lat="40.075683" lon="-4.831633">
        <ele>2123.0</ele>
        <time>2013-07-03T13:02:14Z</time>
      </trkpt>
      <trkpt lat="40.075583" lon="-4.831600">
        <ele>2122.0</ele>
        <time>2013-07-03T13:02:15Z</time>
      </trkpt>
      <trkpt lat="40.075500" lon="-4.831567">
        <ele>2121.0</ele>
        <time>2013-07-03T13:02:16Z</time>
      </trkpt>
      <trkpt lat="40.075400" lon="-4.831550">
        <ele>2119.0</ele>
        <time>2013-07-03T13:02:17Z</time>
      </trkpt>
      <trkpt lat="40.075317" lon="-4.831533">
        <ele>2116.0</ele>
        <time>2013-07-03T13:02:18Z</time>
      </trkpt>
      <trkpt lat="40.075217" lon="-4.831500">
        <ele>2114.0</ele>
        <time>2013-07-03T13:02:19Z</time>
      </trkpt>
      <trkpt lat="40.075117" lon="-4.831450">
        <ele>2111.0</ele>
        <time>2013-07-03T13:02:20Z</time>
      </trkpt>
      <trkpt lat="40.075017" lon="-4.831400">
        <ele>2110.0</ele>
        <time>2013-07-03T13:02:21Z</time>
      </trkpt>
      <trkpt lat="40.074917" lon="-4.831367">
        <ele>2111.0</ele>
        <time>2013-07-03T13:02:22Z</time>
      </trkpt>
      <trkpt lat="40.074833" lon="-4.831333">
        <ele>2111.0</ele>
        <time>2013-07-03T13:02:23Z</time>
      </trkpt>
      <trkpt lat="40.074750" lon="-4.831300">
        <ele>2110.0</ele>
        <time>2013-07-03T13:02:24Z</time>
      </trkpt>
      <trkpt lat="40.074667" lon="-4.831250">
        <ele>2108.0</ele>
        <time>2013-07-03T13:02:25Z</time>
      </trkpt>
      <trkpt lat="40.074583" lon="-4.831183">
        <ele>2107.0</ele>
        <time>2013-07-03T13:02:26Z</time>
      </trkpt>
      <trkpt lat="40.074483" lon="-4.831133">
        <ele>2107.0</ele>
        <time>2013-07-03T13:02:27Z</time>
      </trkpt>
      <trkpt lat="40.074400" lon="-4.831083">
        <ele>2107.0</ele>
        <time>2013-07-03T13:02:28Z</time>
      </trkpt>
      <trkpt lat="40.074333" lon="-4.831033">
        <ele>2107.0</ele>
        <time>2013-07-03T13:02:29Z</time>
      </trkpt>
      <trkpt lat="40.074250" lon="-4.830967">
        <ele>2106.0</ele>
        <time>2013-07-03T13:02:30Z</time>
      </trkpt>
      <trkpt lat="40.074167" lon="-4.830900">
        <ele>2104.0</ele>
        <time>2013-07-03T13:02:31Z</time>
      </trkpt>
      <trkpt lat="40.074083" lon="-4.830850">
        <ele>2101.0</ele>
        <time>2013-07-03T13:02:32Z</time>
      </trkpt>
      <trkpt lat="40.073967" lon="-4.830783">
        <ele>2099.0</ele>
        <time>2013-07-03T13:02:33Z</time>
      </trkpt>
      <trkpt lat="40.073867" lon="-4.830733">
        <ele>2096.0</ele>
        <time>2013-07-03T13:02:34Z</time>
      </trkpt>
      <trkpt lat="40.073767" lon="-4.830650">
        <ele>2094.0</ele>
        <time>2013-07-03T13:02:35Z</time>
      </trkpt>
      <trkpt lat="40.073650" lon="-4.830583">
        <ele>2092.0</ele>
        <time>2013-07-03T13:02:36Z</time>
      </trkpt>
      <trkpt lat="40.073550" lon="-4.830517">
        <ele>2091.0</ele>
        <time>2013-07-03T13:02:37Z</time>
      </trkpt>
      <trkpt lat="40.073433" lon="-4.830483">
        <ele>2089.0</ele>
        <time>2013-07-03T13:02:38Z</time>
      </trkpt>
      <trkpt lat="40.073333" lon="-4.830450">
        <ele>2088.0</ele>
        <time>2013-07-03T13:02:39Z</time>
      </trkpt>
      <trkpt lat="40.073233" lon="-4.830400">
        <ele>2086.0</ele>
        <time>2013-07-03T13:02:40Z</time>
      </trkpt>
      <trkpt lat="40.073133" lon="-4.830333">
        <ele>2083.0</ele>
        <time>2013-07-03T13:02:41Z</time>
      </trkpt>
      <trkpt lat="40.073033" lon="-4.830250">
        <ele>2081.0</ele>
        <time>2013-07-03T13:02:42Z</time>
      </trkpt>
      <trkpt lat="40.072933" lon="-4.830200">
        <ele>2078.0</ele>
        <time>2013-07-03T13:02:43Z</time>
      </trkpt>
      <trkpt lat="40.072817" lon="-4.830150">
        <ele>2077.0</ele>
        <time>2013-07-03T13:02:44Z</time>
      </trkpt>
      <trkpt lat="40.072717" lon="-4.830133">
        <ele>2077.0</ele>
        <time>2013-07-03T13:02:45Z</time>
      </trkpt>
      <trkpt lat="40.072617" lon="-4.830100">
        <ele>2076.0</ele>
        <time>2013-07-03T13:02:46Z</time>
      </trkpt>
      <trkpt lat="40.072533" lon="-4.830067">
        <ele>2074.0</ele>
        <time>2013-07-03T13:02:47Z</time>
      </trkpt>
      <trkpt lat="40.072450" lon="-4.830017">
        <ele>2073.0</ele>
        <time>2013-07-03T13:02:48Z</time>
      </trkpt>
      <trkpt lat="40.072350" lon="-4.829983">
        <ele>2072.0</ele>
        <time>2013-07-03T13:02:49Z</time>
      </trkpt>
      <trkpt lat="40.072233" lon="-4.829950">
        <ele>2070.0</ele>
        <time>2013-07-03T13:02:50Z</time>
      </trkpt>
      <trkpt lat="40.072117" lon="-4.829933">
        <ele>2069.0</ele>
        <time>2013-07-03T13:02:51Z</time>
      </trkpt>
      <trkpt lat="40.072017" lon="-4.829933">
        <ele>2068.0</ele>
        <time>2013-07-03T13:02:52Z</time>
      </trkpt>
      <trkpt lat="40.071917" lon="-4.829900">
        <ele>2066.0</ele>
        <time>2013-07-03T13:02:53Z</time>
      </trkpt>
      <trkpt lat="40.071817" lon="-4.829867">
        <ele>2063.0</ele>
        <time>2013-07-03T13:02:54Z</time>
      </trkpt>
      <trkpt lat="40.071700" lon="-4.829817">
        <ele>2061.0</ele>
        <time>2013-07-03T13:02:55Z</time>
      </trkpt>
      <trkpt lat="40.071600" lon="-4.829783">
        <ele>2059.0</ele>
        <time>2013-07-03T13:02:56Z</time>
      </trkpt>
      <trkpt lat="40.071483" lon="-4.829733">
        <ele>2057.0</ele>
        <time>2013-07-03T13:02:57Z</time>
      </trkpt>
      <trkpt lat="40.071367" lon="-4.829667">
        <ele>2056.0</ele>
        <time>2013-07-03T13:02:58Z</time>
      </trkpt>
      <trkpt lat="40.071267" lon="-4.829617">
        <ele>2055.0</ele>
        <time>2013-07-03T13:02:59Z</time>
      </trkpt>
      <trkpt lat="40.071167" lon="-4.829567">
        <ele>2052.0</ele>
        <time>2013-07-03T13:03:00Z</time>
      </trkpt>
      <trkpt lat="40.071067" lon="-4.829517">
        <ele>2050.0</ele>
        <time>2013-07-03T13:03:01Z</time>
      </trkpt>
      <trkpt lat="40.070967" lon="-4.829467">
        <ele>2048.0</ele>
        <time>2013-07-03T13:03:02Z</time>
      </trkpt>
      <trkpt lat="40.070867" lon="-4.829400">
        <ele>2045.0</ele>
        <time>2013-07-03T13:03:03Z</time>
      </trkpt>
      <trkpt lat="40.070750" lon="-4.829333">
        <ele>2043.0</ele>
        <time>2013-07-03T13:03:04Z</time>
      </trkpt>
      <trkpt lat="40.070650" lon="-4.829283">
        <ele>2041.0</ele>
        <time>2013-07-03T13:03:05Z</time>
      </trkpt>
      <trkpt lat="40.070550" lon="-4.829233">
        <ele>2039.0</ele>
        <time>2013-07-03T13:03:06Z</time>
      </trkpt>
      <trkpt lat="40.070450" lon="-4.829200">
        <ele>2037.0</ele>
        <time>2013-07-03T13:03:07Z</time>
      </trkpt>
      <trkpt lat="40.070350" lon="-4.829150">
        <ele>2034.0</ele>
        <time>2013-07-03T13:03:08Z</time>
      </trkpt>
      <trkpt lat="40.070250" lon="-4.829100">
        <ele>2030.0</ele>
        <time>2013-07-03T13:03:09Z</time>
      </trkpt>
      <trkpt lat="40.070133" lon="-4.829050">
        <ele>2027.0</ele>
        <time>2013-07-03T13:03:10Z</time>
      </trkpt>
      <trkpt lat="40.070033" lon="-4.828983">
        <ele>2024.0</ele>
        <time>2013-07-03T13:03:11Z</time>
      </trkpt>
      <trkpt lat="40.069933" lon="-4.828917">
        <ele>2022.0</ele>
        <time>2013-07-03T13:03:12Z</time>
      </trkpt>
      <trkpt lat="40.069833" lon="-4.828833">
        <ele>2020.0</ele>
        <time>2013-07-03T13:03:13Z</time>
      </trkpt>
      <trkpt lat="40.069750" lon="-4.828783">
        <ele>2017.0</ele>
        <time>2013-07-03T13:03:14Z</time>
      </trkpt>
      <trkpt lat="40.069650" lon="-4.828717">
        <ele>2014.0</ele>
        <time>2013-07-03T13:03:15Z</time>
      </trkpt>
      <trkpt lat="40.069533" lon="-4.828650">
        <ele>2010.0</ele>
        <time>2013-07-03T13:03:16Z</time>
      </trkpt>
      <trkpt lat="40.069433" lon="-4.828567">
        <ele>2007.0</ele>
        <time>2013-07-03T13:03:17Z</time>
      </trkpt>
      <trkpt lat="40.069333" lon="-4.828483">
        <ele>2005.0</ele>
        <time>2013-07-03T13:03:18Z</time>
      </trkpt>
      <trkpt lat="40.069233" lon="-4.828417">
        <ele>2003.0</ele>
        <time>2013-07-03T13:03:19Z</time>
      </trkpt>
      <trkpt lat="40.069133" lon="-4.828383">
        <ele>2000.0</ele>
        <time>2013-07-03T13:03:20Z</time>
      </trkpt>
      <trkpt lat="40.069033" lon="-4.828350">
        <ele>1997.0</ele>
        <time>2013-07-03T13:03:21Z</time>
      </trkpt>
      <trkpt lat="40.068933" lon="-4.828317">
        <ele>1994.0</ele>
        <time>2013-07-03T13:03:22Z</time>
      </trkpt>
      <trkpt lat="40.068817" lon="-4.828300">
        <ele>1989.0</ele>
        <time>2013-07-03T13:03:23Z</time>
      </trkpt>
      <trkpt lat="40.068700" lon="-4.828283">
        <ele>1985.0</ele>
        <time>2013-07-03T13:03:24Z</time>
      </trkpt>
      <trkpt lat="40.068583" lon="-4.828283">
        <ele>1980.0</ele>
        <time>2013-07-03T13:03:25Z</time>
      </trkpt>
      <trkpt lat="40.068467" lon="-4.828283">
        <ele>1976.0</ele>
        <time>2013-07-03T13:03:26Z</time>
      </trkpt>
      <trkpt lat="40.068350" lon="-4.828300">
        <ele>1972.0</ele>
        <time>2013-07-03T13:03:27Z</time>
      </trkpt>
      <trkpt lat="40.068233" lon="-4.828300">
        <ele>1967.0</ele>
        <time>2013-07-03T13:03:28Z</time>
      </trkpt>
      <trkpt lat="40.068133" lon="-4.828317">
        <ele>1963.0</ele>
        <time>2013-07-03T13:03:29Z</time>
      </trkpt>
      <trkpt lat="40.068017" lon="-4.828333">
        <ele>1958.0</ele>
        <time>2013-07-03T13:03:30Z</time>
      </trkpt>
      <trkpt lat="40.067883" lon="-4.828367">
        <ele>1952.0</ele>
        <time>2013-07-03T13:03:31Z</time>
      </trkpt>
      <trkpt lat="40.067767" lon="-4.828400">
        <ele>1947.0</ele>
        <time>2013-07-03T13:03:32Z</time>
      </trkpt>
      <trkpt lat="40.067617" lon="-4.828400">
        <ele>1942.0</ele>
        <time>2013-07-03T13:03:33Z</time>
      </trkpt>
      <trkpt lat="40.067500" lon="-4.828367">
        <ele>1939.0</ele>
        <time>2013-07-03T13:03:34Z</time>
      </trkpt>
      <trkpt lat="40.067383" lon="-4.828317">
        <ele>1936.0</ele>
        <time>2013-07-03T13:03:35Z</time>
      </trkpt>
      <trkpt lat="40.067283" lon="-4.828267">
        <ele>1933.0</ele>
        <time>2013-07-03T13:03:36Z</time>
      </trkpt>
      <trkpt lat="40.067183" lon="-4.828217">
        <ele>1929.0</ele>
        <time>2013-07-03T13:03:37Z</time>
      </trkpt>
      <trkpt lat="40.067083" lon="-4.828183">
        <ele>1924.0</ele>
        <time>2013-07-03T13:03:38Z</time>
      </trkpt>
      <trkpt lat="40.066967" lon="-4.828150">
        <ele>1920.0</ele>
        <time>2013-07-03T13:03:39Z</time>
      </trkpt>
      <trkpt lat="40.066850" lon="-4.828117">
        <ele>1915.0</ele>
        <time>2013-07-03T13:03:40Z</time>
      </trkpt>
      <trkpt lat="40.066717" lon="-4.828083">
        <ele>1911.0</ele>
        <time>2013-07-03T13:03:41Z</time>
      </trkpt>
      <trkpt lat="40.066600" lon="-4.828050">
        <ele>1908.0</ele>
        <time>2013-07-03T13:03:42Z</time>
      </trkpt>
      <trkpt lat="40.066467" lon="-4.828017">
        <ele>1905.0</ele>
        <time>2013-07-03T13:03:43Z</time>
      </trkpt>
      <trkpt lat="40.066350" lon="-4.828000">
        <ele>1902.0</ele>
        <time>2013-07-03T13:03:44Z</time>
      </trkpt>
      <trkpt lat="40.066233" lon="-4.827967">
        <ele>1900.0</ele>
        <time>2013-07-03T13:03:45Z</time>
      </trkpt>
      <trkpt lat="40.066117" lon="-4.827917">
        <ele>1897.0</ele>
        <time>2013-07-03T13:03:46Z</time>
      </trkpt>
      <trkpt lat="40.066000" lon="-4.827900">
        <ele>1896.0</ele>
        <time>2013-07-03T13:03:47Z</time>
      </trkpt>
      <trkpt lat="40.065900" lon="-4.827900">
        <ele>1893.0</ele>
        <time>2013-07-03T13:03:48Z</time>
      </trkpt>
      <trkpt lat="40.065783" lon="-4.827883">
        <ele>1891.0</ele>
        <time>2013-07-03T13:03:49Z</time>
      </trkpt>
      <trkpt lat="40.065667" lon="-4.827883">
        <ele>1889.0</ele>
        <time>2013-07-03T13:03:50Z</time>
      </trkpt>
      <trkpt lat="40.065550" lon="-4.827850">
        <ele>1886.0</ele>
        <time>2013-07-03T13:03:51Z</time>
      </trkpt>
      <trkpt lat="40.065433" lon="-4.827800">
        <ele>1885.0</ele>
        <time>2013-07-03T13:03:52Z</time>
      </trkpt>
      <trkpt lat="40.065317" lon="-4.827767">
        <ele>1885.0</ele>
        <time>2013-07-03T13:03:53Z</time>
      </trkpt>
      <trkpt lat="40.065200" lon="-4.827717">
        <ele>1884.0</ele>
        <time>2013-07-03T13:03:54Z</time>
      </trkpt>
      <trkpt lat="40.065100" lon="-4.827683">
        <ele>1883.0</ele>
        <time>2013-07-03T13:03:55Z</time>
      </trkpt>
      <trkpt lat="40.065000" lon="-4.827633">
        <ele>1882.0</ele>
        <time>2013-07-03T13:03:56Z</time>
      </trkpt>
      <trkpt lat="40.064883" lon="-4.827567">
        <ele>1881.0</ele>
        <time>2013-07-03T13:03:57Z</time>
      </trkpt>
      <trkpt lat="40.064767" lon="-4.827517">
        <ele>1880.0</ele>
        <time>2013-07-03T13:03:58Z</time>
      </trkpt>
      <trkpt lat="40.064650" lon="-4.827483">
        <ele>1879.0</ele>
        <time>2013-07-03T13:03:59Z</time>
      </trkpt>
      <trkpt lat="40.064533" lon="-4.827433">
        <ele>1881.0</ele>
        <time>2013-07-03T13:04:00Z</time>
      </trkpt>
      <trkpt lat="40.064433" lon="-4.827383">
        <ele>1881.0</ele>
        <time>2013-07-03T13:04:01Z</time>
      </trkpt>
      <trkpt lat="40.064333" lon="-4.827317">
        <ele>1879.0</ele>
        <time>2013-07-03T13:04:02Z</time>
      </trkpt>
      <trkpt lat="40.064233" lon="-4.827250">
        <ele>1878.0</ele>
        <time>2013-07-03T13:04:03Z</time>
      </trkpt>
      <trkpt lat="40.064117" lon="-4.827200">
        <ele>1877.0</ele>
        <time>2013-07-03T13:04:04Z</time>
      </trkpt>
      <trkpt lat="40.064017" lon="-4.827133">
        <ele>1875.0</ele>
        <time>2013-07-03T13:04:05Z</time>
      </trkpt>
      <trkpt lat="40.063933" lon="-4.827083">
        <ele>1874.0</ele>
        <time>2013-07-03T13:04:06Z</time>
      </trkpt>
      <trkpt lat="40.063850" lon="-4.827000">
        <ele>1871.0</ele>
        <time>2013-07-03T13:04:07Z</time>
      </trkpt>
      <trkpt lat="40.063767" lon="-4.826933">
        <ele>1869.0</ele>
        <time>2013-07-03T13:04:08Z</time>
      </trkpt>
      <trkpt lat="40.063667" lon="-4.826867">
        <ele>1867.0</ele>
        <time>2013-07-03T13:04:09Z</time>
      </trkpt>
      <trkpt lat="40.063567" lon="-4.826800">
        <ele>1866.0</ele>
        <time>2013-07-03T13:04:10Z</time>
      </trkpt>
      <trkpt lat="40.063483" lon="-4.826750">
        <ele>1864.0</ele>
        <time>2013-07-03T13:04:11Z</time>
      </trkpt>
      <trkpt lat="40.063417" lon="-4.826683">
        <ele>1862.0</ele>
        <time>2013-07-03T13:04:12Z</time>
      </trkpt>
      <trkpt lat="40.063333" lon="-4.826600">
        <ele>1859.0</ele>
        <time>2013-07-03T13:04:13Z</time>
      </trkpt>
      <trkpt lat="40.063250" lon="-4.826500">
        <ele>1856.0</ele>
        <time>2013-07-03T13:04:14Z</time>
      </trkpt>
      <trkpt lat="40.063167" lon="-4.826400">
        <ele>1852.0</ele>
        <time>2013-07-03T13:04:15Z</time>
      </trkpt>
      <trkpt lat="40.063067" lon="-4.826300">
        <ele>1848.0</ele>
        <time>2013-07-03T13:04:16Z</time>
      </trkpt>
      <trkpt lat="40.062967" lon="-4.826200">
        <ele>1844.0</ele>
        <time>2013-07-03T13:04:17Z</time>
      </trkpt>
      <trkpt lat="40.062883" lon="-4.826083">
        <ele>1841.0</ele>
        <time>2013-07-03T13:04:18Z</time>
      </trkpt>
      <trkpt lat="40.062817" lon="-4.825967">
        <ele>1837.0</ele>
        <time>2013-07-03T13:04:19Z</time>
      </trkpt>
      <trkpt lat="40.062767" lon="-4.825833">
        <ele>1834.0</ele>
        <time>2013-07-03T13:04:20Z</time>
      </trkpt>
      <trkpt lat="40.062700" lon="-4.825700">
        <ele>1831.0</ele>
        <time>2013-07-03T13:04:21Z</time>
      </trkpt>
      <trkpt lat="40.062633" lon="-4.825583">
        <ele>1829.0</ele>
        <time>2013-07-03T13:04:22Z</time>
      </trkpt>
      <trkpt lat="40.062583" lon="-4.825467">
        <ele>1827.0</ele>
        <time>2013-07-03T13:04:23Z</time>
      </trkpt>
      <trkpt lat="40.062517" lon="-4.825350">
        <ele>1826.0</ele>
        <time>2013-07-03T13:04:24Z</time>
      </trkpt>
      <trkpt lat="40.062483" lon="-4.825233">
        <ele>1824.0</ele>
        <time>2013-07-03T13:04:25Z</time>
      </trkpt>
      <trkpt lat="40.062433" lon="-4.825117">
        <ele>1822.0</ele>
        <time>2013-07-03T13:04:26Z</time>
      </trkpt>
      <trkpt lat="40.062383" lon="-4.824983">
        <ele>1820.0</ele>
        <time>2013-07-03T13:04:27Z</time>
      </trkpt>
      <trkpt lat="40.062333" lon="-4.824867">
        <ele>1818.0</ele>
        <time>2013-07-03T13:04:28Z</time>
      </trkpt>
      <trkpt lat="40.062283" lon="-4.824717">
        <ele>1816.0</ele>
        <time>2013-07-03T13:04:29Z</time>
      </trkpt>
      <trkpt lat="40.062250" lon="-4.824583">
        <ele>1814.0</ele>
        <time>2013-07-03T13:04:30Z</time>
      </trkpt>
      <trkpt lat="40.062233" lon="-4.824433">
        <ele>1812.0</ele>
        <time>2013-07-03T13:04:31Z</time>
      </trkpt>
      <trkpt lat="40.062200" lon="-4.824300">
        <ele>1809.0</ele>
        <time>2013-07-03T13:04:32Z</time>
      </trkpt>
      <trkpt lat="40.062167" lon="-4.824167">
        <ele>1806.0</ele>
        <time>2013-07-03T13:04:33Z</time>
      </trkpt>
      <trkpt lat="40.062133" lon="-4.824033">
        <ele>1801.0</ele>
        <time>2013-07-03T13:04:34Z</time>
      </trkpt>
      <trkpt lat="40.062100" lon="-4.823883">
        <ele>1797.0</ele>
        <time>2013-07-03T13:04:35Z</time>
      </trkpt>
      <trkpt lat="40.062083" lon="-4.823750">
        <ele>1794.0</ele>
        <time>2013-07-03T13:04:36Z</time>
      </trkpt>
      <trkpt lat="40.062067" lon="-4.823583">
        <ele>1791.0</ele>
        <time>2013-07-03T13:04:37Z</time>
      </trkpt>
      <trkpt lat="40.062050" lon="-4.823450">
        <ele>1788.0</ele>
        <time>2013-07-03T13:04:38Z</time>
      </trkpt>
      <trkpt lat="40.062017" lon="-4.823317">
        <ele>1785.0</ele>
        <time>2013-07-03T13:04:39Z</time>
      </trkpt>
      <trkpt lat="40.061983" lon="-4.823200">
        <ele>1783.0</ele>
        <time>2013-07-03T13:04:40Z</time>
      </trkpt>
      <trkpt lat="40.061950" lon="-4.823067">
        <ele>1780.0</ele>
        <time>2013-07-03T13:04:41Z</time>
      </trkpt>
      <trkpt lat="40.061933" lon="-4.822933">
        <ele>1776.0</ele>
        <time>2013-07-03T13:04:42Z</time>
      </trkpt>
      <trkpt lat="40.061917" lon="-4.822783">
        <ele>1773.0</ele>
        <time>2013-07-03T13:04:43Z</time>
      </trkpt>
      <trkpt lat="40.061883" lon="-4.822633">
        <ele>1770.0</ele>
        <time>2013-07-03T13:04:44Z</time>
      </trkpt>
      <trkpt lat="40.061850" lon="-4.822483">
        <ele>1769.0</ele>
        <time>2013-07-03T13:04:45Z</time>
      </trkpt>
      <trkpt lat="40.061817" lon="-4.822333">
        <ele>1767.0</ele>
        <time>2013-07-03T13:04:46Z</time>
      </trkpt>
      <trkpt lat="40.061800" lon="-4.822183">
        <ele>1765.0</ele>
        <time>2013-07-03T13:04:47Z</time>
      </trkpt>
      <trkpt lat="40.061783" lon="-4.822033">
        <ele>1762.0</ele>
        <time>2013-07-03T13:04:48Z</time>
      </trkpt>
      <trkpt lat="40.061750" lon="-4.821883">
        <ele>1760.0</ele>
        <time>2013-07-03T13:04:49Z</time>
      </trkpt>
      <trkpt lat="40.061733" lon="-4.821733">
        <ele>1758.0</ele>
        <time>2013-07-03T13:04:50Z</time>
      </trkpt>
      <trkpt lat="40.061700" lon="-4.821583">
        <ele>1756.0</ele>
        <time>2013-07-03T13:04:51Z</time>
      </trkpt>
      <trkpt lat="40.061683" lon="-4.821450">
        <ele>1754.0</ele>
        <time>2013-07-03T13:04:52Z</time>
      </trkpt>
      <trkpt lat="40.061667" lon="-4.821300">
        <ele>1751.0</ele>
        <time>2013-07-03T13:04:53Z</time>
      </trkpt>
      <trkpt lat="40.061650" lon="-4.821150">
        <ele>1748.0</ele>
        <time>2013-07-03T13:04:54Z</time>
      </trkpt>
      <trkpt lat="40.061617" lon="-4.821000">
        <ele>1745.0</ele>
        <time>2013-07-03T13:04:55Z</time>
      </trkpt>
      <trkpt lat="40.061600" lon="-4.820833">
        <ele>1742.0</ele>
        <time>2013-07-03T13:04:56Z</time>
      </trkpt>
      <trkpt lat="40.061583" lon="-4.820683">
        <ele>1740.0</ele>
        <time>2013-07-03T13:04:57Z</time>
      </trkpt>
      <trkpt lat="40.061567" lon="-4.820550">
        <ele>1738.0</ele>
        <time>2013-07-03T13:04:58Z</time>
      </trkpt>
      <trkpt lat="40.061550" lon="-4.820417">
        <ele>1736.0</ele>
        <time>2013-07-03T13:04:59Z</time>
      </trkpt>
      <trkpt lat="40.061517" lon="-4.820283">
        <ele>1733.0</ele>
        <time>2013-07-03T13:05:00Z</time>
      </trkpt>
      <trkpt lat="40.061483" lon="-4.820133">
        <ele>1729.0</ele>
        <time>2013-07-03T13:05:01Z</time>
      </trkpt>
      <trkpt lat="40.061433" lon="-4.819983">
        <ele>1724.0</ele>
        <time>2013-07-03T13:05:02Z</time>
      </trkpt>
      <trkpt lat="40.061367" lon="-4.819817">
        <ele>1721.0</ele>
        <time>2013-07-03T13:05:03Z</time>
      </trkpt>
      <trkpt lat="40.061317" lon="-4.819650">
        <ele>1717.0</ele>
        <time>2013-07-03T13:05:04Z</time>
      </trkpt>
      <trkpt lat="40.061267" lon="-4.819500">
        <ele>1715.0</ele>
        <time>2013-07-03T13:05:05Z</time>
      </trkpt>
      <trkpt lat="40.061217" lon="-4.819367">
        <ele>1712.0</ele>
        <time>2013-07-03T13:05:06Z</time>
      </trkpt>
      <trkpt lat="40.061150" lon="-4.819233">
        <ele>1709.0</ele>
        <time>2013-07-03T13:05:07Z</time>
      </trkpt>
      <trkpt lat="40.061083" lon="-4.819100">
        <ele>1705.0</ele>
        <time>2013-07-03T13:05:08Z</time>
      </trkpt>
      <trkpt lat="40.061033" lon="-4.818950">
        <ele>1701.0</ele>
        <time>2013-07-03T13:05:09Z</time>
      </trkpt>
      <trkpt lat="40.060967" lon="-4.818800">
        <ele>1697.0</ele>
        <time>2013-07-03T13:05:10Z</time>
      </trkpt>
      <trkpt lat="40.060917" lon="-4.818633">
        <ele>1695.0</ele>
        <time>2013-07-03T13:05:11Z</time>
      </trkpt>
      <trkpt lat="40.060850" lon="-4.818500">
        <ele>1694.0</ele>
        <time>2013-07-03T13:05:12Z</time>
      </trkpt>
      <trkpt lat="40.060800" lon="-4.818367">
        <ele>1691.0</ele>
        <time>2013-07-03T13:05:13Z</time>
      </trkpt>
      <trkpt lat="40.060750" lon="-4.818233">
        <ele>1688.0</ele>
        <time>2013-07-03T13:05:14Z</time>
      </trkpt>
      <trkpt lat="40.060700" lon="-4.818083">
        <ele>1684.0</ele>
        <time>2013-07-03T13:05:15Z</time>
      </trkpt>
      <trkpt lat="40.060650" lon="-4.817950">
        <ele>1680.0</ele>
        <time>2013-07-03T13:05:16Z</time>
      </trkpt>
      <trkpt lat="40.060583" lon="-4.817783">
        <ele>1678.0</ele>
        <time>2013-07-03T13:05:17Z</time>
      </trkpt>
      <trkpt lat="40.060517" lon="-4.817633">
        <ele>1676.0</ele>
        <time>2013-07-03T13:05:18Z</time>
      </trkpt>
      <trkpt lat="40.060467" lon="-4.817500">
        <ele>1674.0</ele>
        <time>2013-07-03T13:05:19Z</time>
      </trkpt>
      <trkpt lat="40.060417" lon="-4.817350">
        <ele>1674.0</ele>
        <time>2013-07-03T13:05:20Z</time>
      </trkpt>
      <trkpt lat="40.060367" lon="-4.817233">
        <ele>1673.0</ele>
        <time>2013-07-03T13:05:21Z</time>
      </trkpt>
      <trkpt lat="40.060300" lon="-4.817100">
        <ele>1672.0</ele>
        <time>2013-07-03T13:05:22Z</time>
      </trkpt>
      <trkpt lat="40.060233" lon="-4.816983">
        <ele>1671.0</ele>
        <time>2013-07-03T13:05:23Z</time>
      </trkpt>
      <trkpt lat="40.060183" lon="-4.816850">
        <ele>1671.0</ele>
        <time>2013-07-03T13:05:24Z</time>
      </trkpt>
      <trkpt lat="40.060117" lon="-4.816733">
        <ele>1672.0</ele>
        <time>2013-07-03T13:05:25Z</time>
      </trkpt>
      <trkpt lat="40.060067" lon="-4.816633">
        <ele>1673.0</ele>
        <time>2013-07-03T13:05:26Z</time>
      </trkpt>
      <trkpt lat="40.060017" lon="-4.816550">
        <ele>1675.0</ele>
        <time>2013-07-03T13:05:27Z</time>
      </trkpt>
      <trkpt lat="40.059983" lon="-4.816467">
        <ele>1678.0</ele>
        <time>2013-07-03T13:05:28Z</time>
      </trkpt>
      <trkpt lat="40.059983" lon="-4.816383">
        <ele>1681.0</ele>
        <time>2013-07-03T13:05:29Z</time>
      </trkpt>
      <trkpt lat="40.059967" lon="-4.816317">
        <ele>1685.0</ele>
        <time>2013-07-03T13:05:30Z</time>
      </trkpt>
      <trkpt lat="40.059950" lon="-4.816267">
        <ele>1688.0</ele>
        <time>2013-07-03T13:05:31Z</time>
      </trkpt>
      <trkpt lat="40.059917" lon="-4.816233">
        <ele>1689.0</ele>
        <time>2013-07-03T13:05:32Z</time>
      </trkpt>
      <trkpt lat="40.059867" lon="-4.816200">
        <ele>1691.0</ele>
        <time>2013-07-03T13:05:33Z</time>
      </trkpt>
      <trkpt lat="40.059783" lon="-4.816200">
        <ele>1693.0</ele>
        <time>2013-07-03T13:05:34Z</time>
      </trkpt>
      <trkpt lat="40.059717" lon="-4.816200">
        <ele>1697.0</ele>
        <time>2013-07-03T13:05:35Z</time>
      </trkpt>
      <trkpt lat="40.059650" lon="-4.816233">
        <ele>1701.0</ele>
        <time>2013-07-03T13:05:36Z</time>
      </trkpt>
      <trkpt lat="40.059583" lon="-4.816300">
        <ele>1705.0</ele>
        <time>2013-07-03T13:05:37Z</time>
      </trkpt>
      <trkpt lat="40.059533" lon="-4.816383">
        <ele>1709.0</ele>
        <time>2013-07-03T13:05:38Z</time>
      </trkpt>
      <trkpt lat="40.059517" lon="-4.816483">
        <ele>1714.0</ele>
        <time>2013-07-03T13:05:39Z</time>
      </trkpt>
      <trkpt lat="40.059500" lon="-4.816583">
        <ele>1719.0</ele>
        <time>2013-07-03T13:05:40Z</time>
      </trkpt>
      <trkpt lat="40.059500" lon="-4.816667">
        <ele>1725.0</ele>
        <time>2013-07-03T13:05:41Z</time>
      </trkpt>
      <trkpt lat="40.059500" lon="-4.816767">
        <ele>1729.0</ele>
        <time>2013-07-03T13:05:42Z</time>
      </trkpt>
      <trkpt lat="40.059517" lon="-4.816850">
        <ele>1730.0</ele>
        <time>2013-07-03T13:05:43Z</time>
      </trkpt>
      <trkpt lat="40.059550" lon="-4.816917">
        <ele>1730.0</ele>
        <time>2013-07-03T13:05:44Z</time>
      </trkpt>
      <trkpt lat="40.059600" lon="-4.816983">
        <ele>1730.0</ele>
        <time>2013-07-03T13:05:45Z</time>
      </trkpt>
      <trkpt lat="40.059633" lon="-4.817017">
        <ele>1731.0</ele>
        <time>2013-07-03T13:05:46Z</time>
      </trkpt>
      <trkpt lat="40.059667" lon="-4.817017">
        <ele>1732.0</ele>
        <time>2013-07-03T13:05:47Z</time>
      </trkpt>
      <trkpt lat="40.059683" lon="-4.817000">
        <ele>1732.0</ele>
        <time>2013-07-03T13:05:48Z</time>
      </trkpt>
      <trkpt lat="40.059700" lon="-4.816933">
        <ele>1731.0</ele>
        <time>2013-07-03T13:05:49Z</time>
      </trkpt>
      <trkpt lat="40.059700" lon="-4.816817">
        <ele>1732.0</ele>
        <time>2013-07-03T13:05:50Z</time>
      </trkpt>
      <trkpt lat="40.059667" lon="-4.816717">
        <ele>1733.0</ele>
        <time>2013-07-03T13:05:51Z</time>
      </trkpt>
      <trkpt lat="40.059600" lon="-4.816617">
        <ele>1734.0</ele>
        <time>2013-07-03T13:05:52Z</time>
      </trkpt>
      <trkpt lat="40.059533" lon="-4.816550">
        <ele>1735.0</ele>
        <time>2013-07-03T13:05:53Z</time>
      </trkpt>
      <trkpt lat="40.059483" lon="-4.816467">
        <ele>1736.0</ele>
        <time>2013-07-03T13:05:54Z</time>
      </trkpt>
      <trkpt lat="40.059433" lon="-4.816383">
        <ele>1737.0</ele>
        <time>2013-07-03T13:05:55Z</time>
      </trkpt>
      <trkpt lat="40.059383" lon="-4.816283">
        <ele>1738.0</ele>
        <time>2013-07-03T13:05:56Z</time>
      </trkpt>
      <trkpt lat="40.059350" lon="-4.816167">
        <ele>1740.0</ele>
        <time>2013-07-03T13:05:57Z</time>
      </trkpt>
      <trkpt lat="40.059300" lon="-4.816033">
        <ele>1743.0</ele>
        <time>2013-07-03T13:05:58Z</time>
      </trkpt>
      <trkpt lat="40.059233" lon="-4.815933">
        <ele>1747.0</ele>
        <time>2013-07-03T13:05:59Z</time>
      </trkpt>
      <trkpt lat="40.059167" lon="-4.815833">
        <ele>1750.0</ele>
        <time>2013-07-03T13:06:00Z</time>
      </trkpt>
      <trkpt lat="40.059100" lon="-4.815733">
        <ele>1755.0</ele>
        <time>2013-07-03T13:06:01Z</time>
      </trkpt>
      <trkpt lat="40.059033" lon="-4.815633">
        <ele>1761.0</ele>
        <time>2013-07-03T13:06:02Z</time>
      </trkpt>
      <trkpt lat="40.059000" lon="-4.815533">
        <ele>1766.0</ele>
        <time>2013-07-03T13:06:03Z</time>
      </trkpt>
      <trkpt lat="40.058983" lon="-4.815433">
        <ele>1770.0</ele>
        <time>2013-07-03T13:06:04Z</time>
      </trkpt>
      <trkpt lat="40.059000" lon="-4.815317">
        <ele>1774.0</ele>
        <time>2013-07-03T13:06:05Z</time>
      </trkpt>
      <trkpt lat="40.059017" lon="-4.815200">
        <ele>1778.0</ele>
        <time>2013-07-03T13:06:06Z</time>
      </trkpt>
      <trkpt lat="40.059067" lon="-4.815100">
        <ele>1781.0</ele>
        <time>2013-07-03T13:06:07Z</time>
      </trkpt>
      <trkpt lat="40.059133" lon="-4.815050">
        <ele>1783.0</ele>
        <time>2013-07-03T13:06:08Z</time>
      </trkpt>
      <trkpt lat="40.059233" lon="-4.815033">
        <ele>1784.0</ele>
        <time>2013-07-03T13:06:09Z</time>
      </trkpt>
      <trkpt lat="40.059317" lon="-4.815083">
        <ele>1786.0</ele>
        <time>2013-07-03T13:06:10Z</time>
      </trkpt>
      <trkpt lat="40.059367" lon="-4.815183">
        <ele>1787.0</ele>
        <time>2013-07-03T13:06:11Z</time>
      </trkpt>
      <trkpt lat="40.059367" lon="-4.815283">
        <ele>1789.0</ele>
        <time>2013-07-03T13:06:12Z</time>
      </trkpt>
      <trkpt lat="40.059333" lon="-4.815367">
        <ele>1791.0</ele>
        <time>2013-07-03T13:06:13Z</time>
      </trkpt>
      <trkpt lat="40.059283" lon="-4.815433">
        <ele>1793.0</ele>
        <time>2013-07-03T13:06:14Z</time>
      </trkpt>
      <trkpt lat="40.059217" lon="-4.815483">
        <ele>1796.0</ele>
        <time>2013-07-03T13:06:15Z</time>
      </trkpt>
      <trkpt lat="40.059150" lon="-4.815517">
        <ele>1799.0</ele>
        <time>2013-07-03T13:06:16Z</time>
      </trkpt>
      <trkpt lat="40.059050" lon="-4.815517">
        <ele>1802.0</ele>
        <time>2013-07-03T13:06:17Z</time>
      </trkpt>
      <trkpt lat="40.058950" lon="-4.815467">
        <ele>1807.0</ele>
        <time>2013-07-03T13:06:18Z</time>
      </trkpt>
      <trkpt lat="40.058867" lon="-4.815417">
        <ele>1813.0</ele>
        <time>2013-07-03T13:06:19Z</time>
      </trkpt>
      <trkpt lat="40.058817" lon="-4.815350">
        <ele>1820.0</ele>
        <time>2013-07-03T13:06:20Z</time>
      </trkpt>
      <trkpt lat="40.058783" lon="-4.815283">
        <ele>1825.0</ele>
        <time>2013-07-03T13:06:21Z</time>
      </trkpt>
      <trkpt lat="40.058750" lon="-4.815200">
        <ele>1828.0</ele>
        <time>2013-07-03T13:06:22Z</time>
      </trkpt>
      <trkpt lat="40.058733" lon="-4.815083">
        <ele>1831.0</ele>
        <time>2013-07-03T13:06:23Z</time>
      </trkpt>
      <trkpt lat="40.058750" lon="-4.814950">
        <ele>1833.0</ele>
        <time>2013-07-03T13:06:24Z</time>
      </trkpt>
      <trkpt lat="40.058833" lon="-4.814833">
        <ele>1835.0</ele>
        <time>2013-07-03T13:06:25Z</time>
      </trkpt>
      <trkpt lat="40.058917" lon="-4.814783">
        <ele>1837.0</ele>
        <time>2013-07-03T13:06:26Z</time>
      </trkpt>
      <trkpt lat="40.059017" lon="-4.814800">
        <ele>1838.0</ele>
        <time>2013-07-03T13:06:27Z</time>
      </trkpt>
      <trkpt lat="40.059100" lon="-4.814850">
        <ele>1839.0</ele>
        <time>2013-07-03T13:06:28Z</time>
      </trkpt>
      <trkpt lat="40.059133" lon="-4.814950">
        <ele>1839.0</ele>
        <time>2013-07-03T13:06:29Z</time>
      </trkpt>
      <trkpt lat="40.059167" lon="-4.815050">
        <ele>1839.0</ele>
        <time>2013-07-03T13:06:30Z</time>
      </trkpt>
      <trkpt lat="40.059150" lon="-4.815150">
        <ele>1839.0</ele>
        <time>2013-07-03T13:06:31Z</time>
      </trkpt>
      <trkpt lat="40.059117" lon="-4.815267">
        <ele>1840.0</ele>
        <time>2013-07-03T13:06:32Z</time>
      </trkpt>
      <trkpt lat="40.059033" lon="-4.815367">
        <ele>1841.0</ele>
        <time>2013-07-03T13:06:33Z</time>
      </trkpt>
      <trkpt lat="40.058900" lon="-4.815417">
        <ele>1844.0</ele>
        <time>2013-07-03T13:06:34Z</time>
      </trkpt>
      <trkpt lat="40.058767" lon="-4.815400">
        <ele>1846.0</ele>
        <time>2013-07-03T13:06:35Z</time>
      </trkpt>
      <trkpt lat="40.058667" lon="-4.815333">
        <ele>1852.0</ele>
        <time>2013-07-03T13:06:36Z</time>
      </trkpt>
      <trkpt lat="40.058567" lon="-4.815250">
        <ele>1860.0</ele>
        <time>2013-07-03T13:06:37Z</time>
      </trkpt>
      <trkpt lat="40.058517" lon="-4.815167">
        <ele>1865.0</ele>
        <time>2013-07-03T13:06:38Z</time>
      </trkpt>
      <trkpt lat="40.058467" lon="-4.815100">
        <ele>1869.0</ele>
        <time>2013-07-03T13:06:39Z</time>
      </trkpt>
      <trkpt lat="40.058400" lon="-4.815050">
        <ele>1871.0</ele>
        <time>2013-07-03T13:06:40Z</time>
      </trkpt>
      <trkpt lat="40.058333" lon="-4.814967">
        <ele>1872.0</ele>
        <time>2013-07-03T13:06:41Z</time>
      </trkpt>
      <trkpt lat="40.058267" lon="-4.814850">
        <ele>1874.0</ele>
        <time>2013-07-03T13:06:42Z</time>
      </trkpt>
      <trkpt lat="40.058217" lon="-4.814717">
        <ele>1876.0</ele>
        <time>2013-07-03T13:06:43Z</time>
      </trkpt>
      <trkpt lat="40.058233" lon="-4.814600">
        <ele>1878.0</ele>
        <time>2013-07-03T13:06:44Z</time>
      </trkpt>
      <trkpt lat="40.058283" lon="-4.814483">
        <ele>1879.0</ele>
        <time>2013-07-03T13:06:45Z</time>
      </trkpt>
      <trkpt lat="40.058350" lon="-4.814383">
        <ele>1881.0</ele>
        <time>2013-07-03T13:06:46Z</time>
      </trkpt>
      <trkpt lat="40.058433" lon="-4.814300">
        <ele>1883.0</ele>
        <time>2013-07-03T13:06:47Z</time>
      </trkpt>
      <trkpt lat="40.058500" lon="-4.814250">
        <ele>1885.0</ele>
        <time>2013-07-03T13:06:48Z</time>
      </trkpt>
      <trkpt lat="40.058583" lon="-4.814217">
        <ele>1887.0</ele>
        <time>2013-07-03T13:06:49Z</time>
      </trkpt>
      <trkpt lat="40.058667" lon="-4.814217">
        <ele>1888.0</ele>
        <time>2013-07-03T13:06:50Z</time>
      </trkpt>
      <trkpt lat="40.058733" lon="-4.814267">
        <ele>1888.0</ele>
        <time>2013-07-03T13:06:51Z</time>
      </trkpt>
      <trkpt lat="40.058783" lon="-4.814317">
        <ele>1888.0</ele>
        <time>2013-07-03T13:06:52Z</time>
      </trkpt>
      <trkpt lat="40.058817" lon="-4.814400">
        <ele>1888.0</ele>
        <time>2013-07-03T13:06:53Z</time>
      </trkpt>
      <trkpt lat="40.058833" lon="-4.814500">
        <ele>1887.0</ele>
        <time>2013-07-03T13:06:54Z</time>
      </trkpt>
      <trkpt lat="40.058833" lon="-4.814617">
        <ele>1887.0</ele>
        <time>2013-07-03T13:06:55Z</time>
      </trkpt>
      <trkpt lat="40.058817" lon="-4.814733">
        <ele>1887.0</ele>
        <time>2013-07-03T13:06:56Z</time>
      </trkpt>
      <trkpt lat="40.058767" lon="-4.814867">
        <ele>1889.0</ele>
        <time>2013-07-03T13:06:57Z</time>
      </trkpt>
      <trkpt lat="40.058700" lon="-4.814983">
        <ele>1893.0</ele>
        <time>2013-07-03T13:06:58Z</time>
      </trkpt>
      <trkpt lat="40.058617" lon="-4.815050">
        <ele>1898.0</ele>
        <time>2013-07-03T13:06:59Z</time>
      </trkpt>
      <trkpt lat="40.058533" lon="-4.815067">
        <ele>1904.0</ele>
        <time>2013-07-03T13:07:00Z</time>
      </trkpt>
      <trkpt lat="40.058467" lon="-4.815067">
        <ele>1909.0</ele>
        <time>2013-07-03T13:07:01Z</time>
      </trkpt>
      <trkpt lat="40.058383" lon="-4.815033">
        <ele>1913.0</ele>
        <time>2013-07-03T13:07:02Z</time>
      </trkpt>
      <trkpt lat="40.058300" lon="-4.815000">
        <ele>1916.0</ele>
        <time>2013-07-03T13:07:03Z</time>
      </trkpt>
      <trkpt lat="40.058200" lon="-4.814967">
        <ele>1919.0</ele>
        <time>2013-07-03T13:07:04Z</time>
      </trkpt>
      <trkpt lat="40.058117" lon="-4.814883">
        <ele>1923.0</ele>
        <time>2013-07-03T13:07:05Z</time>
      </trkpt>
      <trkpt lat="40.058050" lon="-4.814783">
        <ele>1927.0</ele>
        <time>2013-07-03T13:07:06Z</time>
      </trkpt>
      <trkpt lat="40.057983" lon="-4.814667">
        <ele>1930.0</ele>
        <time>2013-07-03T13:07:07Z</time>
      </trkpt>
      <trkpt lat="40.057950" lon="-4.814533">
        <ele>1934.0</ele>
        <time>2013-07-03T13:07:08Z</time>
      </trkpt>
      <trkpt lat="40.057950" lon="-4.814383">
        <ele>1938.0</ele>
        <time>2013-07-03T13:07:09Z</time>
      </trkpt>
      <trkpt lat="40.057950" lon="-4.814267">
        <ele>1943.0</ele>
        <time>2013-07-03T13:07:10Z</time>
      </trkpt>
      <trkpt lat="40.057983" lon="-4.814133">
        <ele>1948.0</ele>
        <time>2013-07-03T13:07:11Z</time>
      </trkpt>
      <trkpt lat="40.058000" lon="-4.814017">
        <ele>1952.0</ele>
        <time>2013-07-03T13:07:12Z</time>
      </trkpt>
      <trkpt lat="40.058050" lon="-4.813917">
        <ele>1956.0</ele>
        <time>2013-07-03T13:07:13Z</time>
      </trkpt>
      <trkpt lat="40.058117" lon="-4.813850">
        <ele>1959.0</ele>
        <time>2013-07-03T13:07:14Z</time>
      </trkpt>
      <trkpt lat="40.058217" lon="-4.813817">
        <ele>1961.0</ele>
        <time>2013-07-03T13:07:15Z</time>
      </trkpt>
      <trkpt lat="40.058300" lon="-4.813850">
        <ele>1960.0</ele>
        <time>2013-07-03T13:07:16Z</time>
      </trkpt>
      <trkpt lat="40.058367" lon="-4.813900">
        <ele>1960.0</ele>
        <time>2013-07-03T13:07:17Z</time>
      </trkpt>
      <trkpt lat="40.058400" lon="-4.813983">
        <ele>1961.0</ele>
        <time>2013-07-03T13:07:18Z</time>
      </trkpt>
      <trkpt lat="40.058433" lon="-4.814067">
        <ele>1962.0</ele>
        <time>2013-07-03T13:07:19Z</time>
      </trkpt>
      <trkpt lat="40.058433" lon="-4.814150">
        <ele>1964.0</ele>
        <time>2013-07-03T13:07:20Z</time>
      </trkpt>
      <trkpt lat="40.058400" lon="-4.814250">
        <ele>1966.0</ele>
        <time>2013-07-03T13:07:21Z</time>
      </trkpt>
      <trkpt lat="40.058350" lon="-4.814350">
        <ele>1969.0</ele>
        <time>2013-07-03T13:07:22Z</time>
      </trkpt>
      <trkpt lat="40.058283" lon="-4.814433">
        <ele>1974.0</ele>
        <time>2013-07-03T13:07:23Z</time>
      </trkpt>
      <trkpt lat="40.058217" lon="-4.814467">
        <ele>1978.0</ele>
        <time>2013-07-03T13:07:24Z</time>
      </trkpt>
      <trkpt lat="40.058133" lon="-4.814467">
        <ele>1982.0</ele>
        <time>2013-07-03T13:07:25Z</time>
      </trkpt>
      <trkpt lat="40.058067" lon="-4.814433">
        <ele>1986.0</ele>
        <time>2013-07-03T13:07:26Z</time>
      </trkpt>
      <trkpt lat="40.057983" lon="-4.814383">
        <ele>1989.0</ele>
        <time>2013-07-03T13:07:27Z</time>
      </trkpt>
      <trkpt lat="40.057900" lon="-4.814333">
        <ele>1992.0</ele>
        <time>2013-07-03T13:07:28Z</time>
      </trkpt>
      <trkpt lat="40.057817" lon="-4.814267">
        <ele>1994.0</ele>
        <time>2013-07-03T13:07:29Z</time>
      </trkpt>
      <trkpt lat="40.057750" lon="-4.814183">
        <ele>1997.0</ele>
        <time>2013-07-03T13:07:30Z</time>
      </trkpt>
      <trkpt lat="40.057683" lon="-4.814067">
        <ele>2000.0</ele>
        <time>2013-07-03T13:07:31Z</time>
      </trkpt>
      <trkpt lat="40.057650" lon="-4.813933">
        <ele>2005.0</ele>
        <time>2013-07-03T13:07:32Z</time>
      </trkpt>
      <trkpt lat="40.057600" lon="-4.813817">
        <ele>2009.0</ele>
        <time>2013-07-03T13:07:33Z</time>
      </trkpt>
      <trkpt lat="40.057583" lon="-4.813700">
        <ele>2013.0</ele>
        <time>2013-07-03T13:07:34Z</time>
      </trkpt>
      <trkpt lat="40.057567" lon="-4.813583">
        <ele>2017.0</ele>
        <time>2013-07-03T13:07:35Z</time>
      </trkpt>
      <trkpt lat="40.057567" lon="-4.813467">
        <ele>2019.0</ele>
        <time>2013-07-03T13:07:36Z</time>
      </trkpt>
      <trkpt lat="40.057567" lon="-4.813350">
        <ele>2022.0</ele>
        <time>2013-07-03T13:07:37Z</time>
      </trkpt>
      <trkpt lat="40.057583" lon="-4.813217">
        <ele>2026.0</ele>
        <time>2013-07-03T13:07:38Z</time>
      </trkpt>
      <trkpt lat="40.057617" lon="-4.813100">
        <ele>2030.0</ele>
        <time>2013-07-03T13:07:39Z</time>
      </trkpt>
      <trkpt lat="40.057650" lon="-4.812983">
        <ele>2035.0</ele>
        <time>2013-07-03T13:07:40Z</time>
      </trkpt>
      <trkpt lat="40.057683" lon="-4.812900">
        <ele>2039.0</ele>
        <time>2013-07-03T13:07:41Z</time>
      </trkpt>
      <trkpt lat="40.057733" lon="-4.812833">
        <ele>2042.0</ele>
        <time>2013-07-03T13:07:42Z</time>
      </trkpt>
      <trkpt lat="40.057800" lon="-4.812783">
        <ele>2046.0</ele>
        <time>2013-07-03T13:07:43Z</time>
      </trkpt>
      <trkpt lat="40.057867" lon="-4.812750">
        <ele>2048.0</ele>
        <time>2013-07-03T13:07:44Z</time>
      </trkpt>
      <trkpt lat="40.057933" lon="-4.812750">
        <ele>2051.0</ele>
        <time>2013-07-03T13:07:45Z</time>
      </trkpt>
      <trkpt lat="40.058000" lon="-4.812767">
        <ele>2052.0</ele>
        <time>2013-07-03T13:07:46Z</time>
      </trkpt>
      <trkpt lat="40.058067" lon="-4.812783">
        <ele>2052.0</ele>
        <time>2013-07-03T13:07:47Z</time>
      </trkpt>
      <trkpt lat="40.058117" lon="-4.812817">
        <ele>2051.0</ele>
        <time>2013-07-03T13:07:48Z</time>
      </trkpt>
      <trkpt lat="40.058183" lon="-4.812883">
        <ele>2050.0</ele>
        <time>2013-07-03T13:07:49Z</time>
      </trkpt>
      <trkpt lat="40.058217" lon="-4.812983">
        <ele>2049.0</ele>
        <time>2013-07-03T13:07:50Z</time>
      </trkpt>
      <trkpt lat="40.058183" lon="-4.813117">
        <ele>2048.0</ele>
        <time>2013-07-03T13:07:51Z</time>
      </trkpt>
      <trkpt lat="40.058117" lon="-4.813217">
        <ele>2049.0</ele>
        <time>2013-07-03T13:07:52Z</time>
      </trkpt>
      <trkpt lat="40.058017" lon="-4.813250">
        <ele>2049.0</ele>
        <time>2013-07-03T13:07:53Z</time>
      </trkpt>
      <trkpt lat="40.057933" lon="-4.813233">
        <ele>2053.0</ele>
        <time>2013-07-03T13:07:54Z</time>
      </trkpt>
      <trkpt lat="40.057867" lon="-4.813167">
        <ele>2057.0</ele>
        <time>2013-07-03T13:07:55Z</time>
      </trkpt>
      <trkpt lat="40.057817" lon="-4.813117">
        <ele>2061.0</ele>
        <time>2013-07-03T13:07:56Z</time>
      </trkpt>
      <trkpt lat="40.057750" lon="-4.813050">
        <ele>2064.0</ele>
        <time>2013-07-03T13:07:57Z</time>
      </trkpt>
      <trkpt lat="40.057683" lon="-4.812967">
        <ele>2066.0</ele>
        <time>2013-07-03T13:07:58Z</time>
      </trkpt>
      <trkpt lat="40.057617" lon="-4.812883">
        <ele>2069.0</ele>
        <time>2013-07-03T13:07:59Z</time>
      </trkpt>
      <trkpt lat="40.057567" lon="-4.812800">
        <ele>2072.0</ele>
        <time>2013-07-03T13:08:00Z</time>
      </trkpt>
      <trkpt lat="40.057533" lon="-4.812683">
        <ele>2074.0</ele>
        <time>2013-07-03T13:08:01Z</time>
      </trkpt>
      <trkpt lat="40.057550" lon="-4.812567">
        <ele>2076.0</ele>
        <time>2013-07-03T13:08:02Z</time>
      </trkpt>
      <trkpt lat="40.057583" lon="-4.812450">
        <ele>2077.0</ele>
        <time>2013-07-03T13:08:03Z</time>
      </trkpt>
      <trkpt lat="40.057650" lon="-4.812383">
        <ele>2080.0</ele>
        <time>2013-07-03T13:08:04Z</time>
      </trkpt>
      <trkpt lat="40.057717" lon="-4.812333">
        <ele>2083.0</ele>
        <time>2013-07-03T13:08:05Z</time>
      </trkpt>
      <trkpt lat="40.057767" lon="-4.812317">
        <ele>2085.0</ele>
        <time>2013-07-03T13:08:06Z</time>
      </trkpt>
      <trkpt lat="40.057817" lon="-4.812300">
        <ele>2087.0</ele>
        <time>2013-07-03T13:08:07Z</time>
      </trkpt>
      <trkpt lat="40.057867" lon="-4.812317">
        <ele>2089.0</ele>
        <time>2013-07-03T13:08:08Z</time>
      </trkpt>
      <trkpt lat="40.057933" lon="-4.812333">
        <ele>2090.0</ele>
        <time>2013-07-03T13:08:09Z</time>
      </trkpt>
      <trkpt lat="40.057983" lon="-4.812367">
        <ele>2091.0</ele>
        <time>2013-07-03T13:08:10Z</time>
      </trkpt>
      <trkpt lat="40.058033" lon="-4.812450">
        <ele>2092.0</ele>
        <time>2013-07-03T13:08:11Z</time>
      </trkpt>
      <trkpt lat="40.058067" lon="-4.812550">
        <ele>2093.0</ele>
        <time>2013-07-03T13:08:12Z</time>
      </trkpt>
      <trkpt lat="40.058050" lon="-4.812683">
        <ele>2093.0</ele>
        <time>2013-07-03T13:08:13Z</time>
      </trkpt>
      <trkpt lat="40.057967" lon="-4.812783">
        <ele>2093.0</ele>
        <time>2013-07-03T13:08:14Z</time>
      </trkpt>
      <trkpt lat="40.057867" lon="-4.812833">
        <ele>2094.0</ele>
        <time>2013-07-03T13:08:15Z</time>
      </trkpt>
      <trkpt lat="40.057767" lon="-4.812833">
        <ele>2095.0</ele>
        <time>2013-07-03T13:08:16Z</time>
      </trkpt>
      <trkpt lat="40.057683" lon="-4.812817">
        <ele>2099.0</ele>
        <time>2013-07-03T13:08:17Z</time>
      </trkpt>
      <trkpt lat="40.057617" lon="-4.812767">
        <ele>2104.0</ele>
        <time>2013-07-03T13:08:18Z</time>
      </trkpt>
      <trkpt lat="40.057550" lon="-4.812717">
        <ele>2107.0</ele>
        <time>2013-07-03T13:08:19Z</time>
      </trkpt>
      <trkpt lat="40.057500" lon="-4.812667">
        <ele>2110.0</ele>
        <time>2013-07-03T13:08:20Z</time>
      </trkpt>
      <trkpt lat="40.057450" lon="-4.812600">
        <ele>2112.0</ele>
        <time>2013-07-03T13:08:21Z</time>
      </trkpt>
      <trkpt lat="40.057400" lon="-4.812517">
        <ele>2113.0</ele>
        <time>2013-07-03T13:08:22Z</time>
      </trkpt>
      <trkpt lat="40.057367" lon="-4.812417">
        <ele>2115.0</ele>
        <time>2013-07-03T13:08:23Z</time>
      </trkpt>
      <trkpt lat="40.057317" lon="-4.812317">
        <ele>2118.0</ele>
        <time>2013-07-03T13:08:24Z</time>
      </trkpt>
      <trkpt lat="40.057300" lon="-4.812233">
        <ele>2121.0</ele>
        <time>2013-07-03T13:08:25Z</time>
      </trkpt>
      <trkpt lat="40.057267" lon="-4.812150">
        <ele>2124.0</ele>
        <time>2013-07-03T13:08:26Z</time>
      </trkpt>
      <trkpt lat="40.057250" lon="-4.812067">
        <ele>2126.0</ele>
        <time>2013-07-03T13:08:27Z</time>
      </trkpt>
      <trkpt lat="40.057233" lon="-4.811983">
        <ele>2127.0</ele>
        <time>2013-07-03T13:08:28Z</time>
      </trkpt>
      <trkpt lat="40.057250" lon="-4.811867">
        <ele>2128.0</ele>
        <time>2013-07-03T13:08:29Z</time>
      </trkpt>
      <trkpt lat="40.057267" lon="-4.811767">
        <ele>2131.0</ele>
        <time>2013-07-03T13:08:30Z</time>
      </trkpt>
      <trkpt lat="40.057283" lon="-4.811700">
        <ele>2135.0</ele>
        <time>2013-07-03T13:08:31Z</time>
      </trkpt>
      <trkpt lat="40.057317" lon="-4.811633">
        <ele>2138.0</ele>
        <time>2013-07-03T13:08:32Z</time>
      </trkpt>
      <trkpt lat="40.057333" lon="-4.811583">
        <ele>2141.0</ele>
        <time>2013-07-03T13:08:33Z</time>
      </trkpt>
      <trkpt lat="40.057367" lon="-4.811517">
        <ele>2143.0</ele>
        <time>2013-07-03T13:08:34Z</time>
      </trkpt>
      <trkpt lat="40.057417" lon="-4.811450">
        <ele>2145.0</ele>
        <time>2013-07-03T13:08:35Z</time>
      </trkpt>
      <trkpt lat="40.057467" lon="-4.811383">
        <ele>2148.0</ele>
        <time>2013-07-03T13:08:36Z</time>
      </trkpt>
      <trkpt lat="40.057483" lon="-4.811317">
        <ele>2151.0</ele>
        <time>2013-07-03T13:08:37Z</time>
      </trkpt>
      <trkpt lat="40.057483" lon="-4.811250">
        <ele>2153.0</ele>
        <time>2013-07-03T13:08:38Z</time>
      </trkpt>
      <trkpt lat="40.057450" lon="-4.811167">
        <ele>2154.0</ele>
        <time>2013-07-03T13:08:39Z</time>
      </trkpt>
      <trkpt lat="40.057417" lon="-4.811083">
        <ele>2155.0</ele>
        <time>2013-07-03T13:08:40Z</time>
      </trkpt>
      <trkpt lat="40.057350" lon="-4.811000">
        <ele>2157.0</ele>
        <time>2013-07-03T13:08:41Z</time>
      </trkpt>
      <trkpt lat="40.057283" lon="-4.810950">
        <ele>2159.0</ele>
        <time>2013-07-03T13:08:42Z</time>
      </trkpt>
      <trkpt lat="40.057200" lon="-4.810917">
        <ele>2160.0</ele>
        <time>2013-07-03T13:08:43Z</time>
      </trkpt>
      <trkpt lat="40.057100" lon="-4.810917">
        <ele>2162.0</ele>
        <time>2013-07-03T13:08:44Z</time>
      </trkpt>
      <trkpt lat="40.057017" lon="-4.810950">
        <ele>2164.0</ele>
        <time>2013-07-03T13:08:45Z</time>
      </trkpt>
      <trkpt lat="40.056950" lon="-4.811000">
        <ele>2166.0</ele>
        <time>2013-07-03T13:08:46Z</time>
      </trkpt>
      <trkpt lat="40.056883" lon="-4.811067">
        <ele>2168.0</ele>
        <time>2013-07-03T13:08:47Z</time>
      </trkpt>
      <trkpt lat="40.056817" lon="-4.811133">
        <ele>2170.0</ele>
        <time>2013-07-03T13:08:48Z</time>
      </trkpt>
      <trkpt lat="40.056750" lon="-4.811217">
        <ele>2173.0</ele>
        <time>2013-07-03T13:08:49Z</time>
      </trkpt>
      <trkpt lat="40.056700" lon="-4.811300">
        <ele>2177.0</ele>
        <time>2013-07-03T13:08:50Z</time>
      </trkpt>
      <trkpt lat="40.056667" lon="-4.811383">
        <ele>2181.0</ele>
        <time>2013-07-03T13:08:51Z</time>
      </trkpt>
      <trkpt lat="40.056650" lon="-4.811467">
        <ele>2184.0</ele>
        <time>2013-07-03T13:08:52Z</time>
      </trkpt>
      <trkpt lat="40.056650" lon="-4.811533">
        <ele>2186.0</ele>
        <time>2013-07-03T13:08:53Z</time>
      </trkpt>
      <trkpt lat="40.056650" lon="-4.811600">
        <ele>2188.0</ele>
        <time>2013-07-03T13:08:54Z</time>
      </trkpt>
      <trkpt lat="40.056650" lon="-4.811683">
        <ele>2189.0</ele>
        <time>2013-07-03T13:08:55Z</time>
      </trkpt>
      <trkpt lat="40.056667" lon="-4.811767">
        <ele>2189.0</ele>
        <time>2013-07-03T13:08:56Z</time>
      </trkpt>
      <trkpt lat="40.056700" lon="-4.811833">
        <ele>2190.0</ele>
        <time>2013-07-03T13:08:57Z</time>
      </trkpt>
      <trkpt lat="40.056750" lon="-4.811867">
        <ele>2191.0</ele>
        <time>2013-07-03T13:08:58Z</time>
      </trkpt>
      <trkpt lat="40.056800" lon="-4.811883">
        <ele>2192.0</ele>
        <time>2013-07-03T13:08:59Z</time>
      </trkpt>
      <trkpt lat="40.056867" lon="-4.811850">
        <ele>2193.0</ele>
        <time>2013-07-03T13:09:00Z</time>
      </trkpt>
      <trkpt lat="40.056917" lon="-4.811783">
        <ele>2195.0</ele>
        <time>2013-07-03T13:09:01Z</time>
      </trkpt>
      <trkpt lat="40.056967" lon="-4.811667">
        <ele>2197.0</ele>
        <time>2013-07-03T13:09:02Z</time>
      </trkpt>
      <trkpt lat="40.056983" lon="-4.811550">
        <ele>2198.0</ele>
        <time>2013-07-03T13:09:03Z</time>
      </trkpt>
      <trkpt lat="40.056967" lon="-4.811417">
        <ele>2199.0</ele>
        <time>2013-07-03T13:09:04Z</time>
      </trkpt>
      <trkpt lat="40.056933" lon="-4.811300">
        <ele>2200.0</ele>
        <time>2013-07-03T13:09:05Z</time>
      </trkpt>
      <trkpt lat="40.056883" lon="-4.811183">
        <ele>2201.0</ele>
        <time>2013-07-03T13:09:06Z</time>
      </trkpt>
      <trkpt lat="40.056817" lon="-4.811083">
        <ele>2203.0</ele>
        <time>2013-07-03T13:09:07Z</time>
      </trkpt>
      <trkpt lat="40.056733" lon="-4.811000">
        <ele>2206.0</ele>
        <time>2013-07-03T13:09:08Z</time>
      </trkpt>
      <trkpt lat="40.056650" lon="-4.810933">
        <ele>2208.0</ele>
        <time>2013-07-03T13:09:09Z</time>
      </trkpt>
      <trkpt lat="40.056583" lon="-4.810883">
        <ele>2211.0</ele>
        <time>2013-07-03T13:09:10Z</time>
      </trkpt>
      <trkpt lat="40.056517" lon="-4.810850">
        <ele>2213.0</ele>
        <time>2013-07-03T13:09:11Z</time>
      </trkpt>
      <trkpt lat="40.056433" lon="-4.810800">
        <ele>2215.0</ele>
        <time>2013-07-03T13:09:12Z</time>
      </trkpt>
      <trkpt lat="40.056333" lon="-4.810783">
        <ele>2217.0</ele>
        <time>2013-07-03T13:09:13Z</time>
      </trkpt>
      <trkpt lat="40.056250" lon="-4.810817">
        <ele>2219.0</ele>
        <time>2013-07-03T13:09:14Z</time>
      </trkpt>
      <trkpt lat="40.056200" lon="-4.810850">
        <ele>2222.0</ele>
        <time>2013-07-03T13:09:15Z</time>
      </trkpt>
      <trkpt lat="40.056150" lon="-4.810900">
        <ele>2224.0</ele>
        <time>2013-07-03T13:09:16Z</time>
      </trkpt>
      <trkpt lat="40.056100" lon="-4.810933">
        <ele>2226.0</ele>
        <time>2013-07-03T13:09:17Z</time>
      </trkpt>
      <trkpt lat="40.056050" lon="-4.810967">
        <ele>2228.0</ele>
        <time>2013-07-03T13:09:18Z</time>
      </trkpt>
      <trkpt lat="40.056017" lon="-4.811000">
        <ele>2231.0</ele>
        <time>2013-07-03T13:09:19Z</time>
      </trkpt>
      <trkpt lat="40.055983" lon="-4.811067">
        <ele>2232.0</ele>
        <time>2013-07-03T13:09:20Z</time>
      </trkpt>
      <trkpt lat="40.055967" lon="-4.811150">
        <ele>2233.0</ele>
        <time>2013-07-03T13:09:21Z</time>
      </trkpt>
      <trkpt lat="40.055983" lon="-4.811233">
        <ele>2233.0</ele>
        <time>2013-07-03T13:09:22Z</time>
      </trkpt>
      <trkpt lat="40.056033" lon="-4.811300">
        <ele>2234.0</ele>
        <time>2013-07-03T13:09:23Z</time>
      </trkpt>
      <trkpt lat="40.056117" lon="-4.811350">
        <ele>2234.0</ele>
        <time>2013-07-03T13:09:24Z</time>
      </trkpt>
      <trkpt lat="40.056217" lon="-4.811383">
        <ele>2235.0</ele>
        <time>2013-07-03T13:09:25Z</time>
      </trkpt>
      <trkpt lat="40.056317" lon="-4.811333">
        <ele>2235.0</ele>
        <time>2013-07-03T13:09:26Z</time>
      </trkpt>
      <trkpt lat="40.056383" lon="-4.811250">
        <ele>2236.0</ele>
        <time>2013-07-03T13:09:27Z</time>
      </trkpt>
      <trkpt lat="40.056400" lon="-4.811133">
        <ele>2237.0</ele>
        <time>2013-07-03T13:09:28Z</time>
      </trkpt>
      <trkpt lat="40.056400" lon="-4.811033">
        <ele>2238.0</ele>
        <time>2013-07-03T13:09:29Z</time>
      </trkpt>
      <trkpt lat="40.056383" lon="-4.810933">
        <ele>2240.0</ele>
        <time>2013-07-03T13:09:30Z</time>
      </trkpt>
      <trkpt lat="40.056367" lon="-4.810850">
        <ele>2242.0</ele>
        <time>2013-07-03T13:09:31Z</time>
      </trkpt>
      <trkpt lat="40.056333" lon="-4.810750">
        <ele>2243.0</ele>
        <time>2013-07-03T13:09:32Z</time>
      </trkpt>
      <trkpt lat="40.056300" lon="-4.810683">
        <ele>2244.0</ele>
        <time>2013-07-03T13:09:33Z</time>
      </trkpt>
      <trkpt lat="40.056233" lon="-4.810600">
        <ele>2244.0</ele>
        <time>2013-07-03T13:09:34Z</time>
      </trkpt>
      <trkpt lat="40.056150" lon="-4.810533">
        <ele>2245.0</ele>
        <time>2013-07-03T13:09:35Z</time>
      </trkpt>
      <trkpt lat="40.056067" lon="-4.810500">
        <ele>2245.0</ele>
        <time>2013-07-03T13:09:36Z</time>
      </trkpt>
      <trkpt lat="40.055983" lon="-4.810483">
        <ele>2247.0</ele>
        <time>2013-07-03T13:09:37Z</time>
      </trkpt>
      <trkpt lat="40.055917" lon="-4.810467">
        <ele>2249.0</ele>
        <time>2013-07-03T13:09:38Z</time>
      </trkpt>
      <trkpt lat="40.055867" lon="-4.810450">
        <ele>2251.0</ele>
        <time>2013-07-03T13:09:39Z</time>
      </trkpt>
      <trkpt lat="40.055800" lon="-4.810450">
        <ele>2251.0</ele>
        <time>2013-07-03T13:09:40Z</time>
      </trkpt>
      <trkpt lat="40.055733" lon="-4.810467">
        <ele>2252.0</ele>
        <time>2013-07-03T13:09:41Z</time>
      </trkpt>
      <trkpt lat="40.055667" lon="-4.810483">
        <ele>2255.0</ele>
        <time>2013-07-03T13:09:42Z</time>
      </trkpt>
      <trkpt lat="40.055583" lon="-4.810500">
        <ele>2259.0</ele>
        <time>2013-07-03T13:09:43Z</time>
      </trkpt>
      <trkpt lat="40.055533" lon="-4.810517">
        <ele>2262.0</ele>
        <time>2013-07-03T13:09:44Z</time>
      </trkpt>
      <trkpt lat="40.055467" lon="-4.810517">
        <ele>2265.0</ele>
        <time>2013-07-03T13:09:45Z</time>
      </trkpt>
      <trkpt lat="40.055400" lon="-4.810517">
        <ele>2268.0</ele>
        <time>2013-07-03T13:09:46Z</time>
      </trkpt>
      <trkpt lat="40.055333" lon="-4.810500">
        <ele>2268.0</ele>
        <time>2013-07-03T13:09:47Z</time>
      </trkpt>
      <trkpt lat="40.055267" lon="-4.810450">
        <ele>2269.0</ele>
        <time>2013-07-03T13:09:48Z</time>
      </trkpt>
      <trkpt lat="40.055217" lon="-4.810350">
        <ele>2270.0</ele>
        <time>2013-07-03T13:09:49Z</time>
      </trkpt>
      <trkpt lat="40.055183" lon="-4.810233">
        <ele>2271.0</ele>
        <time>2013-07-03T13:09:50Z</time>
      </trkpt>
      <trkpt lat="40.055183" lon="-4.810100">
        <ele>2272.0</ele>
        <time>2013-07-03T13:09:51Z</time>
      </trkpt>
      <trkpt lat="40.055200" lon="-4.810000">
        <ele>2274.0</ele>
        <time>2013-07-03T13:09:52Z</time>
      </trkpt>
      <trkpt lat="40.055250" lon="-4.809917">
        <ele>2275.0</ele>
        <time>2013-07-03T13:09:53Z</time>
      </trkpt>
      <trkpt lat="40.055300" lon="-4.809817">
        <ele>2276.0</ele>
        <time>2013-07-03T13:09:54Z</time>
      </trkpt>
      <trkpt lat="40.055367" lon="-4.809733">
        <ele>2276.0</ele>
        <time>2013-07-03T13:09:55Z</time>
      </trkpt>
      <trkpt lat="40.055433" lon="-4.809667">
        <ele>2277.0</ele>
        <time>2013-07-03T13:09:56Z</time>
      </trkpt>
      <trkpt lat="40.055517" lon="-4.809650">
        <ele>2279.0</ele>
        <time>2013-07-03T13:09:57Z</time>
      </trkpt>
      <trkpt lat="40.055617" lon="-4.809667">
        <ele>2282.0</ele>
        <time>2013-07-03T13:09:58Z</time>
      </trkpt>
      <trkpt lat="40.055683" lon="-4.809733">
        <ele>2284.0</ele>
        <time>2013-07-03T13:09:59Z</time>
      </trkpt>
      <trkpt lat="40.055717" lon="-4.809833">
        <ele>2287.0</ele>
        <time>2013-07-03T13:10:00Z</time>
      </trkpt>
      <trkpt lat="40.055733" lon="-4.809917">
        <ele>2291.0</ele>
        <time>2013-07-03T13:10:01Z</time>
      </trkpt>
      <trkpt lat="40.055717" lon="-4.810017">
        <ele>2294.0</ele>
        <time>2013-07-03T13:10:02Z</time>
      </trkpt>
      <trkpt lat="40.055683" lon="-4.810100">
        <ele>2297.0</ele>
        <time>2013-07-03T13:10:03Z</time>
      </trkpt>
      <trkpt lat="40.055650" lon="-4.810167">
        <ele>2300.0</ele>
        <time>2013-07-03T13:10:04Z</time>
      </trkpt>
      <trkpt lat="40.055600" lon="-4.810233">
        <ele>2303.0</ele>
        <time>2013-07-03T13:10:05Z</time>
      </trkpt>
      <trkpt lat="40.055533" lon="-4.810250">
        <ele>2305.0</ele>
        <time>2013-07-03T13:10:06Z</time>
      </trkpt>
      <trkpt lat="40.055467" lon="-4.810233">
        <ele>2306.0</ele>
        <time>2013-07-03T13:10:07Z</time>
      </trkpt>
      <trkpt lat="40.055400" lon="-4.810167">
        <ele>2306.0</ele>
        <time>2013-07-03T13:10:08Z</time>
      </trkpt>
      <trkpt lat="40.055350" lon="-4.810083">
        <ele>2308.0</ele>
        <time>2013-07-03T13:10:09Z</time>
      </trkpt>
      <trkpt lat="40.055317" lon="-4.809983">
        <ele>2309.0</ele>
        <time>2013-07-03T13:10:10Z</time>
      </trkpt>
      <trkpt lat="40.055317" lon="-4.809867">
        <ele>2310.0</ele>
        <time>2013-07-03T13:10:11Z</time>
      </trkpt>
      <trkpt lat="40.055350" lon="-4.809767">
        <ele>2310.0</ele>
        <time>2013-07-03T13:10:12Z</time>
      </trkpt>
      <trkpt lat="40.055400" lon="-4.809650">
        <ele>2310.0</ele>
        <time>2013-07-03T13:10:13Z</time>
      </trkpt>
      <trkpt lat="40.055467" lon="-4.809550">
        <ele>2311.0</ele>
        <time>2013-07-03T13:10:14Z</time>
      </trkpt>
      <trkpt lat="40.055533" lon="-4.809467">
        <ele>2312.0</ele>
        <time>2013-07-03T13:10:15Z</time>
      </trkpt>
      <trkpt lat="40.055600" lon="-4.809383">
        <ele>2313.0</ele>
        <time>2013-07-03T13:10:16Z</time>
      </trkpt>
      <trkpt lat="40.055667" lon="-4.809317">
        <ele>2313.0</ele>
        <time>2013-07-03T13:10:17Z</time>
      </trkpt>
      <trkpt lat="40.055767" lon="-4.809283">
        <ele>2314.0</ele>
        <time>2013-07-03T13:10:18Z</time>
      </trkpt>
      <trkpt lat="40.055867" lon="-4.809267">
        <ele>2316.0</ele>
        <time>2013-07-03T13:10:19Z</time>
      </trkpt>
      <trkpt lat="40.055950" lon="-4.809250">
        <ele>2317.0</ele>
        <time>2013-07-03T13:10:20Z</time>
      </trkpt>
      <trkpt lat="40.056017" lon="-4.809267">
        <ele>2320.0</ele>
        <time>2013-07-03T13:10:21Z</time>
      </trkpt>
      <trkpt lat="40.056083" lon="-4.809317">
        <ele>2322.0</ele>
        <time>2013-07-03T13:10:22Z</time>
      </trkpt>
      <trkpt lat="40.056133" lon="-4.809367">
        <ele>2322.0</ele>
        <time>2013-07-03T13:10:23Z</time>
      </trkpt>
      <trkpt lat="40.056183" lon="-4.809433">
        <ele>2322.0</ele>
        <time>2013-07-03T13:10:24Z</time>
      </trkpt>
      <trkpt lat="40.056233" lon="-4.809467">
        <ele>2323.0</ele>
        <time>2013-07-03T13:10:25Z</time>
      </trkpt>
      <trkpt lat="40.056300" lon="-4.809517">
        <ele>2324.0</ele>
        <time>2013-07-03T13:10:26Z</time>
      </trkpt>
      <trkpt lat="40.056333" lon="-4.809583">
        <ele>2324.0</ele>
        <time>2013-07-03T13:10:27Z</time>
      </trkpt>
      <trkpt lat="40.056333" lon="-4.809667">
        <ele>2324.0</ele>
        <time>2013-07-03T13:10:28Z</time>
      </trkpt>
      <trkpt lat="40.056317" lon="-4.809750">
        <ele>2324.0</ele>
        <time>2013-07-03T13:10:29Z</time>
      </trkpt>
      <trkpt lat="40.056267" lon="-4.809833">
        <ele>2324.0</ele>
        <time>2013-07-03T13:10:30Z</time>
      </trkpt>
      <trkpt lat="40.056200" lon="-4.809900">
        <ele>2326.0</ele>
        <time>2013-07-03T13:10:31Z</time>
      </trkpt>
      <trkpt lat="40.056133" lon="-4.809967">
        <ele>2330.0</ele>
        <time>2013-07-03T13:10:32Z</time>
      </trkpt>
      <trkpt lat="40.056100" lon="-4.810000">
        <ele>2332.0</ele>
        <time>2013-07-03T13:10:33Z</time>
      </trkpt>
      <trkpt lat="40.056067" lon="-4.810050">
        <ele>2334.0</ele>
        <time>2013-07-03T13:10:34Z</time>
      </trkpt>
      <trkpt lat="40.056050" lon="-4.810083">
        <ele>2336.0</ele>
        <time>2013-07-03T13:10:35Z</time>
      </trkpt>
      <trkpt lat="40.056017" lon="-4.810100">
        <ele>2335.0</ele>
        <time>2013-07-03T13:10:36Z</time>
      </trkpt>
      <trkpt lat="40.055950" lon="-4.810083">
        <ele>2335.0</ele>
        <time>2013-07-03T13:10:37Z</time>
      </trkpt>
      <trkpt lat="40.055883" lon="-4.810050">
        <ele>2335.0</ele>
        <time>2013-07-03T13:10:38Z</time>
      </trkpt>
      <trkpt lat="40.055833" lon="-4.809983">
        <ele>2336.0</ele>
        <time>2013-07-03T13:10:39Z</time>
      </trkpt>
      <trkpt lat="40.055783" lon="-4.809933">
        <ele>2338.0</ele>
        <time>2013-07-03T13:10:40Z</time>
      </trkpt>
      <trkpt lat="40.055767" lon="-4.809850">
        <ele>2339.0</ele>
        <time>2013-07-03T13:10:41Z</time>
      </trkpt>
      <trkpt lat="40.055733" lon="-4.809783">
        <ele>2340.0</ele>
        <time>2013-07-03T13:10:42Z</time>
      </trkpt>
      <trkpt lat="40.055717" lon="-4.809683">
        <ele>2341.0</ele>
        <time>2013-07-03T13:10:43Z</time>
      </trkpt>
      <trkpt lat="40.055700" lon="-4.809567">
        <ele>2342.0</ele>
        <time>2013-07-03T13:10:44Z</time>
      </trkpt>
      <trkpt lat="40.055717" lon="-4.809467">
        <ele>2343.0</ele>
        <time>2013-07-03T13:10:45Z</time>
      </trkpt>
      <trkpt lat="40.055750" lon="-4.809350">
        <ele>2344.0</ele>
        <time>2013-07-03T13:10:46Z</time>
      </trkpt>
      <trkpt lat="40.055800" lon="-4.809233">
        <ele>2345.0</ele>
        <time>2013-07-03T13:10:47Z</time>
      </trkpt>
      <trkpt lat="40.055867" lon="-4.809133">
        <ele>2345.0</ele>
        <time>2013-07-03T13:10:48Z</time>
      </trkpt>
      <trkpt lat="40.055933" lon="-4.809050">
        <ele>2346.0</ele>
        <time>2013-07-03T13:10:49Z</time>
      </trkpt>
      <trkpt lat="40.056000" lon="-4.808967">
        <ele>2347.0</ele>
        <time>2013-07-03T13:10:50Z</time>
      </trkpt>
      <trkpt lat="40.056067" lon="-4.808900">
        <ele>2348.0</ele>
        <time>2013-07-03T13:10:51Z</time>
      </trkpt>
      <trkpt lat="40.056150" lon="-4.808817">
        <ele>2349.0</ele>
        <time>2013-07-03T13:10:52Z</time>
      </trkpt>
      <trkpt lat="40.056233" lon="-4.808767">
        <ele>2349.0</ele>
        <time>2013-07-03T13:10:53Z</time>
      </trkpt>
      <trkpt lat="40.056317" lon="-4.808750">
        <ele>2349.0</ele>
        <time>2013-07-03T13:10:54Z</time>
      </trkpt>
      <trkpt lat="40.056400" lon="-4.808733">
        <ele>2349.0</ele>
        <time>2013-07-03T13:10:55Z</time>
      </trkpt>
      <trkpt lat="40.056467" lon="-4.808750">
        <ele>2348.0</ele>
        <time>2013-07-03T13:10:56Z</time>
      </trkpt>
      <trkpt lat="40.056533" lon="-4.808800">
        <ele>2346.0</ele>
        <time>2013-07-03T13:10:57Z</time>
      </trkpt>
      <trkpt lat="40.056583" lon="-4.808867">
        <ele>2344.0</ele>
        <time>2013-07-03T13:10:58Z</time>
      </trkpt>
      <trkpt lat="40.056617" lon="-4.808950">
        <ele>2342.0</ele>
        <time>2013-07-03T13:10:59Z</time>
      </trkpt>
      <trkpt lat="40.056600" lon="-4.809050">
        <ele>2340.0</ele>
        <time>2013-07-03T13:11:00Z</time>
      </trkpt>
      <trkpt lat="40.056533" lon="-4.809150">
        <ele>2337.0</ele>
        <time>2013-07-03T13:11:01Z</time>
      </trkpt>
      <trkpt lat="40.056450" lon="-4.809200">
        <ele>2335.0</ele>
        <time>2013-07-03T13:11:02Z</time>
      </trkpt>
      <trkpt lat="40.056383" lon="-4.809250">
        <ele>2334.0</ele>
        <time>2013-07-03T13:11:03Z</time>
      </trkpt>
      <trkpt lat="40.056317" lon="-4.809300">
        <ele>2336.0</ele>
        <time>2013-07-03T13:11:04Z</time>
      </trkpt>
      <trkpt lat="40.056267" lon="-4.809350">
        <ele>2337.0</ele>
        <time>2013-07-03T13:11:05Z</time>
      </trkpt>
      <trkpt lat="40.056200" lon="-4.809400">
        <ele>2337.0</ele>
        <time>2013-07-03T13:11:06Z</time>
      </trkpt>
      <trkpt lat="40.056133" lon="-4.809433">
        <ele>2338.0</ele>
        <time>2013-07-03T13:11:07Z</time>
      </trkpt>
      <trkpt lat="40.056050" lon="-4.809450">
        <ele>2339.0</ele>
        <time>2013-07-03T13:11:08Z</time>
      </trkpt>
      <trkpt lat="40.055983" lon="-4.809450">
        <ele>2340.0</ele>
        <time>2013-07-03T13:11:09Z</time>
      </trkpt>
      <trkpt lat="40.055933" lon="-4.809450">
        <ele>2342.0</ele>
        <time>2013-07-03T13:11:10Z</time>
      </trkpt>
      <trkpt lat="40.055867" lon="-4.809450">
        <ele>2344.0</ele>
        <time>2013-07-03T13:11:11Z</time>
      </trkpt>
      <trkpt lat="40.055817" lon="-4.809467">
        <ele>2344.0</ele>
        <time>2013-07-03T13:11:12Z</time>
      </trkpt>
      <trkpt lat="40.055750" lon="-4.809467">
        <ele>2345.0</ele>
        <time>2013-07-03T13:11:13Z</time>
      </trkpt>
      <trkpt lat="40.055700" lon="-4.809467">
        <ele>2347.0</ele>
        <time>2013-07-03T13:11:14Z</time>
      </trkpt>
      <trkpt lat="40.055633" lon="-4.809467">
        <ele>2349.0</ele>
        <time>2013-07-03T13:11:15Z</time>
      </trkpt>
      <trkpt lat="40.055583" lon="-4.809483">
        <ele>2350.0</ele>
        <time>2013-07-03T13:11:16Z</time>
      </trkpt>
      <trkpt lat="40.055550" lon="-4.809517">
        <ele>2351.0</ele>
        <time>2013-07-03T13:11:17Z</time>
      </trkpt>
      <trkpt lat="40.055500" lon="-4.809550">
        <ele>2352.0</ele>
        <time>2013-07-03T13:11:18Z</time>
      </trkpt>
      <trkpt lat="40.055467" lon="-4.809617">
        <ele>2352.0</ele>
        <time>2013-07-03T13:11:19Z</time>
      </trkpt>
      <trkpt lat="40.055450" lon="-4.809667">
        <ele>2352.0</ele>
        <time>2013-07-03T13:11:20Z</time>
      </trkpt>
      <trkpt lat="40.055433" lon="-4.809733">
        <ele>2353.0</ele>
        <time>2013-07-03T13:11:21Z</time>
      </trkpt>
      <trkpt lat="40.055433" lon="-4.809817">
        <ele>2353.0</ele>
        <time>2013-07-03T13:11:22Z</time>
      </trkpt>
      <trkpt lat="40.055450" lon="-4.809883">
        <ele>2354.0</ele>
        <time>2013-07-03T13:11:23Z</time>
      </trkpt>
      <trkpt lat="40.055483" lon="-4.809950">
        <ele>2355.0</ele>
        <time>2013-07-03T13:11:24Z</time>
      </trkpt>
      <trkpt lat="40.055533" lon="-4.810000">
        <ele>2356.0</ele>
        <time>2013-07-03T13:11:25Z</time>
      </trkpt>
      <trkpt lat="40.055567" lon="-4.810033">
        <ele>2358.0</ele>
        <time>2013-07-03T13:11:26Z</time>
      </trkpt>
      <trkpt lat="40.055617" lon="-4.810050">
        <ele>2358.0</ele>
        <time>2013-07-03T13:11:27Z</time>
      </trkpt>
      <trkpt lat="40.055700" lon="-4.810050">
        <ele>2358.0</ele>
        <time>2013-07-03T13:11:28Z</time>
      </trkpt>
      <trkpt lat="40.055767" lon="-4.809983">
        <ele>2357.0</ele>
        <time>2013-07-03T13:11:29Z</time>
      </trkpt>
      <trkpt lat="40.055817" lon="-4.809900">
        <ele>2357.0</ele>
        <time>2013-07-03T13:11:30Z</time>
      </trkpt>
      <trkpt lat="40.055867" lon="-4.809783">
        <ele>2357.0</ele>
        <time>2013-07-03T13:11:31Z</time>
      </trkpt>
      <trkpt lat="40.055850" lon="-4.809667">
        <ele>2358.0</ele>
        <time>2013-07-03T13:11:32Z</time>
      </trkpt>
      <trkpt lat="40.055800" lon="-4.809567">
        <ele>2358.0</ele>
        <time>2013-07-03T13:11:33Z</time>
      </trkpt>
      <trkpt lat="40.055733" lon="-4.809517">
        <ele>2359.0</ele>
        <time>2013-07-03T13:11:34Z</time>
      </trkpt>
      <trkpt lat="40.055667" lon="-4.809467">
        <ele>2360.0</ele>
        <time>2013-07-03T13:11:35Z</time>
      </trkpt>
      <trkpt lat="40.055600" lon="-4.809417">
        <ele>2361.0</ele>
        <time>2013-07-03T13:11:36Z</time>
      </trkpt>
      <trkpt lat="40.055533" lon="-4.809383">
        <ele>2362.0</ele>
        <time>2013-07-03T13:11:37Z</time>
      </trkpt>
      <trkpt lat="40.055467" lon="-4.809333">
        <ele>2362.0</ele>
        <time>2013-07-03T13:11:38Z</time>
      </trkpt>
      <trkpt lat="40.055400" lon="-4.809300">
        <ele>2362.0</ele>
        <time>2013-07-03T13:11:39Z</time>
      </trkpt>
      <trkpt lat="40.055317" lon="-4.809250">
        <ele>2363.0</ele>
        <time>2013-07-03T13:11:40Z</time>
      </trkpt>
      <trkpt lat="40.055250" lon="-4.809217">
        <ele>2365.0</ele>
        <time>2013-07-03T13:11:41Z</time>
      </trkpt>
      <trkpt lat="40.055183" lon="-4.809167">
        <ele>2366.0</ele>
        <time>2013-07-03T13:11:42Z</time>
      </trkpt>
      <trkpt lat="40.055117" lon="-4.809117">
        <ele>2366.0</ele>
        <time>2013-07-03T13:11:43Z</time>
      </trkpt>
      <trkpt lat="40.055050" lon="-4.809067">
        <ele>2366.0</ele>
        <time>2013-07-03T13:11:44Z</time>
      </trkpt>
      <trkpt lat="40.054967" lon="-4.809000">
        <ele>2366.0</ele>
        <time>2013-07-03T13:11:45Z</time>
      </trkpt>
      <trkpt lat="40.054867" lon="-4.808950">
        <ele>2366.0</ele>
        <time>2013-07-03T13:11:46Z</time>
      </trkpt>
      <trkpt lat="40.054767" lon="-4.808917">
        <ele>2365.0</ele>
        <time>2013-07-03T13:11:47Z</time>
      </trkpt>
      <trkpt lat="40.054667" lon="-4.808867">
        <ele>2366.0</ele>
        <time>2013-07-03T13:11:48Z</time>
      </trkpt>
      <trkpt lat="40.054567" lon="-4.808833">
        <ele>2367.0</ele>
        <time>2013-07-03T13:11:49Z</time>
      </trkpt>
      <trkpt lat="40.054483" lon="-4.808800">
        <ele>2368.0</ele>
        <time>2013-07-03T13:11:50Z</time>
      </trkpt>
      <trkpt lat="40.054400" lon="-4.808767">
        <ele>2369.0</ele>
        <time>2013-07-03T13:11:51Z</time>
      </trkpt>
      <trkpt lat="40.054317" lon="-4.808733">
        <ele>2369.0</ele>
        <time>2013-07-03T13:11:52Z</time>
      </trkpt>
      <trkpt lat="40.054217" lon="-4.808700">
        <ele>2369.0</ele>
        <time>2013-07-03T13:11:53Z</time>
      </trkpt>
      <trkpt lat="40.054117" lon="-4.808667">
        <ele>2369.0</ele>
        <time>2013-07-03T13:11:54Z</time>
      </trkpt>
      <trkpt lat="40.054017" lon="-4.808633">
        <ele>2369.0</ele>
        <time>2013-07-03T13:11:55Z</time>
      </trkpt>
      <trkpt lat="40.053917" lon="-4.808600">
        <ele>2369.0</ele>
        <time>2013-07-03T13:11:56Z</time>
      </trkpt>
      <trkpt lat="40.053817" lon="-4.808567">
        <ele>2368.0</ele>
        <time>2013-07-03T13:11:57Z</time>
      </trkpt>
      <trkpt lat="40.053717" lon="-4.808533">
        <ele>2368.0</ele>
        <time>2013-07-03T13:11:58Z</time>
      </trkpt>
      <trkpt lat="40.053617" lon="-4.808533">
        <ele>2366.0</ele>
        <time>2013-07-03T13:11:59Z</time>
      </trkpt>
      <trkpt lat="40.053500" lon="-4.808533">
        <ele>2365.0</ele>
        <time>2013-07-03T13:12:00Z</time>
      </trkpt>
      <trkpt lat="40.053383" lon="-4.808517">
        <ele>2366.0</ele>
        <time>2013-07-03T13:12:01Z</time>
      </trkpt>
      <trkpt lat="40.053267" lon="-4.808500">
        <ele>2366.0</ele>
        <time>2013-07-03T13:12:02Z</time>
      </trkpt>
      <trkpt lat="40.053167" lon="-4.808467">
        <ele>2367.0</ele>
        <time>2013-07-03T13:12:03Z</time>
      </trkpt>
      <trkpt lat="40.053067" lon="-4.808417">
        <ele>2367.0</ele>
        <time>2013-07-03T13:12:04Z</time>
      </trkpt>
      <trkpt lat="40.052967" lon="-4.808383">
        <ele>2367.0</ele>
        <time>2013-07-03T13:12:05Z</time>
      </trkpt>
      <trkpt lat="40.052867" lon="-4.808367">
        <ele>2367.0</ele>
        <time>2013-07-03T13:12:06Z</time>
      </trkpt>
      <trkpt lat="40.052767" lon="-4.808350">
        <ele>2367.0</ele>
        <time>2013-07-03T13:12:07Z</time>
      </trkpt>
      <trkpt lat="40.052683" lon="-4.808333">
        <ele>2368.0</ele>
        <time>2013-07-03T13:12:08Z</time>
      </trkpt>
      <trkpt lat="40.052583" lon="-4.808317">
        <ele>2368.0</ele>
        <time>2013-07-03T13:12:09Z</time>
      </trkpt>
      <trkpt lat="40.052500" lon="-4.808300">
        <ele>2368.0</ele>
        <time>2013-07-03T13:12:10Z</time>
      </trkpt>
      <trkpt lat="40.052400" lon="-4.808250">
        <ele>2369.0</ele>
        <time>2013-07-03T13:12:11Z</time>
      </trkpt>
      <trkpt lat="40.052300" lon="-4.808200">
        <ele>2370.0</ele>
        <time>2013-07-03T13:12:12Z</time>
      </trkpt>
      <trkpt lat="40.052200" lon="-4.808150">
        <ele>2372.0</ele>
        <time>2013-07-03T13:12:13Z</time>
      </trkpt>
      <trkpt lat="40.052100" lon="-4.808083">
        <ele>2377.0</ele>
        <time>2013-07-03T13:12:14Z</time>
      </trkpt>
      <trkpt lat="40.052017" lon="-4.808033">
        <ele>2381.0</ele>
        <time>2013-07-03T13:12:15Z</time>
      </trkpt>
      <trkpt lat="40.051950" lon="-4.808000">
        <ele>2383.0</ele>
        <time>2013-07-03T13:12:16Z</time>
      </trkpt>
      <trkpt lat="40.051883" lon="-4.807950">
        <ele>2386.0</ele>
        <time>2013-07-03T13:12:17Z</time>
      </trkpt>
      <trkpt lat="40.051817" lon="-4.807917">
        <ele>2389.0</ele>
        <time>2013-07-03T13:12:18Z</time>
      </trkpt>
      <trkpt lat="40.051750" lon="-4.807883">
        <ele>2392.0</ele>
        <time>2013-07-03T13:12:19Z</time>
      </trkpt>
      <trkpt lat="40.051700" lon="-4.807817">
        <ele>2395.0</ele>
        <time>2013-07-03T13:12:20Z</time>
      </trkpt>
      <trkpt lat="40.051650" lon="-4.807767">
        <ele>2398.0</ele>
        <time>2013-07-03T13:12:21Z</time>
      </trkpt>
      <trkpt lat="40.051600" lon="-4.807733">
        <ele>2400.0</ele>
        <time>2013-07-03T13:12:22Z</time>
      </trkpt>
      <trkpt lat="40.051550" lon="-4.807683">
        <ele>2401.0</ele>
        <time>2013-07-03T13:12:23Z</time>
      </trkpt>
      <trkpt lat="40.051500" lon="-4.807633">
        <ele>2401.0</ele>
        <time>2013-07-03T13:12:24Z</time>
      </trkpt>
      <trkpt lat="40.051450" lon="-4.807550">
        <ele>2402.0</ele>
        <time>2013-07-03T13:12:25Z</time>
      </trkpt>
      <trkpt lat="40.051417" lon="-4.807450">
        <ele>2403.0</ele>
        <time>2013-07-03T13:12:26Z</time>
      </trkpt>
      <trkpt lat="40.051400" lon="-4.807333">
        <ele>2402.0</ele>
        <time>2013-07-03T13:12:27Z</time>
      </trkpt>
      <trkpt lat="40.051433" lon="-4.807183">
        <ele>2403.0</ele>
        <time>2013-07-03T13:12:28Z</time>
      </trkpt>
      <trkpt lat="40.051483" lon="-4.807067">
        <ele>2403.0</ele>
        <time>2013-07-03T13:12:29Z</time>
      </trkpt>
      <trkpt lat="40.051550" lon="-4.806967">
        <ele>2404.0</ele>
        <time>2013-07-03T13:12:30Z</time>
      </trkpt>
      <trkpt lat="40.051633" lon="-4.806900">
        <ele>2406.0</ele>
        <time>2013-07-03T13:12:31Z</time>
      </trkpt>
      <trkpt lat="40.051700" lon="-4.806867">
        <ele>2408.0</ele>
        <time>2013-07-03T13:12:32Z</time>
      </trkpt>
      <trkpt lat="40.051783" lon="-4.806867">
        <ele>2409.0</ele>
        <time>2013-07-03T13:12:33Z</time>
      </trkpt>
      <trkpt lat="40.051850" lon="-4.806900">
        <ele>2411.0</ele>
        <time>2013-07-03T13:12:34Z</time>
      </trkpt>
      <trkpt lat="40.051900" lon="-4.806950">
        <ele>2412.0</ele>
        <time>2013-07-03T13:12:35Z</time>
      </trkpt>
      <trkpt lat="40.051917" lon="-4.807017">
        <ele>2414.0</ele>
        <time>2013-07-03T13:12:36Z</time>
      </trkpt>
      <trkpt lat="40.051917" lon="-4.807100">
        <ele>2415.0</ele>
        <time>2013-07-03T13:12:37Z</time>
      </trkpt>
      <trkpt lat="40.051900" lon="-4.807150">
        <ele>2417.0</ele>
        <time>2013-07-03T13:12:38Z</time>
      </trkpt>
      <trkpt lat="40.051883" lon="-4.807200">
        <ele>2419.0</ele>
        <time>2013-07-03T13:12:39Z</time>
      </trkpt>
      <trkpt lat="40.051833" lon="-4.807200">
        <ele>2420.0</ele>
        <time>2013-07-03T13:12:40Z</time>
      </trkpt>
      <trkpt lat="40.051767" lon="-4.807200">
        <ele>2420.0</ele>
        <time>2013-07-03T13:12:41Z</time>
      </trkpt>
      <trkpt lat="40.051700" lon="-4.807183">
        <ele>2420.0</ele>
        <time>2013-07-03T13:12:42Z</time>
      </trkpt>
      <trkpt lat="40.051633" lon="-4.807150">
        <ele>2421.0</ele>
        <time>2013-07-03T13:12:43Z</time>
      </trkpt>
      <trkpt lat="40.051550" lon="-4.807100">
        <ele>2422.0</ele>
        <time>2013-07-03T13:12:44Z</time>
      </trkpt>
      <trkpt lat="40.051500" lon="-4.807050">
        <ele>2424.0</ele>
        <time>2013-07-03T13:12:45Z</time>
      </trkpt>
      <trkpt lat="40.051450" lon="-4.806983">
        <ele>2424.0</ele>
        <time>2013-07-03T13:12:46Z</time>
      </trkpt>
      <trkpt lat="40.051383" lon="-4.806900">
        <ele>2425.0</ele>
        <time>2013-07-03T13:12:47Z</time>
      </trkpt>
      <trkpt lat="40.051317" lon="-4.806817">
        <ele>2426.0</ele>
        <time>2013-07-03T13:12:48Z</time>
      </trkpt>
      <trkpt lat="40.051233" lon="-4.806750">
        <ele>2428.0</ele>
        <time>2013-07-03T13:12:49Z</time>
      </trkpt>
      <trkpt lat="40.051133" lon="-4.806683">
        <ele>2432.0</ele>
        <time>2013-07-03T13:12:50Z</time>
      </trkpt>
      <trkpt lat="40.051067" lon="-4.806650">
        <ele>2437.0</ele>
        <time>2013-07-03T13:12:51Z</time>
      </trkpt>
      <trkpt lat="40.051000" lon="-4.806583">
        <ele>2441.0</ele>
        <time>2013-07-03T13:12:52Z</time>
      </trkpt>
      <trkpt lat="40.050933" lon="-4.806517">
        <ele>2443.0</ele>
        <time>2013-07-03T13:12:53Z</time>
      </trkpt>
      <trkpt lat="40.050867" lon="-4.806433">
        <ele>2446.0</ele>
        <time>2013-07-03T13:12:54Z</time>
      </trkpt>
      <trkpt lat="40.050800" lon="-4.806350">
        <ele>2448.0</ele>
        <time>2013-07-03T13:12:55Z</time>
      </trkpt>
      <trkpt lat="40.050717" lon="-4.806283">
        <ele>2449.0</ele>
        <time>2013-07-03T13:12:56Z</time>
      </trkpt>
      <trkpt lat="40.050617" lon="-4.806217">
        <ele>2452.0</ele>
        <time>2013-07-03T13:12:57Z</time>
      </trkpt>
      <trkpt lat="40.050500" lon="-4.806167">
        <ele>2456.0</ele>
        <time>2013-07-03T13:12:58Z</time>
      </trkpt>
      <trkpt lat="40.050417" lon="-4.806133">
        <ele>2459.0</ele>
        <time>2013-07-03T13:12:59Z</time>
      </trkpt>
      <trkpt lat="40.050350" lon="-4.806150">
        <ele>2462.0</ele>
        <time>2013-07-03T13:13:00Z</time>
      </trkpt>
      <trkpt lat="40.050267" lon="-4.806200">
        <ele>2466.0</ele>
        <time>2013-07-03T13:13:01Z</time>
      </trkpt>
      <trkpt lat="40.050200" lon="-4.806283">
        <ele>2470.0</ele>
        <time>2013-07-03T13:13:02Z</time>
      </trkpt>
      <trkpt lat="40.050133" lon="-4.806350">
        <ele>2477.0</ele>
        <time>2013-07-03T13:13:03Z</time>
      </trkpt>
      <trkpt lat="40.050117" lon="-4.806433">
        <ele>2483.0</ele>
        <time>2013-07-03T13:13:04Z</time>
      </trkpt>
      <trkpt lat="40.050150" lon="-4.806517">
        <ele>2487.0</ele>
        <time>2013-07-03T13:13:05Z</time>
      </trkpt>
      <trkpt lat="40.050200" lon="-4.806600">
        <ele>2491.0</ele>
        <time>2013-07-03T13:13:06Z</time>
      </trkpt>
      <trkpt lat="40.050283" lon="-4.806633">
        <ele>2497.0</ele>
        <time>2013-07-03T13:13:07Z</time>
      </trkpt>
      <trkpt lat="40.050350" lon="-4.806633">
        <ele>2503.0</ele>
        <time>2013-07-03T13:13:08Z</time>
      </trkpt>
      <trkpt lat="40.050400" lon="-4.806583">
        <ele>2509.0</ele>
        <time>2013-07-03T13:13:09Z</time>
      </trkpt>
      <trkpt lat="40.050417" lon="-4.806467">
        <ele>2514.0</ele>
        <time>2013-07-03T13:13:10Z</time>
      </trkpt>
      <trkpt lat="40.050417" lon="-4.806350">
        <ele>2519.0</ele>
        <time>2013-07-03T13:13:11Z</time>
      </trkpt>
      <trkpt lat="40.050400" lon="-4.806233">
        <ele>2526.0</ele>
        <time>2013-07-03T13:13:12Z</time>
      </trkpt>
      <trkpt lat="40.050367" lon="-4.806150">
        <ele>2532.0</ele>
        <time>2013-07-03T13:13:13Z</time>
      </trkpt>
      <trkpt lat="40.050333" lon="-4.806067">
        <ele>2537.0</ele>
        <time>2013-07-03T13:13:14Z</time>
      </trkpt>
      <trkpt lat="40.050317" lon="-4.805983">
        <ele>2540.0</ele>
        <time>2013-07-03T13:13:15Z</time>
      </trkpt>
      <trkpt lat="40.050267" lon="-4.805867">
        <ele>2544.0</ele>
        <time>2013-07-03T13:13:16Z</time>
      </trkpt>
      <trkpt lat="40.050217" lon="-4.805767">
        <ele>2549.0</ele>
        <time>2013-07-03T13:13:17Z</time>
      </trkpt>
      <trkpt lat="40.050133" lon="-4.805700">
        <ele>2554.0</ele>
        <time>2013-07-03T13:13:18Z</time>
      </trkpt>
      <trkpt lat="40.050050" lon="-4.805667">
        <ele>2558.0</ele>
        <time>2013-07-03T13:13:19Z</time>
      </trkpt>
      <trkpt lat="40.049983" lon="-4.805683">
        <ele>2563.0</ele>
        <time>2013-07-03T13:13:20Z</time>
      </trkpt>
      <trkpt lat="40.049900" lon="-4.805700">
        <ele>2567.0</ele>
        <time>2013-07-03T13:13:21Z</time>
      </trkpt>
      <trkpt lat="40.049817" lon="-4.805717">
        <ele>2572.0</ele>
        <time>2013-07-03T13:13:22Z</time>
      </trkpt>
      <trkpt lat="40.049750" lon="-4.805750">
        <ele>2577.0</ele>
        <time>2013-07-03T13:13:23Z</time>
      </trkpt>
      <trkpt lat="40.049717" lon="-4.805783">
        <ele>2582.0</ele>
        <time>2013-07-03T13:13:24Z</time>
      </trkpt>
      <trkpt lat="40.049717" lon="-4.805833">
        <ele>2584.0</ele>
        <time>2013-07-03T13:13:25Z</time>
      </trkpt>
      <trkpt lat="40.049733" lon="-4.805900">
        <ele>2587.0</ele>
        <time>2013-07-03T13:13:26Z</time>
      </trkpt>
      <trkpt lat="40.049750" lon="-4.805950">
        <ele>2590.0</ele>
        <time>2013-07-03T13:13:27Z</time>
      </trkpt>
      <trkpt lat="40.049800" lon="-4.806000">
        <ele>2594.0</ele>
        <time>2013-07-03T13:13:28Z</time>
      </trkpt>
      <trkpt lat="40.049883" lon="-4.805983">
        <ele>2597.0</ele>
        <time>2013-07-03T13:13:29Z</time>
      </trkpt>
      <trkpt lat="40.049967" lon="-4.805933">
        <ele>2599.0</ele>
        <time>2013-07-03T13:13:30Z</time>
      </trkpt>
      <trkpt lat="40.050050" lon="-4.805850">
        <ele>2603.0</ele>
        <time>2013-07-03T13:13:31Z</time>
      </trkpt>
      <trkpt lat="40.050100" lon="-4.805750">
        <ele>2608.0</ele>
        <time>2013-07-03T13:13:32Z</time>
      </trkpt>
      <trkpt lat="40.050150" lon="-4.805650">
        <ele>2614.0</ele>
        <time>2013-07-03T13:13:33Z</time>
      </trkpt>
      <trkpt lat="40.050167" lon="-4.805567">
        <ele>2618.0</ele>
        <time>2013-07-03T13:13:34Z</time>
      </trkpt>
      <trkpt lat="40.050200" lon="-4.805483">
        <ele>2622.0</ele>
        <time>2013-07-03T13:13:35Z</time>
      </trkpt>
      <trkpt lat="40.050250" lon="-4.805367">
        <ele>2624.0</ele>
        <time>2013-07-03T13:13:36Z</time>
      </trkpt>
      <trkpt lat="40.050283" lon="-4.805233">
        <ele>2627.0</ele>
        <time>2013-07-03T13:13:37Z</time>
      </trkpt>
      <trkpt lat="40.050267" lon="-4.805083">
        <ele>2630.0</ele>
        <time>2013-07-03T13:13:38Z</time>
      </trkpt>
      <trkpt lat="40.050217" lon="-4.804950">
        <ele>2632.0</ele>
        <time>2013-07-03T13:13:39Z</time>
      </trkpt>
      <trkpt lat="40.050133" lon="-4.804883">
        <ele>2635.0</ele>
        <time>2013-07-03T13:13:40Z</time>
      </trkpt>
      <trkpt lat="40.050033" lon="-4.804867">
        <ele>2637.0</ele>
        <time>2013-07-03T13:13:41Z</time>
      </trkpt>
      <trkpt lat="40.049950" lon="-4.804883">
        <ele>2640.0</ele>
        <time>2013-07-03T13:13:42Z</time>
      </trkpt>
      <trkpt lat="40.049900" lon="-4.804950">
        <ele>2644.0</ele>
        <time>2013-07-03T13:13:43Z</time>
      </trkpt>
      <trkpt lat="40.049867" lon="-4.805017">
        <ele>2649.0</ele>
        <time>2013-07-03T13:13:44Z</time>
      </trkpt>
      <trkpt lat="40.049850" lon="-4.805067">
        <ele>2654.0</ele>
        <time>2013-07-03T13:13:45Z</time>
      </trkpt>
      <trkpt lat="40.049833" lon="-4.805117">
        <ele>2659.0</ele>
        <time>2013-07-03T13:13:46Z</time>
      </trkpt>
      <trkpt lat="40.049833" lon="-4.805167">
        <ele>2662.0</ele>
        <time>2013-07-03T13:13:47Z</time>
      </trkpt>
      <trkpt lat="40.049850" lon="-4.805217">
        <ele>2666.0</ele>
        <time>2013-07-03T13:13:48Z</time>
      </trkpt>
      <trkpt lat="40.049883" lon="-4.805267">
        <ele>2669.0</ele>
        <time>2013-07-03T13:13:49Z</time>
      </trkpt>
      <trkpt lat="40.049950" lon="-4.805300">
        <ele>2670.0</ele>
        <time>2013-07-03T13:13:50Z</time>
      </trkpt>
      <trkpt lat="40.050017" lon="-4.805300">
        <ele>2674.0</ele>
        <time>2013-07-03T13:13:51Z</time>
      </trkpt>
      <trkpt lat="40.050100" lon="-4.805300">
        <ele>2676.0</ele>
        <time>2013-07-03T13:13:52Z</time>
      </trkpt>
      <trkpt lat="40.050183" lon="-4.805250">
        <ele>2680.0</ele>
        <time>2013-07-03T13:13:53Z</time>
      </trkpt>
      <trkpt lat="40.050250" lon="-4.805150">
        <ele>2682.0</ele>
        <time>2013-07-03T13:13:54Z</time>
      </trkpt>
      <trkpt lat="40.050300" lon="-4.805033">
        <ele>2684.0</ele>
        <time>2013-07-03T13:13:55Z</time>
      </trkpt>
      <trkpt lat="40.050333" lon="-4.804900">
        <ele>2686.0</ele>
        <time>2013-07-03T13:13:56Z</time>
      </trkpt>
      <trkpt lat="40.050350" lon="-4.804750">
        <ele>2689.0</ele>
        <time>2013-07-03T13:13:57Z</time>
      </trkpt>
      <trkpt lat="40.050350" lon="-4.804617">
        <ele>2692.0</ele>
        <time>2013-07-03T13:13:58Z</time>
      </trkpt>
      <trkpt lat="40.050333" lon="-4.804483">
        <ele>2695.0</ele>
        <time>2013-07-03T13:13:59Z</time>
      </trkpt>
      <trkpt lat="40.050283" lon="-4.804367">
        <ele>2697.0</ele>
        <time>2013-07-03T13:14:00Z</time>
      </trkpt>
      <trkpt lat="40.050217" lon="-4.804267">
        <ele>2698.0</ele>
        <time>2013-07-03T13:14:01Z</time>
      </trkpt>
      <trkpt lat="40.050150" lon="-4.804183">
        <ele>2700.0</ele>
        <time>2013-07-03T13:14:02Z</time>
      </trkpt>
      <trkpt lat="40.050100" lon="-4.804100">
        <ele>2700.0</ele>
        <time>2013-07-03T13:14:03Z</time>
      </trkpt>
      <trkpt lat="40.050033" lon="-4.804017">
        <ele>2701.0</ele>
        <time>2013-07-03T13:14:04Z</time>
      </trkpt>
      <trkpt lat="40.049933" lon="-4.803950">
        <ele>2700.0</ele>
        <time>2013-07-03T13:14:05Z</time>
      </trkpt>
      <trkpt lat="40.049833" lon="-4.803917">
        <ele>2700.0</ele>
        <time>2013-07-03T13:14:06Z</time>
      </trkpt>
      <trkpt lat="40.049733" lon="-4.803917">
        <ele>2700.0</ele>
        <time>2013-07-03T13:14:07Z</time>
      </trkpt>
      <trkpt lat="40.049650" lon="-4.803933">
        <ele>2704.0</ele>
        <time>2013-07-03T13:14:08Z</time>
      </trkpt>
      <trkpt lat="40.049583" lon="-4.803950">
        <ele>2708.0</ele>
        <time>2013-07-03T13:14:09Z</time>
      </trkpt>
      <trkpt lat="40.049550" lon="-4.803967">
        <ele>2712.0</ele>
        <time>2013-07-03T13:14:10Z</time>
      </trkpt>
      <trkpt lat="40.049500" lon="-4.803967">
        <ele>2713.0</ele>
        <time>2013-07-03T13:14:11Z</time>
      </trkpt>
      <trkpt lat="40.049450" lon="-4.803983">
        <ele>2715.0</ele>
        <time>2013-07-03T13:14:12Z</time>
      </trkpt>
      <trkpt lat="40.049383" lon="-4.804033">
        <ele>2716.0</ele>
        <time>2013-07-03T13:14:13Z</time>
      </trkpt>
      <trkpt lat="40.049317" lon="-4.804117">
        <ele>2718.0</ele>
        <time>2013-07-03T13:14:14Z</time>
      </trkpt>
      <trkpt lat="40.049300" lon="-4.804217">
        <ele>2720.0</ele>
        <time>2013-07-03T13:14:15Z</time>
      </trkpt>
      <trkpt lat="40.049317" lon="-4.804300">
        <ele>2722.0</ele>
        <time>2013-07-03T13:14:16Z</time>
      </trkpt>
      <trkpt lat="40.049367" lon="-4.804367">
        <ele>2726.0</ele>
        <time>2013-07-03T13:14:17Z</time>
      </trkpt>
      <trkpt lat="40.049417" lon="-4.804400">
        <ele>2730.0</ele>
        <time>2013-07-03T13:14:18Z</time>
      </trkpt>
      <trkpt lat="40.049450" lon="-4.804417">
        <ele>2734.0</ele>
        <time>2013-07-03T13:14:19Z</time>
      </trkpt>
      <trkpt lat="40.049500" lon="-4.804400">
        <ele>2738.0</ele>
        <time>2013-07-03T13:14:20Z</time>
      </trkpt>
      <trkpt lat="40.049567" lon="-4.804383">
        <ele>2741.0</ele>
        <time>2013-07-03T13:14:21Z</time>
      </trkpt>
      <trkpt lat="40.049617" lon="-4.804350">
        <ele>2743.0</ele>
        <time>2013-07-03T13:14:22Z</time>
      </trkpt>
      <trkpt lat="40.049667" lon="-4.804283">
        <ele>2745.0</ele>
        <time>2013-07-03T13:14:23Z</time>
      </trkpt>
      <trkpt lat="40.049717" lon="-4.804183">
        <ele>2746.0</ele>
        <time>2013-07-03T13:14:24Z</time>
      </trkpt>
      <trkpt lat="40.049717" lon="-4.804050">
        <ele>2747.0</ele>
        <time>2013-07-03T13:14:25Z</time>
      </trkpt>
      <trkpt lat="40.049717" lon="-4.803933">
        <ele>2749.0</ele>
        <time>2013-07-03T13:14:26Z</time>
      </trkpt>
      <trkpt lat="40.049683" lon="-4.803817">
        <ele>2751.0</ele>
        <time>2013-07-03T13:14:27Z</time>
      </trkpt>
      <trkpt lat="40.049617" lon="-4.803717">
        <ele>2754.0</ele>
        <time>2013-07-03T13:14:28Z</time>
      </trkpt>
      <trkpt lat="40.049533" lon="-4.803650">
        <ele>2756.0</ele>
        <time>2013-07-03T13:14:29Z</time>
      </trkpt>
      <trkpt lat="40.049433" lon="-4.803600">
        <ele>2757.0</ele>
        <time>2013-07-03T13:14:30Z</time>
      </trkpt>
      <trkpt lat="40.049317" lon="-4.803583">
        <ele>2760.0</ele>
        <time>2013-07-03T13:14:31Z</time>
      </trkpt>
      <trkpt lat="40.049200" lon="-4.803550">
        <ele>2763.0</ele>
        <time>2013-07-03T13:14:32Z</time>
      </trkpt>
      <trkpt lat="40.049100" lon="-4.803550">
        <ele>2766.0</ele>
        <time>2013-07-03T13:14:33Z</time>
      </trkpt>
      <trkpt lat="40.049017" lon="-4.803567">
        <ele>2767.0</ele>
        <time>2013-07-03T13:14:34Z</time>
      </trkpt>
      <trkpt lat="40.048917" lon="-4.803600">
        <ele>2770.0</ele>
        <time>2013-07-03T13:14:35Z</time>
      </trkpt>
      <trkpt lat="40.048817" lon="-4.803633">
        <ele>2772.0</ele>
        <time>2013-07-03T13:14:36Z</time>
      </trkpt>
      <trkpt lat="40.048733" lon="-4.803683">
        <ele>2774.0</ele>
        <time>2013-07-03T13:14:37Z</time>
      </trkpt>
      <trkpt lat="40.048667" lon="-4.803733">
        <ele>2777.0</ele>
        <time>2013-07-03T13:14:38Z</time>
      </trkpt>
      <trkpt lat="40.048583" lon="-4.803800">
        <ele>2779.0</ele>
        <time>2013-07-03T13:14:39Z</time>
      </trkpt>
      <trkpt lat="40.048500" lon="-4.803867">
        <ele>2782.0</ele>
        <time>2013-07-03T13:14:40Z</time>
      </trkpt>
      <trkpt lat="40.048417" lon="-4.803933">
        <ele>2786.0</ele>
        <time>2013-07-03T13:14:41Z</time>
      </trkpt>
      <trkpt lat="40.048367" lon="-4.803983">
        <ele>2790.0</ele>
        <time>2013-07-03T13:14:42Z</time>
      </trkpt>
      <trkpt lat="40.048333" lon="-4.804050">
        <ele>2794.0</ele>
        <time>2013-07-03T13:14:43Z</time>
      </trkpt>
      <trkpt lat="40.048283" lon="-4.804100">
        <ele>2797.0</ele>
        <time>2013-07-03T13:14:44Z</time>
      </trkpt>
      <trkpt lat="40.048250" lon="-4.804167">
        <ele>2799.0</ele>
        <time>2013-07-03T13:14:45Z</time>
      </trkpt>
      <trkpt lat="40.048217" lon="-4.804233">
        <ele>2802.0</ele>
        <time>2013-07-03T13:14:46Z</time>
      </trkpt>
      <trkpt lat="40.048183" lon="-4.804300">
        <ele>2804.0</ele>
        <time>2013-07-03T13:14:47Z</time>
      </trkpt>
      <trkpt lat="40.048183" lon="-4.804367">
        <ele>2806.0</ele>
        <time>2013-07-03T13:14:48Z</time>
      </trkpt>
      <trkpt lat="40.048200" lon="-4.804417">
        <ele>2807.0</ele>
        <time>2013-07-03T13:14:49Z</time>
      </trkpt>
      <trkpt lat="40.048233" lon="-4.804467">
        <ele>2808.0</ele>
        <time>2013-07-03T13:14:50Z</time>
      </trkpt>
      <trkpt lat="40.048300" lon="-4.804500">
        <ele>2810.0</ele>
        <time>2013-07-03T13:14:51Z</time>
      </trkpt>
      <trkpt lat="40.048350" lon="-4.804500">
        <ele>2813.0</ele>
        <time>2013-07-03T13:14:52Z</time>
      </trkpt>
      <trkpt lat="40.048417" lon="-4.804433">
        <ele>2814.0</ele>
        <time>2013-07-03T13:14:53Z</time>
      </trkpt>
      <trkpt lat="40.048467" lon="-4.804333">
        <ele>2815.0</ele>
        <time>2013-07-03T13:14:54Z</time>
      </trkpt>
      <trkpt lat="40.048500" lon="-4.804200">
        <ele>2816.0</ele>
        <time>2013-07-03T13:14:55Z</time>
      </trkpt>
      <trkpt lat="40.048500" lon="-4.804050">
        <ele>2818.0</ele>
        <time>2013-07-03T13:14:56Z</time>
      </trkpt>
      <trkpt lat="40.048450" lon="-4.803917">
        <ele>2821.0</ele>
        <time>2013-07-03T13:14:57Z</time>
      </trkpt>
      <trkpt lat="40.048400" lon="-4.803800">
        <ele>2823.0</ele>
        <time>2013-07-03T13:14:58Z</time>
      </trkpt>
      <trkpt lat="40.048317" lon="-4.803717">
        <ele>2825.0</ele>
        <time>2013-07-03T13:14:59Z</time>
      </trkpt>
      <trkpt lat="40.048233" lon="-4.803633">
        <ele>2827.0</ele>
        <time>2013-07-03T13:15:00Z</time>
      </trkpt>
      <trkpt lat="40.048167" lon="-4.803567">
        <ele>2829.0</ele>
        <time>2013-07-03T13:15:01Z</time>
      </trkpt>
      <trkpt lat="40.048083" lon="-4.803483">
        <ele>2831.0</ele>
        <time>2013-07-03T13:15:02Z</time>
      </trkpt>
      <trkpt lat="40.048000" lon="-4.803417">
        <ele>2833.0</ele>
        <time>2013-07-03T13:15:03Z</time>
      </trkpt>
      <trkpt lat="40.047900" lon="-4.803367">
        <ele>2834.0</ele>
        <time>2013-07-03T13:15:04Z</time>
      </trkpt>
      <trkpt lat="40.047800" lon="-4.803367">
        <ele>2835.0</ele>
        <time>2013-07-03T13:15:05Z</time>
      </trkpt>
      <trkpt lat="40.047717" lon="-4.803383">
        <ele>2836.0</ele>
        <time>2013-07-03T13:15:06Z</time>
      </trkpt>
      <trkpt lat="40.047633" lon="-4.803417">
        <ele>2838.0</ele>
        <time>2013-07-03T13:15:07Z</time>
      </trkpt>
      <trkpt lat="40.047567" lon="-4.803467">
        <ele>2840.0</ele>
        <time>2013-07-03T13:15:08Z</time>
      </trkpt>
      <trkpt lat="40.047517" lon="-4.803533">
        <ele>2841.0</ele>
        <time>2013-07-03T13:15:09Z</time>
      </trkpt>
      <trkpt lat="40.047483" lon="-4.803583">
        <ele>2843.0</ele>
        <time>2013-07-03T13:15:10Z</time>
      </trkpt>
      <trkpt lat="40.047450" lon="-4.803650">
        <ele>2843.0</ele>
        <time>2013-07-03T13:15:11Z</time>
      </trkpt>
      <trkpt lat="40.047450" lon="-4.803717">
        <ele>2845.0</ele>
        <time>2013-07-03T13:15:12Z</time>
      </trkpt>
      <trkpt lat="40.047450" lon="-4.803767">
        <ele>2847.0</ele>
        <time>2013-07-03T13:15:13Z</time>
      </trkpt>
      <trkpt lat="40.047483" lon="-4.803833">
        <ele>2849.0</ele>
        <time>2013-07-03T13:15:14Z</time>
      </trkpt>
      <trkpt lat="40.047500" lon="-4.803883">
        <ele>2850.0</ele>
        <time>2013-07-03T13:15:15Z</time>
      </trkpt>
      <trkpt lat="40.047533" lon="-4.803917">
        <ele>2853.0</ele>
        <time>2013-07-03T13:15:16Z</time>
      </trkpt>
      <trkpt lat="40.047567" lon="-4.803933">
        <ele>2857.0</ele>
        <time>2013-07-03T13:15:17Z</time>
      </trkpt>
      <trkpt lat="40.047617" lon="-4.803917">
        <ele>2860.0</ele>
        <time>2013-07-03T13:15:18Z</time>
      </trkpt>
      <trkpt lat="40.047667" lon="-4.803867">
        <ele>2862.0</ele>
        <time>2013-07-03T13:15:19Z</time>
      </trkpt>
      <trkpt lat="40.047700" lon="-4.803767">
        <ele>2865.0</ele>
        <time>2013-07-03T13:15:20Z</time>
      </trkpt>
      <trkpt lat="40.047717" lon="-4.803650">
        <ele>2869.0</ele>
        <time>2013-07-03T13:15:21Z</time>
      </trkpt>
      <trkpt lat="40.047717" lon="-4.803550">
        <ele>2873.0</ele>
        <time>2013-07-03T13:15:22Z</time>
      </trkpt>
      <trkpt lat="40.047683" lon="-4.803433">
        <ele>2876.0</ele>
        <time>2013-07-03T13:15:23Z</time>
      </trkpt>
      <trkpt lat="40.047617" lon="-4.803333">
        <ele>2877.0</ele>
        <time>2013-07-03T13:15:24Z</time>
      </trkpt>
      <trkpt lat="40.047550" lon="-4.803250">
        <ele>2877.0</ele>
        <time>2013-07-03T13:15:25Z</time>
      </trkpt>
      <trkpt lat="40.047450" lon="-4.803167">
        <ele>2878.0</ele>
        <time>2013-07-03T13:15:26Z</time>
      </trkpt>
      <trkpt lat="40.047350" lon="-4.803100">
        <ele>2880.0</ele>
        <time>2013-07-03T13:15:27Z</time>
      </trkpt>
      <trkpt lat="40.047250" lon="-4.803083">
        <ele>2880.0</ele>
        <time>2013-07-03T13:15:28Z</time>
      </trkpt>
      <trkpt lat="40.047167" lon="-4.803083">
        <ele>2881.0</ele>
        <time>2013-07-03T13:15:29Z</time>
      </trkpt>
      <trkpt lat="40.047067" lon="-4.803083">
        <ele>2883.0</ele>
        <time>2013-07-03T13:15:30Z</time>
      </trkpt>
      <trkpt lat="40.046967" lon="-4.803100">
        <ele>2885.0</ele>
        <time>2013-07-03T13:15:31Z</time>
      </trkpt>
      <trkpt lat="40.046867" lon="-4.803117">
        <ele>2888.0</ele>
        <time>2013-07-03T13:15:32Z</time>
      </trkpt>
      <trkpt lat="40.046783" lon="-4.803150">
        <ele>2890.0</ele>
        <time>2013-07-03T13:15:33Z</time>
      </trkpt>
      <trkpt lat="40.046700" lon="-4.803183">
        <ele>2892.0</ele>
        <time>2013-07-03T13:15:34Z</time>
      </trkpt>
      <trkpt lat="40.046600" lon="-4.803217">
        <ele>2894.0</ele>
        <time>2013-07-03T13:15:35Z</time>
      </trkpt>
      <trkpt lat="40.046533" lon="-4.803283">
        <ele>2895.0</ele>
        <time>2013-07-03T13:15:36Z</time>
      </trkpt>
      <trkpt lat="40.046467" lon="-4.803350">
        <ele>2897.0</ele>
        <time>2013-07-03T13:15:37Z</time>
      </trkpt>
      <trkpt lat="40.046417" lon="-4.803417">
        <ele>2898.0</ele>
        <time>2013-07-03T13:15:38Z</time>
      </trkpt>
      <trkpt lat="40.046383" lon="-4.803500">
        <ele>2899.0</ele>
        <time>2013-07-03T13:15:39Z</time>
      </trkpt>
      <trkpt lat="40.046350" lon="-4.803567">
        <ele>2900.0</ele>
        <time>2013-07-03T13:15:40Z</time>
      </trkpt>
      <trkpt lat="40.046317" lon="-4.803633">
        <ele>2901.0</ele>
        <time>2013-07-03T13:15:41Z</time>
      </trkpt>
      <trkpt lat="40.046300" lon="-4.803700">
        <ele>2901.0</ele>
        <time>2013-07-03T13:15:42Z</time>
      </trkpt>
      <trkpt lat="40.046267" lon="-4.803783">
        <ele>2901.0</ele>
        <time>2013-07-03T13:15:43Z</time>
      </trkpt>
      <trkpt lat="40.046267" lon="-4.803867">
        <ele>2902.0</ele>
        <time>2013-07-03T13:15:44Z</time>
      </trkpt>
      <trkpt lat="40.046283" lon="-4.803950">
        <ele>2904.0</ele>
        <time>2013-07-03T13:15:45Z</time>
      </trkpt>
      <trkpt lat="40.046300" lon="-4.804000">
        <ele>2907.0</ele>
        <time>2013-07-03T13:15:46Z</time>
      </trkpt>
      <trkpt lat="40.046317" lon="-4.804033">
        <ele>2910.0</ele>
        <time>2013-07-03T13:15:47Z</time>
      </trkpt>
      <trkpt lat="40.046333" lon="-4.804033">
        <ele>2912.0</ele>
        <time>2013-07-03T13:15:48Z</time>
      </trkpt>
      <trkpt lat="40.046367" lon="-4.804033">
        <ele>2912.0</ele>
        <time>2013-07-03T13:15:49Z</time>
      </trkpt>
      <trkpt lat="40.046400" lon="-4.804017">
        <ele>2912.0</ele>
        <time>2013-07-03T13:15:50Z</time>
      </trkpt>
      <trkpt lat="40.046450" lon="-4.803983">
        <ele>2913.0</ele>
        <time>2013-07-03T13:15:51Z</time>
      </trkpt>
      <trkpt lat="40.046500" lon="-4.803933">
        <ele>2914.0</ele>
        <time>2013-07-03T13:15:52Z</time>
      </trkpt>
      <trkpt lat="40.046550" lon="-4.803833">
        <ele>2914.0</ele>
        <time>2013-07-03T13:15:53Z</time>
      </trkpt>
      <trkpt lat="40.046567" lon="-4.803700">
        <ele>2915.0</ele>
        <time>2013-07-03T13:15:54Z</time>
      </trkpt>
      <trkpt lat="40.046567" lon="-4.803550">
        <ele>2916.0</ele>
        <time>2013-07-03T13:15:55Z</time>
      </trkpt>
      <trkpt lat="40.046550" lon="-4.803400">
        <ele>2918.0</ele>
        <time>2013-07-03T13:15:56Z</time>
      </trkpt>
      <trkpt lat="40.046517" lon="-4.803267">
        <ele>2920.0</ele>
        <time>2013-07-03T13:15:57Z</time>
      </trkpt>
      <trkpt lat="40.046450" lon="-4.803150">
        <ele>2922.0</ele>
        <time>2013-07-03T13:15:58Z</time>
      </trkpt>
      <trkpt lat="40.046383" lon="-4.803017">
        <ele>2924.0</ele>
        <time>2013-07-03T13:15:59Z</time>
      </trkpt>
      <trkpt lat="40.046317" lon="-4.802900">
        <ele>2926.0</ele>
        <time>2013-07-03T13:16:00Z</time>
      </trkpt>
      <trkpt lat="40.046233" lon="-4.802783">
        <ele>2928.0</ele>
        <time>2013-07-03T13:16:01Z</time>
      </trkpt>
      <trkpt lat="40.046167" lon="-4.802683">
        <ele>2929.0</ele>
        <time>2013-07-03T13:16:02Z</time>
      </trkpt>
      <trkpt lat="40.046067" lon="-4.802600">
        <ele>2930.0</ele>
        <time>2013-07-03T13:16:03Z</time>
      </trkpt>
      <trkpt lat="40.045967" lon="-4.802533">
        <ele>2932.0</ele>
        <time>2013-07-03T13:16:04Z</time>
      </trkpt>
      <trkpt lat="40.045867" lon="-4.802450">
        <ele>2932.0</ele>
        <time>2013-07-03T13:16:05Z</time>
      </trkpt>
      <trkpt lat="40.045750" lon="-4.802367">
        <ele>2933.0</ele>
        <time>2013-07-03T13:16:06Z</time>
      </trkpt>
      <trkpt lat="40.045650" lon="-4.802300">
        <ele>2933.0</ele>
        <time>2013-07-03T13:16:07Z</time>
      </trkpt>
      <trkpt lat="40.045533" lon="-4.802267">
        <ele>2932.0</ele>
        <time>2013-07-03T13:16:08Z</time>
      </trkpt>
      <trkpt lat="40.045417" lon="-4.802233">
        <ele>2932.0</ele>
        <time>2013-07-03T13:16:09Z</time>
      </trkpt>
      <trkpt lat="40.045300" lon="-4.802217">
        <ele>2932.0</ele>
        <time>2013-07-03T13:16:10Z</time>
      </trkpt>
      <trkpt lat="40.045183" lon="-4.802183">
        <ele>2932.0</ele>
        <time>2013-07-03T13:16:11Z</time>
      </trkpt>
      <trkpt lat="40.045067" lon="-4.802150">
        <ele>2932.0</ele>
        <time>2013-07-03T13:16:12Z</time>
      </trkpt>
      <trkpt lat="40.044950" lon="-4.802117">
        <ele>2932.0</ele>
        <time>2013-07-03T13:16:13Z</time>
      </trkpt>
      <trkpt lat="40.044833" lon="-4.802083">
        <ele>2933.0</ele>
        <time>2013-07-03T13:16:14Z</time>
      </trkpt>
      <trkpt lat="40.044717" lon="-4.802067">
        <ele>2933.0</ele>
        <time>2013-07-03T13:16:15Z</time>
      </trkpt>
      <trkpt lat="40.044617" lon="-4.802033">
        <ele>2933.0</ele>
        <time>2013-07-03T13:16:16Z</time>
      </trkpt>
      <trkpt lat="40.044500" lon="-4.802000">
        <ele>2933.0</ele>
        <time>2013-07-03T13:16:17Z</time>
      </trkpt>
      <trkpt lat="40.044383" lon="-4.801967">
        <ele>2933.0</ele>
        <time>2013-07-03T13:16:18Z</time>
      </trkpt>
      <trkpt lat="40.044250" lon="-4.801933">
        <ele>2932.0</ele>
        <time>2013-07-03T13:16:19Z</time>
      </trkpt>
      <trkpt lat="40.044117" lon="-4.801917">
        <ele>2931.0</ele>
        <time>2013-07-03T13:16:20Z</time>
      </trkpt>
      <trkpt lat="40.043983" lon="-4.801917">
        <ele>2930.0</ele>
        <time>2013-07-03T13:16:21Z</time>
      </trkpt>
      <trkpt lat="40.043867" lon="-4.801917">
        <ele>2929.0</ele>
        <time>2013-07-03T13:16:22Z</time>
      </trkpt>
      <trkpt lat="40.043733" lon="-4.801917">
        <ele>2929.0</ele>
        <time>2013-07-03T13:16:23Z</time>
      </trkpt>
      <trkpt lat="40.043617" lon="-4.801917">
        <ele>2928.0</ele>
        <time>2013-07-03T13:16:24Z</time>
      </trkpt>
      <trkpt lat="40.043500" lon="-4.801917">
        <ele>2928.0</ele>
        <time>2013-07-03T13:16:25Z</time>
      </trkpt>
      <trkpt lat="40.043383" lon="-4.801917">
        <ele>2926.0</ele>
        <time>2013-07-03T13:16:26Z</time>
      </trkpt>
      <trkpt lat="40.043267" lon="-4.801917">
        <ele>2924.0</ele>
        <time>2013-07-03T13:16:27Z</time>
      </trkpt>
      <trkpt lat="40.043133" lon="-4.801933">
        <ele>2923.0</ele>
        <time>2013-07-03T13:16:28Z</time>
      </trkpt>
      <trkpt lat="40.043017" lon="-4.801933">
        <ele>2922.0</ele>
        <time>2013-07-03T13:16:29Z</time>
      </trkpt>
      <trkpt lat="40.042883" lon="-4.801933">
        <ele>2921.0</ele>
        <time>2013-07-03T13:16:30Z</time>
      </trkpt>
      <trkpt lat="40.042750" lon="-4.801933">
        <ele>2920.0</ele>
        <time>2013-07-03T13:16:31Z</time>
      </trkpt>
      <trkpt lat="40.042617" lon="-4.801900">
        <ele>2919.0</ele>
        <time>2013-07-03T13:16:32Z</time>
      </trkpt>
      <trkpt lat="40.042483" lon="-4.801883">
        <ele>2917.0</ele>
        <time>2013-07-03T13:16:33Z</time>
      </trkpt>
      <trkpt lat="40.042333" lon="-4.801883">
        <ele>2916.0</ele>
        <time>2013-07-03T13:16:34Z</time>
      </trkpt>
      <trkpt lat="40.042200" lon="-4.801867">
        <ele>2915.0</ele>
        <time>2013-07-03T13:16:35Z</time>
      </trkpt>
      <trkpt lat="40.042033" lon="-4.801850">
        <ele>2913.0</ele>
        <time>2013-07-03T13:16:36Z</time>
      </trkpt>
      <trkpt lat="40.041883" lon="-4.801833">
        <ele>2912.0</ele>
        <time>2013-07-03T13:16:37Z</time>
      </trkpt>
      <trkpt lat="40.041733" lon="-4.801800">
        <ele>2911.0</ele>
        <time>2013-07-03T13:16:38Z</time>
      </trkpt>
      <trkpt lat="40.041600" lon="-4.801767">
        <ele>2909.0</ele>
        <time>2013-07-03T13:16:39Z</time>
      </trkpt>
      <trkpt lat="40.041467" lon="-4.801733">
        <ele>2907.0</ele>
        <time>2013-07-03T13:16:40Z</time>
      </trkpt>
      <trkpt lat="40.041300" lon="-4.801700">
        <ele>2904.0</ele>
        <time>2013-07-03T13:16:41Z</time>
      </trkpt>
      <trkpt lat="40.041150" lon="-4.801650">
        <ele>2902.0</ele>
        <time>2013-07-03T13:16:42Z</time>
      </trkpt>
      <trkpt lat="40.040983" lon="-4.801600">
        <ele>2901.0</ele>
        <time>2013-07-03T13:16:43Z</time>
      </trkpt>
      <trkpt lat="40.040833" lon="-4.801550">
        <ele>2898.0</ele>
        <time>2013-07-03T13:16:44Z</time>
      </trkpt>
      <trkpt lat="40.040700" lon="-4.801517">
        <ele>2895.0</ele>
        <time>2013-07-03T13:16:45Z</time>
      </trkpt>
      <trkpt lat="40.040550" lon="-4.801483">
        <ele>2891.0</ele>
        <time>2013-07-03T13:16:46Z</time>
      </trkpt>
      <trkpt lat="40.040400" lon="-4.801433">
        <ele>2885.0</ele>
        <time>2013-07-03T13:16:47Z</time>
      </trkpt>
      <trkpt lat="40.040250" lon="-4.801400">
        <ele>2880.0</ele>
        <time>2013-07-03T13:16:48Z</time>
      </trkpt>
      <trkpt lat="40.040100" lon="-4.801350">
        <ele>2874.0</ele>
        <time>2013-07-03T13:16:49Z</time>
      </trkpt>
      <trkpt lat="40.039933" lon="-4.801300">
        <ele>2869.0</ele>
        <time>2013-07-03T13:16:50Z</time>
      </trkpt>
      <trkpt lat="40.039767" lon="-4.801250">
        <ele>2865.0</ele>
        <time>2013-07-03T13:16:51Z</time>
      </trkpt>
      <trkpt lat="40.039617" lon="-4.801217">
        <ele>2862.0</ele>
        <time>2013-07-03T13:16:52Z</time>
      </trkpt>
      <trkpt lat="40.039483" lon="-4.801233">
        <ele>2859.0</ele>
        <time>2013-07-03T13:16:53Z</time>
      </trkpt>
      <trkpt lat="40.039350" lon="-4.801233">
        <ele>2856.0</ele>
        <time>2013-07-03T13:16:54Z</time>
      </trkpt>
      <trkpt lat="40.039200" lon="-4.801217">
        <ele>2853.0</ele>
        <time>2013-07-03T13:16:55Z</time>
      </trkpt>
      <trkpt lat="40.039067" lon="-4.801183">
        <ele>2849.0</ele>
        <time>2013-07-03T13:16:56Z</time>
      </trkpt>
      <trkpt lat="40.038933" lon="-4.801167">
        <ele>2846.0</ele>
        <time>2013-07-03T13:16:57Z</time>
      </trkpt>
      <trkpt lat="40.038783" lon="-4.801150">
        <ele>2843.0</ele>
        <time>2013-07-03T13:16:58Z</time>
      </trkpt>
      <trkpt lat="40.038633" lon="-4.801150">
        <ele>2839.0</ele>
        <time>2013-07-03T13:16:59Z</time>
      </trkpt>
      <trkpt lat="40.038500" lon="-4.801133">
        <ele>2836.0</ele>
        <time>2013-07-03T13:17:00Z</time>
      </trkpt>
      <trkpt lat="40.038350" lon="-4.801117">
        <ele>2834.0</ele>
        <time>2013-07-03T13:17:01Z</time>
      </trkpt>
      <trkpt lat="40.038217" lon="-4.801083">
        <ele>2831.0</ele>
        <time>2013-07-03T13:17:02Z</time>
      </trkpt>
      <trkpt lat="40.038067" lon="-4.801067">
        <ele>2828.0</ele>
        <time>2013-07-03T13:17:03Z</time>
      </trkpt>
      <trkpt lat="40.037933" lon="-4.801033">
        <ele>2824.0</ele>
        <time>2013-07-03T13:17:04Z</time>
      </trkpt>
      <trkpt lat="40.037817" lon="-4.801017">
        <ele>2820.0</ele>
        <time>2013-07-03T13:17:05Z</time>
      </trkpt>
      <trkpt lat="40.037667" lon="-4.800983">
        <ele>2816.0</ele>
        <time>2013-07-03T13:17:06Z</time>
      </trkpt>
      <trkpt lat="40.037517" lon="-4.800950">
        <ele>2811.0</ele>
        <time>2013-07-03T13:17:07Z</time>
      </trkpt>
      <trkpt lat="40.037367" lon="-4.800933">
        <ele>2806.0</ele>
        <time>2013-07-03T13:17:08Z</time>
      </trkpt>
      <trkpt lat="40.037217" lon="-4.800933">
        <ele>2802.0</ele>
        <time>2013-07-03T13:17:09Z</time>
      </trkpt>
      <trkpt lat="40.037067" lon="-4.800933">
        <ele>2798.0</ele>
        <time>2013-07-03T13:17:10Z</time>
      </trkpt>
      <trkpt lat="40.036917" lon="-4.800950">
        <ele>2794.0</ele>
        <time>2013-07-03T13:17:11Z</time>
      </trkpt>
      <trkpt lat="40.036767" lon="-4.800950">
        <ele>2791.0</ele>
        <time>2013-07-03T13:17:12Z</time>
      </trkpt>
      <trkpt lat="40.036617" lon="-4.800950">
        <ele>2787.0</ele>
        <time>2013-07-03T13:17:13Z</time>
      </trkpt>
      <trkpt lat="40.036467" lon="-4.800950">
        <ele>2784.0</ele>
        <time>2013-07-03T13:17:14Z</time>
      </trkpt>
      <trkpt lat="40.036317" lon="-4.800967">
        <ele>2781.0</ele>
        <time>2013-07-03T13:17:15Z</time>
      </trkpt>
      <trkpt lat="40.036167" lon="-4.800967">
        <ele>2777.0</ele>
        <time>2013-07-03T13:17:16Z</time>
      </trkpt>
      <trkpt lat="40.036033" lon="-4.800983">
        <ele>2774.0</ele>
        <time>2013-07-03T13:17:17Z</time>
      </trkpt>
      <trkpt lat="40.035883" lon="-4.800967">
        <ele>2770.0</ele>
        <time>2013-07-03T13:17:18Z</time>
      </trkpt>
      <trkpt lat="40.035733" lon="-4.800967">
        <ele>2766.0</ele>
        <time>2013-07-03T13:17:19Z</time>
      </trkpt>
      <trkpt lat="40.035600" lon="-4.800967">
        <ele>2762.0</ele>
        <time>2013-07-03T13:17:20Z</time>
      </trkpt>
      <trkpt lat="40.035450" lon="-4.800983">
        <ele>2758.0</ele>
        <time>2013-07-03T13:17:21Z</time>
      </trkpt>
      <trkpt lat="40.035317" lon="-4.800983">
        <ele>2753.0</ele>
        <time>2013-07-03T13:17:22Z</time>
      </trkpt>
      <trkpt lat="40.035167" lon="-4.801000">
        <ele>2749.0</ele>
        <time>2013-07-03T13:17:23Z</time>
      </trkpt>
      <trkpt lat="40.035033" lon="-4.801000">
        <ele>2745.0</ele>
        <time>2013-07-03T13:17:24Z</time>
      </trkpt>
      <trkpt lat="40.034883" lon="-4.801000">
        <ele>2741.0</ele>
        <time>2013-07-03T13:17:25Z</time>
      </trkpt>
      <trkpt lat="40.034733" lon="-4.801000">
        <ele>2737.0</ele>
        <time>2013-07-03T13:17:26Z</time>
      </trkpt>
      <trkpt lat="40.034583" lon="-4.800983">
        <ele>2734.0</ele>
        <time>2013-07-03T13:17:27Z</time>
      </trkpt>
      <trkpt lat="40.034433" lon="-4.800983">
        <ele>2731.0</ele>
        <time>2013-07-03T13:17:28Z</time>
      </trkpt>
      <trkpt lat="40.034283" lon="-4.800967">
        <ele>2727.0</ele>
        <time>2013-07-03T13:17:29Z</time>
      </trkpt>
      <trkpt lat="40.034150" lon="-4.800967">
        <ele>2722.0</ele>
        <time>2013-07-03T13:17:30Z</time>
      </trkpt>
      <trkpt lat="40.034000" lon="-4.800950">
        <ele>2718.0</ele>
        <time>2013-07-03T13:17:31Z</time>
      </trkpt>
      <trkpt lat="40.033833" lon="-4.800917">
        <ele>2713.0</ele>
        <time>2013-07-03T13:17:32Z</time>
      </trkpt>
      <trkpt lat="40.033683" lon="-4.800917">
        <ele>2709.0</ele>
        <time>2013-07-03T13:17:33Z</time>
      </trkpt>
      <trkpt lat="40.033517" lon="-4.800900">
        <ele>2705.0</ele>
        <time>2013-07-03T13:17:34Z</time>
      </trkpt>
      <trkpt lat="40.033367" lon="-4.800900">
        <ele>2702.0</ele>
        <time>2013-07-03T13:17:35Z</time>
      </trkpt>
      <trkpt lat="40.033200" lon="-4.800867">
        <ele>2699.0</ele>
        <time>2013-07-03T13:17:36Z</time>
      </trkpt>
      <trkpt lat="40.033050" lon="-4.800833">
        <ele>2695.0</ele>
        <time>2013-07-03T13:17:37Z</time>
      </trkpt>
      <trkpt lat="40.032900" lon="-4.800800">
        <ele>2691.0</ele>
        <time>2013-07-03T13:17:38Z</time>
      </trkpt>
      <trkpt lat="40.032750" lon="-4.800767">
        <ele>2687.0</ele>
        <time>2013-07-03T13:17:39Z</time>
      </trkpt>
      <trkpt lat="40.032567" lon="-4.800750">
        <ele>2684.0</ele>
        <time>2013-07-03T13:17:40Z</time>
      </trkpt>
      <trkpt lat="40.032400" lon="-4.800733">
        <ele>2681.0</ele>
        <time>2013-07-03T13:17:41Z</time>
      </trkpt>
      <trkpt lat="40.032233" lon="-4.800717">
        <ele>2680.0</ele>
        <time>2013-07-03T13:17:42Z</time>
      </trkpt>
      <trkpt lat="40.032083" lon="-4.800700">
        <ele>2679.0</ele>
        <time>2013-07-03T13:17:43Z</time>
      </trkpt>
      <trkpt lat="40.031933" lon="-4.800700">
        <ele>2677.0</ele>
        <time>2013-07-03T13:17:44Z</time>
      </trkpt>
      <trkpt lat="40.031800" lon="-4.800667">
        <ele>2674.0</ele>
        <time>2013-07-03T13:17:45Z</time>
      </trkpt>
      <trkpt lat="40.031633" lon="-4.800650">
        <ele>2670.0</ele>
        <time>2013-07-03T13:17:46Z</time>
      </trkpt>
      <trkpt lat="40.031483" lon="-4.800633">
        <ele>2666.0</ele>
        <time>2013-07-03T13:17:47Z</time>
      </trkpt>
      <trkpt lat="40.031317" lon="-4.800617">
        <ele>2663.0</ele>
        <time>2013-07-03T13:17:48Z</time>
      </trkpt>
      <trkpt lat="40.031150" lon="-4.800600">
        <ele>2660.0</ele>
        <time>2013-07-03T13:17:49Z</time>
      </trkpt>
      <trkpt lat="40.031000" lon="-4.800583">
        <ele>2658.0</ele>
        <time>2013-07-03T13:17:50Z</time>
      </trkpt>
      <trkpt lat="40.030850" lon="-4.800550">
        <ele>2655.0</ele>
        <time>2013-07-03T13:17:51Z</time>
      </trkpt>
      <trkpt lat="40.030700" lon="-4.800517">
        <ele>2652.0</ele>
        <time>2013-07-03T13:17:52Z</time>
      </trkpt>
      <trkpt lat="40.030533" lon="-4.800500">
        <ele>2648.0</ele>
        <time>2013-07-03T13:17:53Z</time>
      </trkpt>
      <trkpt lat="40.030367" lon="-4.800483">
        <ele>2645.0</ele>
        <time>2013-07-03T13:17:54Z</time>
      </trkpt>
      <trkpt lat="40.030200" lon="-4.800467">
        <ele>2641.0</ele>
        <time>2013-07-03T13:17:55Z</time>
      </trkpt>
      <trkpt lat="40.030017" lon="-4.800433">
        <ele>2639.0</ele>
        <time>2013-07-03T13:17:56Z</time>
      </trkpt>
      <trkpt lat="40.029833" lon="-4.800417">
        <ele>2636.0</ele>
        <time>2013-07-03T13:17:57Z</time>
      </trkpt>
      <trkpt lat="40.029667" lon="-4.800367">
        <ele>2634.0</ele>
        <time>2013-07-03T13:17:58Z</time>
      </trkpt>
      <trkpt lat="40.029517" lon="-4.800333">
        <ele>2631.0</ele>
        <time>2013-07-03T13:17:59Z</time>
      </trkpt>
      <trkpt lat="40.029350" lon="-4.800283">
        <ele>2628.0</ele>
        <time>2013-07-03T13:18:00Z</time>
      </trkpt>
      <trkpt lat="40.029167" lon="-4.800233">
        <ele>2624.0</ele>
        <time>2013-07-03T13:18:01Z</time>
      </trkpt>
      <trkpt lat="40.028983" lon="-4.800200">
        <ele>2621.0</ele>
        <time>2013-07-03T13:18:02Z</time>
      </trkpt>
      <trkpt lat="40.028817" lon="-4.800167">
        <ele>2617.0</ele>
        <time>2013-07-03T13:18:03Z</time>
      </trkpt>
      <trkpt lat="40.028633" lon="-4.800133">
        <ele>2615.0</ele>
        <time>2013-07-03T13:18:04Z</time>
      </trkpt>
      <trkpt lat="40.028450" lon="-4.800083">
        <ele>2612.0</ele>
        <time>2013-07-03T13:18:05Z</time>
      </trkpt>
      <trkpt lat="40.028283" lon="-4.800033">
        <ele>2610.0</ele>
        <time>2013-07-03T13:18:06Z</time>
      </trkpt>
      <trkpt lat="40.028100" lon="-4.799983">
        <ele>2607.0</ele>
        <time>2013-07-03T13:18:07Z</time>
      </trkpt>
      <trkpt lat="40.027917" lon="-4.799950">
        <ele>2605.0</ele>
        <time>2013-07-03T13:18:08Z</time>
      </trkpt>
      <trkpt lat="40.027750" lon="-4.799917">
        <ele>2603.0</ele>
        <time>2013-07-03T13:18:09Z</time>
      </trkpt>
      <trkpt lat="40.027583" lon="-4.799883">
        <ele>2602.0</ele>
        <time>2013-07-03T13:18:10Z</time>
      </trkpt>
      <trkpt lat="40.027433" lon="-4.799833">
        <ele>2601.0</ele>
        <time>2013-07-03T13:18:11Z</time>
      </trkpt>
      <trkpt lat="40.027267" lon="-4.799783">
        <ele>2599.0</ele>
        <time>2013-07-03T13:18:12Z</time>
      </trkpt>
      <trkpt lat="40.027117" lon="-4.799750">
        <ele>2597.0</ele>
        <time>2013-07-03T13:18:13Z</time>
      </trkpt>
      <trkpt lat="40.026950" lon="-4.799700">
        <ele>2594.0</ele>
        <time>2013-07-03T13:18:14Z</time>
      </trkpt>
      <trkpt lat="40.026783" lon="-4.799650">
        <ele>2592.0</ele>
        <time>2013-07-03T13:18:15Z</time>
      </trkpt>
      <trkpt lat="40.026633" lon="-4.799617">
        <ele>2590.0</ele>
        <time>2013-07-03T13:18:16Z</time>
      </trkpt>
      <trkpt lat="40.026467" lon="-4.799567">
        <ele>2587.0</ele>
        <time>2013-07-03T13:18:17Z</time>
      </trkpt>
      <trkpt lat="40.026317" lon="-4.799517">
        <ele>2585.0</ele>
        <time>2013-07-03T13:18:18Z</time>
      </trkpt>
      <trkpt lat="40.026150" lon="-4.799467">
        <ele>2582.0</ele>
        <time>2013-07-03T13:18:19Z</time>
      </trkpt>
      <trkpt lat="40.025967" lon="-4.799417">
        <ele>2579.0</ele>
        <time>2013-07-03T13:18:20Z</time>
      </trkpt>
      <trkpt lat="40.025783" lon="-4.799367">
        <ele>2575.0</ele>
        <time>2013-07-03T13:18:21Z</time>
      </trkpt>
      <trkpt lat="40.025600" lon="-4.799317">
        <ele>2572.0</ele>
        <time>2013-07-03T13:18:22Z</time>
      </trkpt>
      <trkpt lat="40.025417" lon="-4.799283">
        <ele>2569.0</ele>
        <time>2013-07-03T13:18:23Z</time>
      </trkpt>
      <trkpt lat="40.025233" lon="-4.799233">
        <ele>2566.0</ele>
        <time>2013-07-03T13:18:24Z</time>
      </trkpt>
      <trkpt lat="40.025067" lon="-4.799183">
        <ele>2565.0</ele>
        <time>2013-07-03T13:18:25Z</time>
      </trkpt>
      <trkpt lat="40.024900" lon="-4.799150">
        <ele>2563.0</ele>
        <time>2013-07-03T13:18:26Z</time>
      </trkpt>
      <trkpt lat="40.024733" lon="-4.799100">
        <ele>2560.0</ele>
        <time>2013-07-03T13:18:27Z</time>
      </trkpt>
      <trkpt lat="40.024550" lon="-4.799067">
        <ele>2556.0</ele>
        <time>2013-07-03T13:18:28Z</time>
      </trkpt>
      <trkpt lat="40.024367" lon="-4.799033">
        <ele>2553.0</ele>
        <time>2013-07-03T13:18:29Z</time>
      </trkpt>
      <trkpt lat="40.024183" lon="-4.799000">
        <ele>2552.0</ele>
        <time>2013-07-03T13:18:30Z</time>
      </trkpt>
      <trkpt lat="40.024000" lon="-4.798967">
        <ele>2550.0</ele>
        <time>2013-07-03T13:18:31Z</time>
      </trkpt>
      <trkpt lat="40.023817" lon="-4.798933">
        <ele>2549.0</ele>
        <time>2013-07-03T13:18:32Z</time>
      </trkpt>
      <trkpt lat="40.023650" lon="-4.798900">
        <ele>2549.0</ele>
        <time>2013-07-03T13:18:33Z</time>
      </trkpt>
      <trkpt lat="40.023483" lon="-4.798850">
        <ele>2548.0</ele>
        <time>2013-07-03T13:18:34Z</time>
      </trkpt>
      <trkpt lat="40.023317" lon="-4.798817">
        <ele>2547.0</ele>
        <time>2013-07-03T13:18:35Z</time>
      </trkpt>
      <trkpt lat="40.023167" lon="-4.798767">
        <ele>2546.0</ele>
        <time>2013-07-03T13:18:36Z</time>
      </trkpt>
      <trkpt lat="40.022983" lon="-4.798733">
        <ele>2544.0</ele>
        <time>2013-07-03T13:18:37Z</time>
      </trkpt>
      <trkpt lat="40.022817" lon="-4.798683">
        <ele>2542.0</ele>
        <time>2013-07-03T13:18:38Z</time>
      </trkpt>
      <trkpt lat="40.022633" lon="-4.798650">
        <ele>2541.0</ele>
        <time>2013-07-03T13:18:39Z</time>
      </trkpt>
      <trkpt lat="40.022467" lon="-4.798600">
        <ele>2540.0</ele>
        <time>2013-07-03T13:18:40Z</time>
      </trkpt>
      <trkpt lat="40.022283" lon="-4.798550">
        <ele>2539.0</ele>
        <time>2013-07-03T13:18:41Z</time>
      </trkpt>
      <trkpt lat="40.022117" lon="-4.798500">
        <ele>2539.0</ele>
        <time>2013-07-03T13:18:42Z</time>
      </trkpt>
      <trkpt lat="40.021933" lon="-4.798433">
        <ele>2539.0</ele>
        <time>2013-07-03T13:18:43Z</time>
      </trkpt>
      <trkpt lat="40.021783" lon="-4.798383">
        <ele>2538.0</ele>
        <time>2013-07-03T13:18:44Z</time>
      </trkpt>
      <trkpt lat="40.021617" lon="-4.798317">
        <ele>2536.0</ele>
        <time>2013-07-03T13:18:45Z</time>
      </trkpt>
      <trkpt lat="40.021450" lon="-4.798267">
        <ele>2535.0</ele>
        <time>2013-07-03T13:18:46Z</time>
      </trkpt>
      <trkpt lat="40.021283" lon="-4.798200">
        <ele>2534.0</ele>
        <time>2013-07-03T13:18:47Z</time>
      </trkpt>
      <trkpt lat="40.021133" lon="-4.798133">
        <ele>2533.0</ele>
        <time>2013-07-03T13:18:48Z</time>
      </trkpt>
      <trkpt lat="40.020967" lon="-4.798067">
        <ele>2532.0</ele>
        <time>2013-07-03T13:18:49Z</time>
      </trkpt>
      <trkpt lat="40.020833" lon="-4.798017">
        <ele>2531.0</ele>
        <time>2013-07-03T13:18:50Z</time>
      </trkpt>
      <trkpt lat="40.020700" lon="-4.797983">
        <ele>2529.0</ele>
        <time>2013-07-03T13:18:51Z</time>
      </trkpt>
      <trkpt lat="40.020550" lon="-4.797933">
        <ele>2527.0</ele>
        <time>2013-07-03T13:18:52Z</time>
      </trkpt>
      <trkpt lat="40.020383" lon="-4.797900">
        <ele>2524.0</ele>
        <time>2013-07-03T13:18:53Z</time>
      </trkpt>
      <trkpt lat="40.020217" lon="-4.797850">
        <ele>2523.0</ele>
        <time>2013-07-03T13:18:54Z</time>
      </trkpt>
      <trkpt lat="40.020050" lon="-4.797800">
        <ele>2522.0</ele>
        <time>2013-07-03T13:18:55Z</time>
      </trkpt>
      <trkpt lat="40.019900" lon="-4.797733">
        <ele>2521.0</ele>
        <time>2013-07-03T13:18:56Z</time>
      </trkpt>
      <trkpt lat="40.019750" lon="-4.797667">
        <ele>2520.0</ele>
        <time>2013-07-03T13:18:57Z</time>
      </trkpt>
      <trkpt lat="40.019583" lon="-4.797617">
        <ele>2518.0</ele>
        <time>2013-07-03T13:18:58Z</time>
      </trkpt>
      <trkpt lat="40.019417" lon="-4.797550">
        <ele>2516.0</ele>
        <time>2013-07-03T13:18:59Z</time>
      </trkpt>
      <trkpt lat="40.019250" lon="-4.797483">
        <ele>2513.0</ele>
        <time>2013-07-03T13:19:00Z</time>
      </trkpt>
      <trkpt lat="40.019083" lon="-4.797417">
        <ele>2512.0</ele>
        <time>2013-07-03T13:19:01Z</time>
      </trkpt>
      <trkpt lat="40.018917" lon="-4.797333">
        <ele>2510.0</ele>
        <time>2013-07-03T13:19:02Z</time>
      </trkpt>
      <trkpt lat="40.018733" lon="-4.797267">
        <ele>2508.0</ele>
        <time>2013-07-03T13:19:03Z</time>
      </trkpt>
      <trkpt lat="40.018567" lon="-4.797167">
        <ele>2506.0</ele>
        <time>2013-07-03T13:19:04Z</time>
      </trkpt>
      <trkpt lat="40.018383" lon="-4.797100">
        <ele>2508.0</ele>
        <time>2013-07-03T13:19:05Z</time>
      </trkpt>
      <trkpt lat="40.018217" lon="-4.797017">
        <ele>2509.0</ele>
        <time>2013-07-03T13:19:06Z</time>
      </trkpt>
      <trkpt lat="40.018050" lon="-4.796950">
        <ele>2511.0</ele>
        <time>2013-07-03T13:19:07Z</time>
      </trkpt>
      <trkpt lat="40.017900" lon="-4.796883">
        <ele>2512.0</ele>
        <time>2013-07-03T13:19:08Z</time>
      </trkpt>
      <trkpt lat="40.017750" lon="-4.796817">
        <ele>2513.0</ele>
        <time>2013-07-03T13:19:09Z</time>
      </trkpt>
      <trkpt lat="40.017600" lon="-4.796767">
        <ele>2515.0</ele>
        <time>2013-07-03T13:19:10Z</time>
      </trkpt>
      <trkpt lat="40.017450" lon="-4.796700">
        <ele>2517.0</ele>
        <time>2013-07-03T13:19:11Z</time>
      </trkpt>
      <trkpt lat="40.017333" lon="-4.796667">
        <ele>2519.0</ele>
        <time>2013-07-03T13:19:12Z</time>
      </trkpt>
      <trkpt lat="40.017200" lon="-4.796633">
        <ele>2520.0</ele>
        <time>2013-07-03T13:19:13Z</time>
      </trkpt>
      <trkpt lat="40.017083" lon="-4.796600">
        <ele>2521.0</ele>
        <time>2013-07-03T13:19:14Z</time>
      </trkpt>
      <trkpt lat="40.016950" lon="-4.796583">
        <ele>2522.0</ele>
        <time>2013-07-03T13:19:15Z</time>
      </trkpt>
      <trkpt lat="40.016817" lon="-4.796567">
        <ele>2523.0</ele>
        <time>2013-07-03T13:19:16Z</time>
      </trkpt>
      <trkpt lat="40.016683" lon="-4.796567">
        <ele>2524.0</ele>
        <time>2013-07-03T13:19:17Z</time>
      </trkpt>
      <trkpt lat="40.016583" lon="-4.796600">
        <ele>2524.0</ele>
        <time>2013-07-03T13:19:18Z</time>
      </trkpt>
      <trkpt lat="40.016483" lon="-4.796633">
        <ele>2524.0</ele>
        <time>2013-07-03T13:19:19Z</time>
      </trkpt>
      <trkpt lat="40.016383" lon="-4.796683">
        <ele>2524.0</ele>
        <time>2013-07-03T13:19:20Z</time>
      </trkpt>
      <trkpt lat="40.016300" lon="-4.796750">
        <ele>2524.0</ele>
        <time>2013-07-03T13:19:21Z</time>
      </trkpt>
      <trkpt lat="40.016233" lon="-4.796817">
        <ele>2524.0</ele>
        <time>2013-07-03T13:19:22Z</time>
      </trkpt>
      <trkpt lat="40.016183" lon="-4.796900">
        <ele>2524.0</ele>
        <time>2013-07-03T13:19:23Z</time>
      </trkpt>
      <trkpt lat="40.016150" lon="-4.796983">
        <ele>2524.0</ele>
        <time>2013-07-03T13:19:24Z</time>
      </trkpt>
      <trkpt lat="40.016150" lon="-4.797050">
        <ele>2524.0</ele>
        <time>2013-07-03T13:19:25Z</time>
      </trkpt>
      <trkpt lat="40.016150" lon="-4.797100">
        <ele>2525.0</ele>
        <time>2013-07-03T13:19:26Z</time>
      </trkpt>
      <trkpt lat="40.016167" lon="-4.797150">
        <ele>2527.0</ele>
        <time>2013-07-03T13:19:27Z</time>
      </trkpt>
      <trkpt lat="40.016183" lon="-4.797167">
        <ele>2526.0</ele>
        <time>2013-07-03T13:19:28Z</time>
      </trkpt>
      <trkpt lat="40.016183" lon="-4.797183">
        <ele>2527.0</ele>
        <time>2013-07-03T13:19:29Z</time>
      </trkpt>
      <trkpt lat="40.016217" lon="-4.797167">
        <ele>2528.0</ele>
        <time>2013-07-03T13:19:30Z</time>
      </trkpt>
      <trkpt lat="40.016233" lon="-4.797150">
        <ele>2530.0</ele>
        <time>2013-07-03T13:19:31Z</time>
      </trkpt>
      <trkpt lat="40.016267" lon="-4.797067">
        <ele>2532.0</ele>
        <time>2013-07-03T13:19:32Z</time>
      </trkpt>
      <trkpt lat="40.016267" lon="-4.796967">
        <ele>2532.0</ele>
        <time>2013-07-03T13:19:33Z</time>
      </trkpt>
      <trkpt lat="40.016250" lon="-4.796817">
        <ele>2534.0</ele>
        <time>2013-07-03T13:19:34Z</time>
      </trkpt>
      <trkpt lat="40.016233" lon="-4.796683">
        <ele>2535.0</ele>
        <time>2013-07-03T13:19:35Z</time>
      </trkpt>
      <trkpt lat="40.016183" lon="-4.796550">
        <ele>2537.0</ele>
        <time>2013-07-03T13:19:36Z</time>
      </trkpt>
      <trkpt lat="40.016117" lon="-4.796433">
        <ele>2540.0</ele>
        <time>2013-07-03T13:19:37Z</time>
      </trkpt>
      <trkpt lat="40.016033" lon="-4.796317">
        <ele>2542.0</ele>
        <time>2013-07-03T13:19:38Z</time>
      </trkpt>
      <trkpt lat="40.015950" lon="-4.796200">
        <ele>2544.0</ele>
        <time>2013-07-03T13:19:39Z</time>
      </trkpt>
      <trkpt lat="40.015867" lon="-4.796117">
        <ele>2546.0</ele>
        <time>2013-07-03T13:19:40Z</time>
      </trkpt>
      <trkpt lat="40.015750" lon="-4.796033">
        <ele>2548.0</ele>
        <time>2013-07-03T13:19:41Z</time>
      </trkpt>
      <trkpt lat="40.015650" lon="-4.795967">
        <ele>2549.0</ele>
        <time>2013-07-03T13:19:42Z</time>
      </trkpt>
      <trkpt lat="40.015517" lon="-4.795917">
        <ele>2550.0</ele>
        <time>2013-07-03T13:19:43Z</time>
      </trkpt>
      <trkpt lat="40.015400" lon="-4.795900">
        <ele>2550.0</ele>
        <time>2013-07-03T13:19:44Z</time>
      </trkpt>
      <trkpt lat="40.015300" lon="-4.795883">
        <ele>2551.0</ele>
        <time>2013-07-03T13:19:45Z</time>
      </trkpt>
      <trkpt lat="40.015200" lon="-4.795900">
        <ele>2552.0</ele>
        <time>2013-07-03T13:19:46Z</time>
      </trkpt>
      <trkpt lat="40.015117" lon="-4.795900">
        <ele>2553.0</ele>
        <time>2013-07-03T13:19:47Z</time>
      </trkpt>
      <trkpt lat="40.015017" lon="-4.795917">
        <ele>2553.0</ele>
        <time>2013-07-03T13:19:48Z</time>
      </trkpt>
      <trkpt lat="40.014933" lon="-4.795967">
        <ele>2553.0</ele>
        <time>2013-07-03T13:19:49Z</time>
      </trkpt>
      <trkpt lat="40.014867" lon="-4.796050">
        <ele>2553.0</ele>
        <time>2013-07-03T13:19:50Z</time>
      </trkpt>
      <trkpt lat="40.014800" lon="-4.796133">
        <ele>2553.0</ele>
        <time>2013-07-03T13:19:51Z</time>
      </trkpt>
      <trkpt lat="40.014767" lon="-4.796217">
        <ele>2554.0</ele>
        <time>2013-07-03T13:19:52Z</time>
      </trkpt>
      <trkpt lat="40.014717" lon="-4.796283">
        <ele>2555.0</ele>
        <time>2013-07-03T13:19:53Z</time>
      </trkpt>
      <trkpt lat="40.014683" lon="-4.796367">
        <ele>2555.0</ele>
        <time>2013-07-03T13:19:54Z</time>
      </trkpt>
      <trkpt lat="40.014650" lon="-4.796417">
        <ele>2555.0</ele>
        <time>2013-07-03T13:19:55Z</time>
      </trkpt>
      <trkpt lat="40.014633" lon="-4.796500">
        <ele>2555.0</ele>
        <time>2013-07-03T13:19:56Z</time>
      </trkpt>
      <trkpt lat="40.014617" lon="-4.796567">
        <ele>2555.0</ele>
        <time>2013-07-03T13:19:57Z</time>
      </trkpt>
      <trkpt lat="40.014633" lon="-4.796617">
        <ele>2555.0</ele>
        <time>2013-07-03T13:19:58Z</time>
      </trkpt>
      <trkpt lat="40.014667" lon="-4.796650">
        <ele>2555.0</ele>
        <time>2013-07-03T13:19:59Z</time>
      </trkpt>
      <trkpt lat="40.014700" lon="-4.796650">
        <ele>2557.0</ele>
        <time>2013-07-03T13:20:00Z</time>
      </trkpt>
      <trkpt lat="40.014733" lon="-4.796633">
        <ele>2558.0</ele>
        <time>2013-07-03T13:20:01Z</time>
      </trkpt>
      <trkpt lat="40.014750" lon="-4.796600">
        <ele>2558.0</ele>
        <time>2013-07-03T13:20:02Z</time>
      </trkpt>
      <trkpt lat="40.014783" lon="-4.796533">
        <ele>2559.0</ele>
        <time>2013-07-03T13:20:03Z</time>
      </trkpt>
      <trkpt lat="40.014800" lon="-4.796450">
        <ele>2559.0</ele>
        <time>2013-07-03T13:20:04Z</time>
      </trkpt>
      <trkpt lat="40.014817" lon="-4.796333">
        <ele>2560.0</ele>
        <time>2013-07-03T13:20:05Z</time>
      </trkpt>
      <trkpt lat="40.014800" lon="-4.796217">
        <ele>2560.0</ele>
        <time>2013-07-03T13:20:06Z</time>
      </trkpt>
      <trkpt lat="40.014750" lon="-4.796083">
        <ele>2561.0</ele>
        <time>2013-07-03T13:20:07Z</time>
      </trkpt>
      <trkpt lat="40.014683" lon="-4.795950">
        <ele>2561.0</ele>
        <time>2013-07-03T13:20:08Z</time>
      </trkpt>
      <trkpt lat="40.014600" lon="-4.795833">
        <ele>2562.0</ele>
        <time>2013-07-03T13:20:09Z</time>
      </trkpt>
      <trkpt lat="40.014517" lon="-4.795733">
        <ele>2563.0</ele>
        <time>2013-07-03T13:20:10Z</time>
      </trkpt>
      <trkpt lat="40.014433" lon="-4.795633">
        <ele>2564.0</ele>
        <time>2013-07-03T13:20:11Z</time>
      </trkpt>
      <trkpt lat="40.014350" lon="-4.795550">
        <ele>2564.0</ele>
        <time>2013-07-03T13:20:12Z</time>
      </trkpt>
      <trkpt lat="40.014250" lon="-4.795467">
        <ele>2564.0</ele>
        <time>2013-07-03T13:20:13Z</time>
      </trkpt>
      <trkpt lat="40.014150" lon="-4.795383">
        <ele>2565.0</ele>
        <time>2013-07-03T13:20:14Z</time>
      </trkpt>
      <trkpt lat="40.014033" lon="-4.795317">
        <ele>2566.0</ele>
        <time>2013-07-03T13:20:15Z</time>
      </trkpt>
      <trkpt lat="40.013950" lon="-4.795267">
        <ele>2567.0</ele>
        <time>2013-07-03T13:20:16Z</time>
      </trkpt>
      <trkpt lat="40.013867" lon="-4.795233">
        <ele>2568.0</ele>
        <time>2013-07-03T13:20:17Z</time>
      </trkpt>
      <trkpt lat="40.013767" lon="-4.795183">
        <ele>2568.0</ele>
        <time>2013-07-03T13:20:18Z</time>
      </trkpt>
      <trkpt lat="40.013667" lon="-4.795133">
        <ele>2568.0</ele>
        <time>2013-07-03T13:20:19Z</time>
      </trkpt>
      <trkpt lat="40.013567" lon="-4.795067">
        <ele>2567.0</ele>
        <time>2013-07-03T13:20:20Z</time>
      </trkpt>
      <trkpt lat="40.013433" lon="-4.795017">
        <ele>2566.0</ele>
        <time>2013-07-03T13:20:21Z</time>
      </trkpt>
      <trkpt lat="40.013317" lon="-4.794967">
        <ele>2566.0</ele>
        <time>2013-07-03T13:20:22Z</time>
      </trkpt>
      <trkpt lat="40.013183" lon="-4.794917">
        <ele>2565.0</ele>
        <time>2013-07-03T13:20:23Z</time>
      </trkpt>
      <trkpt lat="40.013050" lon="-4.794883">
        <ele>2564.0</ele>
        <time>2013-07-03T13:20:24Z</time>
      </trkpt>
      <trkpt lat="40.012917" lon="-4.794867">
        <ele>2564.0</ele>
        <time>2013-07-03T13:20:25Z</time>
      </trkpt>
      <trkpt lat="40.012767" lon="-4.794850">
        <ele>2563.0</ele>
        <time>2013-07-03T13:20:26Z</time>
      </trkpt>
      <trkpt lat="40.012650" lon="-4.794833">
        <ele>2563.0</ele>
        <time>2013-07-03T13:20:27Z</time>
      </trkpt>
      <trkpt lat="40.012517" lon="-4.794800">
        <ele>2563.0</ele>
        <time>2013-07-03T13:20:28Z</time>
      </trkpt>
      <trkpt lat="40.012417" lon="-4.794783">
        <ele>2563.0</ele>
        <time>2013-07-03T13:20:29Z</time>
      </trkpt>
      <trkpt lat="40.012283" lon="-4.794767">
        <ele>2561.0</ele>
        <time>2013-07-03T13:20:30Z</time>
      </trkpt>
      <trkpt lat="40.012150" lon="-4.794733">
        <ele>2559.0</ele>
        <time>2013-07-03T13:20:31Z</time>
      </trkpt>
      <trkpt lat="40.012017" lon="-4.794717">
        <ele>2556.0</ele>
        <time>2013-07-03T13:20:32Z</time>
      </trkpt>
      <trkpt lat="40.011867" lon="-4.794717">
        <ele>2553.0</ele>
        <time>2013-07-03T13:20:33Z</time>
      </trkpt>
      <trkpt lat="40.011717" lon="-4.794733">
        <ele>2552.0</ele>
        <time>2013-07-03T13:20:34Z</time>
      </trkpt>
      <trkpt lat="40.011583" lon="-4.794767">
        <ele>2551.0</ele>
        <time>2013-07-03T13:20:35Z</time>
      </trkpt>
      <trkpt lat="40.011450" lon="-4.794800">
        <ele>2551.0</ele>
        <time>2013-07-03T13:20:36Z</time>
      </trkpt>
      <trkpt lat="40.011317" lon="-4.794817">
        <ele>2550.0</ele>
        <time>2013-07-03T13:20:37Z</time>
      </trkpt>
      <trkpt lat="40.011200" lon="-4.794833">
        <ele>2550.0</ele>
        <time>2013-07-03T13:20:38Z</time>
      </trkpt>
      <trkpt lat="40.011067" lon="-4.794883">
        <ele>2549.0</ele>
        <time>2013-07-03T13:20:39Z</time>
      </trkpt>
      <trkpt lat="40.010950" lon="-4.794933">
        <ele>2548.0</ele>
        <time>2013-07-03T13:20:40Z</time>
      </trkpt>
      <trkpt lat="40.010833" lon="-4.794967">
        <ele>2547.0</ele>
        <time>2013-07-03T13:20:41Z</time>
      </trkpt>
      <trkpt lat="40.010700" lon="-4.795000">
        <ele>2546.0</ele>
        <time>2013-07-03T13:20:42Z</time>
      </trkpt>
      <trkpt lat="40.010567" lon="-4.795033">
        <ele>2545.0</ele>
        <time>2013-07-03T13:20:43Z</time>
      </trkpt>
      <trkpt lat="40.010433" lon="-4.795067">
        <ele>2545.0</ele>
        <time>2013-07-03T13:20:44Z</time>
      </trkpt>
      <trkpt lat="40.010300" lon="-4.795117">
        <ele>2545.0</ele>
        <time>2013-07-03T13:20:45Z</time>
      </trkpt>
      <trkpt lat="40.010183" lon="-4.795133">
        <ele>2545.0</ele>
        <time>2013-07-03T13:20:46Z</time>
      </trkpt>
      <trkpt lat="40.010033" lon="-4.795167">
        <ele>2545.0</ele>
        <time>2013-07-03T13:20:47Z</time>
      </trkpt>
      <trkpt lat="40.009900" lon="-4.795183">
        <ele>2544.0</ele>
        <time>2013-07-03T13:20:48Z</time>
      </trkpt>
      <trkpt lat="40.009783" lon="-4.795200">
        <ele>2543.0</ele>
        <time>2013-07-03T13:20:49Z</time>
      </trkpt>
      <trkpt lat="40.009650" lon="-4.795233">
        <ele>2542.0</ele>
        <time>2013-07-03T13:20:50Z</time>
      </trkpt>
      <trkpt lat="40.009517" lon="-4.795250">
        <ele>2541.0</ele>
        <time>2013-07-03T13:20:51Z</time>
      </trkpt>
      <trkpt lat="40.009383" lon="-4.795267">
        <ele>2540.0</ele>
        <time>2013-07-03T13:20:52Z</time>
      </trkpt>
      <trkpt lat="40.009233" lon="-4.795267">
        <ele>2538.0</ele>
        <time>2013-07-03T13:20:53Z</time>
      </trkpt>
      <trkpt lat="40.009100" lon="-4.795300">
        <ele>2537.0</ele>
        <time>2013-07-03T13:20:54Z</time>
      </trkpt>
      <trkpt lat="40.008967" lon="-4.795333">
        <ele>2535.0</ele>
        <time>2013-07-03T13:20:55Z</time>
      </trkpt>
      <trkpt lat="40.008833" lon="-4.795383">
        <ele>2534.0</ele>
        <time>2013-07-03T13:20:56Z</time>
      </trkpt>
      <trkpt lat="40.008683" lon="-4.795400">
        <ele>2533.0</ele>
        <time>2013-07-03T13:20:57Z</time>
      </trkpt>
      <trkpt lat="40.008533" lon="-4.795417">
        <ele>2532.0</ele>
        <time>2013-07-03T13:20:58Z</time>
      </trkpt>
      <trkpt lat="40.008400" lon="-4.795450">
        <ele>2530.0</ele>
        <time>2013-07-03T13:20:59Z</time>
      </trkpt>
      <trkpt lat="40.008250" lon="-4.795483">
        <ele>2528.0</ele>
        <time>2013-07-03T13:21:00Z</time>
      </trkpt>
      <trkpt lat="40.008117" lon="-4.795533">
        <ele>2526.0</ele>
        <time>2013-07-03T13:21:01Z</time>
      </trkpt>
      <trkpt lat="40.007967" lon="-4.795567">
        <ele>2524.0</ele>
        <time>2013-07-03T13:21:02Z</time>
      </trkpt>
      <trkpt lat="40.007833" lon="-4.795617">
        <ele>2522.0</ele>
        <time>2013-07-03T13:21:03Z</time>
      </trkpt>
      <trkpt lat="40.007700" lon="-4.795667">
        <ele>2520.0</ele>
        <time>2013-07-03T13:21:04Z</time>
      </trkpt>
      <trkpt lat="40.007567" lon="-4.795733">
        <ele>2517.0</ele>
        <time>2013-07-03T13:21:05Z</time>
      </trkpt>
      <trkpt lat="40.007433" lon="-4.795817">
        <ele>2515.0</ele>
        <time>2013-07-03T13:21:06Z</time>
      </trkpt>
      <trkpt lat="40.007300" lon="-4.795900">
        <ele>2513.0</ele>
        <time>2013-07-03T13:21:07Z</time>
      </trkpt>
      <trkpt lat="40.007183" lon="-4.795950">
        <ele>2511.0</ele>
        <time>2013-07-03T13:21:08Z</time>
      </trkpt>
      <trkpt lat="40.007050" lon="-4.796000">
        <ele>2510.0</ele>
        <time>2013-07-03T13:21:09Z</time>
      </trkpt>
      <trkpt lat="40.006917" lon="-4.796033">
        <ele>2508.0</ele>
        <time>2013-07-03T13:21:10Z</time>
      </trkpt>
      <trkpt lat="40.006800" lon="-4.796067">
        <ele>2506.0</ele>
        <time>2013-07-03T13:21:11Z</time>
      </trkpt>
      <trkpt lat="40.006683" lon="-4.796117">
        <ele>2503.0</ele>
        <time>2013-07-03T13:21:12Z</time>
      </trkpt>
      <trkpt lat="40.006567" lon="-4.796167">
        <ele>2500.0</ele>
        <time>2013-07-03T13:21:13Z</time>
      </trkpt>
      <trkpt lat="40.006433" lon="-4.796217">
        <ele>2498.0</ele>
        <time>2013-07-03T13:21:14Z</time>
      </trkpt>
      <trkpt lat="40.006300" lon="-4.796267">
        <ele>2495.0</ele>
        <time>2013-07-03T13:21:15Z</time>
      </trkpt>
      <trkpt lat="40.006183" lon="-4.796317">
        <ele>2494.0</ele>
        <time>2013-07-03T13:21:16Z</time>
      </trkpt>
      <trkpt lat="40.006050" lon="-4.796367">
        <ele>2493.0</ele>
        <time>2013-07-03T13:21:17Z</time>
      </trkpt>
      <trkpt lat="40.005917" lon="-4.796400">
        <ele>2491.0</ele>
        <time>2013-07-03T13:21:18Z</time>
      </trkpt>
      <trkpt lat="40.005783" lon="-4.796433">
        <ele>2490.0</ele>
        <time>2013-07-03T13:21:19Z</time>
      </trkpt>
      <trkpt lat="40.005633" lon="-4.796467">
        <ele>2488.0</ele>
        <time>2013-07-03T13:21:20Z</time>
      </trkpt>
      <trkpt lat="40.005483" lon="-4.796483">
        <ele>2487.0</ele>
        <time>2013-07-03T13:21:21Z</time>
      </trkpt>
      <trkpt lat="40.005350" lon="-4.796517">
        <ele>2486.0</ele>
        <time>2013-07-03T13:21:22Z</time>
      </trkpt>
      <trkpt lat="40.005217" lon="-4.796567">
        <ele>2484.0</ele>
        <time>2013-07-03T13:21:23Z</time>
      </trkpt>
      <trkpt lat="40.005083" lon="-4.796617">
        <ele>2482.0</ele>
        <time>2013-07-03T13:21:24Z</time>
      </trkpt>
      <trkpt lat="40.004950" lon="-4.796667">
        <ele>2480.0</ele>
        <time>2013-07-03T13:21:25Z</time>
      </trkpt>
      <trkpt lat="40.004833" lon="-4.796733">
        <ele>2478.0</ele>
        <time>2013-07-03T13:21:26Z</time>
      </trkpt>
      <trkpt lat="40.004717" lon="-4.796800">
        <ele>2476.0</ele>
        <time>2013-07-03T13:21:27Z</time>
      </trkpt>
      <trkpt lat="40.004617" lon="-4.796883">
        <ele>2473.0</ele>
        <time>2013-07-03T13:21:28Z</time>
      </trkpt>
      <trkpt lat="40.004533" lon="-4.796967">
        <ele>2471.0</ele>
        <time>2013-07-03T13:21:29Z</time>
      </trkpt>
      <trkpt lat="40.004467" lon="-4.797050">
        <ele>2468.0</ele>
        <time>2013-07-03T13:21:30Z</time>
      </trkpt>
      <trkpt lat="40.004383" lon="-4.797133">
        <ele>2466.0</ele>
        <time>2013-07-03T13:21:31Z</time>
      </trkpt>
      <trkpt lat="40.004300" lon="-4.797233">
        <ele>2464.0</ele>
        <time>2013-07-03T13:21:32Z</time>
      </trkpt>
      <trkpt lat="40.004217" lon="-4.797317">
        <ele>2462.0</ele>
        <time>2013-07-03T13:21:33Z</time>
      </trkpt>
      <trkpt lat="40.004117" lon="-4.797400">
        <ele>2460.0</ele>
        <time>2013-07-03T13:21:34Z</time>
      </trkpt>
      <trkpt lat="40.004050" lon="-4.797467">
        <ele>2458.0</ele>
        <time>2013-07-03T13:21:35Z</time>
      </trkpt>
      <trkpt lat="40.003967" lon="-4.797550">
        <ele>2455.0</ele>
        <time>2013-07-03T13:21:36Z</time>
      </trkpt>
      <trkpt lat="40.003900" lon="-4.797650">
        <ele>2453.0</ele>
        <time>2013-07-03T13:21:37Z</time>
      </trkpt>
      <trkpt lat="40.003850" lon="-4.797750">
        <ele>2451.0</ele>
        <time>2013-07-03T13:21:38Z</time>
      </trkpt>
      <trkpt lat="40.003783" lon="-4.797850">
        <ele>2449.0</ele>
        <time>2013-07-03T13:21:39Z</time>
      </trkpt>
      <trkpt lat="40.003717" lon="-4.797933">
        <ele>2448.0</ele>
        <time>2013-07-03T13:21:40Z</time>
      </trkpt>
      <trkpt lat="40.003667" lon="-4.798033">
        <ele>2447.0</ele>
        <time>2013-07-03T13:21:41Z</time>
      </trkpt>
      <trkpt lat="40.003617" lon="-4.798117">
        <ele>2445.0</ele>
        <time>2013-07-03T13:21:42Z</time>
      </trkpt>
      <trkpt lat="40.003567" lon="-4.798217">
        <ele>2444.0</ele>
        <time>2013-07-03T13:21:43Z</time>
      </trkpt>
      <trkpt lat="40.003517" lon="-4.798317">
        <ele>2442.0</ele>
        <time>2013-07-03T13:21:44Z</time>
      </trkpt>
      <trkpt lat="40.003450" lon="-4.798417">
        <ele>2441.0</ele>
        <time>2013-07-03T13:21:45Z</time>
      </trkpt>
      <trkpt lat="40.003367" lon="-4.798483">
        <ele>2439.0</ele>
        <time>2013-07-03T13:21:46Z</time>
      </trkpt>
      <trkpt lat="40.003283" lon="-4.798550">
        <ele>2438.0</ele>
        <time>2013-07-03T13:21:47Z</time>
      </trkpt>
      <trkpt lat="40.003200" lon="-4.798600">
        <ele>2436.0</ele>
        <time>2013-07-03T13:21:48Z</time>
      </trkpt>
      <trkpt lat="40.003100" lon="-4.798633">
        <ele>2435.0</ele>
        <time>2013-07-03T13:21:49Z</time>
      </trkpt>
      <trkpt lat="40.003000" lon="-4.798667">
        <ele>2433.0</ele>
        <time>2013-07-03T13:21:50Z</time>
      </trkpt>
      <trkpt lat="40.002883" lon="-4.798700">
        <ele>2430.0</ele>
        <time>2013-07-03T13:21:51Z</time>
      </trkpt>
      <trkpt lat="40.002767" lon="-4.798733">
        <ele>2427.0</ele>
        <time>2013-07-03T13:21:52Z</time>
      </trkpt>
      <trkpt lat="40.002650" lon="-4.798767">
        <ele>2425.0</ele>
        <time>2013-07-03T13:21:53Z</time>
      </trkpt>
      <trkpt lat="40.002533" lon="-4.798817">
        <ele>2423.0</ele>
        <time>2013-07-03T13:21:54Z</time>
      </trkpt>
      <trkpt lat="40.002417" lon="-4.798850">
        <ele>2421.0</ele>
        <time>2013-07-03T13:21:55Z</time>
      </trkpt>
      <trkpt lat="40.002317" lon="-4.798900">
        <ele>2419.0</ele>
        <time>2013-07-03T13:21:56Z</time>
      </trkpt>
      <trkpt lat="40.002233" lon="-4.798950">
        <ele>2417.0</ele>
        <time>2013-07-03T13:21:57Z</time>
      </trkpt>
      <trkpt lat="40.002133" lon="-4.799017">
        <ele>2414.0</ele>
        <time>2013-07-03T13:21:58Z</time>
      </trkpt>
      <trkpt lat="40.002050" lon="-4.799083">
        <ele>2411.0</ele>
        <time>2013-07-03T13:21:59Z</time>
      </trkpt>
      <trkpt lat="40.001950" lon="-4.799150">
        <ele>2409.0</ele>
        <time>2013-07-03T13:22:00Z</time>
      </trkpt>
      <trkpt lat="40.001883" lon="-4.799217">
        <ele>2408.0</ele>
        <time>2013-07-03T13:22:01Z</time>
      </trkpt>
      <trkpt lat="40.001800" lon="-4.799300">
        <ele>2408.0</ele>
        <time>2013-07-03T13:22:02Z</time>
      </trkpt>
      <trkpt lat="40.001750" lon="-4.799383">
        <ele>2406.0</ele>
        <time>2013-07-03T13:22:03Z</time>
      </trkpt>
      <trkpt lat="40.001683" lon="-4.799467">
        <ele>2404.0</ele>
        <time>2013-07-03T13:22:04Z</time>
      </trkpt>
      <trkpt lat="40.001633" lon="-4.799550">
        <ele>2402.0</ele>
        <time>2013-07-03T13:22:05Z</time>
      </trkpt>
      <trkpt lat="40.001567" lon="-4.799650">
        <ele>2400.0</ele>
        <time>2013-07-03T13:22:06Z</time>
      </trkpt>
      <trkpt lat="40.001500" lon="-4.799750">
        <ele>2397.0</ele>
        <time>2013-07-03T13:22:07Z</time>
      </trkpt>
      <trkpt lat="40.001433" lon="-4.799850">
        <ele>2396.0</ele>
        <time>2013-07-03T13:22:08Z</time>
      </trkpt>
      <trkpt lat="40.001383" lon="-4.799950">
        <ele>2394.0</ele>
        <time>2013-07-03T13:22:09Z</time>
      </trkpt>
      <trkpt lat="40.001317" lon="-4.800033">
        <ele>2393.0</ele>
        <time>2013-07-03T13:22:10Z</time>
      </trkpt>
      <trkpt lat="40.001267" lon="-4.800117">
        <ele>2391.0</ele>
        <time>2013-07-03T13:22:11Z</time>
      </trkpt>
      <trkpt lat="40.001217" lon="-4.800200">
        <ele>2389.0</ele>
        <time>2013-07-03T13:22:12Z</time>
      </trkpt>
      <trkpt lat="40.001167" lon="-4.800283">
        <ele>2386.0</ele>
        <time>2013-07-03T13:22:13Z</time>
      </trkpt>
      <trkpt lat="40.001117" lon="-4.800367">
        <ele>2382.0</ele>
        <time>2013-07-03T13:22:14Z</time>
      </trkpt>
      <trkpt lat="40.001067" lon="-4.800450">
        <ele>2379.0</ele>
        <time>2013-07-03T13:22:15Z</time>
      </trkpt>
      <trkpt lat="40.001000" lon="-4.800550">
        <ele>2377.0</ele>
        <time>2013-07-03T13:22:16Z</time>
      </trkpt>
      <trkpt lat="40.000950" lon="-4.800650">
        <ele>2374.0</ele>
        <time>2013-07-03T13:22:17Z</time>
      </trkpt>
      <trkpt lat="40.000900" lon="-4.800717">
        <ele>2372.0</ele>
        <time>2013-07-03T13:22:18Z</time>
      </trkpt>
      <trkpt lat="40.000850" lon="-4.800800">
        <ele>2371.0</ele>
        <time>2013-07-03T13:22:19Z</time>
      </trkpt>
      <trkpt lat="40.000800" lon="-4.800867">
        <ele>2369.0</ele>
        <time>2013-07-03T13:22:20Z</time>
      </trkpt>
      <trkpt lat="40.000767" lon="-4.800950">
        <ele>2367.0</ele>
        <time>2013-07-03T13:22:21Z</time>
      </trkpt>
      <trkpt lat="40.000717" lon="-4.801033">
        <ele>2365.0</ele>
        <time>2013-07-03T13:22:22Z</time>
      </trkpt>
      <trkpt lat="40.000667" lon="-4.801133">
        <ele>2363.0</ele>
        <time>2013-07-03T13:22:23Z</time>
      </trkpt>
      <trkpt lat="40.000617" lon="-4.801217">
        <ele>2361.0</ele>
        <time>2013-07-03T13:22:24Z</time>
      </trkpt>
      <trkpt lat="40.000567" lon="-4.801300">
        <ele>2360.0</ele>
        <time>2013-07-03T13:22:25Z</time>
      </trkpt>
      <trkpt lat="40.000500" lon="-4.801367">
        <ele>2358.0</ele>
        <time>2013-07-03T13:22:26Z</time>
      </trkpt>
      <trkpt lat="40.000467" lon="-4.801450">
        <ele>2361.0</ele>
        <time>2013-07-03T13:22:27Z</time>
      </trkpt>
      <trkpt lat="40.000417" lon="-4.801550">
        <ele>2360.0</ele>
        <time>2013-07-03T13:22:28Z</time>
      </trkpt>
      <trkpt lat="40.000383" lon="-4.801633">
        <ele>2359.0</ele>
        <time>2013-07-03T13:22:29Z</time>
      </trkpt>
      <trkpt lat="40.000350" lon="-4.801717">
        <ele>2358.0</ele>
        <time>2013-07-03T13:22:30Z</time>
      </trkpt>
      <trkpt lat="40.000317" lon="-4.801800">
        <ele>2357.0</ele>
        <time>2013-07-03T13:22:31Z</time>
      </trkpt>
      <trkpt lat="40.000300" lon="-4.801883">
        <ele>2355.0</ele>
        <time>2013-07-03T13:22:32Z</time>
      </trkpt>
      <trkpt lat="40.000267" lon="-4.801983">
        <ele>2354.0</ele>
        <time>2013-07-03T13:22:33Z</time>
      </trkpt>
      <trkpt lat="40.000250" lon="-4.802067">
        <ele>2353.0</ele>
        <time>2013-07-03T13:22:34Z</time>
      </trkpt>
      <trkpt lat="40.000217" lon="-4.802167">
        <ele>2352.0</ele>
        <time>2013-07-03T13:22:35Z</time>
      </trkpt>
      <trkpt lat="40.000183" lon="-4.802250">
        <ele>2351.0</ele>
        <time>2013-07-03T13:22:36Z</time>
      </trkpt>
      <trkpt lat="40.000150" lon="-4.802317">
        <ele>2346.0</ele>
        <time>2013-07-03T13:22:37Z</time>
      </trkpt>
      <trkpt lat="40.000117" lon="-4.802383">
        <ele>2344.0</ele>
        <time>2013-07-03T13:22:38Z</time>
      </trkpt>
      <trkpt lat="40.000050" lon="-4.802450">
        <ele>2342.0</ele>
        <time>2013-07-03T13:22:39Z</time>
      </trkpt>
      <trkpt lat="39.999967" lon="-4.802483">
        <ele>2338.0</ele>
        <time>2013-07-03T13:22:40Z</time>
      </trkpt>
      <trkpt lat="39.999833" lon="-4.802483">
        <ele>2334.0</ele>
        <time>2013-07-03T13:22:41Z</time>
      </trkpt>
      <trkpt lat="39.999683" lon="-4.802467">
        <ele>2330.0</ele>
        <time>2013-07-03T13:22:42Z</time>
      </trkpt>
      <trkpt lat="39.999517" lon="-4.802400">
        <ele>2328.0</ele>
        <time>2013-07-03T13:22:43Z</time>
      </trkpt>
      <trkpt lat="39.999367" lon="-4.802333">
        <ele>2328.0</ele>
        <time>2013-07-03T13:22:44Z</time>
      </trkpt>
      <trkpt lat="39.999233" lon="-4.802267">
        <ele>2331.0</ele>
        <time>2013-07-03T13:22:45Z</time>
      </trkpt>
      <trkpt lat="39.999100" lon="-4.802200">
        <ele>2330.0</ele>
        <time>2013-07-03T13:22:46Z</time>
      </trkpt>
      <trkpt lat="39.998983" lon="-4.802133">
        <ele>2328.0</ele>
        <time>2013-07-03T13:22:47Z</time>
      </trkpt>
      <trkpt lat="39.998850" lon="-4.802083">
        <ele>2326.0</ele>
        <time>2013-07-03T13:22:48Z</time>
      </trkpt>
      <trkpt lat="39.998717" lon="-4.802000">
        <ele>2323.0</ele>
        <time>2013-07-03T13:22:49Z</time>
      </trkpt>
      <trkpt lat="39.998583" lon="-4.801933">
        <ele>2320.0</ele>
        <time>2013-07-03T13:22:50Z</time>
      </trkpt>
      <trkpt lat="39.998450" lon="-4.801833">
        <ele>2317.0</ele>
        <time>2013-07-03T13:22:51Z</time>
      </trkpt>
      <trkpt lat="39.998300" lon="-4.801717">
        <ele>2315.0</ele>
        <time>2013-07-03T13:22:52Z</time>
      </trkpt>
      <trkpt lat="39.998183" lon="-4.801600">
        <ele>2314.0</ele>
        <time>2013-07-03T13:22:53Z</time>
      </trkpt>
      <trkpt lat="39.998067" lon="-4.801467">
        <ele>2313.0</ele>
        <time>2013-07-03T13:22:54Z</time>
      </trkpt>
      <trkpt lat="39.997950" lon="-4.801367">
        <ele>2312.0</ele>
        <time>2013-07-03T13:22:55Z</time>
      </trkpt>
      <trkpt lat="39.997867" lon="-4.801233">
        <ele>2311.0</ele>
        <time>2013-07-03T13:22:56Z</time>
      </trkpt>
      <trkpt lat="39.997767" lon="-4.801100">
        <ele>2308.0</ele>
        <time>2013-07-03T13:22:57Z</time>
      </trkpt>
      <trkpt lat="39.997667" lon="-4.800933">
        <ele>2306.0</ele>
        <time>2013-07-03T13:22:58Z</time>
      </trkpt>
      <trkpt lat="39.997583" lon="-4.800767">
        <ele>2305.0</ele>
        <time>2013-07-03T13:22:59Z</time>
      </trkpt>
      <trkpt lat="39.997483" lon="-4.800600">
        <ele>2305.0</ele>
        <time>2013-07-03T13:23:00Z</time>
      </trkpt>
      <trkpt lat="39.997400" lon="-4.800467">
        <ele>2305.0</ele>
        <time>2013-07-03T13:23:01Z</time>
      </trkpt>
      <trkpt lat="39.997317" lon="-4.800333">
        <ele>2304.0</ele>
        <time>2013-07-03T13:23:02Z</time>
      </trkpt>
      <trkpt lat="39.997250" lon="-4.800200">
        <ele>2302.0</ele>
        <time>2013-07-03T13:23:03Z</time>
      </trkpt>
      <trkpt lat="39.997167" lon="-4.800050">
        <ele>2299.0</ele>
        <time>2013-07-03T13:23:04Z</time>
      </trkpt>
      <trkpt lat="39.997067" lon="-4.799900">
        <ele>2297.0</ele>
        <time>2013-07-03T13:23:05Z</time>
      </trkpt>
      <trkpt lat="39.996967" lon="-4.799750">
        <ele>2295.0</ele>
        <time>2013-07-03T13:23:06Z</time>
      </trkpt>
      <trkpt lat="39.996867" lon="-4.799617">
        <ele>2294.0</ele>
        <time>2013-07-03T13:23:07Z</time>
      </trkpt>
      <trkpt lat="39.996767" lon="-4.799483">
        <ele>2293.0</ele>
        <time>2013-07-03T13:23:08Z</time>
      </trkpt>
      <trkpt lat="39.996667" lon="-4.799333">
        <ele>2292.0</ele>
        <time>2013-07-03T13:23:09Z</time>
      </trkpt>
      <trkpt lat="39.996567" lon="-4.799200">
        <ele>2291.0</ele>
        <time>2013-07-03T13:23:10Z</time>
      </trkpt>
      <trkpt lat="39.996483" lon="-4.799050">
        <ele>2289.0</ele>
        <time>2013-07-03T13:23:11Z</time>
      </trkpt>
      <trkpt lat="39.996400" lon="-4.798900">
        <ele>2288.0</ele>
        <time>2013-07-03T13:23:12Z</time>
      </trkpt>
      <trkpt lat="39.996317" lon="-4.798750">
        <ele>2287.0</ele>
        <time>2013-07-03T13:23:13Z</time>
      </trkpt>
      <trkpt lat="39.996250" lon="-4.798600">
        <ele>2285.0</ele>
        <time>2013-07-03T13:23:14Z</time>
      </trkpt>
      <trkpt lat="39.996167" lon="-4.798450">
        <ele>2283.0</ele>
        <time>2013-07-03T13:23:15Z</time>
      </trkpt>
      <trkpt lat="39.996083" lon="-4.798317">
        <ele>2281.0</ele>
        <time>2013-07-03T13:23:16Z</time>
      </trkpt>
      <trkpt lat="39.996017" lon="-4.798167">
        <ele>2278.0</ele>
        <time>2013-07-03T13:23:17Z</time>
      </trkpt>
      <trkpt lat="39.995933" lon="-4.798017">
        <ele>2276.0</ele>
        <time>2013-07-03T13:23:18Z</time>
      </trkpt>
      <trkpt lat="39.995867" lon="-4.797867">
        <ele>2274.0</ele>
        <time>2013-07-03T13:23:19Z</time>
      </trkpt>
      <trkpt lat="39.995800" lon="-4.797733">
        <ele>2271.0</ele>
        <time>2013-07-03T13:23:20Z</time>
      </trkpt>
      <trkpt lat="39.995700" lon="-4.797600">
        <ele>2269.0</ele>
        <time>2013-07-03T13:23:21Z</time>
      </trkpt>
      <trkpt lat="39.995617" lon="-4.797483">
        <ele>2267.0</ele>
        <time>2013-07-03T13:23:22Z</time>
      </trkpt>
      <trkpt lat="39.995550" lon="-4.797350">
        <ele>2265.0</ele>
        <time>2013-07-03T13:23:23Z</time>
      </trkpt>
      <trkpt lat="39.995467" lon="-4.797200">
        <ele>2262.0</ele>
        <time>2013-07-03T13:23:24Z</time>
      </trkpt>
      <trkpt lat="39.995400" lon="-4.797067">
        <ele>2259.0</ele>
        <time>2013-07-03T13:23:25Z</time>
      </trkpt>
      <trkpt lat="39.995317" lon="-4.796917">
        <ele>2256.0</ele>
        <time>2013-07-03T13:23:26Z</time>
      </trkpt>
      <trkpt lat="39.995233" lon="-4.796767">
        <ele>2254.0</ele>
        <time>2013-07-03T13:23:27Z</time>
      </trkpt>
      <trkpt lat="39.995150" lon="-4.796617">
        <ele>2253.0</ele>
        <time>2013-07-03T13:23:28Z</time>
      </trkpt>
      <trkpt lat="39.995083" lon="-4.796483">
        <ele>2251.0</ele>
        <time>2013-07-03T13:23:29Z</time>
      </trkpt>
      <trkpt lat="39.995017" lon="-4.796333">
        <ele>2249.0</ele>
        <time>2013-07-03T13:23:30Z</time>
      </trkpt>
      <trkpt lat="39.994950" lon="-4.796183">
        <ele>2248.0</ele>
        <time>2013-07-03T13:23:31Z</time>
      </trkpt>
      <trkpt lat="39.994900" lon="-4.796033">
        <ele>2249.0</ele>
        <time>2013-07-03T13:23:32Z</time>
      </trkpt>
      <trkpt lat="39.994833" lon="-4.795883">
        <ele>2249.0</ele>
        <time>2013-07-03T13:23:33Z</time>
      </trkpt>
      <trkpt lat="39.994783" lon="-4.795750">
        <ele>2250.0</ele>
        <time>2013-07-03T13:23:34Z</time>
      </trkpt>
      <trkpt lat="39.994733" lon="-4.795633">
        <ele>2250.0</ele>
        <time>2013-07-03T13:23:35Z</time>
      </trkpt>
      <trkpt lat="39.994683" lon="-4.795533">
        <ele>2251.0</ele>
        <time>2013-07-03T13:23:36Z</time>
      </trkpt>
      <trkpt lat="39.994633" lon="-4.795450">
        <ele>2251.0</ele>
        <time>2013-07-03T13:23:37Z</time>
      </trkpt>
      <trkpt lat="39.994567" lon="-4.795383">
        <ele>2250.0</ele>
        <time>2013-07-03T13:23:38Z</time>
      </trkpt>
      <trkpt lat="39.994517" lon="-4.795300">
        <ele>2248.0</ele>
        <time>2013-07-03T13:23:39Z</time>
      </trkpt>
      <trkpt lat="39.994450" lon="-4.795200">
        <ele>2246.0</ele>
        <time>2013-07-03T13:23:40Z</time>
      </trkpt>
      <trkpt lat="39.994383" lon="-4.795083">
        <ele>2244.0</ele>
        <time>2013-07-03T13:23:41Z</time>
      </trkpt>
      <trkpt lat="39.994333" lon="-4.794950">
        <ele>2242.0</ele>
        <time>2013-07-03T13:23:42Z</time>
      </trkpt>
      <trkpt lat="39.994267" lon="-4.794817">
        <ele>2240.0</ele>
        <time>2013-07-03T13:23:43Z</time>
      </trkpt>
      <trkpt lat="39.994217" lon="-4.794683">
        <ele>2240.0</ele>
        <time>2013-07-03T13:23:44Z</time>
      </trkpt>
      <trkpt lat="39.994167" lon="-4.794567">
        <ele>2239.0</ele>
        <time>2013-07-03T13:23:45Z</time>
      </trkpt>
      <trkpt lat="39.994117" lon="-4.794450">
        <ele>2237.0</ele>
        <time>2013-07-03T13:23:46Z</time>
      </trkpt>
      <trkpt lat="39.994067" lon="-4.794333">
        <ele>2235.0</ele>
        <time>2013-07-03T13:23:47Z</time>
      </trkpt>
      <trkpt lat="39.994017" lon="-4.794200">
        <ele>2233.0</ele>
        <time>2013-07-03T13:23:48Z</time>
      </trkpt>
      <trkpt lat="39.993950" lon="-4.794067">
        <ele>2231.0</ele>
        <time>2013-07-03T13:23:49Z</time>
      </trkpt>
      <trkpt lat="39.993900" lon="-4.793933">
        <ele>2228.0</ele>
        <time>2013-07-03T13:23:50Z</time>
      </trkpt>
      <trkpt lat="39.993850" lon="-4.793783">
        <ele>2227.0</ele>
        <time>2013-07-03T13:23:51Z</time>
      </trkpt>
      <trkpt lat="39.993817" lon="-4.793617">
        <ele>2227.0</ele>
        <time>2013-07-03T13:23:52Z</time>
      </trkpt>
      <trkpt lat="39.993800" lon="-4.793467">
        <ele>2228.0</ele>
        <time>2013-07-03T13:23:53Z</time>
      </trkpt>
      <trkpt lat="39.993783" lon="-4.793350">
        <ele>2229.0</ele>
        <time>2013-07-03T13:23:54Z</time>
      </trkpt>
      <trkpt lat="39.993750" lon="-4.793233">
        <ele>2230.0</ele>
        <time>2013-07-03T13:23:55Z</time>
      </trkpt>
      <trkpt lat="39.993717" lon="-4.793133">
        <ele>2231.0</ele>
        <time>2013-07-03T13:23:56Z</time>
      </trkpt>
      <trkpt lat="39.993700" lon="-4.793033">
        <ele>2231.0</ele>
        <time>2013-07-03T13:23:57Z</time>
      </trkpt>
      <trkpt lat="39.993683" lon="-4.792933">
        <ele>2231.0</ele>
        <time>2013-07-03T13:23:58Z</time>
      </trkpt>
      <trkpt lat="39.993683" lon="-4.792817">
        <ele>2230.0</ele>
        <time>2013-07-03T13:23:59Z</time>
      </trkpt>
      <trkpt lat="39.993683" lon="-4.792683">
        <ele>2229.0</ele>
        <time>2013-07-03T13:24:00Z</time>
      </trkpt>
      <trkpt lat="39.993667" lon="-4.792550">
        <ele>2227.0</ele>
        <time>2013-07-03T13:24:01Z</time>
      </trkpt>
      <trkpt lat="39.993650" lon="-4.792400">
        <ele>2226.0</ele>
        <time>2013-07-03T13:24:02Z</time>
      </trkpt>
      <trkpt lat="39.993650" lon="-4.792250">
        <ele>2225.0</ele>
        <time>2013-07-03T13:24:03Z</time>
      </trkpt>
      <trkpt lat="39.993633" lon="-4.792117">
        <ele>2225.0</ele>
        <time>2013-07-03T13:24:04Z</time>
      </trkpt>
      <trkpt lat="39.993600" lon="-4.791967">
        <ele>2225.0</ele>
        <time>2013-07-03T13:24:05Z</time>
      </trkpt>
      <trkpt lat="39.993583" lon="-4.791833">
        <ele>2225.0</ele>
        <time>2013-07-03T13:24:06Z</time>
      </trkpt>
      <trkpt lat="39.993567" lon="-4.791700">
        <ele>2224.0</ele>
        <time>2013-07-03T13:24:07Z</time>
      </trkpt>
      <trkpt lat="39.993533" lon="-4.791567">
        <ele>2224.0</ele>
        <time>2013-07-03T13:24:08Z</time>
      </trkpt>
      <trkpt lat="39.993517" lon="-4.791450">
        <ele>2223.0</ele>
        <time>2013-07-03T13:24:09Z</time>
      </trkpt>
      <trkpt lat="39.993483" lon="-4.791317">
        <ele>2222.0</ele>
        <time>2013-07-03T13:24:10Z</time>
      </trkpt>
      <trkpt lat="39.993467" lon="-4.791183">
        <ele>2221.0</ele>
        <time>2013-07-03T13:24:11Z</time>
      </trkpt>
      <trkpt lat="39.993433" lon="-4.791050">
        <ele>2220.0</ele>
        <time>2013-07-03T13:24:12Z</time>
      </trkpt>
      <trkpt lat="39.993400" lon="-4.790917">
        <ele>2218.0</ele>
        <time>2013-07-03T13:24:13Z</time>
      </trkpt>
      <trkpt lat="39.993383" lon="-4.790767">
        <ele>2217.0</ele>
        <time>2013-07-03T13:24:14Z</time>
      </trkpt>
      <trkpt lat="39.993350" lon="-4.790617">
        <ele>2215.0</ele>
        <time>2013-07-03T13:24:15Z</time>
      </trkpt>
      <trkpt lat="39.993333" lon="-4.790467">
        <ele>2215.0</ele>
        <time>2013-07-03T13:24:16Z</time>
      </trkpt>
      <trkpt lat="39.993317" lon="-4.790333">
        <ele>2215.0</ele>
        <time>2013-07-03T13:24:17Z</time>
      </trkpt>
      <trkpt lat="39.993300" lon="-4.790200">
        <ele>2215.0</ele>
        <time>2013-07-03T13:24:18Z</time>
      </trkpt>
      <trkpt lat="39.993300" lon="-4.790067">
        <ele>2214.0</ele>
        <time>2013-07-03T13:24:19Z</time>
      </trkpt>
      <trkpt lat="39.993283" lon="-4.789933">
        <ele>2213.0</ele>
        <time>2013-07-03T13:24:20Z</time>
      </trkpt>
      <trkpt lat="39.993267" lon="-4.789800">
        <ele>2212.0</ele>
        <time>2013-07-03T13:24:21Z</time>
      </trkpt>
      <trkpt lat="39.993267" lon="-4.789650">
        <ele>2212.0</ele>
        <time>2013-07-03T13:24:22Z</time>
      </trkpt>
      <trkpt lat="39.993250" lon="-4.789517">
        <ele>2213.0</ele>
        <time>2013-07-03T13:24:23Z</time>
      </trkpt>
      <trkpt lat="39.993267" lon="-4.789383">
        <ele>2213.0</ele>
        <time>2013-07-03T13:24:24Z</time>
      </trkpt>
      <trkpt lat="39.993267" lon="-4.789250">
        <ele>2213.0</ele>
        <time>2013-07-03T13:24:25Z</time>
      </trkpt>
      <trkpt lat="39.993267" lon="-4.789117">
        <ele>2213.0</ele>
        <time>2013-07-03T13:24:26Z</time>
      </trkpt>
      <trkpt lat="39.993250" lon="-4.788967">
        <ele>2214.0</ele>
        <time>2013-07-03T13:24:27Z</time>
      </trkpt>
      <trkpt lat="39.993217" lon="-4.788850">
        <ele>2215.0</ele>
        <time>2013-07-03T13:24:28Z</time>
      </trkpt>
      <trkpt lat="39.993183" lon="-4.788750">
        <ele>2216.0</ele>
        <time>2013-07-03T13:24:29Z</time>
      </trkpt>
      <trkpt lat="39.993167" lon="-4.788650">
        <ele>2216.0</ele>
        <time>2013-07-03T13:24:30Z</time>
      </trkpt>
      <trkpt lat="39.993133" lon="-4.788533">
        <ele>2215.0</ele>
        <time>2013-07-03T13:24:31Z</time>
      </trkpt>
      <trkpt lat="39.993117" lon="-4.788417">
        <ele>2214.0</ele>
        <time>2013-07-03T13:24:32Z</time>
      </trkpt>
      <trkpt lat="39.993100" lon="-4.788300">
        <ele>2213.0</ele>
        <time>2013-07-03T13:24:33Z</time>
      </trkpt>
      <trkpt lat="39.993083" lon="-4.788167">
        <ele>2212.0</ele>
        <time>2013-07-03T13:24:34Z</time>
      </trkpt>
      <trkpt lat="39.993050" lon="-4.788033">
        <ele>2211.0</ele>
        <time>2013-07-03T13:24:35Z</time>
      </trkpt>
      <trkpt lat="39.993033" lon="-4.787883">
        <ele>2209.0</ele>
        <time>2013-07-03T13:24:36Z</time>
      </trkpt>
      <trkpt lat="39.993017" lon="-4.787733">
        <ele>2208.0</ele>
        <time>2013-07-03T13:24:37Z</time>
      </trkpt>
      <trkpt lat="39.993000" lon="-4.787567">
        <ele>2208.0</ele>
        <time>2013-07-03T13:24:38Z</time>
      </trkpt>
      <trkpt lat="39.992967" lon="-4.787433">
        <ele>2207.0</ele>
        <time>2013-07-03T13:24:39Z</time>
      </trkpt>
      <trkpt lat="39.992933" lon="-4.787283">
        <ele>2206.0</ele>
        <time>2013-07-03T13:24:40Z</time>
      </trkpt>
      <trkpt lat="39.992917" lon="-4.787133">
        <ele>2206.0</ele>
        <time>2013-07-03T13:24:41Z</time>
      </trkpt>
      <trkpt lat="39.992883" lon="-4.786983">
        <ele>2204.0</ele>
        <time>2013-07-03T13:24:42Z</time>
      </trkpt>
      <trkpt lat="39.992867" lon="-4.786817">
        <ele>2203.0</ele>
        <time>2013-07-03T13:24:43Z</time>
      </trkpt>
      <trkpt lat="39.992850" lon="-4.786683">
        <ele>2203.0</ele>
        <time>2013-07-03T13:24:44Z</time>
      </trkpt>
      <trkpt lat="39.992833" lon="-4.786533">
        <ele>2203.0</ele>
        <time>2013-07-03T13:24:45Z</time>
      </trkpt>
      <trkpt lat="39.992817" lon="-4.786400">
        <ele>2203.0</ele>
        <time>2013-07-03T13:24:46Z</time>
      </trkpt>
      <trkpt lat="39.992783" lon="-4.786267">
        <ele>2201.0</ele>
        <time>2013-07-03T13:24:47Z</time>
      </trkpt>
      <trkpt lat="39.992767" lon="-4.786117">
        <ele>2199.0</ele>
        <time>2013-07-03T13:24:48Z</time>
      </trkpt>
      <trkpt lat="39.992750" lon="-4.785967">
        <ele>2198.0</ele>
        <time>2013-07-03T13:24:49Z</time>
      </trkpt>
      <trkpt lat="39.992750" lon="-4.785800">
        <ele>2196.0</ele>
        <time>2013-07-03T13:24:50Z</time>
      </trkpt>
      <trkpt lat="39.992733" lon="-4.785650">
        <ele>2196.0</ele>
        <time>2013-07-03T13:24:51Z</time>
      </trkpt>
      <trkpt lat="39.992717" lon="-4.785500">
        <ele>2195.0</ele>
        <time>2013-07-03T13:24:52Z</time>
      </trkpt>
      <trkpt lat="39.992700" lon="-4.785350">
        <ele>2194.0</ele>
        <time>2013-07-03T13:24:53Z</time>
      </trkpt>
      <trkpt lat="39.992683" lon="-4.785200">
        <ele>2193.0</ele>
        <time>2013-07-03T13:24:54Z</time>
      </trkpt>
      <trkpt lat="39.992667" lon="-4.785050">
        <ele>2192.0</ele>
        <time>2013-07-03T13:24:55Z</time>
      </trkpt>
      <trkpt lat="39.992650" lon="-4.784900">
        <ele>2190.0</ele>
        <time>2013-07-03T13:24:56Z</time>
      </trkpt>
      <trkpt lat="39.992633" lon="-4.784733">
        <ele>2189.0</ele>
        <time>2013-07-03T13:24:57Z</time>
      </trkpt>
      <trkpt lat="39.992617" lon="-4.784583">
        <ele>2188.0</ele>
        <time>2013-07-03T13:24:58Z</time>
      </trkpt>
      <trkpt lat="39.992600" lon="-4.784433">
        <ele>2187.0</ele>
        <time>2013-07-03T13:24:59Z</time>
      </trkpt>
      <trkpt lat="39.992600" lon="-4.784317">
        <ele>2186.0</ele>
        <time>2013-07-03T13:25:00Z</time>
      </trkpt>
      <trkpt lat="39.992600" lon="-4.784200">
        <ele>2185.0</ele>
        <time>2013-07-03T13:25:01Z</time>
      </trkpt>
      <trkpt lat="39.992617" lon="-4.784083">
        <ele>2182.0</ele>
        <time>2013-07-03T13:25:02Z</time>
      </trkpt>
      <trkpt lat="39.992633" lon="-4.783950">
        <ele>2179.0</ele>
        <time>2013-07-03T13:25:03Z</time>
      </trkpt>
      <trkpt lat="39.992650" lon="-4.783800">
        <ele>2176.0</ele>
        <time>2013-07-03T13:25:04Z</time>
      </trkpt>
      <trkpt lat="39.992667" lon="-4.783650">
        <ele>2174.0</ele>
        <time>2013-07-03T13:25:05Z</time>
      </trkpt>
      <trkpt lat="39.992683" lon="-4.783517">
        <ele>2173.0</ele>
        <time>2013-07-03T13:25:06Z</time>
      </trkpt>
      <trkpt lat="39.992700" lon="-4.783383">
        <ele>2171.0</ele>
        <time>2013-07-03T13:25:07Z</time>
      </trkpt>
      <trkpt lat="39.992717" lon="-4.783250">
        <ele>2169.0</ele>
        <time>2013-07-03T13:25:08Z</time>
      </trkpt>
      <trkpt lat="39.992717" lon="-4.783100">
        <ele>2166.0</ele>
        <time>2013-07-03T13:25:09Z</time>
      </trkpt>
      <trkpt lat="39.992717" lon="-4.782950">
        <ele>2164.0</ele>
        <time>2013-07-03T13:25:10Z</time>
      </trkpt>
      <trkpt lat="39.992717" lon="-4.782817">
        <ele>2163.0</ele>
        <time>2013-07-03T13:25:11Z</time>
      </trkpt>
      <trkpt lat="39.992700" lon="-4.782683">
        <ele>2161.0</ele>
        <time>2013-07-03T13:25:12Z</time>
      </trkpt>
      <trkpt lat="39.992700" lon="-4.782567">
        <ele>2159.0</ele>
        <time>2013-07-03T13:25:13Z</time>
      </trkpt>
      <trkpt lat="39.992683" lon="-4.782417">
        <ele>2156.0</ele>
        <time>2013-07-03T13:25:14Z</time>
      </trkpt>
      <trkpt lat="39.992667" lon="-4.782283">
        <ele>2152.0</ele>
        <time>2013-07-03T13:25:15Z</time>
      </trkpt>
      <trkpt lat="39.992650" lon="-4.782133">
        <ele>2149.0</ele>
        <time>2013-07-03T13:25:16Z</time>
      </trkpt>
      <trkpt lat="39.992633" lon="-4.781983">
        <ele>2147.0</ele>
        <time>2013-07-03T13:25:17Z</time>
      </trkpt>
      <trkpt lat="39.992617" lon="-4.781850">
        <ele>2144.0</ele>
        <time>2013-07-03T13:25:18Z</time>
      </trkpt>
      <trkpt lat="39.992617" lon="-4.781717">
        <ele>2141.0</ele>
        <time>2013-07-03T13:25:19Z</time>
      </trkpt>
      <trkpt lat="39.992617" lon="-4.781600">
        <ele>2138.0</ele>
        <time>2013-07-03T13:25:20Z</time>
      </trkpt>
      <trkpt lat="39.992617" lon="-4.781450">
        <ele>2135.0</ele>
        <time>2013-07-03T13:25:21Z</time>
      </trkpt>
      <trkpt lat="39.992617" lon="-4.781317">
        <ele>2132.0</ele>
        <time>2013-07-03T13:25:22Z</time>
      </trkpt>
      <trkpt lat="39.992617" lon="-4.781167">
        <ele>2130.0</ele>
        <time>2013-07-03T13:25:23Z</time>
      </trkpt>
      <trkpt lat="39.992617" lon="-4.781017">
        <ele>2129.0</ele>
        <time>2013-07-03T13:25:24Z</time>
      </trkpt>
      <trkpt lat="39.992617" lon="-4.780883">
        <ele>2127.0</ele>
        <time>2013-07-03T13:25:25Z</time>
      </trkpt>
      <trkpt lat="39.992600" lon="-4.780767">
        <ele>2125.0</ele>
        <time>2013-07-03T13:25:26Z</time>
      </trkpt>
      <trkpt lat="39.992600" lon="-4.780633">
        <ele>2122.0</ele>
        <time>2013-07-03T13:25:27Z</time>
      </trkpt>
      <trkpt lat="39.992600" lon="-4.780500">
        <ele>2118.0</ele>
        <time>2013-07-03T13:25:28Z</time>
      </trkpt>
      <trkpt lat="39.992600" lon="-4.780350">
        <ele>2115.0</ele>
        <time>2013-07-03T13:25:29Z</time>
      </trkpt>
      <trkpt lat="39.992600" lon="-4.780183">
        <ele>2112.0</ele>
        <time>2013-07-03T13:25:30Z</time>
      </trkpt>
      <trkpt lat="39.992583" lon="-4.780050">
        <ele>2109.0</ele>
        <time>2013-07-03T13:25:31Z</time>
      </trkpt>
      <trkpt lat="39.992583" lon="-4.779900">
        <ele>2107.0</ele>
        <time>2013-07-03T13:25:32Z</time>
      </trkpt>
      <trkpt lat="39.992550" lon="-4.779767">
        <ele>2105.0</ele>
        <time>2013-07-03T13:25:33Z</time>
      </trkpt>
      <trkpt lat="39.992533" lon="-4.779617">
        <ele>2102.0</ele>
        <time>2013-07-03T13:25:34Z</time>
      </trkpt>
      <trkpt lat="39.992500" lon="-4.779467">
        <ele>2099.0</ele>
        <time>2013-07-03T13:25:35Z</time>
      </trkpt>
      <trkpt lat="39.992483" lon="-4.779300">
        <ele>2095.0</ele>
        <time>2013-07-03T13:25:36Z</time>
      </trkpt>
      <trkpt lat="39.992467" lon="-4.779133">
        <ele>2092.0</ele>
        <time>2013-07-03T13:25:37Z</time>
      </trkpt>
      <trkpt lat="39.992450" lon="-4.778950">
        <ele>2088.0</ele>
        <time>2013-07-03T13:25:38Z</time>
      </trkpt>
      <trkpt lat="39.992417" lon="-4.778783">
        <ele>2085.0</ele>
        <time>2013-07-03T13:25:39Z</time>
      </trkpt>
      <trkpt lat="39.992417" lon="-4.778600">
        <ele>2082.0</ele>
        <time>2013-07-03T13:25:40Z</time>
      </trkpt>
      <trkpt lat="39.992417" lon="-4.778433">
        <ele>2080.0</ele>
        <time>2013-07-03T13:25:41Z</time>
      </trkpt>
      <trkpt lat="39.992400" lon="-4.778267">
        <ele>2078.0</ele>
        <time>2013-07-03T13:25:42Z</time>
      </trkpt>
      <trkpt lat="39.992400" lon="-4.778100">
        <ele>2076.0</ele>
        <time>2013-07-03T13:25:43Z</time>
      </trkpt>
      <trkpt lat="39.992367" lon="-4.777933">
        <ele>2073.0</ele>
        <time>2013-07-03T13:25:44Z</time>
      </trkpt>
      <trkpt lat="39.992367" lon="-4.777767">
        <ele>2071.0</ele>
        <time>2013-07-03T13:25:45Z</time>
      </trkpt>
      <trkpt lat="39.992350" lon="-4.777583">
        <ele>2069.0</ele>
        <time>2013-07-03T13:25:46Z</time>
      </trkpt>
      <trkpt lat="39.992350" lon="-4.777417">
        <ele>2068.0</ele>
        <time>2013-07-03T13:25:47Z</time>
      </trkpt>
      <trkpt lat="39.992350" lon="-4.777250">
        <ele>2067.0</ele>
        <time>2013-07-03T13:25:48Z</time>
      </trkpt>
      <trkpt lat="39.992350" lon="-4.777100">
        <ele>2067.0</ele>
        <time>2013-07-03T13:25:49Z</time>
      </trkpt>
      <trkpt lat="39.992350" lon="-4.776967">
        <ele>2067.0</ele>
        <time>2013-07-03T13:25:50Z</time>
      </trkpt>
      <trkpt lat="39.992350" lon="-4.776850">
        <ele>2067.0</ele>
        <time>2013-07-03T13:25:51Z</time>
      </trkpt>
      <trkpt lat="39.992350" lon="-4.776750">
        <ele>2065.0</ele>
        <time>2013-07-03T13:25:52Z</time>
      </trkpt>
      <trkpt lat="39.992350" lon="-4.776650">
        <ele>2062.0</ele>
        <time>2013-07-03T13:25:53Z</time>
      </trkpt>
      <trkpt lat="39.992333" lon="-4.776533">
        <ele>2059.0</ele>
        <time>2013-07-03T13:25:54Z</time>
      </trkpt>
      <trkpt lat="39.992317" lon="-4.776400">
        <ele>2057.0</ele>
        <time>2013-07-03T13:25:55Z</time>
      </trkpt>
      <trkpt lat="39.992283" lon="-4.776267">
        <ele>2054.0</ele>
        <time>2013-07-03T13:25:56Z</time>
      </trkpt>
      <trkpt lat="39.992267" lon="-4.776133">
        <ele>2052.0</ele>
        <time>2013-07-03T13:25:57Z</time>
      </trkpt>
      <trkpt lat="39.992267" lon="-4.776017">
        <ele>2050.0</ele>
        <time>2013-07-03T13:25:58Z</time>
      </trkpt>
      <trkpt lat="39.992267" lon="-4.775900">
        <ele>2048.0</ele>
        <time>2013-07-03T13:25:59Z</time>
      </trkpt>
      <trkpt lat="39.992267" lon="-4.775783">
        <ele>2046.0</ele>
        <time>2013-07-03T13:26:00Z</time>
      </trkpt>
      <trkpt lat="39.992233" lon="-4.775650">
        <ele>2043.0</ele>
        <time>2013-07-03T13:26:01Z</time>
      </trkpt>
      <trkpt lat="39.992200" lon="-4.775533">
        <ele>2041.0</ele>
        <time>2013-07-03T13:26:02Z</time>
      </trkpt>
      <trkpt lat="39.992167" lon="-4.775383">
        <ele>2038.0</ele>
        <time>2013-07-03T13:26:03Z</time>
      </trkpt>
      <trkpt lat="39.992133" lon="-4.775250">
        <ele>2036.0</ele>
        <time>2013-07-03T13:26:04Z</time>
      </trkpt>
      <trkpt lat="39.992100" lon="-4.775100">
        <ele>2034.0</ele>
        <time>2013-07-03T13:26:05Z</time>
      </trkpt>
      <trkpt lat="39.992083" lon="-4.774967">
        <ele>2032.0</ele>
        <time>2013-07-03T13:26:06Z</time>
      </trkpt>
      <trkpt lat="39.992067" lon="-4.774817">
        <ele>2030.0</ele>
        <time>2013-07-03T13:26:07Z</time>
      </trkpt>
      <trkpt lat="39.992050" lon="-4.774700">
        <ele>2029.0</ele>
        <time>2013-07-03T13:26:08Z</time>
      </trkpt>
      <trkpt lat="39.992033" lon="-4.774567">
        <ele>2027.0</ele>
        <time>2013-07-03T13:26:09Z</time>
      </trkpt>
      <trkpt lat="39.992017" lon="-4.774417">
        <ele>2024.0</ele>
        <time>2013-07-03T13:26:10Z</time>
      </trkpt>
      <trkpt lat="39.992000" lon="-4.774267">
        <ele>2021.0</ele>
        <time>2013-07-03T13:26:11Z</time>
      </trkpt>
      <trkpt lat="39.991983" lon="-4.774117">
        <ele>2018.0</ele>
        <time>2013-07-03T13:26:12Z</time>
      </trkpt>
      <trkpt lat="39.991967" lon="-4.773950">
        <ele>2016.0</ele>
        <time>2013-07-03T13:26:13Z</time>
      </trkpt>
      <trkpt lat="39.991950" lon="-4.773800">
        <ele>2016.0</ele>
        <time>2013-07-03T13:26:14Z</time>
      </trkpt>
      <trkpt lat="39.991917" lon="-4.773650">
        <ele>2015.0</ele>
        <time>2013-07-03T13:26:15Z</time>
      </trkpt>
      <trkpt lat="39.991900" lon="-4.773517">
        <ele>2013.0</ele>
        <time>2013-07-03T13:26:16Z</time>
      </trkpt>
      <trkpt lat="39.991867" lon="-4.773367">
        <ele>2010.0</ele>
        <time>2013-07-03T13:26:17Z</time>
      </trkpt>
      <trkpt lat="39.991850" lon="-4.773217">
        <ele>2007.0</ele>
        <time>2013-07-03T13:26:18Z</time>
      </trkpt>
      <trkpt lat="39.991850" lon="-4.773067">
        <ele>2004.0</ele>
        <time>2013-07-03T13:26:19Z</time>
      </trkpt>
      <trkpt lat="39.991867" lon="-4.772900">
        <ele>2002.0</ele>
        <time>2013-07-03T13:26:20Z</time>
      </trkpt>
      <trkpt lat="39.991867" lon="-4.772750">
        <ele>1999.0</ele>
        <time>2013-07-03T13:26:21Z</time>
      </trkpt>
      <trkpt lat="39.991867" lon="-4.772600">
        <ele>1997.0</ele>
        <time>2013-07-03T13:26:22Z</time>
      </trkpt>
      <trkpt lat="39.991867" lon="-4.772450">
        <ele>1995.0</ele>
        <time>2013-07-03T13:26:23Z</time>
      </trkpt>
      <trkpt lat="39.991867" lon="-4.772283">
        <ele>1993.0</ele>
        <time>2013-07-03T13:26:24Z</time>
      </trkpt>
      <trkpt lat="39.991867" lon="-4.772133">
        <ele>1991.0</ele>
        <time>2013-07-03T13:26:25Z</time>
      </trkpt>
      <trkpt lat="39.991867" lon="-4.771983">
        <ele>1989.0</ele>
        <time>2013-07-03T13:26:26Z</time>
      </trkpt>
      <trkpt lat="39.991867" lon="-4.771833">
        <ele>1986.0</ele>
        <time>2013-07-03T13:26:27Z</time>
      </trkpt>
      <trkpt lat="39.991850" lon="-4.771683">
        <ele>1984.0</ele>
        <time>2013-07-03T13:26:28Z</time>
      </trkpt>
      <trkpt lat="39.991850" lon="-4.771533">
        <ele>1983.0</ele>
        <time>2013-07-03T13:26:29Z</time>
      </trkpt>
      <trkpt lat="39.991833" lon="-4.771383">
        <ele>1981.0</ele>
        <time>2013-07-03T13:26:30Z</time>
      </trkpt>
      <trkpt lat="39.991817" lon="-4.771233">
        <ele>1980.0</ele>
        <time>2013-07-03T13:26:31Z</time>
      </trkpt>
      <trkpt lat="39.991817" lon="-4.771100">
        <ele>1978.0</ele>
        <time>2013-07-03T13:26:32Z</time>
      </trkpt>
      <trkpt lat="39.991800" lon="-4.770967">
        <ele>1977.0</ele>
        <time>2013-07-03T13:26:33Z</time>
      </trkpt>
      <trkpt lat="39.991800" lon="-4.770817">
        <ele>1975.0</ele>
        <time>2013-07-03T13:26:34Z</time>
      </trkpt>
      <trkpt lat="39.991800" lon="-4.770650">
        <ele>1973.0</ele>
        <time>2013-07-03T13:26:35Z</time>
      </trkpt>
      <trkpt lat="39.991783" lon="-4.770500">
        <ele>1971.0</ele>
        <time>2013-07-03T13:26:36Z</time>
      </trkpt>
      <trkpt lat="39.991783" lon="-4.770350">
        <ele>1971.0</ele>
        <time>2013-07-03T13:26:37Z</time>
      </trkpt>
      <trkpt lat="39.991767" lon="-4.770217">
        <ele>1971.0</ele>
        <time>2013-07-03T13:26:38Z</time>
      </trkpt>
      <trkpt lat="39.991750" lon="-4.770067">
        <ele>1970.0</ele>
        <time>2013-07-03T13:26:39Z</time>
      </trkpt>
      <trkpt lat="39.991750" lon="-4.769917">
        <ele>1967.0</ele>
        <time>2013-07-03T13:26:40Z</time>
      </trkpt>
      <trkpt lat="39.991750" lon="-4.769767">
        <ele>1965.0</ele>
        <time>2013-07-03T13:26:41Z</time>
      </trkpt>
      <trkpt lat="39.991750" lon="-4.769600">
        <ele>1963.0</ele>
        <time>2013-07-03T13:26:42Z</time>
      </trkpt>
      <trkpt lat="39.991733" lon="-4.769433">
        <ele>1962.0</ele>
        <time>2013-07-03T13:26:43Z</time>
      </trkpt>
      <trkpt lat="39.991733" lon="-4.769283">
        <ele>1962.0</ele>
        <time>2013-07-03T13:26:44Z</time>
      </trkpt>
      <trkpt lat="39.991733" lon="-4.769150">
        <ele>1962.0</ele>
        <time>2013-07-03T13:26:45Z</time>
      </trkpt>
      <trkpt lat="39.991733" lon="-4.769000">
        <ele>1960.0</ele>
        <time>2013-07-03T13:26:46Z</time>
      </trkpt>
      <trkpt lat="39.991733" lon="-4.768833">
        <ele>1958.0</ele>
        <time>2013-07-03T13:26:47Z</time>
      </trkpt>
      <trkpt lat="39.991733" lon="-4.768667">
        <ele>1957.0</ele>
        <time>2013-07-03T13:26:48Z</time>
      </trkpt>
      <trkpt lat="39.991717" lon="-4.768483">
        <ele>1957.0</ele>
        <time>2013-07-03T13:26:49Z</time>
      </trkpt>
      <trkpt lat="39.991700" lon="-4.768317">
        <ele>1958.0</ele>
        <time>2013-07-03T13:26:50Z</time>
      </trkpt>
      <trkpt lat="39.991683" lon="-4.768150">
        <ele>1958.0</ele>
        <time>2013-07-03T13:26:51Z</time>
      </trkpt>
      <trkpt lat="39.991650" lon="-4.767983">
        <ele>1958.0</ele>
        <time>2013-07-03T13:26:52Z</time>
      </trkpt>
      <trkpt lat="39.991633" lon="-4.767800">
        <ele>1957.0</ele>
        <time>2013-07-03T13:26:53Z</time>
      </trkpt>
      <trkpt lat="39.991617" lon="-4.767633">
        <ele>1957.0</ele>
        <time>2013-07-03T13:26:54Z</time>
      </trkpt>
      <trkpt lat="39.991600" lon="-4.767467">
        <ele>1957.0</ele>
        <time>2013-07-03T13:26:55Z</time>
      </trkpt>
      <trkpt lat="39.991567" lon="-4.767300">
        <ele>1957.0</ele>
        <time>2013-07-03T13:26:56Z</time>
      </trkpt>
      <trkpt lat="39.991550" lon="-4.767167">
        <ele>1956.0</ele>
        <time>2013-07-03T13:26:57Z</time>
      </trkpt>
      <trkpt lat="39.991517" lon="-4.767017">
        <ele>1955.0</ele>
        <time>2013-07-03T13:26:58Z</time>
      </trkpt>
      <trkpt lat="39.991483" lon="-4.766867">
        <ele>1953.0</ele>
        <time>2013-07-03T13:26:59Z</time>
      </trkpt>
      <trkpt lat="39.991433" lon="-4.766700">
        <ele>1951.0</ele>
        <time>2013-07-03T13:27:00Z</time>
      </trkpt>
      <trkpt lat="39.991417" lon="-4.766533">
        <ele>1950.0</ele>
        <time>2013-07-03T13:27:01Z</time>
      </trkpt>
      <trkpt lat="39.991400" lon="-4.766383">
        <ele>1949.0</ele>
        <time>2013-07-03T13:27:02Z</time>
      </trkpt>
      <trkpt lat="39.991400" lon="-4.766233">
        <ele>1948.0</ele>
        <time>2013-07-03T13:27:03Z</time>
      </trkpt>
      <trkpt lat="39.991383" lon="-4.766083">
        <ele>1947.0</ele>
        <time>2013-07-03T13:27:04Z</time>
      </trkpt>
      <trkpt lat="39.991383" lon="-4.765917">
        <ele>1945.0</ele>
        <time>2013-07-03T13:27:05Z</time>
      </trkpt>
      <trkpt lat="39.991383" lon="-4.765750">
        <ele>1943.0</ele>
        <time>2013-07-03T13:27:06Z</time>
      </trkpt>
      <trkpt lat="39.991383" lon="-4.765583">
        <ele>1942.0</ele>
        <time>2013-07-03T13:27:07Z</time>
      </trkpt>
      <trkpt lat="39.991367" lon="-4.765417">
        <ele>1941.0</ele>
        <time>2013-07-03T13:27:08Z</time>
      </trkpt>
      <trkpt lat="39.991367" lon="-4.765250">
        <ele>1940.0</ele>
        <time>2013-07-03T13:27:09Z</time>
      </trkpt>
      <trkpt lat="39.991367" lon="-4.765083">
        <ele>1938.0</ele>
        <time>2013-07-03T13:27:10Z</time>
      </trkpt>
      <trkpt lat="39.991350" lon="-4.764917">
        <ele>1935.0</ele>
        <time>2013-07-03T13:27:11Z</time>
      </trkpt>
      <trkpt lat="39.991350" lon="-4.764733">
        <ele>1933.0</ele>
        <time>2013-07-03T13:27:12Z</time>
      </trkpt>
      <trkpt lat="39.991350" lon="-4.764567">
        <ele>1932.0</ele>
        <time>2013-07-03T13:27:13Z</time>
      </trkpt>
      <trkpt lat="39.991350" lon="-4.764417">
        <ele>1930.0</ele>
        <time>2013-07-03T13:27:14Z</time>
      </trkpt>
      <trkpt lat="39.991350" lon="-4.764267">
        <ele>1929.0</ele>
        <time>2013-07-03T13:27:15Z</time>
      </trkpt>
      <trkpt lat="39.991333" lon="-4.764083">
        <ele>1927.0</ele>
        <time>2013-07-03T13:27:16Z</time>
      </trkpt>
      <trkpt lat="39.991333" lon="-4.763917">
        <ele>1927.0</ele>
        <time>2013-07-03T13:27:17Z</time>
      </trkpt>
      <trkpt lat="39.991333" lon="-4.763733">
        <ele>1927.0</ele>
        <time>2013-07-03T13:27:18Z</time>
      </trkpt>
      <trkpt lat="39.991350" lon="-4.763567">
        <ele>1928.0</ele>
        <time>2013-07-03T13:27:19Z</time>
      </trkpt>
      <trkpt lat="39.991367" lon="-4.763417">
        <ele>1928.0</ele>
        <time>2013-07-03T13:27:20Z</time>
      </trkpt>
      <trkpt lat="39.991383" lon="-4.763267">
        <ele>1927.0</ele>
        <time>2013-07-03T13:27:21Z</time>
      </trkpt>
      <trkpt lat="39.991383" lon="-4.763117">
        <ele>1927.0</ele>
        <time>2013-07-03T13:27:22Z</time>
      </trkpt>
      <trkpt lat="39.991400" lon="-4.762983">
        <ele>1925.0</ele>
        <time>2013-07-03T13:27:23Z</time>
      </trkpt>
      <trkpt lat="39.991400" lon="-4.762850">
        <ele>1924.0</ele>
        <time>2013-07-03T13:27:24Z</time>
      </trkpt>
      <trkpt lat="39.991400" lon="-4.762700">
        <ele>1922.0</ele>
        <time>2013-07-03T13:27:25Z</time>
      </trkpt>
      <trkpt lat="39.991400" lon="-4.762533">
        <ele>1920.0</ele>
        <time>2013-07-03T13:27:26Z</time>
      </trkpt>
      <trkpt lat="39.991400" lon="-4.762383">
        <ele>1918.0</ele>
        <time>2013-07-03T13:27:27Z</time>
      </trkpt>
      <trkpt lat="39.991400" lon="-4.762233">
        <ele>1917.0</ele>
        <time>2013-07-03T13:27:28Z</time>
      </trkpt>
      <trkpt lat="39.991400" lon="-4.762083">
        <ele>1916.0</ele>
        <time>2013-07-03T13:27:29Z</time>
      </trkpt>
      <trkpt lat="39.991400" lon="-4.761950">
        <ele>1916.0</ele>
        <time>2013-07-03T13:27:30Z</time>
      </trkpt>
      <trkpt lat="39.991417" lon="-4.761817">
        <ele>1915.0</ele>
        <time>2013-07-03T13:27:31Z</time>
      </trkpt>
      <trkpt lat="39.991417" lon="-4.761683">
        <ele>1915.0</ele>
        <time>2013-07-03T13:27:32Z</time>
      </trkpt>
      <trkpt lat="39.991417" lon="-4.761533">
        <ele>1914.0</ele>
        <time>2013-07-03T13:27:33Z</time>
      </trkpt>
      <trkpt lat="39.991417" lon="-4.761400">
        <ele>1912.0</ele>
        <time>2013-07-03T13:27:34Z</time>
      </trkpt>
      <trkpt lat="39.991417" lon="-4.761250">
        <ele>1911.0</ele>
        <time>2013-07-03T13:27:35Z</time>
      </trkpt>
      <trkpt lat="39.991417" lon="-4.761100">
        <ele>1910.0</ele>
        <time>2013-07-03T13:27:36Z</time>
      </trkpt>
      <trkpt lat="39.991417" lon="-4.760967">
        <ele>1908.0</ele>
        <time>2013-07-03T13:27:37Z</time>
      </trkpt>
      <trkpt lat="39.991417" lon="-4.760833">
        <ele>1907.0</ele>
        <time>2013-07-03T13:27:38Z</time>
      </trkpt>
      <trkpt lat="39.991417" lon="-4.760700">
        <ele>1906.0</ele>
        <time>2013-07-03T13:27:39Z</time>
      </trkpt>
      <trkpt lat="39.991417" lon="-4.760533">
        <ele>1904.0</ele>
        <time>2013-07-03T13:27:40Z</time>
      </trkpt>
      <trkpt lat="39.991433" lon="-4.760383">
        <ele>1902.0</ele>
        <time>2013-07-03T13:27:41Z</time>
      </trkpt>
      <trkpt lat="39.991433" lon="-4.760217">
        <ele>1901.0</ele>
        <time>2013-07-03T13:27:42Z</time>
      </trkpt>
      <trkpt lat="39.991433" lon="-4.760067">
        <ele>1901.0</ele>
        <time>2013-07-03T13:27:43Z</time>
      </trkpt>
      <trkpt lat="39.991450" lon="-4.759917">
        <ele>1901.0</ele>
        <time>2013-07-03T13:27:44Z</time>
      </trkpt>
      <trkpt lat="39.991483" lon="-4.759767">
        <ele>1900.0</ele>
        <time>2013-07-03T13:27:45Z</time>
      </trkpt>
      <trkpt lat="39.991517" lon="-4.759633">
        <ele>1900.0</ele>
        <time>2013-07-03T13:27:46Z</time>
      </trkpt>
      <trkpt lat="39.991550" lon="-4.759500">
        <ele>1899.0</ele>
        <time>2013-07-03T13:27:47Z</time>
      </trkpt>
      <trkpt lat="39.991567" lon="-4.759367">
        <ele>1898.0</ele>
        <time>2013-07-03T13:27:48Z</time>
      </trkpt>
      <trkpt lat="39.991567" lon="-4.759233">
        <ele>1896.0</ele>
        <time>2013-07-03T13:27:49Z</time>
      </trkpt>
      <trkpt lat="39.991567" lon="-4.759083">
        <ele>1895.0</ele>
        <time>2013-07-03T13:27:50Z</time>
      </trkpt>
      <trkpt lat="39.991550" lon="-4.758917">
        <ele>1894.0</ele>
        <time>2013-07-03T13:27:51Z</time>
      </trkpt>
      <trkpt lat="39.991550" lon="-4.758750">
        <ele>1894.0</ele>
        <time>2013-07-03T13:27:52Z</time>
      </trkpt>
      <trkpt lat="39.991550" lon="-4.758600">
        <ele>1895.0</ele>
        <time>2013-07-03T13:27:53Z</time>
      </trkpt>
      <trkpt lat="39.991567" lon="-4.758450">
        <ele>1896.0</ele>
        <time>2013-07-03T13:27:54Z</time>
      </trkpt>
      <trkpt lat="39.991567" lon="-4.758317">
        <ele>1897.0</ele>
        <time>2013-07-03T13:27:55Z</time>
      </trkpt>
      <trkpt lat="39.991583" lon="-4.758183">
        <ele>1898.0</ele>
        <time>2013-07-03T13:27:56Z</time>
      </trkpt>
      <trkpt lat="39.991583" lon="-4.758083">
        <ele>1898.0</ele>
        <time>2013-07-03T13:27:57Z</time>
      </trkpt>
      <trkpt lat="39.991600" lon="-4.757967">
        <ele>1900.0</ele>
        <time>2013-07-03T13:27:58Z</time>
      </trkpt>
      <trkpt lat="39.991600" lon="-4.757883">
        <ele>1900.0</ele>
        <time>2013-07-03T13:27:59Z</time>
      </trkpt>
      <trkpt lat="39.991600" lon="-4.757800">
        <ele>1900.0</ele>
        <time>2013-07-03T13:28:00Z</time>
      </trkpt>
      <trkpt lat="39.991567" lon="-4.757717">
        <ele>1900.0</ele>
        <time>2013-07-03T13:28:01Z</time>
      </trkpt>
      <trkpt lat="39.991533" lon="-4.757650">
        <ele>1899.0</ele>
        <time>2013-07-03T13:28:02Z</time>
      </trkpt>
      <trkpt lat="39.991483" lon="-4.757600">
        <ele>1899.0</ele>
        <time>2013-07-03T13:28:03Z</time>
      </trkpt>
      <trkpt lat="39.991433" lon="-4.757600">
        <ele>1899.0</ele>
        <time>2013-07-03T13:28:04Z</time>
      </trkpt>
      <trkpt lat="39.991400" lon="-4.757617">
        <ele>1899.0</ele>
        <time>2013-07-03T13:28:05Z</time>
      </trkpt>
      <trkpt lat="39.991400" lon="-4.757650">
        <ele>1899.0</ele>
        <time>2013-07-03T13:28:06Z</time>
      </trkpt>
      <trkpt lat="39.991383" lon="-4.757667">
        <ele>1900.0</ele>
        <time>2013-07-03T13:28:07Z</time>
      </trkpt>
      <trkpt lat="39.991400" lon="-4.757683">
        <ele>1900.0</ele>
        <time>2013-07-03T13:28:08Z</time>
      </trkpt>
      <trkpt lat="39.991417" lon="-4.757700">
        <ele>1900.0</ele>
        <time>2013-07-03T13:28:09Z</time>
      </trkpt>
      <trkpt lat="39.991450" lon="-4.757733">
        <ele>1900.0</ele>
        <time>2013-07-03T13:28:10Z</time>
      </trkpt>
      <trkpt lat="39.991500" lon="-4.757783">
        <ele>1899.0</ele>
        <time>2013-07-03T13:28:11Z</time>
      </trkpt>
      <trkpt lat="39.991550" lon="-4.757850">
        <ele>1898.0</ele>
        <time>2013-07-03T13:28:12Z</time>
      </trkpt>
      <trkpt lat="39.991633" lon="-4.757900">
        <ele>1898.0</ele>
        <time>2013-07-03T13:28:13Z</time>
      </trkpt>
      <trkpt lat="39.991717" lon="-4.757917">
        <ele>1898.0</ele>
        <time>2013-07-03T13:28:14Z</time>
      </trkpt>
      <trkpt lat="39.991817" lon="-4.757917">
        <ele>1898.0</ele>
        <time>2013-07-03T13:28:15Z</time>
      </trkpt>
      <trkpt lat="39.991917" lon="-4.757883">
        <ele>1897.0</ele>
        <time>2013-07-03T13:28:16Z</time>
      </trkpt>
      <trkpt lat="39.992017" lon="-4.757817">
        <ele>1897.0</ele>
        <time>2013-07-03T13:28:17Z</time>
      </trkpt>
      <trkpt lat="39.992117" lon="-4.757750">
        <ele>1897.0</ele>
        <time>2013-07-03T13:28:18Z</time>
      </trkpt>
      <trkpt lat="39.992200" lon="-4.757650">
        <ele>1897.0</ele>
        <time>2013-07-03T13:28:19Z</time>
      </trkpt>
      <trkpt lat="39.992267" lon="-4.757550">
        <ele>1897.0</ele>
        <time>2013-07-03T13:28:20Z</time>
      </trkpt>
      <trkpt lat="39.992317" lon="-4.757433">
        <ele>1897.0</ele>
        <time>2013-07-03T13:28:21Z</time>
      </trkpt>
      <trkpt lat="39.992367" lon="-4.757317">
        <ele>1897.0</ele>
        <time>2013-07-03T13:28:22Z</time>
      </trkpt>
      <trkpt lat="39.992400" lon="-4.757183">
        <ele>1897.0</ele>
        <time>2013-07-03T13:28:23Z</time>
      </trkpt>
      <trkpt lat="39.992417" lon="-4.757050">
        <ele>1897.0</ele>
        <time>2013-07-03T13:28:24Z</time>
      </trkpt>
      <trkpt lat="39.992433" lon="-4.756917">
        <ele>1897.0</ele>
        <time>2013-07-03T13:28:25Z</time>
      </trkpt>
      <trkpt lat="39.992433" lon="-4.756767">
        <ele>1896.0</ele>
        <time>2013-07-03T13:28:26Z</time>
      </trkpt>
      <trkpt lat="39.992433" lon="-4.756617">
        <ele>1896.0</ele>
        <time>2013-07-03T13:28:27Z</time>
      </trkpt>
      <trkpt lat="39.992417" lon="-4.756467">
        <ele>1897.0</ele>
        <time>2013-07-03T13:28:28Z</time>
      </trkpt>
      <trkpt lat="39.992400" lon="-4.756350">
        <ele>1897.0</ele>
        <time>2013-07-03T13:28:29Z</time>
      </trkpt>
      <trkpt lat="39.992383" lon="-4.756233">
        <ele>1899.0</ele>
        <time>2013-07-03T13:28:30Z</time>
      </trkpt>
      <trkpt lat="39.992350" lon="-4.756117">
        <ele>1900.0</ele>
        <time>2013-07-03T13:28:31Z</time>
      </trkpt>
      <trkpt lat="39.992317" lon="-4.755983">
        <ele>1901.0</ele>
        <time>2013-07-03T13:28:32Z</time>
      </trkpt>
      <trkpt lat="39.992283" lon="-4.755850">
        <ele>1902.0</ele>
        <time>2013-07-03T13:28:33Z</time>
      </trkpt>
      <trkpt lat="39.992250" lon="-4.755750">
        <ele>1904.0</ele>
        <time>2013-07-03T13:28:34Z</time>
      </trkpt>
      <trkpt lat="39.992217" lon="-4.755650">
        <ele>1905.0</ele>
        <time>2013-07-03T13:28:35Z</time>
      </trkpt>
      <trkpt lat="39.992183" lon="-4.755550">
        <ele>1907.0</ele>
        <time>2013-07-03T13:28:36Z</time>
      </trkpt>
      <trkpt lat="39.992133" lon="-4.755450">
        <ele>1908.0</ele>
        <time>2013-07-03T13:28:37Z</time>
      </trkpt>
      <trkpt lat="39.992083" lon="-4.755350">
        <ele>1909.0</ele>
        <time>2013-07-03T13:28:38Z</time>
      </trkpt>
      <trkpt lat="39.992017" lon="-4.755283">
        <ele>1910.0</ele>
        <time>2013-07-03T13:28:39Z</time>
      </trkpt>
      <trkpt lat="39.991967" lon="-4.755217">
        <ele>1912.0</ele>
        <time>2013-07-03T13:28:40Z</time>
      </trkpt>
      <trkpt lat="39.991917" lon="-4.755200">
        <ele>1912.0</ele>
        <time>2013-07-03T13:28:41Z</time>
      </trkpt>
      <trkpt lat="39.991867" lon="-4.755217">
        <ele>1912.0</ele>
        <time>2013-07-03T13:28:42Z</time>
      </trkpt>
      <trkpt lat="39.991817" lon="-4.755233">
        <ele>1911.0</ele>
        <time>2013-07-03T13:28:43Z</time>
      </trkpt>
      <trkpt lat="39.991783" lon="-4.755283">
        <ele>1911.0</ele>
        <time>2013-07-03T13:28:44Z</time>
      </trkpt>
      <trkpt lat="39.991767" lon="-4.755317">
        <ele>1911.0</ele>
        <time>2013-07-03T13:28:45Z</time>
      </trkpt>
      <trkpt lat="39.991750" lon="-4.755367">
        <ele>1912.0</ele>
        <time>2013-07-03T13:28:46Z</time>
      </trkpt>
      <trkpt lat="39.991750" lon="-4.755433">
        <ele>1912.0</ele>
        <time>2013-07-03T13:28:47Z</time>
      </trkpt>
      <trkpt lat="39.991767" lon="-4.755517">
        <ele>1913.0</ele>
        <time>2013-07-03T13:28:48Z</time>
      </trkpt>
      <trkpt lat="39.991817" lon="-4.755583">
        <ele>1914.0</ele>
        <time>2013-07-03T13:28:49Z</time>
      </trkpt>
      <trkpt lat="39.991867" lon="-4.755617">
        <ele>1915.0</ele>
        <time>2013-07-03T13:28:50Z</time>
      </trkpt>
      <trkpt lat="39.991950" lon="-4.755617">
        <ele>1917.0</ele>
        <time>2013-07-03T13:28:51Z</time>
      </trkpt>
      <trkpt lat="39.992050" lon="-4.755600">
        <ele>1919.0</ele>
        <time>2013-07-03T13:28:52Z</time>
      </trkpt>
      <trkpt lat="39.992133" lon="-4.755567">
        <ele>1920.0</ele>
        <time>2013-07-03T13:28:53Z</time>
      </trkpt>
      <trkpt lat="39.992200" lon="-4.755533">
        <ele>1922.0</ele>
        <time>2013-07-03T13:28:54Z</time>
      </trkpt>
      <trkpt lat="39.992250" lon="-4.755483">
        <ele>1922.0</ele>
        <time>2013-07-03T13:28:55Z</time>
      </trkpt>
      <trkpt lat="39.992333" lon="-4.755433">
        <ele>1922.0</ele>
        <time>2013-07-03T13:28:56Z</time>
      </trkpt>
      <trkpt lat="39.992417" lon="-4.755350">
        <ele>1921.0</ele>
        <time>2013-07-03T13:28:57Z</time>
      </trkpt>
      <trkpt lat="39.992500" lon="-4.755250">
        <ele>1922.0</ele>
        <time>2013-07-03T13:28:58Z</time>
      </trkpt>
      <trkpt lat="39.992567" lon="-4.755133">
        <ele>1922.0</ele>
        <time>2013-07-03T13:28:59Z</time>
      </trkpt>
      <trkpt lat="39.992633" lon="-4.755000">
        <ele>1925.0</ele>
        <time>2013-07-03T13:29:00Z</time>
      </trkpt>
      <trkpt lat="39.992667" lon="-4.754867">
        <ele>1929.0</ele>
        <time>2013-07-03T13:29:01Z</time>
      </trkpt>
      <trkpt lat="39.992683" lon="-4.754750">
        <ele>1930.0</ele>
        <time>2013-07-03T13:29:02Z</time>
      </trkpt>
      <trkpt lat="39.992683" lon="-4.754633">
        <ele>1930.0</ele>
        <time>2013-07-03T13:29:03Z</time>
      </trkpt>
      <trkpt lat="39.992683" lon="-4.754517">
        <ele>1929.0</ele>
        <time>2013-07-03T13:29:04Z</time>
      </trkpt>
      <trkpt lat="39.992667" lon="-4.754367">
        <ele>1928.0</ele>
        <time>2013-07-03T13:29:05Z</time>
      </trkpt>
      <trkpt lat="39.992617" lon="-4.754233">
        <ele>1926.0</ele>
        <time>2013-07-03T13:29:06Z</time>
      </trkpt>
      <trkpt lat="39.992567" lon="-4.754117">
        <ele>1925.0</ele>
        <time>2013-07-03T13:29:07Z</time>
      </trkpt>
      <trkpt lat="39.992500" lon="-4.754033">
        <ele>1924.0</ele>
        <time>2013-07-03T13:29:08Z</time>
      </trkpt>
      <trkpt lat="39.992433" lon="-4.753967">
        <ele>1923.0</ele>
        <time>2013-07-03T13:29:09Z</time>
      </trkpt>
      <trkpt lat="39.992383" lon="-4.753917">
        <ele>1921.0</ele>
        <time>2013-07-03T13:29:10Z</time>
      </trkpt>
      <trkpt lat="39.992333" lon="-4.753850">
        <ele>1920.0</ele>
        <time>2013-07-03T13:29:11Z</time>
      </trkpt>
      <trkpt lat="39.992267" lon="-4.753800">
        <ele>1919.0</ele>
        <time>2013-07-03T13:29:12Z</time>
      </trkpt>
      <trkpt lat="39.992183" lon="-4.753750">
        <ele>1918.0</ele>
        <time>2013-07-03T13:29:13Z</time>
      </trkpt>
      <trkpt lat="39.992117" lon="-4.753717">
        <ele>1919.0</ele>
        <time>2013-07-03T13:29:14Z</time>
      </trkpt>
      <trkpt lat="39.992033" lon="-4.753700">
        <ele>1919.0</ele>
        <time>2013-07-03T13:29:15Z</time>
      </trkpt>
      <trkpt lat="39.991967" lon="-4.753700">
        <ele>1920.0</ele>
        <time>2013-07-03T13:29:16Z</time>
      </trkpt>
      <trkpt lat="39.991900" lon="-4.753683">
        <ele>1920.0</ele>
        <time>2013-07-03T13:29:17Z</time>
      </trkpt>
      <trkpt lat="39.991833" lon="-4.753683">
        <ele>1920.0</ele>
        <time>2013-07-03T13:29:18Z</time>
      </trkpt>
      <trkpt lat="39.991767" lon="-4.753683">
        <ele>1919.0</ele>
        <time>2013-07-03T13:29:19Z</time>
      </trkpt>
      <trkpt lat="39.991717" lon="-4.753683">
        <ele>1919.0</ele>
        <time>2013-07-03T13:29:20Z</time>
      </trkpt>
      <trkpt lat="39.991650" lon="-4.753700">
        <ele>1918.0</ele>
        <time>2013-07-03T13:29:21Z</time>
      </trkpt>
      <trkpt lat="39.991567" lon="-4.753700">
        <ele>1917.0</ele>
        <time>2013-07-03T13:29:22Z</time>
      </trkpt>
      <trkpt lat="39.991500" lon="-4.753700">
        <ele>1916.0</ele>
        <time>2013-07-03T13:29:23Z</time>
      </trkpt>
      <trkpt lat="39.991417" lon="-4.753683">
        <ele>1916.0</ele>
        <time>2013-07-03T13:29:24Z</time>
      </trkpt>
      <trkpt lat="39.991350" lon="-4.753650">
        <ele>1915.0</ele>
        <time>2013-07-03T13:29:25Z</time>
      </trkpt>
      <trkpt lat="39.991283" lon="-4.753600">
        <ele>1914.0</ele>
        <time>2013-07-03T13:29:26Z</time>
      </trkpt>
      <trkpt lat="39.991217" lon="-4.753533">
        <ele>1913.0</ele>
        <time>2013-07-03T13:29:27Z</time>
      </trkpt>
      <trkpt lat="39.991167" lon="-4.753450">
        <ele>1911.0</ele>
        <time>2013-07-03T13:29:28Z</time>
      </trkpt>
      <trkpt lat="39.991100" lon="-4.753350">
        <ele>1908.0</ele>
        <time>2013-07-03T13:29:29Z</time>
      </trkpt>
      <trkpt lat="39.991050" lon="-4.753250">
        <ele>1906.0</ele>
        <time>2013-07-03T13:29:30Z</time>
      </trkpt>
      <trkpt lat="39.991000" lon="-4.753117">
        <ele>1903.0</ele>
        <time>2013-07-03T13:29:31Z</time>
      </trkpt>
      <trkpt lat="39.990967" lon="-4.752983">
        <ele>1900.0</ele>
        <time>2013-07-03T13:29:32Z</time>
      </trkpt>
      <trkpt lat="39.990933" lon="-4.752850">
        <ele>1898.0</ele>
        <time>2013-07-03T13:29:33Z</time>
      </trkpt>
      <trkpt lat="39.990900" lon="-4.752733">
        <ele>1897.0</ele>
        <time>2013-07-03T13:29:34Z</time>
      </trkpt>
      <trkpt lat="39.990850" lon="-4.752617">
        <ele>1896.0</ele>
        <time>2013-07-03T13:29:35Z</time>
      </trkpt>
      <trkpt lat="39.990817" lon="-4.752500">
        <ele>1895.0</ele>
        <time>2013-07-03T13:29:36Z</time>
      </trkpt>
      <trkpt lat="39.990767" lon="-4.752383">
        <ele>1894.0</ele>
        <time>2013-07-03T13:29:37Z</time>
      </trkpt>
      <trkpt lat="39.990700" lon="-4.752267">
        <ele>1893.0</ele>
        <time>2013-07-03T13:29:38Z</time>
      </trkpt>
      <trkpt lat="39.990633" lon="-4.752150">
        <ele>1892.0</ele>
        <time>2013-07-03T13:29:39Z</time>
      </trkpt>
      <trkpt lat="39.990567" lon="-4.752067">
        <ele>1892.0</ele>
        <time>2013-07-03T13:29:40Z</time>
      </trkpt>
      <trkpt lat="39.990483" lon="-4.751983">
        <ele>1892.0</ele>
        <time>2013-07-03T13:29:41Z</time>
      </trkpt>
      <trkpt lat="39.990400" lon="-4.751917">
        <ele>1892.0</ele>
        <time>2013-07-03T13:29:42Z</time>
      </trkpt>
      <trkpt lat="39.990333" lon="-4.751833">
        <ele>1892.0</ele>
        <time>2013-07-03T13:29:43Z</time>
      </trkpt>
      <trkpt lat="39.990267" lon="-4.751750">
        <ele>1892.0</ele>
        <time>2013-07-03T13:29:44Z</time>
      </trkpt>
      <trkpt lat="39.990217" lon="-4.751667">
        <ele>1892.0</ele>
        <time>2013-07-03T13:29:45Z</time>
      </trkpt>
      <trkpt lat="39.990150" lon="-4.751600">
        <ele>1890.0</ele>
        <time>2013-07-03T13:29:46Z</time>
      </trkpt>
      <trkpt lat="39.990067" lon="-4.751533">
        <ele>1888.0</ele>
        <time>2013-07-03T13:29:47Z</time>
      </trkpt>
      <trkpt lat="39.989983" lon="-4.751450">
        <ele>1886.0</ele>
        <time>2013-07-03T13:29:48Z</time>
      </trkpt>
      <trkpt lat="39.989883" lon="-4.751367">
        <ele>1885.0</ele>
        <time>2013-07-03T13:29:49Z</time>
      </trkpt>
      <trkpt lat="39.989800" lon="-4.751300">
        <ele>1884.0</ele>
        <time>2013-07-03T13:29:50Z</time>
      </trkpt>
      <trkpt lat="39.989700" lon="-4.751250">
        <ele>1883.0</ele>
        <time>2013-07-03T13:29:51Z</time>
      </trkpt>
      <trkpt lat="39.989617" lon="-4.751200">
        <ele>1882.0</ele>
        <time>2013-07-03T13:29:52Z</time>
      </trkpt>
      <trkpt lat="39.989517" lon="-4.751150">
        <ele>1881.0</ele>
        <time>2013-07-03T13:29:53Z</time>
      </trkpt>
      <trkpt lat="39.989400" lon="-4.751100">
        <ele>1880.0</ele>
        <time>2013-07-03T13:29:54Z</time>
      </trkpt>
      <trkpt lat="39.989283" lon="-4.751033">
        <ele>1879.0</ele>
        <time>2013-07-03T13:29:55Z</time>
      </trkpt>
      <trkpt lat="39.989167" lon="-4.750983">
        <ele>1879.0</ele>
        <time>2013-07-03T13:29:56Z</time>
      </trkpt>
      <trkpt lat="39.989050" lon="-4.750917">
        <ele>1880.0</ele>
        <time>2013-07-03T13:29:57Z</time>
      </trkpt>
      <trkpt lat="39.988950" lon="-4.750883">
        <ele>1881.0</ele>
        <time>2013-07-03T13:29:58Z</time>
      </trkpt>
      <trkpt lat="39.988867" lon="-4.750833">
        <ele>1882.0</ele>
        <time>2013-07-03T13:29:59Z</time>
      </trkpt>
      <trkpt lat="39.988767" lon="-4.750783">
        <ele>1883.0</ele>
        <time>2013-07-03T13:30:00Z</time>
      </trkpt>
      <trkpt lat="39.988683" lon="-4.750750">
        <ele>1884.0</ele>
        <time>2013-07-03T13:30:01Z</time>
      </trkpt>
      <trkpt lat="39.988617" lon="-4.750700">
        <ele>1884.0</ele>
        <time>2013-07-03T13:30:02Z</time>
      </trkpt>
      <trkpt lat="39.988550" lon="-4.750650">
        <ele>1884.0</ele>
        <time>2013-07-03T13:30:03Z</time>
      </trkpt>
      <trkpt lat="39.988467" lon="-4.750617">
        <ele>1883.0</ele>
        <time>2013-07-03T13:30:04Z</time>
      </trkpt>
      <trkpt lat="39.988367" lon="-4.750583">
        <ele>1882.0</ele>
        <time>2013-07-03T13:30:05Z</time>
      </trkpt>
      <trkpt lat="39.988267" lon="-4.750567">
        <ele>1882.0</ele>
        <time>2013-07-03T13:30:06Z</time>
      </trkpt>
      <trkpt lat="39.988150" lon="-4.750533">
        <ele>1882.0</ele>
        <time>2013-07-03T13:30:07Z</time>
      </trkpt>
      <trkpt lat="39.988067" lon="-4.750500">
        <ele>1883.0</ele>
        <time>2013-07-03T13:30:08Z</time>
      </trkpt>
      <trkpt lat="39.987983" lon="-4.750483">
        <ele>1884.0</ele>
        <time>2013-07-03T13:30:09Z</time>
      </trkpt>
      <trkpt lat="39.987900" lon="-4.750450">
        <ele>1885.0</ele>
        <time>2013-07-03T13:30:10Z</time>
      </trkpt>
      <trkpt lat="39.987817" lon="-4.750417">
        <ele>1886.0</ele>
        <time>2013-07-03T13:30:11Z</time>
      </trkpt>
      <trkpt lat="39.987733" lon="-4.750383">
        <ele>1886.0</ele>
        <time>2013-07-03T13:30:12Z</time>
      </trkpt>
      <trkpt lat="39.987667" lon="-4.750367">
        <ele>1887.0</ele>
        <time>2013-07-03T13:30:13Z</time>
      </trkpt>
      <trkpt lat="39.987583" lon="-4.750333">
        <ele>1888.0</ele>
        <time>2013-07-03T13:30:14Z</time>
      </trkpt>
      <trkpt lat="39.987517" lon="-4.750317">
        <ele>1889.0</ele>
        <time>2013-07-03T13:30:15Z</time>
      </trkpt>
      <trkpt lat="39.987433" lon="-4.750317">
        <ele>1890.0</ele>
        <time>2013-07-03T13:30:16Z</time>
      </trkpt>
      <trkpt lat="39.987367" lon="-4.750317">
        <ele>1891.0</ele>
        <time>2013-07-03T13:30:17Z</time>
      </trkpt>
      <trkpt lat="39.987283" lon="-4.750300">
        <ele>1892.0</ele>
        <time>2013-07-03T13:30:18Z</time>
      </trkpt>
      <trkpt lat="39.987233" lon="-4.750283">
        <ele>1893.0</ele>
        <time>2013-07-03T13:30:19Z</time>
      </trkpt>
      <trkpt lat="39.987167" lon="-4.750267">
        <ele>1893.0</ele>
        <time>2013-07-03T13:30:20Z</time>
      </trkpt>
      <trkpt lat="39.987100" lon="-4.750250">
        <ele>1892.0</ele>
        <time>2013-07-03T13:30:21Z</time>
      </trkpt>
      <trkpt lat="39.987033" lon="-4.750250">
        <ele>1891.0</ele>
        <time>2013-07-03T13:30:22Z</time>
      </trkpt>
      <trkpt lat="39.986967" lon="-4.750250">
        <ele>1889.0</ele>
        <time>2013-07-03T13:30:23Z</time>
      </trkpt>
      <trkpt lat="39.986917" lon="-4.750283">
        <ele>1888.0</ele>
        <time>2013-07-03T13:30:24Z</time>
      </trkpt>
      <trkpt lat="39.986883" lon="-4.750333">
        <ele>1886.0</ele>
        <time>2013-07-03T13:30:25Z</time>
      </trkpt>
      <trkpt lat="39.986867" lon="-4.750383">
        <ele>1886.0</ele>
        <time>2013-07-03T13:30:26Z</time>
      </trkpt>
      <trkpt lat="39.986867" lon="-4.750417">
        <ele>1885.0</ele>
        <time>2013-07-03T13:30:27Z</time>
      </trkpt>
      <trkpt lat="39.986883" lon="-4.750467">
        <ele>1883.0</ele>
        <time>2013-07-03T13:30:28Z</time>
      </trkpt>
      <trkpt lat="39.986900" lon="-4.750500">
        <ele>1881.0</ele>
        <time>2013-07-03T13:30:29Z</time>
      </trkpt>
      <trkpt lat="39.986950" lon="-4.750550">
        <ele>1878.0</ele>
        <time>2013-07-03T13:30:30Z</time>
      </trkpt>
      <trkpt lat="39.987000" lon="-4.750567">
        <ele>1875.0</ele>
        <time>2013-07-03T13:30:31Z</time>
      </trkpt>
      <trkpt lat="39.987083" lon="-4.750583">
        <ele>1872.0</ele>
        <time>2013-07-03T13:30:32Z</time>
      </trkpt>
      <trkpt lat="39.987167" lon="-4.750567">
        <ele>1870.0</ele>
        <time>2013-07-03T13:30:33Z</time>
      </trkpt>
      <trkpt lat="39.987267" lon="-4.750533">
        <ele>1868.0</ele>
        <time>2013-07-03T13:30:34Z</time>
      </trkpt>
      <trkpt lat="39.987367" lon="-4.750483">
        <ele>1867.0</ele>
        <time>2013-07-03T13:30:35Z</time>
      </trkpt>
      <trkpt lat="39.987450" lon="-4.750450">
        <ele>1866.0</ele>
        <time>2013-07-03T13:30:36Z</time>
      </trkpt>
      <trkpt lat="39.987533" lon="-4.750417">
        <ele>1867.0</ele>
        <time>2013-07-03T13:30:37Z</time>
      </trkpt>
      <trkpt lat="39.987617" lon="-4.750367">
        <ele>1868.0</ele>
        <time>2013-07-03T13:30:38Z</time>
      </trkpt>
      <trkpt lat="39.987683" lon="-4.750317">
        <ele>1869.0</ele>
        <time>2013-07-03T13:30:39Z</time>
      </trkpt>
      <trkpt lat="39.987733" lon="-4.750250">
        <ele>1870.0</ele>
        <time>2013-07-03T13:30:40Z</time>
      </trkpt>
      <trkpt lat="39.987783" lon="-4.750200">
        <ele>1872.0</ele>
        <time>2013-07-03T13:30:41Z</time>
      </trkpt>
      <trkpt lat="39.987850" lon="-4.750167">
        <ele>1874.0</ele>
        <time>2013-07-03T13:30:42Z</time>
      </trkpt>
      <trkpt lat="39.987900" lon="-4.750133">
        <ele>1876.0</ele>
        <time>2013-07-03T13:30:43Z</time>
      </trkpt>
      <trkpt lat="39.987950" lon="-4.750083">
        <ele>1878.0</ele>
        <time>2013-07-03T13:30:44Z</time>
      </trkpt>
      <trkpt lat="39.988000" lon="-4.750017">
        <ele>1878.0</ele>
        <time>2013-07-03T13:30:45Z</time>
      </trkpt>
      <trkpt lat="39.988050" lon="-4.749967">
        <ele>1879.0</ele>
        <time>2013-07-03T13:30:46Z</time>
      </trkpt>
      <trkpt lat="39.988117" lon="-4.749933">
        <ele>1880.0</ele>
        <time>2013-07-03T13:30:47Z</time>
      </trkpt>
      <trkpt lat="39.988167" lon="-4.749933">
        <ele>1881.0</ele>
        <time>2013-07-03T13:30:48Z</time>
      </trkpt>
      <trkpt lat="39.988217" lon="-4.749933">
        <ele>1882.0</ele>
        <time>2013-07-03T13:30:49Z</time>
      </trkpt>
      <trkpt lat="39.988250" lon="-4.749967">
        <ele>1883.0</ele>
        <time>2013-07-03T13:30:50Z</time>
      </trkpt>
      <trkpt lat="39.988267" lon="-4.750017">
        <ele>1883.0</ele>
        <time>2013-07-03T13:30:51Z</time>
      </trkpt>
      <trkpt lat="39.988267" lon="-4.750083">
        <ele>1884.0</ele>
        <time>2013-07-03T13:30:52Z</time>
      </trkpt>
      <trkpt lat="39.988250" lon="-4.750133">
        <ele>1885.0</ele>
        <time>2013-07-03T13:30:53Z</time>
      </trkpt>
      <trkpt lat="39.988200" lon="-4.750200">
        <ele>1886.0</ele>
        <time>2013-07-03T13:30:54Z</time>
      </trkpt>
      <trkpt lat="39.988150" lon="-4.750233">
        <ele>1887.0</ele>
        <time>2013-07-03T13:30:55Z</time>
      </trkpt>
      <trkpt lat="39.988067" lon="-4.750250">
        <ele>1889.0</ele>
        <time>2013-07-03T13:30:56Z</time>
      </trkpt>
      <trkpt lat="39.988000" lon="-4.750267">
        <ele>1891.0</ele>
        <time>2013-07-03T13:30:57Z</time>
      </trkpt>
      <trkpt lat="39.987933" lon="-4.750250">
        <ele>1892.0</ele>
        <time>2013-07-03T13:30:58Z</time>
      </trkpt>
      <trkpt lat="39.987867" lon="-4.750217">
        <ele>1894.0</ele>
        <time>2013-07-03T13:30:59Z</time>
      </trkpt>
      <trkpt lat="39.987800" lon="-4.750183">
        <ele>1895.0</ele>
        <time>2013-07-03T13:31:00Z</time>
      </trkpt>
      <trkpt lat="39.987733" lon="-4.750117">
        <ele>1896.0</ele>
        <time>2013-07-03T13:31:01Z</time>
      </trkpt>
      <trkpt lat="39.987683" lon="-4.750033">
        <ele>1896.0</ele>
        <time>2013-07-03T13:31:02Z</time>
      </trkpt>
      <trkpt lat="39.987667" lon="-4.749917">
        <ele>1895.0</ele>
        <time>2013-07-03T13:31:03Z</time>
      </trkpt>
      <trkpt lat="39.987667" lon="-4.749767">
        <ele>1894.0</ele>
        <time>2013-07-03T13:31:04Z</time>
      </trkpt>
      <trkpt lat="39.987700" lon="-4.749633">
        <ele>1892.0</ele>
        <time>2013-07-03T13:31:05Z</time>
      </trkpt>
      <trkpt lat="39.987783" lon="-4.749500">
        <ele>1892.0</ele>
        <time>2013-07-03T13:31:06Z</time>
      </trkpt>
      <trkpt lat="39.987867" lon="-4.749433">
        <ele>1894.0</ele>
        <time>2013-07-03T13:31:07Z</time>
      </trkpt>
      <trkpt lat="39.987967" lon="-4.749400">
        <ele>1895.0</ele>
        <time>2013-07-03T13:31:08Z</time>
      </trkpt>
      <trkpt lat="39.988017" lon="-4.749417">
        <ele>1899.0</ele>
        <time>2013-07-03T13:31:09Z</time>
      </trkpt>
      <trkpt lat="39.988067" lon="-4.749433">
        <ele>1902.0</ele>
        <time>2013-07-03T13:31:10Z</time>
      </trkpt>
      <trkpt lat="39.988100" lon="-4.749433">
        <ele>1904.0</ele>
        <time>2013-07-03T13:31:11Z</time>
      </trkpt>
      <trkpt lat="39.988133" lon="-4.749433">
        <ele>1905.0</ele>
        <time>2013-07-03T13:31:12Z</time>
      </trkpt>
      <trkpt lat="39.988183" lon="-4.749467">
        <ele>1904.0</ele>
        <time>2013-07-03T13:31:13Z</time>
      </trkpt>
      <trkpt lat="39.988217" lon="-4.749533">
        <ele>1904.0</ele>
        <time>2013-07-03T13:31:14Z</time>
      </trkpt>
      <trkpt lat="39.988217" lon="-4.749617">
        <ele>1905.0</ele>
        <time>2013-07-03T13:31:15Z</time>
      </trkpt>
      <trkpt lat="39.988200" lon="-4.749683">
        <ele>1907.0</ele>
        <time>2013-07-03T13:31:16Z</time>
      </trkpt>
      <trkpt lat="39.988167" lon="-4.749733">
        <ele>1909.0</ele>
        <time>2013-07-03T13:31:17Z</time>
      </trkpt>
      <trkpt lat="39.988150" lon="-4.749783">
        <ele>1912.0</ele>
        <time>2013-07-03T13:31:18Z</time>
      </trkpt>
      <trkpt lat="39.988133" lon="-4.749817">
        <ele>1914.0</ele>
        <time>2013-07-03T13:31:19Z</time>
      </trkpt>
      <trkpt lat="39.988100" lon="-4.749850">
        <ele>1916.0</ele>
        <time>2013-07-03T13:31:20Z</time>
      </trkpt>
      <trkpt lat="39.988050" lon="-4.749867">
        <ele>1917.0</ele>
        <time>2013-07-03T13:31:21Z</time>
      </trkpt>
      <trkpt lat="39.987967" lon="-4.749867">
        <ele>1918.0</ele>
        <time>2013-07-03T13:31:22Z</time>
      </trkpt>
      <trkpt lat="39.987900" lon="-4.749850">
        <ele>1919.0</ele>
        <time>2013-07-03T13:31:23Z</time>
      </trkpt>
      <trkpt lat="39.987833" lon="-4.749800">
        <ele>1921.0</ele>
        <time>2013-07-03T13:31:24Z</time>
      </trkpt>
      <trkpt lat="39.987767" lon="-4.749733">
        <ele>1922.0</ele>
        <time>2013-07-03T13:31:25Z</time>
      </trkpt>
      <trkpt lat="39.987700" lon="-4.749650">
        <ele>1923.0</ele>
        <time>2013-07-03T13:31:26Z</time>
      </trkpt>
      <trkpt lat="39.987633" lon="-4.749550">
        <ele>1924.0</ele>
        <time>2013-07-03T13:31:27Z</time>
      </trkpt>
      <trkpt lat="39.987600" lon="-4.749417">
        <ele>1924.0</ele>
        <time>2013-07-03T13:31:28Z</time>
      </trkpt>
      <trkpt lat="39.987600" lon="-4.749283">
        <ele>1926.0</ele>
        <time>2013-07-03T13:31:29Z</time>
      </trkpt>
      <trkpt lat="39.987600" lon="-4.749150">
        <ele>1927.0</ele>
        <time>2013-07-03T13:31:30Z</time>
      </trkpt>
      <trkpt lat="39.987633" lon="-4.749033">
        <ele>1928.0</ele>
        <time>2013-07-03T13:31:31Z</time>
      </trkpt>
      <trkpt lat="39.987667" lon="-4.748917">
        <ele>1930.0</ele>
        <time>2013-07-03T13:31:32Z</time>
      </trkpt>
      <trkpt lat="39.987733" lon="-4.748817">
        <ele>1931.0</ele>
        <time>2013-07-03T13:31:33Z</time>
      </trkpt>
      <trkpt lat="39.987817" lon="-4.748733">
        <ele>1933.0</ele>
        <time>2013-07-03T13:31:34Z</time>
      </trkpt>
      <trkpt lat="39.987900" lon="-4.748683">
        <ele>1935.0</ele>
        <time>2013-07-03T13:31:35Z</time>
      </trkpt>
      <trkpt lat="39.987967" lon="-4.748683">
        <ele>1938.0</ele>
        <time>2013-07-03T13:31:36Z</time>
      </trkpt>
      <trkpt lat="39.988017" lon="-4.748700">
        <ele>1940.0</ele>
        <time>2013-07-03T13:31:37Z</time>
      </trkpt>
      <trkpt lat="39.988050" lon="-4.748717">
        <ele>1942.0</ele>
        <time>2013-07-03T13:31:38Z</time>
      </trkpt>
      <trkpt lat="39.988083" lon="-4.748767">
        <ele>1943.0</ele>
        <time>2013-07-03T13:31:39Z</time>
      </trkpt>
      <trkpt lat="39.988133" lon="-4.748800">
        <ele>1945.0</ele>
        <time>2013-07-03T13:31:40Z</time>
      </trkpt>
      <trkpt lat="39.988150" lon="-4.748867">
        <ele>1946.0</ele>
        <time>2013-07-03T13:31:41Z</time>
      </trkpt>
      <trkpt lat="39.988150" lon="-4.748933">
        <ele>1947.0</ele>
        <time>2013-07-03T13:31:42Z</time>
      </trkpt>
      <trkpt lat="39.988117" lon="-4.749000">
        <ele>1949.0</ele>
        <time>2013-07-03T13:31:43Z</time>
      </trkpt>
      <trkpt lat="39.988083" lon="-4.749033">
        <ele>1950.0</ele>
        <time>2013-07-03T13:31:44Z</time>
      </trkpt>
      <trkpt lat="39.988033" lon="-4.749067">
        <ele>1952.0</ele>
        <time>2013-07-03T13:31:45Z</time>
      </trkpt>
      <trkpt lat="39.987983" lon="-4.749100">
        <ele>1954.0</ele>
        <time>2013-07-03T13:31:46Z</time>
      </trkpt>
      <trkpt lat="39.987933" lon="-4.749117">
        <ele>1956.0</ele>
        <time>2013-07-03T13:31:47Z</time>
      </trkpt>
      <trkpt lat="39.987883" lon="-4.749117">
        <ele>1957.0</ele>
        <time>2013-07-03T13:31:48Z</time>
      </trkpt>
      <trkpt lat="39.987817" lon="-4.749117">
        <ele>1957.0</ele>
        <time>2013-07-03T13:31:49Z</time>
      </trkpt>
      <trkpt lat="39.987733" lon="-4.749067">
        <ele>1956.0</ele>
        <time>2013-07-03T13:31:50Z</time>
      </trkpt>
      <trkpt lat="39.987667" lon="-4.748983">
        <ele>1956.0</ele>
        <time>2013-07-03T13:31:51Z</time>
      </trkpt>
      <trkpt lat="39.987600" lon="-4.748867">
        <ele>1955.0</ele>
        <time>2013-07-03T13:31:52Z</time>
      </trkpt>
      <trkpt lat="39.987567" lon="-4.748733">
        <ele>1955.0</ele>
        <time>2013-07-03T13:31:53Z</time>
      </trkpt>
      <trkpt lat="39.987550" lon="-4.748583">
        <ele>1956.0</ele>
        <time>2013-07-03T13:31:54Z</time>
      </trkpt>
      <trkpt lat="39.987567" lon="-4.748433">
        <ele>1958.0</ele>
        <time>2013-07-03T13:31:55Z</time>
      </trkpt>
      <trkpt lat="39.987583" lon="-4.748300">
        <ele>1961.0</ele>
        <time>2013-07-03T13:31:56Z</time>
      </trkpt>
      <trkpt lat="39.987600" lon="-4.748183">
        <ele>1964.0</ele>
        <time>2013-07-03T13:31:57Z</time>
      </trkpt>
      <trkpt lat="39.987633" lon="-4.748067">
        <ele>1967.0</ele>
        <time>2013-07-03T13:31:58Z</time>
      </trkpt>
      <trkpt lat="39.987683" lon="-4.747950">
        <ele>1969.0</ele>
        <time>2013-07-03T13:31:59Z</time>
      </trkpt>
      <trkpt lat="39.987750" lon="-4.747850">
        <ele>1970.0</ele>
        <time>2013-07-03T13:32:00Z</time>
      </trkpt>
      <trkpt lat="39.987817" lon="-4.747750">
        <ele>1971.0</ele>
        <time>2013-07-03T13:32:01Z</time>
      </trkpt>
      <trkpt lat="39.987883" lon="-4.747667">
        <ele>1972.0</ele>
        <time>2013-07-03T13:32:02Z</time>
      </trkpt>
      <trkpt lat="39.987950" lon="-4.747600">
        <ele>1974.0</ele>
        <time>2013-07-03T13:32:03Z</time>
      </trkpt>
      <trkpt lat="39.988017" lon="-4.747567">
        <ele>1976.0</ele>
        <time>2013-07-03T13:32:04Z</time>
      </trkpt>
      <trkpt lat="39.988067" lon="-4.747533">
        <ele>1978.0</ele>
        <time>2013-07-03T13:32:05Z</time>
      </trkpt>
      <trkpt lat="39.988117" lon="-4.747500">
        <ele>1979.0</ele>
        <time>2013-07-03T13:32:06Z</time>
      </trkpt>
      <trkpt lat="39.988183" lon="-4.747500">
        <ele>1980.0</ele>
        <time>2013-07-03T13:32:07Z</time>
      </trkpt>
      <trkpt lat="39.988233" lon="-4.747500">
        <ele>1981.0</ele>
        <time>2013-07-03T13:32:08Z</time>
      </trkpt>
      <trkpt lat="39.988283" lon="-4.747550">
        <ele>1981.0</ele>
        <time>2013-07-03T13:32:09Z</time>
      </trkpt>
      <trkpt lat="39.988317" lon="-4.747600">
        <ele>1983.0</ele>
        <time>2013-07-03T13:32:10Z</time>
      </trkpt>
      <trkpt lat="39.988300" lon="-4.747650">
        <ele>1984.0</ele>
        <time>2013-07-03T13:32:11Z</time>
      </trkpt>
      <trkpt lat="39.988283" lon="-4.747683">
        <ele>1985.0</ele>
        <time>2013-07-03T13:32:12Z</time>
      </trkpt>
      <trkpt lat="39.988233" lon="-4.747717">
        <ele>1987.0</ele>
        <time>2013-07-03T13:32:13Z</time>
      </trkpt>
      <trkpt lat="39.988200" lon="-4.747733">
        <ele>1988.0</ele>
        <time>2013-07-03T13:32:14Z</time>
      </trkpt>
      <trkpt lat="39.988150" lon="-4.747750">
        <ele>1988.0</ele>
        <time>2013-07-03T13:32:15Z</time>
      </trkpt>
      <trkpt lat="39.988083" lon="-4.747767">
        <ele>1987.0</ele>
        <time>2013-07-03T13:32:16Z</time>
      </trkpt>
      <trkpt lat="39.988017" lon="-4.747750">
        <ele>1988.0</ele>
        <time>2013-07-03T13:32:17Z</time>
      </trkpt>
      <trkpt lat="39.987933" lon="-4.747733">
        <ele>1989.0</ele>
        <time>2013-07-03T13:32:18Z</time>
      </trkpt>
      <trkpt lat="39.987867" lon="-4.747700">
        <ele>1991.0</ele>
        <time>2013-07-03T13:32:19Z</time>
      </trkpt>
      <trkpt lat="39.987800" lon="-4.747633">
        <ele>1994.0</ele>
        <time>2013-07-03T13:32:20Z</time>
      </trkpt>
      <trkpt lat="39.987767" lon="-4.747567">
        <ele>1996.0</ele>
        <time>2013-07-03T13:32:21Z</time>
      </trkpt>
      <trkpt lat="39.987717" lon="-4.747467">
        <ele>1997.0</ele>
        <time>2013-07-03T13:32:22Z</time>
      </trkpt>
      <trkpt lat="39.987667" lon="-4.747367">
        <ele>1998.0</ele>
        <time>2013-07-03T13:32:23Z</time>
      </trkpt>
      <trkpt lat="39.987617" lon="-4.747250">
        <ele>1999.0</ele>
        <time>2013-07-03T13:32:24Z</time>
      </trkpt>
      <trkpt lat="39.987583" lon="-4.747117">
        <ele>2000.0</ele>
        <time>2013-07-03T13:32:25Z</time>
      </trkpt>
      <trkpt lat="39.987583" lon="-4.746950">
        <ele>2001.0</ele>
        <time>2013-07-03T13:32:26Z</time>
      </trkpt>
      <trkpt lat="39.987617" lon="-4.746817">
        <ele>2001.0</ele>
        <time>2013-07-03T13:32:27Z</time>
      </trkpt>
      <trkpt lat="39.987667" lon="-4.746683">
        <ele>2002.0</ele>
        <time>2013-07-03T13:32:28Z</time>
      </trkpt>
      <trkpt lat="39.987733" lon="-4.746550">
        <ele>2003.0</ele>
        <time>2013-07-03T13:32:29Z</time>
      </trkpt>
      <trkpt lat="39.987767" lon="-4.746450">
        <ele>2006.0</ele>
        <time>2013-07-03T13:32:30Z</time>
      </trkpt>
      <trkpt lat="39.987817" lon="-4.746350">
        <ele>2007.0</ele>
        <time>2013-07-03T13:32:31Z</time>
      </trkpt>
      <trkpt lat="39.987867" lon="-4.746283">
        <ele>2008.0</ele>
        <time>2013-07-03T13:32:32Z</time>
      </trkpt>
      <trkpt lat="39.987933" lon="-4.746217">
        <ele>2008.0</ele>
        <time>2013-07-03T13:32:33Z</time>
      </trkpt>
      <trkpt lat="39.988000" lon="-4.746150">
        <ele>2008.0</ele>
        <time>2013-07-03T13:32:34Z</time>
      </trkpt>
      <trkpt lat="39.988067" lon="-4.746133">
        <ele>2008.0</ele>
        <time>2013-07-03T13:32:35Z</time>
      </trkpt>
      <trkpt lat="39.988133" lon="-4.746167">
        <ele>2008.0</ele>
        <time>2013-07-03T13:32:36Z</time>
      </trkpt>
      <trkpt lat="39.988167" lon="-4.746233">
        <ele>2009.0</ele>
        <time>2013-07-03T13:32:37Z</time>
      </trkpt>
      <trkpt lat="39.988183" lon="-4.746283">
        <ele>2011.0</ele>
        <time>2013-07-03T13:32:38Z</time>
      </trkpt>
      <trkpt lat="39.988183" lon="-4.746333">
        <ele>2013.0</ele>
        <time>2013-07-03T13:32:39Z</time>
      </trkpt>
      <trkpt lat="39.988167" lon="-4.746350">
        <ele>2016.0</ele>
        <time>2013-07-03T13:32:40Z</time>
      </trkpt>
      <trkpt lat="39.988150" lon="-4.746350">
        <ele>2017.0</ele>
        <time>2013-07-03T13:32:41Z</time>
      </trkpt>
      <trkpt lat="39.988117" lon="-4.746367">
        <ele>2017.0</ele>
        <time>2013-07-03T13:32:42Z</time>
      </trkpt>
      <trkpt lat="39.988083" lon="-4.746400">
        <ele>2015.0</ele>
        <time>2013-07-03T13:32:43Z</time>
      </trkpt>
      <trkpt lat="39.988050" lon="-4.746450">
        <ele>2015.0</ele>
        <time>2013-07-03T13:32:44Z</time>
      </trkpt>
      <trkpt lat="39.988000" lon="-4.746467">
        <ele>2016.0</ele>
        <time>2013-07-03T13:32:45Z</time>
      </trkpt>
      <trkpt lat="39.987950" lon="-4.746483">
        <ele>2017.0</ele>
        <time>2013-07-03T13:32:46Z</time>
      </trkpt>
      <trkpt lat="39.987900" lon="-4.746483">
        <ele>2018.0</ele>
        <time>2013-07-03T13:32:47Z</time>
      </trkpt>
      <trkpt lat="39.987850" lon="-4.746483">
        <ele>2018.0</ele>
        <time>2013-07-03T13:32:48Z</time>
      </trkpt>
      <trkpt lat="39.987800" lon="-4.746483">
        <ele>2020.0</ele>
        <time>2013-07-03T13:32:49Z</time>
      </trkpt>
      <trkpt lat="39.987750" lon="-4.746467">
        <ele>2020.0</ele>
        <time>2013-07-03T13:32:50Z</time>
      </trkpt>
      <trkpt lat="39.987683" lon="-4.746450">
        <ele>2021.0</ele>
        <time>2013-07-03T13:32:51Z</time>
      </trkpt>
      <trkpt lat="39.987617" lon="-4.746400">
        <ele>2022.0</ele>
        <time>2013-07-03T13:32:52Z</time>
      </trkpt>
      <trkpt lat="39.987550" lon="-4.746317">
        <ele>2023.0</ele>
        <time>2013-07-03T13:32:53Z</time>
      </trkpt>
      <trkpt lat="39.987483" lon="-4.746233">
        <ele>2024.0</ele>
        <time>2013-07-03T13:32:54Z</time>
      </trkpt>
      <trkpt lat="39.987433" lon="-4.746150">
        <ele>2026.0</ele>
        <time>2013-07-03T13:32:55Z</time>
      </trkpt>
      <trkpt lat="39.987383" lon="-4.746050">
        <ele>2027.0</ele>
        <time>2013-07-03T13:32:56Z</time>
      </trkpt>
      <trkpt lat="39.987350" lon="-4.745933">
        <ele>2029.0</ele>
        <time>2013-07-03T13:32:57Z</time>
      </trkpt>
      <trkpt lat="39.987317" lon="-4.745800">
        <ele>2030.0</ele>
        <time>2013-07-03T13:32:58Z</time>
      </trkpt>
      <trkpt lat="39.987300" lon="-4.745667">
        <ele>2031.0</ele>
        <time>2013-07-03T13:32:59Z</time>
      </trkpt>
      <trkpt lat="39.987300" lon="-4.745517">
        <ele>2031.0</ele>
        <time>2013-07-03T13:33:00Z</time>
      </trkpt>
      <trkpt lat="39.987300" lon="-4.745383">
        <ele>2032.0</ele>
        <time>2013-07-03T13:33:01Z</time>
      </trkpt>
      <trkpt lat="39.987300" lon="-4.745233">
        <ele>2033.0</ele>
        <time>2013-07-03T13:33:02Z</time>
      </trkpt>
      <trkpt lat="39.987317" lon="-4.745100">
        <ele>2034.0</ele>
        <time>2013-07-03T13:33:03Z</time>
      </trkpt>
      <trkpt lat="39.987350" lon="-4.744967">
        <ele>2035.0</ele>
        <time>2013-07-03T13:33:04Z</time>
      </trkpt>
      <trkpt lat="39.987400" lon="-4.744850">
        <ele>2036.0</ele>
        <time>2013-07-03T13:33:05Z</time>
      </trkpt>
      <trkpt lat="39.987450" lon="-4.744750">
        <ele>2036.0</ele>
        <time>2013-07-03T13:33:06Z</time>
      </trkpt>
      <trkpt lat="39.987517" lon="-4.744650">
        <ele>2036.0</ele>
        <time>2013-07-03T13:33:07Z</time>
      </trkpt>
      <trkpt lat="39.987583" lon="-4.744550">
        <ele>2037.0</ele>
        <time>2013-07-03T13:33:08Z</time>
      </trkpt>
      <trkpt lat="39.987650" lon="-4.744467">
        <ele>2038.0</ele>
        <time>2013-07-03T13:33:09Z</time>
      </trkpt>
      <trkpt lat="39.987717" lon="-4.744400">
        <ele>2039.0</ele>
        <time>2013-07-03T13:33:10Z</time>
      </trkpt>
      <trkpt lat="39.987800" lon="-4.744367">
        <ele>2039.0</ele>
        <time>2013-07-03T13:33:11Z</time>
      </trkpt>
      <trkpt lat="39.987850" lon="-4.744350">
        <ele>2040.0</ele>
        <time>2013-07-03T13:33:12Z</time>
      </trkpt>
      <trkpt lat="39.987917" lon="-4.744350">
        <ele>2039.0</ele>
        <time>2013-07-03T13:33:13Z</time>
      </trkpt>
      <trkpt lat="39.987967" lon="-4.744367">
        <ele>2039.0</ele>
        <time>2013-07-03T13:33:14Z</time>
      </trkpt>
      <trkpt lat="39.988000" lon="-4.744400">
        <ele>2039.0</ele>
        <time>2013-07-03T13:33:15Z</time>
      </trkpt>
      <trkpt lat="39.988017" lon="-4.744450">
        <ele>2040.0</ele>
        <time>2013-07-03T13:33:16Z</time>
      </trkpt>
      <trkpt lat="39.988017" lon="-4.744483">
        <ele>2040.0</ele>
        <time>2013-07-03T13:33:17Z</time>
      </trkpt>
      <trkpt lat="39.988017" lon="-4.744517">
        <ele>2041.0</ele>
        <time>2013-07-03T13:33:18Z</time>
      </trkpt>
      <trkpt lat="39.988000" lon="-4.744550">
        <ele>2041.0</ele>
        <time>2013-07-03T13:33:19Z</time>
      </trkpt>
      <trkpt lat="39.987983" lon="-4.744583">
        <ele>2039.0</ele>
        <time>2013-07-03T13:33:20Z</time>
      </trkpt>
      <trkpt lat="39.987967" lon="-4.744633">
        <ele>2039.0</ele>
        <time>2013-07-03T13:33:21Z</time>
      </trkpt>
      <trkpt lat="39.987917" lon="-4.744667">
        <ele>2040.0</ele>
        <time>2013-07-03T13:33:22Z</time>
      </trkpt>
      <trkpt lat="39.987867" lon="-4.744700">
        <ele>2041.0</ele>
        <time>2013-07-03T13:33:23Z</time>
      </trkpt>
      <trkpt lat="39.987800" lon="-4.744717">
        <ele>2043.0</ele>
        <time>2013-07-03T13:33:24Z</time>
      </trkpt>
      <trkpt lat="39.987767" lon="-4.744700">
        <ele>2044.0</ele>
        <time>2013-07-03T13:33:25Z</time>
      </trkpt>
      <trkpt lat="39.987717" lon="-4.744683">
        <ele>2045.0</ele>
        <time>2013-07-03T13:33:26Z</time>
      </trkpt>
      <trkpt lat="39.987667" lon="-4.744683">
        <ele>2045.0</ele>
        <time>2013-07-03T13:33:27Z</time>
      </trkpt>
      <trkpt lat="39.987617" lon="-4.744667">
        <ele>2045.0</ele>
        <time>2013-07-03T13:33:28Z</time>
      </trkpt>
      <trkpt lat="39.987550" lon="-4.744667">
        <ele>2045.0</ele>
        <time>2013-07-03T13:33:29Z</time>
      </trkpt>
      <trkpt lat="39.987483" lon="-4.744633">
        <ele>2045.0</ele>
        <time>2013-07-03T13:33:30Z</time>
      </trkpt>
      <trkpt lat="39.987417" lon="-4.744583">
        <ele>2045.0</ele>
        <time>2013-07-03T13:33:31Z</time>
      </trkpt>
      <trkpt lat="39.987367" lon="-4.744517">
        <ele>2044.0</ele>
        <time>2013-07-03T13:33:32Z</time>
      </trkpt>
      <trkpt lat="39.987317" lon="-4.744417">
        <ele>2043.0</ele>
        <time>2013-07-03T13:33:33Z</time>
      </trkpt>
      <trkpt lat="39.987250" lon="-4.744333">
        <ele>2043.0</ele>
        <time>2013-07-03T13:33:34Z</time>
      </trkpt>
      <trkpt lat="39.987183" lon="-4.744267">
        <ele>2042.0</ele>
        <time>2013-07-03T13:33:35Z</time>
      </trkpt>
      <trkpt lat="39.987117" lon="-4.744200">
        <ele>2043.0</ele>
        <time>2013-07-03T13:33:36Z</time>
      </trkpt>
      <trkpt lat="39.987033" lon="-4.744150">
        <ele>2042.0</ele>
        <time>2013-07-03T13:33:37Z</time>
      </trkpt>
      <trkpt lat="39.986983" lon="-4.744100">
        <ele>2042.0</ele>
        <time>2013-07-03T13:33:38Z</time>
      </trkpt>
      <trkpt lat="39.986900" lon="-4.744033">
        <ele>2042.0</ele>
        <time>2013-07-03T13:33:39Z</time>
      </trkpt>
      <trkpt lat="39.986833" lon="-4.743967">
        <ele>2041.0</ele>
        <time>2013-07-03T13:33:40Z</time>
      </trkpt>
      <trkpt lat="39.986750" lon="-4.743883">
        <ele>2041.0</ele>
        <time>2013-07-03T13:33:41Z</time>
      </trkpt>
      <trkpt lat="39.986683" lon="-4.743783">
        <ele>2041.0</ele>
        <time>2013-07-03T13:33:42Z</time>
      </trkpt>
      <trkpt lat="39.986633" lon="-4.743683">
        <ele>2042.0</ele>
        <time>2013-07-03T13:33:43Z</time>
      </trkpt>
      <trkpt lat="39.986583" lon="-4.743567">
        <ele>2042.0</ele>
        <time>2013-07-03T13:33:44Z</time>
      </trkpt>
      <trkpt lat="39.986567" lon="-4.743433">
        <ele>2042.0</ele>
        <time>2013-07-03T13:33:45Z</time>
      </trkpt>
      <trkpt lat="39.986567" lon="-4.743283">
        <ele>2043.0</ele>
        <time>2013-07-03T13:33:46Z</time>
      </trkpt>
      <trkpt lat="39.986583" lon="-4.743133">
        <ele>2044.0</ele>
        <time>2013-07-03T13:33:47Z</time>
      </trkpt>
      <trkpt lat="39.986617" lon="-4.743017">
        <ele>2046.0</ele>
        <time>2013-07-03T13:33:48Z</time>
      </trkpt>
      <trkpt lat="39.986650" lon="-4.742917">
        <ele>2048.0</ele>
        <time>2013-07-03T13:33:49Z</time>
      </trkpt>
      <trkpt lat="39.986683" lon="-4.742833">
        <ele>2048.0</ele>
        <time>2013-07-03T13:33:50Z</time>
      </trkpt>
      <trkpt lat="39.986733" lon="-4.742767">
        <ele>2048.0</ele>
        <time>2013-07-03T13:33:51Z</time>
      </trkpt>
      <trkpt lat="39.986800" lon="-4.742700">
        <ele>2047.0</ele>
        <time>2013-07-03T13:33:52Z</time>
      </trkpt>
      <trkpt lat="39.986883" lon="-4.742633">
        <ele>2046.0</ele>
        <time>2013-07-03T13:33:53Z</time>
      </trkpt>
      <trkpt lat="39.986967" lon="-4.742567">
        <ele>2046.0</ele>
        <time>2013-07-03T13:33:54Z</time>
      </trkpt>
      <trkpt lat="39.987033" lon="-4.742533">
        <ele>2046.0</ele>
        <time>2013-07-03T13:33:55Z</time>
      </trkpt>
      <trkpt lat="39.987100" lon="-4.742500">
        <ele>2046.0</ele>
        <time>2013-07-03T13:33:56Z</time>
      </trkpt>
      <trkpt lat="39.987167" lon="-4.742500">
        <ele>2044.0</ele>
        <time>2013-07-03T13:33:57Z</time>
      </trkpt>
      <trkpt lat="39.987233" lon="-4.742500">
        <ele>2043.0</ele>
        <time>2013-07-03T13:33:58Z</time>
      </trkpt>
      <trkpt lat="39.987283" lon="-4.742517">
        <ele>2042.0</ele>
        <time>2013-07-03T13:33:59Z</time>
      </trkpt>
      <trkpt lat="39.987333" lon="-4.742550">
        <ele>2040.0</ele>
        <time>2013-07-03T13:34:00Z</time>
      </trkpt>
      <trkpt lat="39.987367" lon="-4.742583">
        <ele>2039.0</ele>
        <time>2013-07-03T13:34:01Z</time>
      </trkpt>
      <trkpt lat="39.987400" lon="-4.742650">
        <ele>2038.0</ele>
        <time>2013-07-03T13:34:02Z</time>
      </trkpt>
      <trkpt lat="39.987417" lon="-4.742717">
        <ele>2038.0</ele>
        <time>2013-07-03T13:34:03Z</time>
      </trkpt>
      <trkpt lat="39.987450" lon="-4.742783">
        <ele>2037.0</ele>
        <time>2013-07-03T13:34:04Z</time>
      </trkpt>
      <trkpt lat="39.987467" lon="-4.742833">
        <ele>2037.0</ele>
        <time>2013-07-03T13:34:05Z</time>
      </trkpt>
      <trkpt lat="39.987467" lon="-4.742883">
        <ele>2037.0</ele>
        <time>2013-07-03T13:34:06Z</time>
      </trkpt>
      <trkpt lat="39.987483" lon="-4.742950">
        <ele>2037.0</ele>
        <time>2013-07-03T13:34:07Z</time>
      </trkpt>
      <trkpt lat="39.987483" lon="-4.743017">
        <ele>2039.0</ele>
        <time>2013-07-03T13:34:08Z</time>
      </trkpt>
      <trkpt lat="39.987483" lon="-4.743083">
        <ele>2040.0</ele>
        <time>2013-07-03T13:34:09Z</time>
      </trkpt>
      <trkpt lat="39.987483" lon="-4.743133">
        <ele>2042.0</ele>
        <time>2013-07-03T13:34:10Z</time>
      </trkpt>
      <trkpt lat="39.987483" lon="-4.743167">
        <ele>2044.0</ele>
        <time>2013-07-03T13:34:11Z</time>
      </trkpt>
      <trkpt lat="39.987467" lon="-4.743183">
        <ele>2045.0</ele>
        <time>2013-07-03T13:34:12Z</time>
      </trkpt>
      <trkpt lat="39.987450" lon="-4.743200">
        <ele>2045.0</ele>
        <time>2013-07-03T13:34:13Z</time>
      </trkpt>
      <trkpt lat="39.987400" lon="-4.743217">
        <ele>2045.0</ele>
        <time>2013-07-03T13:34:14Z</time>
      </trkpt>
      <trkpt lat="39.987350" lon="-4.743250">
        <ele>2045.0</ele>
        <time>2013-07-03T13:34:15Z</time>
      </trkpt>
      <trkpt lat="39.987283" lon="-4.743267">
        <ele>2046.0</ele>
        <time>2013-07-03T13:34:16Z</time>
      </trkpt>
      <trkpt lat="39.987217" lon="-4.743283">
        <ele>2047.0</ele>
        <time>2013-07-03T13:34:17Z</time>
      </trkpt>
      <trkpt lat="39.987150" lon="-4.743283">
        <ele>2049.0</ele>
        <time>2013-07-03T13:34:18Z</time>
      </trkpt>
      <trkpt lat="39.987083" lon="-4.743250">
        <ele>2049.0</ele>
        <time>2013-07-03T13:34:19Z</time>
      </trkpt>
      <trkpt lat="39.987017" lon="-4.743233">
        <ele>2050.0</ele>
        <time>2013-07-03T13:34:20Z</time>
      </trkpt>
      <trkpt lat="39.986950" lon="-4.743200">
        <ele>2051.0</ele>
        <time>2013-07-03T13:34:21Z</time>
      </trkpt>
      <trkpt lat="39.986867" lon="-4.743183">
        <ele>2050.0</ele>
        <time>2013-07-03T13:34:22Z</time>
      </trkpt>
      <trkpt lat="39.986800" lon="-4.743167">
        <ele>2051.0</ele>
        <time>2013-07-03T13:34:23Z</time>
      </trkpt>
      <trkpt lat="39.986717" lon="-4.743150">
        <ele>2051.0</ele>
        <time>2013-07-03T13:34:24Z</time>
      </trkpt>
      <trkpt lat="39.986650" lon="-4.743133">
        <ele>2052.0</ele>
        <time>2013-07-03T13:34:25Z</time>
      </trkpt>
      <trkpt lat="39.986567" lon="-4.743100">
        <ele>2053.0</ele>
        <time>2013-07-03T13:34:26Z</time>
      </trkpt>
      <trkpt lat="39.986483" lon="-4.743067">
        <ele>2054.0</ele>
        <time>2013-07-03T13:34:27Z</time>
      </trkpt>
      <trkpt lat="39.986417" lon="-4.743017">
        <ele>2054.0</ele>
        <time>2013-07-03T13:34:28Z</time>
      </trkpt>
      <trkpt lat="39.986333" lon="-4.742983">
        <ele>2055.0</ele>
        <time>2013-07-03T13:34:29Z</time>
      </trkpt>
      <trkpt lat="39.986267" lon="-4.742967">
        <ele>2055.0</ele>
        <time>2013-07-03T13:34:30Z</time>
      </trkpt>
      <trkpt lat="39.986183" lon="-4.742933">
        <ele>2055.0</ele>
        <time>2013-07-03T13:34:31Z</time>
      </trkpt>
      <trkpt lat="39.986117" lon="-4.742900">
        <ele>2056.0</ele>
        <time>2013-07-03T13:34:32Z</time>
      </trkpt>
      <trkpt lat="39.986033" lon="-4.742867">
        <ele>2057.0</ele>
        <time>2013-07-03T13:34:33Z</time>
      </trkpt>
      <trkpt lat="39.985967" lon="-4.742817">
        <ele>2057.0</ele>
        <time>2013-07-03T13:34:34Z</time>
      </trkpt>
      <trkpt lat="39.985900" lon="-4.742783">
        <ele>2057.0</ele>
        <time>2013-07-03T13:34:35Z</time>
      </trkpt>
      <trkpt lat="39.985817" lon="-4.742733">
        <ele>2057.0</ele>
        <time>2013-07-03T13:34:36Z</time>
      </trkpt>
      <trkpt lat="39.985733" lon="-4.742700">
        <ele>2057.0</ele>
        <time>2013-07-03T13:34:37Z</time>
      </trkpt>
      <trkpt lat="39.985650" lon="-4.742650">
        <ele>2057.0</ele>
        <time>2013-07-03T13:34:38Z</time>
      </trkpt>
      <trkpt lat="39.985550" lon="-4.742600">
        <ele>2057.0</ele>
        <time>2013-07-03T13:34:39Z</time>
      </trkpt>
      <trkpt lat="39.985467" lon="-4.742567">
        <ele>2057.0</ele>
        <time>2013-07-03T13:34:40Z</time>
      </trkpt>
      <trkpt lat="39.985367" lon="-4.742517">
        <ele>2057.0</ele>
        <time>2013-07-03T13:34:41Z</time>
      </trkpt>
      <trkpt lat="39.985283" lon="-4.742467">
        <ele>2058.0</ele>
        <time>2013-07-03T13:34:42Z</time>
      </trkpt>
      <trkpt lat="39.985200" lon="-4.742400">
        <ele>2059.0</ele>
        <time>2013-07-03T13:34:43Z</time>
      </trkpt>
      <trkpt lat="39.985133" lon="-4.742300">
        <ele>2060.0</ele>
        <time>2013-07-03T13:34:44Z</time>
      </trkpt>
      <trkpt lat="39.985067" lon="-4.742200">
        <ele>2060.0</ele>
        <time>2013-07-03T13:34:45Z</time>
      </trkpt>
      <trkpt lat="39.985017" lon="-4.742083">
        <ele>2061.0</ele>
        <time>2013-07-03T13:34:46Z</time>
      </trkpt>
      <trkpt lat="39.984950" lon="-4.741967">
        <ele>2061.0</ele>
        <time>2013-07-03T13:34:47Z</time>
      </trkpt>
      <trkpt lat="39.984883" lon="-4.741850">
        <ele>2062.0</ele>
        <time>2013-07-03T13:34:48Z</time>
      </trkpt>
      <trkpt lat="39.984833" lon="-4.741733">
        <ele>2063.0</ele>
        <time>2013-07-03T13:34:49Z</time>
      </trkpt>
      <trkpt lat="39.984800" lon="-4.741617">
        <ele>2064.0</ele>
        <time>2013-07-03T13:34:50Z</time>
      </trkpt>
      <trkpt lat="39.984750" lon="-4.741500">
        <ele>2063.0</ele>
        <time>2013-07-03T13:34:51Z</time>
      </trkpt>
      <trkpt lat="39.984700" lon="-4.741367">
        <ele>2063.0</ele>
        <time>2013-07-03T13:34:52Z</time>
      </trkpt>
      <trkpt lat="39.984650" lon="-4.741250">
        <ele>2063.0</ele>
        <time>2013-07-03T13:34:53Z</time>
      </trkpt>
      <trkpt lat="39.984583" lon="-4.741133">
        <ele>2064.0</ele>
        <time>2013-07-03T13:34:54Z</time>
      </trkpt>
      <trkpt lat="39.984533" lon="-4.741033">
        <ele>2065.0</ele>
        <time>2013-07-03T13:34:55Z</time>
      </trkpt>
      <trkpt lat="39.984500" lon="-4.740917">
        <ele>2066.0</ele>
        <time>2013-07-03T13:34:56Z</time>
      </trkpt>
      <trkpt lat="39.984467" lon="-4.740800">
        <ele>2066.0</ele>
        <time>2013-07-03T13:34:57Z</time>
      </trkpt>
      <trkpt lat="39.984450" lon="-4.740667">
        <ele>2066.0</ele>
        <time>2013-07-03T13:34:58Z</time>
      </trkpt>
      <trkpt lat="39.984433" lon="-4.740533">
        <ele>2066.0</ele>
        <time>2013-07-03T13:34:59Z</time>
      </trkpt>
      <trkpt lat="39.984417" lon="-4.740383">
        <ele>2067.0</ele>
        <time>2013-07-03T13:35:00Z</time>
      </trkpt>
      <trkpt lat="39.984417" lon="-4.740267">
        <ele>2069.0</ele>
        <time>2013-07-03T13:35:01Z</time>
      </trkpt>
      <trkpt lat="39.984400" lon="-4.740150">
        <ele>2070.0</ele>
        <time>2013-07-03T13:35:02Z</time>
      </trkpt>
      <trkpt lat="39.984400" lon="-4.740033">
        <ele>2072.0</ele>
        <time>2013-07-03T13:35:03Z</time>
      </trkpt>
      <trkpt lat="39.984383" lon="-4.739917">
        <ele>2074.0</ele>
        <time>2013-07-03T13:35:04Z</time>
      </trkpt>
      <trkpt lat="39.984400" lon="-4.739817">
        <ele>2076.0</ele>
        <time>2013-07-03T13:35:05Z</time>
      </trkpt>
      <trkpt lat="39.984400" lon="-4.739733">
        <ele>2078.0</ele>
        <time>2013-07-03T13:35:06Z</time>
      </trkpt>
      <trkpt lat="39.984433" lon="-4.739700">
        <ele>2078.0</ele>
        <time>2013-07-03T13:35:07Z</time>
      </trkpt>
      <trkpt lat="39.984467" lon="-4.739667">
        <ele>2077.0</ele>
        <time>2013-07-03T13:35:08Z</time>
      </trkpt>
      <trkpt lat="39.984517" lon="-4.739617">
        <ele>2077.0</ele>
        <time>2013-07-03T13:35:09Z</time>
      </trkpt>
      <trkpt lat="39.984567" lon="-4.739583">
        <ele>2074.0</ele>
        <time>2013-07-03T13:35:10Z</time>
      </trkpt>
      <trkpt lat="39.984633" lon="-4.739567">
        <ele>2074.0</ele>
        <time>2013-07-03T13:35:11Z</time>
      </trkpt>
      <trkpt lat="39.984683" lon="-4.739583">
        <ele>2073.0</ele>
        <time>2013-07-03T13:35:12Z</time>
      </trkpt>
      <trkpt lat="39.984717" lon="-4.739633">
        <ele>2072.0</ele>
        <time>2013-07-03T13:35:13Z</time>
      </trkpt>
      <trkpt lat="39.984733" lon="-4.739717">
        <ele>2070.0</ele>
        <time>2013-07-03T13:35:14Z</time>
      </trkpt>
      <trkpt lat="39.984733" lon="-4.739800">
        <ele>2069.0</ele>
        <time>2013-07-03T13:35:15Z</time>
      </trkpt>
      <trkpt lat="39.984750" lon="-4.739867">
        <ele>2070.0</ele>
        <time>2013-07-03T13:35:16Z</time>
      </trkpt>
      <trkpt lat="39.984750" lon="-4.739933">
        <ele>2071.0</ele>
        <time>2013-07-03T13:35:17Z</time>
      </trkpt>
      <trkpt lat="39.984750" lon="-4.739983">
        <ele>2072.0</ele>
        <time>2013-07-03T13:35:18Z</time>
      </trkpt>
      <trkpt lat="39.984733" lon="-4.740033">
        <ele>2072.0</ele>
        <time>2013-07-03T13:35:19Z</time>
      </trkpt>
      <trkpt lat="39.984700" lon="-4.740083">
        <ele>2072.0</ele>
        <time>2013-07-03T13:35:20Z</time>
      </trkpt>
      <trkpt lat="39.984650" lon="-4.740150">
        <ele>2071.0</ele>
        <time>2013-07-03T13:35:21Z</time>
      </trkpt>
      <trkpt lat="39.984583" lon="-4.740200">
        <ele>2070.0</ele>
        <time>2013-07-03T13:35:22Z</time>
      </trkpt>
      <trkpt lat="39.984500" lon="-4.740267">
        <ele>2069.0</ele>
        <time>2013-07-03T13:35:23Z</time>
      </trkpt>
      <trkpt lat="39.984417" lon="-4.740300">
        <ele>2069.0</ele>
        <time>2013-07-03T13:35:24Z</time>
      </trkpt>
      <trkpt lat="39.984333" lon="-4.740317">
        <ele>2069.0</ele>
        <time>2013-07-03T13:35:25Z</time>
      </trkpt>
      <trkpt lat="39.984233" lon="-4.740300">
        <ele>2070.0</ele>
        <time>2013-07-03T13:35:26Z</time>
      </trkpt>
      <trkpt lat="39.984133" lon="-4.740250">
        <ele>2070.0</ele>
        <time>2013-07-03T13:35:27Z</time>
      </trkpt>
      <trkpt lat="39.984050" lon="-4.740183">
        <ele>2071.0</ele>
        <time>2013-07-03T13:35:28Z</time>
      </trkpt>
      <trkpt lat="39.983967" lon="-4.740117">
        <ele>2072.0</ele>
        <time>2013-07-03T13:35:29Z</time>
      </trkpt>
      <trkpt lat="39.983883" lon="-4.740033">
        <ele>2073.0</ele>
        <time>2013-07-03T13:35:30Z</time>
      </trkpt>
      <trkpt lat="39.983817" lon="-4.739950">
        <ele>2073.0</ele>
        <time>2013-07-03T13:35:31Z</time>
      </trkpt>
      <trkpt lat="39.983750" lon="-4.739850">
        <ele>2072.0</ele>
        <time>2013-07-03T13:35:32Z</time>
      </trkpt>
      <trkpt lat="39.983683" lon="-4.739750">
        <ele>2071.0</ele>
        <time>2013-07-03T13:35:33Z</time>
      </trkpt>
      <trkpt lat="39.983617" lon="-4.739617">
        <ele>2070.0</ele>
        <time>2013-07-03T13:35:34Z</time>
      </trkpt>
      <trkpt lat="39.983567" lon="-4.739483">
        <ele>2069.0</ele>
        <time>2013-07-03T13:35:35Z</time>
      </trkpt>
      <trkpt lat="39.983517" lon="-4.739333">
        <ele>2068.0</ele>
        <time>2013-07-03T13:35:36Z</time>
      </trkpt>
      <trkpt lat="39.983483" lon="-4.739167">
        <ele>2068.0</ele>
        <time>2013-07-03T13:35:37Z</time>
      </trkpt>
      <trkpt lat="39.983433" lon="-4.739017">
        <ele>2069.0</ele>
        <time>2013-07-03T13:35:38Z</time>
      </trkpt>
      <trkpt lat="39.983383" lon="-4.738867">
        <ele>2070.0</ele>
        <time>2013-07-03T13:35:39Z</time>
      </trkpt>
      <trkpt lat="39.983350" lon="-4.738700">
        <ele>2071.0</ele>
        <time>2013-07-03T13:35:40Z</time>
      </trkpt>
      <trkpt lat="39.983317" lon="-4.738567">
        <ele>2073.0</ele>
        <time>2013-07-03T13:35:41Z</time>
      </trkpt>
      <trkpt lat="39.983283" lon="-4.738433">
        <ele>2074.0</ele>
        <time>2013-07-03T13:35:42Z</time>
      </trkpt>
      <trkpt lat="39.983250" lon="-4.738317">
        <ele>2076.0</ele>
        <time>2013-07-03T13:35:43Z</time>
      </trkpt>
      <trkpt lat="39.983233" lon="-4.738217">
        <ele>2077.0</ele>
        <time>2013-07-03T13:35:44Z</time>
      </trkpt>
      <trkpt lat="39.983200" lon="-4.738100">
        <ele>2076.0</ele>
        <time>2013-07-03T13:35:45Z</time>
      </trkpt>
      <trkpt lat="39.983217" lon="-4.737983">
        <ele>2074.0</ele>
        <time>2013-07-03T13:35:46Z</time>
      </trkpt>
      <trkpt lat="39.983250" lon="-4.737883">
        <ele>2072.0</ele>
        <time>2013-07-03T13:35:47Z</time>
      </trkpt>
      <trkpt lat="39.983300" lon="-4.737817">
        <ele>2071.0</ele>
        <time>2013-07-03T13:35:48Z</time>
      </trkpt>
      <trkpt lat="39.983350" lon="-4.737767">
        <ele>2072.0</ele>
        <time>2013-07-03T13:35:49Z</time>
      </trkpt>
      <trkpt lat="39.983400" lon="-4.737750">
        <ele>2072.0</ele>
        <time>2013-07-03T13:35:50Z</time>
      </trkpt>
      <trkpt lat="39.983433" lon="-4.737767">
        <ele>2072.0</ele>
        <time>2013-07-03T13:35:51Z</time>
      </trkpt>
      <trkpt lat="39.983467" lon="-4.737783">
        <ele>2072.0</ele>
        <time>2013-07-03T13:35:52Z</time>
      </trkpt>
      <trkpt lat="39.983483" lon="-4.737833">
        <ele>2072.0</ele>
        <time>2013-07-03T13:35:53Z</time>
      </trkpt>
      <trkpt lat="39.983500" lon="-4.737900">
        <ele>2072.0</ele>
        <time>2013-07-03T13:35:54Z</time>
      </trkpt>
      <trkpt lat="39.983467" lon="-4.737983">
        <ele>2073.0</ele>
        <time>2013-07-03T13:35:55Z</time>
      </trkpt>
      <trkpt lat="39.983433" lon="-4.738050">
        <ele>2073.0</ele>
        <time>2013-07-03T13:35:56Z</time>
      </trkpt>
      <trkpt lat="39.983367" lon="-4.738100">
        <ele>2074.0</ele>
        <time>2013-07-03T13:35:57Z</time>
      </trkpt>
      <trkpt lat="39.983300" lon="-4.738133">
        <ele>2075.0</ele>
        <time>2013-07-03T13:35:58Z</time>
      </trkpt>
      <trkpt lat="39.983217" lon="-4.738167">
        <ele>2075.0</ele>
        <time>2013-07-03T13:35:59Z</time>
      </trkpt>
      <trkpt lat="39.983133" lon="-4.738183">
        <ele>2075.0</ele>
        <time>2013-07-03T13:36:00Z</time>
      </trkpt>
      <trkpt lat="39.983033" lon="-4.738200">
        <ele>2075.0</ele>
        <time>2013-07-03T13:36:01Z</time>
      </trkpt>
      <trkpt lat="39.982933" lon="-4.738217">
        <ele>2076.0</ele>
        <time>2013-07-03T13:36:02Z</time>
      </trkpt>
      <trkpt lat="39.982817" lon="-4.738217">
        <ele>2076.0</ele>
        <time>2013-07-03T13:36:03Z</time>
      </trkpt>
      <trkpt lat="39.982717" lon="-4.738183">
        <ele>2077.0</ele>
        <time>2013-07-03T13:36:04Z</time>
      </trkpt>
      <trkpt lat="39.982600" lon="-4.738117">
        <ele>2077.0</ele>
        <time>2013-07-03T13:36:05Z</time>
      </trkpt>
      <trkpt lat="39.982500" lon="-4.738017">
        <ele>2078.0</ele>
        <time>2013-07-03T13:36:06Z</time>
      </trkpt>
      <trkpt lat="39.982433" lon="-4.737900">
        <ele>2079.0</ele>
        <time>2013-07-03T13:36:07Z</time>
      </trkpt>
      <trkpt lat="39.982367" lon="-4.737783">
        <ele>2079.0</ele>
        <time>2013-07-03T13:36:08Z</time>
      </trkpt>
      <trkpt lat="39.982317" lon="-4.737667">
        <ele>2079.0</ele>
        <time>2013-07-03T13:36:09Z</time>
      </trkpt>
      <trkpt lat="39.982267" lon="-4.737533">
        <ele>2078.0</ele>
        <time>2013-07-03T13:36:10Z</time>
      </trkpt>
      <trkpt lat="39.982233" lon="-4.737383">
        <ele>2077.0</ele>
        <time>2013-07-03T13:36:11Z</time>
      </trkpt>
      <trkpt lat="39.982217" lon="-4.737233">
        <ele>2077.0</ele>
        <time>2013-07-03T13:36:12Z</time>
      </trkpt>
      <trkpt lat="39.982217" lon="-4.737100">
        <ele>2077.0</ele>
        <time>2013-07-03T13:36:13Z</time>
      </trkpt>
      <trkpt lat="39.982233" lon="-4.736983">
        <ele>2078.0</ele>
        <time>2013-07-03T13:36:14Z</time>
      </trkpt>
      <trkpt lat="39.982250" lon="-4.736883">
        <ele>2078.0</ele>
        <time>2013-07-03T13:36:15Z</time>
      </trkpt>
      <trkpt lat="39.982267" lon="-4.736783">
        <ele>2077.0</ele>
        <time>2013-07-03T13:36:16Z</time>
      </trkpt>
      <trkpt lat="39.982300" lon="-4.736700">
        <ele>2076.0</ele>
        <time>2013-07-03T13:36:17Z</time>
      </trkpt>
      <trkpt lat="39.982350" lon="-4.736633">
        <ele>2074.0</ele>
        <time>2013-07-03T13:36:18Z</time>
      </trkpt>
      <trkpt lat="39.982417" lon="-4.736583">
        <ele>2073.0</ele>
        <time>2013-07-03T13:36:19Z</time>
      </trkpt>
      <trkpt lat="39.982483" lon="-4.736583">
        <ele>2072.0</ele>
        <time>2013-07-03T13:36:20Z</time>
      </trkpt>
      <trkpt lat="39.982533" lon="-4.736600">
        <ele>2072.0</ele>
        <time>2013-07-03T13:36:21Z</time>
      </trkpt>
      <trkpt lat="39.982583" lon="-4.736633">
        <ele>2071.0</ele>
        <time>2013-07-03T13:36:22Z</time>
      </trkpt>
      <trkpt lat="39.982617" lon="-4.736650">
        <ele>2071.0</ele>
        <time>2013-07-03T13:36:23Z</time>
      </trkpt>
      <trkpt lat="39.982650" lon="-4.736683">
        <ele>2070.0</ele>
        <time>2013-07-03T13:36:24Z</time>
      </trkpt>
      <trkpt lat="39.982700" lon="-4.736717">
        <ele>2069.0</ele>
        <time>2013-07-03T13:36:25Z</time>
      </trkpt>
      <trkpt lat="39.982717" lon="-4.736767">
        <ele>2069.0</ele>
        <time>2013-07-03T13:36:26Z</time>
      </trkpt>
      <trkpt lat="39.982750" lon="-4.736800">
        <ele>2069.0</ele>
        <time>2013-07-03T13:36:27Z</time>
      </trkpt>
      <trkpt lat="39.982767" lon="-4.736850">
        <ele>2068.0</ele>
        <time>2013-07-03T13:36:28Z</time>
      </trkpt>
      <trkpt lat="39.982783" lon="-4.736900">
        <ele>2068.0</ele>
        <time>2013-07-03T13:36:29Z</time>
      </trkpt>
      <trkpt lat="39.982783" lon="-4.736950">
        <ele>2067.0</ele>
        <time>2013-07-03T13:36:30Z</time>
      </trkpt>
      <trkpt lat="39.982783" lon="-4.736983">
        <ele>2066.0</ele>
        <time>2013-07-03T13:36:31Z</time>
      </trkpt>
      <trkpt lat="39.982767" lon="-4.737000">
        <ele>2064.0</ele>
        <time>2013-07-03T13:36:32Z</time>
      </trkpt>
      <trkpt lat="39.982733" lon="-4.737050">
        <ele>2062.0</ele>
        <time>2013-07-03T13:36:33Z</time>
      </trkpt>
      <trkpt lat="39.982683" lon="-4.737133">
        <ele>2059.0</ele>
        <time>2013-07-03T13:36:34Z</time>
      </trkpt>
      <trkpt lat="39.982617" lon="-4.737200">
        <ele>2057.0</ele>
        <time>2013-07-03T13:36:35Z</time>
      </trkpt>
      <trkpt lat="39.982550" lon="-4.737250">
        <ele>2056.0</ele>
        <time>2013-07-03T13:36:36Z</time>
      </trkpt>
      <trkpt lat="39.982450" lon="-4.737283">
        <ele>2056.0</ele>
        <time>2013-07-03T13:36:37Z</time>
      </trkpt>
      <trkpt lat="39.982367" lon="-4.737283">
        <ele>2056.0</ele>
        <time>2013-07-03T13:36:38Z</time>
      </trkpt>
      <trkpt lat="39.982250" lon="-4.737267">
        <ele>2055.0</ele>
        <time>2013-07-03T13:36:39Z</time>
      </trkpt>
      <trkpt lat="39.982167" lon="-4.737200">
        <ele>2054.0</ele>
        <time>2013-07-03T13:36:40Z</time>
      </trkpt>
      <trkpt lat="39.982067" lon="-4.737117">
        <ele>2053.0</ele>
        <time>2013-07-03T13:36:41Z</time>
      </trkpt>
      <trkpt lat="39.981967" lon="-4.736983">
        <ele>2052.0</ele>
        <time>2013-07-03T13:36:42Z</time>
      </trkpt>
      <trkpt lat="39.981900" lon="-4.736850">
        <ele>2052.0</ele>
        <time>2013-07-03T13:36:43Z</time>
      </trkpt>
      <trkpt lat="39.981850" lon="-4.736700">
        <ele>2052.0</ele>
        <time>2013-07-03T13:36:44Z</time>
      </trkpt>
      <trkpt lat="39.981817" lon="-4.736567">
        <ele>2053.0</ele>
        <time>2013-07-03T13:36:45Z</time>
      </trkpt>
      <trkpt lat="39.981783" lon="-4.736433">
        <ele>2053.0</ele>
        <time>2013-07-03T13:36:46Z</time>
      </trkpt>
      <trkpt lat="39.981750" lon="-4.736317">
        <ele>2053.0</ele>
        <time>2013-07-03T13:36:47Z</time>
      </trkpt>
      <trkpt lat="39.981700" lon="-4.736183">
        <ele>2053.0</ele>
        <time>2013-07-03T13:36:48Z</time>
      </trkpt>
      <trkpt lat="39.981683" lon="-4.736050">
        <ele>2052.0</ele>
        <time>2013-07-03T13:36:49Z</time>
      </trkpt>
      <trkpt lat="39.981667" lon="-4.735917">
        <ele>2051.0</ele>
        <time>2013-07-03T13:36:50Z</time>
      </trkpt>
      <trkpt lat="39.981667" lon="-4.735800">
        <ele>2049.0</ele>
        <time>2013-07-03T13:36:51Z</time>
      </trkpt>
      <trkpt lat="39.981667" lon="-4.735667">
        <ele>2047.0</ele>
        <time>2013-07-03T13:36:52Z</time>
      </trkpt>
      <trkpt lat="39.981667" lon="-4.735517">
        <ele>2045.0</ele>
        <time>2013-07-03T13:36:53Z</time>
      </trkpt>
      <trkpt lat="39.981650" lon="-4.735383">
        <ele>2044.0</ele>
        <time>2013-07-03T13:36:54Z</time>
      </trkpt>
      <trkpt lat="39.981633" lon="-4.735233">
        <ele>2042.0</ele>
        <time>2013-07-03T13:36:55Z</time>
      </trkpt>
      <trkpt lat="39.981617" lon="-4.735100">
        <ele>2041.0</ele>
        <time>2013-07-03T13:36:56Z</time>
      </trkpt>
      <trkpt lat="39.981600" lon="-4.734950">
        <ele>2039.0</ele>
        <time>2013-07-03T13:36:57Z</time>
      </trkpt>
      <trkpt lat="39.981567" lon="-4.734783">
        <ele>2037.0</ele>
        <time>2013-07-03T13:36:58Z</time>
      </trkpt>
      <trkpt lat="39.981533" lon="-4.734633">
        <ele>2036.0</ele>
        <time>2013-07-03T13:36:59Z</time>
      </trkpt>
      <trkpt lat="39.981517" lon="-4.734467">
        <ele>2035.0</ele>
        <time>2013-07-03T13:37:00Z</time>
      </trkpt>
      <trkpt lat="39.981500" lon="-4.734317">
        <ele>2035.0</ele>
        <time>2013-07-03T13:37:01Z</time>
      </trkpt>
      <trkpt lat="39.981483" lon="-4.734183">
        <ele>2035.0</ele>
        <time>2013-07-03T13:37:02Z</time>
      </trkpt>
      <trkpt lat="39.981483" lon="-4.734050">
        <ele>2034.0</ele>
        <time>2013-07-03T13:37:03Z</time>
      </trkpt>
      <trkpt lat="39.981467" lon="-4.733917">
        <ele>2033.0</ele>
        <time>2013-07-03T13:37:04Z</time>
      </trkpt>
      <trkpt lat="39.981467" lon="-4.733783">
        <ele>2031.0</ele>
        <time>2013-07-03T13:37:05Z</time>
      </trkpt>
      <trkpt lat="39.981450" lon="-4.733617">
        <ele>2030.0</ele>
        <time>2013-07-03T13:37:06Z</time>
      </trkpt>
      <trkpt lat="39.981450" lon="-4.733467">
        <ele>2028.0</ele>
        <time>2013-07-03T13:37:07Z</time>
      </trkpt>
      <trkpt lat="39.981450" lon="-4.733300">
        <ele>2026.0</ele>
        <time>2013-07-03T13:37:08Z</time>
      </trkpt>
      <trkpt lat="39.981450" lon="-4.733150">
        <ele>2026.0</ele>
        <time>2013-07-03T13:37:09Z</time>
      </trkpt>
      <trkpt lat="39.981467" lon="-4.733017">
        <ele>2024.0</ele>
        <time>2013-07-03T13:37:10Z</time>
      </trkpt>
      <trkpt lat="39.981483" lon="-4.732867">
        <ele>2022.0</ele>
        <time>2013-07-03T13:37:11Z</time>
      </trkpt>
      <trkpt lat="39.981483" lon="-4.732733">
        <ele>2020.0</ele>
        <time>2013-07-03T13:37:12Z</time>
      </trkpt>
      <trkpt lat="39.981500" lon="-4.732583">
        <ele>2017.0</ele>
        <time>2013-07-03T13:37:13Z</time>
      </trkpt>
      <trkpt lat="39.981533" lon="-4.732417">
        <ele>2014.0</ele>
        <time>2013-07-03T13:37:14Z</time>
      </trkpt>
      <trkpt lat="39.981550" lon="-4.732283">
        <ele>2012.0</ele>
        <time>2013-07-03T13:37:15Z</time>
      </trkpt>
      <trkpt lat="39.981583" lon="-4.732133">
        <ele>2010.0</ele>
        <time>2013-07-03T13:37:16Z</time>
      </trkpt>
      <trkpt lat="39.981600" lon="-4.732000">
        <ele>2008.0</ele>
        <time>2013-07-03T13:37:17Z</time>
      </trkpt>
      <trkpt lat="39.981600" lon="-4.731867">
        <ele>2004.0</ele>
        <time>2013-07-03T13:37:18Z</time>
      </trkpt>
      <trkpt lat="39.981617" lon="-4.731717">
        <ele>2000.0</ele>
        <time>2013-07-03T13:37:19Z</time>
      </trkpt>
      <trkpt lat="39.981633" lon="-4.731567">
        <ele>1996.0</ele>
        <time>2013-07-03T13:37:20Z</time>
      </trkpt>
      <trkpt lat="39.981650" lon="-4.731400">
        <ele>1992.0</ele>
        <time>2013-07-03T13:37:21Z</time>
      </trkpt>
      <trkpt lat="39.981700" lon="-4.731233">
        <ele>1990.0</ele>
        <time>2013-07-03T13:37:22Z</time>
      </trkpt>
      <trkpt lat="39.981717" lon="-4.731083">
        <ele>1987.0</ele>
        <time>2013-07-03T13:37:23Z</time>
      </trkpt>
      <trkpt lat="39.981733" lon="-4.730933">
        <ele>1985.0</ele>
        <time>2013-07-03T13:37:24Z</time>
      </trkpt>
      <trkpt lat="39.981750" lon="-4.730767">
        <ele>1986.0</ele>
        <time>2013-07-03T13:37:25Z</time>
      </trkpt>
      <trkpt lat="39.981767" lon="-4.730617">
        <ele>1984.0</ele>
        <time>2013-07-03T13:37:26Z</time>
      </trkpt>
      <trkpt lat="39.981767" lon="-4.730467">
        <ele>1982.0</ele>
        <time>2013-07-03T13:37:27Z</time>
      </trkpt>
      <trkpt lat="39.981783" lon="-4.730300">
        <ele>1980.0</ele>
        <time>2013-07-03T13:37:28Z</time>
      </trkpt>
      <trkpt lat="39.981800" lon="-4.730117">
        <ele>1978.0</ele>
        <time>2013-07-03T13:37:29Z</time>
      </trkpt>
      <trkpt lat="39.981800" lon="-4.729950">
        <ele>1975.0</ele>
        <time>2013-07-03T13:37:30Z</time>
      </trkpt>
      <trkpt lat="39.981800" lon="-4.729783">
        <ele>1973.0</ele>
        <time>2013-07-03T13:37:31Z</time>
      </trkpt>
      <trkpt lat="39.981800" lon="-4.729617">
        <ele>1971.0</ele>
        <time>2013-07-03T13:37:32Z</time>
      </trkpt>
      <trkpt lat="39.981783" lon="-4.729450">
        <ele>1968.0</ele>
        <time>2013-07-03T13:37:33Z</time>
      </trkpt>
      <trkpt lat="39.981783" lon="-4.729283">
        <ele>1965.0</ele>
        <time>2013-07-03T13:37:34Z</time>
      </trkpt>
      <trkpt lat="39.981767" lon="-4.729100">
        <ele>1962.0</ele>
        <time>2013-07-03T13:37:35Z</time>
      </trkpt>
      <trkpt lat="39.981750" lon="-4.728933">
        <ele>1959.0</ele>
        <time>2013-07-03T13:37:36Z</time>
      </trkpt>
      <trkpt lat="39.981733" lon="-4.728750">
        <ele>1956.0</ele>
        <time>2013-07-03T13:37:37Z</time>
      </trkpt>
      <trkpt lat="39.981733" lon="-4.728567">
        <ele>1954.0</ele>
        <time>2013-07-03T13:37:38Z</time>
      </trkpt>
      <trkpt lat="39.981717" lon="-4.728367">
        <ele>1953.0</ele>
        <time>2013-07-03T13:37:39Z</time>
      </trkpt>
      <trkpt lat="39.981717" lon="-4.728200">
        <ele>1951.0</ele>
        <time>2013-07-03T13:37:40Z</time>
      </trkpt>
      <trkpt lat="39.981700" lon="-4.728017">
        <ele>1949.0</ele>
        <time>2013-07-03T13:37:41Z</time>
      </trkpt>
      <trkpt lat="39.981683" lon="-4.727817">
        <ele>1946.0</ele>
        <time>2013-07-03T13:37:42Z</time>
      </trkpt>
      <trkpt lat="39.981667" lon="-4.727633">
        <ele>1942.0</ele>
        <time>2013-07-03T13:37:43Z</time>
      </trkpt>
      <trkpt lat="39.981650" lon="-4.727417">
        <ele>1937.0</ele>
        <time>2013-07-03T13:37:44Z</time>
      </trkpt>
      <trkpt lat="39.981633" lon="-4.727217">
        <ele>1934.0</ele>
        <time>2013-07-03T13:37:45Z</time>
      </trkpt>
      <trkpt lat="39.981633" lon="-4.727017">
        <ele>1931.0</ele>
        <time>2013-07-03T13:37:46Z</time>
      </trkpt>
      <trkpt lat="39.981633" lon="-4.726833">
        <ele>1928.0</ele>
        <time>2013-07-03T13:37:47Z</time>
      </trkpt>
      <trkpt lat="39.981650" lon="-4.726650">
        <ele>1925.0</ele>
        <time>2013-07-03T13:37:48Z</time>
      </trkpt>
      <trkpt lat="39.981650" lon="-4.726483">
        <ele>1922.0</ele>
        <time>2013-07-03T13:37:49Z</time>
      </trkpt>
      <trkpt lat="39.981667" lon="-4.726283">
        <ele>1918.0</ele>
        <time>2013-07-03T13:37:50Z</time>
      </trkpt>
      <trkpt lat="39.981683" lon="-4.726083">
        <ele>1916.0</ele>
        <time>2013-07-03T13:37:51Z</time>
      </trkpt>
      <trkpt lat="39.981683" lon="-4.725900">
        <ele>1913.0</ele>
        <time>2013-07-03T13:37:52Z</time>
      </trkpt>
      <trkpt lat="39.981667" lon="-4.725717">
        <ele>1912.0</ele>
        <time>2013-07-03T13:37:53Z</time>
      </trkpt>
      <trkpt lat="39.981650" lon="-4.725550">
        <ele>1912.0</ele>
        <time>2013-07-03T13:37:54Z</time>
      </trkpt>
      <trkpt lat="39.981633" lon="-4.725400">
        <ele>1911.0</ele>
        <time>2013-07-03T13:37:55Z</time>
      </trkpt>
      <trkpt lat="39.981633" lon="-4.725250">
        <ele>1909.0</ele>
        <time>2013-07-03T13:37:56Z</time>
      </trkpt>
      <trkpt lat="39.981633" lon="-4.725083">
        <ele>1908.0</ele>
        <time>2013-07-03T13:37:57Z</time>
      </trkpt>
      <trkpt lat="39.981633" lon="-4.724933">
        <ele>1906.0</ele>
        <time>2013-07-03T13:37:58Z</time>
      </trkpt>
      <trkpt lat="39.981633" lon="-4.724767">
        <ele>1904.0</ele>
        <time>2013-07-03T13:37:59Z</time>
      </trkpt>
      <trkpt lat="39.981650" lon="-4.724617">
        <ele>1903.0</ele>
        <time>2013-07-03T13:38:00Z</time>
      </trkpt>
      <trkpt lat="39.981667" lon="-4.724483">
        <ele>1900.0</ele>
        <time>2013-07-03T13:38:01Z</time>
      </trkpt>
      <trkpt lat="39.981683" lon="-4.724333">
        <ele>1898.0</ele>
        <time>2013-07-03T13:38:02Z</time>
      </trkpt>
      <trkpt lat="39.981700" lon="-4.724183">
        <ele>1896.0</ele>
        <time>2013-07-03T13:38:03Z</time>
      </trkpt>
      <trkpt lat="39.981717" lon="-4.724017">
        <ele>1895.0</ele>
        <time>2013-07-03T13:38:04Z</time>
      </trkpt>
      <trkpt lat="39.981717" lon="-4.723850">
        <ele>1894.0</ele>
        <time>2013-07-03T13:38:05Z</time>
      </trkpt>
      <trkpt lat="39.981733" lon="-4.723700">
        <ele>1893.0</ele>
        <time>2013-07-03T13:38:06Z</time>
      </trkpt>
      <trkpt lat="39.981733" lon="-4.723550">
        <ele>1891.0</ele>
        <time>2013-07-03T13:38:07Z</time>
      </trkpt>
      <trkpt lat="39.981733" lon="-4.723383">
        <ele>1888.0</ele>
        <time>2013-07-03T13:38:08Z</time>
      </trkpt>
      <trkpt lat="39.981750" lon="-4.723183">
        <ele>1885.0</ele>
        <time>2013-07-03T13:38:09Z</time>
      </trkpt>
      <trkpt lat="39.981750" lon="-4.723000">
        <ele>1883.0</ele>
        <time>2013-07-03T13:38:10Z</time>
      </trkpt>
      <trkpt lat="39.981750" lon="-4.722817">
        <ele>1883.0</ele>
        <time>2013-07-03T13:38:11Z</time>
      </trkpt>
      <trkpt lat="39.981767" lon="-4.722667">
        <ele>1883.0</ele>
        <time>2013-07-03T13:38:12Z</time>
      </trkpt>
      <trkpt lat="39.981767" lon="-4.722517">
        <ele>1882.0</ele>
        <time>2013-07-03T13:38:13Z</time>
      </trkpt>
      <trkpt lat="39.981767" lon="-4.722383">
        <ele>1881.0</ele>
        <time>2013-07-03T13:38:14Z</time>
      </trkpt>
      <trkpt lat="39.981767" lon="-4.722217">
        <ele>1877.0</ele>
        <time>2013-07-03T13:38:15Z</time>
      </trkpt>
      <trkpt lat="39.981783" lon="-4.722050">
        <ele>1875.0</ele>
        <time>2013-07-03T13:38:16Z</time>
      </trkpt>
      <trkpt lat="39.981783" lon="-4.721867">
        <ele>1874.0</ele>
        <time>2013-07-03T13:38:17Z</time>
      </trkpt>
      <trkpt lat="39.981800" lon="-4.721717">
        <ele>1874.0</ele>
        <time>2013-07-03T13:38:18Z</time>
      </trkpt>
      <trkpt lat="39.981800" lon="-4.721567">
        <ele>1873.0</ele>
        <time>2013-07-03T13:38:19Z</time>
      </trkpt>
      <trkpt lat="39.981783" lon="-4.721417">
        <ele>1872.0</ele>
        <time>2013-07-03T13:38:20Z</time>
      </trkpt>
      <trkpt lat="39.981783" lon="-4.721267">
        <ele>1869.0</ele>
        <time>2013-07-03T13:38:21Z</time>
      </trkpt>
      <trkpt lat="39.981767" lon="-4.721117">
        <ele>1865.0</ele>
        <time>2013-07-03T13:38:22Z</time>
      </trkpt>
      <trkpt lat="39.981750" lon="-4.720933">
        <ele>1861.0</ele>
        <time>2013-07-03T13:38:23Z</time>
      </trkpt>
      <trkpt lat="39.981733" lon="-4.720750">
        <ele>1857.0</ele>
        <time>2013-07-03T13:38:24Z</time>
      </trkpt>
      <trkpt lat="39.981717" lon="-4.720583">
        <ele>1856.0</ele>
        <time>2013-07-03T13:38:25Z</time>
      </trkpt>
      <trkpt lat="39.981700" lon="-4.720433">
        <ele>1855.0</ele>
        <time>2013-07-03T13:38:26Z</time>
      </trkpt>
      <trkpt lat="39.981700" lon="-4.720283">
        <ele>1854.0</ele>
        <time>2013-07-03T13:38:27Z</time>
      </trkpt>
      <trkpt lat="39.981683" lon="-4.720150">
        <ele>1852.0</ele>
        <time>2013-07-03T13:38:28Z</time>
      </trkpt>
      <trkpt lat="39.981667" lon="-4.720000">
        <ele>1849.0</ele>
        <time>2013-07-03T13:38:29Z</time>
      </trkpt>
      <trkpt lat="39.981667" lon="-4.719850">
        <ele>1845.0</ele>
        <time>2013-07-03T13:38:30Z</time>
      </trkpt>
      <trkpt lat="39.981650" lon="-4.719683">
        <ele>1842.0</ele>
        <time>2013-07-03T13:38:31Z</time>
      </trkpt>
      <trkpt lat="39.981650" lon="-4.719517">
        <ele>1840.0</ele>
        <time>2013-07-03T13:38:32Z</time>
      </trkpt>
      <trkpt lat="39.981650" lon="-4.719350">
        <ele>1839.0</ele>
        <time>2013-07-03T13:38:33Z</time>
      </trkpt>
      <trkpt lat="39.981650" lon="-4.719217">
        <ele>1838.0</ele>
        <time>2013-07-03T13:38:34Z</time>
      </trkpt>
      <trkpt lat="39.981633" lon="-4.719083">
        <ele>1837.0</ele>
        <time>2013-07-03T13:38:35Z</time>
      </trkpt>
      <trkpt lat="39.981633" lon="-4.718933">
        <ele>1835.0</ele>
        <time>2013-07-03T13:38:36Z</time>
      </trkpt>
      <trkpt lat="39.981633" lon="-4.718783">
        <ele>1833.0</ele>
        <time>2013-07-03T13:38:37Z</time>
      </trkpt>
      <trkpt lat="39.981633" lon="-4.718633">
        <ele>1831.0</ele>
        <time>2013-07-03T13:38:38Z</time>
      </trkpt>
      <trkpt lat="39.981633" lon="-4.718483">
        <ele>1830.0</ele>
        <time>2013-07-03T13:38:39Z</time>
      </trkpt>
      <trkpt lat="39.981633" lon="-4.718317">
        <ele>1827.0</ele>
        <time>2013-07-03T13:38:40Z</time>
      </trkpt>
      <trkpt lat="39.981633" lon="-4.718167">
        <ele>1824.0</ele>
        <time>2013-07-03T13:38:41Z</time>
      </trkpt>
      <trkpt lat="39.981617" lon="-4.718017">
        <ele>1822.0</ele>
        <time>2013-07-03T13:38:42Z</time>
      </trkpt>
      <trkpt lat="39.981600" lon="-4.717867">
        <ele>1819.0</ele>
        <time>2013-07-03T13:38:43Z</time>
      </trkpt>
      <trkpt lat="39.981600" lon="-4.717717">
        <ele>1816.0</ele>
        <time>2013-07-03T13:38:44Z</time>
      </trkpt>
      <trkpt lat="39.981600" lon="-4.717583">
        <ele>1813.0</ele>
        <time>2013-07-03T13:38:45Z</time>
      </trkpt>
      <trkpt lat="39.981600" lon="-4.717417">
        <ele>1810.0</ele>
        <time>2013-07-03T13:38:46Z</time>
      </trkpt>
      <trkpt lat="39.981583" lon="-4.717267">
        <ele>1807.0</ele>
        <time>2013-07-03T13:38:47Z</time>
      </trkpt>
      <trkpt lat="39.981583" lon="-4.717117">
        <ele>1805.0</ele>
        <time>2013-07-03T13:38:48Z</time>
      </trkpt>
      <trkpt lat="39.981567" lon="-4.716967">
        <ele>1804.0</ele>
        <time>2013-07-03T13:38:49Z</time>
      </trkpt>
      <trkpt lat="39.981567" lon="-4.716833">
        <ele>1803.0</ele>
        <time>2013-07-03T13:38:50Z</time>
      </trkpt>
      <trkpt lat="39.981550" lon="-4.716683">
        <ele>1800.0</ele>
        <time>2013-07-03T13:38:51Z</time>
      </trkpt>
      <trkpt lat="39.981533" lon="-4.716517">
        <ele>1795.0</ele>
        <time>2013-07-03T13:38:52Z</time>
      </trkpt>
      <trkpt lat="39.981517" lon="-4.716333">
        <ele>1791.0</ele>
        <time>2013-07-03T13:38:53Z</time>
      </trkpt>
      <trkpt lat="39.981483" lon="-4.716150">
        <ele>1788.0</ele>
        <time>2013-07-03T13:38:54Z</time>
      </trkpt>
      <trkpt lat="39.981450" lon="-4.715967">
        <ele>1786.0</ele>
        <time>2013-07-03T13:38:55Z</time>
      </trkpt>
      <trkpt lat="39.981400" lon="-4.715783">
        <ele>1786.0</ele>
        <time>2013-07-03T13:38:56Z</time>
      </trkpt>
      <trkpt lat="39.981383" lon="-4.715617">
        <ele>1785.0</ele>
        <time>2013-07-03T13:38:57Z</time>
      </trkpt>
      <trkpt lat="39.981350" lon="-4.715467">
        <ele>1784.0</ele>
        <time>2013-07-03T13:38:58Z</time>
      </trkpt>
      <trkpt lat="39.981317" lon="-4.715300">
        <ele>1783.0</ele>
        <time>2013-07-03T13:38:59Z</time>
      </trkpt>
      <trkpt lat="39.981283" lon="-4.715133">
        <ele>1781.0</ele>
        <time>2013-07-03T13:39:00Z</time>
      </trkpt>
      <trkpt lat="39.981250" lon="-4.714950">
        <ele>1778.0</ele>
        <time>2013-07-03T13:39:01Z</time>
      </trkpt>
      <trkpt lat="39.981217" lon="-4.714767">
        <ele>1775.0</ele>
        <time>2013-07-03T13:39:02Z</time>
      </trkpt>
      <trkpt lat="39.981183" lon="-4.714583">
        <ele>1772.0</ele>
        <time>2013-07-03T13:39:03Z</time>
      </trkpt>
      <trkpt lat="39.981133" lon="-4.714400">
        <ele>1771.0</ele>
        <time>2013-07-03T13:39:04Z</time>
      </trkpt>
      <trkpt lat="39.981100" lon="-4.714217">
        <ele>1772.0</ele>
        <time>2013-07-03T13:39:05Z</time>
      </trkpt>
      <trkpt lat="39.981050" lon="-4.714067">
        <ele>1771.0</ele>
        <time>2013-07-03T13:39:06Z</time>
      </trkpt>
      <trkpt lat="39.981000" lon="-4.713950">
        <ele>1769.0</ele>
        <time>2013-07-03T13:39:07Z</time>
      </trkpt>
      <trkpt lat="39.980950" lon="-4.713800">
        <ele>1766.0</ele>
        <time>2013-07-03T13:39:08Z</time>
      </trkpt>
      <trkpt lat="39.980917" lon="-4.713650">
        <ele>1763.0</ele>
        <time>2013-07-03T13:39:09Z</time>
      </trkpt>
      <trkpt lat="39.980867" lon="-4.713467">
        <ele>1759.0</ele>
        <time>2013-07-03T13:39:10Z</time>
      </trkpt>
      <trkpt lat="39.980850" lon="-4.713283">
        <ele>1755.0</ele>
        <time>2013-07-03T13:39:11Z</time>
      </trkpt>
      <trkpt lat="39.980833" lon="-4.713117">
        <ele>1752.0</ele>
        <time>2013-07-03T13:39:12Z</time>
      </trkpt>
      <trkpt lat="39.980833" lon="-4.712967">
        <ele>1750.0</ele>
        <time>2013-07-03T13:39:13Z</time>
      </trkpt>
      <trkpt lat="39.980817" lon="-4.712833">
        <ele>1748.0</ele>
        <time>2013-07-03T13:39:14Z</time>
      </trkpt>
      <trkpt lat="39.980817" lon="-4.712683">
        <ele>1744.0</ele>
        <time>2013-07-03T13:39:15Z</time>
      </trkpt>
      <trkpt lat="39.980817" lon="-4.712533">
        <ele>1740.0</ele>
        <time>2013-07-03T13:39:16Z</time>
      </trkpt>
      <trkpt lat="39.980817" lon="-4.712350">
        <ele>1736.0</ele>
        <time>2013-07-03T13:39:17Z</time>
      </trkpt>
      <trkpt lat="39.980817" lon="-4.712167">
        <ele>1733.0</ele>
        <time>2013-07-03T13:39:18Z</time>
      </trkpt>
      <trkpt lat="39.980800" lon="-4.711983">
        <ele>1732.0</ele>
        <time>2013-07-03T13:39:19Z</time>
      </trkpt>
      <trkpt lat="39.980783" lon="-4.711817">
        <ele>1731.0</ele>
        <time>2013-07-03T13:39:20Z</time>
      </trkpt>
      <trkpt lat="39.980767" lon="-4.711667">
        <ele>1730.0</ele>
        <time>2013-07-03T13:39:21Z</time>
      </trkpt>
      <trkpt lat="39.980767" lon="-4.711500">
        <ele>1728.0</ele>
        <time>2013-07-03T13:39:22Z</time>
      </trkpt>
      <trkpt lat="39.980750" lon="-4.711333">
        <ele>1725.0</ele>
        <time>2013-07-03T13:39:23Z</time>
      </trkpt>
      <trkpt lat="39.980733" lon="-4.711183">
        <ele>1724.0</ele>
        <time>2013-07-03T13:39:24Z</time>
      </trkpt>
      <trkpt lat="39.980700" lon="-4.711017">
        <ele>1724.0</ele>
        <time>2013-07-03T13:39:25Z</time>
      </trkpt>
      <trkpt lat="39.980683" lon="-4.710883">
        <ele>1724.0</ele>
        <time>2013-07-03T13:39:26Z</time>
      </trkpt>
      <trkpt lat="39.980667" lon="-4.710750">
        <ele>1724.0</ele>
        <time>2013-07-03T13:39:27Z</time>
      </trkpt>
      <trkpt lat="39.980650" lon="-4.710617">
        <ele>1723.0</ele>
        <time>2013-07-03T13:39:28Z</time>
      </trkpt>
      <trkpt lat="39.980650" lon="-4.710483">
        <ele>1721.0</ele>
        <time>2013-07-03T13:39:29Z</time>
      </trkpt>
      <trkpt lat="39.980633" lon="-4.710333">
        <ele>1718.0</ele>
        <time>2013-07-03T13:39:30Z</time>
      </trkpt>
      <trkpt lat="39.980617" lon="-4.710167">
        <ele>1717.0</ele>
        <time>2013-07-03T13:39:31Z</time>
      </trkpt>
      <trkpt lat="39.980617" lon="-4.710033">
        <ele>1716.0</ele>
        <time>2013-07-03T13:39:32Z</time>
      </trkpt>
      <trkpt lat="39.980600" lon="-4.709883">
        <ele>1715.0</ele>
        <time>2013-07-03T13:39:33Z</time>
      </trkpt>
      <trkpt lat="39.980583" lon="-4.709750">
        <ele>1714.0</ele>
        <time>2013-07-03T13:39:34Z</time>
      </trkpt>
      <trkpt lat="39.980567" lon="-4.709600">
        <ele>1714.0</ele>
        <time>2013-07-03T13:39:35Z</time>
      </trkpt>
      <trkpt lat="39.980533" lon="-4.709467">
        <ele>1713.0</ele>
        <time>2013-07-03T13:39:36Z</time>
      </trkpt>
      <trkpt lat="39.980533" lon="-4.709317">
        <ele>1712.0</ele>
        <time>2013-07-03T13:39:37Z</time>
      </trkpt>
      <trkpt lat="39.980533" lon="-4.709167">
        <ele>1712.0</ele>
        <time>2013-07-03T13:39:38Z</time>
      </trkpt>
      <trkpt lat="39.980517" lon="-4.709033">
        <ele>1711.0</ele>
        <time>2013-07-03T13:39:39Z</time>
      </trkpt>
      <trkpt lat="39.980500" lon="-4.708883">
        <ele>1710.0</ele>
        <time>2013-07-03T13:39:40Z</time>
      </trkpt>
      <trkpt lat="39.980483" lon="-4.708750">
        <ele>1709.0</ele>
        <time>2013-07-03T13:39:41Z</time>
      </trkpt>
      <trkpt lat="39.980483" lon="-4.708600">
        <ele>1707.0</ele>
        <time>2013-07-03T13:39:42Z</time>
      </trkpt>
      <trkpt lat="39.980483" lon="-4.708433">
        <ele>1706.0</ele>
        <time>2013-07-03T13:39:43Z</time>
      </trkpt>
      <trkpt lat="39.980467" lon="-4.708283">
        <ele>1706.0</ele>
        <time>2013-07-03T13:39:44Z</time>
      </trkpt>
      <trkpt lat="39.980433" lon="-4.708117">
        <ele>1706.0</ele>
        <time>2013-07-03T13:39:45Z</time>
      </trkpt>
      <trkpt lat="39.980400" lon="-4.707967">
        <ele>1706.0</ele>
        <time>2013-07-03T13:39:46Z</time>
      </trkpt>
      <trkpt lat="39.980383" lon="-4.707833">
        <ele>1704.0</ele>
        <time>2013-07-03T13:39:47Z</time>
      </trkpt>
      <trkpt lat="39.980367" lon="-4.707667">
        <ele>1703.0</ele>
        <time>2013-07-03T13:39:48Z</time>
      </trkpt>
      <trkpt lat="39.980350" lon="-4.707500">
        <ele>1702.0</ele>
        <time>2013-07-03T13:39:49Z</time>
      </trkpt>
      <trkpt lat="39.980333" lon="-4.707317">
        <ele>1701.0</ele>
        <time>2013-07-03T13:39:50Z</time>
      </trkpt>
      <trkpt lat="39.980333" lon="-4.707150">
        <ele>1700.0</ele>
        <time>2013-07-03T13:39:51Z</time>
      </trkpt>
      <trkpt lat="39.980333" lon="-4.706983">
        <ele>1699.0</ele>
        <time>2013-07-03T13:39:52Z</time>
      </trkpt>
      <trkpt lat="39.980317" lon="-4.706833">
        <ele>1698.0</ele>
        <time>2013-07-03T13:39:53Z</time>
      </trkpt>
      <trkpt lat="39.980317" lon="-4.706683">
        <ele>1695.0</ele>
        <time>2013-07-03T13:39:54Z</time>
      </trkpt>
      <trkpt lat="39.980300" lon="-4.706517">
        <ele>1693.0</ele>
        <time>2013-07-03T13:39:55Z</time>
      </trkpt>
      <trkpt lat="39.980283" lon="-4.706333">
        <ele>1690.0</ele>
        <time>2013-07-03T13:39:56Z</time>
      </trkpt>
      <trkpt lat="39.980283" lon="-4.706167">
        <ele>1687.0</ele>
        <time>2013-07-03T13:39:57Z</time>
      </trkpt>
      <trkpt lat="39.980300" lon="-4.706000">
        <ele>1684.0</ele>
        <time>2013-07-03T13:39:58Z</time>
      </trkpt>
      <trkpt lat="39.980283" lon="-4.705833">
        <ele>1682.0</ele>
        <time>2013-07-03T13:39:59Z</time>
      </trkpt>
      <trkpt lat="39.980283" lon="-4.705667">
        <ele>1680.0</ele>
        <time>2013-07-03T13:40:00Z</time>
      </trkpt>
      <trkpt lat="39.980267" lon="-4.705500">
        <ele>1678.0</ele>
        <time>2013-07-03T13:40:01Z</time>
      </trkpt>
      <trkpt lat="39.980267" lon="-4.705333">
        <ele>1677.0</ele>
        <time>2013-07-03T13:40:02Z</time>
      </trkpt>
      <trkpt lat="39.980267" lon="-4.705183">
        <ele>1674.0</ele>
        <time>2013-07-03T13:40:03Z</time>
      </trkpt>
      <trkpt lat="39.980267" lon="-4.705033">
        <ele>1672.0</ele>
        <time>2013-07-03T13:40:04Z</time>
      </trkpt>
      <trkpt lat="39.980267" lon="-4.704867">
        <ele>1670.0</ele>
        <time>2013-07-03T13:40:05Z</time>
      </trkpt>
      <trkpt lat="39.980267" lon="-4.704700">
        <ele>1668.0</ele>
        <time>2013-07-03T13:40:06Z</time>
      </trkpt>
      <trkpt lat="39.980250" lon="-4.704517">
        <ele>1667.0</ele>
        <time>2013-07-03T13:40:07Z</time>
      </trkpt>
      <trkpt lat="39.980233" lon="-4.704367">
        <ele>1667.0</ele>
        <time>2013-07-03T13:40:08Z</time>
      </trkpt>
      <trkpt lat="39.980217" lon="-4.704233">
        <ele>1667.0</ele>
        <time>2013-07-03T13:40:09Z</time>
      </trkpt>
      <trkpt lat="39.980183" lon="-4.704100">
        <ele>1665.0</ele>
        <time>2013-07-03T13:40:10Z</time>
      </trkpt>
      <trkpt lat="39.980183" lon="-4.703983">
        <ele>1663.0</ele>
        <time>2013-07-03T13:40:11Z</time>
      </trkpt>
      <trkpt lat="39.980183" lon="-4.703833">
        <ele>1659.0</ele>
        <time>2013-07-03T13:40:12Z</time>
      </trkpt>
      <trkpt lat="39.980183" lon="-4.703667">
        <ele>1655.0</ele>
        <time>2013-07-03T13:40:13Z</time>
      </trkpt>
      <trkpt lat="39.980183" lon="-4.703500">
        <ele>1653.0</ele>
        <time>2013-07-03T13:40:14Z</time>
      </trkpt>
      <trkpt lat="39.980183" lon="-4.703350">
        <ele>1651.0</ele>
        <time>2013-07-03T13:40:15Z</time>
      </trkpt>
      <trkpt lat="39.980183" lon="-4.703217">
        <ele>1650.0</ele>
        <time>2013-07-03T13:40:16Z</time>
      </trkpt>
      <trkpt lat="39.980200" lon="-4.703083">
        <ele>1648.0</ele>
        <time>2013-07-03T13:40:17Z</time>
      </trkpt>
      <trkpt lat="39.980233" lon="-4.702933">
        <ele>1645.0</ele>
        <time>2013-07-03T13:40:18Z</time>
      </trkpt>
      <trkpt lat="39.980250" lon="-4.702800">
        <ele>1642.0</ele>
        <time>2013-07-03T13:40:19Z</time>
      </trkpt>
      <trkpt lat="39.980250" lon="-4.702650">
        <ele>1640.0</ele>
        <time>2013-07-03T13:40:20Z</time>
      </trkpt>
      <trkpt lat="39.980250" lon="-4.702517">
        <ele>1637.0</ele>
        <time>2013-07-03T13:40:21Z</time>
      </trkpt>
      <trkpt lat="39.980267" lon="-4.702383">
        <ele>1634.0</ele>
        <time>2013-07-03T13:40:22Z</time>
      </trkpt>
      <trkpt lat="39.980267" lon="-4.702250">
        <ele>1630.0</ele>
        <time>2013-07-03T13:40:23Z</time>
      </trkpt>
      <trkpt lat="39.980283" lon="-4.702100">
        <ele>1627.0</ele>
        <time>2013-07-03T13:40:24Z</time>
      </trkpt>
      <trkpt lat="39.980300" lon="-4.701933">
        <ele>1624.0</ele>
        <time>2013-07-03T13:40:25Z</time>
      </trkpt>
      <trkpt lat="39.980300" lon="-4.701800">
        <ele>1623.0</ele>
        <time>2013-07-03T13:40:26Z</time>
      </trkpt>
      <trkpt lat="39.980283" lon="-4.701667">
        <ele>1622.0</ele>
        <time>2013-07-03T13:40:27Z</time>
      </trkpt>
      <trkpt lat="39.980283" lon="-4.701533">
        <ele>1620.0</ele>
        <time>2013-07-03T13:40:28Z</time>
      </trkpt>
      <trkpt lat="39.980283" lon="-4.701417">
        <ele>1617.0</ele>
        <time>2013-07-03T13:40:29Z</time>
      </trkpt>
      <trkpt lat="39.980283" lon="-4.701283">
        <ele>1613.0</ele>
        <time>2013-07-03T13:40:30Z</time>
      </trkpt>
      <trkpt lat="39.980283" lon="-4.701150">
        <ele>1608.0</ele>
        <time>2013-07-03T13:40:31Z</time>
      </trkpt>
      <trkpt lat="39.980300" lon="-4.701000">
        <ele>1605.0</ele>
        <time>2013-07-03T13:40:32Z</time>
      </trkpt>
      <trkpt lat="39.980300" lon="-4.700867">
        <ele>1602.0</ele>
        <time>2013-07-03T13:40:33Z</time>
      </trkpt>
      <trkpt lat="39.980300" lon="-4.700733">
        <ele>1601.0</ele>
        <time>2013-07-03T13:40:34Z</time>
      </trkpt>
      <trkpt lat="39.980283" lon="-4.700617">
        <ele>1598.0</ele>
        <time>2013-07-03T13:40:35Z</time>
      </trkpt>
      <trkpt lat="39.980283" lon="-4.700500">
        <ele>1595.0</ele>
        <time>2013-07-03T13:40:36Z</time>
      </trkpt>
      <trkpt lat="39.980267" lon="-4.700367">
        <ele>1591.0</ele>
        <time>2013-07-03T13:40:37Z</time>
      </trkpt>
      <trkpt lat="39.980267" lon="-4.700233">
        <ele>1586.0</ele>
        <time>2013-07-03T13:40:38Z</time>
      </trkpt>
      <trkpt lat="39.980267" lon="-4.700083">
        <ele>1583.0</ele>
        <time>2013-07-03T13:40:39Z</time>
      </trkpt>
      <trkpt lat="39.980250" lon="-4.699933">
        <ele>1581.0</ele>
        <time>2013-07-03T13:40:40Z</time>
      </trkpt>
      <trkpt lat="39.980233" lon="-4.699800">
        <ele>1579.0</ele>
        <time>2013-07-03T13:40:41Z</time>
      </trkpt>
      <trkpt lat="39.980217" lon="-4.699683">
        <ele>1577.0</ele>
        <time>2013-07-03T13:40:42Z</time>
      </trkpt>
      <trkpt lat="39.980200" lon="-4.699567">
        <ele>1574.0</ele>
        <time>2013-07-03T13:40:43Z</time>
      </trkpt>
      <trkpt lat="39.980183" lon="-4.699433">
        <ele>1571.0</ele>
        <time>2013-07-03T13:40:44Z</time>
      </trkpt>
      <trkpt lat="39.980167" lon="-4.699300">
        <ele>1568.0</ele>
        <time>2013-07-03T13:40:45Z</time>
      </trkpt>
      <trkpt lat="39.980167" lon="-4.699150">
        <ele>1566.0</ele>
        <time>2013-07-03T13:40:46Z</time>
      </trkpt>
      <trkpt lat="39.980167" lon="-4.699033">
        <ele>1566.0</ele>
        <time>2013-07-03T13:40:47Z</time>
      </trkpt>
      <trkpt lat="39.980150" lon="-4.698900">
        <ele>1565.0</ele>
        <time>2013-07-03T13:40:48Z</time>
      </trkpt>
      <trkpt lat="39.980117" lon="-4.698783">
        <ele>1564.0</ele>
        <time>2013-07-03T13:40:49Z</time>
      </trkpt>
      <trkpt lat="39.980083" lon="-4.698650">
        <ele>1562.0</ele>
        <time>2013-07-03T13:40:50Z</time>
      </trkpt>
      <trkpt lat="39.980067" lon="-4.698533">
        <ele>1560.0</ele>
        <time>2013-07-03T13:40:51Z</time>
      </trkpt>
      <trkpt lat="39.980050" lon="-4.698400">
        <ele>1557.0</ele>
        <time>2013-07-03T13:40:52Z</time>
      </trkpt>
      <trkpt lat="39.980017" lon="-4.698267">
        <ele>1555.0</ele>
        <time>2013-07-03T13:40:53Z</time>
      </trkpt>
      <trkpt lat="39.980000" lon="-4.698133">
        <ele>1553.0</ele>
        <time>2013-07-03T13:40:54Z</time>
      </trkpt>
      <trkpt lat="39.979983" lon="-4.698017">
        <ele>1551.0</ele>
        <time>2013-07-03T13:40:55Z</time>
      </trkpt>
      <trkpt lat="39.979950" lon="-4.697900">
        <ele>1548.0</ele>
        <time>2013-07-03T13:40:56Z</time>
      </trkpt>
      <trkpt lat="39.979933" lon="-4.697783">
        <ele>1546.0</ele>
        <time>2013-07-03T13:40:57Z</time>
      </trkpt>
      <trkpt lat="39.979917" lon="-4.697667">
        <ele>1543.0</ele>
        <time>2013-07-03T13:40:58Z</time>
      </trkpt>
      <trkpt lat="39.979900" lon="-4.697533">
        <ele>1539.0</ele>
        <time>2013-07-03T13:40:59Z</time>
      </trkpt>
      <trkpt lat="39.979883" lon="-4.697400">
        <ele>1535.0</ele>
        <time>2013-07-03T13:41:00Z</time>
      </trkpt>
      <trkpt lat="39.979850" lon="-4.697250">
        <ele>1532.0</ele>
        <time>2013-07-03T13:41:01Z</time>
      </trkpt>
      <trkpt lat="39.979817" lon="-4.697133">
        <ele>1530.0</ele>
        <time>2013-07-03T13:41:02Z</time>
      </trkpt>
      <trkpt lat="39.979783" lon="-4.697000">
        <ele>1528.0</ele>
        <time>2013-07-03T13:41:03Z</time>
      </trkpt>
      <trkpt lat="39.979750" lon="-4.696883">
        <ele>1525.0</ele>
        <time>2013-07-03T13:41:04Z</time>
      </trkpt>
      <trkpt lat="39.979717" lon="-4.696767">
        <ele>1522.0</ele>
        <time>2013-07-03T13:41:05Z</time>
      </trkpt>
      <trkpt lat="39.979683" lon="-4.696633">
        <ele>1519.0</ele>
        <time>2013-07-03T13:41:06Z</time>
      </trkpt>
      <trkpt lat="39.979650" lon="-4.696500">
        <ele>1515.0</ele>
        <time>2013-07-03T13:41:07Z</time>
      </trkpt>
      <trkpt lat="39.979617" lon="-4.696350">
        <ele>1512.0</ele>
        <time>2013-07-03T13:41:08Z</time>
      </trkpt>
      <trkpt lat="39.979600" lon="-4.696217">
        <ele>1509.0</ele>
        <time>2013-07-03T13:41:09Z</time>
      </trkpt>
      <trkpt lat="39.979567" lon="-4.696083">
        <ele>1506.0</ele>
        <time>2013-07-03T13:41:10Z</time>
      </trkpt>
      <trkpt lat="39.979550" lon="-4.695950">
        <ele>1503.0</ele>
        <time>2013-07-03T13:41:11Z</time>
      </trkpt>
      <trkpt lat="39.979533" lon="-4.695833">
        <ele>1500.0</ele>
        <time>2013-07-03T13:41:12Z</time>
      </trkpt>
      <trkpt lat="39.979500" lon="-4.695717">
        <ele>1497.0</ele>
        <time>2013-07-03T13:41:13Z</time>
      </trkpt>
      <trkpt lat="39.979467" lon="-4.695583">
        <ele>1493.0</ele>
        <time>2013-07-03T13:41:14Z</time>
      </trkpt>
      <trkpt lat="39.979417" lon="-4.695450">
        <ele>1490.0</ele>
        <time>2013-07-03T13:41:15Z</time>
      </trkpt>
      <trkpt lat="39.979383" lon="-4.695317">
        <ele>1487.0</ele>
        <time>2013-07-03T13:41:16Z</time>
      </trkpt>
      <trkpt lat="39.979350" lon="-4.695183">
        <ele>1483.0</ele>
        <time>2013-07-03T13:41:17Z</time>
      </trkpt>
      <trkpt lat="39.979317" lon="-4.695067">
        <ele>1480.0</ele>
        <time>2013-07-03T13:41:18Z</time>
      </trkpt>
      <trkpt lat="39.979283" lon="-4.694950">
        <ele>1476.0</ele>
        <time>2013-07-03T13:41:19Z</time>
      </trkpt>
      <trkpt lat="39.979267" lon="-4.694833">
        <ele>1471.0</ele>
        <time>2013-07-03T13:41:20Z</time>
      </trkpt>
      <trkpt lat="39.979250" lon="-4.694717">
        <ele>1466.0</ele>
        <time>2013-07-03T13:41:21Z</time>
      </trkpt>
      <trkpt lat="39.979233" lon="-4.694600">
        <ele>1461.0</ele>
        <time>2013-07-03T13:41:22Z</time>
      </trkpt>
      <trkpt lat="39.979200" lon="-4.694467">
        <ele>1456.0</ele>
        <time>2013-07-03T13:41:23Z</time>
      </trkpt>
      <trkpt lat="39.979167" lon="-4.694333">
        <ele>1451.0</ele>
        <time>2013-07-03T13:41:24Z</time>
      </trkpt>
      <trkpt lat="39.979150" lon="-4.694200">
        <ele>1447.0</ele>
        <time>2013-07-03T13:41:25Z</time>
      </trkpt>
      <trkpt lat="39.979100" lon="-4.694050">
        <ele>1444.0</ele>
        <time>2013-07-03T13:41:26Z</time>
      </trkpt>
      <trkpt lat="39.979067" lon="-4.693917">
        <ele>1442.0</ele>
        <time>2013-07-03T13:41:27Z</time>
      </trkpt>
      <trkpt lat="39.979033" lon="-4.693800">
        <ele>1440.0</ele>
        <time>2013-07-03T13:41:28Z</time>
      </trkpt>
      <trkpt lat="39.979017" lon="-4.693667">
        <ele>1440.0</ele>
        <time>2013-07-03T13:41:29Z</time>
      </trkpt>
      <trkpt lat="39.978983" lon="-4.693567">
        <ele>1440.0</ele>
        <time>2013-07-03T13:41:30Z</time>
      </trkpt>
      <trkpt lat="39.978933" lon="-4.693467">
        <ele>1439.0</ele>
        <time>2013-07-03T13:41:31Z</time>
      </trkpt>
      <trkpt lat="39.978883" lon="-4.693367">
        <ele>1437.0</ele>
        <time>2013-07-03T13:41:32Z</time>
      </trkpt>
      <trkpt lat="39.978850" lon="-4.693250">
        <ele>1434.0</ele>
        <time>2013-07-03T13:41:33Z</time>
      </trkpt>
      <trkpt lat="39.978817" lon="-4.693150">
        <ele>1429.0</ele>
        <time>2013-07-03T13:41:34Z</time>
      </trkpt>
      <trkpt lat="39.978783" lon="-4.693017">
        <ele>1425.0</ele>
        <time>2013-07-03T13:41:35Z</time>
      </trkpt>
      <trkpt lat="39.978733" lon="-4.692883">
        <ele>1421.0</ele>
        <time>2013-07-03T13:41:36Z</time>
      </trkpt>
      <trkpt lat="39.978700" lon="-4.692750">
        <ele>1418.0</ele>
        <time>2013-07-03T13:41:37Z</time>
      </trkpt>
      <trkpt lat="39.978633" lon="-4.692633">
        <ele>1416.0</ele>
        <time>2013-07-03T13:41:38Z</time>
      </trkpt>
      <trkpt lat="39.978583" lon="-4.692517">
        <ele>1414.0</ele>
        <time>2013-07-03T13:41:39Z</time>
      </trkpt>
      <trkpt lat="39.978550" lon="-4.692400">
        <ele>1411.0</ele>
        <time>2013-07-03T13:41:40Z</time>
      </trkpt>
      <trkpt lat="39.978517" lon="-4.692283">
        <ele>1408.0</ele>
        <time>2013-07-03T13:41:41Z</time>
      </trkpt>
      <trkpt lat="39.978467" lon="-4.692167">
        <ele>1405.0</ele>
        <time>2013-07-03T13:41:42Z</time>
      </trkpt>
      <trkpt lat="39.978433" lon="-4.692033">
        <ele>1400.0</ele>
        <time>2013-07-03T13:41:43Z</time>
      </trkpt>
      <trkpt lat="39.978383" lon="-4.691883">
        <ele>1397.0</ele>
        <time>2013-07-03T13:41:44Z</time>
      </trkpt>
      <trkpt lat="39.978350" lon="-4.691767">
        <ele>1394.0</ele>
        <time>2013-07-03T13:41:45Z</time>
      </trkpt>
      <trkpt lat="39.978300" lon="-4.691650">
        <ele>1392.0</ele>
        <time>2013-07-03T13:41:46Z</time>
      </trkpt>
      <trkpt lat="39.978267" lon="-4.691550">
        <ele>1391.0</ele>
        <time>2013-07-03T13:41:47Z</time>
      </trkpt>
      <trkpt lat="39.978217" lon="-4.691450">
        <ele>1388.0</ele>
        <time>2013-07-03T13:41:48Z</time>
      </trkpt>
      <trkpt lat="39.978167" lon="-4.691333">
        <ele>1383.0</ele>
        <time>2013-07-03T13:41:49Z</time>
      </trkpt>
      <trkpt lat="39.978117" lon="-4.691217">
        <ele>1377.0</ele>
        <time>2013-07-03T13:41:50Z</time>
      </trkpt>
      <trkpt lat="39.978067" lon="-4.691083">
        <ele>1373.0</ele>
        <time>2013-07-03T13:41:51Z</time>
      </trkpt>
      <trkpt lat="39.978017" lon="-4.690933">
        <ele>1370.0</ele>
        <time>2013-07-03T13:41:52Z</time>
      </trkpt>
      <trkpt lat="39.977983" lon="-4.690817">
        <ele>1367.0</ele>
        <time>2013-07-03T13:41:53Z</time>
      </trkpt>
      <trkpt lat="39.977950" lon="-4.690700">
        <ele>1365.0</ele>
        <time>2013-07-03T13:41:54Z</time>
      </trkpt>
      <trkpt lat="39.977917" lon="-4.690583">
        <ele>1362.0</ele>
        <time>2013-07-03T13:41:55Z</time>
      </trkpt>
      <trkpt lat="39.977883" lon="-4.690467">
        <ele>1359.0</ele>
        <time>2013-07-03T13:41:56Z</time>
      </trkpt>
      <trkpt lat="39.977867" lon="-4.690350">
        <ele>1356.0</ele>
        <time>2013-07-03T13:41:57Z</time>
      </trkpt>
      <trkpt lat="39.977833" lon="-4.690233">
        <ele>1353.0</ele>
        <time>2013-07-03T13:41:58Z</time>
      </trkpt>
      <trkpt lat="39.977817" lon="-4.690117">
        <ele>1350.0</ele>
        <time>2013-07-03T13:41:59Z</time>
      </trkpt>
      <trkpt lat="39.977817" lon="-4.690000">
        <ele>1348.0</ele>
        <time>2013-07-03T13:42:00Z</time>
      </trkpt>
      <trkpt lat="39.977817" lon="-4.689900">
        <ele>1345.0</ele>
        <time>2013-07-03T13:42:01Z</time>
      </trkpt>
      <trkpt lat="39.977817" lon="-4.689800">
        <ele>1342.0</ele>
        <time>2013-07-03T13:42:02Z</time>
      </trkpt>
      <trkpt lat="39.977833" lon="-4.689683">
        <ele>1340.0</ele>
        <time>2013-07-03T13:42:03Z</time>
      </trkpt>
      <trkpt lat="39.977833" lon="-4.689550">
        <ele>1337.0</ele>
        <time>2013-07-03T13:42:04Z</time>
      </trkpt>
      <trkpt lat="39.977817" lon="-4.689417">
        <ele>1336.0</ele>
        <time>2013-07-03T13:42:05Z</time>
      </trkpt>
      <trkpt lat="39.977817" lon="-4.689317">
        <ele>1335.0</ele>
        <time>2013-07-03T13:42:06Z</time>
      </trkpt>
      <trkpt lat="39.977817" lon="-4.689217">
        <ele>1333.0</ele>
        <time>2013-07-03T13:42:07Z</time>
      </trkpt>
      <trkpt lat="39.977817" lon="-4.689117">
        <ele>1329.0</ele>
        <time>2013-07-03T13:42:08Z</time>
      </trkpt>
      <trkpt lat="39.977817" lon="-4.689017">
        <ele>1326.0</ele>
        <time>2013-07-03T13:42:09Z</time>
      </trkpt>
      <trkpt lat="39.977800" lon="-4.688900">
        <ele>1321.0</ele>
        <time>2013-07-03T13:42:10Z</time>
      </trkpt>
      <trkpt lat="39.977767" lon="-4.688783">
        <ele>1317.0</ele>
        <time>2013-07-03T13:42:11Z</time>
      </trkpt>
      <trkpt lat="39.977717" lon="-4.688667">
        <ele>1314.0</ele>
        <time>2013-07-03T13:42:12Z</time>
      </trkpt>
      <trkpt lat="39.977650" lon="-4.688567">
        <ele>1310.0</ele>
        <time>2013-07-03T13:42:13Z</time>
      </trkpt>
      <trkpt lat="39.977600" lon="-4.688450">
        <ele>1306.0</ele>
        <time>2013-07-03T13:42:14Z</time>
      </trkpt>
      <trkpt lat="39.977550" lon="-4.688350">
        <ele>1303.0</ele>
        <time>2013-07-03T13:42:15Z</time>
      </trkpt>
      <trkpt lat="39.977500" lon="-4.688233">
        <ele>1299.0</ele>
        <time>2013-07-03T13:42:16Z</time>
      </trkpt>
      <trkpt lat="39.977450" lon="-4.688100">
        <ele>1295.0</ele>
        <time>2013-07-03T13:42:17Z</time>
      </trkpt>
      <trkpt lat="39.977383" lon="-4.687983">
        <ele>1291.0</ele>
        <time>2013-07-03T13:42:18Z</time>
      </trkpt>
      <trkpt lat="39.977333" lon="-4.687850">
        <ele>1287.0</ele>
        <time>2013-07-03T13:42:19Z</time>
      </trkpt>
      <trkpt lat="39.977283" lon="-4.687700">
        <ele>1284.0</ele>
        <time>2013-07-03T13:42:20Z</time>
      </trkpt>
      <trkpt lat="39.977233" lon="-4.687567">
        <ele>1280.0</ele>
        <time>2013-07-03T13:42:21Z</time>
      </trkpt>
      <trkpt lat="39.977183" lon="-4.687433">
        <ele>1278.0</ele>
        <time>2013-07-03T13:42:22Z</time>
      </trkpt>
      <trkpt lat="39.977133" lon="-4.687317">
        <ele>1274.0</ele>
        <time>2013-07-03T13:42:23Z</time>
      </trkpt>
      <trkpt lat="39.977067" lon="-4.687200">
        <ele>1270.0</ele>
        <time>2013-07-03T13:42:24Z</time>
      </trkpt>
      <trkpt lat="39.977017" lon="-4.687067">
        <ele>1266.0</ele>
        <time>2013-07-03T13:42:25Z</time>
      </trkpt>
      <trkpt lat="39.976950" lon="-4.686933">
        <ele>1262.0</ele>
        <time>2013-07-03T13:42:26Z</time>
      </trkpt>
      <trkpt lat="39.976883" lon="-4.686800">
        <ele>1258.0</ele>
        <time>2013-07-03T13:42:27Z</time>
      </trkpt>
      <trkpt lat="39.976833" lon="-4.686683">
        <ele>1256.0</ele>
        <time>2013-07-03T13:42:28Z</time>
      </trkpt>
      <trkpt lat="39.976783" lon="-4.686567">
        <ele>1253.0</ele>
        <time>2013-07-03T13:42:29Z</time>
      </trkpt>
      <trkpt lat="39.976733" lon="-4.686450">
        <ele>1250.0</ele>
        <time>2013-07-03T13:42:30Z</time>
      </trkpt>
      <trkpt lat="39.976683" lon="-4.686333">
        <ele>1245.0</ele>
        <time>2013-07-03T13:42:31Z</time>
      </trkpt>
      <trkpt lat="39.976617" lon="-4.686200">
        <ele>1240.0</ele>
        <time>2013-07-03T13:42:32Z</time>
      </trkpt>
      <trkpt lat="39.976533" lon="-4.686050">
        <ele>1235.0</ele>
        <time>2013-07-03T13:42:33Z</time>
      </trkpt>
      <trkpt lat="39.976450" lon="-4.685917">
        <ele>1233.0</ele>
        <time>2013-07-03T13:42:34Z</time>
      </trkpt>
      <trkpt lat="39.976400" lon="-4.685783">
        <ele>1231.0</ele>
        <time>2013-07-03T13:42:35Z</time>
      </trkpt>
      <trkpt lat="39.976333" lon="-4.685683">
        <ele>1229.0</ele>
        <time>2013-07-03T13:42:36Z</time>
      </trkpt>
      <trkpt lat="39.976267" lon="-4.685583">
        <ele>1225.0</ele>
        <time>2013-07-03T13:42:37Z</time>
      </trkpt>
      <trkpt lat="39.976200" lon="-4.685467">
        <ele>1221.0</ele>
        <time>2013-07-03T13:42:38Z</time>
      </trkpt>
      <trkpt lat="39.976133" lon="-4.685333">
        <ele>1216.0</ele>
        <time>2013-07-03T13:42:39Z</time>
      </trkpt>
      <trkpt lat="39.976067" lon="-4.685183">
        <ele>1210.0</ele>
        <time>2013-07-03T13:42:40Z</time>
      </trkpt>
      <trkpt lat="39.975967" lon="-4.685017">
        <ele>1205.0</ele>
        <time>2013-07-03T13:42:41Z</time>
      </trkpt>
      <trkpt lat="39.975883" lon="-4.684900">
        <ele>1202.0</ele>
        <time>2013-07-03T13:42:42Z</time>
      </trkpt>
      <trkpt lat="39.975783" lon="-4.684767">
        <ele>1201.0</ele>
        <time>2013-07-03T13:42:43Z</time>
      </trkpt>
      <trkpt lat="39.975717" lon="-4.684650">
        <ele>1202.0</ele>
        <time>2013-07-03T13:42:44Z</time>
      </trkpt>
      <trkpt lat="39.975650" lon="-4.684517">
        <ele>1201.0</ele>
        <time>2013-07-03T13:42:45Z</time>
      </trkpt>
      <trkpt lat="39.975567" lon="-4.684383">
        <ele>1199.0</ele>
        <time>2013-07-03T13:42:46Z</time>
      </trkpt>
      <trkpt lat="39.975483" lon="-4.684250">
        <ele>1196.0</ele>
        <time>2013-07-03T13:42:47Z</time>
      </trkpt>
      <trkpt lat="39.975383" lon="-4.684117">
        <ele>1195.0</ele>
        <time>2013-07-03T13:42:48Z</time>
      </trkpt>
      <trkpt lat="39.975300" lon="-4.683983">
        <ele>1195.0</ele>
        <time>2013-07-03T13:42:49Z</time>
      </trkpt>
      <trkpt lat="39.975233" lon="-4.683850">
        <ele>1195.0</ele>
        <time>2013-07-03T13:42:50Z</time>
      </trkpt>
      <trkpt lat="39.975167" lon="-4.683717">
        <ele>1194.0</ele>
        <time>2013-07-03T13:42:51Z</time>
      </trkpt>
      <trkpt lat="39.975100" lon="-4.683617">
        <ele>1193.0</ele>
        <time>2013-07-03T13:42:52Z</time>
      </trkpt>
      <trkpt lat="39.975017" lon="-4.683483">
        <ele>1192.0</ele>
        <time>2013-07-03T13:42:53Z</time>
      </trkpt>
      <trkpt lat="39.974933" lon="-4.683350">
        <ele>1190.0</ele>
        <time>2013-07-03T13:42:54Z</time>
      </trkpt>
      <trkpt lat="39.974883" lon="-4.683217">
        <ele>1189.0</ele>
        <time>2013-07-03T13:42:55Z</time>
      </trkpt>
      <trkpt lat="39.974817" lon="-4.683083">
        <ele>1189.0</ele>
        <time>2013-07-03T13:42:56Z</time>
      </trkpt>
      <trkpt lat="39.974750" lon="-4.682950">
        <ele>1189.0</ele>
        <time>2013-07-03T13:42:57Z</time>
      </trkpt>
      <trkpt lat="39.974683" lon="-4.682817">
        <ele>1188.0</ele>
        <time>2013-07-03T13:42:58Z</time>
      </trkpt>
      <trkpt lat="39.974617" lon="-4.682683">
        <ele>1187.0</ele>
        <time>2013-07-03T13:42:59Z</time>
      </trkpt>
      <trkpt lat="39.974550" lon="-4.682567">
        <ele>1186.0</ele>
        <time>2013-07-03T13:43:00Z</time>
      </trkpt>
      <trkpt lat="39.974467" lon="-4.682433">
        <ele>1185.0</ele>
        <time>2013-07-03T13:43:01Z</time>
      </trkpt>
      <trkpt lat="39.974383" lon="-4.682300">
        <ele>1185.0</ele>
        <time>2013-07-03T13:43:02Z</time>
      </trkpt>
      <trkpt lat="39.974317" lon="-4.682183">
        <ele>1184.0</ele>
        <time>2013-07-03T13:43:03Z</time>
      </trkpt>
      <trkpt lat="39.974233" lon="-4.682050">
        <ele>1183.0</ele>
        <time>2013-07-03T13:43:04Z</time>
      </trkpt>
      <trkpt lat="39.974167" lon="-4.681917">
        <ele>1183.0</ele>
        <time>2013-07-03T13:43:05Z</time>
      </trkpt>
      <trkpt lat="39.974083" lon="-4.681783">
        <ele>1182.0</ele>
        <time>2013-07-03T13:43:06Z</time>
      </trkpt>
      <trkpt lat="39.974017" lon="-4.681650">
        <ele>1182.0</ele>
        <time>2013-07-03T13:43:07Z</time>
      </trkpt>
      <trkpt lat="39.973950" lon="-4.681517">
        <ele>1180.0</ele>
        <time>2013-07-03T13:43:08Z</time>
      </trkpt>
      <trkpt lat="39.973867" lon="-4.681383">
        <ele>1179.0</ele>
        <time>2013-07-03T13:43:09Z</time>
      </trkpt>
      <trkpt lat="39.973783" lon="-4.681250">
        <ele>1178.0</ele>
        <time>2013-07-03T13:43:10Z</time>
      </trkpt>
      <trkpt lat="39.973700" lon="-4.681117">
        <ele>1178.0</ele>
        <time>2013-07-03T13:43:11Z</time>
      </trkpt>
      <trkpt lat="39.973617" lon="-4.680983">
        <ele>1177.0</ele>
        <time>2013-07-03T13:43:12Z</time>
      </trkpt>
      <trkpt lat="39.973517" lon="-4.680867">
        <ele>1177.0</ele>
        <time>2013-07-03T13:43:13Z</time>
      </trkpt>
      <trkpt lat="39.973433" lon="-4.680750">
        <ele>1177.0</ele>
        <time>2013-07-03T13:43:14Z</time>
      </trkpt>
      <trkpt lat="39.973333" lon="-4.680650">
        <ele>1177.0</ele>
        <time>2013-07-03T13:43:15Z</time>
      </trkpt>
      <trkpt lat="39.973250" lon="-4.680533">
        <ele>1177.0</ele>
        <time>2013-07-03T13:43:16Z</time>
      </trkpt>
      <trkpt lat="39.973167" lon="-4.680417">
        <ele>1176.0</ele>
        <time>2013-07-03T13:43:17Z</time>
      </trkpt>
      <trkpt lat="39.973067" lon="-4.680283">
        <ele>1176.0</ele>
        <time>2013-07-03T13:43:18Z</time>
      </trkpt>
      <trkpt lat="39.972983" lon="-4.680150">
        <ele>1175.0</ele>
        <time>2013-07-03T13:43:19Z</time>
      </trkpt>
      <trkpt lat="39.972883" lon="-4.680033">
        <ele>1175.0</ele>
        <time>2013-07-03T13:43:20Z</time>
      </trkpt>
      <trkpt lat="39.972800" lon="-4.679917">
        <ele>1176.0</ele>
        <time>2013-07-03T13:43:21Z</time>
      </trkpt>
      <trkpt lat="39.972733" lon="-4.679800">
        <ele>1176.0</ele>
        <time>2013-07-03T13:43:22Z</time>
      </trkpt>
      <trkpt lat="39.972667" lon="-4.679700">
        <ele>1177.0</ele>
        <time>2013-07-03T13:43:23Z</time>
      </trkpt>
      <trkpt lat="39.972600" lon="-4.679583">
        <ele>1177.0</ele>
        <time>2013-07-03T13:43:24Z</time>
      </trkpt>
      <trkpt lat="39.972533" lon="-4.679467">
        <ele>1177.0</ele>
        <time>2013-07-03T13:43:25Z</time>
      </trkpt>
      <trkpt lat="39.972467" lon="-4.679367">
        <ele>1177.0</ele>
        <time>2013-07-03T13:43:26Z</time>
      </trkpt>
      <trkpt lat="39.972383" lon="-4.679250">
        <ele>1177.0</ele>
        <time>2013-07-03T13:43:27Z</time>
      </trkpt>
      <trkpt lat="39.972317" lon="-4.679133">
        <ele>1178.0</ele>
        <time>2013-07-03T13:43:28Z</time>
      </trkpt>
      <trkpt lat="39.972250" lon="-4.679017">
        <ele>1178.0</ele>
        <time>2013-07-03T13:43:29Z</time>
      </trkpt>
      <trkpt lat="39.972200" lon="-4.678900">
        <ele>1178.0</ele>
        <time>2013-07-03T13:43:30Z</time>
      </trkpt>
      <trkpt lat="39.972133" lon="-4.678783">
        <ele>1178.0</ele>
        <time>2013-07-03T13:43:31Z</time>
      </trkpt>
      <trkpt lat="39.972067" lon="-4.678683">
        <ele>1178.0</ele>
        <time>2013-07-03T13:43:32Z</time>
      </trkpt>
      <trkpt lat="39.972017" lon="-4.678567">
        <ele>1178.0</ele>
        <time>2013-07-03T13:43:33Z</time>
      </trkpt>
      <trkpt lat="39.971967" lon="-4.678450">
        <ele>1177.0</ele>
        <time>2013-07-03T13:43:34Z</time>
      </trkpt>
      <trkpt lat="39.971900" lon="-4.678333">
        <ele>1176.0</ele>
        <time>2013-07-03T13:43:35Z</time>
      </trkpt>
      <trkpt lat="39.971850" lon="-4.678200">
        <ele>1175.0</ele>
        <time>2013-07-03T13:43:36Z</time>
      </trkpt>
      <trkpt lat="39.971783" lon="-4.678050">
        <ele>1174.0</ele>
        <time>2013-07-03T13:43:37Z</time>
      </trkpt>
      <trkpt lat="39.971717" lon="-4.677900">
        <ele>1174.0</ele>
        <time>2013-07-03T13:43:38Z</time>
      </trkpt>
      <trkpt lat="39.971667" lon="-4.677750">
        <ele>1173.0</ele>
        <time>2013-07-03T13:43:39Z</time>
      </trkpt>
      <trkpt lat="39.971600" lon="-4.677617">
        <ele>1174.0</ele>
        <time>2013-07-03T13:43:40Z</time>
      </trkpt>
      <trkpt lat="39.971533" lon="-4.677483">
        <ele>1173.0</ele>
        <time>2013-07-03T13:43:41Z</time>
      </trkpt>
      <trkpt lat="39.971467" lon="-4.677367">
        <ele>1172.0</ele>
        <time>2013-07-03T13:43:42Z</time>
      </trkpt>
      <trkpt lat="39.971400" lon="-4.677233">
        <ele>1171.0</ele>
        <time>2013-07-03T13:43:43Z</time>
      </trkpt>
      <trkpt lat="39.971333" lon="-4.677083">
        <ele>1170.0</ele>
        <time>2013-07-03T13:43:44Z</time>
      </trkpt>
      <trkpt lat="39.971267" lon="-4.676950">
        <ele>1169.0</ele>
        <time>2013-07-03T13:43:45Z</time>
      </trkpt>
      <trkpt lat="39.971217" lon="-4.676817">
        <ele>1169.0</ele>
        <time>2013-07-03T13:43:46Z</time>
      </trkpt>
      <trkpt lat="39.971150" lon="-4.676683">
        <ele>1169.0</ele>
        <time>2013-07-03T13:43:47Z</time>
      </trkpt>
      <trkpt lat="39.971083" lon="-4.676567">
        <ele>1168.0</ele>
        <time>2013-07-03T13:43:48Z</time>
      </trkpt>
      <trkpt lat="39.971017" lon="-4.676433">
        <ele>1167.0</ele>
        <time>2013-07-03T13:43:49Z</time>
      </trkpt>
      <trkpt lat="39.970950" lon="-4.676300">
        <ele>1165.0</ele>
        <time>2013-07-03T13:43:50Z</time>
      </trkpt>
      <trkpt lat="39.970900" lon="-4.676150">
        <ele>1164.0</ele>
        <time>2013-07-03T13:43:51Z</time>
      </trkpt>
      <trkpt lat="39.970850" lon="-4.676017">
        <ele>1164.0</ele>
        <time>2013-07-03T13:43:52Z</time>
      </trkpt>
      <trkpt lat="39.970783" lon="-4.675867">
        <ele>1163.0</ele>
        <time>2013-07-03T13:43:53Z</time>
      </trkpt>
      <trkpt lat="39.970733" lon="-4.675733">
        <ele>1163.0</ele>
        <time>2013-07-03T13:43:54Z</time>
      </trkpt>
      <trkpt lat="39.970683" lon="-4.675600">
        <ele>1162.0</ele>
        <time>2013-07-03T13:43:55Z</time>
      </trkpt>
      <trkpt lat="39.970617" lon="-4.675483">
        <ele>1161.0</ele>
        <time>2013-07-03T13:43:56Z</time>
      </trkpt>
      <trkpt lat="39.970567" lon="-4.675350">
        <ele>1160.0</ele>
        <time>2013-07-03T13:43:57Z</time>
      </trkpt>
      <trkpt lat="39.970500" lon="-4.675233">
        <ele>1158.0</ele>
        <time>2013-07-03T13:43:58Z</time>
      </trkpt>
      <trkpt lat="39.970450" lon="-4.675100">
        <ele>1156.0</ele>
        <time>2013-07-03T13:43:59Z</time>
      </trkpt>
      <trkpt lat="39.970383" lon="-4.674967">
        <ele>1154.0</ele>
        <time>2013-07-03T13:44:00Z</time>
      </trkpt>
      <trkpt lat="39.970333" lon="-4.674833">
        <ele>1154.0</ele>
        <time>2013-07-03T13:44:01Z</time>
      </trkpt>
      <trkpt lat="39.970283" lon="-4.674717">
        <ele>1152.0</ele>
        <time>2013-07-03T13:44:02Z</time>
      </trkpt>
      <trkpt lat="39.970250" lon="-4.674600">
        <ele>1151.0</ele>
        <time>2013-07-03T13:44:03Z</time>
      </trkpt>
      <trkpt lat="39.970217" lon="-4.674483">
        <ele>1148.0</ele>
        <time>2013-07-03T13:44:04Z</time>
      </trkpt>
      <trkpt lat="39.970167" lon="-4.674350">
        <ele>1145.0</ele>
        <time>2013-07-03T13:44:05Z</time>
      </trkpt>
      <trkpt lat="39.970117" lon="-4.674217">
        <ele>1142.0</ele>
        <time>2013-07-03T13:44:06Z</time>
      </trkpt>
      <trkpt lat="39.970067" lon="-4.674067">
        <ele>1139.0</ele>
        <time>2013-07-03T13:44:07Z</time>
      </trkpt>
      <trkpt lat="39.970017" lon="-4.673917">
        <ele>1137.0</ele>
        <time>2013-07-03T13:44:08Z</time>
      </trkpt>
      <trkpt lat="39.969983" lon="-4.673783">
        <ele>1136.0</ele>
        <time>2013-07-03T13:44:09Z</time>
      </trkpt>
      <trkpt lat="39.969967" lon="-4.673667">
        <ele>1134.0</ele>
        <time>2013-07-03T13:44:10Z</time>
      </trkpt>
      <trkpt lat="39.969933" lon="-4.673533">
        <ele>1132.0</ele>
        <time>2013-07-03T13:44:11Z</time>
      </trkpt>
      <trkpt lat="39.969917" lon="-4.673400">
        <ele>1131.0</ele>
        <time>2013-07-03T13:44:12Z</time>
      </trkpt>
      <trkpt lat="39.969900" lon="-4.673283">
        <ele>1129.0</ele>
        <time>2013-07-03T13:44:13Z</time>
      </trkpt>
      <trkpt lat="39.969883" lon="-4.673167">
        <ele>1127.0</ele>
        <time>2013-07-03T13:44:14Z</time>
      </trkpt>
      <trkpt lat="39.969867" lon="-4.673050">
        <ele>1125.0</ele>
        <time>2013-07-03T13:44:15Z</time>
      </trkpt>
      <trkpt lat="39.969850" lon="-4.672933">
        <ele>1122.0</ele>
        <time>2013-07-03T13:44:16Z</time>
      </trkpt>
      <trkpt lat="39.969817" lon="-4.672800">
        <ele>1119.0</ele>
        <time>2013-07-03T13:44:17Z</time>
      </trkpt>
      <trkpt lat="39.969783" lon="-4.672683">
        <ele>1115.0</ele>
        <time>2013-07-03T13:44:18Z</time>
      </trkpt>
      <trkpt lat="39.969717" lon="-4.672533">
        <ele>1112.0</ele>
        <time>2013-07-03T13:44:19Z</time>
      </trkpt>
      <trkpt lat="39.969667" lon="-4.672400">
        <ele>1110.0</ele>
        <time>2013-07-03T13:44:20Z</time>
      </trkpt>
      <trkpt lat="39.969633" lon="-4.672267">
        <ele>1110.0</ele>
        <time>2013-07-03T13:44:21Z</time>
      </trkpt>
      <trkpt lat="39.969617" lon="-4.672133">
        <ele>1110.0</ele>
        <time>2013-07-03T13:44:22Z</time>
      </trkpt>
      <trkpt lat="39.969600" lon="-4.672033">
        <ele>1110.0</ele>
        <time>2013-07-03T13:44:23Z</time>
      </trkpt>
      <trkpt lat="39.969567" lon="-4.671917">
        <ele>1109.0</ele>
        <time>2013-07-03T13:44:24Z</time>
      </trkpt>
      <trkpt lat="39.969533" lon="-4.671817">
        <ele>1108.0</ele>
        <time>2013-07-03T13:44:25Z</time>
      </trkpt>
      <trkpt lat="39.969500" lon="-4.671683">
        <ele>1106.0</ele>
        <time>2013-07-03T13:44:26Z</time>
      </trkpt>
      <trkpt lat="39.969483" lon="-4.671567">
        <ele>1105.0</ele>
        <time>2013-07-03T13:44:27Z</time>
      </trkpt>
      <trkpt lat="39.969467" lon="-4.671450">
        <ele>1103.0</ele>
        <time>2013-07-03T13:44:28Z</time>
      </trkpt>
      <trkpt lat="39.969467" lon="-4.671317">
        <ele>1101.0</ele>
        <time>2013-07-03T13:44:29Z</time>
      </trkpt>
      <trkpt lat="39.969467" lon="-4.671200">
        <ele>1099.0</ele>
        <time>2013-07-03T13:44:30Z</time>
      </trkpt>
      <trkpt lat="39.969450" lon="-4.671050">
        <ele>1096.0</ele>
        <time>2013-07-03T13:44:31Z</time>
      </trkpt>
      <trkpt lat="39.969450" lon="-4.670917">
        <ele>1094.0</ele>
        <time>2013-07-03T13:44:32Z</time>
      </trkpt>
      <trkpt lat="39.969450" lon="-4.670767">
        <ele>1093.0</ele>
        <time>2013-07-03T13:44:33Z</time>
      </trkpt>
      <trkpt lat="39.969450" lon="-4.670650">
        <ele>1092.0</ele>
        <time>2013-07-03T13:44:34Z</time>
      </trkpt>
      <trkpt lat="39.969450" lon="-4.670517">
        <ele>1090.0</ele>
        <time>2013-07-03T13:44:35Z</time>
      </trkpt>
      <trkpt lat="39.969433" lon="-4.670367">
        <ele>1088.0</ele>
        <time>2013-07-03T13:44:36Z</time>
      </trkpt>
      <trkpt lat="39.969417" lon="-4.670233">
        <ele>1086.0</ele>
        <time>2013-07-03T13:44:37Z</time>
      </trkpt>
      <trkpt lat="39.969417" lon="-4.670083">
        <ele>1086.0</ele>
        <time>2013-07-03T13:44:38Z</time>
      </trkpt>
      <trkpt lat="39.969383" lon="-4.669933">
        <ele>1086.0</ele>
        <time>2013-07-03T13:44:39Z</time>
      </trkpt>
      <trkpt lat="39.969367" lon="-4.669783">
        <ele>1087.0</ele>
        <time>2013-07-03T13:44:40Z</time>
      </trkpt>
      <trkpt lat="39.969333" lon="-4.669650">
        <ele>1088.0</ele>
        <time>2013-07-03T13:44:41Z</time>
      </trkpt>
      <trkpt lat="39.969317" lon="-4.669517">
        <ele>1089.0</ele>
        <time>2013-07-03T13:44:42Z</time>
      </trkpt>
      <trkpt lat="39.969300" lon="-4.669400">
        <ele>1090.0</ele>
        <time>2013-07-03T13:44:43Z</time>
      </trkpt>
      <trkpt lat="39.969283" lon="-4.669267">
        <ele>1090.0</ele>
        <time>2013-07-03T13:44:44Z</time>
      </trkpt>
      <trkpt lat="39.969267" lon="-4.669133">
        <ele>1090.0</ele>
        <time>2013-07-03T13:44:45Z</time>
      </trkpt>
      <trkpt lat="39.969233" lon="-4.668983">
        <ele>1089.0</ele>
        <time>2013-07-03T13:44:46Z</time>
      </trkpt>
      <trkpt lat="39.969200" lon="-4.668833">
        <ele>1089.0</ele>
        <time>2013-07-03T13:44:47Z</time>
      </trkpt>
      <trkpt lat="39.969183" lon="-4.668683">
        <ele>1090.0</ele>
        <time>2013-07-03T13:44:48Z</time>
      </trkpt>
      <trkpt lat="39.969150" lon="-4.668550">
        <ele>1092.0</ele>
        <time>2013-07-03T13:44:49Z</time>
      </trkpt>
      <trkpt lat="39.969133" lon="-4.668433">
        <ele>1094.0</ele>
        <time>2013-07-03T13:44:50Z</time>
      </trkpt>
      <trkpt lat="39.969117" lon="-4.668317">
        <ele>1096.0</ele>
        <time>2013-07-03T13:44:51Z</time>
      </trkpt>
      <trkpt lat="39.969100" lon="-4.668217">
        <ele>1097.0</ele>
        <time>2013-07-03T13:44:52Z</time>
      </trkpt>
      <trkpt lat="39.969083" lon="-4.668117">
        <ele>1098.0</ele>
        <time>2013-07-03T13:44:53Z</time>
      </trkpt>
      <trkpt lat="39.969067" lon="-4.668017">
        <ele>1099.0</ele>
        <time>2013-07-03T13:44:54Z</time>
      </trkpt>
      <trkpt lat="39.969033" lon="-4.667917">
        <ele>1099.0</ele>
        <time>2013-07-03T13:44:55Z</time>
      </trkpt>
      <trkpt lat="39.969017" lon="-4.667817">
        <ele>1100.0</ele>
        <time>2013-07-03T13:44:56Z</time>
      </trkpt>
      <trkpt lat="39.968967" lon="-4.667717">
        <ele>1101.0</ele>
        <time>2013-07-03T13:44:57Z</time>
      </trkpt>
      <trkpt lat="39.968933" lon="-4.667633">
        <ele>1102.0</ele>
        <time>2013-07-03T13:44:58Z</time>
      </trkpt>
      <trkpt lat="39.968867" lon="-4.667533">
        <ele>1104.0</ele>
        <time>2013-07-03T13:44:59Z</time>
      </trkpt>
      <trkpt lat="39.968833" lon="-4.667417">
        <ele>1105.0</ele>
        <time>2013-07-03T13:45:00Z</time>
      </trkpt>
      <trkpt lat="39.968800" lon="-4.667317">
        <ele>1108.0</ele>
        <time>2013-07-03T13:45:01Z</time>
      </trkpt>
      <trkpt lat="39.968767" lon="-4.667200">
        <ele>1110.0</ele>
        <time>2013-07-03T13:45:02Z</time>
      </trkpt>
      <trkpt lat="39.968733" lon="-4.667083">
        <ele>1113.0</ele>
        <time>2013-07-03T13:45:03Z</time>
      </trkpt>
      <trkpt lat="39.968700" lon="-4.667000">
        <ele>1116.0</ele>
        <time>2013-07-03T13:45:04Z</time>
      </trkpt>
      <trkpt lat="39.968683" lon="-4.666900">
        <ele>1118.0</ele>
        <time>2013-07-03T13:45:05Z</time>
      </trkpt>
      <trkpt lat="39.968667" lon="-4.666783">
        <ele>1122.0</ele>
        <time>2013-07-03T13:45:06Z</time>
      </trkpt>
      <trkpt lat="39.968667" lon="-4.666683">
        <ele>1125.0</ele>
        <time>2013-07-03T13:45:07Z</time>
      </trkpt>
      <trkpt lat="39.968650" lon="-4.666567">
        <ele>1128.0</ele>
        <time>2013-07-03T13:45:08Z</time>
      </trkpt>
      <trkpt lat="39.968650" lon="-4.666450">
        <ele>1131.0</ele>
        <time>2013-07-03T13:45:09Z</time>
      </trkpt>
      <trkpt lat="39.968633" lon="-4.666333">
        <ele>1134.0</ele>
        <time>2013-07-03T13:45:10Z</time>
      </trkpt>
      <trkpt lat="39.968650" lon="-4.666217">
        <ele>1137.0</ele>
        <time>2013-07-03T13:45:11Z</time>
      </trkpt>
      <trkpt lat="39.968650" lon="-4.666100">
        <ele>1140.0</ele>
        <time>2013-07-03T13:45:12Z</time>
      </trkpt>
      <trkpt lat="39.968667" lon="-4.665950">
        <ele>1143.0</ele>
        <time>2013-07-03T13:45:13Z</time>
      </trkpt>
      <trkpt lat="39.968683" lon="-4.665800">
        <ele>1145.0</ele>
        <time>2013-07-03T13:45:14Z</time>
      </trkpt>
      <trkpt lat="39.968733" lon="-4.665667">
        <ele>1148.0</ele>
        <time>2013-07-03T13:45:15Z</time>
      </trkpt>
      <trkpt lat="39.968783" lon="-4.665517">
        <ele>1151.0</ele>
        <time>2013-07-03T13:45:16Z</time>
      </trkpt>
      <trkpt lat="39.968867" lon="-4.665383">
        <ele>1153.0</ele>
        <time>2013-07-03T13:45:17Z</time>
      </trkpt>
      <trkpt lat="39.968933" lon="-4.665267">
        <ele>1156.0</ele>
        <time>2013-07-03T13:45:18Z</time>
      </trkpt>
      <trkpt lat="39.969000" lon="-4.665167">
        <ele>1159.0</ele>
        <time>2013-07-03T13:45:19Z</time>
      </trkpt>
      <trkpt lat="39.969067" lon="-4.665083">
        <ele>1161.0</ele>
        <time>2013-07-03T13:45:20Z</time>
      </trkpt>
      <trkpt lat="39.969150" lon="-4.665050">
        <ele>1163.0</ele>
        <time>2013-07-03T13:45:21Z</time>
      </trkpt>
      <trkpt lat="39.969233" lon="-4.665050">
        <ele>1164.0</ele>
        <time>2013-07-03T13:45:22Z</time>
      </trkpt>
      <trkpt lat="39.969317" lon="-4.665067">
        <ele>1166.0</ele>
        <time>2013-07-03T13:45:23Z</time>
      </trkpt>
      <trkpt lat="39.969350" lon="-4.665117">
        <ele>1169.0</ele>
        <time>2013-07-03T13:45:24Z</time>
      </trkpt>
      <trkpt lat="39.969383" lon="-4.665167">
        <ele>1172.0</ele>
        <time>2013-07-03T13:45:25Z</time>
      </trkpt>
      <trkpt lat="39.969400" lon="-4.665200">
        <ele>1175.0</ele>
        <time>2013-07-03T13:45:26Z</time>
      </trkpt>
      <trkpt lat="39.969417" lon="-4.665233">
        <ele>1174.0</ele>
        <time>2013-07-03T13:45:27Z</time>
      </trkpt>
      <trkpt lat="39.969433" lon="-4.665283">
        <ele>1175.0</ele>
        <time>2013-07-03T13:45:28Z</time>
      </trkpt>
      <trkpt lat="39.969450" lon="-4.665350">
        <ele>1177.0</ele>
        <time>2013-07-03T13:45:29Z</time>
      </trkpt>
      <trkpt lat="39.969467" lon="-4.665400">
        <ele>1180.0</ele>
        <time>2013-07-03T13:45:30Z</time>
      </trkpt>
      <trkpt lat="39.969483" lon="-4.665450">
        <ele>1183.0</ele>
        <time>2013-07-03T13:45:31Z</time>
      </trkpt>
      <trkpt lat="39.969483" lon="-4.665500">
        <ele>1187.0</ele>
        <time>2013-07-03T13:45:32Z</time>
      </trkpt>
      <trkpt lat="39.969467" lon="-4.665533">
        <ele>1190.0</ele>
        <time>2013-07-03T13:45:33Z</time>
      </trkpt>
      <trkpt lat="39.969467" lon="-4.665583">
        <ele>1193.0</ele>
        <time>2013-07-03T13:45:34Z</time>
      </trkpt>
      <trkpt lat="39.969433" lon="-4.665600">
        <ele>1196.0</ele>
        <time>2013-07-03T13:45:35Z</time>
      </trkpt>
      <trkpt lat="39.969417" lon="-4.665617">
        <ele>1200.0</ele>
        <time>2013-07-03T13:45:36Z</time>
      </trkpt>
      <trkpt lat="39.969367" lon="-4.665617">
        <ele>1203.0</ele>
        <time>2013-07-03T13:45:37Z</time>
      </trkpt>
      <trkpt lat="39.969333" lon="-4.665600">
        <ele>1205.0</ele>
        <time>2013-07-03T13:45:38Z</time>
      </trkpt>
      <trkpt lat="39.969283" lon="-4.665567">
        <ele>1207.0</ele>
        <time>2013-07-03T13:45:39Z</time>
      </trkpt>
      <trkpt lat="39.969233" lon="-4.665517">
        <ele>1209.0</ele>
        <time>2013-07-03T13:45:40Z</time>
      </trkpt>
      <trkpt lat="39.969183" lon="-4.665450">
        <ele>1211.0</ele>
        <time>2013-07-03T13:45:41Z</time>
      </trkpt>
      <trkpt lat="39.969150" lon="-4.665333">
        <ele>1212.0</ele>
        <time>2013-07-03T13:45:42Z</time>
      </trkpt>
      <trkpt lat="39.969133" lon="-4.665200">
        <ele>1215.0</ele>
        <time>2013-07-03T13:45:43Z</time>
      </trkpt>
      <trkpt lat="39.969117" lon="-4.665083">
        <ele>1219.0</ele>
        <time>2013-07-03T13:45:44Z</time>
      </trkpt>
      <trkpt lat="39.969133" lon="-4.664950">
        <ele>1222.0</ele>
        <time>2013-07-03T13:45:45Z</time>
      </trkpt>
      <trkpt lat="39.969167" lon="-4.664833">
        <ele>1224.0</ele>
        <time>2013-07-03T13:45:46Z</time>
      </trkpt>
      <trkpt lat="39.969200" lon="-4.664717">
        <ele>1227.0</ele>
        <time>2013-07-03T13:45:47Z</time>
      </trkpt>
      <trkpt lat="39.969267" lon="-4.664617">
        <ele>1229.0</ele>
        <time>2013-07-03T13:45:48Z</time>
      </trkpt>
      <trkpt lat="39.969350" lon="-4.664517">
        <ele>1232.0</ele>
        <time>2013-07-03T13:45:49Z</time>
      </trkpt>
      <trkpt lat="39.969450" lon="-4.664450">
        <ele>1235.0</ele>
        <time>2013-07-03T13:45:50Z</time>
      </trkpt>
      <trkpt lat="39.969533" lon="-4.664417">
        <ele>1239.0</ele>
        <time>2013-07-03T13:45:51Z</time>
      </trkpt>
      <trkpt lat="39.969617" lon="-4.664417">
        <ele>1242.0</ele>
        <time>2013-07-03T13:45:52Z</time>
      </trkpt>
      <trkpt lat="39.969683" lon="-4.664417">
        <ele>1244.0</ele>
        <time>2013-07-03T13:45:53Z</time>
      </trkpt>
      <trkpt lat="39.969750" lon="-4.664433">
        <ele>1247.0</ele>
        <time>2013-07-03T13:45:54Z</time>
      </trkpt>
      <trkpt lat="39.969833" lon="-4.664467">
        <ele>1249.0</ele>
        <time>2013-07-03T13:45:55Z</time>
      </trkpt>
      <trkpt lat="39.969900" lon="-4.664500">
        <ele>1252.0</ele>
        <time>2013-07-03T13:45:56Z</time>
      </trkpt>
      <trkpt lat="39.969950" lon="-4.664550">
        <ele>1255.0</ele>
        <time>2013-07-03T13:45:57Z</time>
      </trkpt>
      <trkpt lat="39.969983" lon="-4.664583">
        <ele>1258.0</ele>
        <time>2013-07-03T13:45:58Z</time>
      </trkpt>
      <trkpt lat="39.969983" lon="-4.664633">
        <ele>1259.0</ele>
        <time>2013-07-03T13:45:59Z</time>
      </trkpt>
      <trkpt lat="39.969967" lon="-4.664683">
        <ele>1260.0</ele>
        <time>2013-07-03T13:46:00Z</time>
      </trkpt>
      <trkpt lat="39.969933" lon="-4.664717">
        <ele>1261.0</ele>
        <time>2013-07-03T13:46:01Z</time>
      </trkpt>
      <trkpt lat="39.969917" lon="-4.664750">
        <ele>1262.0</ele>
        <time>2013-07-03T13:46:02Z</time>
      </trkpt>
      <trkpt lat="39.969867" lon="-4.664783">
        <ele>1263.0</ele>
        <time>2013-07-03T13:46:03Z</time>
      </trkpt>
      <trkpt lat="39.969817" lon="-4.664800">
        <ele>1264.0</ele>
        <time>2013-07-03T13:46:04Z</time>
      </trkpt>
      <trkpt lat="39.969767" lon="-4.664783">
        <ele>1265.0</ele>
        <time>2013-07-03T13:46:05Z</time>
      </trkpt>
      <trkpt lat="39.969733" lon="-4.664733">
        <ele>1265.0</ele>
        <time>2013-07-03T13:46:06Z</time>
      </trkpt>
      <trkpt lat="39.969667" lon="-4.664667">
        <ele>1265.0</ele>
        <time>2013-07-03T13:46:07Z</time>
      </trkpt>
      <trkpt lat="39.969617" lon="-4.664600">
        <ele>1264.0</ele>
        <time>2013-07-03T13:46:08Z</time>
      </trkpt>
      <trkpt lat="39.969567" lon="-4.664500">
        <ele>1265.0</ele>
        <time>2013-07-03T13:46:09Z</time>
      </trkpt>
      <trkpt lat="39.969517" lon="-4.664417">
        <ele>1265.0</ele>
        <time>2013-07-03T13:46:10Z</time>
      </trkpt>
      <trkpt lat="39.969467" lon="-4.664317">
        <ele>1267.0</ele>
        <time>2013-07-03T13:46:11Z</time>
      </trkpt>
      <trkpt lat="39.969433" lon="-4.664233">
        <ele>1267.0</ele>
        <time>2013-07-03T13:46:12Z</time>
      </trkpt>
      <trkpt lat="39.969383" lon="-4.664133">
        <ele>1269.0</ele>
        <time>2013-07-03T13:46:13Z</time>
      </trkpt>
      <trkpt lat="39.969333" lon="-4.664050">
        <ele>1272.0</ele>
        <time>2013-07-03T13:46:14Z</time>
      </trkpt>
      <trkpt lat="39.969300" lon="-4.663933">
        <ele>1275.0</ele>
        <time>2013-07-03T13:46:15Z</time>
      </trkpt>
      <trkpt lat="39.969300" lon="-4.663833">
        <ele>1278.0</ele>
        <time>2013-07-03T13:46:16Z</time>
      </trkpt>
      <trkpt lat="39.969283" lon="-4.663717">
        <ele>1280.0</ele>
        <time>2013-07-03T13:46:17Z</time>
      </trkpt>
      <trkpt lat="39.969267" lon="-4.663600">
        <ele>1282.0</ele>
        <time>2013-07-03T13:46:18Z</time>
      </trkpt>
      <trkpt lat="39.969250" lon="-4.663467">
        <ele>1284.0</ele>
        <time>2013-07-03T13:46:19Z</time>
      </trkpt>
      <trkpt lat="39.969267" lon="-4.663317">
        <ele>1286.0</ele>
        <time>2013-07-03T13:46:20Z</time>
      </trkpt>
      <trkpt lat="39.969300" lon="-4.663167">
        <ele>1287.0</ele>
        <time>2013-07-03T13:46:21Z</time>
      </trkpt>
      <trkpt lat="39.969350" lon="-4.663033">
        <ele>1289.0</ele>
        <time>2013-07-03T13:46:22Z</time>
      </trkpt>
      <trkpt lat="39.969417" lon="-4.662900">
        <ele>1291.0</ele>
        <time>2013-07-03T13:46:23Z</time>
      </trkpt>
      <trkpt lat="39.969483" lon="-4.662783">
        <ele>1293.0</ele>
        <time>2013-07-03T13:46:24Z</time>
      </trkpt>
      <trkpt lat="39.969550" lon="-4.662650">
        <ele>1295.0</ele>
        <time>2013-07-03T13:46:25Z</time>
      </trkpt>
      <trkpt lat="39.969617" lon="-4.662533">
        <ele>1297.0</ele>
        <time>2013-07-03T13:46:26Z</time>
      </trkpt>
      <trkpt lat="39.969700" lon="-4.662433">
        <ele>1300.0</ele>
        <time>2013-07-03T13:46:27Z</time>
      </trkpt>
      <trkpt lat="39.969800" lon="-4.662367">
        <ele>1301.0</ele>
        <time>2013-07-03T13:46:28Z</time>
      </trkpt>
      <trkpt lat="39.969900" lon="-4.662350">
        <ele>1303.0</ele>
        <time>2013-07-03T13:46:29Z</time>
      </trkpt>
      <trkpt lat="39.969983" lon="-4.662350">
        <ele>1305.0</ele>
        <time>2013-07-03T13:46:30Z</time>
      </trkpt>
      <trkpt lat="39.970067" lon="-4.662367">
        <ele>1308.0</ele>
        <time>2013-07-03T13:46:31Z</time>
      </trkpt>
      <trkpt lat="39.970117" lon="-4.662400">
        <ele>1310.0</ele>
        <time>2013-07-03T13:46:32Z</time>
      </trkpt>
      <trkpt lat="39.970150" lon="-4.662433">
        <ele>1312.0</ele>
        <time>2013-07-03T13:46:33Z</time>
      </trkpt>
      <trkpt lat="39.970150" lon="-4.662483">
        <ele>1314.0</ele>
        <time>2013-07-03T13:46:34Z</time>
      </trkpt>
      <trkpt lat="39.970150" lon="-4.662517">
        <ele>1315.0</ele>
        <time>2013-07-03T13:46:35Z</time>
      </trkpt>
      <trkpt lat="39.970133" lon="-4.662550">
        <ele>1316.0</ele>
        <time>2013-07-03T13:46:36Z</time>
      </trkpt>
      <trkpt lat="39.970117" lon="-4.662583">
        <ele>1318.0</ele>
        <time>2013-07-03T13:46:37Z</time>
      </trkpt>
      <trkpt lat="39.970067" lon="-4.662600">
        <ele>1320.0</ele>
        <time>2013-07-03T13:46:38Z</time>
      </trkpt>
      <trkpt lat="39.970033" lon="-4.662617">
        <ele>1323.0</ele>
        <time>2013-07-03T13:46:39Z</time>
      </trkpt>
      <trkpt lat="39.969983" lon="-4.662583">
        <ele>1326.0</ele>
        <time>2013-07-03T13:46:40Z</time>
      </trkpt>
      <trkpt lat="39.969917" lon="-4.662550">
        <ele>1328.0</ele>
        <time>2013-07-03T13:46:41Z</time>
      </trkpt>
      <trkpt lat="39.969867" lon="-4.662500">
        <ele>1331.0</ele>
        <time>2013-07-03T13:46:42Z</time>
      </trkpt>
      <trkpt lat="39.969800" lon="-4.662433">
        <ele>1333.0</ele>
        <time>2013-07-03T13:46:43Z</time>
      </trkpt>
      <trkpt lat="39.969733" lon="-4.662367">
        <ele>1335.0</ele>
        <time>2013-07-03T13:46:44Z</time>
      </trkpt>
      <trkpt lat="39.969700" lon="-4.662300">
        <ele>1337.0</ele>
        <time>2013-07-03T13:46:45Z</time>
      </trkpt>
      <trkpt lat="39.969650" lon="-4.662217">
        <ele>1339.0</ele>
        <time>2013-07-03T13:46:46Z</time>
      </trkpt>
      <trkpt lat="39.969617" lon="-4.662117">
        <ele>1340.0</ele>
        <time>2013-07-03T13:46:47Z</time>
      </trkpt>
      <trkpt lat="39.969583" lon="-4.662000">
        <ele>1340.0</ele>
        <time>2013-07-03T13:46:48Z</time>
      </trkpt>
      <trkpt lat="39.969550" lon="-4.661867">
        <ele>1340.0</ele>
        <time>2013-07-03T13:46:49Z</time>
      </trkpt>
      <trkpt lat="39.969550" lon="-4.661700">
        <ele>1340.0</ele>
        <time>2013-07-03T13:46:50Z</time>
      </trkpt>
      <trkpt lat="39.969567" lon="-4.661533">
        <ele>1341.0</ele>
        <time>2013-07-03T13:46:51Z</time>
      </trkpt>
      <trkpt lat="39.969600" lon="-4.661350">
        <ele>1342.0</ele>
        <time>2013-07-03T13:46:52Z</time>
      </trkpt>
      <trkpt lat="39.969650" lon="-4.661200">
        <ele>1344.0</ele>
        <time>2013-07-03T13:46:53Z</time>
      </trkpt>
      <trkpt lat="39.969733" lon="-4.661067">
        <ele>1346.0</ele>
        <time>2013-07-03T13:46:54Z</time>
      </trkpt>
      <trkpt lat="39.969833" lon="-4.660983">
        <ele>1348.0</ele>
        <time>2013-07-03T13:46:55Z</time>
      </trkpt>
      <trkpt lat="39.969933" lon="-4.660900">
        <ele>1352.0</ele>
        <time>2013-07-03T13:46:56Z</time>
      </trkpt>
      <trkpt lat="39.970017" lon="-4.660833">
        <ele>1355.0</ele>
        <time>2013-07-03T13:46:57Z</time>
      </trkpt>
      <trkpt lat="39.970083" lon="-4.660767">
        <ele>1358.0</ele>
        <time>2013-07-03T13:46:58Z</time>
      </trkpt>
      <trkpt lat="39.970167" lon="-4.660733">
        <ele>1360.0</ele>
        <time>2013-07-03T13:46:59Z</time>
      </trkpt>
      <trkpt lat="39.970267" lon="-4.660717">
        <ele>1362.0</ele>
        <time>2013-07-03T13:47:00Z</time>
      </trkpt>
      <trkpt lat="39.970350" lon="-4.660750">
        <ele>1362.0</ele>
        <time>2013-07-03T13:47:01Z</time>
      </trkpt>
      <trkpt lat="39.970417" lon="-4.660800">
        <ele>1364.0</ele>
        <time>2013-07-03T13:47:02Z</time>
      </trkpt>
      <trkpt lat="39.970467" lon="-4.660850">
        <ele>1367.0</ele>
        <time>2013-07-03T13:47:03Z</time>
      </trkpt>
      <trkpt lat="39.970517" lon="-4.660883">
        <ele>1370.0</ele>
        <time>2013-07-03T13:47:04Z</time>
      </trkpt>
      <trkpt lat="39.970567" lon="-4.660900">
        <ele>1371.0</ele>
        <time>2013-07-03T13:47:05Z</time>
      </trkpt>
      <trkpt lat="39.970617" lon="-4.660933">
        <ele>1373.0</ele>
        <time>2013-07-03T13:47:06Z</time>
      </trkpt>
      <trkpt lat="39.970650" lon="-4.660983">
        <ele>1374.0</ele>
        <time>2013-07-03T13:47:07Z</time>
      </trkpt>
      <trkpt lat="39.970633" lon="-4.661050">
        <ele>1375.0</ele>
        <time>2013-07-03T13:47:08Z</time>
      </trkpt>
      <trkpt lat="39.970600" lon="-4.661117">
        <ele>1377.0</ele>
        <time>2013-07-03T13:47:09Z</time>
      </trkpt>
      <trkpt lat="39.970550" lon="-4.661133">
        <ele>1379.0</ele>
        <time>2013-07-03T13:47:10Z</time>
      </trkpt>
      <trkpt lat="39.970500" lon="-4.661150">
        <ele>1381.0</ele>
        <time>2013-07-03T13:47:11Z</time>
      </trkpt>
      <trkpt lat="39.970450" lon="-4.661133">
        <ele>1383.0</ele>
        <time>2013-07-03T13:47:12Z</time>
      </trkpt>
      <trkpt lat="39.970383" lon="-4.661117">
        <ele>1384.0</ele>
        <time>2013-07-03T13:47:13Z</time>
      </trkpt>
      <trkpt lat="39.970317" lon="-4.661083">
        <ele>1386.0</ele>
        <time>2013-07-03T13:47:14Z</time>
      </trkpt>
      <trkpt lat="39.970267" lon="-4.661033">
        <ele>1389.0</ele>
        <time>2013-07-03T13:47:15Z</time>
      </trkpt>
      <trkpt lat="39.970217" lon="-4.660950">
        <ele>1391.0</ele>
        <time>2013-07-03T13:47:16Z</time>
      </trkpt>
      <trkpt lat="39.970183" lon="-4.660850">
        <ele>1393.0</ele>
        <time>2013-07-03T13:47:17Z</time>
      </trkpt>
      <trkpt lat="39.970133" lon="-4.660750">
        <ele>1394.0</ele>
        <time>2013-07-03T13:47:18Z</time>
      </trkpt>
      <trkpt lat="39.970100" lon="-4.660650">
        <ele>1395.0</ele>
        <time>2013-07-03T13:47:19Z</time>
      </trkpt>
      <trkpt lat="39.970067" lon="-4.660517">
        <ele>1396.0</ele>
        <time>2013-07-03T13:47:20Z</time>
      </trkpt>
      <trkpt lat="39.970033" lon="-4.660367">
        <ele>1397.0</ele>
        <time>2013-07-03T13:47:21Z</time>
      </trkpt>
      <trkpt lat="39.970033" lon="-4.660200">
        <ele>1398.0</ele>
        <time>2013-07-03T13:47:22Z</time>
      </trkpt>
      <trkpt lat="39.970050" lon="-4.660033">
        <ele>1400.0</ele>
        <time>2013-07-03T13:47:23Z</time>
      </trkpt>
      <trkpt lat="39.970083" lon="-4.659867">
        <ele>1403.0</ele>
        <time>2013-07-03T13:47:24Z</time>
      </trkpt>
      <trkpt lat="39.970133" lon="-4.659733">
        <ele>1405.0</ele>
        <time>2013-07-03T13:47:25Z</time>
      </trkpt>
      <trkpt lat="39.970200" lon="-4.659600">
        <ele>1408.0</ele>
        <time>2013-07-03T13:47:26Z</time>
      </trkpt>
      <trkpt lat="39.970267" lon="-4.659483">
        <ele>1410.0</ele>
        <time>2013-07-03T13:47:27Z</time>
      </trkpt>
      <trkpt lat="39.970333" lon="-4.659383">
        <ele>1412.0</ele>
        <time>2013-07-03T13:47:28Z</time>
      </trkpt>
      <trkpt lat="39.970400" lon="-4.659267">
        <ele>1413.0</ele>
        <time>2013-07-03T13:47:29Z</time>
      </trkpt>
      <trkpt lat="39.970483" lon="-4.659183">
        <ele>1415.0</ele>
        <time>2013-07-03T13:47:30Z</time>
      </trkpt>
      <trkpt lat="39.970583" lon="-4.659100">
        <ele>1417.0</ele>
        <time>2013-07-03T13:47:31Z</time>
      </trkpt>
      <trkpt lat="39.970667" lon="-4.659067">
        <ele>1420.0</ele>
        <time>2013-07-03T13:47:32Z</time>
      </trkpt>
      <trkpt lat="39.970733" lon="-4.659033">
        <ele>1423.0</ele>
        <time>2013-07-03T13:47:33Z</time>
      </trkpt>
      <trkpt lat="39.970800" lon="-4.658983">
        <ele>1425.0</ele>
        <time>2013-07-03T13:47:34Z</time>
      </trkpt>
      <trkpt lat="39.970867" lon="-4.658950">
        <ele>1426.0</ele>
        <time>2013-07-03T13:47:35Z</time>
      </trkpt>
      <trkpt lat="39.970933" lon="-4.658917">
        <ele>1427.0</ele>
        <time>2013-07-03T13:47:36Z</time>
      </trkpt>
      <trkpt lat="39.971017" lon="-4.658917">
        <ele>1428.0</ele>
        <time>2013-07-03T13:47:37Z</time>
      </trkpt>
      <trkpt lat="39.971100" lon="-4.658917">
        <ele>1429.0</ele>
        <time>2013-07-03T13:47:38Z</time>
      </trkpt>
      <trkpt lat="39.971183" lon="-4.658917">
        <ele>1431.0</ele>
        <time>2013-07-03T13:47:39Z</time>
      </trkpt>
      <trkpt lat="39.971250" lon="-4.658933">
        <ele>1434.0</ele>
        <time>2013-07-03T13:47:40Z</time>
      </trkpt>
      <trkpt lat="39.971317" lon="-4.658933">
        <ele>1437.0</ele>
        <time>2013-07-03T13:47:41Z</time>
      </trkpt>
      <trkpt lat="39.971383" lon="-4.658933">
        <ele>1439.0</ele>
        <time>2013-07-03T13:47:42Z</time>
      </trkpt>
      <trkpt lat="39.971433" lon="-4.658967">
        <ele>1442.0</ele>
        <time>2013-07-03T13:47:43Z</time>
      </trkpt>
      <trkpt lat="39.971483" lon="-4.659000">
        <ele>1444.0</ele>
        <time>2013-07-03T13:47:44Z</time>
      </trkpt>
      <trkpt lat="39.971517" lon="-4.659050">
        <ele>1447.0</ele>
        <time>2013-07-03T13:47:45Z</time>
      </trkpt>
      <trkpt lat="39.971550" lon="-4.659100">
        <ele>1450.0</ele>
        <time>2013-07-03T13:47:46Z</time>
      </trkpt>
      <trkpt lat="39.971550" lon="-4.659133">
        <ele>1454.0</ele>
        <time>2013-07-03T13:47:47Z</time>
      </trkpt>
      <trkpt lat="39.971550" lon="-4.659167">
        <ele>1457.0</ele>
        <time>2013-07-03T13:47:48Z</time>
      </trkpt>
      <trkpt lat="39.971533" lon="-4.659200">
        <ele>1460.0</ele>
        <time>2013-07-03T13:47:49Z</time>
      </trkpt>
      <trkpt lat="39.971517" lon="-4.659217">
        <ele>1461.0</ele>
        <time>2013-07-03T13:47:50Z</time>
      </trkpt>
      <trkpt lat="39.971483" lon="-4.659233">
        <ele>1462.0</ele>
        <time>2013-07-03T13:47:51Z</time>
      </trkpt>
      <trkpt lat="39.971433" lon="-4.659250">
        <ele>1464.0</ele>
        <time>2013-07-03T13:47:52Z</time>
      </trkpt>
      <trkpt lat="39.971367" lon="-4.659217">
        <ele>1466.0</ele>
        <time>2013-07-03T13:47:53Z</time>
      </trkpt>
      <trkpt lat="39.971300" lon="-4.659150">
        <ele>1467.0</ele>
        <time>2013-07-03T13:47:54Z</time>
      </trkpt>
      <trkpt lat="39.971233" lon="-4.659067">
        <ele>1469.0</ele>
        <time>2013-07-03T13:47:55Z</time>
      </trkpt>
      <trkpt lat="39.971183" lon="-4.658967">
        <ele>1471.0</ele>
        <time>2013-07-03T13:47:56Z</time>
      </trkpt>
      <trkpt lat="39.971133" lon="-4.658867">
        <ele>1473.0</ele>
        <time>2013-07-03T13:47:57Z</time>
      </trkpt>
      <trkpt lat="39.971083" lon="-4.658767">
        <ele>1475.0</ele>
        <time>2013-07-03T13:47:58Z</time>
      </trkpt>
      <trkpt lat="39.971050" lon="-4.658650">
        <ele>1476.0</ele>
        <time>2013-07-03T13:47:59Z</time>
      </trkpt>
      <trkpt lat="39.971017" lon="-4.658533">
        <ele>1478.0</ele>
        <time>2013-07-03T13:48:00Z</time>
      </trkpt>
      <trkpt lat="39.971017" lon="-4.658383">
        <ele>1479.0</ele>
        <time>2013-07-03T13:48:01Z</time>
      </trkpt>
      <trkpt lat="39.971033" lon="-4.658250">
        <ele>1480.0</ele>
        <time>2013-07-03T13:48:02Z</time>
      </trkpt>
      <trkpt lat="39.971050" lon="-4.658117">
        <ele>1482.0</ele>
        <time>2013-07-03T13:48:03Z</time>
      </trkpt>
      <trkpt lat="39.971083" lon="-4.658000">
        <ele>1483.0</ele>
        <time>2013-07-03T13:48:04Z</time>
      </trkpt>
      <trkpt lat="39.971117" lon="-4.657883">
        <ele>1484.0</ele>
        <time>2013-07-03T13:48:05Z</time>
      </trkpt>
      <trkpt lat="39.971150" lon="-4.657767">
        <ele>1485.0</ele>
        <time>2013-07-03T13:48:06Z</time>
      </trkpt>
      <trkpt lat="39.971217" lon="-4.657667">
        <ele>1486.0</ele>
        <time>2013-07-03T13:48:07Z</time>
      </trkpt>
      <trkpt lat="39.971300" lon="-4.657567">
        <ele>1487.0</ele>
        <time>2013-07-03T13:48:08Z</time>
      </trkpt>
      <trkpt lat="39.971383" lon="-4.657483">
        <ele>1490.0</ele>
        <time>2013-07-03T13:48:09Z</time>
      </trkpt>
      <trkpt lat="39.971450" lon="-4.657400">
        <ele>1493.0</ele>
        <time>2013-07-03T13:48:10Z</time>
      </trkpt>
      <trkpt lat="39.971517" lon="-4.657333">
        <ele>1496.0</ele>
        <time>2013-07-03T13:48:11Z</time>
      </trkpt>
      <trkpt lat="39.971600" lon="-4.657250">
        <ele>1499.0</ele>
        <time>2013-07-03T13:48:12Z</time>
      </trkpt>
      <trkpt lat="39.971667" lon="-4.657200">
        <ele>1501.0</ele>
        <time>2013-07-03T13:48:13Z</time>
      </trkpt>
      <trkpt lat="39.971750" lon="-4.657167">
        <ele>1502.0</ele>
        <time>2013-07-03T13:48:14Z</time>
      </trkpt>
      <trkpt lat="39.971817" lon="-4.657150">
        <ele>1503.0</ele>
        <time>2013-07-03T13:48:15Z</time>
      </trkpt>
      <trkpt lat="39.971900" lon="-4.657150">
        <ele>1503.0</ele>
        <time>2013-07-03T13:48:16Z</time>
      </trkpt>
      <trkpt lat="39.971967" lon="-4.657150">
        <ele>1505.0</ele>
        <time>2013-07-03T13:48:17Z</time>
      </trkpt>
      <trkpt lat="39.972050" lon="-4.657150">
        <ele>1506.0</ele>
        <time>2013-07-03T13:48:18Z</time>
      </trkpt>
      <trkpt lat="39.972133" lon="-4.657150">
        <ele>1507.0</ele>
        <time>2013-07-03T13:48:19Z</time>
      </trkpt>
      <trkpt lat="39.972217" lon="-4.657167">
        <ele>1509.0</ele>
        <time>2013-07-03T13:48:20Z</time>
      </trkpt>
      <trkpt lat="39.972300" lon="-4.657183">
        <ele>1510.0</ele>
        <time>2013-07-03T13:48:21Z</time>
      </trkpt>
      <trkpt lat="39.972367" lon="-4.657200">
        <ele>1511.0</ele>
        <time>2013-07-03T13:48:22Z</time>
      </trkpt>
      <trkpt lat="39.972450" lon="-4.657217">
        <ele>1511.0</ele>
        <time>2013-07-03T13:48:23Z</time>
      </trkpt>
      <trkpt lat="39.972517" lon="-4.657233">
        <ele>1511.0</ele>
        <time>2013-07-03T13:48:24Z</time>
      </trkpt>
      <trkpt lat="39.972583" lon="-4.657283">
        <ele>1510.0</ele>
        <time>2013-07-03T13:48:25Z</time>
      </trkpt>
      <trkpt lat="39.972633" lon="-4.657333">
        <ele>1509.0</ele>
        <time>2013-07-03T13:48:26Z</time>
      </trkpt>
      <trkpt lat="39.972683" lon="-4.657417">
        <ele>1508.0</ele>
        <time>2013-07-03T13:48:27Z</time>
      </trkpt>
      <trkpt lat="39.972733" lon="-4.657483">
        <ele>1509.0</ele>
        <time>2013-07-03T13:48:28Z</time>
      </trkpt>
      <trkpt lat="39.972767" lon="-4.657567">
        <ele>1509.0</ele>
        <time>2013-07-03T13:48:29Z</time>
      </trkpt>
      <trkpt lat="39.972783" lon="-4.657617">
        <ele>1511.0</ele>
        <time>2013-07-03T13:48:30Z</time>
      </trkpt>
      <trkpt lat="39.972800" lon="-4.657683">
        <ele>1512.0</ele>
        <time>2013-07-03T13:48:31Z</time>
      </trkpt>
      <trkpt lat="39.972817" lon="-4.657717">
        <ele>1514.0</ele>
        <time>2013-07-03T13:48:32Z</time>
      </trkpt>
      <trkpt lat="39.972833" lon="-4.657750">
        <ele>1516.0</ele>
        <time>2013-07-03T13:48:33Z</time>
      </trkpt>
      <trkpt lat="39.972850" lon="-4.657783">
        <ele>1517.0</ele>
        <time>2013-07-03T13:48:34Z</time>
      </trkpt>
      <trkpt lat="39.972867" lon="-4.657817">
        <ele>1517.0</ele>
        <time>2013-07-03T13:48:35Z</time>
      </trkpt>
      <trkpt lat="39.972850" lon="-4.657867">
        <ele>1517.0</ele>
        <time>2013-07-03T13:48:36Z</time>
      </trkpt>
      <trkpt lat="39.972817" lon="-4.657900">
        <ele>1518.0</ele>
        <time>2013-07-03T13:48:37Z</time>
      </trkpt>
      <trkpt lat="39.972750" lon="-4.657917">
        <ele>1518.0</ele>
        <time>2013-07-03T13:48:38Z</time>
      </trkpt>
      <trkpt lat="39.972683" lon="-4.657900">
        <ele>1518.0</ele>
        <time>2013-07-03T13:48:39Z</time>
      </trkpt>
      <trkpt lat="39.972633" lon="-4.657850">
        <ele>1519.0</ele>
        <time>2013-07-03T13:48:40Z</time>
      </trkpt>
      <trkpt lat="39.972583" lon="-4.657783">
        <ele>1519.0</ele>
        <time>2013-07-03T13:48:41Z</time>
      </trkpt>
      <trkpt lat="39.972533" lon="-4.657717">
        <ele>1517.0</ele>
        <time>2013-07-03T13:48:42Z</time>
      </trkpt>
      <trkpt lat="39.972467" lon="-4.657633">
        <ele>1516.0</ele>
        <time>2013-07-03T13:48:43Z</time>
      </trkpt>
      <trkpt lat="39.972400" lon="-4.657533">
        <ele>1515.0</ele>
        <time>2013-07-03T13:48:44Z</time>
      </trkpt>
      <trkpt lat="39.972333" lon="-4.657417">
        <ele>1514.0</ele>
        <time>2013-07-03T13:48:45Z</time>
      </trkpt>
      <trkpt lat="39.972283" lon="-4.657267">
        <ele>1516.0</ele>
        <time>2013-07-03T13:48:46Z</time>
      </trkpt>
      <trkpt lat="39.972267" lon="-4.657117">
        <ele>1520.0</ele>
        <time>2013-07-03T13:48:47Z</time>
      </trkpt>
      <trkpt lat="39.972250" lon="-4.657000">
        <ele>1524.0</ele>
        <time>2013-07-03T13:48:48Z</time>
      </trkpt>
      <trkpt lat="39.972233" lon="-4.656883">
        <ele>1527.0</ele>
        <time>2013-07-03T13:48:49Z</time>
      </trkpt>
      <trkpt lat="39.972233" lon="-4.656767">
        <ele>1529.0</ele>
        <time>2013-07-03T13:48:50Z</time>
      </trkpt>
      <trkpt lat="39.972233" lon="-4.656617">
        <ele>1530.0</ele>
        <time>2013-07-03T13:48:51Z</time>
      </trkpt>
      <trkpt lat="39.972250" lon="-4.656450">
        <ele>1531.0</ele>
        <time>2013-07-03T13:48:52Z</time>
      </trkpt>
      <trkpt lat="39.972283" lon="-4.656283">
        <ele>1534.0</ele>
        <time>2013-07-03T13:48:53Z</time>
      </trkpt>
      <trkpt lat="39.972333" lon="-4.656133">
        <ele>1538.0</ele>
        <time>2013-07-03T13:48:54Z</time>
      </trkpt>
      <trkpt lat="39.972400" lon="-4.656033">
        <ele>1542.0</ele>
        <time>2013-07-03T13:48:55Z</time>
      </trkpt>
      <trkpt lat="39.972467" lon="-4.655950">
        <ele>1545.0</ele>
        <time>2013-07-03T13:48:56Z</time>
      </trkpt>
      <trkpt lat="39.972533" lon="-4.655883">
        <ele>1547.0</ele>
        <time>2013-07-03T13:48:57Z</time>
      </trkpt>
      <trkpt lat="39.972600" lon="-4.655817">
        <ele>1547.0</ele>
        <time>2013-07-03T13:48:58Z</time>
      </trkpt>
      <trkpt lat="39.972650" lon="-4.655750">
        <ele>1546.0</ele>
        <time>2013-07-03T13:48:59Z</time>
      </trkpt>
      <trkpt lat="39.972717" lon="-4.655700">
        <ele>1545.0</ele>
        <time>2013-07-03T13:49:00Z</time>
      </trkpt>
      <trkpt lat="39.972800" lon="-4.655683">
        <ele>1543.0</ele>
        <time>2013-07-03T13:49:01Z</time>
      </trkpt>
      <trkpt lat="39.972883" lon="-4.655700">
        <ele>1542.0</ele>
        <time>2013-07-03T13:49:02Z</time>
      </trkpt>
      <trkpt lat="39.972950" lon="-4.655750">
        <ele>1540.0</ele>
        <time>2013-07-03T13:49:03Z</time>
      </trkpt>
      <trkpt lat="39.973000" lon="-4.655817">
        <ele>1539.0</ele>
        <time>2013-07-03T13:49:04Z</time>
      </trkpt>
      <trkpt lat="39.973033" lon="-4.655883">
        <ele>1538.0</ele>
        <time>2013-07-03T13:49:05Z</time>
      </trkpt>
      <trkpt lat="39.973067" lon="-4.655967">
        <ele>1538.0</ele>
        <time>2013-07-03T13:49:06Z</time>
      </trkpt>
      <trkpt lat="39.973067" lon="-4.656017">
        <ele>1538.0</ele>
        <time>2013-07-03T13:49:07Z</time>
      </trkpt>
      <trkpt lat="39.973067" lon="-4.656067">
        <ele>1540.0</ele>
        <time>2013-07-03T13:49:08Z</time>
      </trkpt>
      <trkpt lat="39.973050" lon="-4.656117">
        <ele>1541.0</ele>
        <time>2013-07-03T13:49:09Z</time>
      </trkpt>
      <trkpt lat="39.973050" lon="-4.656133">
        <ele>1542.0</ele>
        <time>2013-07-03T13:49:10Z</time>
      </trkpt>
      <trkpt lat="39.973033" lon="-4.656133">
        <ele>1542.0</ele>
        <time>2013-07-03T13:49:11Z</time>
      </trkpt>
      <trkpt lat="39.973033" lon="-4.656167">
        <ele>1543.0</ele>
        <time>2013-07-03T13:49:12Z</time>
      </trkpt>
      <trkpt lat="39.973017" lon="-4.656200">
        <ele>1542.0</ele>
        <time>2013-07-03T13:49:13Z</time>
      </trkpt>
      <trkpt lat="39.973000" lon="-4.656233">
        <ele>1542.0</ele>
        <time>2013-07-03T13:49:14Z</time>
      </trkpt>
      <trkpt lat="39.972967" lon="-4.656267">
        <ele>1540.0</ele>
        <time>2013-07-03T13:49:15Z</time>
      </trkpt>
      <trkpt lat="39.972917" lon="-4.656283">
        <ele>1541.0</ele>
        <time>2013-07-03T13:49:16Z</time>
      </trkpt>
      <trkpt lat="39.972867" lon="-4.656300">
        <ele>1541.0</ele>
        <time>2013-07-03T13:49:17Z</time>
      </trkpt>
      <trkpt lat="39.972817" lon="-4.656283">
        <ele>1542.0</ele>
        <time>2013-07-03T13:49:18Z</time>
      </trkpt>
      <trkpt lat="39.972767" lon="-4.656250">
        <ele>1543.0</ele>
        <time>2013-07-03T13:49:19Z</time>
      </trkpt>
      <trkpt lat="39.972717" lon="-4.656183">
        <ele>1544.0</ele>
        <time>2013-07-03T13:49:20Z</time>
      </trkpt>
      <trkpt lat="39.972667" lon="-4.656083">
        <ele>1545.0</ele>
        <time>2013-07-03T13:49:21Z</time>
      </trkpt>
      <trkpt lat="39.972633" lon="-4.655967">
        <ele>1545.0</ele>
        <time>2013-07-03T13:49:22Z</time>
      </trkpt>
      <trkpt lat="39.972600" lon="-4.655850">
        <ele>1546.0</ele>
        <time>2013-07-03T13:49:23Z</time>
      </trkpt>
      <trkpt lat="39.972567" lon="-4.655733">
        <ele>1548.0</ele>
        <time>2013-07-03T13:49:24Z</time>
      </trkpt>
      <trkpt lat="39.972567" lon="-4.655617">
        <ele>1549.0</ele>
        <time>2013-07-03T13:49:25Z</time>
      </trkpt>
      <trkpt lat="39.972567" lon="-4.655483">
        <ele>1550.0</ele>
        <time>2013-07-03T13:49:26Z</time>
      </trkpt>
      <trkpt lat="39.972583" lon="-4.655333">
        <ele>1551.0</ele>
        <time>2013-07-03T13:49:27Z</time>
      </trkpt>
      <trkpt lat="39.972617" lon="-4.655200">
        <ele>1552.0</ele>
        <time>2013-07-03T13:49:28Z</time>
      </trkpt>
      <trkpt lat="39.972633" lon="-4.655067">
        <ele>1554.0</ele>
        <time>2013-07-03T13:49:29Z</time>
      </trkpt>
      <trkpt lat="39.972667" lon="-4.654950">
        <ele>1555.0</ele>
        <time>2013-07-03T13:49:30Z</time>
      </trkpt>
      <trkpt lat="39.972700" lon="-4.654850">
        <ele>1556.0</ele>
        <time>2013-07-03T13:49:31Z</time>
      </trkpt>
      <trkpt lat="39.972733" lon="-4.654733">
        <ele>1556.0</ele>
        <time>2013-07-03T13:49:32Z</time>
      </trkpt>
      <trkpt lat="39.972783" lon="-4.654633">
        <ele>1557.0</ele>
        <time>2013-07-03T13:49:33Z</time>
      </trkpt>
      <trkpt lat="39.972817" lon="-4.654533">
        <ele>1557.0</ele>
        <time>2013-07-03T13:49:34Z</time>
      </trkpt>
      <trkpt lat="39.972867" lon="-4.654433">
        <ele>1558.0</ele>
        <time>2013-07-03T13:49:35Z</time>
      </trkpt>
      <trkpt lat="39.972933" lon="-4.654333">
        <ele>1559.0</ele>
        <time>2013-07-03T13:49:36Z</time>
      </trkpt>
      <trkpt lat="39.972983" lon="-4.654233">
        <ele>1559.0</ele>
        <time>2013-07-03T13:49:37Z</time>
      </trkpt>
      <trkpt lat="39.973033" lon="-4.654150">
        <ele>1560.0</ele>
        <time>2013-07-03T13:49:38Z</time>
      </trkpt>
      <trkpt lat="39.973100" lon="-4.654033">
        <ele>1560.0</ele>
        <time>2013-07-03T13:49:39Z</time>
      </trkpt>
      <trkpt lat="39.973150" lon="-4.653933">
        <ele>1561.0</ele>
        <time>2013-07-03T13:49:40Z</time>
      </trkpt>
      <trkpt lat="39.973200" lon="-4.653817">
        <ele>1561.0</ele>
        <time>2013-07-03T13:49:41Z</time>
      </trkpt>
      <trkpt lat="39.973250" lon="-4.653717">
        <ele>1561.0</ele>
        <time>2013-07-03T13:49:42Z</time>
      </trkpt>
      <trkpt lat="39.973317" lon="-4.653617">
        <ele>1562.0</ele>
        <time>2013-07-03T13:49:43Z</time>
      </trkpt>
      <trkpt lat="39.973383" lon="-4.653517">
        <ele>1562.0</ele>
        <time>2013-07-03T13:49:44Z</time>
      </trkpt>
      <trkpt lat="39.973467" lon="-4.653433">
        <ele>1562.0</ele>
        <time>2013-07-03T13:49:45Z</time>
      </trkpt>
      <trkpt lat="39.973533" lon="-4.653383">
        <ele>1563.0</ele>
        <time>2013-07-03T13:49:46Z</time>
      </trkpt>
      <trkpt lat="39.973617" lon="-4.653333">
        <ele>1562.0</ele>
        <time>2013-07-03T13:49:47Z</time>
      </trkpt>
      <trkpt lat="39.973700" lon="-4.653317">
        <ele>1563.0</ele>
        <time>2013-07-03T13:49:48Z</time>
      </trkpt>
      <trkpt lat="39.973767" lon="-4.653333">
        <ele>1563.0</ele>
        <time>2013-07-03T13:49:49Z</time>
      </trkpt>
      <trkpt lat="39.973833" lon="-4.653350">
        <ele>1563.0</ele>
        <time>2013-07-03T13:49:50Z</time>
      </trkpt>
      <trkpt lat="39.973900" lon="-4.653383">
        <ele>1563.0</ele>
        <time>2013-07-03T13:49:51Z</time>
      </trkpt>
      <trkpt lat="39.973950" lon="-4.653417">
        <ele>1564.0</ele>
        <time>2013-07-03T13:49:52Z</time>
      </trkpt>
      <trkpt lat="39.973983" lon="-4.653467">
        <ele>1564.0</ele>
        <time>2013-07-03T13:49:53Z</time>
      </trkpt>
      <trkpt lat="39.974000" lon="-4.653533">
        <ele>1565.0</ele>
        <time>2013-07-03T13:49:54Z</time>
      </trkpt>
      <trkpt lat="39.974017" lon="-4.653583">
        <ele>1566.0</ele>
        <time>2013-07-03T13:49:55Z</time>
      </trkpt>
      <trkpt lat="39.974017" lon="-4.653633">
        <ele>1568.0</ele>
        <time>2013-07-03T13:49:56Z</time>
      </trkpt>
      <trkpt lat="39.974017" lon="-4.653683">
        <ele>1569.0</ele>
        <time>2013-07-03T13:49:57Z</time>
      </trkpt>
      <trkpt lat="39.974017" lon="-4.653733">
        <ele>1572.0</ele>
        <time>2013-07-03T13:49:58Z</time>
      </trkpt>
      <trkpt lat="39.974033" lon="-4.653767">
        <ele>1574.0</ele>
        <time>2013-07-03T13:49:59Z</time>
      </trkpt>
      <trkpt lat="39.974033" lon="-4.653800">
        <ele>1575.0</ele>
        <time>2013-07-03T13:50:00Z</time>
      </trkpt>
      <trkpt lat="39.974050" lon="-4.653817">
        <ele>1575.0</ele>
        <time>2013-07-03T13:50:01Z</time>
      </trkpt>
      <trkpt lat="39.974067" lon="-4.653850">
        <ele>1575.0</ele>
        <time>2013-07-03T13:50:02Z</time>
      </trkpt>
      <trkpt lat="39.974067" lon="-4.653917">
        <ele>1574.0</ele>
        <time>2013-07-03T13:50:03Z</time>
      </trkpt>
      <trkpt lat="39.974050" lon="-4.653967">
        <ele>1571.0</ele>
        <time>2013-07-03T13:50:04Z</time>
      </trkpt>
      <trkpt lat="39.974017" lon="-4.654033">
        <ele>1571.0</ele>
        <time>2013-07-03T13:50:05Z</time>
      </trkpt>
      <trkpt lat="39.973983" lon="-4.654100">
        <ele>1570.0</ele>
        <time>2013-07-03T13:50:06Z</time>
      </trkpt>
      <trkpt lat="39.973967" lon="-4.654150">
        <ele>1571.0</ele>
        <time>2013-07-03T13:50:07Z</time>
      </trkpt>
      <trkpt lat="39.973950" lon="-4.654200">
        <ele>1571.0</ele>
        <time>2013-07-03T13:50:08Z</time>
      </trkpt>
      <trkpt lat="39.973917" lon="-4.654250">
        <ele>1571.0</ele>
        <time>2013-07-03T13:50:09Z</time>
      </trkpt>
      <trkpt lat="39.973867" lon="-4.654267">
        <ele>1571.0</ele>
        <time>2013-07-03T13:50:10Z</time>
      </trkpt>
      <trkpt lat="39.973783" lon="-4.654250">
        <ele>1571.0</ele>
        <time>2013-07-03T13:50:11Z</time>
      </trkpt>
      <trkpt lat="39.973717" lon="-4.654233">
        <ele>1572.0</ele>
        <time>2013-07-03T13:50:12Z</time>
      </trkpt>
      <trkpt lat="39.973650" lon="-4.654200">
        <ele>1572.0</ele>
        <time>2013-07-03T13:50:13Z</time>
      </trkpt>
      <trkpt lat="39.973583" lon="-4.654183">
        <ele>1572.0</ele>
        <time>2013-07-03T13:50:14Z</time>
      </trkpt>
      <trkpt lat="39.973517" lon="-4.654150">
        <ele>1572.0</ele>
        <time>2013-07-03T13:50:15Z</time>
      </trkpt>
      <trkpt lat="39.973450" lon="-4.654100">
        <ele>1571.0</ele>
        <time>2013-07-03T13:50:16Z</time>
      </trkpt>
      <trkpt lat="39.973367" lon="-4.654033">
        <ele>1571.0</ele>
        <time>2013-07-03T13:50:17Z</time>
      </trkpt>
      <trkpt lat="39.973283" lon="-4.653950">
        <ele>1571.0</ele>
        <time>2013-07-03T13:50:18Z</time>
      </trkpt>
      <trkpt lat="39.973200" lon="-4.653900">
        <ele>1571.0</ele>
        <time>2013-07-03T13:50:19Z</time>
      </trkpt>
      <trkpt lat="39.973117" lon="-4.653867">
        <ele>1572.0</ele>
        <time>2013-07-03T13:50:20Z</time>
      </trkpt>
      <trkpt lat="39.973050" lon="-4.653833">
        <ele>1573.0</ele>
        <time>2013-07-03T13:50:21Z</time>
      </trkpt>
      <trkpt lat="39.972983" lon="-4.653800">
        <ele>1573.0</ele>
        <time>2013-07-03T13:50:22Z</time>
      </trkpt>
      <trkpt lat="39.972933" lon="-4.653767">
        <ele>1574.0</ele>
        <time>2013-07-03T13:50:23Z</time>
      </trkpt>
      <trkpt lat="39.972867" lon="-4.653733">
        <ele>1574.0</ele>
        <time>2013-07-03T13:50:24Z</time>
      </trkpt>
      <trkpt lat="39.972800" lon="-4.653700">
        <ele>1575.0</ele>
        <time>2013-07-03T13:50:25Z</time>
      </trkpt>
      <trkpt lat="39.972733" lon="-4.653650">
        <ele>1576.0</ele>
        <time>2013-07-03T13:50:26Z</time>
      </trkpt>
      <trkpt lat="39.972667" lon="-4.653567">
        <ele>1577.0</ele>
        <time>2013-07-03T13:50:27Z</time>
      </trkpt>
      <trkpt lat="39.972617" lon="-4.653483">
        <ele>1579.0</ele>
        <time>2013-07-03T13:50:28Z</time>
      </trkpt>
      <trkpt lat="39.972567" lon="-4.653400">
        <ele>1581.0</ele>
        <time>2013-07-03T13:50:29Z</time>
      </trkpt>
      <trkpt lat="39.972517" lon="-4.653317">
        <ele>1583.0</ele>
        <time>2013-07-03T13:50:30Z</time>
      </trkpt>
      <trkpt lat="39.972483" lon="-4.653217">
        <ele>1584.0</ele>
        <time>2013-07-03T13:50:31Z</time>
      </trkpt>
      <trkpt lat="39.972450" lon="-4.653100">
        <ele>1585.0</ele>
        <time>2013-07-03T13:50:32Z</time>
      </trkpt>
      <trkpt lat="39.972433" lon="-4.652950">
        <ele>1586.0</ele>
        <time>2013-07-03T13:50:33Z</time>
      </trkpt>
      <trkpt lat="39.972417" lon="-4.652817">
        <ele>1588.0</ele>
        <time>2013-07-03T13:50:34Z</time>
      </trkpt>
      <trkpt lat="39.972417" lon="-4.652683">
        <ele>1591.0</ele>
        <time>2013-07-03T13:50:35Z</time>
      </trkpt>
      <trkpt lat="39.972417" lon="-4.652567">
        <ele>1594.0</ele>
        <time>2013-07-03T13:50:36Z</time>
      </trkpt>
      <trkpt lat="39.972433" lon="-4.652433">
        <ele>1596.0</ele>
        <time>2013-07-03T13:50:37Z</time>
      </trkpt>
      <trkpt lat="39.972433" lon="-4.652317">
        <ele>1598.0</ele>
        <time>2013-07-03T13:50:38Z</time>
      </trkpt>
      <trkpt lat="39.972467" lon="-4.652200">
        <ele>1599.0</ele>
        <time>2013-07-03T13:50:39Z</time>
      </trkpt>
      <trkpt lat="39.972500" lon="-4.652083">
        <ele>1600.0</ele>
        <time>2013-07-03T13:50:40Z</time>
      </trkpt>
      <trkpt lat="39.972550" lon="-4.651950">
        <ele>1602.0</ele>
        <time>2013-07-03T13:50:41Z</time>
      </trkpt>
      <trkpt lat="39.972617" lon="-4.651850">
        <ele>1603.0</ele>
        <time>2013-07-03T13:50:42Z</time>
      </trkpt>
      <trkpt lat="39.972700" lon="-4.651750">
        <ele>1605.0</ele>
        <time>2013-07-03T13:50:43Z</time>
      </trkpt>
      <trkpt lat="39.972767" lon="-4.651683">
        <ele>1607.0</ele>
        <time>2013-07-03T13:50:44Z</time>
      </trkpt>
      <trkpt lat="39.972850" lon="-4.651633">
        <ele>1609.0</ele>
        <time>2013-07-03T13:50:45Z</time>
      </trkpt>
      <trkpt lat="39.972933" lon="-4.651600">
        <ele>1609.0</ele>
        <time>2013-07-03T13:50:46Z</time>
      </trkpt>
      <trkpt lat="39.973017" lon="-4.651600">
        <ele>1610.0</ele>
        <time>2013-07-03T13:50:47Z</time>
      </trkpt>
      <trkpt lat="39.973100" lon="-4.651633">
        <ele>1611.0</ele>
        <time>2013-07-03T13:50:48Z</time>
      </trkpt>
      <trkpt lat="39.973150" lon="-4.651683">
        <ele>1611.0</ele>
        <time>2013-07-03T13:50:49Z</time>
      </trkpt>
      <trkpt lat="39.973183" lon="-4.651750">
        <ele>1611.0</ele>
        <time>2013-07-03T13:50:50Z</time>
      </trkpt>
      <trkpt lat="39.973183" lon="-4.651800">
        <ele>1611.0</ele>
        <time>2013-07-03T13:50:51Z</time>
      </trkpt>
      <trkpt lat="39.973167" lon="-4.651850">
        <ele>1609.0</ele>
        <time>2013-07-03T13:50:52Z</time>
      </trkpt>
      <trkpt lat="39.973133" lon="-4.651900">
        <ele>1608.0</ele>
        <time>2013-07-03T13:50:53Z</time>
      </trkpt>
      <trkpt lat="39.973083" lon="-4.651933">
        <ele>1606.0</ele>
        <time>2013-07-03T13:50:54Z</time>
      </trkpt>
      <trkpt lat="39.973017" lon="-4.651967">
        <ele>1606.0</ele>
        <time>2013-07-03T13:50:55Z</time>
      </trkpt>
      <trkpt lat="39.972950" lon="-4.651967">
        <ele>1605.0</ele>
        <time>2013-07-03T13:50:56Z</time>
      </trkpt>
      <trkpt lat="39.972867" lon="-4.651950">
        <ele>1605.0</ele>
        <time>2013-07-03T13:50:57Z</time>
      </trkpt>
      <trkpt lat="39.972783" lon="-4.651900">
        <ele>1605.0</ele>
        <time>2013-07-03T13:50:58Z</time>
      </trkpt>
      <trkpt lat="39.972717" lon="-4.651817">
        <ele>1605.0</ele>
        <time>2013-07-03T13:50:59Z</time>
      </trkpt>
      <trkpt lat="39.972650" lon="-4.651717">
        <ele>1605.0</ele>
        <time>2013-07-03T13:51:00Z</time>
      </trkpt>
      <trkpt lat="39.972583" lon="-4.651600">
        <ele>1605.0</ele>
        <time>2013-07-03T13:51:01Z</time>
      </trkpt>
      <trkpt lat="39.972517" lon="-4.651467">
        <ele>1607.0</ele>
        <time>2013-07-03T13:51:02Z</time>
      </trkpt>
      <trkpt lat="39.972467" lon="-4.651350">
        <ele>1609.0</ele>
        <time>2013-07-03T13:51:03Z</time>
      </trkpt>
      <trkpt lat="39.972433" lon="-4.651217">
        <ele>1612.0</ele>
        <time>2013-07-03T13:51:04Z</time>
      </trkpt>
      <trkpt lat="39.972400" lon="-4.651100">
        <ele>1614.0</ele>
        <time>2013-07-03T13:51:05Z</time>
      </trkpt>
      <trkpt lat="39.972367" lon="-4.650983">
        <ele>1616.0</ele>
        <time>2013-07-03T13:51:06Z</time>
      </trkpt>
      <trkpt lat="39.972333" lon="-4.650883">
        <ele>1618.0</ele>
        <time>2013-07-03T13:51:07Z</time>
      </trkpt>
      <trkpt lat="39.972300" lon="-4.650767">
        <ele>1618.0</ele>
        <time>2013-07-03T13:51:08Z</time>
      </trkpt>
      <trkpt lat="39.972267" lon="-4.650633">
        <ele>1619.0</ele>
        <time>2013-07-03T13:51:09Z</time>
      </trkpt>
      <trkpt lat="39.972250" lon="-4.650500">
        <ele>1619.0</ele>
        <time>2013-07-03T13:51:10Z</time>
      </trkpt>
      <trkpt lat="39.972217" lon="-4.650350">
        <ele>1620.0</ele>
        <time>2013-07-03T13:51:11Z</time>
      </trkpt>
      <trkpt lat="39.972217" lon="-4.650200">
        <ele>1622.0</ele>
        <time>2013-07-03T13:51:12Z</time>
      </trkpt>
      <trkpt lat="39.972217" lon="-4.650067">
        <ele>1623.0</ele>
        <time>2013-07-03T13:51:13Z</time>
      </trkpt>
      <trkpt lat="39.972233" lon="-4.649933">
        <ele>1624.0</ele>
        <time>2013-07-03T13:51:14Z</time>
      </trkpt>
      <trkpt lat="39.972267" lon="-4.649817">
        <ele>1625.0</ele>
        <time>2013-07-03T13:51:15Z</time>
      </trkpt>
      <trkpt lat="39.972300" lon="-4.649700">
        <ele>1625.0</ele>
        <time>2013-07-03T13:51:16Z</time>
      </trkpt>
      <trkpt lat="39.972350" lon="-4.649600">
        <ele>1625.0</ele>
        <time>2013-07-03T13:51:17Z</time>
      </trkpt>
      <trkpt lat="39.972417" lon="-4.649517">
        <ele>1625.0</ele>
        <time>2013-07-03T13:51:18Z</time>
      </trkpt>
      <trkpt lat="39.972483" lon="-4.649450">
        <ele>1625.0</ele>
        <time>2013-07-03T13:51:19Z</time>
      </trkpt>
      <trkpt lat="39.972567" lon="-4.649400">
        <ele>1624.0</ele>
        <time>2013-07-03T13:51:20Z</time>
      </trkpt>
      <trkpt lat="39.972650" lon="-4.649383">
        <ele>1624.0</ele>
        <time>2013-07-03T13:51:21Z</time>
      </trkpt>
      <trkpt lat="39.972717" lon="-4.649383">
        <ele>1623.0</ele>
        <time>2013-07-03T13:51:22Z</time>
      </trkpt>
      <trkpt lat="39.972800" lon="-4.649400">
        <ele>1623.0</ele>
        <time>2013-07-03T13:51:23Z</time>
      </trkpt>
      <trkpt lat="39.972850" lon="-4.649450">
        <ele>1622.0</ele>
        <time>2013-07-03T13:51:24Z</time>
      </trkpt>
      <trkpt lat="39.972900" lon="-4.649500">
        <ele>1621.0</ele>
        <time>2013-07-03T13:51:25Z</time>
      </trkpt>
      <trkpt lat="39.972933" lon="-4.649583">
        <ele>1620.0</ele>
        <time>2013-07-03T13:51:26Z</time>
      </trkpt>
      <trkpt lat="39.972967" lon="-4.649667">
        <ele>1619.0</ele>
        <time>2013-07-03T13:51:27Z</time>
      </trkpt>
      <trkpt lat="39.973000" lon="-4.649750">
        <ele>1619.0</ele>
        <time>2013-07-03T13:51:28Z</time>
      </trkpt>
      <trkpt lat="39.973033" lon="-4.649833">
        <ele>1620.0</ele>
        <time>2013-07-03T13:51:29Z</time>
      </trkpt>
      <trkpt lat="39.973050" lon="-4.649933">
        <ele>1622.0</ele>
        <time>2013-07-03T13:51:30Z</time>
      </trkpt>
      <trkpt lat="39.973067" lon="-4.650000">
        <ele>1624.0</ele>
        <time>2013-07-03T13:51:31Z</time>
      </trkpt>
      <trkpt lat="39.973050" lon="-4.650050">
        <ele>1625.0</ele>
        <time>2013-07-03T13:51:32Z</time>
      </trkpt>
      <trkpt lat="39.973050" lon="-4.650083">
        <ele>1626.0</ele>
        <time>2013-07-03T13:51:33Z</time>
      </trkpt>
      <trkpt lat="39.973017" lon="-4.650133">
        <ele>1626.0</ele>
        <time>2013-07-03T13:51:34Z</time>
      </trkpt>
      <trkpt lat="39.972967" lon="-4.650183">
        <ele>1626.0</ele>
        <time>2013-07-03T13:51:35Z</time>
      </trkpt>
      <trkpt lat="39.972883" lon="-4.650200">
        <ele>1626.0</ele>
        <time>2013-07-03T13:51:36Z</time>
      </trkpt>
      <trkpt lat="39.972817" lon="-4.650183">
        <ele>1627.0</ele>
        <time>2013-07-03T13:51:37Z</time>
      </trkpt>
      <trkpt lat="39.972750" lon="-4.650167">
        <ele>1628.0</ele>
        <time>2013-07-03T13:51:38Z</time>
      </trkpt>
      <trkpt lat="39.972683" lon="-4.650150">
        <ele>1630.0</ele>
        <time>2013-07-03T13:51:39Z</time>
      </trkpt>
      <trkpt lat="39.972633" lon="-4.650150">
        <ele>1630.0</ele>
        <time>2013-07-03T13:51:40Z</time>
      </trkpt>
      <trkpt lat="39.972567" lon="-4.650117">
        <ele>1630.0</ele>
        <time>2013-07-03T13:51:41Z</time>
      </trkpt>
      <trkpt lat="39.972483" lon="-4.650067">
        <ele>1629.0</ele>
        <time>2013-07-03T13:51:42Z</time>
      </trkpt>
      <trkpt lat="39.972417" lon="-4.650000">
        <ele>1631.0</ele>
        <time>2013-07-03T13:51:43Z</time>
      </trkpt>
      <trkpt lat="39.972350" lon="-4.649933">
        <ele>1633.0</ele>
        <time>2013-07-03T13:51:44Z</time>
      </trkpt>
      <trkpt lat="39.972300" lon="-4.649850">
        <ele>1635.0</ele>
        <time>2013-07-03T13:51:45Z</time>
      </trkpt>
      <trkpt lat="39.972250" lon="-4.649767">
        <ele>1637.0</ele>
        <time>2013-07-03T13:51:46Z</time>
      </trkpt>
      <trkpt lat="39.972200" lon="-4.649667">
        <ele>1637.0</ele>
        <time>2013-07-03T13:51:47Z</time>
      </trkpt>
      <trkpt lat="39.972150" lon="-4.649550">
        <ele>1638.0</ele>
        <time>2013-07-03T13:51:48Z</time>
      </trkpt>
      <trkpt lat="39.972117" lon="-4.649400">
        <ele>1638.0</ele>
        <time>2013-07-03T13:51:49Z</time>
      </trkpt>
      <trkpt lat="39.972100" lon="-4.649250">
        <ele>1640.0</ele>
        <time>2013-07-03T13:51:50Z</time>
      </trkpt>
      <trkpt lat="39.972117" lon="-4.649117">
        <ele>1642.0</ele>
        <time>2013-07-03T13:51:51Z</time>
      </trkpt>
      <trkpt lat="39.972133" lon="-4.649000">
        <ele>1643.0</ele>
        <time>2013-07-03T13:51:52Z</time>
      </trkpt>
      <trkpt lat="39.972167" lon="-4.648900">
        <ele>1645.0</ele>
        <time>2013-07-03T13:51:53Z</time>
      </trkpt>
      <trkpt lat="39.972183" lon="-4.648783">
        <ele>1646.0</ele>
        <time>2013-07-03T13:51:54Z</time>
      </trkpt>
      <trkpt lat="39.972217" lon="-4.648683">
        <ele>1647.0</ele>
        <time>2013-07-03T13:51:55Z</time>
      </trkpt>
      <trkpt lat="39.972283" lon="-4.648583">
        <ele>1647.0</ele>
        <time>2013-07-03T13:51:56Z</time>
      </trkpt>
      <trkpt lat="39.972333" lon="-4.648517">
        <ele>1648.0</ele>
        <time>2013-07-03T13:51:57Z</time>
      </trkpt>
      <trkpt lat="39.972400" lon="-4.648483">
        <ele>1649.0</ele>
        <time>2013-07-03T13:51:58Z</time>
      </trkpt>
      <trkpt lat="39.972467" lon="-4.648450">
        <ele>1649.0</ele>
        <time>2013-07-03T13:51:59Z</time>
      </trkpt>
      <trkpt lat="39.972550" lon="-4.648417">
        <ele>1650.0</ele>
        <time>2013-07-03T13:52:00Z</time>
      </trkpt>
      <trkpt lat="39.972617" lon="-4.648417">
        <ele>1650.0</ele>
        <time>2013-07-03T13:52:01Z</time>
      </trkpt>
      <trkpt lat="39.972667" lon="-4.648417">
        <ele>1651.0</ele>
        <time>2013-07-03T13:52:02Z</time>
      </trkpt>
      <trkpt lat="39.972733" lon="-4.648433">
        <ele>1651.0</ele>
        <time>2013-07-03T13:52:03Z</time>
      </trkpt>
      <trkpt lat="39.972783" lon="-4.648467">
        <ele>1651.0</ele>
        <time>2013-07-03T13:52:04Z</time>
      </trkpt>
      <trkpt lat="39.972817" lon="-4.648517">
        <ele>1651.0</ele>
        <time>2013-07-03T13:52:05Z</time>
      </trkpt>
      <trkpt lat="39.972867" lon="-4.648567">
        <ele>1651.0</ele>
        <time>2013-07-03T13:52:06Z</time>
      </trkpt>
      <trkpt lat="39.972900" lon="-4.648633">
        <ele>1652.0</ele>
        <time>2013-07-03T13:52:07Z</time>
      </trkpt>
      <trkpt lat="39.972917" lon="-4.648683">
        <ele>1653.0</ele>
        <time>2013-07-03T13:52:08Z</time>
      </trkpt>
      <trkpt lat="39.972917" lon="-4.648733">
        <ele>1654.0</ele>
        <time>2013-07-03T13:52:09Z</time>
      </trkpt>
      <trkpt lat="39.972883" lon="-4.648767">
        <ele>1654.0</ele>
        <time>2013-07-03T13:52:10Z</time>
      </trkpt>
      <trkpt lat="39.972850" lon="-4.648817">
        <ele>1653.0</ele>
        <time>2013-07-03T13:52:11Z</time>
      </trkpt>
      <trkpt lat="39.972800" lon="-4.648883">
        <ele>1652.0</ele>
        <time>2013-07-03T13:52:12Z</time>
      </trkpt>
      <trkpt lat="39.972750" lon="-4.648933">
        <ele>1651.0</ele>
        <time>2013-07-03T13:52:13Z</time>
      </trkpt>
      <trkpt lat="39.972700" lon="-4.648967">
        <ele>1651.0</ele>
        <time>2013-07-03T13:52:14Z</time>
      </trkpt>
      <trkpt lat="39.972650" lon="-4.649017">
        <ele>1651.0</ele>
        <time>2013-07-03T13:52:15Z</time>
      </trkpt>
      <trkpt lat="39.972600" lon="-4.649033">
        <ele>1651.0</ele>
        <time>2013-07-03T13:52:16Z</time>
      </trkpt>
      <trkpt lat="39.972550" lon="-4.649050">
        <ele>1651.0</ele>
        <time>2013-07-03T13:52:17Z</time>
      </trkpt>
      <trkpt lat="39.972467" lon="-4.649067">
        <ele>1651.0</ele>
        <time>2013-07-03T13:52:18Z</time>
      </trkpt>
      <trkpt lat="39.972400" lon="-4.649067">
        <ele>1650.0</ele>
        <time>2013-07-03T13:52:19Z</time>
      </trkpt>
      <trkpt lat="39.972317" lon="-4.649050">
        <ele>1650.0</ele>
        <time>2013-07-03T13:52:20Z</time>
      </trkpt>
      <trkpt lat="39.972250" lon="-4.649033">
        <ele>1649.0</ele>
        <time>2013-07-03T13:52:21Z</time>
      </trkpt>
      <trkpt lat="39.972150" lon="-4.649033">
        <ele>1649.0</ele>
        <time>2013-07-03T13:52:22Z</time>
      </trkpt>
      <trkpt lat="39.972050" lon="-4.649033">
        <ele>1649.0</ele>
        <time>2013-07-03T13:52:23Z</time>
      </trkpt>
      <trkpt lat="39.971950" lon="-4.649033">
        <ele>1650.0</ele>
        <time>2013-07-03T13:52:24Z</time>
      </trkpt>
      <trkpt lat="39.971867" lon="-4.649000">
        <ele>1651.0</ele>
        <time>2013-07-03T13:52:25Z</time>
      </trkpt>
      <trkpt lat="39.971783" lon="-4.648967">
        <ele>1652.0</ele>
        <time>2013-07-03T13:52:26Z</time>
      </trkpt>
      <trkpt lat="39.971700" lon="-4.648933">
        <ele>1652.0</ele>
        <time>2013-07-03T13:52:27Z</time>
      </trkpt>
      <trkpt lat="39.971617" lon="-4.648883">
        <ele>1653.0</ele>
        <time>2013-07-03T13:52:28Z</time>
      </trkpt>
      <trkpt lat="39.971550" lon="-4.648817">
        <ele>1654.0</ele>
        <time>2013-07-03T13:52:29Z</time>
      </trkpt>
      <trkpt lat="39.971483" lon="-4.648750">
        <ele>1654.0</ele>
        <time>2013-07-03T13:52:30Z</time>
      </trkpt>
      <trkpt lat="39.971433" lon="-4.648683">
        <ele>1654.0</ele>
        <time>2013-07-03T13:52:31Z</time>
      </trkpt>
      <trkpt lat="39.971383" lon="-4.648583">
        <ele>1653.0</ele>
        <time>2013-07-03T13:52:32Z</time>
      </trkpt>
      <trkpt lat="39.971317" lon="-4.648500">
        <ele>1651.0</ele>
        <time>2013-07-03T13:52:33Z</time>
      </trkpt>
      <trkpt lat="39.971267" lon="-4.648383">
        <ele>1650.0</ele>
        <time>2013-07-03T13:52:34Z</time>
      </trkpt>
      <trkpt lat="39.971217" lon="-4.648233">
        <ele>1650.0</ele>
        <time>2013-07-03T13:52:35Z</time>
      </trkpt>
      <trkpt lat="39.971183" lon="-4.648100">
        <ele>1649.0</ele>
        <time>2013-07-03T13:52:36Z</time>
      </trkpt>
      <trkpt lat="39.971183" lon="-4.647950">
        <ele>1649.0</ele>
        <time>2013-07-03T13:52:37Z</time>
      </trkpt>
      <trkpt lat="39.971183" lon="-4.647800">
        <ele>1649.0</ele>
        <time>2013-07-03T13:52:38Z</time>
      </trkpt>
      <trkpt lat="39.971200" lon="-4.647667">
        <ele>1648.0</ele>
        <time>2013-07-03T13:52:39Z</time>
      </trkpt>
      <trkpt lat="39.971217" lon="-4.647517">
        <ele>1647.0</ele>
        <time>2013-07-03T13:52:40Z</time>
      </trkpt>
      <trkpt lat="39.971233" lon="-4.647383">
        <ele>1646.0</ele>
        <time>2013-07-03T13:52:41Z</time>
      </trkpt>
      <trkpt lat="39.971267" lon="-4.647250">
        <ele>1645.0</ele>
        <time>2013-07-03T13:52:42Z</time>
      </trkpt>
      <trkpt lat="39.971300" lon="-4.647117">
        <ele>1643.0</ele>
        <time>2013-07-03T13:52:43Z</time>
      </trkpt>
      <trkpt lat="39.971350" lon="-4.646983">
        <ele>1642.0</ele>
        <time>2013-07-03T13:52:44Z</time>
      </trkpt>
      <trkpt lat="39.971400" lon="-4.646850">
        <ele>1641.0</ele>
        <time>2013-07-03T13:52:45Z</time>
      </trkpt>
      <trkpt lat="39.971450" lon="-4.646767">
        <ele>1641.0</ele>
        <time>2013-07-03T13:52:46Z</time>
      </trkpt>
      <trkpt lat="39.971500" lon="-4.646683">
        <ele>1640.0</ele>
        <time>2013-07-03T13:52:47Z</time>
      </trkpt>
      <trkpt lat="39.971550" lon="-4.646617">
        <ele>1639.0</ele>
        <time>2013-07-03T13:52:48Z</time>
      </trkpt>
      <trkpt lat="39.971617" lon="-4.646550">
        <ele>1638.0</ele>
        <time>2013-07-03T13:52:49Z</time>
      </trkpt>
      <trkpt lat="39.971700" lon="-4.646517">
        <ele>1637.0</ele>
        <time>2013-07-03T13:52:50Z</time>
      </trkpt>
      <trkpt lat="39.971767" lon="-4.646500">
        <ele>1636.0</ele>
        <time>2013-07-03T13:52:51Z</time>
      </trkpt>
      <trkpt lat="39.971850" lon="-4.646517">
        <ele>1635.0</ele>
        <time>2013-07-03T13:52:52Z</time>
      </trkpt>
      <trkpt lat="39.971900" lon="-4.646550">
        <ele>1634.0</ele>
        <time>2013-07-03T13:52:53Z</time>
      </trkpt>
      <trkpt lat="39.971967" lon="-4.646583">
        <ele>1634.0</ele>
        <time>2013-07-03T13:52:54Z</time>
      </trkpt>
      <trkpt lat="39.972017" lon="-4.646650">
        <ele>1634.0</ele>
        <time>2013-07-03T13:52:55Z</time>
      </trkpt>
      <trkpt lat="39.972050" lon="-4.646717">
        <ele>1635.0</ele>
        <time>2013-07-03T13:52:56Z</time>
      </trkpt>
      <trkpt lat="39.972050" lon="-4.646783">
        <ele>1637.0</ele>
        <time>2013-07-03T13:52:57Z</time>
      </trkpt>
      <trkpt lat="39.972050" lon="-4.646817">
        <ele>1638.0</ele>
        <time>2013-07-03T13:52:58Z</time>
      </trkpt>
      <trkpt lat="39.972033" lon="-4.646867">
        <ele>1638.0</ele>
        <time>2013-07-03T13:52:59Z</time>
      </trkpt>
      <trkpt lat="39.972033" lon="-4.646917">
        <ele>1638.0</ele>
        <time>2013-07-03T13:53:00Z</time>
      </trkpt>
      <trkpt lat="39.972017" lon="-4.646983">
        <ele>1638.0</ele>
        <time>2013-07-03T13:53:01Z</time>
      </trkpt>
      <trkpt lat="39.971983" lon="-4.647050">
        <ele>1640.0</ele>
        <time>2013-07-03T13:53:02Z</time>
      </trkpt>
      <trkpt lat="39.971950" lon="-4.647083">
        <ele>1641.0</ele>
        <time>2013-07-03T13:53:03Z</time>
      </trkpt>
      <trkpt lat="39.971917" lon="-4.647100">
        <ele>1643.0</ele>
        <time>2013-07-03T13:53:04Z</time>
      </trkpt>
      <trkpt lat="39.971850" lon="-4.647117">
        <ele>1643.0</ele>
        <time>2013-07-03T13:53:05Z</time>
      </trkpt>
      <trkpt lat="39.971800" lon="-4.647117">
        <ele>1643.0</ele>
        <time>2013-07-03T13:53:06Z</time>
      </trkpt>
      <trkpt lat="39.971733" lon="-4.647133">
        <ele>1643.0</ele>
        <time>2013-07-03T13:53:07Z</time>
      </trkpt>
      <trkpt lat="39.971650" lon="-4.647150">
        <ele>1643.0</ele>
        <time>2013-07-03T13:53:08Z</time>
      </trkpt>
      <trkpt lat="39.971583" lon="-4.647167">
        <ele>1642.0</ele>
        <time>2013-07-03T13:53:09Z</time>
      </trkpt>
      <trkpt lat="39.971500" lon="-4.647167">
        <ele>1642.0</ele>
        <time>2013-07-03T13:53:10Z</time>
      </trkpt>
      <trkpt lat="39.971400" lon="-4.647167">
        <ele>1640.0</ele>
        <time>2013-07-03T13:53:11Z</time>
      </trkpt>
      <trkpt lat="39.971317" lon="-4.647183">
        <ele>1639.0</ele>
        <time>2013-07-03T13:53:12Z</time>
      </trkpt>
      <trkpt lat="39.971217" lon="-4.647183">
        <ele>1638.0</ele>
        <time>2013-07-03T13:53:13Z</time>
      </trkpt>
      <trkpt lat="39.971133" lon="-4.647167">
        <ele>1637.0</ele>
        <time>2013-07-03T13:53:14Z</time>
      </trkpt>
      <trkpt lat="39.971050" lon="-4.647167">
        <ele>1636.0</ele>
        <time>2013-07-03T13:53:15Z</time>
      </trkpt>
      <trkpt lat="39.970950" lon="-4.647167">
        <ele>1636.0</ele>
        <time>2013-07-03T13:53:16Z</time>
      </trkpt>
      <trkpt lat="39.970867" lon="-4.647150">
        <ele>1636.0</ele>
        <time>2013-07-03T13:53:17Z</time>
      </trkpt>
      <trkpt lat="39.970767" lon="-4.647150">
        <ele>1636.0</ele>
        <time>2013-07-03T13:53:18Z</time>
      </trkpt>
      <trkpt lat="39.970667" lon="-4.647117">
        <ele>1636.0</ele>
        <time>2013-07-03T13:53:19Z</time>
      </trkpt>
      <trkpt lat="39.970567" lon="-4.647083">
        <ele>1637.0</ele>
        <time>2013-07-03T13:53:20Z</time>
      </trkpt>
      <trkpt lat="39.970467" lon="-4.647033">
        <ele>1638.0</ele>
        <time>2013-07-03T13:53:21Z</time>
      </trkpt>
      <trkpt lat="39.970367" lon="-4.647000">
        <ele>1640.0</ele>
        <time>2013-07-03T13:53:22Z</time>
      </trkpt>
      <trkpt lat="39.970283" lon="-4.646967">
        <ele>1640.0</ele>
        <time>2013-07-03T13:53:23Z</time>
      </trkpt>
      <trkpt lat="39.970200" lon="-4.646933">
        <ele>1640.0</ele>
        <time>2013-07-03T13:53:24Z</time>
      </trkpt>
      <trkpt lat="39.970100" lon="-4.646900">
        <ele>1639.0</ele>
        <time>2013-07-03T13:53:25Z</time>
      </trkpt>
      <trkpt lat="39.970000" lon="-4.646833">
        <ele>1637.0</ele>
        <time>2013-07-03T13:53:26Z</time>
      </trkpt>
      <trkpt lat="39.969883" lon="-4.646783">
        <ele>1636.0</ele>
        <time>2013-07-03T13:53:27Z</time>
      </trkpt>
      <trkpt lat="39.969767" lon="-4.646717">
        <ele>1637.0</ele>
        <time>2013-07-03T13:53:28Z</time>
      </trkpt>
      <trkpt lat="39.969667" lon="-4.646667">
        <ele>1637.0</ele>
        <time>2013-07-03T13:53:29Z</time>
      </trkpt>
      <trkpt lat="39.969567" lon="-4.646617">
        <ele>1638.0</ele>
        <time>2013-07-03T13:53:30Z</time>
      </trkpt>
      <trkpt lat="39.969467" lon="-4.646567">
        <ele>1637.0</ele>
        <time>2013-07-03T13:53:31Z</time>
      </trkpt>
      <trkpt lat="39.969367" lon="-4.646517">
        <ele>1636.0</ele>
        <time>2013-07-03T13:53:32Z</time>
      </trkpt>
      <trkpt lat="39.969250" lon="-4.646450">
        <ele>1635.0</ele>
        <time>2013-07-03T13:53:33Z</time>
      </trkpt>
      <trkpt lat="39.969133" lon="-4.646383">
        <ele>1634.0</ele>
        <time>2013-07-03T13:53:34Z</time>
      </trkpt>
      <trkpt lat="39.969017" lon="-4.646300">
        <ele>1633.0</ele>
        <time>2013-07-03T13:53:35Z</time>
      </trkpt>
      <trkpt lat="39.968883" lon="-4.646233">
        <ele>1633.0</ele>
        <time>2013-07-03T13:53:36Z</time>
      </trkpt>
      <trkpt lat="39.968783" lon="-4.646167">
        <ele>1633.0</ele>
        <time>2013-07-03T13:53:37Z</time>
      </trkpt>
      <trkpt lat="39.968667" lon="-4.646100">
        <ele>1633.0</ele>
        <time>2013-07-03T13:53:38Z</time>
      </trkpt>
      <trkpt lat="39.968567" lon="-4.646017">
        <ele>1632.0</ele>
        <time>2013-07-03T13:53:39Z</time>
      </trkpt>
      <trkpt lat="39.968467" lon="-4.645950">
        <ele>1631.0</ele>
        <time>2013-07-03T13:53:40Z</time>
      </trkpt>
      <trkpt lat="39.968367" lon="-4.645867">
        <ele>1630.0</ele>
        <time>2013-07-03T13:53:41Z</time>
      </trkpt>
      <trkpt lat="39.968267" lon="-4.645783">
        <ele>1627.0</ele>
        <time>2013-07-03T13:53:42Z</time>
      </trkpt>
      <trkpt lat="39.968150" lon="-4.645700">
        <ele>1625.0</ele>
        <time>2013-07-03T13:53:43Z</time>
      </trkpt>
      <trkpt lat="39.968050" lon="-4.645617">
        <ele>1625.0</ele>
        <time>2013-07-03T13:53:44Z</time>
      </trkpt>
      <trkpt lat="39.967950" lon="-4.645533">
        <ele>1625.0</ele>
        <time>2013-07-03T13:53:45Z</time>
      </trkpt>
      <trkpt lat="39.967883" lon="-4.645467">
        <ele>1625.0</ele>
        <time>2013-07-03T13:53:46Z</time>
      </trkpt>
      <trkpt lat="39.967800" lon="-4.645400">
        <ele>1623.0</ele>
        <time>2013-07-03T13:53:47Z</time>
      </trkpt>
      <trkpt lat="39.967700" lon="-4.645317">
        <ele>1621.0</ele>
        <time>2013-07-03T13:53:48Z</time>
      </trkpt>
      <trkpt lat="39.967583" lon="-4.645233">
        <ele>1617.0</ele>
        <time>2013-07-03T13:53:49Z</time>
      </trkpt>
      <trkpt lat="39.967450" lon="-4.645133">
        <ele>1615.0</ele>
        <time>2013-07-03T13:53:50Z</time>
      </trkpt>
      <trkpt lat="39.967350" lon="-4.645067">
        <ele>1616.0</ele>
        <time>2013-07-03T13:53:51Z</time>
      </trkpt>
      <trkpt lat="39.967250" lon="-4.645017">
        <ele>1616.0</ele>
        <time>2013-07-03T13:53:52Z</time>
      </trkpt>
      <trkpt lat="39.967167" lon="-4.644983">
        <ele>1614.0</ele>
        <time>2013-07-03T13:53:53Z</time>
      </trkpt>
      <trkpt lat="39.967083" lon="-4.644917">
        <ele>1612.0</ele>
        <time>2013-07-03T13:53:54Z</time>
      </trkpt>
      <trkpt lat="39.966983" lon="-4.644833">
        <ele>1609.0</ele>
        <time>2013-07-03T13:53:55Z</time>
      </trkpt>
      <trkpt lat="39.966850" lon="-4.644733">
        <ele>1606.0</ele>
        <time>2013-07-03T13:53:56Z</time>
      </trkpt>
      <trkpt lat="39.966733" lon="-4.644633">
        <ele>1605.0</ele>
        <time>2013-07-03T13:53:57Z</time>
      </trkpt>
      <trkpt lat="39.966617" lon="-4.644533">
        <ele>1608.0</ele>
        <time>2013-07-03T13:53:58Z</time>
      </trkpt>
      <trkpt lat="39.966517" lon="-4.644467">
        <ele>1609.0</ele>
        <time>2013-07-03T13:53:59Z</time>
      </trkpt>
      <trkpt lat="39.966417" lon="-4.644417">
        <ele>1609.0</ele>
        <time>2013-07-03T13:54:00Z</time>
      </trkpt>
      <trkpt lat="39.966317" lon="-4.644350">
        <ele>1607.0</ele>
        <time>2013-07-03T13:54:01Z</time>
      </trkpt>
      <trkpt lat="39.966200" lon="-4.644300">
        <ele>1606.0</ele>
        <time>2013-07-03T13:54:02Z</time>
      </trkpt>
      <trkpt lat="39.966083" lon="-4.644233">
        <ele>1604.0</ele>
        <time>2013-07-03T13:54:03Z</time>
      </trkpt>
      <trkpt lat="39.965967" lon="-4.644167">
        <ele>1604.0</ele>
        <time>2013-07-03T13:54:04Z</time>
      </trkpt>
      <trkpt lat="39.965867" lon="-4.644117">
        <ele>1605.0</ele>
        <time>2013-07-03T13:54:05Z</time>
      </trkpt>
      <trkpt lat="39.965750" lon="-4.644067">
        <ele>1606.0</ele>
        <time>2013-07-03T13:54:06Z</time>
      </trkpt>
      <trkpt lat="39.965650" lon="-4.644000">
        <ele>1606.0</ele>
        <time>2013-07-03T13:54:07Z</time>
      </trkpt>
      <trkpt lat="39.965533" lon="-4.643950">
        <ele>1606.0</ele>
        <time>2013-07-03T13:54:08Z</time>
      </trkpt>
      <trkpt lat="39.965417" lon="-4.643883">
        <ele>1606.0</ele>
        <time>2013-07-03T13:54:09Z</time>
      </trkpt>
      <trkpt lat="39.965300" lon="-4.643833">
        <ele>1606.0</ele>
        <time>2013-07-03T13:54:10Z</time>
      </trkpt>
      <trkpt lat="39.965183" lon="-4.643783">
        <ele>1607.0</ele>
        <time>2013-07-03T13:54:11Z</time>
      </trkpt>
      <trkpt lat="39.965067" lon="-4.643750">
        <ele>1607.0</ele>
        <time>2013-07-03T13:54:12Z</time>
      </trkpt>
      <trkpt lat="39.964967" lon="-4.643717">
        <ele>1608.0</ele>
        <time>2013-07-03T13:54:13Z</time>
      </trkpt>
      <trkpt lat="39.964850" lon="-4.643683">
        <ele>1608.0</ele>
        <time>2013-07-03T13:54:14Z</time>
      </trkpt>
      <trkpt lat="39.964750" lon="-4.643650">
        <ele>1606.0</ele>
        <time>2013-07-03T13:54:15Z</time>
      </trkpt>
      <trkpt lat="39.964633" lon="-4.643617">
        <ele>1605.0</ele>
        <time>2013-07-03T13:54:16Z</time>
      </trkpt>
      <trkpt lat="39.964517" lon="-4.643567">
        <ele>1604.0</ele>
        <time>2013-07-03T13:54:17Z</time>
      </trkpt>
      <trkpt lat="39.964383" lon="-4.643517">
        <ele>1604.0</ele>
        <time>2013-07-03T13:54:18Z</time>
      </trkpt>
      <trkpt lat="39.964267" lon="-4.643483">
        <ele>1605.0</ele>
        <time>2013-07-03T13:54:19Z</time>
      </trkpt>
      <trkpt lat="39.964150" lon="-4.643450">
        <ele>1606.0</ele>
        <time>2013-07-03T13:54:20Z</time>
      </trkpt>
      <trkpt lat="39.964033" lon="-4.643417">
        <ele>1607.0</ele>
        <time>2013-07-03T13:54:21Z</time>
      </trkpt>
      <trkpt lat="39.963933" lon="-4.643383">
        <ele>1608.0</ele>
        <time>2013-07-03T13:54:22Z</time>
      </trkpt>
      <trkpt lat="39.963833" lon="-4.643333">
        <ele>1608.0</ele>
        <time>2013-07-03T13:54:23Z</time>
      </trkpt>
      <trkpt lat="39.963717" lon="-4.643300">
        <ele>1608.0</ele>
        <time>2013-07-03T13:54:24Z</time>
      </trkpt>
      <trkpt lat="39.963583" lon="-4.643267">
        <ele>1609.0</ele>
        <time>2013-07-03T13:54:25Z</time>
      </trkpt>
      <trkpt lat="39.963467" lon="-4.643250">
        <ele>1610.0</ele>
        <time>2013-07-03T13:54:26Z</time>
      </trkpt>
      <trkpt lat="39.963350" lon="-4.643250">
        <ele>1611.0</ele>
        <time>2013-07-03T13:54:27Z</time>
      </trkpt>
      <trkpt lat="39.963233" lon="-4.643250">
        <ele>1612.0</ele>
        <time>2013-07-03T13:54:28Z</time>
      </trkpt>
      <trkpt lat="39.963117" lon="-4.643233">
        <ele>1612.0</ele>
        <time>2013-07-03T13:54:29Z</time>
      </trkpt>
      <trkpt lat="39.962983" lon="-4.643217">
        <ele>1613.0</ele>
        <time>2013-07-03T13:54:30Z</time>
      </trkpt>
      <trkpt lat="39.962867" lon="-4.643183">
        <ele>1614.0</ele>
        <time>2013-07-03T13:54:31Z</time>
      </trkpt>
      <trkpt lat="39.962750" lon="-4.643150">
        <ele>1615.0</ele>
        <time>2013-07-03T13:54:32Z</time>
      </trkpt>
      <trkpt lat="39.962650" lon="-4.643117">
        <ele>1616.0</ele>
        <time>2013-07-03T13:54:33Z</time>
      </trkpt>
      <trkpt lat="39.962550" lon="-4.643100">
        <ele>1616.0</ele>
        <time>2013-07-03T13:54:34Z</time>
      </trkpt>
      <trkpt lat="39.962450" lon="-4.643050">
        <ele>1616.0</ele>
        <time>2013-07-03T13:54:35Z</time>
      </trkpt>
      <trkpt lat="39.962333" lon="-4.643000">
        <ele>1616.0</ele>
        <time>2013-07-03T13:54:36Z</time>
      </trkpt>
      <trkpt lat="39.962233" lon="-4.642933">
        <ele>1616.0</ele>
        <time>2013-07-03T13:54:37Z</time>
      </trkpt>
      <trkpt lat="39.962150" lon="-4.642850">
        <ele>1618.0</ele>
        <time>2013-07-03T13:54:38Z</time>
      </trkpt>
      <trkpt lat="39.962067" lon="-4.642783">
        <ele>1618.0</ele>
        <time>2013-07-03T13:54:39Z</time>
      </trkpt>
      <trkpt lat="39.961983" lon="-4.642700">
        <ele>1619.0</ele>
        <time>2013-07-03T13:54:40Z</time>
      </trkpt>
      <trkpt lat="39.961900" lon="-4.642633">
        <ele>1619.0</ele>
        <time>2013-07-03T13:54:41Z</time>
      </trkpt>
      <trkpt lat="39.961817" lon="-4.642583">
        <ele>1619.0</ele>
        <time>2013-07-03T13:54:42Z</time>
      </trkpt>
      <trkpt lat="39.961733" lon="-4.642517">
        <ele>1619.0</ele>
        <time>2013-07-03T13:54:43Z</time>
      </trkpt>
      <trkpt lat="39.961667" lon="-4.642467">
        <ele>1619.0</ele>
        <time>2013-07-03T13:54:44Z</time>
      </trkpt>
      <trkpt lat="39.961583" lon="-4.642417">
        <ele>1619.0</ele>
        <time>2013-07-03T13:54:45Z</time>
      </trkpt>
      <trkpt lat="39.961517" lon="-4.642350">
        <ele>1618.0</ele>
        <time>2013-07-03T13:54:46Z</time>
      </trkpt>
      <trkpt lat="39.961433" lon="-4.642283">
        <ele>1616.0</ele>
        <time>2013-07-03T13:54:47Z</time>
      </trkpt>
      <trkpt lat="39.961350" lon="-4.642200">
        <ele>1614.0</ele>
        <time>2013-07-03T13:54:48Z</time>
      </trkpt>
      <trkpt lat="39.961267" lon="-4.642100">
        <ele>1612.0</ele>
        <time>2013-07-03T13:54:49Z</time>
      </trkpt>
      <trkpt lat="39.961183" lon="-4.642017">
        <ele>1611.0</ele>
        <time>2013-07-03T13:54:50Z</time>
      </trkpt>
      <trkpt lat="39.961083" lon="-4.641933">
        <ele>1610.0</ele>
        <time>2013-07-03T13:54:51Z</time>
      </trkpt>
      <trkpt lat="39.960983" lon="-4.641867">
        <ele>1610.0</ele>
        <time>2013-07-03T13:54:52Z</time>
      </trkpt>
      <trkpt lat="39.960900" lon="-4.641817">
        <ele>1610.0</ele>
        <time>2013-07-03T13:54:53Z</time>
      </trkpt>
      <trkpt lat="39.960817" lon="-4.641750">
        <ele>1609.0</ele>
        <time>2013-07-03T13:54:54Z</time>
      </trkpt>
      <trkpt lat="39.960733" lon="-4.641683">
        <ele>1609.0</ele>
        <time>2013-07-03T13:54:55Z</time>
      </trkpt>
      <trkpt lat="39.960650" lon="-4.641617">
        <ele>1607.0</ele>
        <time>2013-07-03T13:54:56Z</time>
      </trkpt>
      <trkpt lat="39.960550" lon="-4.641533">
        <ele>1606.0</ele>
        <time>2013-07-03T13:54:57Z</time>
      </trkpt>
      <trkpt lat="39.960450" lon="-4.641467">
        <ele>1605.0</ele>
        <time>2013-07-03T13:54:58Z</time>
      </trkpt>
      <trkpt lat="39.960367" lon="-4.641400">
        <ele>1605.0</ele>
        <time>2013-07-03T13:54:59Z</time>
      </trkpt>
      <trkpt lat="39.960300" lon="-4.641317">
        <ele>1604.0</ele>
        <time>2013-07-03T13:55:00Z</time>
      </trkpt>
      <trkpt lat="39.960217" lon="-4.641250">
        <ele>1603.0</ele>
        <time>2013-07-03T13:55:01Z</time>
      </trkpt>
      <trkpt lat="39.960117" lon="-4.641167">
        <ele>1602.0</ele>
        <time>2013-07-03T13:55:02Z</time>
      </trkpt>
      <trkpt lat="39.960017" lon="-4.641117">
        <ele>1601.0</ele>
        <time>2013-07-03T13:55:03Z</time>
      </trkpt>
      <trkpt lat="39.959917" lon="-4.641050">
        <ele>1600.0</ele>
        <time>2013-07-03T13:55:04Z</time>
      </trkpt>
      <trkpt lat="39.959833" lon="-4.640983">
        <ele>1599.0</ele>
        <time>2013-07-03T13:55:05Z</time>
      </trkpt>
      <trkpt lat="39.959733" lon="-4.640900">
        <ele>1598.0</ele>
        <time>2013-07-03T13:55:06Z</time>
      </trkpt>
      <trkpt lat="39.959650" lon="-4.640833">
        <ele>1598.0</ele>
        <time>2013-07-03T13:55:07Z</time>
      </trkpt>
      <trkpt lat="39.959567" lon="-4.640767">
        <ele>1597.0</ele>
        <time>2013-07-03T13:55:08Z</time>
      </trkpt>
      <trkpt lat="39.959467" lon="-4.640683">
        <ele>1595.0</ele>
        <time>2013-07-03T13:55:09Z</time>
      </trkpt>
      <trkpt lat="39.959383" lon="-4.640617">
        <ele>1594.0</ele>
        <time>2013-07-03T13:55:10Z</time>
      </trkpt>
      <trkpt lat="39.959283" lon="-4.640550">
        <ele>1592.0</ele>
        <time>2013-07-03T13:55:11Z</time>
      </trkpt>
      <trkpt lat="39.959183" lon="-4.640500">
        <ele>1591.0</ele>
        <time>2013-07-03T13:55:12Z</time>
      </trkpt>
      <trkpt lat="39.959083" lon="-4.640450">
        <ele>1589.0</ele>
        <time>2013-07-03T13:55:13Z</time>
      </trkpt>
      <trkpt lat="39.958967" lon="-4.640400">
        <ele>1587.0</ele>
        <time>2013-07-03T13:55:14Z</time>
      </trkpt>
      <trkpt lat="39.958867" lon="-4.640350">
        <ele>1585.0</ele>
        <time>2013-07-03T13:55:15Z</time>
      </trkpt>
      <trkpt lat="39.958750" lon="-4.640300">
        <ele>1584.0</ele>
        <time>2013-07-03T13:55:16Z</time>
      </trkpt>
      <trkpt lat="39.958650" lon="-4.640267">
        <ele>1584.0</ele>
        <time>2013-07-03T13:55:17Z</time>
      </trkpt>
      <trkpt lat="39.958533" lon="-4.640250">
        <ele>1584.0</ele>
        <time>2013-07-03T13:55:18Z</time>
      </trkpt>
      <trkpt lat="39.958433" lon="-4.640217">
        <ele>1584.0</ele>
        <time>2013-07-03T13:55:19Z</time>
      </trkpt>
      <trkpt lat="39.958333" lon="-4.640200">
        <ele>1584.0</ele>
        <time>2013-07-03T13:55:20Z</time>
      </trkpt>
      <trkpt lat="39.958217" lon="-4.640183">
        <ele>1584.0</ele>
        <time>2013-07-03T13:55:21Z</time>
      </trkpt>
      <trkpt lat="39.958117" lon="-4.640167">
        <ele>1584.0</ele>
        <time>2013-07-03T13:55:22Z</time>
      </trkpt>
      <trkpt lat="39.958017" lon="-4.640167">
        <ele>1586.0</ele>
        <time>2013-07-03T13:55:23Z</time>
      </trkpt>
      <trkpt lat="39.957933" lon="-4.640167">
        <ele>1587.0</ele>
        <time>2013-07-03T13:55:24Z</time>
      </trkpt>
      <trkpt lat="39.957867" lon="-4.640167">
        <ele>1587.0</ele>
        <time>2013-07-03T13:55:25Z</time>
      </trkpt>
      <trkpt lat="39.957783" lon="-4.640167">
        <ele>1586.0</ele>
        <time>2013-07-03T13:55:26Z</time>
      </trkpt>
      <trkpt lat="39.957700" lon="-4.640133">
        <ele>1584.0</ele>
        <time>2013-07-03T13:55:27Z</time>
      </trkpt>
      <trkpt lat="39.957600" lon="-4.640117">
        <ele>1583.0</ele>
        <time>2013-07-03T13:55:28Z</time>
      </trkpt>
      <trkpt lat="39.957517" lon="-4.640083">
        <ele>1583.0</ele>
        <time>2013-07-03T13:55:29Z</time>
      </trkpt>
      <trkpt lat="39.957433" lon="-4.640083">
        <ele>1583.0</ele>
        <time>2013-07-03T13:55:30Z</time>
      </trkpt>
      <trkpt lat="39.957350" lon="-4.640067">
        <ele>1583.0</ele>
        <time>2013-07-03T13:55:31Z</time>
      </trkpt>
      <trkpt lat="39.957267" lon="-4.640050">
        <ele>1582.0</ele>
        <time>2013-07-03T13:55:32Z</time>
      </trkpt>
      <trkpt lat="39.957183" lon="-4.640017">
        <ele>1582.0</ele>
        <time>2013-07-03T13:55:33Z</time>
      </trkpt>
      <trkpt lat="39.957100" lon="-4.640000">
        <ele>1582.0</ele>
        <time>2013-07-03T13:55:34Z</time>
      </trkpt>
      <trkpt lat="39.957017" lon="-4.639967">
        <ele>1581.0</ele>
        <time>2013-07-03T13:55:35Z</time>
      </trkpt>
      <trkpt lat="39.956933" lon="-4.639933">
        <ele>1581.0</ele>
        <time>2013-07-03T13:55:36Z</time>
      </trkpt>
      <trkpt lat="39.956833" lon="-4.639917">
        <ele>1581.0</ele>
        <time>2013-07-03T13:55:37Z</time>
      </trkpt>
      <trkpt lat="39.956750" lon="-4.639883">
        <ele>1581.0</ele>
        <time>2013-07-03T13:55:38Z</time>
      </trkpt>
      <trkpt lat="39.956683" lon="-4.639850">
        <ele>1581.0</ele>
        <time>2013-07-03T13:55:39Z</time>
      </trkpt>
      <trkpt lat="39.956600" lon="-4.639800">
        <ele>1581.0</ele>
        <time>2013-07-03T13:55:40Z</time>
      </trkpt>
      <trkpt lat="39.956517" lon="-4.639767">
        <ele>1581.0</ele>
        <time>2013-07-03T13:55:41Z</time>
      </trkpt>
      <trkpt lat="39.956433" lon="-4.639733">
        <ele>1581.0</ele>
        <time>2013-07-03T13:55:42Z</time>
      </trkpt>
      <trkpt lat="39.956367" lon="-4.639700">
        <ele>1581.0</ele>
        <time>2013-07-03T13:55:43Z</time>
      </trkpt>
      <trkpt lat="39.956283" lon="-4.639650">
        <ele>1581.0</ele>
        <time>2013-07-03T13:55:44Z</time>
      </trkpt>
      <trkpt lat="39.956217" lon="-4.639617">
        <ele>1581.0</ele>
        <time>2013-07-03T13:55:45Z</time>
      </trkpt>
      <trkpt lat="39.956133" lon="-4.639567">
        <ele>1581.0</ele>
        <time>2013-07-03T13:55:46Z</time>
      </trkpt>
      <trkpt lat="39.956050" lon="-4.639533">
        <ele>1581.0</ele>
        <time>2013-07-03T13:55:47Z</time>
      </trkpt>
      <trkpt lat="39.955967" lon="-4.639500">
        <ele>1582.0</ele>
        <time>2013-07-03T13:55:48Z</time>
      </trkpt>
      <trkpt lat="39.955883" lon="-4.639483">
        <ele>1583.0</ele>
        <time>2013-07-03T13:55:49Z</time>
      </trkpt>
      <trkpt lat="39.955817" lon="-4.639450">
        <ele>1583.0</ele>
        <time>2013-07-03T13:55:50Z</time>
      </trkpt>
      <trkpt lat="39.955733" lon="-4.639433">
        <ele>1584.0</ele>
        <time>2013-07-03T13:55:51Z</time>
      </trkpt>
      <trkpt lat="39.955667" lon="-4.639433">
        <ele>1584.0</ele>
        <time>2013-07-03T13:55:52Z</time>
      </trkpt>
      <trkpt lat="39.955583" lon="-4.639450">
        <ele>1584.0</ele>
        <time>2013-07-03T13:55:53Z</time>
      </trkpt>
      <trkpt lat="39.955500" lon="-4.639467">
        <ele>1584.0</ele>
        <time>2013-07-03T13:55:54Z</time>
      </trkpt>
      <trkpt lat="39.955417" lon="-4.639483">
        <ele>1584.0</ele>
        <time>2013-07-03T13:55:55Z</time>
      </trkpt>
      <trkpt lat="39.955350" lon="-4.639500">
        <ele>1584.0</ele>
        <time>2013-07-03T13:55:56Z</time>
      </trkpt>
      <trkpt lat="39.955283" lon="-4.639533">
        <ele>1585.0</ele>
        <time>2013-07-03T13:55:57Z</time>
      </trkpt>
      <trkpt lat="39.955217" lon="-4.639567">
        <ele>1585.0</ele>
        <time>2013-07-03T13:55:58Z</time>
      </trkpt>
      <trkpt lat="39.955150" lon="-4.639600">
        <ele>1585.0</ele>
        <time>2013-07-03T13:55:59Z</time>
      </trkpt>
      <trkpt lat="39.955083" lon="-4.639633">
        <ele>1585.0</ele>
        <time>2013-07-03T13:56:00Z</time>
      </trkpt>
      <trkpt lat="39.955017" lon="-4.639683">
        <ele>1585.0</ele>
        <time>2013-07-03T13:56:01Z</time>
      </trkpt>
      <trkpt lat="39.954950" lon="-4.639750">
        <ele>1584.0</ele>
        <time>2013-07-03T13:56:02Z</time>
      </trkpt>
      <trkpt lat="39.954900" lon="-4.639800">
        <ele>1584.0</ele>
        <time>2013-07-03T13:56:03Z</time>
      </trkpt>
      <trkpt lat="39.954850" lon="-4.639867">
        <ele>1584.0</ele>
        <time>2013-07-03T13:56:04Z</time>
      </trkpt>
      <trkpt lat="39.954800" lon="-4.639933">
        <ele>1583.0</ele>
        <time>2013-07-03T13:56:05Z</time>
      </trkpt>
      <trkpt lat="39.954750" lon="-4.640033">
        <ele>1583.0</ele>
        <time>2013-07-03T13:56:06Z</time>
      </trkpt>
      <trkpt lat="39.954717" lon="-4.640117">
        <ele>1582.0</ele>
        <time>2013-07-03T13:56:07Z</time>
      </trkpt>
      <trkpt lat="39.954700" lon="-4.640233">
        <ele>1582.0</ele>
        <time>2013-07-03T13:56:08Z</time>
      </trkpt>
      <trkpt lat="39.954667" lon="-4.640333">
        <ele>1582.0</ele>
        <time>2013-07-03T13:56:09Z</time>
      </trkpt>
      <trkpt lat="39.954650" lon="-4.640433">
        <ele>1582.0</ele>
        <time>2013-07-03T13:56:10Z</time>
      </trkpt>
      <trkpt lat="39.954633" lon="-4.640533">
        <ele>1582.0</ele>
        <time>2013-07-03T13:56:11Z</time>
      </trkpt>
      <trkpt lat="39.954617" lon="-4.640633">
        <ele>1582.0</ele>
        <time>2013-07-03T13:56:12Z</time>
      </trkpt>
      <trkpt lat="39.954617" lon="-4.640717">
        <ele>1582.0</ele>
        <time>2013-07-03T13:56:13Z</time>
      </trkpt>
      <trkpt lat="39.954633" lon="-4.640800">
        <ele>1582.0</ele>
        <time>2013-07-03T13:56:14Z</time>
      </trkpt>
      <trkpt lat="39.954667" lon="-4.640867">
        <ele>1581.0</ele>
        <time>2013-07-03T13:56:15Z</time>
      </trkpt>
      <trkpt lat="39.954700" lon="-4.640917">
        <ele>1581.0</ele>
        <time>2013-07-03T13:56:16Z</time>
      </trkpt>
      <trkpt lat="39.954750" lon="-4.640983">
        <ele>1581.0</ele>
        <time>2013-07-03T13:56:17Z</time>
      </trkpt>
      <trkpt lat="39.954800" lon="-4.641017">
        <ele>1580.0</ele>
        <time>2013-07-03T13:56:18Z</time>
      </trkpt>
      <trkpt lat="39.954867" lon="-4.641033">
        <ele>1580.0</ele>
        <time>2013-07-03T13:56:19Z</time>
      </trkpt>
      <trkpt lat="39.954917" lon="-4.641033">
        <ele>1581.0</ele>
        <time>2013-07-03T13:56:20Z</time>
      </trkpt>
      <trkpt lat="39.954950" lon="-4.641017">
        <ele>1581.0</ele>
        <time>2013-07-03T13:56:21Z</time>
      </trkpt>
      <trkpt lat="39.955000" lon="-4.640983">
        <ele>1581.0</ele>
        <time>2013-07-03T13:56:22Z</time>
      </trkpt>
      <trkpt lat="39.955017" lon="-4.640900">
        <ele>1579.0</ele>
        <time>2013-07-03T13:56:23Z</time>
      </trkpt>
      <trkpt lat="39.955050" lon="-4.640800">
        <ele>1576.0</ele>
        <time>2013-07-03T13:56:24Z</time>
      </trkpt>
      <trkpt lat="39.955067" lon="-4.640700">
        <ele>1575.0</ele>
        <time>2013-07-03T13:56:25Z</time>
      </trkpt>
      <trkpt lat="39.955083" lon="-4.640567">
        <ele>1573.0</ele>
        <time>2013-07-03T13:56:26Z</time>
      </trkpt>
      <trkpt lat="39.955100" lon="-4.640450">
        <ele>1572.0</ele>
        <time>2013-07-03T13:56:27Z</time>
      </trkpt>
      <trkpt lat="39.955100" lon="-4.640333">
        <ele>1571.0</ele>
        <time>2013-07-03T13:56:28Z</time>
      </trkpt>
      <trkpt lat="39.955100" lon="-4.640200">
        <ele>1570.0</ele>
        <time>2013-07-03T13:56:29Z</time>
      </trkpt>
      <trkpt lat="39.955083" lon="-4.640067">
        <ele>1569.0</ele>
        <time>2013-07-03T13:56:30Z</time>
      </trkpt>
      <trkpt lat="39.955067" lon="-4.639950">
        <ele>1569.0</ele>
        <time>2013-07-03T13:56:31Z</time>
      </trkpt>
      <trkpt lat="39.955050" lon="-4.639817">
        <ele>1568.0</ele>
        <time>2013-07-03T13:56:32Z</time>
      </trkpt>
      <trkpt lat="39.955033" lon="-4.639700">
        <ele>1568.0</ele>
        <time>2013-07-03T13:56:33Z</time>
      </trkpt>
      <trkpt lat="39.955017" lon="-4.639583">
        <ele>1567.0</ele>
        <time>2013-07-03T13:56:34Z</time>
      </trkpt>
      <trkpt lat="39.955000" lon="-4.639450">
        <ele>1566.0</ele>
        <time>2013-07-03T13:56:35Z</time>
      </trkpt>
      <trkpt lat="39.954983" lon="-4.639317">
        <ele>1565.0</ele>
        <time>2013-07-03T13:56:36Z</time>
      </trkpt>
      <trkpt lat="39.954967" lon="-4.639183">
        <ele>1564.0</ele>
        <time>2013-07-03T13:56:37Z</time>
      </trkpt>
      <trkpt lat="39.954950" lon="-4.639050">
        <ele>1565.0</ele>
        <time>2013-07-03T13:56:38Z</time>
      </trkpt>
      <trkpt lat="39.954917" lon="-4.638933">
        <ele>1566.0</ele>
        <time>2013-07-03T13:56:39Z</time>
      </trkpt>
      <trkpt lat="39.954900" lon="-4.638817">
        <ele>1566.0</ele>
        <time>2013-07-03T13:56:40Z</time>
      </trkpt>
      <trkpt lat="39.954867" lon="-4.638700">
        <ele>1567.0</ele>
        <time>2013-07-03T13:56:41Z</time>
      </trkpt>
      <trkpt lat="39.954850" lon="-4.638617">
        <ele>1566.0</ele>
        <time>2013-07-03T13:56:42Z</time>
      </trkpt>
      <trkpt lat="39.954850" lon="-4.638517">
        <ele>1565.0</ele>
        <time>2013-07-03T13:56:43Z</time>
      </trkpt>
      <trkpt lat="39.954850" lon="-4.638400">
        <ele>1563.0</ele>
        <time>2013-07-03T13:56:44Z</time>
      </trkpt>
      <trkpt lat="39.954850" lon="-4.638283">
        <ele>1561.0</ele>
        <time>2013-07-03T13:56:45Z</time>
      </trkpt>
      <trkpt lat="39.954833" lon="-4.638150">
        <ele>1559.0</ele>
        <time>2013-07-03T13:56:46Z</time>
      </trkpt>
      <trkpt lat="39.954817" lon="-4.638017">
        <ele>1559.0</ele>
        <time>2013-07-03T13:56:47Z</time>
      </trkpt>
      <trkpt lat="39.954800" lon="-4.637900">
        <ele>1559.0</ele>
        <time>2013-07-03T13:56:48Z</time>
      </trkpt>
      <trkpt lat="39.954767" lon="-4.637783">
        <ele>1558.0</ele>
        <time>2013-07-03T13:56:49Z</time>
      </trkpt>
      <trkpt lat="39.954733" lon="-4.637667">
        <ele>1557.0</ele>
        <time>2013-07-03T13:56:50Z</time>
      </trkpt>
      <trkpt lat="39.954683" lon="-4.637533">
        <ele>1555.0</ele>
        <time>2013-07-03T13:56:51Z</time>
      </trkpt>
      <trkpt lat="39.954617" lon="-4.637400">
        <ele>1553.0</ele>
        <time>2013-07-03T13:56:52Z</time>
      </trkpt>
      <trkpt lat="39.954583" lon="-4.637267">
        <ele>1552.0</ele>
        <time>2013-07-03T13:56:53Z</time>
      </trkpt>
      <trkpt lat="39.954533" lon="-4.637133">
        <ele>1552.0</ele>
        <time>2013-07-03T13:56:54Z</time>
      </trkpt>
      <trkpt lat="39.954517" lon="-4.637017">
        <ele>1552.0</ele>
        <time>2013-07-03T13:56:55Z</time>
      </trkpt>
      <trkpt lat="39.954467" lon="-4.636900">
        <ele>1551.0</ele>
        <time>2013-07-03T13:56:56Z</time>
      </trkpt>
      <trkpt lat="39.954417" lon="-4.636783">
        <ele>1550.0</ele>
        <time>2013-07-03T13:56:57Z</time>
      </trkpt>
      <trkpt lat="39.954367" lon="-4.636650">
        <ele>1549.0</ele>
        <time>2013-07-03T13:56:58Z</time>
      </trkpt>
      <trkpt lat="39.954317" lon="-4.636533">
        <ele>1548.0</ele>
        <time>2013-07-03T13:56:59Z</time>
      </trkpt>
      <trkpt lat="39.954283" lon="-4.636400">
        <ele>1548.0</ele>
        <time>2013-07-03T13:57:00Z</time>
      </trkpt>
      <trkpt lat="39.954250" lon="-4.636267">
        <ele>1547.0</ele>
        <time>2013-07-03T13:57:01Z</time>
      </trkpt>
      <trkpt lat="39.954200" lon="-4.636150">
        <ele>1547.0</ele>
        <time>2013-07-03T13:57:02Z</time>
      </trkpt>
      <trkpt lat="39.954117" lon="-4.636033">
        <ele>1545.0</ele>
        <time>2013-07-03T13:57:03Z</time>
      </trkpt>
      <trkpt lat="39.954067" lon="-4.635917">
        <ele>1545.0</ele>
        <time>2013-07-03T13:57:04Z</time>
      </trkpt>
      <trkpt lat="39.954033" lon="-4.635800">
        <ele>1544.0</ele>
        <time>2013-07-03T13:57:05Z</time>
      </trkpt>
      <trkpt lat="39.954000" lon="-4.635667">
        <ele>1544.0</ele>
        <time>2013-07-03T13:57:06Z</time>
      </trkpt>
      <trkpt lat="39.953950" lon="-4.635550">
        <ele>1543.0</ele>
        <time>2013-07-03T13:57:07Z</time>
      </trkpt>
      <trkpt lat="39.953900" lon="-4.635433">
        <ele>1543.0</ele>
        <time>2013-07-03T13:57:08Z</time>
      </trkpt>
      <trkpt lat="39.953867" lon="-4.635300">
        <ele>1542.0</ele>
        <time>2013-07-03T13:57:09Z</time>
      </trkpt>
      <trkpt lat="39.953833" lon="-4.635183">
        <ele>1541.0</ele>
        <time>2013-07-03T13:57:10Z</time>
      </trkpt>
      <trkpt lat="39.953800" lon="-4.635050">
        <ele>1541.0</ele>
        <time>2013-07-03T13:57:11Z</time>
      </trkpt>
      <trkpt lat="39.953783" lon="-4.634917">
        <ele>1540.0</ele>
        <time>2013-07-03T13:57:12Z</time>
      </trkpt>
      <trkpt lat="39.953750" lon="-4.634783">
        <ele>1539.0</ele>
        <time>2013-07-03T13:57:13Z</time>
      </trkpt>
      <trkpt lat="39.953733" lon="-4.634633">
        <ele>1540.0</ele>
        <time>2013-07-03T13:57:14Z</time>
      </trkpt>
      <trkpt lat="39.953717" lon="-4.634500">
        <ele>1541.0</ele>
        <time>2013-07-03T13:57:15Z</time>
      </trkpt>
      <trkpt lat="39.953700" lon="-4.634383">
        <ele>1544.0</ele>
        <time>2013-07-03T13:57:16Z</time>
      </trkpt>
      <trkpt lat="39.953667" lon="-4.634283">
        <ele>1545.0</ele>
        <time>2013-07-03T13:57:17Z</time>
      </trkpt>
      <trkpt lat="39.953633" lon="-4.634183">
        <ele>1547.0</ele>
        <time>2013-07-03T13:57:18Z</time>
      </trkpt>
      <trkpt lat="39.953600" lon="-4.634083">
        <ele>1548.0</ele>
        <time>2013-07-03T13:57:19Z</time>
      </trkpt>
      <trkpt lat="39.953583" lon="-4.633983">
        <ele>1551.0</ele>
        <time>2013-07-03T13:57:20Z</time>
      </trkpt>
      <trkpt lat="39.953567" lon="-4.633917">
        <ele>1552.0</ele>
        <time>2013-07-03T13:57:21Z</time>
      </trkpt>
      <trkpt lat="39.953567" lon="-4.633850">
        <ele>1553.0</ele>
        <time>2013-07-03T13:57:22Z</time>
      </trkpt>
      <trkpt lat="39.953600" lon="-4.633767">
        <ele>1553.0</ele>
        <time>2013-07-03T13:57:23Z</time>
      </trkpt>
      <trkpt lat="39.953633" lon="-4.633700">
        <ele>1553.0</ele>
        <time>2013-07-03T13:57:24Z</time>
      </trkpt>
      <trkpt lat="39.953683" lon="-4.633650">
        <ele>1554.0</ele>
        <time>2013-07-03T13:57:25Z</time>
      </trkpt>
      <trkpt lat="39.953750" lon="-4.633650">
        <ele>1553.0</ele>
        <time>2013-07-03T13:57:26Z</time>
      </trkpt>
      <trkpt lat="39.953800" lon="-4.633700">
        <ele>1552.0</ele>
        <time>2013-07-03T13:57:27Z</time>
      </trkpt>
      <trkpt lat="39.953833" lon="-4.633800">
        <ele>1550.0</ele>
        <time>2013-07-03T13:57:28Z</time>
      </trkpt>
      <trkpt lat="39.953817" lon="-4.633917">
        <ele>1549.0</ele>
        <time>2013-07-03T13:57:29Z</time>
      </trkpt>
      <trkpt lat="39.953767" lon="-4.634033">
        <ele>1549.0</ele>
        <time>2013-07-03T13:57:30Z</time>
      </trkpt>
      <trkpt lat="39.953683" lon="-4.634100">
        <ele>1550.0</ele>
        <time>2013-07-03T13:57:31Z</time>
      </trkpt>
      <trkpt lat="39.953583" lon="-4.634117">
        <ele>1551.0</ele>
        <time>2013-07-03T13:57:32Z</time>
      </trkpt>
      <trkpt lat="39.953483" lon="-4.634100">
        <ele>1552.0</ele>
        <time>2013-07-03T13:57:33Z</time>
      </trkpt>
      <trkpt lat="39.953400" lon="-4.634083">
        <ele>1554.0</ele>
        <time>2013-07-03T13:57:34Z</time>
      </trkpt>
      <trkpt lat="39.953333" lon="-4.634033">
        <ele>1555.0</ele>
        <time>2013-07-03T13:57:35Z</time>
      </trkpt>
      <trkpt lat="39.953267" lon="-4.633983">
        <ele>1556.0</ele>
        <time>2013-07-03T13:57:36Z</time>
      </trkpt>
      <trkpt lat="39.953217" lon="-4.633917">
        <ele>1555.0</ele>
        <time>2013-07-03T13:57:37Z</time>
      </trkpt>
      <trkpt lat="39.953167" lon="-4.633833">
        <ele>1555.0</ele>
        <time>2013-07-03T13:57:38Z</time>
      </trkpt>
      <trkpt lat="39.953117" lon="-4.633733">
        <ele>1555.0</ele>
        <time>2013-07-03T13:57:39Z</time>
      </trkpt>
      <trkpt lat="39.953067" lon="-4.633633">
        <ele>1555.0</ele>
        <time>2013-07-03T13:57:40Z</time>
      </trkpt>
      <trkpt lat="39.953033" lon="-4.633517">
        <ele>1555.0</ele>
        <time>2013-07-03T13:57:41Z</time>
      </trkpt>
      <trkpt lat="39.953000" lon="-4.633400">
        <ele>1555.0</ele>
        <time>2013-07-03T13:57:42Z</time>
      </trkpt>
      <trkpt lat="39.952950" lon="-4.633267">
        <ele>1555.0</ele>
        <time>2013-07-03T13:57:43Z</time>
      </trkpt>
      <trkpt lat="39.952917" lon="-4.633133">
        <ele>1555.0</ele>
        <time>2013-07-03T13:57:44Z</time>
      </trkpt>
      <trkpt lat="39.952883" lon="-4.633017">
        <ele>1556.0</ele>
        <time>2013-07-03T13:57:45Z</time>
      </trkpt>
      <trkpt lat="39.952850" lon="-4.632900">
        <ele>1557.0</ele>
        <time>2013-07-03T13:57:46Z</time>
      </trkpt>
      <trkpt lat="39.952817" lon="-4.632767">
        <ele>1557.0</ele>
        <time>2013-07-03T13:57:47Z</time>
      </trkpt>
      <trkpt lat="39.952767" lon="-4.632667">
        <ele>1556.0</ele>
        <time>2013-07-03T13:57:48Z</time>
      </trkpt>
      <trkpt lat="39.952717" lon="-4.632567">
        <ele>1555.0</ele>
        <time>2013-07-03T13:57:49Z</time>
      </trkpt>
      <trkpt lat="39.952650" lon="-4.632450">
        <ele>1553.0</ele>
        <time>2013-07-03T13:57:50Z</time>
      </trkpt>
      <trkpt lat="39.952583" lon="-4.632333">
        <ele>1551.0</ele>
        <time>2013-07-03T13:57:51Z</time>
      </trkpt>
      <trkpt lat="39.952533" lon="-4.632200">
        <ele>1549.0</ele>
        <time>2013-07-03T13:57:52Z</time>
      </trkpt>
      <trkpt lat="39.952500" lon="-4.632067">
        <ele>1547.0</ele>
        <time>2013-07-03T13:57:53Z</time>
      </trkpt>
      <trkpt lat="39.952467" lon="-4.631917">
        <ele>1545.0</ele>
        <time>2013-07-03T13:57:54Z</time>
      </trkpt>
      <trkpt lat="39.952433" lon="-4.631767">
        <ele>1544.0</ele>
        <time>2013-07-03T13:57:55Z</time>
      </trkpt>
      <trkpt lat="39.952417" lon="-4.631633">
        <ele>1543.0</ele>
        <time>2013-07-03T13:57:56Z</time>
      </trkpt>
      <trkpt lat="39.952400" lon="-4.631517">
        <ele>1543.0</ele>
        <time>2013-07-03T13:57:57Z</time>
      </trkpt>
      <trkpt lat="39.952383" lon="-4.631383">
        <ele>1541.0</ele>
        <time>2013-07-03T13:57:58Z</time>
      </trkpt>
      <trkpt lat="39.952350" lon="-4.631233">
        <ele>1539.0</ele>
        <time>2013-07-03T13:57:59Z</time>
      </trkpt>
      <trkpt lat="39.952317" lon="-4.631083">
        <ele>1536.0</ele>
        <time>2013-07-03T13:58:00Z</time>
      </trkpt>
      <trkpt lat="39.952283" lon="-4.630917">
        <ele>1533.0</ele>
        <time>2013-07-03T13:58:01Z</time>
      </trkpt>
      <trkpt lat="39.952250" lon="-4.630750">
        <ele>1531.0</ele>
        <time>2013-07-03T13:58:02Z</time>
      </trkpt>
      <trkpt lat="39.952217" lon="-4.630583">
        <ele>1530.0</ele>
        <time>2013-07-03T13:58:03Z</time>
      </trkpt>
      <trkpt lat="39.952200" lon="-4.630417">
        <ele>1529.0</ele>
        <time>2013-07-03T13:58:04Z</time>
      </trkpt>
      <trkpt lat="39.952183" lon="-4.630267">
        <ele>1527.0</ele>
        <time>2013-07-03T13:58:05Z</time>
      </trkpt>
      <trkpt lat="39.952167" lon="-4.630083">
        <ele>1525.0</ele>
        <time>2013-07-03T13:58:06Z</time>
      </trkpt>
      <trkpt lat="39.952150" lon="-4.629900">
        <ele>1523.0</ele>
        <time>2013-07-03T13:58:07Z</time>
      </trkpt>
      <trkpt lat="39.952150" lon="-4.629717">
        <ele>1522.0</ele>
        <time>2013-07-03T13:58:08Z</time>
      </trkpt>
      <trkpt lat="39.952133" lon="-4.629550">
        <ele>1523.0</ele>
        <time>2013-07-03T13:58:09Z</time>
      </trkpt>
      <trkpt lat="39.952133" lon="-4.629400">
        <ele>1525.0</ele>
        <time>2013-07-03T13:58:10Z</time>
      </trkpt>
      <trkpt lat="39.952133" lon="-4.629267">
        <ele>1527.0</ele>
        <time>2013-07-03T13:58:11Z</time>
      </trkpt>
      <trkpt lat="39.952117" lon="-4.629133">
        <ele>1528.0</ele>
        <time>2013-07-03T13:58:12Z</time>
      </trkpt>
      <trkpt lat="39.952100" lon="-4.629017">
        <ele>1530.0</ele>
        <time>2013-07-03T13:58:13Z</time>
      </trkpt>
      <trkpt lat="39.952083" lon="-4.628900">
        <ele>1531.0</ele>
        <time>2013-07-03T13:58:14Z</time>
      </trkpt>
      <trkpt lat="39.952067" lon="-4.628783">
        <ele>1533.0</ele>
        <time>2013-07-03T13:58:15Z</time>
      </trkpt>
      <trkpt lat="39.952067" lon="-4.628650">
        <ele>1534.0</ele>
        <time>2013-07-03T13:58:16Z</time>
      </trkpt>
      <trkpt lat="39.952083" lon="-4.628550">
        <ele>1534.0</ele>
        <time>2013-07-03T13:58:17Z</time>
      </trkpt>
      <trkpt lat="39.952117" lon="-4.628433">
        <ele>1534.0</ele>
        <time>2013-07-03T13:58:18Z</time>
      </trkpt>
      <trkpt lat="39.952167" lon="-4.628333">
        <ele>1533.0</ele>
        <time>2013-07-03T13:58:19Z</time>
      </trkpt>
      <trkpt lat="39.952217" lon="-4.628217">
        <ele>1533.0</ele>
        <time>2013-07-03T13:58:20Z</time>
      </trkpt>
      <trkpt lat="39.952283" lon="-4.628117">
        <ele>1533.0</ele>
        <time>2013-07-03T13:58:21Z</time>
      </trkpt>
      <trkpt lat="39.952367" lon="-4.628033">
        <ele>1533.0</ele>
        <time>2013-07-03T13:58:22Z</time>
      </trkpt>
      <trkpt lat="39.952450" lon="-4.627983">
        <ele>1533.0</ele>
        <time>2013-07-03T13:58:23Z</time>
      </trkpt>
      <trkpt lat="39.952550" lon="-4.627967">
        <ele>1532.0</ele>
        <time>2013-07-03T13:58:24Z</time>
      </trkpt>
      <trkpt lat="39.952633" lon="-4.627967">
        <ele>1532.0</ele>
        <time>2013-07-03T13:58:25Z</time>
      </trkpt>
      <trkpt lat="39.952700" lon="-4.628017">
        <ele>1532.0</ele>
        <time>2013-07-03T13:58:26Z</time>
      </trkpt>
      <trkpt lat="39.952733" lon="-4.628083">
        <ele>1533.0</ele>
        <time>2013-07-03T13:58:27Z</time>
      </trkpt>
      <trkpt lat="39.952733" lon="-4.628167">
        <ele>1535.0</ele>
        <time>2013-07-03T13:58:28Z</time>
      </trkpt>
      <trkpt lat="39.952717" lon="-4.628217">
        <ele>1536.0</ele>
        <time>2013-07-03T13:58:29Z</time>
      </trkpt>
      <trkpt lat="39.952683" lon="-4.628267">
        <ele>1537.0</ele>
        <time>2013-07-03T13:58:30Z</time>
      </trkpt>
      <trkpt lat="39.952650" lon="-4.628300">
        <ele>1537.0</ele>
        <time>2013-07-03T13:58:31Z</time>
      </trkpt>
      <trkpt lat="39.952617" lon="-4.628350">
        <ele>1536.0</ele>
        <time>2013-07-03T13:58:32Z</time>
      </trkpt>
      <trkpt lat="39.952567" lon="-4.628383">
        <ele>1536.0</ele>
        <time>2013-07-03T13:58:33Z</time>
      </trkpt>
      <trkpt lat="39.952517" lon="-4.628417">
        <ele>1537.0</ele>
        <time>2013-07-03T13:58:34Z</time>
      </trkpt>
      <trkpt lat="39.952450" lon="-4.628450">
        <ele>1538.0</ele>
        <time>2013-07-03T13:58:35Z</time>
      </trkpt>
      <trkpt lat="39.952367" lon="-4.628450">
        <ele>1539.0</ele>
        <time>2013-07-03T13:58:36Z</time>
      </trkpt>
      <trkpt lat="39.952283" lon="-4.628450">
        <ele>1539.0</ele>
        <time>2013-07-03T13:58:37Z</time>
      </trkpt>
      <trkpt lat="39.952200" lon="-4.628467">
        <ele>1539.0</ele>
        <time>2013-07-03T13:58:38Z</time>
      </trkpt>
      <trkpt lat="39.952100" lon="-4.628467">
        <ele>1540.0</ele>
        <time>2013-07-03T13:58:39Z</time>
      </trkpt>
      <trkpt lat="39.952017" lon="-4.628483">
        <ele>1541.0</ele>
        <time>2013-07-03T13:58:40Z</time>
      </trkpt>
      <trkpt lat="39.951933" lon="-4.628483">
        <ele>1543.0</ele>
        <time>2013-07-03T13:58:41Z</time>
      </trkpt>
      <trkpt lat="39.951867" lon="-4.628483">
        <ele>1544.0</ele>
        <time>2013-07-03T13:58:42Z</time>
      </trkpt>
      <trkpt lat="39.951800" lon="-4.628467">
        <ele>1545.0</ele>
        <time>2013-07-03T13:58:43Z</time>
      </trkpt>
      <trkpt lat="39.951717" lon="-4.628467">
        <ele>1545.0</ele>
        <time>2013-07-03T13:58:44Z</time>
      </trkpt>
      <trkpt lat="39.951633" lon="-4.628450">
        <ele>1545.0</ele>
        <time>2013-07-03T13:58:45Z</time>
      </trkpt>
      <trkpt lat="39.951550" lon="-4.628433">
        <ele>1545.0</ele>
        <time>2013-07-03T13:58:46Z</time>
      </trkpt>
      <trkpt lat="39.951467" lon="-4.628400">
        <ele>1545.0</ele>
        <time>2013-07-03T13:58:47Z</time>
      </trkpt>
      <trkpt lat="39.951367" lon="-4.628383">
        <ele>1546.0</ele>
        <time>2013-07-03T13:58:48Z</time>
      </trkpt>
      <trkpt lat="39.951283" lon="-4.628350">
        <ele>1545.0</ele>
        <time>2013-07-03T13:58:49Z</time>
      </trkpt>
      <trkpt lat="39.951183" lon="-4.628317">
        <ele>1545.0</ele>
        <time>2013-07-03T13:58:50Z</time>
      </trkpt>
      <trkpt lat="39.951100" lon="-4.628283">
        <ele>1546.0</ele>
        <time>2013-07-03T13:58:51Z</time>
      </trkpt>
      <trkpt lat="39.951017" lon="-4.628267">
        <ele>1546.0</ele>
        <time>2013-07-03T13:58:52Z</time>
      </trkpt>
      <trkpt lat="39.950950" lon="-4.628250">
        <ele>1546.0</ele>
        <time>2013-07-03T13:58:53Z</time>
      </trkpt>
      <trkpt lat="39.950867" lon="-4.628233">
        <ele>1546.0</ele>
        <time>2013-07-03T13:58:54Z</time>
      </trkpt>
      <trkpt lat="39.950783" lon="-4.628200">
        <ele>1547.0</ele>
        <time>2013-07-03T13:58:55Z</time>
      </trkpt>
      <trkpt lat="39.950717" lon="-4.628183">
        <ele>1548.0</ele>
        <time>2013-07-03T13:58:56Z</time>
      </trkpt>
      <trkpt lat="39.950650" lon="-4.628150">
        <ele>1549.0</ele>
        <time>2013-07-03T13:58:57Z</time>
      </trkpt>
      <trkpt lat="39.950583" lon="-4.628133">
        <ele>1550.0</ele>
        <time>2013-07-03T13:58:58Z</time>
      </trkpt>
      <trkpt lat="39.950517" lon="-4.628117">
        <ele>1552.0</ele>
        <time>2013-07-03T13:58:59Z</time>
      </trkpt>
      <trkpt lat="39.950467" lon="-4.628100">
        <ele>1553.0</ele>
        <time>2013-07-03T13:59:00Z</time>
      </trkpt>
      <trkpt lat="39.950400" lon="-4.628067">
        <ele>1554.0</ele>
        <time>2013-07-03T13:59:01Z</time>
      </trkpt>
      <trkpt lat="39.950350" lon="-4.628033">
        <ele>1556.0</ele>
        <time>2013-07-03T13:59:02Z</time>
      </trkpt>
      <trkpt lat="39.950300" lon="-4.628000">
        <ele>1557.0</ele>
        <time>2013-07-03T13:59:03Z</time>
      </trkpt>
      <trkpt lat="39.950250" lon="-4.627950">
        <ele>1558.0</ele>
        <time>2013-07-03T13:59:04Z</time>
      </trkpt>
      <trkpt lat="39.950200" lon="-4.627883">
        <ele>1559.0</ele>
        <time>2013-07-03T13:59:05Z</time>
      </trkpt>
      <trkpt lat="39.950150" lon="-4.627817">
        <ele>1560.0</ele>
        <time>2013-07-03T13:59:06Z</time>
      </trkpt>
      <trkpt lat="39.950117" lon="-4.627750">
        <ele>1561.0</ele>
        <time>2013-07-03T13:59:07Z</time>
      </trkpt>
      <trkpt lat="39.950083" lon="-4.627667">
        <ele>1561.0</ele>
        <time>2013-07-03T13:59:08Z</time>
      </trkpt>
      <trkpt lat="39.950050" lon="-4.627567">
        <ele>1562.0</ele>
        <time>2013-07-03T13:59:09Z</time>
      </trkpt>
      <trkpt lat="39.950033" lon="-4.627467">
        <ele>1562.0</ele>
        <time>2013-07-03T13:59:10Z</time>
      </trkpt>
      <trkpt lat="39.950033" lon="-4.627367">
        <ele>1562.0</ele>
        <time>2013-07-03T13:59:11Z</time>
      </trkpt>
      <trkpt lat="39.950050" lon="-4.627267">
        <ele>1563.0</ele>
        <time>2013-07-03T13:59:12Z</time>
      </trkpt>
      <trkpt lat="39.950083" lon="-4.627167">
        <ele>1563.0</ele>
        <time>2013-07-03T13:59:13Z</time>
      </trkpt>
      <trkpt lat="39.950133" lon="-4.627083">
        <ele>1562.0</ele>
        <time>2013-07-03T13:59:14Z</time>
      </trkpt>
      <trkpt lat="39.950183" lon="-4.627017">
        <ele>1562.0</ele>
        <time>2013-07-03T13:59:15Z</time>
      </trkpt>
      <trkpt lat="39.950250" lon="-4.626967">
        <ele>1562.0</ele>
        <time>2013-07-03T13:59:16Z</time>
      </trkpt>
      <trkpt lat="39.950317" lon="-4.626917">
        <ele>1562.0</ele>
        <time>2013-07-03T13:59:17Z</time>
      </trkpt>
      <trkpt lat="39.950400" lon="-4.626900">
        <ele>1562.0</ele>
        <time>2013-07-03T13:59:18Z</time>
      </trkpt>
      <trkpt lat="39.950483" lon="-4.626900">
        <ele>1562.0</ele>
        <time>2013-07-03T13:59:19Z</time>
      </trkpt>
      <trkpt lat="39.950550" lon="-4.626917">
        <ele>1562.0</ele>
        <time>2013-07-03T13:59:20Z</time>
      </trkpt>
      <trkpt lat="39.950617" lon="-4.626983">
        <ele>1561.0</ele>
        <time>2013-07-03T13:59:21Z</time>
      </trkpt>
      <trkpt lat="39.950667" lon="-4.627067">
        <ele>1562.0</ele>
        <time>2013-07-03T13:59:22Z</time>
      </trkpt>
      <trkpt lat="39.950700" lon="-4.627167">
        <ele>1565.0</ele>
        <time>2013-07-03T13:59:23Z</time>
      </trkpt>
      <trkpt lat="39.950717" lon="-4.627233">
        <ele>1568.0</ele>
        <time>2013-07-03T13:59:24Z</time>
      </trkpt>
      <trkpt lat="39.950717" lon="-4.627300">
        <ele>1569.0</ele>
        <time>2013-07-03T13:59:25Z</time>
      </trkpt>
      <trkpt lat="39.950717" lon="-4.627350">
        <ele>1569.0</ele>
        <time>2013-07-03T13:59:26Z</time>
      </trkpt>
      <trkpt lat="39.950717" lon="-4.627417">
        <ele>1569.0</ele>
        <time>2013-07-03T13:59:27Z</time>
      </trkpt>
      <trkpt lat="39.950700" lon="-4.627500">
        <ele>1568.0</ele>
        <time>2013-07-03T13:59:28Z</time>
      </trkpt>
      <trkpt lat="39.950667" lon="-4.627567">
        <ele>1567.0</ele>
        <time>2013-07-03T13:59:29Z</time>
      </trkpt>
      <trkpt lat="39.950617" lon="-4.627633">
        <ele>1568.0</ele>
        <time>2013-07-03T13:59:30Z</time>
      </trkpt>
      <trkpt lat="39.950567" lon="-4.627667">
        <ele>1569.0</ele>
        <time>2013-07-03T13:59:31Z</time>
      </trkpt>
      <trkpt lat="39.950517" lon="-4.627683">
        <ele>1570.0</ele>
        <time>2013-07-03T13:59:32Z</time>
      </trkpt>
      <trkpt lat="39.950467" lon="-4.627700">
        <ele>1570.0</ele>
        <time>2013-07-03T13:59:33Z</time>
      </trkpt>
      <trkpt lat="39.950417" lon="-4.627717">
        <ele>1570.0</ele>
        <time>2013-07-03T13:59:34Z</time>
      </trkpt>
      <trkpt lat="39.950350" lon="-4.627700">
        <ele>1569.0</ele>
        <time>2013-07-03T13:59:35Z</time>
      </trkpt>
      <trkpt lat="39.950283" lon="-4.627650">
        <ele>1569.0</ele>
        <time>2013-07-03T13:59:36Z</time>
      </trkpt>
      <trkpt lat="39.950233" lon="-4.627583">
        <ele>1569.0</ele>
        <time>2013-07-03T13:59:37Z</time>
      </trkpt>
      <trkpt lat="39.950183" lon="-4.627500">
        <ele>1570.0</ele>
        <time>2013-07-03T13:59:38Z</time>
      </trkpt>
      <trkpt lat="39.950133" lon="-4.627450">
        <ele>1571.0</ele>
        <time>2013-07-03T13:59:39Z</time>
      </trkpt>
      <trkpt lat="39.950100" lon="-4.627383">
        <ele>1571.0</ele>
        <time>2013-07-03T13:59:40Z</time>
      </trkpt>
      <trkpt lat="39.950050" lon="-4.627300">
        <ele>1571.0</ele>
        <time>2013-07-03T13:59:41Z</time>
      </trkpt>
      <trkpt lat="39.950033" lon="-4.627183">
        <ele>1571.0</ele>
        <time>2013-07-03T13:59:42Z</time>
      </trkpt>
      <trkpt lat="39.950033" lon="-4.627067">
        <ele>1572.0</ele>
        <time>2013-07-03T13:59:43Z</time>
      </trkpt>
      <trkpt lat="39.950067" lon="-4.626967">
        <ele>1573.0</ele>
        <time>2013-07-03T13:59:44Z</time>
      </trkpt>
      <trkpt lat="39.950117" lon="-4.626900">
        <ele>1573.0</ele>
        <time>2013-07-03T13:59:45Z</time>
      </trkpt>
      <trkpt lat="39.950167" lon="-4.626833">
        <ele>1574.0</ele>
        <time>2013-07-03T13:59:46Z</time>
      </trkpt>
      <trkpt lat="39.950217" lon="-4.626783">
        <ele>1574.0</ele>
        <time>2013-07-03T13:59:47Z</time>
      </trkpt>
      <trkpt lat="39.950283" lon="-4.626717">
        <ele>1574.0</ele>
        <time>2013-07-03T13:59:48Z</time>
      </trkpt>
      <trkpt lat="39.950350" lon="-4.626683">
        <ele>1574.0</ele>
        <time>2013-07-03T13:59:49Z</time>
      </trkpt>
      <trkpt lat="39.950450" lon="-4.626667">
        <ele>1574.0</ele>
        <time>2013-07-03T13:59:50Z</time>
      </trkpt>
      <trkpt lat="39.950517" lon="-4.626683">
        <ele>1575.0</ele>
        <time>2013-07-03T13:59:51Z</time>
      </trkpt>
      <trkpt lat="39.950600" lon="-4.626717">
        <ele>1575.0</ele>
        <time>2013-07-03T13:59:52Z</time>
      </trkpt>
      <trkpt lat="39.950650" lon="-4.626750">
        <ele>1576.0</ele>
        <time>2013-07-03T13:59:53Z</time>
      </trkpt>
      <trkpt lat="39.950700" lon="-4.626800">
        <ele>1578.0</ele>
        <time>2013-07-03T13:59:54Z</time>
      </trkpt>
      <trkpt lat="39.950767" lon="-4.626867">
        <ele>1579.0</ele>
        <time>2013-07-03T13:59:55Z</time>
      </trkpt>
      <trkpt lat="39.950800" lon="-4.626917">
        <ele>1580.0</ele>
        <time>2013-07-03T13:59:56Z</time>
      </trkpt>
      <trkpt lat="39.950850" lon="-4.626967">
        <ele>1582.0</ele>
        <time>2013-07-03T13:59:57Z</time>
      </trkpt>
      <trkpt lat="39.950883" lon="-4.627033">
        <ele>1583.0</ele>
        <time>2013-07-03T13:59:58Z</time>
      </trkpt>
      <trkpt lat="39.950917" lon="-4.627100">
        <ele>1583.0</ele>
        <time>2013-07-03T13:59:59Z</time>
      </trkpt>
      <trkpt lat="39.950950" lon="-4.627183">
        <ele>1584.0</ele>
        <time>2013-07-03T14:00:00Z</time>
      </trkpt>
      <trkpt lat="39.950950" lon="-4.627267">
        <ele>1585.0</ele>
        <time>2013-07-03T14:00:01Z</time>
      </trkpt>
      <trkpt lat="39.950967" lon="-4.627333">
        <ele>1586.0</ele>
        <time>2013-07-03T14:00:02Z</time>
      </trkpt>
      <trkpt lat="39.950950" lon="-4.627417">
        <ele>1587.0</ele>
        <time>2013-07-03T14:00:03Z</time>
      </trkpt>
      <trkpt lat="39.950933" lon="-4.627483">
        <ele>1587.0</ele>
        <time>2013-07-03T14:00:04Z</time>
      </trkpt>
      <trkpt lat="39.950917" lon="-4.627550">
        <ele>1588.0</ele>
        <time>2013-07-03T14:00:05Z</time>
      </trkpt>
      <trkpt lat="39.950900" lon="-4.627617">
        <ele>1589.0</ele>
        <time>2013-07-03T14:00:06Z</time>
      </trkpt>
      <trkpt lat="39.950867" lon="-4.627683">
        <ele>1589.0</ele>
        <time>2013-07-03T14:00:07Z</time>
      </trkpt>
      <trkpt lat="39.950833" lon="-4.627750">
        <ele>1590.0</ele>
        <time>2013-07-03T14:00:08Z</time>
      </trkpt>
      <trkpt lat="39.950817" lon="-4.627833">
        <ele>1590.0</ele>
        <time>2013-07-03T14:00:09Z</time>
      </trkpt>
      <trkpt lat="39.950783" lon="-4.627900">
        <ele>1592.0</ele>
        <time>2013-07-03T14:00:10Z</time>
      </trkpt>
      <trkpt lat="39.950750" lon="-4.627967">
        <ele>1593.0</ele>
        <time>2013-07-03T14:00:11Z</time>
      </trkpt>
      <trkpt lat="39.950700" lon="-4.628017">
        <ele>1594.0</ele>
        <time>2013-07-03T14:00:12Z</time>
      </trkpt>
      <trkpt lat="39.950650" lon="-4.628050">
        <ele>1594.0</ele>
        <time>2013-07-03T14:00:13Z</time>
      </trkpt>
      <trkpt lat="39.950583" lon="-4.628083">
        <ele>1595.0</ele>
        <time>2013-07-03T14:00:14Z</time>
      </trkpt>
      <trkpt lat="39.950533" lon="-4.628117">
        <ele>1596.0</ele>
        <time>2013-07-03T14:00:15Z</time>
      </trkpt>
      <trkpt lat="39.950500" lon="-4.628150">
        <ele>1596.0</ele>
        <time>2013-07-03T14:00:16Z</time>
      </trkpt>
      <trkpt lat="39.950450" lon="-4.628150">
        <ele>1596.0</ele>
        <time>2013-07-03T14:00:17Z</time>
      </trkpt>
      <trkpt lat="39.950400" lon="-4.628167">
        <ele>1595.0</ele>
        <time>2013-07-03T14:00:18Z</time>
      </trkpt>
      <trkpt lat="39.950333" lon="-4.628167">
        <ele>1594.0</ele>
        <time>2013-07-03T14:00:19Z</time>
      </trkpt>
      <trkpt lat="39.950267" lon="-4.628167">
        <ele>1594.0</ele>
        <time>2013-07-03T14:00:20Z</time>
      </trkpt>
      <trkpt lat="39.950183" lon="-4.628167">
        <ele>1594.0</ele>
        <time>2013-07-03T14:00:21Z</time>
      </trkpt>
      <trkpt lat="39.950100" lon="-4.628150">
        <ele>1594.0</ele>
        <time>2013-07-03T14:00:22Z</time>
      </trkpt>
      <trkpt lat="39.950033" lon="-4.628133">
        <ele>1595.0</ele>
        <time>2013-07-03T14:00:23Z</time>
      </trkpt>
      <trkpt lat="39.949967" lon="-4.628117">
        <ele>1597.0</ele>
        <time>2013-07-03T14:00:24Z</time>
      </trkpt>
      <trkpt lat="39.949900" lon="-4.628100">
        <ele>1598.0</ele>
        <time>2013-07-03T14:00:25Z</time>
      </trkpt>
      <trkpt lat="39.949850" lon="-4.628083">
        <ele>1598.0</ele>
        <time>2013-07-03T14:00:26Z</time>
      </trkpt>
      <trkpt lat="39.949783" lon="-4.628067">
        <ele>1599.0</ele>
        <time>2013-07-03T14:00:27Z</time>
      </trkpt>
      <trkpt lat="39.949717" lon="-4.628033">
        <ele>1599.0</ele>
        <time>2013-07-03T14:00:28Z</time>
      </trkpt>
      <trkpt lat="39.949650" lon="-4.627983">
        <ele>1599.0</ele>
        <time>2013-07-03T14:00:29Z</time>
      </trkpt>
      <trkpt lat="39.949600" lon="-4.627917">
        <ele>1601.0</ele>
        <time>2013-07-03T14:00:30Z</time>
      </trkpt>
      <trkpt lat="39.949533" lon="-4.627850">
        <ele>1603.0</ele>
        <time>2013-07-03T14:00:31Z</time>
      </trkpt>
      <trkpt lat="39.949483" lon="-4.627800">
        <ele>1604.0</ele>
        <time>2013-07-03T14:00:32Z</time>
      </trkpt>
      <trkpt lat="39.949450" lon="-4.627733">
        <ele>1606.0</ele>
        <time>2013-07-03T14:00:33Z</time>
      </trkpt>
      <trkpt lat="39.949400" lon="-4.627650">
        <ele>1606.0</ele>
        <time>2013-07-03T14:00:34Z</time>
      </trkpt>
      <trkpt lat="39.949367" lon="-4.627550">
        <ele>1607.0</ele>
        <time>2013-07-03T14:00:35Z</time>
      </trkpt>
      <trkpt lat="39.949350" lon="-4.627433">
        <ele>1607.0</ele>
        <time>2013-07-03T14:00:36Z</time>
      </trkpt>
      <trkpt lat="39.949333" lon="-4.627317">
        <ele>1608.0</ele>
        <time>2013-07-03T14:00:37Z</time>
      </trkpt>
      <trkpt lat="39.949333" lon="-4.627200">
        <ele>1609.0</ele>
        <time>2013-07-03T14:00:38Z</time>
      </trkpt>
      <trkpt lat="39.949350" lon="-4.627100">
        <ele>1610.0</ele>
        <time>2013-07-03T14:00:39Z</time>
      </trkpt>
      <trkpt lat="39.949383" lon="-4.626983">
        <ele>1611.0</ele>
        <time>2013-07-03T14:00:40Z</time>
      </trkpt>
      <trkpt lat="39.949417" lon="-4.626883">
        <ele>1612.0</ele>
        <time>2013-07-03T14:00:41Z</time>
      </trkpt>
      <trkpt lat="39.949467" lon="-4.626783">
        <ele>1612.0</ele>
        <time>2013-07-03T14:00:42Z</time>
      </trkpt>
      <trkpt lat="39.949517" lon="-4.626700">
        <ele>1613.0</ele>
        <time>2013-07-03T14:00:43Z</time>
      </trkpt>
      <trkpt lat="39.949567" lon="-4.626617">
        <ele>1613.0</ele>
        <time>2013-07-03T14:00:44Z</time>
      </trkpt>
      <trkpt lat="39.949633" lon="-4.626533">
        <ele>1614.0</ele>
        <time>2013-07-03T14:00:45Z</time>
      </trkpt>
      <trkpt lat="39.949700" lon="-4.626467">
        <ele>1613.0</ele>
        <time>2013-07-03T14:00:46Z</time>
      </trkpt>
      <trkpt lat="39.949783" lon="-4.626417">
        <ele>1613.0</ele>
        <time>2013-07-03T14:00:47Z</time>
      </trkpt>
      <trkpt lat="39.949867" lon="-4.626383">
        <ele>1612.0</ele>
        <time>2013-07-03T14:00:48Z</time>
      </trkpt>
      <trkpt lat="39.949950" lon="-4.626367">
        <ele>1612.0</ele>
        <time>2013-07-03T14:00:49Z</time>
      </trkpt>
      <trkpt lat="39.950033" lon="-4.626367">
        <ele>1613.0</ele>
        <time>2013-07-03T14:00:50Z</time>
      </trkpt>
      <trkpt lat="39.950100" lon="-4.626383">
        <ele>1613.0</ele>
        <time>2013-07-03T14:00:51Z</time>
      </trkpt>
      <trkpt lat="39.950167" lon="-4.626400">
        <ele>1613.0</ele>
        <time>2013-07-03T14:00:52Z</time>
      </trkpt>
      <trkpt lat="39.950233" lon="-4.626433">
        <ele>1612.0</ele>
        <time>2013-07-03T14:00:53Z</time>
      </trkpt>
      <trkpt lat="39.950300" lon="-4.626483">
        <ele>1611.0</ele>
        <time>2013-07-03T14:00:54Z</time>
      </trkpt>
      <trkpt lat="39.950367" lon="-4.626583">
        <ele>1611.0</ele>
        <time>2013-07-03T14:00:55Z</time>
      </trkpt>
      <trkpt lat="39.950417" lon="-4.626683">
        <ele>1610.0</ele>
        <time>2013-07-03T14:00:56Z</time>
      </trkpt>
      <trkpt lat="39.950450" lon="-4.626783">
        <ele>1610.0</ele>
        <time>2013-07-03T14:00:57Z</time>
      </trkpt>
      <trkpt lat="39.950500" lon="-4.626883">
        <ele>1611.0</ele>
        <time>2013-07-03T14:00:58Z</time>
      </trkpt>
      <trkpt lat="39.950533" lon="-4.626983">
        <ele>1611.0</ele>
        <time>2013-07-03T14:00:59Z</time>
      </trkpt>
      <trkpt lat="39.950583" lon="-4.627067">
        <ele>1611.0</ele>
        <time>2013-07-03T14:01:00Z</time>
      </trkpt>
      <trkpt lat="39.950600" lon="-4.627167">
        <ele>1611.0</ele>
        <time>2013-07-03T14:01:01Z</time>
      </trkpt>
      <trkpt lat="39.950600" lon="-4.627250">
        <ele>1611.0</ele>
        <time>2013-07-03T14:01:02Z</time>
      </trkpt>
      <trkpt lat="39.950567" lon="-4.627350">
        <ele>1611.0</ele>
        <time>2013-07-03T14:01:03Z</time>
      </trkpt>
      <trkpt lat="39.950533" lon="-4.627433">
        <ele>1611.0</ele>
        <time>2013-07-03T14:01:04Z</time>
      </trkpt>
      <trkpt lat="39.950483" lon="-4.627500">
        <ele>1612.0</ele>
        <time>2013-07-03T14:01:05Z</time>
      </trkpt>
      <trkpt lat="39.950433" lon="-4.627583">
        <ele>1613.0</ele>
        <time>2013-07-03T14:01:06Z</time>
      </trkpt>
      <trkpt lat="39.950383" lon="-4.627650">
        <ele>1613.0</ele>
        <time>2013-07-03T14:01:07Z</time>
      </trkpt>
      <trkpt lat="39.950350" lon="-4.627717">
        <ele>1614.0</ele>
        <time>2013-07-03T14:01:08Z</time>
      </trkpt>
      <trkpt lat="39.950300" lon="-4.627767">
        <ele>1614.0</ele>
        <time>2013-07-03T14:01:09Z</time>
      </trkpt>
      <trkpt lat="39.950233" lon="-4.627800">
        <ele>1614.0</ele>
        <time>2013-07-03T14:01:10Z</time>
      </trkpt>
      <trkpt lat="39.950167" lon="-4.627833">
        <ele>1614.0</ele>
        <time>2013-07-03T14:01:11Z</time>
      </trkpt>
      <trkpt lat="39.950100" lon="-4.627850">
        <ele>1614.0</ele>
        <time>2013-07-03T14:01:12Z</time>
      </trkpt>
      <trkpt lat="39.950033" lon="-4.627850">
        <ele>1615.0</ele>
        <time>2013-07-03T14:01:13Z</time>
      </trkpt>
      <trkpt lat="39.949967" lon="-4.627850">
        <ele>1616.0</ele>
        <time>2013-07-03T14:01:14Z</time>
      </trkpt>
      <trkpt lat="39.949900" lon="-4.627833">
        <ele>1617.0</ele>
        <time>2013-07-03T14:01:15Z</time>
      </trkpt>
      <trkpt lat="39.949833" lon="-4.627800">
        <ele>1618.0</ele>
        <time>2013-07-03T14:01:16Z</time>
      </trkpt>
      <trkpt lat="39.949767" lon="-4.627767">
        <ele>1617.0</ele>
        <time>2013-07-03T14:01:17Z</time>
      </trkpt>
      <trkpt lat="39.949700" lon="-4.627717">
        <ele>1617.0</ele>
        <time>2013-07-03T14:01:18Z</time>
      </trkpt>
      <trkpt lat="39.949633" lon="-4.627683">
        <ele>1618.0</ele>
        <time>2013-07-03T14:01:19Z</time>
      </trkpt>
      <trkpt lat="39.949567" lon="-4.627650">
        <ele>1618.0</ele>
        <time>2013-07-03T14:01:20Z</time>
      </trkpt>
      <trkpt lat="39.949483" lon="-4.627600">
        <ele>1618.0</ele>
        <time>2013-07-03T14:01:21Z</time>
      </trkpt>
      <trkpt lat="39.949417" lon="-4.627567">
        <ele>1618.0</ele>
        <time>2013-07-03T14:01:22Z</time>
      </trkpt>
      <trkpt lat="39.949350" lon="-4.627517">
        <ele>1618.0</ele>
        <time>2013-07-03T14:01:23Z</time>
      </trkpt>
      <trkpt lat="39.949300" lon="-4.627450">
        <ele>1618.0</ele>
        <time>2013-07-03T14:01:24Z</time>
      </trkpt>
      <trkpt lat="39.949233" lon="-4.627400">
        <ele>1618.0</ele>
        <time>2013-07-03T14:01:25Z</time>
      </trkpt>
      <trkpt lat="39.949167" lon="-4.627333">
        <ele>1618.0</ele>
        <time>2013-07-03T14:01:26Z</time>
      </trkpt>
      <trkpt lat="39.949100" lon="-4.627283">
        <ele>1618.0</ele>
        <time>2013-07-03T14:01:27Z</time>
      </trkpt>
      <trkpt lat="39.949033" lon="-4.627217">
        <ele>1618.0</ele>
        <time>2013-07-03T14:01:28Z</time>
      </trkpt>
      <trkpt lat="39.948950" lon="-4.627150">
        <ele>1618.0</ele>
        <time>2013-07-03T14:01:29Z</time>
      </trkpt>
      <trkpt lat="39.948883" lon="-4.627067">
        <ele>1619.0</ele>
        <time>2013-07-03T14:01:30Z</time>
      </trkpt>
      <trkpt lat="39.948817" lon="-4.627000">
        <ele>1620.0</ele>
        <time>2013-07-03T14:01:31Z</time>
      </trkpt>
      <trkpt lat="39.948767" lon="-4.626933">
        <ele>1622.0</ele>
        <time>2013-07-03T14:01:32Z</time>
      </trkpt>
      <trkpt lat="39.948717" lon="-4.626883">
        <ele>1622.0</ele>
        <time>2013-07-03T14:01:33Z</time>
      </trkpt>
      <trkpt lat="39.948650" lon="-4.626833">
        <ele>1623.0</ele>
        <time>2013-07-03T14:01:34Z</time>
      </trkpt>
      <trkpt lat="39.948600" lon="-4.626767">
        <ele>1623.0</ele>
        <time>2013-07-03T14:01:35Z</time>
      </trkpt>
      <trkpt lat="39.948550" lon="-4.626683">
        <ele>1622.0</ele>
        <time>2013-07-03T14:01:36Z</time>
      </trkpt>
      <trkpt lat="39.948500" lon="-4.626583">
        <ele>1622.0</ele>
        <time>2013-07-03T14:01:37Z</time>
      </trkpt>
      <trkpt lat="39.948483" lon="-4.626467">
        <ele>1623.0</ele>
        <time>2013-07-03T14:01:38Z</time>
      </trkpt>
      <trkpt lat="39.948467" lon="-4.626367">
        <ele>1624.0</ele>
        <time>2013-07-03T14:01:39Z</time>
      </trkpt>
      <trkpt lat="39.948467" lon="-4.626250">
        <ele>1624.0</ele>
        <time>2013-07-03T14:01:40Z</time>
      </trkpt>
      <trkpt lat="39.948467" lon="-4.626150">
        <ele>1625.0</ele>
        <time>2013-07-03T14:01:41Z</time>
      </trkpt>
      <trkpt lat="39.948467" lon="-4.626033">
        <ele>1625.0</ele>
        <time>2013-07-03T14:01:42Z</time>
      </trkpt>
      <trkpt lat="39.948483" lon="-4.625933">
        <ele>1625.0</ele>
        <time>2013-07-03T14:01:43Z</time>
      </trkpt>
      <trkpt lat="39.948533" lon="-4.625833">
        <ele>1625.0</ele>
        <time>2013-07-03T14:01:44Z</time>
      </trkpt>
      <trkpt lat="39.948583" lon="-4.625750">
        <ele>1625.0</ele>
        <time>2013-07-03T14:01:45Z</time>
      </trkpt>
      <trkpt lat="39.948667" lon="-4.625683">
        <ele>1625.0</ele>
        <time>2013-07-03T14:01:46Z</time>
      </trkpt>
      <trkpt lat="39.948733" lon="-4.625633">
        <ele>1625.0</ele>
        <time>2013-07-03T14:01:47Z</time>
      </trkpt>
      <trkpt lat="39.948817" lon="-4.625600">
        <ele>1626.0</ele>
        <time>2013-07-03T14:01:48Z</time>
      </trkpt>
      <trkpt lat="39.948883" lon="-4.625583">
        <ele>1626.0</ele>
        <time>2013-07-03T14:01:49Z</time>
      </trkpt>
      <trkpt lat="39.948950" lon="-4.625583">
        <ele>1626.0</ele>
        <time>2013-07-03T14:01:50Z</time>
      </trkpt>
      <trkpt lat="39.949017" lon="-4.625583">
        <ele>1625.0</ele>
        <time>2013-07-03T14:01:51Z</time>
      </trkpt>
      <trkpt lat="39.949100" lon="-4.625583">
        <ele>1625.0</ele>
        <time>2013-07-03T14:01:52Z</time>
      </trkpt>
      <trkpt lat="39.949183" lon="-4.625600">
        <ele>1625.0</ele>
        <time>2013-07-03T14:01:53Z</time>
      </trkpt>
      <trkpt lat="39.949250" lon="-4.625617">
        <ele>1625.0</ele>
        <time>2013-07-03T14:01:54Z</time>
      </trkpt>
      <trkpt lat="39.949317" lon="-4.625633">
        <ele>1625.0</ele>
        <time>2013-07-03T14:01:55Z</time>
      </trkpt>
      <trkpt lat="39.949383" lon="-4.625650">
        <ele>1625.0</ele>
        <time>2013-07-03T14:01:56Z</time>
      </trkpt>
      <trkpt lat="39.949450" lon="-4.625667">
        <ele>1624.0</ele>
        <time>2013-07-03T14:01:57Z</time>
      </trkpt>
      <trkpt lat="39.949517" lon="-4.625683">
        <ele>1624.0</ele>
        <time>2013-07-03T14:01:58Z</time>
      </trkpt>
      <trkpt lat="39.949583" lon="-4.625733">
        <ele>1623.0</ele>
        <time>2013-07-03T14:01:59Z</time>
      </trkpt>
      <trkpt lat="39.949650" lon="-4.625783">
        <ele>1623.0</ele>
        <time>2013-07-03T14:02:00Z</time>
      </trkpt>
      <trkpt lat="39.949717" lon="-4.625833">
        <ele>1624.0</ele>
        <time>2013-07-03T14:02:01Z</time>
      </trkpt>
      <trkpt lat="39.949783" lon="-4.625900">
        <ele>1624.0</ele>
        <time>2013-07-03T14:02:02Z</time>
      </trkpt>
      <trkpt lat="39.949833" lon="-4.625967">
        <ele>1625.0</ele>
        <time>2013-07-03T14:02:03Z</time>
      </trkpt>
      <trkpt lat="39.949867" lon="-4.626017">
        <ele>1626.0</ele>
        <time>2013-07-03T14:02:04Z</time>
      </trkpt>
      <trkpt lat="39.949917" lon="-4.626067">
        <ele>1626.0</ele>
        <time>2013-07-03T14:02:05Z</time>
      </trkpt>
      <trkpt lat="39.949967" lon="-4.626133">
        <ele>1626.0</ele>
        <time>2013-07-03T14:02:06Z</time>
      </trkpt>
      <trkpt lat="39.950000" lon="-4.626183">
        <ele>1626.0</ele>
        <time>2013-07-03T14:02:07Z</time>
      </trkpt>
      <trkpt lat="39.950050" lon="-4.626250">
        <ele>1626.0</ele>
        <time>2013-07-03T14:02:08Z</time>
      </trkpt>
      <trkpt lat="39.950117" lon="-4.626317">
        <ele>1626.0</ele>
        <time>2013-07-03T14:02:09Z</time>
      </trkpt>
      <trkpt lat="39.950167" lon="-4.626383">
        <ele>1627.0</ele>
        <time>2013-07-03T14:02:10Z</time>
      </trkpt>
      <trkpt lat="39.950217" lon="-4.626450">
        <ele>1627.0</ele>
        <time>2013-07-03T14:02:11Z</time>
      </trkpt>
      <trkpt lat="39.950250" lon="-4.626533">
        <ele>1627.0</ele>
        <time>2013-07-03T14:02:12Z</time>
      </trkpt>
      <trkpt lat="39.950283" lon="-4.626617">
        <ele>1627.0</ele>
        <time>2013-07-03T14:02:13Z</time>
      </trkpt>
      <trkpt lat="39.950300" lon="-4.626717">
        <ele>1628.0</ele>
        <time>2013-07-03T14:02:14Z</time>
      </trkpt>
      <trkpt lat="39.950317" lon="-4.626800">
        <ele>1627.0</ele>
        <time>2013-07-03T14:02:15Z</time>
      </trkpt>
      <trkpt lat="39.950333" lon="-4.626900">
        <ele>1627.0</ele>
        <time>2013-07-03T14:02:16Z</time>
      </trkpt>
      <trkpt lat="39.950333" lon="-4.626983">
        <ele>1626.0</ele>
        <time>2013-07-03T14:02:17Z</time>
      </trkpt>
      <trkpt lat="39.950317" lon="-4.627067">
        <ele>1625.0</ele>
        <time>2013-07-03T14:02:18Z</time>
      </trkpt>
      <trkpt lat="39.950283" lon="-4.627167">
        <ele>1624.0</ele>
        <time>2013-07-03T14:02:19Z</time>
      </trkpt>
      <trkpt lat="39.950233" lon="-4.627233">
        <ele>1623.0</ele>
        <time>2013-07-03T14:02:20Z</time>
      </trkpt>
      <trkpt lat="39.950167" lon="-4.627317">
        <ele>1623.0</ele>
        <time>2013-07-03T14:02:21Z</time>
      </trkpt>
      <trkpt lat="39.950117" lon="-4.627400">
        <ele>1623.0</ele>
        <time>2013-07-03T14:02:22Z</time>
      </trkpt>
      <trkpt lat="39.950067" lon="-4.627500">
        <ele>1623.0</ele>
        <time>2013-07-03T14:02:23Z</time>
      </trkpt>
      <trkpt lat="39.950017" lon="-4.627583">
        <ele>1624.0</ele>
        <time>2013-07-03T14:02:24Z</time>
      </trkpt>
      <trkpt lat="39.949967" lon="-4.627650">
        <ele>1624.0</ele>
        <time>2013-07-03T14:02:25Z</time>
      </trkpt>
      <trkpt lat="39.949900" lon="-4.627717">
        <ele>1624.0</ele>
        <time>2013-07-03T14:02:26Z</time>
      </trkpt>
      <trkpt lat="39.949817" lon="-4.627750">
        <ele>1623.0</ele>
        <time>2013-07-03T14:02:27Z</time>
      </trkpt>
      <trkpt lat="39.949750" lon="-4.627783">
        <ele>1623.0</ele>
        <time>2013-07-03T14:02:28Z</time>
      </trkpt>
      <trkpt lat="39.949650" lon="-4.627783">
        <ele>1623.0</ele>
        <time>2013-07-03T14:02:29Z</time>
      </trkpt>
      <trkpt lat="39.949567" lon="-4.627783">
        <ele>1622.0</ele>
        <time>2013-07-03T14:02:30Z</time>
      </trkpt>
      <trkpt lat="39.949483" lon="-4.627767">
        <ele>1623.0</ele>
        <time>2013-07-03T14:02:31Z</time>
      </trkpt>
      <trkpt lat="39.949400" lon="-4.627767">
        <ele>1623.0</ele>
        <time>2013-07-03T14:02:32Z</time>
      </trkpt>
      <trkpt lat="39.949317" lon="-4.627750">
        <ele>1623.0</ele>
        <time>2013-07-03T14:02:33Z</time>
      </trkpt>
      <trkpt lat="39.949233" lon="-4.627717">
        <ele>1622.0</ele>
        <time>2013-07-03T14:02:34Z</time>
      </trkpt>
      <trkpt lat="39.949150" lon="-4.627667">
        <ele>1621.0</ele>
        <time>2013-07-03T14:02:35Z</time>
      </trkpt>
      <trkpt lat="39.949067" lon="-4.627600">
        <ele>1620.0</ele>
        <time>2013-07-03T14:02:36Z</time>
      </trkpt>
      <trkpt lat="39.949000" lon="-4.627517">
        <ele>1620.0</ele>
        <time>2013-07-03T14:02:37Z</time>
      </trkpt>
      <trkpt lat="39.948917" lon="-4.627450">
        <ele>1619.0</ele>
        <time>2013-07-03T14:02:38Z</time>
      </trkpt>
      <trkpt lat="39.948833" lon="-4.627367">
        <ele>1620.0</ele>
        <time>2013-07-03T14:02:39Z</time>
      </trkpt>
      <trkpt lat="39.948767" lon="-4.627300">
        <ele>1621.0</ele>
        <time>2013-07-03T14:02:40Z</time>
      </trkpt>
      <trkpt lat="39.948700" lon="-4.627217">
        <ele>1622.0</ele>
        <time>2013-07-03T14:02:41Z</time>
      </trkpt>
      <trkpt lat="39.948650" lon="-4.627150">
        <ele>1622.0</ele>
        <time>2013-07-03T14:02:42Z</time>
      </trkpt>
      <trkpt lat="39.948600" lon="-4.627050">
        <ele>1622.0</ele>
        <time>2013-07-03T14:02:43Z</time>
      </trkpt>
      <trkpt lat="39.948533" lon="-4.626967">
        <ele>1622.0</ele>
        <time>2013-07-03T14:02:44Z</time>
      </trkpt>
      <trkpt lat="39.948483" lon="-4.626867">
        <ele>1621.0</ele>
        <time>2013-07-03T14:02:45Z</time>
      </trkpt>
      <trkpt lat="39.948417" lon="-4.626767">
        <ele>1621.0</ele>
        <time>2013-07-03T14:02:46Z</time>
      </trkpt>
      <trkpt lat="39.948383" lon="-4.626650">
        <ele>1621.0</ele>
        <time>2013-07-03T14:02:47Z</time>
      </trkpt>
      <trkpt lat="39.948333" lon="-4.626550">
        <ele>1622.0</ele>
        <time>2013-07-03T14:02:48Z</time>
      </trkpt>
      <trkpt lat="39.948300" lon="-4.626433">
        <ele>1623.0</ele>
        <time>2013-07-03T14:02:49Z</time>
      </trkpt>
      <trkpt lat="39.948283" lon="-4.626333">
        <ele>1623.0</ele>
        <time>2013-07-03T14:02:50Z</time>
      </trkpt>
      <trkpt lat="39.948250" lon="-4.626233">
        <ele>1624.0</ele>
        <time>2013-07-03T14:02:51Z</time>
      </trkpt>
      <trkpt lat="39.948250" lon="-4.626133">
        <ele>1624.0</ele>
        <time>2013-07-03T14:02:52Z</time>
      </trkpt>
      <trkpt lat="39.948250" lon="-4.626033">
        <ele>1624.0</ele>
        <time>2013-07-03T14:02:53Z</time>
      </trkpt>
      <trkpt lat="39.948267" lon="-4.625933">
        <ele>1624.0</ele>
        <time>2013-07-03T14:02:54Z</time>
      </trkpt>
      <trkpt lat="39.948283" lon="-4.625850">
        <ele>1624.0</ele>
        <time>2013-07-03T14:02:55Z</time>
      </trkpt>
      <trkpt lat="39.948300" lon="-4.625750">
        <ele>1624.0</ele>
        <time>2013-07-03T14:02:56Z</time>
      </trkpt>
      <trkpt lat="39.948317" lon="-4.625650">
        <ele>1623.0</ele>
        <time>2013-07-03T14:02:57Z</time>
      </trkpt>
      <trkpt lat="39.948350" lon="-4.625533">
        <ele>1621.0</ele>
        <time>2013-07-03T14:02:58Z</time>
      </trkpt>
      <trkpt lat="39.948383" lon="-4.625417">
        <ele>1620.0</ele>
        <time>2013-07-03T14:02:59Z</time>
      </trkpt>
      <trkpt lat="39.948433" lon="-4.625300">
        <ele>1620.0</ele>
        <time>2013-07-03T14:03:00Z</time>
      </trkpt>
      <trkpt lat="39.948467" lon="-4.625167">
        <ele>1620.0</ele>
        <time>2013-07-03T14:03:01Z</time>
      </trkpt>
      <trkpt lat="39.948500" lon="-4.625067">
        <ele>1620.0</ele>
        <time>2013-07-03T14:03:02Z</time>
      </trkpt>
      <trkpt lat="39.948533" lon="-4.624967">
        <ele>1620.0</ele>
        <time>2013-07-03T14:03:03Z</time>
      </trkpt>
      <trkpt lat="39.948567" lon="-4.624850">
        <ele>1620.0</ele>
        <time>2013-07-03T14:03:04Z</time>
      </trkpt>
      <trkpt lat="39.948600" lon="-4.624750">
        <ele>1620.0</ele>
        <time>2013-07-03T14:03:05Z</time>
      </trkpt>
      <trkpt lat="39.948617" lon="-4.624633">
        <ele>1620.0</ele>
        <time>2013-07-03T14:03:06Z</time>
      </trkpt>
      <trkpt lat="39.948633" lon="-4.624533">
        <ele>1620.0</ele>
        <time>2013-07-03T14:03:07Z</time>
      </trkpt>
      <trkpt lat="39.948667" lon="-4.624417">
        <ele>1619.0</ele>
        <time>2013-07-03T14:03:08Z</time>
      </trkpt>
      <trkpt lat="39.948683" lon="-4.624300">
        <ele>1617.0</ele>
        <time>2013-07-03T14:03:09Z</time>
      </trkpt>
      <trkpt lat="39.948717" lon="-4.624167">
        <ele>1616.0</ele>
        <time>2013-07-03T14:03:10Z</time>
      </trkpt>
      <trkpt lat="39.948733" lon="-4.624017">
        <ele>1616.0</ele>
        <time>2013-07-03T14:03:11Z</time>
      </trkpt>
      <trkpt lat="39.948750" lon="-4.623900">
        <ele>1616.0</ele>
        <time>2013-07-03T14:03:12Z</time>
      </trkpt>
      <trkpt lat="39.948767" lon="-4.623767">
        <ele>1616.0</ele>
        <time>2013-07-03T14:03:13Z</time>
      </trkpt>
      <trkpt lat="39.948783" lon="-4.623667">
        <ele>1616.0</ele>
        <time>2013-07-03T14:03:14Z</time>
      </trkpt>
      <trkpt lat="39.948800" lon="-4.623550">
        <ele>1616.0</ele>
        <time>2013-07-03T14:03:15Z</time>
      </trkpt>
      <trkpt lat="39.948817" lon="-4.623417">
        <ele>1615.0</ele>
        <time>2013-07-03T14:03:16Z</time>
      </trkpt>
      <trkpt lat="39.948833" lon="-4.623300">
        <ele>1614.0</ele>
        <time>2013-07-03T14:03:17Z</time>
      </trkpt>
      <trkpt lat="39.948850" lon="-4.623183">
        <ele>1613.0</ele>
        <time>2013-07-03T14:03:18Z</time>
      </trkpt>
      <trkpt lat="39.948867" lon="-4.623067">
        <ele>1612.0</ele>
        <time>2013-07-03T14:03:19Z</time>
      </trkpt>
      <trkpt lat="39.948883" lon="-4.622950">
        <ele>1612.0</ele>
        <time>2013-07-03T14:03:20Z</time>
      </trkpt>
      <trkpt lat="39.948900" lon="-4.622817">
        <ele>1611.0</ele>
        <time>2013-07-03T14:03:21Z</time>
      </trkpt>
      <trkpt lat="39.948917" lon="-4.622700">
        <ele>1609.0</ele>
        <time>2013-07-03T14:03:22Z</time>
      </trkpt>
      <trkpt lat="39.948933" lon="-4.622567">
        <ele>1608.0</ele>
        <time>2013-07-03T14:03:23Z</time>
      </trkpt>
      <trkpt lat="39.948933" lon="-4.622433">
        <ele>1608.0</ele>
        <time>2013-07-03T14:03:24Z</time>
      </trkpt>
      <trkpt lat="39.948933" lon="-4.622300">
        <ele>1607.0</ele>
        <time>2013-07-03T14:03:25Z</time>
      </trkpt>
      <trkpt lat="39.948933" lon="-4.622167">
        <ele>1607.0</ele>
        <time>2013-07-03T14:03:26Z</time>
      </trkpt>
      <trkpt lat="39.948933" lon="-4.622050">
        <ele>1607.0</ele>
        <time>2013-07-03T14:03:27Z</time>
      </trkpt>
      <trkpt lat="39.948917" lon="-4.621917">
        <ele>1607.0</ele>
        <time>2013-07-03T14:03:28Z</time>
      </trkpt>
      <trkpt lat="39.948917" lon="-4.621783">
        <ele>1607.0</ele>
        <time>2013-07-03T14:03:29Z</time>
      </trkpt>
      <trkpt lat="39.948900" lon="-4.621650">
        <ele>1606.0</ele>
        <time>2013-07-03T14:03:30Z</time>
      </trkpt>
      <trkpt lat="39.948867" lon="-4.621533">
        <ele>1606.0</ele>
        <time>2013-07-03T14:03:31Z</time>
      </trkpt>
      <trkpt lat="39.948833" lon="-4.621417">
        <ele>1606.0</ele>
        <time>2013-07-03T14:03:32Z</time>
      </trkpt>
      <trkpt lat="39.948800" lon="-4.621283">
        <ele>1605.0</ele>
        <time>2013-07-03T14:03:33Z</time>
      </trkpt>
      <trkpt lat="39.948767" lon="-4.621150">
        <ele>1603.0</ele>
        <time>2013-07-03T14:03:34Z</time>
      </trkpt>
      <trkpt lat="39.948750" lon="-4.621000">
        <ele>1602.0</ele>
        <time>2013-07-03T14:03:35Z</time>
      </trkpt>
      <trkpt lat="39.948717" lon="-4.620867">
        <ele>1602.0</ele>
        <time>2013-07-03T14:03:36Z</time>
      </trkpt>
      <trkpt lat="39.948683" lon="-4.620750">
        <ele>1602.0</ele>
        <time>2013-07-03T14:03:37Z</time>
      </trkpt>
      <trkpt lat="39.948633" lon="-4.620633">
        <ele>1601.0</ele>
        <time>2013-07-03T14:03:38Z</time>
      </trkpt>
      <trkpt lat="39.948583" lon="-4.620517">
        <ele>1600.0</ele>
        <time>2013-07-03T14:03:39Z</time>
      </trkpt>
      <trkpt lat="39.948550" lon="-4.620383">
        <ele>1599.0</ele>
        <time>2013-07-03T14:03:40Z</time>
      </trkpt>
      <trkpt lat="39.948500" lon="-4.620250">
        <ele>1599.0</ele>
        <time>2013-07-03T14:03:41Z</time>
      </trkpt>
      <trkpt lat="39.948467" lon="-4.620117">
        <ele>1598.0</ele>
        <time>2013-07-03T14:03:42Z</time>
      </trkpt>
      <trkpt lat="39.948417" lon="-4.619983">
        <ele>1598.0</ele>
        <time>2013-07-03T14:03:43Z</time>
      </trkpt>
      <trkpt lat="39.948383" lon="-4.619867">
        <ele>1596.0</ele>
        <time>2013-07-03T14:03:44Z</time>
      </trkpt>
      <trkpt lat="39.948350" lon="-4.619733">
        <ele>1595.0</ele>
        <time>2013-07-03T14:03:45Z</time>
      </trkpt>
      <trkpt lat="39.948300" lon="-4.619600">
        <ele>1593.0</ele>
        <time>2013-07-03T14:03:46Z</time>
      </trkpt>
      <trkpt lat="39.948250" lon="-4.619467">
        <ele>1591.0</ele>
        <time>2013-07-03T14:03:47Z</time>
      </trkpt>
      <trkpt lat="39.948217" lon="-4.619333">
        <ele>1591.0</ele>
        <time>2013-07-03T14:03:48Z</time>
      </trkpt>
      <trkpt lat="39.948167" lon="-4.619200">
        <ele>1590.0</ele>
        <time>2013-07-03T14:03:49Z</time>
      </trkpt>
      <trkpt lat="39.948117" lon="-4.619083">
        <ele>1590.0</ele>
        <time>2013-07-03T14:03:50Z</time>
      </trkpt>
      <trkpt lat="39.948067" lon="-4.618967">
        <ele>1590.0</ele>
        <time>2013-07-03T14:03:51Z</time>
      </trkpt>
      <trkpt lat="39.948017" lon="-4.618867">
        <ele>1589.0</ele>
        <time>2013-07-03T14:03:52Z</time>
      </trkpt>
      <trkpt lat="39.947967" lon="-4.618750">
        <ele>1588.0</ele>
        <time>2013-07-03T14:03:53Z</time>
      </trkpt>
      <trkpt lat="39.947900" lon="-4.618617">
        <ele>1588.0</ele>
        <time>2013-07-03T14:03:54Z</time>
      </trkpt>
      <trkpt lat="39.947850" lon="-4.618483">
        <ele>1588.0</ele>
        <time>2013-07-03T14:03:55Z</time>
      </trkpt>
      <trkpt lat="39.947783" lon="-4.618383">
        <ele>1588.0</ele>
        <time>2013-07-03T14:03:56Z</time>
      </trkpt>
      <trkpt lat="39.947733" lon="-4.618283">
        <ele>1589.0</ele>
        <time>2013-07-03T14:03:57Z</time>
      </trkpt>
      <trkpt lat="39.947667" lon="-4.618183">
        <ele>1589.0</ele>
        <time>2013-07-03T14:03:58Z</time>
      </trkpt>
      <trkpt lat="39.947600" lon="-4.618067">
        <ele>1590.0</ele>
        <time>2013-07-03T14:03:59Z</time>
      </trkpt>
      <trkpt lat="39.947550" lon="-4.617967">
        <ele>1592.0</ele>
        <time>2013-07-03T14:04:00Z</time>
      </trkpt>
      <trkpt lat="39.947483" lon="-4.617900">
        <ele>1594.0</ele>
        <time>2013-07-03T14:04:01Z</time>
      </trkpt>
      <trkpt lat="39.947433" lon="-4.617850">
        <ele>1596.0</ele>
        <time>2013-07-03T14:04:02Z</time>
      </trkpt>
      <trkpt lat="39.947367" lon="-4.617817">
        <ele>1598.0</ele>
        <time>2013-07-03T14:04:03Z</time>
      </trkpt>
      <trkpt lat="39.947300" lon="-4.617783">
        <ele>1599.0</ele>
        <time>2013-07-03T14:04:04Z</time>
      </trkpt>
      <trkpt lat="39.947217" lon="-4.617767">
        <ele>1599.0</ele>
        <time>2013-07-03T14:04:05Z</time>
      </trkpt>
      <trkpt lat="39.947133" lon="-4.617767">
        <ele>1600.0</ele>
        <time>2013-07-03T14:04:06Z</time>
      </trkpt>
      <trkpt lat="39.947067" lon="-4.617767">
        <ele>1601.0</ele>
        <time>2013-07-03T14:04:07Z</time>
      </trkpt>
      <trkpt lat="39.947000" lon="-4.617800">
        <ele>1602.0</ele>
        <time>2013-07-03T14:04:08Z</time>
      </trkpt>
      <trkpt lat="39.946933" lon="-4.617833">
        <ele>1602.0</ele>
        <time>2013-07-03T14:04:09Z</time>
      </trkpt>
      <trkpt lat="39.946867" lon="-4.617883">
        <ele>1603.0</ele>
        <time>2013-07-03T14:04:10Z</time>
      </trkpt>
      <trkpt lat="39.946800" lon="-4.617933">
        <ele>1603.0</ele>
        <time>2013-07-03T14:04:11Z</time>
      </trkpt>
      <trkpt lat="39.946750" lon="-4.618000">
        <ele>1603.0</ele>
        <time>2013-07-03T14:04:12Z</time>
      </trkpt>
      <trkpt lat="39.946700" lon="-4.618083">
        <ele>1604.0</ele>
        <time>2013-07-03T14:04:13Z</time>
      </trkpt>
      <trkpt lat="39.946667" lon="-4.618167">
        <ele>1604.0</ele>
        <time>2013-07-03T14:04:14Z</time>
      </trkpt>
      <trkpt lat="39.946650" lon="-4.618267">
        <ele>1604.0</ele>
        <time>2013-07-03T14:04:15Z</time>
      </trkpt>
      <trkpt lat="39.946650" lon="-4.618350">
        <ele>1605.0</ele>
        <time>2013-07-03T14:04:16Z</time>
      </trkpt>
      <trkpt lat="39.946650" lon="-4.618433">
        <ele>1606.0</ele>
        <time>2013-07-03T14:04:17Z</time>
      </trkpt>
      <trkpt lat="39.946650" lon="-4.618533">
        <ele>1607.0</ele>
        <time>2013-07-03T14:04:18Z</time>
      </trkpt>
      <trkpt lat="39.946650" lon="-4.618600">
        <ele>1608.0</ele>
        <time>2013-07-03T14:04:19Z</time>
      </trkpt>
      <trkpt lat="39.946667" lon="-4.618667">
        <ele>1608.0</ele>
        <time>2013-07-03T14:04:20Z</time>
      </trkpt>
      <trkpt lat="39.946683" lon="-4.618733">
        <ele>1609.0</ele>
        <time>2013-07-03T14:04:21Z</time>
      </trkpt>
      <trkpt lat="39.946717" lon="-4.618783">
        <ele>1609.0</ele>
        <time>2013-07-03T14:04:22Z</time>
      </trkpt>
      <trkpt lat="39.946767" lon="-4.618817">
        <ele>1608.0</ele>
        <time>2013-07-03T14:04:23Z</time>
      </trkpt>
      <trkpt lat="39.946817" lon="-4.618850">
        <ele>1608.0</ele>
        <time>2013-07-03T14:04:24Z</time>
      </trkpt>
      <trkpt lat="39.946883" lon="-4.618867">
        <ele>1607.0</ele>
        <time>2013-07-03T14:04:25Z</time>
      </trkpt>
      <trkpt lat="39.946950" lon="-4.618850">
        <ele>1606.0</ele>
        <time>2013-07-03T14:04:26Z</time>
      </trkpt>
      <trkpt lat="39.947000" lon="-4.618817">
        <ele>1605.0</ele>
        <time>2013-07-03T14:04:27Z</time>
      </trkpt>
      <trkpt lat="39.947067" lon="-4.618750">
        <ele>1604.0</ele>
        <time>2013-07-03T14:04:28Z</time>
      </trkpt>
      <trkpt lat="39.947100" lon="-4.618667">
        <ele>1604.0</ele>
        <time>2013-07-03T14:04:29Z</time>
      </trkpt>
      <trkpt lat="39.947117" lon="-4.618583">
        <ele>1604.0</ele>
        <time>2013-07-03T14:04:30Z</time>
      </trkpt>
      <trkpt lat="39.947117" lon="-4.618467">
        <ele>1603.0</ele>
        <time>2013-07-03T14:04:31Z</time>
      </trkpt>
      <trkpt lat="39.947100" lon="-4.618350">
        <ele>1602.0</ele>
        <time>2013-07-03T14:04:32Z</time>
      </trkpt>
      <trkpt lat="39.947050" lon="-4.618233">
        <ele>1602.0</ele>
        <time>2013-07-03T14:04:33Z</time>
      </trkpt>
      <trkpt lat="39.947000" lon="-4.618133">
        <ele>1602.0</ele>
        <time>2013-07-03T14:04:34Z</time>
      </trkpt>
      <trkpt lat="39.946950" lon="-4.618017">
        <ele>1601.0</ele>
        <time>2013-07-03T14:04:35Z</time>
      </trkpt>
      <trkpt lat="39.946883" lon="-4.617917">
        <ele>1602.0</ele>
        <time>2013-07-03T14:04:36Z</time>
      </trkpt>
      <trkpt lat="39.946817" lon="-4.617800">
        <ele>1602.0</ele>
        <time>2013-07-03T14:04:37Z</time>
      </trkpt>
      <trkpt lat="39.946750" lon="-4.617700">
        <ele>1603.0</ele>
        <time>2013-07-03T14:04:38Z</time>
      </trkpt>
      <trkpt lat="39.946683" lon="-4.617583">
        <ele>1603.0</ele>
        <time>2013-07-03T14:04:39Z</time>
      </trkpt>
      <trkpt lat="39.946633" lon="-4.617467">
        <ele>1604.0</ele>
        <time>2013-07-03T14:04:40Z</time>
      </trkpt>
      <trkpt lat="39.946567" lon="-4.617350">
        <ele>1605.0</ele>
        <time>2013-07-03T14:04:41Z</time>
      </trkpt>
      <trkpt lat="39.946500" lon="-4.617250">
        <ele>1608.0</ele>
        <time>2013-07-03T14:04:42Z</time>
      </trkpt>
      <trkpt lat="39.946450" lon="-4.617183">
        <ele>1610.0</ele>
        <time>2013-07-03T14:04:43Z</time>
      </trkpt>
      <trkpt lat="39.946417" lon="-4.617117">
        <ele>1612.0</ele>
        <time>2013-07-03T14:04:44Z</time>
      </trkpt>
      <trkpt lat="39.946400" lon="-4.617050">
        <ele>1613.0</ele>
        <time>2013-07-03T14:04:45Z</time>
      </trkpt>
      <trkpt lat="39.946383" lon="-4.616950">
        <ele>1613.0</ele>
        <time>2013-07-03T14:04:46Z</time>
      </trkpt>
      <trkpt lat="39.946400" lon="-4.616833">
        <ele>1612.0</ele>
        <time>2013-07-03T14:04:47Z</time>
      </trkpt>
      <trkpt lat="39.946417" lon="-4.616733">
        <ele>1612.0</ele>
        <time>2013-07-03T14:04:48Z</time>
      </trkpt>
      <trkpt lat="39.946467" lon="-4.616650">
        <ele>1613.0</ele>
        <time>2013-07-03T14:04:49Z</time>
      </trkpt>
      <trkpt lat="39.946533" lon="-4.616617">
        <ele>1614.0</ele>
        <time>2013-07-03T14:04:50Z</time>
      </trkpt>
      <trkpt lat="39.946617" lon="-4.616633">
        <ele>1615.0</ele>
        <time>2013-07-03T14:04:51Z</time>
      </trkpt>
      <trkpt lat="39.946683" lon="-4.616667">
        <ele>1616.0</ele>
        <time>2013-07-03T14:04:52Z</time>
      </trkpt>
      <trkpt lat="39.946750" lon="-4.616700">
        <ele>1618.0</ele>
        <time>2013-07-03T14:04:53Z</time>
      </trkpt>
      <trkpt lat="39.946783" lon="-4.616750">
        <ele>1620.0</ele>
        <time>2013-07-03T14:04:54Z</time>
      </trkpt>
      <trkpt lat="39.946817" lon="-4.616800">
        <ele>1622.0</ele>
        <time>2013-07-03T14:04:55Z</time>
      </trkpt>
      <trkpt lat="39.946833" lon="-4.616867">
        <ele>1623.0</ele>
        <time>2013-07-03T14:04:56Z</time>
      </trkpt>
      <trkpt lat="39.946817" lon="-4.616950">
        <ele>1624.0</ele>
        <time>2013-07-03T14:04:57Z</time>
      </trkpt>
      <trkpt lat="39.946783" lon="-4.617033">
        <ele>1624.0</ele>
        <time>2013-07-03T14:04:58Z</time>
      </trkpt>
      <trkpt lat="39.946750" lon="-4.617100">
        <ele>1624.0</ele>
        <time>2013-07-03T14:04:59Z</time>
      </trkpt>
      <trkpt lat="39.946683" lon="-4.617167">
        <ele>1624.0</ele>
        <time>2013-07-03T14:05:00Z</time>
      </trkpt>
      <trkpt lat="39.946600" lon="-4.617200">
        <ele>1625.0</ele>
        <time>2013-07-03T14:05:01Z</time>
      </trkpt>
      <trkpt lat="39.946517" lon="-4.617200">
        <ele>1625.0</ele>
        <time>2013-07-03T14:05:02Z</time>
      </trkpt>
      <trkpt lat="39.946433" lon="-4.617200">
        <ele>1626.0</ele>
        <time>2013-07-03T14:05:03Z</time>
      </trkpt>
      <trkpt lat="39.946367" lon="-4.617200">
        <ele>1627.0</ele>
        <time>2013-07-03T14:05:04Z</time>
      </trkpt>
      <trkpt lat="39.946283" lon="-4.617167">
        <ele>1628.0</ele>
        <time>2013-07-03T14:05:05Z</time>
      </trkpt>
      <trkpt lat="39.946200" lon="-4.617117">
        <ele>1629.0</ele>
        <time>2013-07-03T14:05:06Z</time>
      </trkpt>
      <trkpt lat="39.946133" lon="-4.617050">
        <ele>1629.0</ele>
        <time>2013-07-03T14:05:07Z</time>
      </trkpt>
      <trkpt lat="39.946083" lon="-4.616950">
        <ele>1629.0</ele>
        <time>2013-07-03T14:05:08Z</time>
      </trkpt>
      <trkpt lat="39.946050" lon="-4.616867">
        <ele>1630.0</ele>
        <time>2013-07-03T14:05:09Z</time>
      </trkpt>
      <trkpt lat="39.946017" lon="-4.616783">
        <ele>1631.0</ele>
        <time>2013-07-03T14:05:10Z</time>
      </trkpt>
      <trkpt lat="39.945983" lon="-4.616700">
        <ele>1631.0</ele>
        <time>2013-07-03T14:05:11Z</time>
      </trkpt>
      <trkpt lat="39.945967" lon="-4.616617">
        <ele>1631.0</ele>
        <time>2013-07-03T14:05:12Z</time>
      </trkpt>
      <trkpt lat="39.945967" lon="-4.616500">
        <ele>1630.0</ele>
        <time>2013-07-03T14:05:13Z</time>
      </trkpt>
      <trkpt lat="39.945983" lon="-4.616400">
        <ele>1631.0</ele>
        <time>2013-07-03T14:05:14Z</time>
      </trkpt>
      <trkpt lat="39.946017" lon="-4.616317">
        <ele>1632.0</ele>
        <time>2013-07-03T14:05:15Z</time>
      </trkpt>
      <trkpt lat="39.946050" lon="-4.616250">
        <ele>1634.0</ele>
        <time>2013-07-03T14:05:16Z</time>
      </trkpt>
      <trkpt lat="39.946100" lon="-4.616200">
        <ele>1636.0</ele>
        <time>2013-07-03T14:05:17Z</time>
      </trkpt>
      <trkpt lat="39.946150" lon="-4.616167">
        <ele>1638.0</ele>
        <time>2013-07-03T14:05:18Z</time>
      </trkpt>
      <trkpt lat="39.946200" lon="-4.616133">
        <ele>1640.0</ele>
        <time>2013-07-03T14:05:19Z</time>
      </trkpt>
      <trkpt lat="39.946233" lon="-4.616100">
        <ele>1642.0</ele>
        <time>2013-07-03T14:05:20Z</time>
      </trkpt>
      <trkpt lat="39.946267" lon="-4.616083">
        <ele>1643.0</ele>
        <time>2013-07-03T14:05:21Z</time>
      </trkpt>
      <trkpt lat="39.946300" lon="-4.616100">
        <ele>1643.0</ele>
        <time>2013-07-03T14:05:22Z</time>
      </trkpt>
      <trkpt lat="39.946350" lon="-4.616133">
        <ele>1643.0</ele>
        <time>2013-07-03T14:05:23Z</time>
      </trkpt>
      <trkpt lat="39.946383" lon="-4.616183">
        <ele>1643.0</ele>
        <time>2013-07-03T14:05:24Z</time>
      </trkpt>
      <trkpt lat="39.946400" lon="-4.616233">
        <ele>1644.0</ele>
        <time>2013-07-03T14:05:25Z</time>
      </trkpt>
      <trkpt lat="39.946400" lon="-4.616317">
        <ele>1644.0</ele>
        <time>2013-07-03T14:05:26Z</time>
      </trkpt>
      <trkpt lat="39.946350" lon="-4.616400">
        <ele>1644.0</ele>
        <time>2013-07-03T14:05:27Z</time>
      </trkpt>
      <trkpt lat="39.946283" lon="-4.616450">
        <ele>1644.0</ele>
        <time>2013-07-03T14:05:28Z</time>
      </trkpt>
      <trkpt lat="39.946200" lon="-4.616500">
        <ele>1644.0</ele>
        <time>2013-07-03T14:05:29Z</time>
      </trkpt>
      <trkpt lat="39.946100" lon="-4.616500">
        <ele>1645.0</ele>
        <time>2013-07-03T14:05:30Z</time>
      </trkpt>
      <trkpt lat="39.946017" lon="-4.616467">
        <ele>1646.0</ele>
        <time>2013-07-03T14:05:31Z</time>
      </trkpt>
      <trkpt lat="39.945933" lon="-4.616417">
        <ele>1648.0</ele>
        <time>2013-07-03T14:05:32Z</time>
      </trkpt>
      <trkpt lat="39.945867" lon="-4.616350">
        <ele>1649.0</ele>
        <time>2013-07-03T14:05:33Z</time>
      </trkpt>
      <trkpt lat="39.945817" lon="-4.616267">
        <ele>1651.0</ele>
        <time>2013-07-03T14:05:34Z</time>
      </trkpt>
      <trkpt lat="39.945767" lon="-4.616200">
        <ele>1652.0</ele>
        <time>2013-07-03T14:05:35Z</time>
      </trkpt>
      <trkpt lat="39.945733" lon="-4.616117">
        <ele>1653.0</ele>
        <time>2013-07-03T14:05:36Z</time>
      </trkpt>
      <trkpt lat="39.945717" lon="-4.616033">
        <ele>1654.0</ele>
        <time>2013-07-03T14:05:37Z</time>
      </trkpt>
      <trkpt lat="39.945717" lon="-4.615933">
        <ele>1654.0</ele>
        <time>2013-07-03T14:05:38Z</time>
      </trkpt>
      <trkpt lat="39.945717" lon="-4.615850">
        <ele>1655.0</ele>
        <time>2013-07-03T14:05:39Z</time>
      </trkpt>
      <trkpt lat="39.945750" lon="-4.615767">
        <ele>1656.0</ele>
        <time>2013-07-03T14:05:40Z</time>
      </trkpt>
      <trkpt lat="39.945783" lon="-4.615700">
        <ele>1657.0</ele>
        <time>2013-07-03T14:05:41Z</time>
      </trkpt>
      <trkpt lat="39.945817" lon="-4.615650">
        <ele>1658.0</ele>
        <time>2013-07-03T14:05:42Z</time>
      </trkpt>
      <trkpt lat="39.945867" lon="-4.615617">
        <ele>1659.0</ele>
        <time>2013-07-03T14:05:43Z</time>
      </trkpt>
      <trkpt lat="39.945917" lon="-4.615617">
        <ele>1660.0</ele>
        <time>2013-07-03T14:05:44Z</time>
      </trkpt>
      <trkpt lat="39.945967" lon="-4.615617">
        <ele>1661.0</ele>
        <time>2013-07-03T14:05:45Z</time>
      </trkpt>
      <trkpt lat="39.946000" lon="-4.615633">
        <ele>1662.0</ele>
        <time>2013-07-03T14:05:46Z</time>
      </trkpt>
      <trkpt lat="39.946033" lon="-4.615667">
        <ele>1662.0</ele>
        <time>2013-07-03T14:05:47Z</time>
      </trkpt>
      <trkpt lat="39.946050" lon="-4.615733">
        <ele>1662.0</ele>
        <time>2013-07-03T14:05:48Z</time>
      </trkpt>
      <trkpt lat="39.946050" lon="-4.615800">
        <ele>1661.0</ele>
        <time>2013-07-03T14:05:49Z</time>
      </trkpt>
      <trkpt lat="39.946033" lon="-4.615900">
        <ele>1660.0</ele>
        <time>2013-07-03T14:05:50Z</time>
      </trkpt>
      <trkpt lat="39.946000" lon="-4.615983">
        <ele>1660.0</ele>
        <time>2013-07-03T14:05:51Z</time>
      </trkpt>
      <trkpt lat="39.945933" lon="-4.616050">
        <ele>1659.0</ele>
        <time>2013-07-03T14:05:52Z</time>
      </trkpt>
      <trkpt lat="39.945867" lon="-4.616117">
        <ele>1659.0</ele>
        <time>2013-07-03T14:05:53Z</time>
      </trkpt>
      <trkpt lat="39.945767" lon="-4.616150">
        <ele>1659.0</ele>
        <time>2013-07-03T14:05:54Z</time>
      </trkpt>
      <trkpt lat="39.945667" lon="-4.616133">
        <ele>1659.0</ele>
        <time>2013-07-03T14:05:55Z</time>
      </trkpt>
      <trkpt lat="39.945567" lon="-4.616100">
        <ele>1659.0</ele>
        <time>2013-07-03T14:05:56Z</time>
      </trkpt>
      <trkpt lat="39.945483" lon="-4.616033">
        <ele>1660.0</ele>
        <time>2013-07-03T14:05:57Z</time>
      </trkpt>
      <trkpt lat="39.945400" lon="-4.615967">
        <ele>1662.0</ele>
        <time>2013-07-03T14:05:58Z</time>
      </trkpt>
      <trkpt lat="39.945317" lon="-4.615900">
        <ele>1664.0</ele>
        <time>2013-07-03T14:05:59Z</time>
      </trkpt>
      <trkpt lat="39.945267" lon="-4.615850">
        <ele>1666.0</ele>
        <time>2013-07-03T14:06:00Z</time>
      </trkpt>
      <trkpt lat="39.945217" lon="-4.615783">
        <ele>1667.0</ele>
        <time>2013-07-03T14:06:01Z</time>
      </trkpt>
      <trkpt lat="39.945183" lon="-4.615683">
        <ele>1667.0</ele>
        <time>2013-07-03T14:06:02Z</time>
      </trkpt>
      <trkpt lat="39.945150" lon="-4.615583">
        <ele>1666.0</ele>
        <time>2013-07-03T14:06:03Z</time>
      </trkpt>
      <trkpt lat="39.945117" lon="-4.615467">
        <ele>1666.0</ele>
        <time>2013-07-03T14:06:04Z</time>
      </trkpt>
      <trkpt lat="39.945117" lon="-4.615350">
        <ele>1667.0</ele>
        <time>2013-07-03T14:06:05Z</time>
      </trkpt>
      <trkpt lat="39.945117" lon="-4.615250">
        <ele>1668.0</ele>
        <time>2013-07-03T14:06:06Z</time>
      </trkpt>
      <trkpt lat="39.945133" lon="-4.615150">
        <ele>1669.0</ele>
        <time>2013-07-03T14:06:07Z</time>
      </trkpt>
      <trkpt lat="39.945150" lon="-4.615067">
        <ele>1670.0</ele>
        <time>2013-07-03T14:06:08Z</time>
      </trkpt>
      <trkpt lat="39.945167" lon="-4.615000">
        <ele>1670.0</ele>
        <time>2013-07-03T14:06:09Z</time>
      </trkpt>
      <trkpt lat="39.945200" lon="-4.614933">
        <ele>1670.0</ele>
        <time>2013-07-03T14:06:10Z</time>
      </trkpt>
      <trkpt lat="39.945233" lon="-4.614867">
        <ele>1669.0</ele>
        <time>2013-07-03T14:06:11Z</time>
      </trkpt>
      <trkpt lat="39.945283" lon="-4.614833">
        <ele>1669.0</ele>
        <time>2013-07-03T14:06:12Z</time>
      </trkpt>
      <trkpt lat="39.945350" lon="-4.614817">
        <ele>1668.0</ele>
        <time>2013-07-03T14:06:13Z</time>
      </trkpt>
      <trkpt lat="39.945400" lon="-4.614833">
        <ele>1669.0</ele>
        <time>2013-07-03T14:06:14Z</time>
      </trkpt>
      <trkpt lat="39.945450" lon="-4.614850">
        <ele>1670.0</ele>
        <time>2013-07-03T14:06:15Z</time>
      </trkpt>
      <trkpt lat="39.945483" lon="-4.614883">
        <ele>1670.0</ele>
        <time>2013-07-03T14:06:16Z</time>
      </trkpt>
      <trkpt lat="39.945500" lon="-4.614917">
        <ele>1671.0</ele>
        <time>2013-07-03T14:06:17Z</time>
      </trkpt>
      <trkpt lat="39.945500" lon="-4.614967">
        <ele>1670.0</ele>
        <time>2013-07-03T14:06:18Z</time>
      </trkpt>
      <trkpt lat="39.945517" lon="-4.615017">
        <ele>1669.0</ele>
        <time>2013-07-03T14:06:19Z</time>
      </trkpt>
      <trkpt lat="39.945517" lon="-4.615100">
        <ele>1669.0</ele>
        <time>2013-07-03T14:06:20Z</time>
      </trkpt>
      <trkpt lat="39.945517" lon="-4.615167">
        <ele>1668.0</ele>
        <time>2013-07-03T14:06:21Z</time>
      </trkpt>
      <trkpt lat="39.945517" lon="-4.615250">
        <ele>1669.0</ele>
        <time>2013-07-03T14:06:22Z</time>
      </trkpt>
      <trkpt lat="39.945483" lon="-4.615333">
        <ele>1669.0</ele>
        <time>2013-07-03T14:06:23Z</time>
      </trkpt>
      <trkpt lat="39.945433" lon="-4.615417">
        <ele>1668.0</ele>
        <time>2013-07-03T14:06:24Z</time>
      </trkpt>
      <trkpt lat="39.945367" lon="-4.615483">
        <ele>1668.0</ele>
        <time>2013-07-03T14:06:25Z</time>
      </trkpt>
      <trkpt lat="39.945300" lon="-4.615533">
        <ele>1667.0</ele>
        <time>2013-07-03T14:06:26Z</time>
      </trkpt>
      <trkpt lat="39.945217" lon="-4.615567">
        <ele>1666.0</ele>
        <time>2013-07-03T14:06:27Z</time>
      </trkpt>
      <trkpt lat="39.945117" lon="-4.615600">
        <ele>1666.0</ele>
        <time>2013-07-03T14:06:28Z</time>
      </trkpt>
      <trkpt lat="39.945017" lon="-4.615617">
        <ele>1665.0</ele>
        <time>2013-07-03T14:06:29Z</time>
      </trkpt>
      <trkpt lat="39.944917" lon="-4.615633">
        <ele>1665.0</ele>
        <time>2013-07-03T14:06:30Z</time>
      </trkpt>
      <trkpt lat="39.944817" lon="-4.615633">
        <ele>1665.0</ele>
        <time>2013-07-03T14:06:31Z</time>
      </trkpt>
      <trkpt lat="39.944717" lon="-4.615617">
        <ele>1665.0</ele>
        <time>2013-07-03T14:06:32Z</time>
      </trkpt>
      <trkpt lat="39.944633" lon="-4.615600">
        <ele>1666.0</ele>
        <time>2013-07-03T14:06:33Z</time>
      </trkpt>
      <trkpt lat="39.944533" lon="-4.615567">
        <ele>1667.0</ele>
        <time>2013-07-03T14:06:34Z</time>
      </trkpt>
      <trkpt lat="39.944450" lon="-4.615550">
        <ele>1667.0</ele>
        <time>2013-07-03T14:06:35Z</time>
      </trkpt>
      <trkpt lat="39.944367" lon="-4.615533">
        <ele>1667.0</ele>
        <time>2013-07-03T14:06:36Z</time>
      </trkpt>
      <trkpt lat="39.944267" lon="-4.615500">
        <ele>1667.0</ele>
        <time>2013-07-03T14:06:37Z</time>
      </trkpt>
      <trkpt lat="39.944167" lon="-4.615450">
        <ele>1666.0</ele>
        <time>2013-07-03T14:06:38Z</time>
      </trkpt>
      <trkpt lat="39.944067" lon="-4.615400">
        <ele>1666.0</ele>
        <time>2013-07-03T14:06:39Z</time>
      </trkpt>
      <trkpt lat="39.943950" lon="-4.615350">
        <ele>1667.0</ele>
        <time>2013-07-03T14:06:40Z</time>
      </trkpt>
      <trkpt lat="39.943867" lon="-4.615300">
        <ele>1668.0</ele>
        <time>2013-07-03T14:06:41Z</time>
      </trkpt>
      <trkpt lat="39.943767" lon="-4.615233">
        <ele>1669.0</ele>
        <time>2013-07-03T14:06:42Z</time>
      </trkpt>
      <trkpt lat="39.943700" lon="-4.615183">
        <ele>1670.0</ele>
        <time>2013-07-03T14:06:43Z</time>
      </trkpt>
      <trkpt lat="39.943617" lon="-4.615133">
        <ele>1671.0</ele>
        <time>2013-07-03T14:06:44Z</time>
      </trkpt>
      <trkpt lat="39.943550" lon="-4.615067">
        <ele>1670.0</ele>
        <time>2013-07-03T14:06:45Z</time>
      </trkpt>
      <trkpt lat="39.943483" lon="-4.615000">
        <ele>1669.0</ele>
        <time>2013-07-03T14:06:46Z</time>
      </trkpt>
      <trkpt lat="39.943400" lon="-4.614933">
        <ele>1669.0</ele>
        <time>2013-07-03T14:06:47Z</time>
      </trkpt>
      <trkpt lat="39.943350" lon="-4.614850">
        <ele>1668.0</ele>
        <time>2013-07-03T14:06:48Z</time>
      </trkpt>
      <trkpt lat="39.943283" lon="-4.614767">
        <ele>1668.0</ele>
        <time>2013-07-03T14:06:49Z</time>
      </trkpt>
      <trkpt lat="39.943233" lon="-4.614683">
        <ele>1667.0</ele>
        <time>2013-07-03T14:06:50Z</time>
      </trkpt>
      <trkpt lat="39.943167" lon="-4.614567">
        <ele>1666.0</ele>
        <time>2013-07-03T14:06:51Z</time>
      </trkpt>
      <trkpt lat="39.943100" lon="-4.614467">
        <ele>1667.0</ele>
        <time>2013-07-03T14:06:52Z</time>
      </trkpt>
      <trkpt lat="39.943050" lon="-4.614383">
        <ele>1668.0</ele>
        <time>2013-07-03T14:06:53Z</time>
      </trkpt>
      <trkpt lat="39.942983" lon="-4.614300">
        <ele>1669.0</ele>
        <time>2013-07-03T14:06:54Z</time>
      </trkpt>
      <trkpt lat="39.942933" lon="-4.614217">
        <ele>1669.0</ele>
        <time>2013-07-03T14:06:55Z</time>
      </trkpt>
      <trkpt lat="39.942883" lon="-4.614133">
        <ele>1669.0</ele>
        <time>2013-07-03T14:06:56Z</time>
      </trkpt>
      <trkpt lat="39.942850" lon="-4.614033">
        <ele>1668.0</ele>
        <time>2013-07-03T14:06:57Z</time>
      </trkpt>
      <trkpt lat="39.942817" lon="-4.613917">
        <ele>1667.0</ele>
        <time>2013-07-03T14:06:58Z</time>
      </trkpt>
      <trkpt lat="39.942817" lon="-4.613817">
        <ele>1667.0</ele>
        <time>2013-07-03T14:06:59Z</time>
      </trkpt>
      <trkpt lat="39.942817" lon="-4.613733">
        <ele>1667.0</ele>
        <time>2013-07-03T14:07:00Z</time>
      </trkpt>
      <trkpt lat="39.942850" lon="-4.613650">
        <ele>1668.0</ele>
        <time>2013-07-03T14:07:01Z</time>
      </trkpt>
      <trkpt lat="39.942867" lon="-4.613617">
        <ele>1669.0</ele>
        <time>2013-07-03T14:07:02Z</time>
      </trkpt>
      <trkpt lat="39.942900" lon="-4.613583">
        <ele>1670.0</ele>
        <time>2013-07-03T14:07:03Z</time>
      </trkpt>
      <trkpt lat="39.942950" lon="-4.613567">
        <ele>1670.0</ele>
        <time>2013-07-03T14:07:04Z</time>
      </trkpt>
      <trkpt lat="39.942983" lon="-4.613550">
        <ele>1670.0</ele>
        <time>2013-07-03T14:07:05Z</time>
      </trkpt>
      <trkpt lat="39.943017" lon="-4.613567">
        <ele>1669.0</ele>
        <time>2013-07-03T14:07:06Z</time>
      </trkpt>
      <trkpt lat="39.943067" lon="-4.613600">
        <ele>1668.0</ele>
        <time>2013-07-03T14:07:07Z</time>
      </trkpt>
      <trkpt lat="39.943083" lon="-4.613650">
        <ele>1667.0</ele>
        <time>2013-07-03T14:07:08Z</time>
      </trkpt>
      <trkpt lat="39.943100" lon="-4.613717">
        <ele>1666.0</ele>
        <time>2013-07-03T14:07:09Z</time>
      </trkpt>
      <trkpt lat="39.943117" lon="-4.613800">
        <ele>1664.0</ele>
        <time>2013-07-03T14:07:10Z</time>
      </trkpt>
      <trkpt lat="39.943117" lon="-4.613900">
        <ele>1663.0</ele>
        <time>2013-07-03T14:07:11Z</time>
      </trkpt>
      <trkpt lat="39.943117" lon="-4.614000">
        <ele>1662.0</ele>
        <time>2013-07-03T14:07:12Z</time>
      </trkpt>
      <trkpt lat="39.943067" lon="-4.614117">
        <ele>1661.0</ele>
        <time>2013-07-03T14:07:13Z</time>
      </trkpt>
      <trkpt lat="39.943017" lon="-4.614217">
        <ele>1662.0</ele>
        <time>2013-07-03T14:07:14Z</time>
      </trkpt>
      <trkpt lat="39.942933" lon="-4.614283">
        <ele>1662.0</ele>
        <time>2013-07-03T14:07:15Z</time>
      </trkpt>
      <trkpt lat="39.942850" lon="-4.614333">
        <ele>1663.0</ele>
        <time>2013-07-03T14:07:16Z</time>
      </trkpt>
      <trkpt lat="39.942767" lon="-4.614383">
        <ele>1663.0</ele>
        <time>2013-07-03T14:07:17Z</time>
      </trkpt>
      <trkpt lat="39.942683" lon="-4.614417">
        <ele>1664.0</ele>
        <time>2013-07-03T14:07:18Z</time>
      </trkpt>
      <trkpt lat="39.942583" lon="-4.614450">
        <ele>1663.0</ele>
        <time>2013-07-03T14:07:19Z</time>
      </trkpt>
      <trkpt lat="39.942483" lon="-4.614467">
        <ele>1663.0</ele>
        <time>2013-07-03T14:07:20Z</time>
      </trkpt>
      <trkpt lat="39.942367" lon="-4.614467">
        <ele>1662.0</ele>
        <time>2013-07-03T14:07:21Z</time>
      </trkpt>
      <trkpt lat="39.942267" lon="-4.614450">
        <ele>1661.0</ele>
        <time>2013-07-03T14:07:22Z</time>
      </trkpt>
      <trkpt lat="39.942150" lon="-4.614400">
        <ele>1661.0</ele>
        <time>2013-07-03T14:07:23Z</time>
      </trkpt>
      <trkpt lat="39.942050" lon="-4.614350">
        <ele>1662.0</ele>
        <time>2013-07-03T14:07:24Z</time>
      </trkpt>
      <trkpt lat="39.941950" lon="-4.614300">
        <ele>1661.0</ele>
        <time>2013-07-03T14:07:25Z</time>
      </trkpt>
      <trkpt lat="39.941867" lon="-4.614233">
        <ele>1661.0</ele>
        <time>2013-07-03T14:07:26Z</time>
      </trkpt>
      <trkpt lat="39.941767" lon="-4.614150">
        <ele>1660.0</ele>
        <time>2013-07-03T14:07:27Z</time>
      </trkpt>
      <trkpt lat="39.941683" lon="-4.614067">
        <ele>1660.0</ele>
        <time>2013-07-03T14:07:28Z</time>
      </trkpt>
      <trkpt lat="39.941617" lon="-4.613983">
        <ele>1660.0</ele>
        <time>2013-07-03T14:07:29Z</time>
      </trkpt>
      <trkpt lat="39.941533" lon="-4.613900">
        <ele>1659.0</ele>
        <time>2013-07-03T14:07:30Z</time>
      </trkpt>
      <trkpt lat="39.941450" lon="-4.613800">
        <ele>1658.0</ele>
        <time>2013-07-03T14:07:31Z</time>
      </trkpt>
      <trkpt lat="39.941383" lon="-4.613700">
        <ele>1657.0</ele>
        <time>2013-07-03T14:07:32Z</time>
      </trkpt>
      <trkpt lat="39.941300" lon="-4.613583">
        <ele>1656.0</ele>
        <time>2013-07-03T14:07:33Z</time>
      </trkpt>
      <trkpt lat="39.941233" lon="-4.613467">
        <ele>1655.0</ele>
        <time>2013-07-03T14:07:34Z</time>
      </trkpt>
      <trkpt lat="39.941167" lon="-4.613350">
        <ele>1655.0</ele>
        <time>2013-07-03T14:07:35Z</time>
      </trkpt>
      <trkpt lat="39.941100" lon="-4.613217">
        <ele>1654.0</ele>
        <time>2013-07-03T14:07:36Z</time>
      </trkpt>
      <trkpt lat="39.941017" lon="-4.613100">
        <ele>1654.0</ele>
        <time>2013-07-03T14:07:37Z</time>
      </trkpt>
      <trkpt lat="39.940950" lon="-4.612983">
        <ele>1653.0</ele>
        <time>2013-07-03T14:07:38Z</time>
      </trkpt>
      <trkpt lat="39.940883" lon="-4.612867">
        <ele>1652.0</ele>
        <time>2013-07-03T14:07:39Z</time>
      </trkpt>
      <trkpt lat="39.940817" lon="-4.612750">
        <ele>1652.0</ele>
        <time>2013-07-03T14:07:40Z</time>
      </trkpt>
      <trkpt lat="39.940750" lon="-4.612633">
        <ele>1651.0</ele>
        <time>2013-07-03T14:07:41Z</time>
      </trkpt>
      <trkpt lat="39.940700" lon="-4.612500">
        <ele>1650.0</ele>
        <time>2013-07-03T14:07:42Z</time>
      </trkpt>
      <trkpt lat="39.940650" lon="-4.612367">
        <ele>1649.0</ele>
        <time>2013-07-03T14:07:43Z</time>
      </trkpt>
      <trkpt lat="39.940617" lon="-4.612233">
        <ele>1648.0</ele>
        <time>2013-07-03T14:07:44Z</time>
      </trkpt>
      <trkpt lat="39.940583" lon="-4.612100">
        <ele>1647.0</ele>
        <time>2013-07-03T14:07:45Z</time>
      </trkpt>
      <trkpt lat="39.940567" lon="-4.611950">
        <ele>1645.0</ele>
        <time>2013-07-03T14:07:46Z</time>
      </trkpt>
      <trkpt lat="39.940550" lon="-4.611817">
        <ele>1643.0</ele>
        <time>2013-07-03T14:07:47Z</time>
      </trkpt>
      <trkpt lat="39.940533" lon="-4.611667">
        <ele>1641.0</ele>
        <time>2013-07-03T14:07:48Z</time>
      </trkpt>
      <trkpt lat="39.940517" lon="-4.611500">
        <ele>1640.0</ele>
        <time>2013-07-03T14:07:49Z</time>
      </trkpt>
      <trkpt lat="39.940500" lon="-4.611350">
        <ele>1640.0</ele>
        <time>2013-07-03T14:07:50Z</time>
      </trkpt>
      <trkpt lat="39.940483" lon="-4.611200">
        <ele>1639.0</ele>
        <time>2013-07-03T14:07:51Z</time>
      </trkpt>
      <trkpt lat="39.940467" lon="-4.611067">
        <ele>1638.0</ele>
        <time>2013-07-03T14:07:52Z</time>
      </trkpt>
      <trkpt lat="39.940467" lon="-4.610917">
        <ele>1637.0</ele>
        <time>2013-07-03T14:07:53Z</time>
      </trkpt>
      <trkpt lat="39.940450" lon="-4.610767">
        <ele>1636.0</ele>
        <time>2013-07-03T14:07:54Z</time>
      </trkpt>
      <trkpt lat="39.940450" lon="-4.610600">
        <ele>1635.0</ele>
        <time>2013-07-03T14:07:55Z</time>
      </trkpt>
      <trkpt lat="39.940433" lon="-4.610450">
        <ele>1635.0</ele>
        <time>2013-07-03T14:07:56Z</time>
      </trkpt>
      <trkpt lat="39.940417" lon="-4.610317">
        <ele>1636.0</ele>
        <time>2013-07-03T14:07:57Z</time>
      </trkpt>
      <trkpt lat="39.940400" lon="-4.610167">
        <ele>1636.0</ele>
        <time>2013-07-03T14:07:58Z</time>
      </trkpt>
      <trkpt lat="39.940383" lon="-4.610033">
        <ele>1635.0</ele>
        <time>2013-07-03T14:07:59Z</time>
      </trkpt>
      <trkpt lat="39.940367" lon="-4.609900">
        <ele>1634.0</ele>
        <time>2013-07-03T14:08:00Z</time>
      </trkpt>
      <trkpt lat="39.940333" lon="-4.609750">
        <ele>1632.0</ele>
        <time>2013-07-03T14:08:01Z</time>
      </trkpt>
      <trkpt lat="39.940317" lon="-4.609583">
        <ele>1632.0</ele>
        <time>2013-07-03T14:08:02Z</time>
      </trkpt>
      <trkpt lat="39.940283" lon="-4.609433">
        <ele>1631.0</ele>
        <time>2013-07-03T14:08:03Z</time>
      </trkpt>
      <trkpt lat="39.940267" lon="-4.609300">
        <ele>1631.0</ele>
        <time>2013-07-03T14:08:04Z</time>
      </trkpt>
      <trkpt lat="39.940233" lon="-4.609167">
        <ele>1630.0</ele>
        <time>2013-07-03T14:08:05Z</time>
      </trkpt>
      <trkpt lat="39.940217" lon="-4.609033">
        <ele>1629.0</ele>
        <time>2013-07-03T14:08:06Z</time>
      </trkpt>
      <trkpt lat="39.940183" lon="-4.608883">
        <ele>1627.0</ele>
        <time>2013-07-03T14:08:07Z</time>
      </trkpt>
      <trkpt lat="39.940167" lon="-4.608733">
        <ele>1626.0</ele>
        <time>2013-07-03T14:08:08Z</time>
      </trkpt>
      <trkpt lat="39.940133" lon="-4.608600">
        <ele>1625.0</ele>
        <time>2013-07-03T14:08:09Z</time>
      </trkpt>
      <trkpt lat="39.940100" lon="-4.608450">
        <ele>1624.0</ele>
        <time>2013-07-03T14:08:10Z</time>
      </trkpt>
      <trkpt lat="39.940083" lon="-4.608317">
        <ele>1623.0</ele>
        <time>2013-07-03T14:08:11Z</time>
      </trkpt>
      <trkpt lat="39.940050" lon="-4.608183">
        <ele>1621.0</ele>
        <time>2013-07-03T14:08:12Z</time>
      </trkpt>
      <trkpt lat="39.940000" lon="-4.608033">
        <ele>1619.0</ele>
        <time>2013-07-03T14:08:13Z</time>
      </trkpt>
      <trkpt lat="39.939967" lon="-4.607867">
        <ele>1617.0</ele>
        <time>2013-07-03T14:08:14Z</time>
      </trkpt>
      <trkpt lat="39.939917" lon="-4.607717">
        <ele>1614.0</ele>
        <time>2013-07-03T14:08:15Z</time>
      </trkpt>
      <trkpt lat="39.939883" lon="-4.607567">
        <ele>1613.0</ele>
        <time>2013-07-03T14:08:16Z</time>
      </trkpt>
      <trkpt lat="39.939833" lon="-4.607417">
        <ele>1612.0</ele>
        <time>2013-07-03T14:08:17Z</time>
      </trkpt>
      <trkpt lat="39.939783" lon="-4.607267">
        <ele>1610.0</ele>
        <time>2013-07-03T14:08:18Z</time>
      </trkpt>
      <trkpt lat="39.939733" lon="-4.607117">
        <ele>1609.0</ele>
        <time>2013-07-03T14:08:19Z</time>
      </trkpt>
      <trkpt lat="39.939683" lon="-4.606967">
        <ele>1607.0</ele>
        <time>2013-07-03T14:08:20Z</time>
      </trkpt>
      <trkpt lat="39.939650" lon="-4.606817">
        <ele>1606.0</ele>
        <time>2013-07-03T14:08:21Z</time>
      </trkpt>
      <trkpt lat="39.939617" lon="-4.606667">
        <ele>1604.0</ele>
        <time>2013-07-03T14:08:22Z</time>
      </trkpt>
      <trkpt lat="39.939583" lon="-4.606517">
        <ele>1603.0</ele>
        <time>2013-07-03T14:08:23Z</time>
      </trkpt>
      <trkpt lat="39.939550" lon="-4.606383">
        <ele>1602.0</ele>
        <time>2013-07-03T14:08:24Z</time>
      </trkpt>
      <trkpt lat="39.939517" lon="-4.606233">
        <ele>1600.0</ele>
        <time>2013-07-03T14:08:25Z</time>
      </trkpt>
      <trkpt lat="39.939483" lon="-4.606083">
        <ele>1599.0</ele>
        <time>2013-07-03T14:08:26Z</time>
      </trkpt>
      <trkpt lat="39.939450" lon="-4.605917">
        <ele>1597.0</ele>
        <time>2013-07-03T14:08:27Z</time>
      </trkpt>
      <trkpt lat="39.939417" lon="-4.605783">
        <ele>1596.0</ele>
        <time>2013-07-03T14:08:28Z</time>
      </trkpt>
      <trkpt lat="39.939400" lon="-4.605633">
        <ele>1596.0</ele>
        <time>2013-07-03T14:08:29Z</time>
      </trkpt>
      <trkpt lat="39.939367" lon="-4.605500">
        <ele>1595.0</ele>
        <time>2013-07-03T14:08:30Z</time>
      </trkpt>
      <trkpt lat="39.939350" lon="-4.605350">
        <ele>1594.0</ele>
        <time>2013-07-03T14:08:31Z</time>
      </trkpt>
      <trkpt lat="39.939333" lon="-4.605200">
        <ele>1592.0</ele>
        <time>2013-07-03T14:08:32Z</time>
      </trkpt>
      <trkpt lat="39.939300" lon="-4.605033">
        <ele>1590.0</ele>
        <time>2013-07-03T14:08:33Z</time>
      </trkpt>
      <trkpt lat="39.939267" lon="-4.604883">
        <ele>1589.0</ele>
        <time>2013-07-03T14:08:34Z</time>
      </trkpt>
      <trkpt lat="39.939250" lon="-4.604733">
        <ele>1588.0</ele>
        <time>2013-07-03T14:08:35Z</time>
      </trkpt>
      <trkpt lat="39.939233" lon="-4.604583">
        <ele>1587.0</ele>
        <time>2013-07-03T14:08:36Z</time>
      </trkpt>
      <trkpt lat="39.939200" lon="-4.604433">
        <ele>1587.0</ele>
        <time>2013-07-03T14:08:37Z</time>
      </trkpt>
      <trkpt lat="39.939183" lon="-4.604300">
        <ele>1585.0</ele>
        <time>2013-07-03T14:08:38Z</time>
      </trkpt>
      <trkpt lat="39.939150" lon="-4.604150">
        <ele>1583.0</ele>
        <time>2013-07-03T14:08:39Z</time>
      </trkpt>
      <trkpt lat="39.939133" lon="-4.604000">
        <ele>1581.0</ele>
        <time>2013-07-03T14:08:40Z</time>
      </trkpt>
      <trkpt lat="39.939100" lon="-4.603833">
        <ele>1580.0</ele>
        <time>2013-07-03T14:08:41Z</time>
      </trkpt>
      <trkpt lat="39.939067" lon="-4.603700">
        <ele>1579.0</ele>
        <time>2013-07-03T14:08:42Z</time>
      </trkpt>
      <trkpt lat="39.939050" lon="-4.603550">
        <ele>1577.0</ele>
        <time>2013-07-03T14:08:43Z</time>
      </trkpt>
      <trkpt lat="39.939017" lon="-4.603417">
        <ele>1575.0</ele>
        <time>2013-07-03T14:08:44Z</time>
      </trkpt>
      <trkpt lat="39.938983" lon="-4.603283">
        <ele>1572.0</ele>
        <time>2013-07-03T14:08:45Z</time>
      </trkpt>
      <trkpt lat="39.938950" lon="-4.603117">
        <ele>1569.0</ele>
        <time>2013-07-03T14:08:46Z</time>
      </trkpt>
      <trkpt lat="39.938917" lon="-4.602967">
        <ele>1566.0</ele>
        <time>2013-07-03T14:08:47Z</time>
      </trkpt>
      <trkpt lat="39.938883" lon="-4.602800">
        <ele>1563.0</ele>
        <time>2013-07-03T14:08:48Z</time>
      </trkpt>
      <trkpt lat="39.938867" lon="-4.602650">
        <ele>1560.0</ele>
        <time>2013-07-03T14:08:49Z</time>
      </trkpt>
      <trkpt lat="39.938850" lon="-4.602483">
        <ele>1558.0</ele>
        <time>2013-07-03T14:08:50Z</time>
      </trkpt>
      <trkpt lat="39.938833" lon="-4.602333">
        <ele>1555.0</ele>
        <time>2013-07-03T14:08:51Z</time>
      </trkpt>
      <trkpt lat="39.938817" lon="-4.602167">
        <ele>1552.0</ele>
        <time>2013-07-03T14:08:52Z</time>
      </trkpt>
      <trkpt lat="39.938817" lon="-4.602000">
        <ele>1549.0</ele>
        <time>2013-07-03T14:08:53Z</time>
      </trkpt>
      <trkpt lat="39.938800" lon="-4.601833">
        <ele>1546.0</ele>
        <time>2013-07-03T14:08:54Z</time>
      </trkpt>
      <trkpt lat="39.938783" lon="-4.601683">
        <ele>1542.0</ele>
        <time>2013-07-03T14:08:55Z</time>
      </trkpt>
      <trkpt lat="39.938750" lon="-4.601517">
        <ele>1539.0</ele>
        <time>2013-07-03T14:08:56Z</time>
      </trkpt>
      <trkpt lat="39.938700" lon="-4.601350">
        <ele>1536.0</ele>
        <time>2013-07-03T14:08:57Z</time>
      </trkpt>
      <trkpt lat="39.938667" lon="-4.601217">
        <ele>1534.0</ele>
        <time>2013-07-03T14:08:58Z</time>
      </trkpt>
      <trkpt lat="39.938633" lon="-4.601067">
        <ele>1532.0</ele>
        <time>2013-07-03T14:08:59Z</time>
      </trkpt>
      <trkpt lat="39.938617" lon="-4.600933">
        <ele>1530.0</ele>
        <time>2013-07-03T14:09:00Z</time>
      </trkpt>
      <trkpt lat="39.938567" lon="-4.600800">
        <ele>1527.0</ele>
        <time>2013-07-03T14:09:01Z</time>
      </trkpt>
      <trkpt lat="39.938500" lon="-4.600667">
        <ele>1522.0</ele>
        <time>2013-07-03T14:09:02Z</time>
      </trkpt>
      <trkpt lat="39.938433" lon="-4.600533">
        <ele>1518.0</ele>
        <time>2013-07-03T14:09:03Z</time>
      </trkpt>
      <trkpt lat="39.938383" lon="-4.600383">
        <ele>1516.0</ele>
        <time>2013-07-03T14:09:04Z</time>
      </trkpt>
      <trkpt lat="39.938333" lon="-4.600250">
        <ele>1515.0</ele>
        <time>2013-07-03T14:09:05Z</time>
      </trkpt>
      <trkpt lat="39.938300" lon="-4.600133">
        <ele>1513.0</ele>
        <time>2013-07-03T14:09:06Z</time>
      </trkpt>
      <trkpt lat="39.938267" lon="-4.600017">
        <ele>1511.0</ele>
        <time>2013-07-03T14:09:07Z</time>
      </trkpt>
      <trkpt lat="39.938217" lon="-4.599900">
        <ele>1508.0</ele>
        <time>2013-07-03T14:09:08Z</time>
      </trkpt>
      <trkpt lat="39.938167" lon="-4.599783">
        <ele>1504.0</ele>
        <time>2013-07-03T14:09:09Z</time>
      </trkpt>
      <trkpt lat="39.938117" lon="-4.599633">
        <ele>1500.0</ele>
        <time>2013-07-03T14:09:10Z</time>
      </trkpt>
      <trkpt lat="39.938067" lon="-4.599500">
        <ele>1496.0</ele>
        <time>2013-07-03T14:09:11Z</time>
      </trkpt>
      <trkpt lat="39.938000" lon="-4.599367">
        <ele>1492.0</ele>
        <time>2013-07-03T14:09:12Z</time>
      </trkpt>
      <trkpt lat="39.937933" lon="-4.599250">
        <ele>1489.0</ele>
        <time>2013-07-03T14:09:13Z</time>
      </trkpt>
      <trkpt lat="39.937883" lon="-4.599133">
        <ele>1486.0</ele>
        <time>2013-07-03T14:09:14Z</time>
      </trkpt>
      <trkpt lat="39.937817" lon="-4.599017">
        <ele>1483.0</ele>
        <time>2013-07-03T14:09:15Z</time>
      </trkpt>
      <trkpt lat="39.937767" lon="-4.598883">
        <ele>1479.0</ele>
        <time>2013-07-03T14:09:16Z</time>
      </trkpt>
      <trkpt lat="39.937700" lon="-4.598767">
        <ele>1475.0</ele>
        <time>2013-07-03T14:09:17Z</time>
      </trkpt>
      <trkpt lat="39.937633" lon="-4.598650">
        <ele>1472.0</ele>
        <time>2013-07-03T14:09:18Z</time>
      </trkpt>
      <trkpt lat="39.937583" lon="-4.598533">
        <ele>1468.0</ele>
        <time>2013-07-03T14:09:19Z</time>
      </trkpt>
      <trkpt lat="39.937533" lon="-4.598400">
        <ele>1464.0</ele>
        <time>2013-07-03T14:09:20Z</time>
      </trkpt>
      <trkpt lat="39.937483" lon="-4.598283">
        <ele>1461.0</ele>
        <time>2013-07-03T14:09:21Z</time>
      </trkpt>
      <trkpt lat="39.937433" lon="-4.598167">
        <ele>1457.0</ele>
        <time>2013-07-03T14:09:22Z</time>
      </trkpt>
      <trkpt lat="39.937367" lon="-4.598050">
        <ele>1454.0</ele>
        <time>2013-07-03T14:09:23Z</time>
      </trkpt>
      <trkpt lat="39.937300" lon="-4.597933">
        <ele>1450.0</ele>
        <time>2013-07-03T14:09:24Z</time>
      </trkpt>
      <trkpt lat="39.937250" lon="-4.597817">
        <ele>1447.0</ele>
        <time>2013-07-03T14:09:25Z</time>
      </trkpt>
      <trkpt lat="39.937200" lon="-4.597683">
        <ele>1443.0</ele>
        <time>2013-07-03T14:09:26Z</time>
      </trkpt>
      <trkpt lat="39.937150" lon="-4.597567">
        <ele>1440.0</ele>
        <time>2013-07-03T14:09:27Z</time>
      </trkpt>
      <trkpt lat="39.937100" lon="-4.597450">
        <ele>1436.0</ele>
        <time>2013-07-03T14:09:28Z</time>
      </trkpt>
      <trkpt lat="39.937050" lon="-4.597333">
        <ele>1433.0</ele>
        <time>2013-07-03T14:09:29Z</time>
      </trkpt>
      <trkpt lat="39.937000" lon="-4.597217">
        <ele>1429.0</ele>
        <time>2013-07-03T14:09:30Z</time>
      </trkpt>
      <trkpt lat="39.936950" lon="-4.597100">
        <ele>1425.0</ele>
        <time>2013-07-03T14:09:31Z</time>
      </trkpt>
      <trkpt lat="39.936900" lon="-4.596967">
        <ele>1420.0</ele>
        <time>2013-07-03T14:09:32Z</time>
      </trkpt>
      <trkpt lat="39.936850" lon="-4.596833">
        <ele>1416.0</ele>
        <time>2013-07-03T14:09:33Z</time>
      </trkpt>
      <trkpt lat="39.936783" lon="-4.596700">
        <ele>1412.0</ele>
        <time>2013-07-03T14:09:34Z</time>
      </trkpt>
      <trkpt lat="39.936733" lon="-4.596583">
        <ele>1409.0</ele>
        <time>2013-07-03T14:09:35Z</time>
      </trkpt>
      <trkpt lat="39.936683" lon="-4.596450">
        <ele>1405.0</ele>
        <time>2013-07-03T14:09:36Z</time>
      </trkpt>
      <trkpt lat="39.936633" lon="-4.596317">
        <ele>1400.0</ele>
        <time>2013-07-03T14:09:37Z</time>
      </trkpt>
      <trkpt lat="39.936583" lon="-4.596183">
        <ele>1396.0</ele>
        <time>2013-07-03T14:09:38Z</time>
      </trkpt>
      <trkpt lat="39.936517" lon="-4.596033">
        <ele>1391.0</ele>
        <time>2013-07-03T14:09:39Z</time>
      </trkpt>
      <trkpt lat="39.936450" lon="-4.595917">
        <ele>1387.0</ele>
        <time>2013-07-03T14:09:40Z</time>
      </trkpt>
      <trkpt lat="39.936400" lon="-4.595783">
        <ele>1384.0</ele>
        <time>2013-07-03T14:09:41Z</time>
      </trkpt>
      <trkpt lat="39.936333" lon="-4.595650">
        <ele>1380.0</ele>
        <time>2013-07-03T14:09:42Z</time>
      </trkpt>
      <trkpt lat="39.936283" lon="-4.595517">
        <ele>1377.0</ele>
        <time>2013-07-03T14:09:43Z</time>
      </trkpt>
      <trkpt lat="39.936250" lon="-4.595383">
        <ele>1373.0</ele>
        <time>2013-07-03T14:09:44Z</time>
      </trkpt>
      <trkpt lat="39.936200" lon="-4.595250">
        <ele>1368.0</ele>
        <time>2013-07-03T14:09:45Z</time>
      </trkpt>
      <trkpt lat="39.936133" lon="-4.595100">
        <ele>1364.0</ele>
        <time>2013-07-03T14:09:46Z</time>
      </trkpt>
      <trkpt lat="39.936083" lon="-4.594950">
        <ele>1359.0</ele>
        <time>2013-07-03T14:09:47Z</time>
      </trkpt>
      <trkpt lat="39.936017" lon="-4.594800">
        <ele>1354.0</ele>
        <time>2013-07-03T14:09:48Z</time>
      </trkpt>
      <trkpt lat="39.935967" lon="-4.594633">
        <ele>1350.0</ele>
        <time>2013-07-03T14:09:49Z</time>
      </trkpt>
      <trkpt lat="39.935900" lon="-4.594483">
        <ele>1346.0</ele>
        <time>2013-07-03T14:09:50Z</time>
      </trkpt>
      <trkpt lat="39.935850" lon="-4.594350">
        <ele>1342.0</ele>
        <time>2013-07-03T14:09:51Z</time>
      </trkpt>
      <trkpt lat="39.935800" lon="-4.594200">
        <ele>1338.0</ele>
        <time>2013-07-03T14:09:52Z</time>
      </trkpt>
      <trkpt lat="39.935750" lon="-4.594033">
        <ele>1333.0</ele>
        <time>2013-07-03T14:09:53Z</time>
      </trkpt>
      <trkpt lat="39.935700" lon="-4.593883">
        <ele>1329.0</ele>
        <time>2013-07-03T14:09:54Z</time>
      </trkpt>
      <trkpt lat="39.935650" lon="-4.593717">
        <ele>1326.0</ele>
        <time>2013-07-03T14:09:55Z</time>
      </trkpt>
      <trkpt lat="39.935583" lon="-4.593567">
        <ele>1322.0</ele>
        <time>2013-07-03T14:09:56Z</time>
      </trkpt>
      <trkpt lat="39.935533" lon="-4.593417">
        <ele>1319.0</ele>
        <time>2013-07-03T14:09:57Z</time>
      </trkpt>
      <trkpt lat="39.935483" lon="-4.593267">
        <ele>1316.0</ele>
        <time>2013-07-03T14:09:58Z</time>
      </trkpt>
      <trkpt lat="39.935450" lon="-4.593100">
        <ele>1312.0</ele>
        <time>2013-07-03T14:09:59Z</time>
      </trkpt>
      <trkpt lat="39.935400" lon="-4.592950">
        <ele>1308.0</ele>
        <time>2013-07-03T14:10:00Z</time>
      </trkpt>
      <trkpt lat="39.935350" lon="-4.592783">
        <ele>1304.0</ele>
        <time>2013-07-03T14:10:01Z</time>
      </trkpt>
      <trkpt lat="39.935283" lon="-4.592633">
        <ele>1300.0</ele>
        <time>2013-07-03T14:10:02Z</time>
      </trkpt>
      <trkpt lat="39.935233" lon="-4.592483">
        <ele>1298.0</ele>
        <time>2013-07-03T14:10:03Z</time>
      </trkpt>
      <trkpt lat="39.935200" lon="-4.592350">
        <ele>1295.0</ele>
        <time>2013-07-03T14:10:04Z</time>
      </trkpt>
      <trkpt lat="39.935150" lon="-4.592217">
        <ele>1292.0</ele>
        <time>2013-07-03T14:10:05Z</time>
      </trkpt>
      <trkpt lat="39.935100" lon="-4.592083">
        <ele>1289.0</ele>
        <time>2013-07-03T14:10:06Z</time>
      </trkpt>
      <trkpt lat="39.935067" lon="-4.591950">
        <ele>1284.0</ele>
        <time>2013-07-03T14:10:07Z</time>
      </trkpt>
      <trkpt lat="39.935017" lon="-4.591800">
        <ele>1280.0</ele>
        <time>2013-07-03T14:10:08Z</time>
      </trkpt>
      <trkpt lat="39.934967" lon="-4.591650">
        <ele>1276.0</ele>
        <time>2013-07-03T14:10:09Z</time>
      </trkpt>
      <trkpt lat="39.934933" lon="-4.591500">
        <ele>1272.0</ele>
        <time>2013-07-03T14:10:10Z</time>
      </trkpt>
      <trkpt lat="39.934900" lon="-4.591350">
        <ele>1268.0</ele>
        <time>2013-07-03T14:10:11Z</time>
      </trkpt>
      <trkpt lat="39.934850" lon="-4.591200">
        <ele>1265.0</ele>
        <time>2013-07-03T14:10:12Z</time>
      </trkpt>
      <trkpt lat="39.934817" lon="-4.591067">
        <ele>1261.0</ele>
        <time>2013-07-03T14:10:13Z</time>
      </trkpt>
      <trkpt lat="39.934767" lon="-4.590933">
        <ele>1257.0</ele>
        <time>2013-07-03T14:10:14Z</time>
      </trkpt>
      <trkpt lat="39.934700" lon="-4.590800">
        <ele>1252.0</ele>
        <time>2013-07-03T14:10:15Z</time>
      </trkpt>
      <trkpt lat="39.934650" lon="-4.590633">
        <ele>1247.0</ele>
        <time>2013-07-03T14:10:16Z</time>
      </trkpt>
      <trkpt lat="39.934600" lon="-4.590483">
        <ele>1243.0</ele>
        <time>2013-07-03T14:10:17Z</time>
      </trkpt>
      <trkpt lat="39.934550" lon="-4.590350">
        <ele>1240.0</ele>
        <time>2013-07-03T14:10:18Z</time>
      </trkpt>
      <trkpt lat="39.934483" lon="-4.590233">
        <ele>1238.0</ele>
        <time>2013-07-03T14:10:19Z</time>
      </trkpt>
      <trkpt lat="39.934417" lon="-4.590117">
        <ele>1235.0</ele>
        <time>2013-07-03T14:10:20Z</time>
      </trkpt>
      <trkpt lat="39.934367" lon="-4.590017">
        <ele>1232.0</ele>
        <time>2013-07-03T14:10:21Z</time>
      </trkpt>
      <trkpt lat="39.934300" lon="-4.589883">
        <ele>1228.0</ele>
        <time>2013-07-03T14:10:22Z</time>
      </trkpt>
      <trkpt lat="39.934250" lon="-4.589733">
        <ele>1224.0</ele>
        <time>2013-07-03T14:10:23Z</time>
      </trkpt>
      <trkpt lat="39.934183" lon="-4.589583">
        <ele>1220.0</ele>
        <time>2013-07-03T14:10:24Z</time>
      </trkpt>
      <trkpt lat="39.934133" lon="-4.589433">
        <ele>1218.0</ele>
        <time>2013-07-03T14:10:25Z</time>
      </trkpt>
      <trkpt lat="39.934083" lon="-4.589317">
        <ele>1215.0</ele>
        <time>2013-07-03T14:10:26Z</time>
      </trkpt>
      <trkpt lat="39.934033" lon="-4.589183">
        <ele>1213.0</ele>
        <time>2013-07-03T14:10:27Z</time>
      </trkpt>
      <trkpt lat="39.933983" lon="-4.589067">
        <ele>1209.0</ele>
        <time>2013-07-03T14:10:28Z</time>
      </trkpt>
      <trkpt lat="39.933933" lon="-4.588933">
        <ele>1204.0</ele>
        <time>2013-07-03T14:10:29Z</time>
      </trkpt>
      <trkpt lat="39.933883" lon="-4.588783">
        <ele>1200.0</ele>
        <time>2013-07-03T14:10:30Z</time>
      </trkpt>
      <trkpt lat="39.933833" lon="-4.588633">
        <ele>1196.0</ele>
        <time>2013-07-03T14:10:31Z</time>
      </trkpt>
      <trkpt lat="39.933783" lon="-4.588483">
        <ele>1193.0</ele>
        <time>2013-07-03T14:10:32Z</time>
      </trkpt>
      <trkpt lat="39.933717" lon="-4.588333">
        <ele>1190.0</ele>
        <time>2013-07-03T14:10:33Z</time>
      </trkpt>
      <trkpt lat="39.933667" lon="-4.588200">
        <ele>1187.0</ele>
        <time>2013-07-03T14:10:34Z</time>
      </trkpt>
      <trkpt lat="39.933633" lon="-4.588050">
        <ele>1184.0</ele>
        <time>2013-07-03T14:10:35Z</time>
      </trkpt>
      <trkpt lat="39.933583" lon="-4.587917">
        <ele>1181.0</ele>
        <time>2013-07-03T14:10:36Z</time>
      </trkpt>
      <trkpt lat="39.933533" lon="-4.587767">
        <ele>1176.0</ele>
        <time>2013-07-03T14:10:37Z</time>
      </trkpt>
      <trkpt lat="39.933467" lon="-4.587617">
        <ele>1171.0</ele>
        <time>2013-07-03T14:10:38Z</time>
      </trkpt>
      <trkpt lat="39.933400" lon="-4.587450">
        <ele>1167.0</ele>
        <time>2013-07-03T14:10:39Z</time>
      </trkpt>
      <trkpt lat="39.933367" lon="-4.587267">
        <ele>1164.0</ele>
        <time>2013-07-03T14:10:40Z</time>
      </trkpt>
      <trkpt lat="39.933333" lon="-4.587100">
        <ele>1161.0</ele>
        <time>2013-07-03T14:10:41Z</time>
      </trkpt>
      <trkpt lat="39.933283" lon="-4.586950">
        <ele>1159.0</ele>
        <time>2013-07-03T14:10:42Z</time>
      </trkpt>
      <trkpt lat="39.933250" lon="-4.586800">
        <ele>1156.0</ele>
        <time>2013-07-03T14:10:43Z</time>
      </trkpt>
      <trkpt lat="39.933200" lon="-4.586650">
        <ele>1152.0</ele>
        <time>2013-07-03T14:10:44Z</time>
      </trkpt>
      <trkpt lat="39.933150" lon="-4.586500">
        <ele>1148.0</ele>
        <time>2013-07-03T14:10:45Z</time>
      </trkpt>
      <trkpt lat="39.933100" lon="-4.586333">
        <ele>1143.0</ele>
        <time>2013-07-03T14:10:46Z</time>
      </trkpt>
      <trkpt lat="39.933033" lon="-4.586167">
        <ele>1138.0</ele>
        <time>2013-07-03T14:10:47Z</time>
      </trkpt>
      <trkpt lat="39.932983" lon="-4.586000">
        <ele>1135.0</ele>
        <time>2013-07-03T14:10:48Z</time>
      </trkpt>
      <trkpt lat="39.932933" lon="-4.585867">
        <ele>1133.0</ele>
        <time>2013-07-03T14:10:49Z</time>
      </trkpt>
      <trkpt lat="39.932900" lon="-4.585767">
        <ele>1133.0</ele>
        <time>2013-07-03T14:10:50Z</time>
      </trkpt>
      <trkpt lat="39.932883" lon="-4.585667">
        <ele>1131.0</ele>
        <time>2013-07-03T14:10:51Z</time>
      </trkpt>
      <trkpt lat="39.932850" lon="-4.585583">
        <ele>1128.0</ele>
        <time>2013-07-03T14:10:52Z</time>
      </trkpt>
      <trkpt lat="39.932800" lon="-4.585483">
        <ele>1123.0</ele>
        <time>2013-07-03T14:10:53Z</time>
      </trkpt>
      <trkpt lat="39.932750" lon="-4.585350">
        <ele>1119.0</ele>
        <time>2013-07-03T14:10:54Z</time>
      </trkpt>
      <trkpt lat="39.932717" lon="-4.585200">
        <ele>1116.0</ele>
        <time>2013-07-03T14:10:55Z</time>
      </trkpt>
      <trkpt lat="39.932700" lon="-4.585067">
        <ele>1115.0</ele>
        <time>2013-07-03T14:10:56Z</time>
      </trkpt>
      <trkpt lat="39.932683" lon="-4.584950">
        <ele>1115.0</ele>
        <time>2013-07-03T14:10:57Z</time>
      </trkpt>
      <trkpt lat="39.932667" lon="-4.584833">
        <ele>1115.0</ele>
        <time>2013-07-03T14:10:58Z</time>
      </trkpt>
      <trkpt lat="39.932650" lon="-4.584733">
        <ele>1114.0</ele>
        <time>2013-07-03T14:10:59Z</time>
      </trkpt>
      <trkpt lat="39.932617" lon="-4.584617">
        <ele>1113.0</ele>
        <time>2013-07-03T14:11:00Z</time>
      </trkpt>
      <trkpt lat="39.932583" lon="-4.584500">
        <ele>1112.0</ele>
        <time>2013-07-03T14:11:01Z</time>
      </trkpt>
      <trkpt lat="39.932550" lon="-4.584383">
        <ele>1111.0</ele>
        <time>2013-07-03T14:11:02Z</time>
      </trkpt>
      <trkpt lat="39.932500" lon="-4.584267">
        <ele>1110.0</ele>
        <time>2013-07-03T14:11:03Z</time>
      </trkpt>
      <trkpt lat="39.932450" lon="-4.584150">
        <ele>1110.0</ele>
        <time>2013-07-03T14:11:04Z</time>
      </trkpt>
      <trkpt lat="39.932400" lon="-4.584033">
        <ele>1109.0</ele>
        <time>2013-07-03T14:11:05Z</time>
      </trkpt>
      <trkpt lat="39.932350" lon="-4.583917">
        <ele>1110.0</ele>
        <time>2013-07-03T14:11:06Z</time>
      </trkpt>
      <trkpt lat="39.932317" lon="-4.583783">
        <ele>1111.0</ele>
        <time>2013-07-03T14:11:07Z</time>
      </trkpt>
      <trkpt lat="39.932283" lon="-4.583650">
        <ele>1111.0</ele>
        <time>2013-07-03T14:11:08Z</time>
      </trkpt>
      <trkpt lat="39.932250" lon="-4.583517">
        <ele>1112.0</ele>
        <time>2013-07-03T14:11:09Z</time>
      </trkpt>
      <trkpt lat="39.932217" lon="-4.583367">
        <ele>1112.0</ele>
        <time>2013-07-03T14:11:10Z</time>
      </trkpt>
      <trkpt lat="39.932167" lon="-4.583217">
        <ele>1113.0</ele>
        <time>2013-07-03T14:11:11Z</time>
      </trkpt>
      <trkpt lat="39.932117" lon="-4.583067">
        <ele>1115.0</ele>
        <time>2013-07-03T14:11:12Z</time>
      </trkpt>
      <trkpt lat="39.932050" lon="-4.582933">
        <ele>1117.0</ele>
        <time>2013-07-03T14:11:13Z</time>
      </trkpt>
      <trkpt lat="39.932000" lon="-4.582800">
        <ele>1120.0</ele>
        <time>2013-07-03T14:11:14Z</time>
      </trkpt>
      <trkpt lat="39.931933" lon="-4.582683">
        <ele>1123.0</ele>
        <time>2013-07-03T14:11:15Z</time>
      </trkpt>
      <trkpt lat="39.931867" lon="-4.582567">
        <ele>1125.0</ele>
        <time>2013-07-03T14:11:16Z</time>
      </trkpt>
      <trkpt lat="39.931800" lon="-4.582450">
        <ele>1127.0</ele>
        <time>2013-07-03T14:11:17Z</time>
      </trkpt>
      <trkpt lat="39.931750" lon="-4.582317">
        <ele>1128.0</ele>
        <time>2013-07-03T14:11:18Z</time>
      </trkpt>
      <trkpt lat="39.931700" lon="-4.582150">
        <ele>1131.0</ele>
        <time>2013-07-03T14:11:19Z</time>
      </trkpt>
      <trkpt lat="39.931633" lon="-4.582000">
        <ele>1135.0</ele>
        <time>2013-07-03T14:11:20Z</time>
      </trkpt>
      <trkpt lat="39.931567" lon="-4.581883">
        <ele>1138.0</ele>
        <time>2013-07-03T14:11:21Z</time>
      </trkpt>
      <trkpt lat="39.931517" lon="-4.581767">
        <ele>1142.0</ele>
        <time>2013-07-03T14:11:22Z</time>
      </trkpt>
      <trkpt lat="39.931500" lon="-4.581650">
        <ele>1144.0</ele>
        <time>2013-07-03T14:11:23Z</time>
      </trkpt>
      <trkpt lat="39.931500" lon="-4.581550">
        <ele>1145.0</ele>
        <time>2013-07-03T14:11:24Z</time>
      </trkpt>
      <trkpt lat="39.931517" lon="-4.581433">
        <ele>1145.0</ele>
        <time>2013-07-03T14:11:25Z</time>
      </trkpt>
      <trkpt lat="39.931517" lon="-4.581333">
        <ele>1145.0</ele>
        <time>2013-07-03T14:11:26Z</time>
      </trkpt>
      <trkpt lat="39.931533" lon="-4.581233">
        <ele>1145.0</ele>
        <time>2013-07-03T14:11:27Z</time>
      </trkpt>
      <trkpt lat="39.931567" lon="-4.581150">
        <ele>1144.0</ele>
        <time>2013-07-03T14:11:28Z</time>
      </trkpt>
      <trkpt lat="39.931650" lon="-4.581117">
        <ele>1141.0</ele>
        <time>2013-07-03T14:11:29Z</time>
      </trkpt>
      <trkpt lat="39.931717" lon="-4.581133">
        <ele>1138.0</ele>
        <time>2013-07-03T14:11:30Z</time>
      </trkpt>
      <trkpt lat="39.931767" lon="-4.581183">
        <ele>1136.0</ele>
        <time>2013-07-03T14:11:31Z</time>
      </trkpt>
      <trkpt lat="39.931800" lon="-4.581267">
        <ele>1136.0</ele>
        <time>2013-07-03T14:11:32Z</time>
      </trkpt>
      <trkpt lat="39.931817" lon="-4.581333">
        <ele>1135.0</ele>
        <time>2013-07-03T14:11:33Z</time>
      </trkpt>
      <trkpt lat="39.931833" lon="-4.581417">
        <ele>1135.0</ele>
        <time>2013-07-03T14:11:34Z</time>
      </trkpt>
      <trkpt lat="39.931883" lon="-4.581483">
        <ele>1134.0</ele>
        <time>2013-07-03T14:11:35Z</time>
      </trkpt>
      <trkpt lat="39.931967" lon="-4.581550">
        <ele>1134.0</ele>
        <time>2013-07-03T14:11:36Z</time>
      </trkpt>
      <trkpt lat="39.932033" lon="-4.581617">
        <ele>1136.0</ele>
        <time>2013-07-03T14:11:37Z</time>
      </trkpt>
      <trkpt lat="39.932100" lon="-4.581683">
        <ele>1140.0</ele>
        <time>2013-07-03T14:11:38Z</time>
      </trkpt>
      <trkpt lat="39.932150" lon="-4.581750">
        <ele>1143.0</ele>
        <time>2013-07-03T14:11:39Z</time>
      </trkpt>
      <trkpt lat="39.932183" lon="-4.581817">
        <ele>1146.0</ele>
        <time>2013-07-03T14:11:40Z</time>
      </trkpt>
      <trkpt lat="39.932200" lon="-4.581850">
        <ele>1150.0</ele>
        <time>2013-07-03T14:11:41Z</time>
      </trkpt>
      <trkpt lat="39.932200" lon="-4.581917">
        <ele>1154.0</ele>
        <time>2013-07-03T14:11:42Z</time>
      </trkpt>
      <trkpt lat="39.932200" lon="-4.581967">
        <ele>1158.0</ele>
        <time>2013-07-03T14:11:43Z</time>
      </trkpt>
      <trkpt lat="39.932167" lon="-4.582033">
        <ele>1161.0</ele>
        <time>2013-07-03T14:11:44Z</time>
      </trkpt>
      <trkpt lat="39.932133" lon="-4.582083">
        <ele>1164.0</ele>
        <time>2013-07-03T14:11:45Z</time>
      </trkpt>
      <trkpt lat="39.932067" lon="-4.582133">
        <ele>1165.0</ele>
        <time>2013-07-03T14:11:46Z</time>
      </trkpt>
      <trkpt lat="39.931983" lon="-4.582150">
        <ele>1167.0</ele>
        <time>2013-07-03T14:11:47Z</time>
      </trkpt>
      <trkpt lat="39.931883" lon="-4.582133">
        <ele>1167.0</ele>
        <time>2013-07-03T14:11:48Z</time>
      </trkpt>
      <trkpt lat="39.931800" lon="-4.582050">
        <ele>1168.0</ele>
        <time>2013-07-03T14:11:49Z</time>
      </trkpt>
      <trkpt lat="39.931733" lon="-4.581933">
        <ele>1169.0</ele>
        <time>2013-07-03T14:11:50Z</time>
      </trkpt>
      <trkpt lat="39.931700" lon="-4.581800">
        <ele>1170.0</ele>
        <time>2013-07-03T14:11:51Z</time>
      </trkpt>
      <trkpt lat="39.931667" lon="-4.581667">
        <ele>1173.0</ele>
        <time>2013-07-03T14:11:52Z</time>
      </trkpt>
      <trkpt lat="39.931650" lon="-4.581550">
        <ele>1176.0</ele>
        <time>2013-07-03T14:11:53Z</time>
      </trkpt>
      <trkpt lat="39.931650" lon="-4.581433">
        <ele>1179.0</ele>
        <time>2013-07-03T14:11:54Z</time>
      </trkpt>
      <trkpt lat="39.931667" lon="-4.581350">
        <ele>1181.0</ele>
        <time>2013-07-03T14:11:55Z</time>
      </trkpt>
      <trkpt lat="39.931717" lon="-4.581283">
        <ele>1181.0</ele>
        <time>2013-07-03T14:11:56Z</time>
      </trkpt>
      <trkpt lat="39.931783" lon="-4.581217">
        <ele>1182.0</ele>
        <time>2013-07-03T14:11:57Z</time>
      </trkpt>
      <trkpt lat="39.931867" lon="-4.581183">
        <ele>1183.0</ele>
        <time>2013-07-03T14:11:58Z</time>
      </trkpt>
      <trkpt lat="39.931933" lon="-4.581200">
        <ele>1184.0</ele>
        <time>2013-07-03T14:11:59Z</time>
      </trkpt>
      <trkpt lat="39.931983" lon="-4.581267">
        <ele>1184.0</ele>
        <time>2013-07-03T14:12:00Z</time>
      </trkpt>
      <trkpt lat="39.931983" lon="-4.581383">
        <ele>1183.0</ele>
        <time>2013-07-03T14:12:01Z</time>
      </trkpt>
      <trkpt lat="39.931967" lon="-4.581500">
        <ele>1184.0</ele>
        <time>2013-07-03T14:12:02Z</time>
      </trkpt>
      <trkpt lat="39.931900" lon="-4.581617">
        <ele>1186.0</ele>
        <time>2013-07-03T14:12:03Z</time>
      </trkpt>
      <trkpt lat="39.931833" lon="-4.581650">
        <ele>1189.0</ele>
        <time>2013-07-03T14:12:04Z</time>
      </trkpt>
      <trkpt lat="39.931750" lon="-4.581633">
        <ele>1191.0</ele>
        <time>2013-07-03T14:12:05Z</time>
      </trkpt>
      <trkpt lat="39.931667" lon="-4.581583">
        <ele>1191.0</ele>
        <time>2013-07-03T14:12:06Z</time>
      </trkpt>
      <trkpt lat="39.931583" lon="-4.581483">
        <ele>1192.0</ele>
        <time>2013-07-03T14:12:07Z</time>
      </trkpt>
      <trkpt lat="39.931500" lon="-4.581400">
        <ele>1194.0</ele>
        <time>2013-07-03T14:12:08Z</time>
      </trkpt>
      <trkpt lat="39.931417" lon="-4.581300">
        <ele>1197.0</ele>
        <time>2013-07-03T14:12:09Z</time>
      </trkpt>
      <trkpt lat="39.931383" lon="-4.581217">
        <ele>1200.0</ele>
        <time>2013-07-03T14:12:10Z</time>
      </trkpt>
      <trkpt lat="39.931350" lon="-4.581117">
        <ele>1202.0</ele>
        <time>2013-07-03T14:12:11Z</time>
      </trkpt>
      <trkpt lat="39.931350" lon="-4.581000">
        <ele>1204.0</ele>
        <time>2013-07-03T14:12:12Z</time>
      </trkpt>
      <trkpt lat="39.931367" lon="-4.580900">
        <ele>1205.0</ele>
        <time>2013-07-03T14:12:13Z</time>
      </trkpt>
      <trkpt lat="39.931383" lon="-4.580800">
        <ele>1206.0</ele>
        <time>2013-07-03T14:12:14Z</time>
      </trkpt>
      <trkpt lat="39.931433" lon="-4.580717">
        <ele>1207.0</ele>
        <time>2013-07-03T14:12:15Z</time>
      </trkpt>
      <trkpt lat="39.931483" lon="-4.580667">
        <ele>1208.0</ele>
        <time>2013-07-03T14:12:16Z</time>
      </trkpt>
      <trkpt lat="39.931550" lon="-4.580667">
        <ele>1207.0</ele>
        <time>2013-07-03T14:12:17Z</time>
      </trkpt>
      <trkpt lat="39.931617" lon="-4.580683">
        <ele>1206.0</ele>
        <time>2013-07-03T14:12:18Z</time>
      </trkpt>
      <trkpt lat="39.931667" lon="-4.580750">
        <ele>1206.0</ele>
        <time>2013-07-03T14:12:19Z</time>
      </trkpt>
      <trkpt lat="39.931700" lon="-4.580850">
        <ele>1207.0</ele>
        <time>2013-07-03T14:12:20Z</time>
      </trkpt>
      <trkpt lat="39.931700" lon="-4.580933">
        <ele>1207.0</ele>
        <time>2013-07-03T14:12:21Z</time>
      </trkpt>
      <trkpt lat="39.931683" lon="-4.581033">
        <ele>1208.0</ele>
        <time>2013-07-03T14:12:22Z</time>
      </trkpt>
      <trkpt lat="39.931633" lon="-4.581117">
        <ele>1208.0</ele>
        <time>2013-07-03T14:12:23Z</time>
      </trkpt>
      <trkpt lat="39.931567" lon="-4.581217">
        <ele>1209.0</ele>
        <time>2013-07-03T14:12:24Z</time>
      </trkpt>
      <trkpt lat="39.931500" lon="-4.581283">
        <ele>1211.0</ele>
        <time>2013-07-03T14:12:25Z</time>
      </trkpt>
      <trkpt lat="39.931417" lon="-4.581317">
        <ele>1213.0</ele>
        <time>2013-07-03T14:12:26Z</time>
      </trkpt>
      <trkpt lat="39.931333" lon="-4.581333">
        <ele>1213.0</ele>
        <time>2013-07-03T14:12:27Z</time>
      </trkpt>
      <trkpt lat="39.931250" lon="-4.581333">
        <ele>1212.0</ele>
        <time>2013-07-03T14:12:28Z</time>
      </trkpt>
      <trkpt lat="39.931150" lon="-4.581317">
        <ele>1211.0</ele>
        <time>2013-07-03T14:12:29Z</time>
      </trkpt>
      <trkpt lat="39.931050" lon="-4.581283">
        <ele>1210.0</ele>
        <time>2013-07-03T14:12:30Z</time>
      </trkpt>
      <trkpt lat="39.930950" lon="-4.581233">
        <ele>1210.0</ele>
        <time>2013-07-03T14:12:31Z</time>
      </trkpt>
      <trkpt lat="39.930867" lon="-4.581150">
        <ele>1210.0</ele>
        <time>2013-07-03T14:12:32Z</time>
      </trkpt>
      <trkpt lat="39.930800" lon="-4.581050">
        <ele>1211.0</ele>
        <time>2013-07-03T14:12:33Z</time>
      </trkpt>
      <trkpt lat="39.930750" lon="-4.580950">
        <ele>1213.0</ele>
        <time>2013-07-03T14:12:34Z</time>
      </trkpt>
      <trkpt lat="39.930717" lon="-4.580867">
        <ele>1215.0</ele>
        <time>2013-07-03T14:12:35Z</time>
      </trkpt>
      <trkpt lat="39.930683" lon="-4.580783">
        <ele>1216.0</ele>
        <time>2013-07-03T14:12:36Z</time>
      </trkpt>
      <trkpt lat="39.930683" lon="-4.580700">
        <ele>1216.0</ele>
        <time>2013-07-03T14:12:37Z</time>
      </trkpt>
      <trkpt lat="39.930683" lon="-4.580600">
        <ele>1217.0</ele>
        <time>2013-07-03T14:12:38Z</time>
      </trkpt>
      <trkpt lat="39.930717" lon="-4.580517">
        <ele>1216.0</ele>
        <time>2013-07-03T14:12:39Z</time>
      </trkpt>
      <trkpt lat="39.930750" lon="-4.580417">
        <ele>1216.0</ele>
        <time>2013-07-03T14:12:40Z</time>
      </trkpt>
      <trkpt lat="39.930800" lon="-4.580350">
        <ele>1217.0</ele>
        <time>2013-07-03T14:12:41Z</time>
      </trkpt>
      <trkpt lat="39.930850" lon="-4.580283">
        <ele>1218.0</ele>
        <time>2013-07-03T14:12:42Z</time>
      </trkpt>
      <trkpt lat="39.930917" lon="-4.580217">
        <ele>1219.0</ele>
        <time>2013-07-03T14:12:43Z</time>
      </trkpt>
      <trkpt lat="39.930967" lon="-4.580183">
        <ele>1220.0</ele>
        <time>2013-07-03T14:12:44Z</time>
      </trkpt>
      <trkpt lat="39.931017" lon="-4.580150">
        <ele>1221.0</ele>
        <time>2013-07-03T14:12:45Z</time>
      </trkpt>
      <trkpt lat="39.931083" lon="-4.580150">
        <ele>1221.0</ele>
        <time>2013-07-03T14:12:46Z</time>
      </trkpt>
      <trkpt lat="39.931133" lon="-4.580150">
        <ele>1222.0</ele>
        <time>2013-07-03T14:12:47Z</time>
      </trkpt>
      <trkpt lat="39.931183" lon="-4.580150">
        <ele>1223.0</ele>
        <time>2013-07-03T14:12:48Z</time>
      </trkpt>
      <trkpt lat="39.931250" lon="-4.580150">
        <ele>1223.0</ele>
        <time>2013-07-03T14:12:49Z</time>
      </trkpt>
      <trkpt lat="39.931300" lon="-4.580167">
        <ele>1224.0</ele>
        <time>2013-07-03T14:12:50Z</time>
      </trkpt>
      <trkpt lat="39.931350" lon="-4.580200">
        <ele>1224.0</ele>
        <time>2013-07-03T14:12:51Z</time>
      </trkpt>
      <trkpt lat="39.931383" lon="-4.580233">
        <ele>1225.0</ele>
        <time>2013-07-03T14:12:52Z</time>
      </trkpt>
      <trkpt lat="39.931417" lon="-4.580300">
        <ele>1225.0</ele>
        <time>2013-07-03T14:12:53Z</time>
      </trkpt>
      <trkpt lat="39.931450" lon="-4.580367">
        <ele>1226.0</ele>
        <time>2013-07-03T14:12:54Z</time>
      </trkpt>
      <trkpt lat="39.931467" lon="-4.580433">
        <ele>1226.0</ele>
        <time>2013-07-03T14:12:55Z</time>
      </trkpt>
      <trkpt lat="39.931467" lon="-4.580517">
        <ele>1227.0</ele>
        <time>2013-07-03T14:12:56Z</time>
      </trkpt>
      <trkpt lat="39.931483" lon="-4.580583">
        <ele>1227.0</ele>
        <time>2013-07-03T14:12:57Z</time>
      </trkpt>
      <trkpt lat="39.931483" lon="-4.580667">
        <ele>1227.0</ele>
        <time>2013-07-03T14:12:58Z</time>
      </trkpt>
      <trkpt lat="39.931500" lon="-4.580733">
        <ele>1227.0</ele>
        <time>2013-07-03T14:12:59Z</time>
      </trkpt>
      <trkpt lat="39.931517" lon="-4.580800">
        <ele>1226.0</ele>
        <time>2013-07-03T14:13:00Z</time>
      </trkpt>
      <trkpt lat="39.931533" lon="-4.580883">
        <ele>1225.0</ele>
        <time>2013-07-03T14:13:01Z</time>
      </trkpt>
      <trkpt lat="39.931567" lon="-4.580950">
        <ele>1223.0</ele>
        <time>2013-07-03T14:13:02Z</time>
      </trkpt>
      <trkpt lat="39.931617" lon="-4.581033">
        <ele>1222.0</ele>
        <time>2013-07-03T14:13:03Z</time>
      </trkpt>
      <trkpt lat="39.931683" lon="-4.581100">
        <ele>1221.0</ele>
        <time>2013-07-03T14:13:04Z</time>
      </trkpt>
      <trkpt lat="39.931750" lon="-4.581167">
        <ele>1219.0</ele>
        <time>2013-07-03T14:13:05Z</time>
      </trkpt>
      <trkpt lat="39.931833" lon="-4.581200">
        <ele>1219.0</ele>
        <time>2013-07-03T14:13:06Z</time>
      </trkpt>
      <trkpt lat="39.931917" lon="-4.581200">
        <ele>1217.0</ele>
        <time>2013-07-03T14:13:07Z</time>
      </trkpt>
      <trkpt lat="39.932017" lon="-4.581183">
        <ele>1216.0</ele>
        <time>2013-07-03T14:13:08Z</time>
      </trkpt>
      <trkpt lat="39.932100" lon="-4.581117">
        <ele>1215.0</ele>
        <time>2013-07-03T14:13:09Z</time>
      </trkpt>
      <trkpt lat="39.932200" lon="-4.581067">
        <ele>1214.0</ele>
        <time>2013-07-03T14:13:10Z</time>
      </trkpt>
      <trkpt lat="39.932283" lon="-4.581017">
        <ele>1214.0</ele>
        <time>2013-07-03T14:13:11Z</time>
      </trkpt>
      <trkpt lat="39.932367" lon="-4.580967">
        <ele>1216.0</ele>
        <time>2013-07-03T14:13:12Z</time>
      </trkpt>
      <trkpt lat="39.932433" lon="-4.580917">
        <ele>1217.0</ele>
        <time>2013-07-03T14:13:13Z</time>
      </trkpt>
      <trkpt lat="39.932483" lon="-4.580867">
        <ele>1217.0</ele>
        <time>2013-07-03T14:13:14Z</time>
      </trkpt>
      <trkpt lat="39.932533" lon="-4.580800">
        <ele>1217.0</ele>
        <time>2013-07-03T14:13:15Z</time>
      </trkpt>
      <trkpt lat="39.932600" lon="-4.580767">
        <ele>1216.0</ele>
        <time>2013-07-03T14:13:16Z</time>
      </trkpt>
      <trkpt lat="39.932667" lon="-4.580733">
        <ele>1215.0</ele>
        <time>2013-07-03T14:13:17Z</time>
      </trkpt>
      <trkpt lat="39.932733" lon="-4.580750">
        <ele>1214.0</ele>
        <time>2013-07-03T14:13:18Z</time>
      </trkpt>
      <trkpt lat="39.932817" lon="-4.580750">
        <ele>1212.0</ele>
        <time>2013-07-03T14:13:19Z</time>
      </trkpt>
      <trkpt lat="39.932883" lon="-4.580750">
        <ele>1209.0</ele>
        <time>2013-07-03T14:13:20Z</time>
      </trkpt>
      <trkpt lat="39.932983" lon="-4.580750">
        <ele>1207.0</ele>
        <time>2013-07-03T14:13:21Z</time>
      </trkpt>
      <trkpt lat="39.933067" lon="-4.580717">
        <ele>1206.0</ele>
        <time>2013-07-03T14:13:22Z</time>
      </trkpt>
      <trkpt lat="39.933167" lon="-4.580717">
        <ele>1205.0</ele>
        <time>2013-07-03T14:13:23Z</time>
      </trkpt>
      <trkpt lat="39.933233" lon="-4.580717">
        <ele>1206.0</ele>
        <time>2013-07-03T14:13:24Z</time>
      </trkpt>
      <trkpt lat="39.933283" lon="-4.580717">
        <ele>1205.0</ele>
        <time>2013-07-03T14:13:25Z</time>
      </trkpt>
      <trkpt lat="39.933350" lon="-4.580700">
        <ele>1204.0</ele>
        <time>2013-07-03T14:13:26Z</time>
      </trkpt>
      <trkpt lat="39.933417" lon="-4.580667">
        <ele>1203.0</ele>
        <time>2013-07-03T14:13:27Z</time>
      </trkpt>
      <trkpt lat="39.933500" lon="-4.580633">
        <ele>1201.0</ele>
        <time>2013-07-03T14:13:28Z</time>
      </trkpt>
      <trkpt lat="39.933583" lon="-4.580600">
        <ele>1198.0</ele>
        <time>2013-07-03T14:13:29Z</time>
      </trkpt>
      <trkpt lat="39.933683" lon="-4.580567">
        <ele>1196.0</ele>
        <time>2013-07-03T14:13:30Z</time>
      </trkpt>
      <trkpt lat="39.933783" lon="-4.580517">
        <ele>1194.0</ele>
        <time>2013-07-03T14:13:31Z</time>
      </trkpt>
      <trkpt lat="39.933867" lon="-4.580467">
        <ele>1194.0</ele>
        <time>2013-07-03T14:13:32Z</time>
      </trkpt>
      <trkpt lat="39.933933" lon="-4.580433">
        <ele>1194.0</ele>
        <time>2013-07-03T14:13:33Z</time>
      </trkpt>
      <trkpt lat="39.934017" lon="-4.580417">
        <ele>1195.0</ele>
        <time>2013-07-03T14:13:34Z</time>
      </trkpt>
      <trkpt lat="39.934083" lon="-4.580400">
        <ele>1195.0</ele>
        <time>2013-07-03T14:13:35Z</time>
      </trkpt>
      <trkpt lat="39.934150" lon="-4.580417">
        <ele>1195.0</ele>
        <time>2013-07-03T14:13:36Z</time>
      </trkpt>
      <trkpt lat="39.934217" lon="-4.580417">
        <ele>1195.0</ele>
        <time>2013-07-03T14:13:37Z</time>
      </trkpt>
      <trkpt lat="39.934267" lon="-4.580433">
        <ele>1196.0</ele>
        <time>2013-07-03T14:13:38Z</time>
      </trkpt>
      <trkpt lat="39.934333" lon="-4.580450">
        <ele>1196.0</ele>
        <time>2013-07-03T14:13:39Z</time>
      </trkpt>
      <trkpt lat="39.934400" lon="-4.580483">
        <ele>1197.0</ele>
        <time>2013-07-03T14:13:40Z</time>
      </trkpt>
      <trkpt lat="39.934467" lon="-4.580517">
        <ele>1197.0</ele>
        <time>2013-07-03T14:13:41Z</time>
      </trkpt>
      <trkpt lat="39.934533" lon="-4.580567">
        <ele>1199.0</ele>
        <time>2013-07-03T14:13:42Z</time>
      </trkpt>
      <trkpt lat="39.934600" lon="-4.580600">
        <ele>1200.0</ele>
        <time>2013-07-03T14:13:43Z</time>
      </trkpt>
      <trkpt lat="39.934650" lon="-4.580633">
        <ele>1200.0</ele>
        <time>2013-07-03T14:13:44Z</time>
      </trkpt>
      <trkpt lat="39.934717" lon="-4.580667">
        <ele>1200.0</ele>
        <time>2013-07-03T14:13:45Z</time>
      </trkpt>
      <trkpt lat="39.934783" lon="-4.580700">
        <ele>1199.0</ele>
        <time>2013-07-03T14:13:46Z</time>
      </trkpt>
      <trkpt lat="39.934850" lon="-4.580733">
        <ele>1199.0</ele>
        <time>2013-07-03T14:13:47Z</time>
      </trkpt>
      <trkpt lat="39.934917" lon="-4.580767">
        <ele>1198.0</ele>
        <time>2013-07-03T14:13:48Z</time>
      </trkpt>
      <trkpt lat="39.935000" lon="-4.580817">
        <ele>1199.0</ele>
        <time>2013-07-03T14:13:49Z</time>
      </trkpt>
      <trkpt lat="39.935067" lon="-4.580850">
        <ele>1200.0</ele>
        <time>2013-07-03T14:13:50Z</time>
      </trkpt>
      <trkpt lat="39.935117" lon="-4.580900">
        <ele>1201.0</ele>
        <time>2013-07-03T14:13:51Z</time>
      </trkpt>
      <trkpt lat="39.935167" lon="-4.580933">
        <ele>1202.0</ele>
        <time>2013-07-03T14:13:52Z</time>
      </trkpt>
      <trkpt lat="39.935217" lon="-4.580950">
        <ele>1203.0</ele>
        <time>2013-07-03T14:13:53Z</time>
      </trkpt>
      <trkpt lat="39.935267" lon="-4.580983">
        <ele>1203.0</ele>
        <time>2013-07-03T14:13:54Z</time>
      </trkpt>
      <trkpt lat="39.935300" lon="-4.581017">
        <ele>1203.0</ele>
        <time>2013-07-03T14:13:55Z</time>
      </trkpt>
      <trkpt lat="39.935367" lon="-4.581067">
        <ele>1202.0</ele>
        <time>2013-07-03T14:13:56Z</time>
      </trkpt>
      <trkpt lat="39.935417" lon="-4.581133">
        <ele>1202.0</ele>
        <time>2013-07-03T14:13:57Z</time>
      </trkpt>
      <trkpt lat="39.935450" lon="-4.581217">
        <ele>1202.0</ele>
        <time>2013-07-03T14:13:58Z</time>
      </trkpt>
      <trkpt lat="39.935467" lon="-4.581317">
        <ele>1202.0</ele>
        <time>2013-07-03T14:13:59Z</time>
      </trkpt>
      <trkpt lat="39.935467" lon="-4.581417">
        <ele>1202.0</ele>
        <time>2013-07-03T14:14:00Z</time>
      </trkpt>
      <trkpt lat="39.935450" lon="-4.581517">
        <ele>1201.0</ele>
        <time>2013-07-03T14:14:01Z</time>
      </trkpt>
      <trkpt lat="39.935433" lon="-4.581633">
        <ele>1202.0</ele>
        <time>2013-07-03T14:14:02Z</time>
      </trkpt>
      <trkpt lat="39.935400" lon="-4.581733">
        <ele>1202.0</ele>
        <time>2013-07-03T14:14:03Z</time>
      </trkpt>
      <trkpt lat="39.935383" lon="-4.581833">
        <ele>1202.0</ele>
        <time>2013-07-03T14:14:04Z</time>
      </trkpt>
      <trkpt lat="39.935333" lon="-4.581933">
        <ele>1203.0</ele>
        <time>2013-07-03T14:14:05Z</time>
      </trkpt>
      <trkpt lat="39.935283" lon="-4.582017">
        <ele>1203.0</ele>
        <time>2013-07-03T14:14:06Z</time>
      </trkpt>
      <trkpt lat="39.935217" lon="-4.582067">
        <ele>1204.0</ele>
        <time>2013-07-03T14:14:07Z</time>
      </trkpt>
      <trkpt lat="39.935150" lon="-4.582100">
        <ele>1204.0</ele>
        <time>2013-07-03T14:14:08Z</time>
      </trkpt>
      <trkpt lat="39.935083" lon="-4.582117">
        <ele>1205.0</ele>
        <time>2013-07-03T14:14:09Z</time>
      </trkpt>
      <trkpt lat="39.935000" lon="-4.582117">
        <ele>1204.0</ele>
        <time>2013-07-03T14:14:10Z</time>
      </trkpt>
      <trkpt lat="39.934917" lon="-4.582117">
        <ele>1204.0</ele>
        <time>2013-07-03T14:14:11Z</time>
      </trkpt>
      <trkpt lat="39.934817" lon="-4.582117">
        <ele>1203.0</ele>
        <time>2013-07-03T14:14:12Z</time>
      </trkpt>
      <trkpt lat="39.934717" lon="-4.582067">
        <ele>1202.0</ele>
        <time>2013-07-03T14:14:13Z</time>
      </trkpt>
      <trkpt lat="39.934633" lon="-4.582000">
        <ele>1201.0</ele>
        <time>2013-07-03T14:14:14Z</time>
      </trkpt>
      <trkpt lat="39.934550" lon="-4.581900">
        <ele>1200.0</ele>
        <time>2013-07-03T14:14:15Z</time>
      </trkpt>
      <trkpt lat="39.934483" lon="-4.581783">
        <ele>1201.0</ele>
        <time>2013-07-03T14:14:16Z</time>
      </trkpt>
      <trkpt lat="39.934417" lon="-4.581650">
        <ele>1202.0</ele>
        <time>2013-07-03T14:14:17Z</time>
      </trkpt>
      <trkpt lat="39.934383" lon="-4.581533">
        <ele>1202.0</ele>
        <time>2013-07-03T14:14:18Z</time>
      </trkpt>
      <trkpt lat="39.934367" lon="-4.581400">
        <ele>1202.0</ele>
        <time>2013-07-03T14:14:19Z</time>
      </trkpt>
      <trkpt lat="39.934367" lon="-4.581283">
        <ele>1203.0</ele>
        <time>2013-07-03T14:14:20Z</time>
      </trkpt>
      <trkpt lat="39.934383" lon="-4.581183">
        <ele>1202.0</ele>
        <time>2013-07-03T14:14:21Z</time>
      </trkpt>
      <trkpt lat="39.934400" lon="-4.581067">
        <ele>1202.0</ele>
        <time>2013-07-03T14:14:22Z</time>
      </trkpt>
      <trkpt lat="39.934417" lon="-4.580933">
        <ele>1201.0</ele>
        <time>2013-07-03T14:14:23Z</time>
      </trkpt>
      <trkpt lat="39.934417" lon="-4.580783">
        <ele>1201.0</ele>
        <time>2013-07-03T14:14:24Z</time>
      </trkpt>
      <trkpt lat="39.934417" lon="-4.580650">
        <ele>1201.0</ele>
        <time>2013-07-03T14:14:25Z</time>
      </trkpt>
      <trkpt lat="39.934400" lon="-4.580533">
        <ele>1201.0</ele>
        <time>2013-07-03T14:14:26Z</time>
      </trkpt>
      <trkpt lat="39.934400" lon="-4.580417">
        <ele>1202.0</ele>
        <time>2013-07-03T14:14:27Z</time>
      </trkpt>
      <trkpt lat="39.934383" lon="-4.580300">
        <ele>1201.0</ele>
        <time>2013-07-03T14:14:28Z</time>
      </trkpt>
      <trkpt lat="39.934367" lon="-4.580167">
        <ele>1199.0</ele>
        <time>2013-07-03T14:14:29Z</time>
      </trkpt>
      <trkpt lat="39.934367" lon="-4.580033">
        <ele>1198.0</ele>
        <time>2013-07-03T14:14:30Z</time>
      </trkpt>
      <trkpt lat="39.934383" lon="-4.579900">
        <ele>1198.0</ele>
        <time>2013-07-03T14:14:31Z</time>
      </trkpt>
      <trkpt lat="39.934383" lon="-4.579767">
        <ele>1199.0</ele>
        <time>2013-07-03T14:14:32Z</time>
      </trkpt>
      <trkpt lat="39.934400" lon="-4.579650">
        <ele>1200.0</ele>
        <time>2013-07-03T14:14:33Z</time>
      </trkpt>
      <trkpt lat="39.934383" lon="-4.579533">
        <ele>1200.0</ele>
        <time>2013-07-03T14:14:34Z</time>
      </trkpt>
      <trkpt lat="39.934367" lon="-4.579400">
        <ele>1199.0</ele>
        <time>2013-07-03T14:14:35Z</time>
      </trkpt>
      <trkpt lat="39.934350" lon="-4.579250">
        <ele>1198.0</ele>
        <time>2013-07-03T14:14:36Z</time>
      </trkpt>
      <trkpt lat="39.934317" lon="-4.579117">
        <ele>1199.0</ele>
        <time>2013-07-03T14:14:37Z</time>
      </trkpt>
      <trkpt lat="39.934283" lon="-4.578983">
        <ele>1201.0</ele>
        <time>2013-07-03T14:14:38Z</time>
      </trkpt>
      <trkpt lat="39.934267" lon="-4.578883">
        <ele>1203.0</ele>
        <time>2013-07-03T14:14:39Z</time>
      </trkpt>
      <trkpt lat="39.934250" lon="-4.578783">
        <ele>1205.0</ele>
        <time>2013-07-03T14:14:40Z</time>
      </trkpt>
      <trkpt lat="39.934250" lon="-4.578683">
        <ele>1206.0</ele>
        <time>2013-07-03T14:14:41Z</time>
      </trkpt>
      <trkpt lat="39.934250" lon="-4.578600">
        <ele>1208.0</ele>
        <time>2013-07-03T14:14:42Z</time>
      </trkpt>
      <trkpt lat="39.934233" lon="-4.578533">
        <ele>1208.0</ele>
        <time>2013-07-03T14:14:43Z</time>
      </trkpt>
      <trkpt lat="39.934217" lon="-4.578450">
        <ele>1209.0</ele>
        <time>2013-07-03T14:14:44Z</time>
      </trkpt>
      <trkpt lat="39.934183" lon="-4.578367">
        <ele>1209.0</ele>
        <time>2013-07-03T14:14:45Z</time>
      </trkpt>
      <trkpt lat="39.934167" lon="-4.578283">
        <ele>1210.0</ele>
        <time>2013-07-03T14:14:46Z</time>
      </trkpt>
      <trkpt lat="39.934150" lon="-4.578200">
        <ele>1212.0</ele>
        <time>2013-07-03T14:14:47Z</time>
      </trkpt>
      <trkpt lat="39.934167" lon="-4.578117">
        <ele>1213.0</ele>
        <time>2013-07-03T14:14:48Z</time>
      </trkpt>
      <trkpt lat="39.934183" lon="-4.578033">
        <ele>1214.0</ele>
        <time>2013-07-03T14:14:49Z</time>
      </trkpt>
      <trkpt lat="39.934200" lon="-4.577950">
        <ele>1214.0</ele>
        <time>2013-07-03T14:14:50Z</time>
      </trkpt>
      <trkpt lat="39.934217" lon="-4.577867">
        <ele>1215.0</ele>
        <time>2013-07-03T14:14:51Z</time>
      </trkpt>
      <trkpt lat="39.934250" lon="-4.577783">
        <ele>1215.0</ele>
        <time>2013-07-03T14:14:52Z</time>
      </trkpt>
      <trkpt lat="39.934300" lon="-4.577717">
        <ele>1214.0</ele>
        <time>2013-07-03T14:14:53Z</time>
      </trkpt>
      <trkpt lat="39.934383" lon="-4.577667">
        <ele>1214.0</ele>
        <time>2013-07-03T14:14:54Z</time>
      </trkpt>
      <trkpt lat="39.934450" lon="-4.577633">
        <ele>1214.0</ele>
        <time>2013-07-03T14:14:55Z</time>
      </trkpt>
      <trkpt lat="39.934533" lon="-4.577633">
        <ele>1215.0</ele>
        <time>2013-07-03T14:14:56Z</time>
      </trkpt>
      <trkpt lat="39.934617" lon="-4.577650">
        <ele>1217.0</ele>
        <time>2013-07-03T14:14:57Z</time>
      </trkpt>
      <trkpt lat="39.934667" lon="-4.577700">
        <ele>1218.0</ele>
        <time>2013-07-03T14:14:58Z</time>
      </trkpt>
      <trkpt lat="39.934700" lon="-4.577767">
        <ele>1219.0</ele>
        <time>2013-07-03T14:14:59Z</time>
      </trkpt>
      <trkpt lat="39.934733" lon="-4.577833">
        <ele>1220.0</ele>
        <time>2013-07-03T14:15:00Z</time>
      </trkpt>
      <trkpt lat="39.934750" lon="-4.577883">
        <ele>1220.0</ele>
        <time>2013-07-03T14:15:01Z</time>
      </trkpt>
      <trkpt lat="39.934733" lon="-4.577950">
        <ele>1220.0</ele>
        <time>2013-07-03T14:15:02Z</time>
      </trkpt>
      <trkpt lat="39.934717" lon="-4.578033">
        <ele>1219.0</ele>
        <time>2013-07-03T14:15:03Z</time>
      </trkpt>
      <trkpt lat="39.934683" lon="-4.578100">
        <ele>1218.0</ele>
        <time>2013-07-03T14:15:04Z</time>
      </trkpt>
      <trkpt lat="39.934600" lon="-4.578167">
        <ele>1217.0</ele>
        <time>2013-07-03T14:15:05Z</time>
      </trkpt>
      <trkpt lat="39.934517" lon="-4.578200">
        <ele>1216.0</ele>
        <time>2013-07-03T14:15:06Z</time>
      </trkpt>
      <trkpt lat="39.934417" lon="-4.578233">
        <ele>1215.0</ele>
        <time>2013-07-03T14:15:07Z</time>
      </trkpt>
      <trkpt lat="39.934317" lon="-4.578250">
        <ele>1215.0</ele>
        <time>2013-07-03T14:15:08Z</time>
      </trkpt>
      <trkpt lat="39.934200" lon="-4.578283">
        <ele>1215.0</ele>
        <time>2013-07-03T14:15:09Z</time>
      </trkpt>
      <trkpt lat="39.934117" lon="-4.578317">
        <ele>1216.0</ele>
        <time>2013-07-03T14:15:10Z</time>
      </trkpt>
      <trkpt lat="39.934033" lon="-4.578350">
        <ele>1217.0</ele>
        <time>2013-07-03T14:15:11Z</time>
      </trkpt>
      <trkpt lat="39.933950" lon="-4.578367">
        <ele>1218.0</ele>
        <time>2013-07-03T14:15:12Z</time>
      </trkpt>
      <trkpt lat="39.933883" lon="-4.578367">
        <ele>1218.0</ele>
        <time>2013-07-03T14:15:13Z</time>
      </trkpt>
      <trkpt lat="39.933817" lon="-4.578367">
        <ele>1218.0</ele>
        <time>2013-07-03T14:15:14Z</time>
      </trkpt>
      <trkpt lat="39.933750" lon="-4.578350">
        <ele>1217.0</ele>
        <time>2013-07-03T14:15:15Z</time>
      </trkpt>
      <trkpt lat="39.933683" lon="-4.578350">
        <ele>1215.0</ele>
        <time>2013-07-03T14:15:16Z</time>
      </trkpt>
      <trkpt lat="39.933617" lon="-4.578350">
        <ele>1213.0</ele>
        <time>2013-07-03T14:15:17Z</time>
      </trkpt>
      <trkpt lat="39.933533" lon="-4.578317">
        <ele>1212.0</ele>
        <time>2013-07-03T14:15:18Z</time>
      </trkpt>
      <trkpt lat="39.933450" lon="-4.578267">
        <ele>1210.0</ele>
        <time>2013-07-03T14:15:19Z</time>
      </trkpt>
      <trkpt lat="39.933367" lon="-4.578217">
        <ele>1209.0</ele>
        <time>2013-07-03T14:15:20Z</time>
      </trkpt>
      <trkpt lat="39.933300" lon="-4.578167">
        <ele>1208.0</ele>
        <time>2013-07-03T14:15:21Z</time>
      </trkpt>
      <trkpt lat="39.933217" lon="-4.578133">
        <ele>1207.0</ele>
        <time>2013-07-03T14:15:22Z</time>
      </trkpt>
      <trkpt lat="39.933133" lon="-4.578133">
        <ele>1206.0</ele>
        <time>2013-07-03T14:15:23Z</time>
      </trkpt>
      <trkpt lat="39.933033" lon="-4.578117">
        <ele>1204.0</ele>
        <time>2013-07-03T14:15:24Z</time>
      </trkpt>
      <trkpt lat="39.932950" lon="-4.578067">
        <ele>1204.0</ele>
        <time>2013-07-03T14:15:25Z</time>
      </trkpt>
      <trkpt lat="39.932867" lon="-4.578000">
        <ele>1203.0</ele>
        <time>2013-07-03T14:15:26Z</time>
      </trkpt>
      <trkpt lat="39.932800" lon="-4.577883">
        <ele>1202.0</ele>
        <time>2013-07-03T14:15:27Z</time>
      </trkpt>
      <trkpt lat="39.932750" lon="-4.577750">
        <ele>1201.0</ele>
        <time>2013-07-03T14:15:28Z</time>
      </trkpt>
      <trkpt lat="39.932683" lon="-4.577600">
        <ele>1199.0</ele>
        <time>2013-07-03T14:15:29Z</time>
      </trkpt>
      <trkpt lat="39.932617" lon="-4.577450">
        <ele>1198.0</ele>
        <time>2013-07-03T14:15:30Z</time>
      </trkpt>
      <trkpt lat="39.932550" lon="-4.577300">
        <ele>1197.0</ele>
        <time>2013-07-03T14:15:31Z</time>
      </trkpt>
      <trkpt lat="39.932500" lon="-4.577133">
        <ele>1197.0</ele>
        <time>2013-07-03T14:15:32Z</time>
      </trkpt>
      <trkpt lat="39.932483" lon="-4.576967">
        <ele>1197.0</ele>
        <time>2013-07-03T14:15:33Z</time>
      </trkpt>
      <trkpt lat="39.932450" lon="-4.576817">
        <ele>1196.0</ele>
        <time>2013-07-03T14:15:34Z</time>
      </trkpt>
      <trkpt lat="39.932433" lon="-4.576683">
        <ele>1194.0</ele>
        <time>2013-07-03T14:15:35Z</time>
      </trkpt>
      <trkpt lat="39.932417" lon="-4.576533">
        <ele>1192.0</ele>
        <time>2013-07-03T14:15:36Z</time>
      </trkpt>
      <trkpt lat="39.932383" lon="-4.576383">
        <ele>1188.0</ele>
        <time>2013-07-03T14:15:37Z</time>
      </trkpt>
      <trkpt lat="39.932367" lon="-4.576200">
        <ele>1185.0</ele>
        <time>2013-07-03T14:15:38Z</time>
      </trkpt>
      <trkpt lat="39.932350" lon="-4.576017">
        <ele>1183.0</ele>
        <time>2013-07-03T14:15:39Z</time>
      </trkpt>
      <trkpt lat="39.932333" lon="-4.575833">
        <ele>1183.0</ele>
        <time>2013-07-03T14:15:40Z</time>
      </trkpt>
      <trkpt lat="39.932350" lon="-4.575667">
        <ele>1183.0</ele>
        <time>2013-07-03T14:15:41Z</time>
      </trkpt>
      <trkpt lat="39.932367" lon="-4.575517">
        <ele>1183.0</ele>
        <time>2013-07-03T14:15:42Z</time>
      </trkpt>
      <trkpt lat="39.932367" lon="-4.575350">
        <ele>1181.0</ele>
        <time>2013-07-03T14:15:43Z</time>
      </trkpt>
      <trkpt lat="39.932383" lon="-4.575200">
        <ele>1180.0</ele>
        <time>2013-07-03T14:15:44Z</time>
      </trkpt>
      <trkpt lat="39.932400" lon="-4.575017">
        <ele>1178.0</ele>
        <time>2013-07-03T14:15:45Z</time>
      </trkpt>
      <trkpt lat="39.932417" lon="-4.574850">
        <ele>1176.0</ele>
        <time>2013-07-03T14:15:46Z</time>
      </trkpt>
      <trkpt lat="39.932417" lon="-4.574667">
        <ele>1176.0</ele>
        <time>2013-07-03T14:15:47Z</time>
      </trkpt>
      <trkpt lat="39.932433" lon="-4.574500">
        <ele>1177.0</ele>
        <time>2013-07-03T14:15:48Z</time>
      </trkpt>
      <trkpt lat="39.932433" lon="-4.574317">
        <ele>1179.0</ele>
        <time>2013-07-03T14:15:49Z</time>
      </trkpt>
      <trkpt lat="39.932433" lon="-4.574167">
        <ele>1180.0</ele>
        <time>2013-07-03T14:15:50Z</time>
      </trkpt>
      <trkpt lat="39.932433" lon="-4.574033">
        <ele>1182.0</ele>
        <time>2013-07-03T14:15:51Z</time>
      </trkpt>
      <trkpt lat="39.932433" lon="-4.573900">
        <ele>1183.0</ele>
        <time>2013-07-03T14:15:52Z</time>
      </trkpt>
      <trkpt lat="39.932433" lon="-4.573783">
        <ele>1183.0</ele>
        <time>2013-07-03T14:15:53Z</time>
      </trkpt>
      <trkpt lat="39.932433" lon="-4.573633">
        <ele>1183.0</ele>
        <time>2013-07-03T14:15:54Z</time>
      </trkpt>
      <trkpt lat="39.932450" lon="-4.573483">
        <ele>1183.0</ele>
        <time>2013-07-03T14:15:55Z</time>
      </trkpt>
      <trkpt lat="39.932467" lon="-4.573317">
        <ele>1184.0</ele>
        <time>2013-07-03T14:15:56Z</time>
      </trkpt>
      <trkpt lat="39.932483" lon="-4.573167">
        <ele>1185.0</ele>
        <time>2013-07-03T14:15:57Z</time>
      </trkpt>
      <trkpt lat="39.932517" lon="-4.573017">
        <ele>1186.0</ele>
        <time>2013-07-03T14:15:58Z</time>
      </trkpt>
      <trkpt lat="39.932517" lon="-4.572867">
        <ele>1186.0</ele>
        <time>2013-07-03T14:15:59Z</time>
      </trkpt>
      <trkpt lat="39.932517" lon="-4.572700">
        <ele>1188.0</ele>
        <time>2013-07-03T14:16:00Z</time>
      </trkpt>
      <trkpt lat="39.932500" lon="-4.572550">
        <ele>1191.0</ele>
        <time>2013-07-03T14:16:01Z</time>
      </trkpt>
      <trkpt lat="39.932483" lon="-4.572433">
        <ele>1195.0</ele>
        <time>2013-07-03T14:16:02Z</time>
      </trkpt>
      <trkpt lat="39.932467" lon="-4.572333">
        <ele>1196.0</ele>
        <time>2013-07-03T14:16:03Z</time>
      </trkpt>
      <trkpt lat="39.932450" lon="-4.572250">
        <ele>1197.0</ele>
        <time>2013-07-03T14:16:04Z</time>
      </trkpt>
      <trkpt lat="39.932450" lon="-4.572133">
        <ele>1196.0</ele>
        <time>2013-07-03T14:16:05Z</time>
      </trkpt>
      <trkpt lat="39.932450" lon="-4.572017">
        <ele>1195.0</ele>
        <time>2013-07-03T14:16:06Z</time>
      </trkpt>
      <trkpt lat="39.932500" lon="-4.571883">
        <ele>1194.0</ele>
        <time>2013-07-03T14:16:07Z</time>
      </trkpt>
      <trkpt lat="39.932583" lon="-4.571783">
        <ele>1194.0</ele>
        <time>2013-07-03T14:16:08Z</time>
      </trkpt>
      <trkpt lat="39.932683" lon="-4.571733">
        <ele>1194.0</ele>
        <time>2013-07-03T14:16:09Z</time>
      </trkpt>
      <trkpt lat="39.932783" lon="-4.571733">
        <ele>1196.0</ele>
        <time>2013-07-03T14:16:10Z</time>
      </trkpt>
      <trkpt lat="39.932850" lon="-4.571750">
        <ele>1197.0</ele>
        <time>2013-07-03T14:16:11Z</time>
      </trkpt>
      <trkpt lat="39.932917" lon="-4.571783">
        <ele>1199.0</ele>
        <time>2013-07-03T14:16:12Z</time>
      </trkpt>
      <trkpt lat="39.932967" lon="-4.571817">
        <ele>1199.0</ele>
        <time>2013-07-03T14:16:13Z</time>
      </trkpt>
      <trkpt lat="39.933017" lon="-4.571867">
        <ele>1200.0</ele>
        <time>2013-07-03T14:16:14Z</time>
      </trkpt>
      <trkpt lat="39.933050" lon="-4.571917">
        <ele>1202.0</ele>
        <time>2013-07-03T14:16:15Z</time>
      </trkpt>
      <trkpt lat="39.933083" lon="-4.571950">
        <ele>1206.0</ele>
        <time>2013-07-03T14:16:16Z</time>
      </trkpt>
      <trkpt lat="39.933083" lon="-4.571967">
        <ele>1208.0</ele>
        <time>2013-07-03T14:16:17Z</time>
      </trkpt>
      <trkpt lat="39.933067" lon="-4.571967">
        <ele>1210.0</ele>
        <time>2013-07-03T14:16:18Z</time>
      </trkpt>
      <trkpt lat="39.933033" lon="-4.571983">
        <ele>1211.0</ele>
        <time>2013-07-03T14:16:19Z</time>
      </trkpt>
      <trkpt lat="39.932983" lon="-4.571983">
        <ele>1211.0</ele>
        <time>2013-07-03T14:16:20Z</time>
      </trkpt>
      <trkpt lat="39.932933" lon="-4.571967">
        <ele>1212.0</ele>
        <time>2013-07-03T14:16:21Z</time>
      </trkpt>
      <trkpt lat="39.932883" lon="-4.571900">
        <ele>1213.0</ele>
        <time>2013-07-03T14:16:22Z</time>
      </trkpt>
      <trkpt lat="39.932833" lon="-4.571800">
        <ele>1213.0</ele>
        <time>2013-07-03T14:16:23Z</time>
      </trkpt>
      <trkpt lat="39.932800" lon="-4.571683">
        <ele>1214.0</ele>
        <time>2013-07-03T14:16:24Z</time>
      </trkpt>
      <trkpt lat="39.932767" lon="-4.571533">
        <ele>1215.0</ele>
        <time>2013-07-03T14:16:25Z</time>
      </trkpt>
      <trkpt lat="39.932750" lon="-4.571400">
        <ele>1217.0</ele>
        <time>2013-07-03T14:16:26Z</time>
      </trkpt>
      <trkpt lat="39.932750" lon="-4.571250">
        <ele>1220.0</ele>
        <time>2013-07-03T14:16:27Z</time>
      </trkpt>
      <trkpt lat="39.932767" lon="-4.571133">
        <ele>1221.0</ele>
        <time>2013-07-03T14:16:28Z</time>
      </trkpt>
      <trkpt lat="39.932783" lon="-4.571033">
        <ele>1222.0</ele>
        <time>2013-07-03T14:16:29Z</time>
      </trkpt>
      <trkpt lat="39.932817" lon="-4.570917">
        <ele>1223.0</ele>
        <time>2013-07-03T14:16:30Z</time>
      </trkpt>
      <trkpt lat="39.932850" lon="-4.570783">
        <ele>1223.0</ele>
        <time>2013-07-03T14:16:31Z</time>
      </trkpt>
      <trkpt lat="39.932900" lon="-4.570667">
        <ele>1224.0</ele>
        <time>2013-07-03T14:16:32Z</time>
      </trkpt>
      <trkpt lat="39.932967" lon="-4.570583">
        <ele>1225.0</ele>
        <time>2013-07-03T14:16:33Z</time>
      </trkpt>
      <trkpt lat="39.933033" lon="-4.570533">
        <ele>1226.0</ele>
        <time>2013-07-03T14:16:34Z</time>
      </trkpt>
      <trkpt lat="39.933083" lon="-4.570500">
        <ele>1226.0</ele>
        <time>2013-07-03T14:16:35Z</time>
      </trkpt>
      <trkpt lat="39.933150" lon="-4.570500">
        <ele>1226.0</ele>
        <time>2013-07-03T14:16:36Z</time>
      </trkpt>
      <trkpt lat="39.933200" lon="-4.570517">
        <ele>1227.0</ele>
        <time>2013-07-03T14:16:37Z</time>
      </trkpt>
      <trkpt lat="39.933250" lon="-4.570550">
        <ele>1229.0</ele>
        <time>2013-07-03T14:16:38Z</time>
      </trkpt>
      <trkpt lat="39.933300" lon="-4.570567">
        <ele>1230.0</ele>
        <time>2013-07-03T14:16:39Z</time>
      </trkpt>
      <trkpt lat="39.933317" lon="-4.570600">
        <ele>1232.0</ele>
        <time>2013-07-03T14:16:40Z</time>
      </trkpt>
      <trkpt lat="39.933317" lon="-4.570633">
        <ele>1234.0</ele>
        <time>2013-07-03T14:16:41Z</time>
      </trkpt>
      <trkpt lat="39.933317" lon="-4.570650">
        <ele>1235.0</ele>
        <time>2013-07-03T14:16:42Z</time>
      </trkpt>
      <trkpt lat="39.933300" lon="-4.570683">
        <ele>1236.0</ele>
        <time>2013-07-03T14:16:43Z</time>
      </trkpt>
      <trkpt lat="39.933283" lon="-4.570717">
        <ele>1238.0</ele>
        <time>2013-07-03T14:16:44Z</time>
      </trkpt>
      <trkpt lat="39.933250" lon="-4.570733">
        <ele>1239.0</ele>
        <time>2013-07-03T14:16:45Z</time>
      </trkpt>
      <trkpt lat="39.933200" lon="-4.570750">
        <ele>1239.0</ele>
        <time>2013-07-03T14:16:46Z</time>
      </trkpt>
      <trkpt lat="39.933150" lon="-4.570733">
        <ele>1240.0</ele>
        <time>2013-07-03T14:16:47Z</time>
      </trkpt>
      <trkpt lat="39.933083" lon="-4.570717">
        <ele>1242.0</ele>
        <time>2013-07-03T14:16:48Z</time>
      </trkpt>
      <trkpt lat="39.933033" lon="-4.570667">
        <ele>1243.0</ele>
        <time>2013-07-03T14:16:49Z</time>
      </trkpt>
      <trkpt lat="39.932967" lon="-4.570600">
        <ele>1245.0</ele>
        <time>2013-07-03T14:16:50Z</time>
      </trkpt>
      <trkpt lat="39.932917" lon="-4.570533">
        <ele>1247.0</ele>
        <time>2013-07-03T14:16:51Z</time>
      </trkpt>
      <trkpt lat="39.932867" lon="-4.570433">
        <ele>1248.0</ele>
        <time>2013-07-03T14:16:52Z</time>
      </trkpt>
      <trkpt lat="39.932833" lon="-4.570333">
        <ele>1249.0</ele>
        <time>2013-07-03T14:16:53Z</time>
      </trkpt>
      <trkpt lat="39.932800" lon="-4.570200">
        <ele>1250.0</ele>
        <time>2013-07-03T14:16:54Z</time>
      </trkpt>
      <trkpt lat="39.932783" lon="-4.570067">
        <ele>1250.0</ele>
        <time>2013-07-03T14:16:55Z</time>
      </trkpt>
      <trkpt lat="39.932767" lon="-4.569917">
        <ele>1251.0</ele>
        <time>2013-07-03T14:16:56Z</time>
      </trkpt>
      <trkpt lat="39.932783" lon="-4.569767">
        <ele>1252.0</ele>
        <time>2013-07-03T14:16:57Z</time>
      </trkpt>
      <trkpt lat="39.932800" lon="-4.569633">
        <ele>1254.0</ele>
        <time>2013-07-03T14:16:58Z</time>
      </trkpt>
      <trkpt lat="39.932833" lon="-4.569483">
        <ele>1256.0</ele>
        <time>2013-07-03T14:16:59Z</time>
      </trkpt>
      <trkpt lat="39.932883" lon="-4.569350">
        <ele>1259.0</ele>
        <time>2013-07-03T14:17:00Z</time>
      </trkpt>
      <trkpt lat="39.932933" lon="-4.569250">
        <ele>1261.0</ele>
        <time>2013-07-03T14:17:01Z</time>
      </trkpt>
      <trkpt lat="39.932983" lon="-4.569167">
        <ele>1263.0</ele>
        <time>2013-07-03T14:17:02Z</time>
      </trkpt>
      <trkpt lat="39.933050" lon="-4.569083">
        <ele>1265.0</ele>
        <time>2013-07-03T14:17:03Z</time>
      </trkpt>
      <trkpt lat="39.933117" lon="-4.569017">
        <ele>1266.0</ele>
        <time>2013-07-03T14:17:04Z</time>
      </trkpt>
      <trkpt lat="39.933183" lon="-4.568967">
        <ele>1268.0</ele>
        <time>2013-07-03T14:17:05Z</time>
      </trkpt>
      <trkpt lat="39.933250" lon="-4.568917">
        <ele>1269.0</ele>
        <time>2013-07-03T14:17:06Z</time>
      </trkpt>
      <trkpt lat="39.933300" lon="-4.568917">
        <ele>1270.0</ele>
        <time>2013-07-03T14:17:07Z</time>
      </trkpt>
      <trkpt lat="39.933350" lon="-4.568933">
        <ele>1271.0</ele>
        <time>2013-07-03T14:17:08Z</time>
      </trkpt>
      <trkpt lat="39.933383" lon="-4.568967">
        <ele>1272.0</ele>
        <time>2013-07-03T14:17:09Z</time>
      </trkpt>
      <trkpt lat="39.933400" lon="-4.569017">
        <ele>1273.0</ele>
        <time>2013-07-03T14:17:10Z</time>
      </trkpt>
      <trkpt lat="39.933383" lon="-4.569067">
        <ele>1274.0</ele>
        <time>2013-07-03T14:17:11Z</time>
      </trkpt>
      <trkpt lat="39.933367" lon="-4.569100">
        <ele>1276.0</ele>
        <time>2013-07-03T14:17:12Z</time>
      </trkpt>
      <trkpt lat="39.933350" lon="-4.569133">
        <ele>1278.0</ele>
        <time>2013-07-03T14:17:13Z</time>
      </trkpt>
      <trkpt lat="39.933333" lon="-4.569167">
        <ele>1279.0</ele>
        <time>2013-07-03T14:17:14Z</time>
      </trkpt>
      <trkpt lat="39.933300" lon="-4.569200">
        <ele>1281.0</ele>
        <time>2013-07-03T14:17:15Z</time>
      </trkpt>
      <trkpt lat="39.933250" lon="-4.569217">
        <ele>1282.0</ele>
        <time>2013-07-03T14:17:16Z</time>
      </trkpt>
      <trkpt lat="39.933200" lon="-4.569233">
        <ele>1284.0</ele>
        <time>2013-07-03T14:17:17Z</time>
      </trkpt>
      <trkpt lat="39.933150" lon="-4.569217">
        <ele>1285.0</ele>
        <time>2013-07-03T14:17:18Z</time>
      </trkpt>
      <trkpt lat="39.933100" lon="-4.569200">
        <ele>1287.0</ele>
        <time>2013-07-03T14:17:19Z</time>
      </trkpt>
      <trkpt lat="39.933033" lon="-4.569167">
        <ele>1289.0</ele>
        <time>2013-07-03T14:17:20Z</time>
      </trkpt>
      <trkpt lat="39.932983" lon="-4.569117">
        <ele>1290.0</ele>
        <time>2013-07-03T14:17:21Z</time>
      </trkpt>
      <trkpt lat="39.932917" lon="-4.569067">
        <ele>1290.0</ele>
        <time>2013-07-03T14:17:22Z</time>
      </trkpt>
      <trkpt lat="39.932850" lon="-4.569000">
        <ele>1292.0</ele>
        <time>2013-07-03T14:17:23Z</time>
      </trkpt>
      <trkpt lat="39.932783" lon="-4.568917">
        <ele>1293.0</ele>
        <time>2013-07-03T14:17:24Z</time>
      </trkpt>
      <trkpt lat="39.932717" lon="-4.568817">
        <ele>1295.0</ele>
        <time>2013-07-03T14:17:25Z</time>
      </trkpt>
      <trkpt lat="39.932667" lon="-4.568717">
        <ele>1297.0</ele>
        <time>2013-07-03T14:17:26Z</time>
      </trkpt>
      <trkpt lat="39.932633" lon="-4.568583">
        <ele>1299.0</ele>
        <time>2013-07-03T14:17:27Z</time>
      </trkpt>
      <trkpt lat="39.932600" lon="-4.568450">
        <ele>1301.0</ele>
        <time>2013-07-03T14:17:28Z</time>
      </trkpt>
      <trkpt lat="39.932583" lon="-4.568317">
        <ele>1303.0</ele>
        <time>2013-07-03T14:17:29Z</time>
      </trkpt>
      <trkpt lat="39.932583" lon="-4.568183">
        <ele>1304.0</ele>
        <time>2013-07-03T14:17:30Z</time>
      </trkpt>
      <trkpt lat="39.932600" lon="-4.568050">
        <ele>1306.0</ele>
        <time>2013-07-03T14:17:31Z</time>
      </trkpt>
      <trkpt lat="39.932617" lon="-4.567933">
        <ele>1307.0</ele>
        <time>2013-07-03T14:17:32Z</time>
      </trkpt>
      <trkpt lat="39.932650" lon="-4.567800">
        <ele>1307.0</ele>
        <time>2013-07-03T14:17:33Z</time>
      </trkpt>
      <trkpt lat="39.932717" lon="-4.567700">
        <ele>1308.0</ele>
        <time>2013-07-03T14:17:34Z</time>
      </trkpt>
      <trkpt lat="39.932800" lon="-4.567600">
        <ele>1308.0</ele>
        <time>2013-07-03T14:17:35Z</time>
      </trkpt>
      <trkpt lat="39.932883" lon="-4.567533">
        <ele>1309.0</ele>
        <time>2013-07-03T14:17:36Z</time>
      </trkpt>
      <trkpt lat="39.932967" lon="-4.567500">
        <ele>1311.0</ele>
        <time>2013-07-03T14:17:37Z</time>
      </trkpt>
      <trkpt lat="39.933033" lon="-4.567467">
        <ele>1312.0</ele>
        <time>2013-07-03T14:17:38Z</time>
      </trkpt>
      <trkpt lat="39.933100" lon="-4.567450">
        <ele>1314.0</ele>
        <time>2013-07-03T14:17:39Z</time>
      </trkpt>
      <trkpt lat="39.933167" lon="-4.567450">
        <ele>1316.0</ele>
        <time>2013-07-03T14:17:40Z</time>
      </trkpt>
      <trkpt lat="39.933217" lon="-4.567450">
        <ele>1318.0</ele>
        <time>2013-07-03T14:17:41Z</time>
      </trkpt>
      <trkpt lat="39.933267" lon="-4.567450">
        <ele>1320.0</ele>
        <time>2013-07-03T14:17:42Z</time>
      </trkpt>
      <trkpt lat="39.933300" lon="-4.567467">
        <ele>1322.0</ele>
        <time>2013-07-03T14:17:43Z</time>
      </trkpt>
      <trkpt lat="39.933350" lon="-4.567483">
        <ele>1324.0</ele>
        <time>2013-07-03T14:17:44Z</time>
      </trkpt>
      <trkpt lat="39.933383" lon="-4.567500">
        <ele>1326.0</ele>
        <time>2013-07-03T14:17:45Z</time>
      </trkpt>
      <trkpt lat="39.933433" lon="-4.567517">
        <ele>1329.0</ele>
        <time>2013-07-03T14:17:46Z</time>
      </trkpt>
      <trkpt lat="39.933467" lon="-4.567517">
        <ele>1331.0</ele>
        <time>2013-07-03T14:17:47Z</time>
      </trkpt>
      <trkpt lat="39.933500" lon="-4.567533">
        <ele>1333.0</ele>
        <time>2013-07-03T14:17:48Z</time>
      </trkpt>
      <trkpt lat="39.933550" lon="-4.567533">
        <ele>1335.0</ele>
        <time>2013-07-03T14:17:49Z</time>
      </trkpt>
      <trkpt lat="39.933600" lon="-4.567550">
        <ele>1336.0</ele>
        <time>2013-07-03T14:17:50Z</time>
      </trkpt>
      <trkpt lat="39.933650" lon="-4.567567">
        <ele>1338.0</ele>
        <time>2013-07-03T14:17:51Z</time>
      </trkpt>
      <trkpt lat="39.933700" lon="-4.567550">
        <ele>1340.0</ele>
        <time>2013-07-03T14:17:52Z</time>
      </trkpt>
      <trkpt lat="39.933767" lon="-4.567533">
        <ele>1342.0</ele>
        <time>2013-07-03T14:17:53Z</time>
      </trkpt>
      <trkpt lat="39.933833" lon="-4.567467">
        <ele>1344.0</ele>
        <time>2013-07-03T14:17:54Z</time>
      </trkpt>
      <trkpt lat="39.933900" lon="-4.567400">
        <ele>1345.0</ele>
        <time>2013-07-03T14:17:55Z</time>
      </trkpt>
      <trkpt lat="39.933950" lon="-4.567300">
        <ele>1347.0</ele>
        <time>2013-07-03T14:17:56Z</time>
      </trkpt>
      <trkpt lat="39.933983" lon="-4.567167">
        <ele>1349.0</ele>
        <time>2013-07-03T14:17:57Z</time>
      </trkpt>
      <trkpt lat="39.933983" lon="-4.567033">
        <ele>1350.0</ele>
        <time>2013-07-03T14:17:58Z</time>
      </trkpt>
      <trkpt lat="39.933967" lon="-4.566883">
        <ele>1351.0</ele>
        <time>2013-07-03T14:17:59Z</time>
      </trkpt>
      <trkpt lat="39.933933" lon="-4.566750">
        <ele>1352.0</ele>
        <time>2013-07-03T14:18:00Z</time>
      </trkpt>
      <trkpt lat="39.933867" lon="-4.566633">
        <ele>1354.0</ele>
        <time>2013-07-03T14:18:01Z</time>
      </trkpt>
      <trkpt lat="39.933800" lon="-4.566550">
        <ele>1356.0</ele>
        <time>2013-07-03T14:18:02Z</time>
      </trkpt>
      <trkpt lat="39.933733" lon="-4.566500">
        <ele>1358.0</ele>
        <time>2013-07-03T14:18:03Z</time>
      </trkpt>
      <trkpt lat="39.933667" lon="-4.566483">
        <ele>1360.0</ele>
        <time>2013-07-03T14:18:04Z</time>
      </trkpt>
      <trkpt lat="39.933600" lon="-4.566483">
        <ele>1362.0</ele>
        <time>2013-07-03T14:18:05Z</time>
      </trkpt>
      <trkpt lat="39.933567" lon="-4.566500">
        <ele>1364.0</ele>
        <time>2013-07-03T14:18:06Z</time>
      </trkpt>
      <trkpt lat="39.933533" lon="-4.566533">
        <ele>1365.0</ele>
        <time>2013-07-03T14:18:07Z</time>
      </trkpt>
      <trkpt lat="39.933500" lon="-4.566583">
        <ele>1367.0</ele>
        <time>2013-07-03T14:18:08Z</time>
      </trkpt>
      <trkpt lat="39.933483" lon="-4.566650">
        <ele>1368.0</ele>
        <time>2013-07-03T14:18:09Z</time>
      </trkpt>
      <trkpt lat="39.933500" lon="-4.566717">
        <ele>1370.0</ele>
        <time>2013-07-03T14:18:10Z</time>
      </trkpt>
      <trkpt lat="39.933517" lon="-4.566767">
        <ele>1372.0</ele>
        <time>2013-07-03T14:18:11Z</time>
      </trkpt>
      <trkpt lat="39.933550" lon="-4.566817">
        <ele>1375.0</ele>
        <time>2013-07-03T14:18:12Z</time>
      </trkpt>
      <trkpt lat="39.933600" lon="-4.566833">
        <ele>1378.0</ele>
        <time>2013-07-03T14:18:13Z</time>
      </trkpt>
      <trkpt lat="39.933650" lon="-4.566833">
        <ele>1381.0</ele>
        <time>2013-07-03T14:18:14Z</time>
      </trkpt>
      <trkpt lat="39.933700" lon="-4.566833">
        <ele>1383.0</ele>
        <time>2013-07-03T14:18:15Z</time>
      </trkpt>
      <trkpt lat="39.933767" lon="-4.566800">
        <ele>1385.0</ele>
        <time>2013-07-03T14:18:16Z</time>
      </trkpt>
      <trkpt lat="39.933817" lon="-4.566750">
        <ele>1387.0</ele>
        <time>2013-07-03T14:18:17Z</time>
      </trkpt>
      <trkpt lat="39.933883" lon="-4.566667">
        <ele>1389.0</ele>
        <time>2013-07-03T14:18:18Z</time>
      </trkpt>
      <trkpt lat="39.933933" lon="-4.566567">
        <ele>1390.0</ele>
        <time>2013-07-03T14:18:19Z</time>
      </trkpt>
      <trkpt lat="39.933983" lon="-4.566450">
        <ele>1392.0</ele>
        <time>2013-07-03T14:18:20Z</time>
      </trkpt>
      <trkpt lat="39.934017" lon="-4.566300">
        <ele>1394.0</ele>
        <time>2013-07-03T14:18:21Z</time>
      </trkpt>
      <trkpt lat="39.934033" lon="-4.566167">
        <ele>1396.0</ele>
        <time>2013-07-03T14:18:22Z</time>
      </trkpt>
      <trkpt lat="39.934017" lon="-4.566033">
        <ele>1398.0</ele>
        <time>2013-07-03T14:18:23Z</time>
      </trkpt>
      <trkpt lat="39.933983" lon="-4.565917">
        <ele>1400.0</ele>
        <time>2013-07-03T14:18:24Z</time>
      </trkpt>
      <trkpt lat="39.933917" lon="-4.565817">
        <ele>1401.0</ele>
        <time>2013-07-03T14:18:25Z</time>
      </trkpt>
      <trkpt lat="39.933850" lon="-4.565733">
        <ele>1403.0</ele>
        <time>2013-07-03T14:18:26Z</time>
      </trkpt>
      <trkpt lat="39.933783" lon="-4.565700">
        <ele>1404.0</ele>
        <time>2013-07-03T14:18:27Z</time>
      </trkpt>
      <trkpt lat="39.933717" lon="-4.565683">
        <ele>1405.0</ele>
        <time>2013-07-03T14:18:28Z</time>
      </trkpt>
      <trkpt lat="39.933650" lon="-4.565700">
        <ele>1406.0</ele>
        <time>2013-07-03T14:18:29Z</time>
      </trkpt>
      <trkpt lat="39.933617" lon="-4.565750">
        <ele>1408.0</ele>
        <time>2013-07-03T14:18:30Z</time>
      </trkpt>
      <trkpt lat="39.933600" lon="-4.565800">
        <ele>1409.0</ele>
        <time>2013-07-03T14:18:31Z</time>
      </trkpt>
      <trkpt lat="39.933600" lon="-4.565867">
        <ele>1411.0</ele>
        <time>2013-07-03T14:18:32Z</time>
      </trkpt>
      <trkpt lat="39.933617" lon="-4.565917">
        <ele>1412.0</ele>
        <time>2013-07-03T14:18:33Z</time>
      </trkpt>
      <trkpt lat="39.933650" lon="-4.565967">
        <ele>1415.0</ele>
        <time>2013-07-03T14:18:34Z</time>
      </trkpt>
      <trkpt lat="39.933667" lon="-4.566017">
        <ele>1419.0</ele>
        <time>2013-07-03T14:18:35Z</time>
      </trkpt>
      <trkpt lat="39.933683" lon="-4.566050">
        <ele>1422.0</ele>
        <time>2013-07-03T14:18:36Z</time>
      </trkpt>
      <trkpt lat="39.933717" lon="-4.566067">
        <ele>1424.0</ele>
        <time>2013-07-03T14:18:37Z</time>
      </trkpt>
      <trkpt lat="39.933733" lon="-4.566083">
        <ele>1427.0</ele>
        <time>2013-07-03T14:18:38Z</time>
      </trkpt>
      <trkpt lat="39.933750" lon="-4.566100">
        <ele>1429.0</ele>
        <time>2013-07-03T14:18:39Z</time>
      </trkpt>
      <trkpt lat="39.933800" lon="-4.566133">
        <ele>1430.0</ele>
        <time>2013-07-03T14:18:40Z</time>
      </trkpt>
      <trkpt lat="39.933850" lon="-4.566150">
        <ele>1431.0</ele>
        <time>2013-07-03T14:18:41Z</time>
      </trkpt>
      <trkpt lat="39.933900" lon="-4.566150">
        <ele>1433.0</ele>
        <time>2013-07-03T14:18:42Z</time>
      </trkpt>
      <trkpt lat="39.933967" lon="-4.566150">
        <ele>1436.0</ele>
        <time>2013-07-03T14:18:43Z</time>
      </trkpt>
      <trkpt lat="39.934033" lon="-4.566150">
        <ele>1440.0</ele>
        <time>2013-07-03T14:18:44Z</time>
      </trkpt>
      <trkpt lat="39.934083" lon="-4.566133">
        <ele>1445.0</ele>
        <time>2013-07-03T14:18:45Z</time>
      </trkpt>
      <trkpt lat="39.934117" lon="-4.566117">
        <ele>1450.0</ele>
        <time>2013-07-03T14:18:46Z</time>
      </trkpt>
      <trkpt lat="39.934150" lon="-4.566083">
        <ele>1454.0</ele>
        <time>2013-07-03T14:18:47Z</time>
      </trkpt>
      <trkpt lat="39.934183" lon="-4.566067">
        <ele>1457.0</ele>
        <time>2013-07-03T14:18:48Z</time>
      </trkpt>
      <trkpt lat="39.934233" lon="-4.566033">
        <ele>1460.0</ele>
        <time>2013-07-03T14:18:49Z</time>
      </trkpt>
      <trkpt lat="39.934267" lon="-4.566000">
        <ele>1462.0</ele>
        <time>2013-07-03T14:18:50Z</time>
      </trkpt>
      <trkpt lat="39.934317" lon="-4.565950">
        <ele>1464.0</ele>
        <time>2013-07-03T14:18:51Z</time>
      </trkpt>
      <trkpt lat="39.934333" lon="-4.565867">
        <ele>1466.0</ele>
        <time>2013-07-03T14:18:52Z</time>
      </trkpt>
      <trkpt lat="39.934317" lon="-4.565750">
        <ele>1467.0</ele>
        <time>2013-07-03T14:18:53Z</time>
      </trkpt>
      <trkpt lat="39.934283" lon="-4.565617">
        <ele>1467.0</ele>
        <time>2013-07-03T14:18:54Z</time>
      </trkpt>
      <trkpt lat="39.934217" lon="-4.565500">
        <ele>1468.0</ele>
        <time>2013-07-03T14:18:55Z</time>
      </trkpt>
      <trkpt lat="39.934133" lon="-4.565383">
        <ele>1471.0</ele>
        <time>2013-07-03T14:18:56Z</time>
      </trkpt>
      <trkpt lat="39.934067" lon="-4.565300">
        <ele>1476.0</ele>
        <time>2013-07-03T14:18:57Z</time>
      </trkpt>
      <trkpt lat="39.934017" lon="-4.565233">
        <ele>1481.0</ele>
        <time>2013-07-03T14:18:58Z</time>
      </trkpt>
      <trkpt lat="39.933950" lon="-4.565183">
        <ele>1484.0</ele>
        <time>2013-07-03T14:18:59Z</time>
      </trkpt>
      <trkpt lat="39.933883" lon="-4.565150">
        <ele>1486.0</ele>
        <time>2013-07-03T14:19:00Z</time>
      </trkpt>
      <trkpt lat="39.933800" lon="-4.565117">
        <ele>1488.0</ele>
        <time>2013-07-03T14:19:01Z</time>
      </trkpt>
      <trkpt lat="39.933717" lon="-4.565117">
        <ele>1490.0</ele>
        <time>2013-07-03T14:19:02Z</time>
      </trkpt>
      <trkpt lat="39.933650" lon="-4.565133">
        <ele>1493.0</ele>
        <time>2013-07-03T14:19:03Z</time>
      </trkpt>
      <trkpt lat="39.933617" lon="-4.565183">
        <ele>1495.0</ele>
        <time>2013-07-03T14:19:04Z</time>
      </trkpt>
      <trkpt lat="39.933600" lon="-4.565250">
        <ele>1498.0</ele>
        <time>2013-07-03T14:19:05Z</time>
      </trkpt>
      <trkpt lat="39.933600" lon="-4.565300">
        <ele>1501.0</ele>
        <time>2013-07-03T14:19:06Z</time>
      </trkpt>
      <trkpt lat="39.933600" lon="-4.565367">
        <ele>1504.0</ele>
        <time>2013-07-03T14:19:07Z</time>
      </trkpt>
      <trkpt lat="39.933600" lon="-4.565417">
        <ele>1508.0</ele>
        <time>2013-07-03T14:19:08Z</time>
      </trkpt>
      <trkpt lat="39.933617" lon="-4.565433">
        <ele>1512.0</ele>
        <time>2013-07-03T14:19:09Z</time>
      </trkpt>
      <trkpt lat="39.933650" lon="-4.565467">
        <ele>1514.0</ele>
        <time>2013-07-03T14:19:10Z</time>
      </trkpt>
      <trkpt lat="39.933700" lon="-4.565467">
        <ele>1517.0</ele>
        <time>2013-07-03T14:19:11Z</time>
      </trkpt>
      <trkpt lat="39.933750" lon="-4.565467">
        <ele>1519.0</ele>
        <time>2013-07-03T14:19:12Z</time>
      </trkpt>
      <trkpt lat="39.933800" lon="-4.565467">
        <ele>1522.0</ele>
        <time>2013-07-03T14:19:13Z</time>
      </trkpt>
      <trkpt lat="39.933850" lon="-4.565400">
        <ele>1525.0</ele>
        <time>2013-07-03T14:19:14Z</time>
      </trkpt>
      <trkpt lat="39.933883" lon="-4.565317">
        <ele>1527.0</ele>
        <time>2013-07-03T14:19:15Z</time>
      </trkpt>
      <trkpt lat="39.933900" lon="-4.565200">
        <ele>1529.0</ele>
        <time>2013-07-03T14:19:16Z</time>
      </trkpt>
      <trkpt lat="39.933917" lon="-4.565083">
        <ele>1532.0</ele>
        <time>2013-07-03T14:19:17Z</time>
      </trkpt>
      <trkpt lat="39.933917" lon="-4.564967">
        <ele>1535.0</ele>
        <time>2013-07-03T14:19:18Z</time>
      </trkpt>
      <trkpt lat="39.933917" lon="-4.564850">
        <ele>1537.0</ele>
        <time>2013-07-03T14:19:19Z</time>
      </trkpt>
      <trkpt lat="39.933917" lon="-4.564750">
        <ele>1539.0</ele>
        <time>2013-07-03T14:19:20Z</time>
      </trkpt>
      <trkpt lat="39.933933" lon="-4.564617">
        <ele>1541.0</ele>
        <time>2013-07-03T14:19:21Z</time>
      </trkpt>
      <trkpt lat="39.933950" lon="-4.564500">
        <ele>1544.0</ele>
        <time>2013-07-03T14:19:22Z</time>
      </trkpt>
      <trkpt lat="39.933950" lon="-4.564367">
        <ele>1548.0</ele>
        <time>2013-07-03T14:19:23Z</time>
      </trkpt>
      <trkpt lat="39.933933" lon="-4.564233">
        <ele>1551.0</ele>
        <time>2013-07-03T14:19:24Z</time>
      </trkpt>
      <trkpt lat="39.933900" lon="-4.564133">
        <ele>1554.0</ele>
        <time>2013-07-03T14:19:25Z</time>
      </trkpt>
      <trkpt lat="39.933850" lon="-4.564033">
        <ele>1556.0</ele>
        <time>2013-07-03T14:19:26Z</time>
      </trkpt>
      <trkpt lat="39.933800" lon="-4.563933">
        <ele>1559.0</ele>
        <time>2013-07-03T14:19:27Z</time>
      </trkpt>
      <trkpt lat="39.933733" lon="-4.563850">
        <ele>1561.0</ele>
        <time>2013-07-03T14:19:28Z</time>
      </trkpt>
      <trkpt lat="39.933683" lon="-4.563783">
        <ele>1564.0</ele>
        <time>2013-07-03T14:19:29Z</time>
      </trkpt>
      <trkpt lat="39.933617" lon="-4.563717">
        <ele>1566.0</ele>
        <time>2013-07-03T14:19:30Z</time>
      </trkpt>
      <trkpt lat="39.933550" lon="-4.563683">
        <ele>1567.0</ele>
        <time>2013-07-03T14:19:31Z</time>
      </trkpt>
      <trkpt lat="39.933467" lon="-4.563667">
        <ele>1568.0</ele>
        <time>2013-07-03T14:19:32Z</time>
      </trkpt>
      <trkpt lat="39.933400" lon="-4.563683">
        <ele>1569.0</ele>
        <time>2013-07-03T14:19:33Z</time>
      </trkpt>
      <trkpt lat="39.933333" lon="-4.563733">
        <ele>1570.0</ele>
        <time>2013-07-03T14:19:34Z</time>
      </trkpt>
      <trkpt lat="39.933283" lon="-4.563783">
        <ele>1572.0</ele>
        <time>2013-07-03T14:19:35Z</time>
      </trkpt>
      <trkpt lat="39.933267" lon="-4.563850">
        <ele>1575.0</ele>
        <time>2013-07-03T14:19:36Z</time>
      </trkpt>
      <trkpt lat="39.933233" lon="-4.563900">
        <ele>1577.0</ele>
        <time>2013-07-03T14:19:37Z</time>
      </trkpt>
      <trkpt lat="39.933233" lon="-4.563950">
        <ele>1580.0</ele>
        <time>2013-07-03T14:19:38Z</time>
      </trkpt>
      <trkpt lat="39.933217" lon="-4.564017">
        <ele>1583.0</ele>
        <time>2013-07-03T14:19:39Z</time>
      </trkpt>
      <trkpt lat="39.933217" lon="-4.564067">
        <ele>1587.0</ele>
        <time>2013-07-03T14:19:40Z</time>
      </trkpt>
      <trkpt lat="39.933217" lon="-4.564100">
        <ele>1591.0</ele>
        <time>2013-07-03T14:19:41Z</time>
      </trkpt>
      <trkpt lat="39.933233" lon="-4.564150">
        <ele>1593.0</ele>
        <time>2013-07-03T14:19:42Z</time>
      </trkpt>
      <trkpt lat="39.933233" lon="-4.564183">
        <ele>1595.0</ele>
        <time>2013-07-03T14:19:43Z</time>
      </trkpt>
      <trkpt lat="39.933267" lon="-4.564233">
        <ele>1598.0</ele>
        <time>2013-07-03T14:19:44Z</time>
      </trkpt>
      <trkpt lat="39.933317" lon="-4.564267">
        <ele>1600.0</ele>
        <time>2013-07-03T14:19:45Z</time>
      </trkpt>
      <trkpt lat="39.933383" lon="-4.564233">
        <ele>1602.0</ele>
        <time>2013-07-03T14:19:46Z</time>
      </trkpt>
      <trkpt lat="39.933433" lon="-4.564150">
        <ele>1603.0</ele>
        <time>2013-07-03T14:19:47Z</time>
      </trkpt>
      <trkpt lat="39.933483" lon="-4.564017">
        <ele>1605.0</ele>
        <time>2013-07-03T14:19:48Z</time>
      </trkpt>
      <trkpt lat="39.933500" lon="-4.563867">
        <ele>1607.0</ele>
        <time>2013-07-03T14:19:49Z</time>
      </trkpt>
      <trkpt lat="39.933500" lon="-4.563733">
        <ele>1611.0</ele>
        <time>2013-07-03T14:19:50Z</time>
      </trkpt>
      <trkpt lat="39.933467" lon="-4.563600">
        <ele>1614.0</ele>
        <time>2013-07-03T14:19:51Z</time>
      </trkpt>
      <trkpt lat="39.933417" lon="-4.563500">
        <ele>1616.0</ele>
        <time>2013-07-03T14:19:52Z</time>
      </trkpt>
      <trkpt lat="39.933350" lon="-4.563417">
        <ele>1619.0</ele>
        <time>2013-07-03T14:19:53Z</time>
      </trkpt>
      <trkpt lat="39.933267" lon="-4.563367">
        <ele>1621.0</ele>
        <time>2013-07-03T14:19:54Z</time>
      </trkpt>
      <trkpt lat="39.933200" lon="-4.563333">
        <ele>1624.0</ele>
        <time>2013-07-03T14:19:55Z</time>
      </trkpt>
      <trkpt lat="39.933133" lon="-4.563300">
        <ele>1626.0</ele>
        <time>2013-07-03T14:19:56Z</time>
      </trkpt>
      <trkpt lat="39.933050" lon="-4.563317">
        <ele>1628.0</ele>
        <time>2013-07-03T14:19:57Z</time>
      </trkpt>
      <trkpt lat="39.932983" lon="-4.563333">
        <ele>1630.0</ele>
        <time>2013-07-03T14:19:58Z</time>
      </trkpt>
      <trkpt lat="39.932933" lon="-4.563367">
        <ele>1633.0</ele>
        <time>2013-07-03T14:19:59Z</time>
      </trkpt>
      <trkpt lat="39.932900" lon="-4.563417">
        <ele>1636.0</ele>
        <time>2013-07-03T14:20:00Z</time>
      </trkpt>
      <trkpt lat="39.932883" lon="-4.563483">
        <ele>1638.0</ele>
        <time>2013-07-03T14:20:01Z</time>
      </trkpt>
      <trkpt lat="39.932900" lon="-4.563533">
        <ele>1640.0</ele>
        <time>2013-07-03T14:20:02Z</time>
      </trkpt>
      <trkpt lat="39.932933" lon="-4.563583">
        <ele>1643.0</ele>
        <time>2013-07-03T14:20:03Z</time>
      </trkpt>
      <trkpt lat="39.932967" lon="-4.563617">
        <ele>1646.0</ele>
        <time>2013-07-03T14:20:04Z</time>
      </trkpt>
      <trkpt lat="39.933017" lon="-4.563617">
        <ele>1648.0</ele>
        <time>2013-07-03T14:20:05Z</time>
      </trkpt>
      <trkpt lat="39.933083" lon="-4.563583">
        <ele>1651.0</ele>
        <time>2013-07-03T14:20:06Z</time>
      </trkpt>
      <trkpt lat="39.933150" lon="-4.563550">
        <ele>1653.0</ele>
        <time>2013-07-03T14:20:07Z</time>
      </trkpt>
      <trkpt lat="39.933200" lon="-4.563483">
        <ele>1655.0</ele>
        <time>2013-07-03T14:20:08Z</time>
      </trkpt>
      <trkpt lat="39.933267" lon="-4.563400">
        <ele>1657.0</ele>
        <time>2013-07-03T14:20:09Z</time>
      </trkpt>
      <trkpt lat="39.933300" lon="-4.563300">
        <ele>1660.0</ele>
        <time>2013-07-03T14:20:10Z</time>
      </trkpt>
      <trkpt lat="39.933333" lon="-4.563183">
        <ele>1662.0</ele>
        <time>2013-07-03T14:20:11Z</time>
      </trkpt>
      <trkpt lat="39.933333" lon="-4.563050">
        <ele>1664.0</ele>
        <time>2013-07-03T14:20:12Z</time>
      </trkpt>
      <trkpt lat="39.933317" lon="-4.562933">
        <ele>1667.0</ele>
        <time>2013-07-03T14:20:13Z</time>
      </trkpt>
      <trkpt lat="39.933283" lon="-4.562833">
        <ele>1669.0</ele>
        <time>2013-07-03T14:20:14Z</time>
      </trkpt>
      <trkpt lat="39.933233" lon="-4.562750">
        <ele>1672.0</ele>
        <time>2013-07-03T14:20:15Z</time>
      </trkpt>
      <trkpt lat="39.933183" lon="-4.562667">
        <ele>1674.0</ele>
        <time>2013-07-03T14:20:16Z</time>
      </trkpt>
      <trkpt lat="39.933117" lon="-4.562600">
        <ele>1676.0</ele>
        <time>2013-07-03T14:20:17Z</time>
      </trkpt>
      <trkpt lat="39.933050" lon="-4.562550">
        <ele>1678.0</ele>
        <time>2013-07-03T14:20:18Z</time>
      </trkpt>
      <trkpt lat="39.932983" lon="-4.562517">
        <ele>1680.0</ele>
        <time>2013-07-03T14:20:19Z</time>
      </trkpt>
      <trkpt lat="39.932917" lon="-4.562483">
        <ele>1682.0</ele>
        <time>2013-07-03T14:20:20Z</time>
      </trkpt>
      <trkpt lat="39.932833" lon="-4.562500">
        <ele>1684.0</ele>
        <time>2013-07-03T14:20:21Z</time>
      </trkpt>
      <trkpt lat="39.932767" lon="-4.562517">
        <ele>1685.0</ele>
        <time>2013-07-03T14:20:22Z</time>
      </trkpt>
      <trkpt lat="39.932700" lon="-4.562550">
        <ele>1687.0</ele>
        <time>2013-07-03T14:20:23Z</time>
      </trkpt>
      <trkpt lat="39.932650" lon="-4.562600">
        <ele>1690.0</ele>
        <time>2013-07-03T14:20:24Z</time>
      </trkpt>
      <trkpt lat="39.932617" lon="-4.562650">
        <ele>1692.0</ele>
        <time>2013-07-03T14:20:25Z</time>
      </trkpt>
      <trkpt lat="39.932583" lon="-4.562717">
        <ele>1694.0</ele>
        <time>2013-07-03T14:20:26Z</time>
      </trkpt>
      <trkpt lat="39.932567" lon="-4.562767">
        <ele>1697.0</ele>
        <time>2013-07-03T14:20:27Z</time>
      </trkpt>
      <trkpt lat="39.932567" lon="-4.562833">
        <ele>1699.0</ele>
        <time>2013-07-03T14:20:28Z</time>
      </trkpt>
      <trkpt lat="39.932567" lon="-4.562900">
        <ele>1703.0</ele>
        <time>2013-07-03T14:20:29Z</time>
      </trkpt>
      <trkpt lat="39.932583" lon="-4.562950">
        <ele>1706.0</ele>
        <time>2013-07-03T14:20:30Z</time>
      </trkpt>
      <trkpt lat="39.932600" lon="-4.562983">
        <ele>1708.0</ele>
        <time>2013-07-03T14:20:31Z</time>
      </trkpt>
      <trkpt lat="39.932617" lon="-4.563017">
        <ele>1711.0</ele>
        <time>2013-07-03T14:20:32Z</time>
      </trkpt>
      <trkpt lat="39.932633" lon="-4.563033">
        <ele>1714.0</ele>
        <time>2013-07-03T14:20:33Z</time>
      </trkpt>
      <trkpt lat="39.932650" lon="-4.563050">
        <ele>1716.0</ele>
        <time>2013-07-03T14:20:34Z</time>
      </trkpt>
      <trkpt lat="39.932683" lon="-4.563067">
        <ele>1719.0</ele>
        <time>2013-07-03T14:20:35Z</time>
      </trkpt>
      <trkpt lat="39.932717" lon="-4.563083">
        <ele>1722.0</ele>
        <time>2013-07-03T14:20:36Z</time>
      </trkpt>
      <trkpt lat="39.932733" lon="-4.563100">
        <ele>1727.0</ele>
        <time>2013-07-03T14:20:37Z</time>
      </trkpt>
      <trkpt lat="39.932750" lon="-4.563117">
        <ele>1731.0</ele>
        <time>2013-07-03T14:20:38Z</time>
      </trkpt>
      <trkpt lat="39.932750" lon="-4.563133">
        <ele>1735.0</ele>
        <time>2013-07-03T14:20:39Z</time>
      </trkpt>
      <trkpt lat="39.932767" lon="-4.563133">
        <ele>1738.0</ele>
        <time>2013-07-03T14:20:40Z</time>
      </trkpt>
      <trkpt lat="39.932800" lon="-4.563117">
        <ele>1740.0</ele>
        <time>2013-07-03T14:20:41Z</time>
      </trkpt>
      <trkpt lat="39.932850" lon="-4.563100">
        <ele>1741.0</ele>
        <time>2013-07-03T14:20:42Z</time>
      </trkpt>
      <trkpt lat="39.932900" lon="-4.563033">
        <ele>1743.0</ele>
        <time>2013-07-03T14:20:43Z</time>
      </trkpt>
      <trkpt lat="39.932917" lon="-4.562950">
        <ele>1746.0</ele>
        <time>2013-07-03T14:20:44Z</time>
      </trkpt>
      <trkpt lat="39.932900" lon="-4.562833">
        <ele>1747.0</ele>
        <time>2013-07-03T14:20:45Z</time>
      </trkpt>
      <trkpt lat="39.932883" lon="-4.562717">
        <ele>1750.0</ele>
        <time>2013-07-03T14:20:46Z</time>
      </trkpt>
      <trkpt lat="39.932867" lon="-4.562600">
        <ele>1753.0</ele>
        <time>2013-07-03T14:20:47Z</time>
      </trkpt>
      <trkpt lat="39.932850" lon="-4.562500">
        <ele>1756.0</ele>
        <time>2013-07-03T14:20:48Z</time>
      </trkpt>
      <trkpt lat="39.932817" lon="-4.562400">
        <ele>1759.0</ele>
        <time>2013-07-03T14:20:49Z</time>
      </trkpt>
      <trkpt lat="39.932783" lon="-4.562300">
        <ele>1761.0</ele>
        <time>2013-07-03T14:20:50Z</time>
      </trkpt>
      <trkpt lat="39.932717" lon="-4.562200">
        <ele>1763.0</ele>
        <time>2013-07-03T14:20:51Z</time>
      </trkpt>
      <trkpt lat="39.932650" lon="-4.562117">
        <ele>1765.0</ele>
        <time>2013-07-03T14:20:52Z</time>
      </trkpt>
      <trkpt lat="39.932583" lon="-4.562033">
        <ele>1768.0</ele>
        <time>2013-07-03T14:20:53Z</time>
      </trkpt>
      <trkpt lat="39.932517" lon="-4.561983">
        <ele>1771.0</ele>
        <time>2013-07-03T14:20:54Z</time>
      </trkpt>
      <trkpt lat="39.932433" lon="-4.561933">
        <ele>1774.0</ele>
        <time>2013-07-03T14:20:55Z</time>
      </trkpt>
      <trkpt lat="39.932350" lon="-4.561917">
        <ele>1776.0</ele>
        <time>2013-07-03T14:20:56Z</time>
      </trkpt>
      <trkpt lat="39.932267" lon="-4.561900">
        <ele>1778.0</ele>
        <time>2013-07-03T14:20:57Z</time>
      </trkpt>
      <trkpt lat="39.932167" lon="-4.561883">
        <ele>1781.0</ele>
        <time>2013-07-03T14:20:58Z</time>
      </trkpt>
      <trkpt lat="39.932083" lon="-4.561883">
        <ele>1783.0</ele>
        <time>2013-07-03T14:20:59Z</time>
      </trkpt>
      <trkpt lat="39.932000" lon="-4.561900">
        <ele>1786.0</ele>
        <time>2013-07-03T14:21:00Z</time>
      </trkpt>
      <trkpt lat="39.931933" lon="-4.561900">
        <ele>1789.0</ele>
        <time>2013-07-03T14:21:01Z</time>
      </trkpt>
      <trkpt lat="39.931850" lon="-4.561900">
        <ele>1791.0</ele>
        <time>2013-07-03T14:21:02Z</time>
      </trkpt>
      <trkpt lat="39.931767" lon="-4.561900">
        <ele>1794.0</ele>
        <time>2013-07-03T14:21:03Z</time>
      </trkpt>
      <trkpt lat="39.931683" lon="-4.561900">
        <ele>1796.0</ele>
        <time>2013-07-03T14:21:04Z</time>
      </trkpt>
      <trkpt lat="39.931583" lon="-4.561867">
        <ele>1799.0</ele>
        <time>2013-07-03T14:21:05Z</time>
      </trkpt>
      <trkpt lat="39.931517" lon="-4.561800">
        <ele>1801.0</ele>
        <time>2013-07-03T14:21:06Z</time>
      </trkpt>
      <trkpt lat="39.931450" lon="-4.561717">
        <ele>1803.0</ele>
        <time>2013-07-03T14:21:07Z</time>
      </trkpt>
      <trkpt lat="39.931383" lon="-4.561600">
        <ele>1804.0</ele>
        <time>2013-07-03T14:21:08Z</time>
      </trkpt>
      <trkpt lat="39.931333" lon="-4.561483">
        <ele>1806.0</ele>
        <time>2013-07-03T14:21:09Z</time>
      </trkpt>
      <trkpt lat="39.931300" lon="-4.561367">
        <ele>1809.0</ele>
        <time>2013-07-03T14:21:10Z</time>
      </trkpt>
      <trkpt lat="39.931267" lon="-4.561250">
        <ele>1811.0</ele>
        <time>2013-07-03T14:21:11Z</time>
      </trkpt>
      <trkpt lat="39.931283" lon="-4.561133">
        <ele>1812.0</ele>
        <time>2013-07-03T14:21:12Z</time>
      </trkpt>
      <trkpt lat="39.931333" lon="-4.561033">
        <ele>1813.0</ele>
        <time>2013-07-03T14:21:13Z</time>
      </trkpt>
      <trkpt lat="39.931383" lon="-4.560950">
        <ele>1813.0</ele>
        <time>2013-07-03T14:21:14Z</time>
      </trkpt>
      <trkpt lat="39.931433" lon="-4.560900">
        <ele>1814.0</ele>
        <time>2013-07-03T14:21:15Z</time>
      </trkpt>
      <trkpt lat="39.931500" lon="-4.560883">
        <ele>1815.0</ele>
        <time>2013-07-03T14:21:16Z</time>
      </trkpt>
      <trkpt lat="39.931567" lon="-4.560867">
        <ele>1817.0</ele>
        <time>2013-07-03T14:21:17Z</time>
      </trkpt>
      <trkpt lat="39.931617" lon="-4.560850">
        <ele>1818.0</ele>
        <time>2013-07-03T14:21:18Z</time>
      </trkpt>
      <trkpt lat="39.931667" lon="-4.560833">
        <ele>1820.0</ele>
        <time>2013-07-03T14:21:19Z</time>
      </trkpt>
      <trkpt lat="39.931717" lon="-4.560833">
        <ele>1821.0</ele>
        <time>2013-07-03T14:21:20Z</time>
      </trkpt>
      <trkpt lat="39.931767" lon="-4.560833">
        <ele>1822.0</ele>
        <time>2013-07-03T14:21:21Z</time>
      </trkpt>
      <trkpt lat="39.931817" lon="-4.560850">
        <ele>1823.0</ele>
        <time>2013-07-03T14:21:22Z</time>
      </trkpt>
      <trkpt lat="39.931867" lon="-4.560883">
        <ele>1824.0</ele>
        <time>2013-07-03T14:21:23Z</time>
      </trkpt>
      <trkpt lat="39.931917" lon="-4.560950">
        <ele>1824.0</ele>
        <time>2013-07-03T14:21:24Z</time>
      </trkpt>
      <trkpt lat="39.931950" lon="-4.561033">
        <ele>1826.0</ele>
        <time>2013-07-03T14:21:25Z</time>
      </trkpt>
      <trkpt lat="39.931983" lon="-4.561117">
        <ele>1828.0</ele>
        <time>2013-07-03T14:21:26Z</time>
      </trkpt>
      <trkpt lat="39.932017" lon="-4.561183">
        <ele>1831.0</ele>
        <time>2013-07-03T14:21:27Z</time>
      </trkpt>
      <trkpt lat="39.932050" lon="-4.561250">
        <ele>1834.0</ele>
        <time>2013-07-03T14:21:28Z</time>
      </trkpt>
      <trkpt lat="39.932083" lon="-4.561317">
        <ele>1837.0</ele>
        <time>2013-07-03T14:21:29Z</time>
      </trkpt>
      <trkpt lat="39.932117" lon="-4.561367">
        <ele>1840.0</ele>
        <time>2013-07-03T14:21:30Z</time>
      </trkpt>
      <trkpt lat="39.932150" lon="-4.561417">
        <ele>1844.0</ele>
        <time>2013-07-03T14:21:31Z</time>
      </trkpt>
      <trkpt lat="39.932167" lon="-4.561483">
        <ele>1847.0</ele>
        <time>2013-07-03T14:21:32Z</time>
      </trkpt>
      <trkpt lat="39.932150" lon="-4.561567">
        <ele>1850.0</ele>
        <time>2013-07-03T14:21:33Z</time>
      </trkpt>
      <trkpt lat="39.932150" lon="-4.561650">
        <ele>1853.0</ele>
        <time>2013-07-03T14:21:34Z</time>
      </trkpt>
      <trkpt lat="39.932117" lon="-4.561733">
        <ele>1855.0</ele>
        <time>2013-07-03T14:21:35Z</time>
      </trkpt>
      <trkpt lat="39.932083" lon="-4.561800">
        <ele>1858.0</ele>
        <time>2013-07-03T14:21:36Z</time>
      </trkpt>
      <trkpt lat="39.932017" lon="-4.561867">
        <ele>1860.0</ele>
        <time>2013-07-03T14:21:37Z</time>
      </trkpt>
      <trkpt lat="39.931950" lon="-4.561900">
        <ele>1861.0</ele>
        <time>2013-07-03T14:21:38Z</time>
      </trkpt>
      <trkpt lat="39.931850" lon="-4.561950">
        <ele>1862.0</ele>
        <time>2013-07-03T14:21:39Z</time>
      </trkpt>
      <trkpt lat="39.931733" lon="-4.561950">
        <ele>1863.0</ele>
        <time>2013-07-03T14:21:40Z</time>
      </trkpt>
      <trkpt lat="39.931617" lon="-4.561933">
        <ele>1864.0</ele>
        <time>2013-07-03T14:21:41Z</time>
      </trkpt>
      <trkpt lat="39.931500" lon="-4.561867">
        <ele>1866.0</ele>
        <time>2013-07-03T14:21:42Z</time>
      </trkpt>
      <trkpt lat="39.931400" lon="-4.561767">
        <ele>1867.0</ele>
        <time>2013-07-03T14:21:43Z</time>
      </trkpt>
      <trkpt lat="39.931300" lon="-4.561667">
        <ele>1869.0</ele>
        <time>2013-07-03T14:21:44Z</time>
      </trkpt>
      <trkpt lat="39.931233" lon="-4.561550">
        <ele>1871.0</ele>
        <time>2013-07-03T14:21:45Z</time>
      </trkpt>
      <trkpt lat="39.931200" lon="-4.561417">
        <ele>1873.0</ele>
        <time>2013-07-03T14:21:46Z</time>
      </trkpt>
      <trkpt lat="39.931200" lon="-4.561300">
        <ele>1875.0</ele>
        <time>2013-07-03T14:21:47Z</time>
      </trkpt>
      <trkpt lat="39.931233" lon="-4.561200">
        <ele>1878.0</ele>
        <time>2013-07-03T14:21:48Z</time>
      </trkpt>
      <trkpt lat="39.931283" lon="-4.561150">
        <ele>1882.0</ele>
        <time>2013-07-03T14:21:49Z</time>
      </trkpt>
      <trkpt lat="39.931333" lon="-4.561117">
        <ele>1886.0</ele>
        <time>2013-07-03T14:21:50Z</time>
      </trkpt>
      <trkpt lat="39.931383" lon="-4.561100">
        <ele>1889.0</ele>
        <time>2013-07-03T14:21:51Z</time>
      </trkpt>
      <trkpt lat="39.931433" lon="-4.561083">
        <ele>1892.0</ele>
        <time>2013-07-03T14:21:52Z</time>
      </trkpt>
      <trkpt lat="39.931483" lon="-4.561067">
        <ele>1894.0</ele>
        <time>2013-07-03T14:21:53Z</time>
      </trkpt>
      <trkpt lat="39.931533" lon="-4.561050">
        <ele>1897.0</ele>
        <time>2013-07-03T14:21:54Z</time>
      </trkpt>
      <trkpt lat="39.931583" lon="-4.561050">
        <ele>1900.0</ele>
        <time>2013-07-03T14:21:55Z</time>
      </trkpt>
      <trkpt lat="39.931633" lon="-4.561083">
        <ele>1903.0</ele>
        <time>2013-07-03T14:21:56Z</time>
      </trkpt>
      <trkpt lat="39.931667" lon="-4.561133">
        <ele>1905.0</ele>
        <time>2013-07-03T14:21:57Z</time>
      </trkpt>
      <trkpt lat="39.931683" lon="-4.561200">
        <ele>1907.0</ele>
        <time>2013-07-03T14:21:58Z</time>
      </trkpt>
      <trkpt lat="39.931683" lon="-4.561283">
        <ele>1910.0</ele>
        <time>2013-07-03T14:21:59Z</time>
      </trkpt>
      <trkpt lat="39.931667" lon="-4.561367">
        <ele>1913.0</ele>
        <time>2013-07-03T14:22:00Z</time>
      </trkpt>
      <trkpt lat="39.931633" lon="-4.561433">
        <ele>1915.0</ele>
        <time>2013-07-03T14:22:01Z</time>
      </trkpt>
      <trkpt lat="39.931583" lon="-4.561500">
        <ele>1917.0</ele>
        <time>2013-07-03T14:22:02Z</time>
      </trkpt>
      <trkpt lat="39.931533" lon="-4.561567">
        <ele>1919.0</ele>
        <time>2013-07-03T14:22:03Z</time>
      </trkpt>
      <trkpt lat="39.931483" lon="-4.561633">
        <ele>1921.0</ele>
        <time>2013-07-03T14:22:04Z</time>
      </trkpt>
      <trkpt lat="39.931417" lon="-4.561683">
        <ele>1922.0</ele>
        <time>2013-07-03T14:22:05Z</time>
      </trkpt>
      <trkpt lat="39.931350" lon="-4.561733">
        <ele>1923.0</ele>
        <time>2013-07-03T14:22:06Z</time>
      </trkpt>
      <trkpt lat="39.931267" lon="-4.561767">
        <ele>1925.0</ele>
        <time>2013-07-03T14:22:07Z</time>
      </trkpt>
      <trkpt lat="39.931167" lon="-4.561783">
        <ele>1926.0</ele>
        <time>2013-07-03T14:22:08Z</time>
      </trkpt>
      <trkpt lat="39.931083" lon="-4.561783">
        <ele>1927.0</ele>
        <time>2013-07-03T14:22:09Z</time>
      </trkpt>
      <trkpt lat="39.930983" lon="-4.561767">
        <ele>1929.0</ele>
        <time>2013-07-03T14:22:10Z</time>
      </trkpt>
      <trkpt lat="39.930900" lon="-4.561733">
        <ele>1931.0</ele>
        <time>2013-07-03T14:22:11Z</time>
      </trkpt>
      <trkpt lat="39.930800" lon="-4.561683">
        <ele>1933.0</ele>
        <time>2013-07-03T14:22:12Z</time>
      </trkpt>
      <trkpt lat="39.930700" lon="-4.561633">
        <ele>1934.0</ele>
        <time>2013-07-03T14:22:13Z</time>
      </trkpt>
      <trkpt lat="39.930600" lon="-4.561567">
        <ele>1937.0</ele>
        <time>2013-07-03T14:22:14Z</time>
      </trkpt>
      <trkpt lat="39.930517" lon="-4.561483">
        <ele>1939.0</ele>
        <time>2013-07-03T14:22:15Z</time>
      </trkpt>
      <trkpt lat="39.930450" lon="-4.561383">
        <ele>1939.0</ele>
        <time>2013-07-03T14:22:16Z</time>
      </trkpt>
      <trkpt lat="39.930400" lon="-4.561283">
        <ele>1940.0</ele>
        <time>2013-07-03T14:22:17Z</time>
      </trkpt>
      <trkpt lat="39.930350" lon="-4.561167">
        <ele>1941.0</ele>
        <time>2013-07-03T14:22:18Z</time>
      </trkpt>
      <trkpt lat="39.930300" lon="-4.561033">
        <ele>1943.0</ele>
        <time>2013-07-03T14:22:19Z</time>
      </trkpt>
      <trkpt lat="39.930233" lon="-4.560917">
        <ele>1945.0</ele>
        <time>2013-07-03T14:22:20Z</time>
      </trkpt>
      <trkpt lat="39.930167" lon="-4.560800">
        <ele>1948.0</ele>
        <time>2013-07-03T14:22:21Z</time>
      </trkpt>
      <trkpt lat="39.930117" lon="-4.560700">
        <ele>1952.0</ele>
        <time>2013-07-03T14:22:22Z</time>
      </trkpt>
      <trkpt lat="39.930100" lon="-4.560600">
        <ele>1955.0</ele>
        <time>2013-07-03T14:22:23Z</time>
      </trkpt>
      <trkpt lat="39.930100" lon="-4.560500">
        <ele>1957.0</ele>
        <time>2013-07-03T14:22:24Z</time>
      </trkpt>
      <trkpt lat="39.930100" lon="-4.560400">
        <ele>1960.0</ele>
        <time>2013-07-03T14:22:25Z</time>
      </trkpt>
      <trkpt lat="39.930100" lon="-4.560317">
        <ele>1962.0</ele>
        <time>2013-07-03T14:22:26Z</time>
      </trkpt>
      <trkpt lat="39.930133" lon="-4.560233">
        <ele>1964.0</ele>
        <time>2013-07-03T14:22:27Z</time>
      </trkpt>
      <trkpt lat="39.930167" lon="-4.560183">
        <ele>1966.0</ele>
        <time>2013-07-03T14:22:28Z</time>
      </trkpt>
      <trkpt lat="39.930217" lon="-4.560150">
        <ele>1968.0</ele>
        <time>2013-07-03T14:22:29Z</time>
      </trkpt>
      <trkpt lat="39.930250" lon="-4.560167">
        <ele>1970.0</ele>
        <time>2013-07-03T14:22:30Z</time>
      </trkpt>
      <trkpt lat="39.930283" lon="-4.560200">
        <ele>1972.0</ele>
        <time>2013-07-03T14:22:31Z</time>
      </trkpt>
      <trkpt lat="39.930317" lon="-4.560233">
        <ele>1974.0</ele>
        <time>2013-07-03T14:22:32Z</time>
      </trkpt>
      <trkpt lat="39.930333" lon="-4.560267">
        <ele>1976.0</ele>
        <time>2013-07-03T14:22:33Z</time>
      </trkpt>
      <trkpt lat="39.930350" lon="-4.560317">
        <ele>1978.0</ele>
        <time>2013-07-03T14:22:34Z</time>
      </trkpt>
      <trkpt lat="39.930367" lon="-4.560383">
        <ele>1980.0</ele>
        <time>2013-07-03T14:22:35Z</time>
      </trkpt>
      <trkpt lat="39.930383" lon="-4.560467">
        <ele>1982.0</ele>
        <time>2013-07-03T14:22:36Z</time>
      </trkpt>
      <trkpt lat="39.930367" lon="-4.560550">
        <ele>1984.0</ele>
        <time>2013-07-03T14:22:37Z</time>
      </trkpt>
      <trkpt lat="39.930333" lon="-4.560633">
        <ele>1986.0</ele>
        <time>2013-07-03T14:22:38Z</time>
      </trkpt>
      <trkpt lat="39.930250" lon="-4.560683">
        <ele>1988.0</ele>
        <time>2013-07-03T14:22:39Z</time>
      </trkpt>
      <trkpt lat="39.930167" lon="-4.560750">
        <ele>1989.0</ele>
        <time>2013-07-03T14:22:40Z</time>
      </trkpt>
      <trkpt lat="39.930067" lon="-4.560783">
        <ele>1991.0</ele>
        <time>2013-07-03T14:22:41Z</time>
      </trkpt>
      <trkpt lat="39.929967" lon="-4.560800">
        <ele>1994.0</ele>
        <time>2013-07-03T14:22:42Z</time>
      </trkpt>
      <trkpt lat="39.929867" lon="-4.560800">
        <ele>1995.0</ele>
        <time>2013-07-03T14:22:43Z</time>
      </trkpt>
      <trkpt lat="39.929750" lon="-4.560767">
        <ele>1996.0</ele>
        <time>2013-07-03T14:22:44Z</time>
      </trkpt>
      <trkpt lat="39.929633" lon="-4.560717">
        <ele>1998.0</ele>
        <time>2013-07-03T14:22:45Z</time>
      </trkpt>
      <trkpt lat="39.929533" lon="-4.560667">
        <ele>2000.0</ele>
        <time>2013-07-03T14:22:46Z</time>
      </trkpt>
      <trkpt lat="39.929417" lon="-4.560617">
        <ele>2002.0</ele>
        <time>2013-07-03T14:22:47Z</time>
      </trkpt>
      <trkpt lat="39.929333" lon="-4.560550">
        <ele>2003.0</ele>
        <time>2013-07-03T14:22:48Z</time>
      </trkpt>
      <trkpt lat="39.929233" lon="-4.560467">
        <ele>2004.0</ele>
        <time>2013-07-03T14:22:49Z</time>
      </trkpt>
      <trkpt lat="39.929183" lon="-4.560333">
        <ele>2004.0</ele>
        <time>2013-07-03T14:22:50Z</time>
      </trkpt>
      <trkpt lat="39.929150" lon="-4.560200">
        <ele>2006.0</ele>
        <time>2013-07-03T14:22:51Z</time>
      </trkpt>
      <trkpt lat="39.929133" lon="-4.560083">
        <ele>2010.0</ele>
        <time>2013-07-03T14:22:52Z</time>
      </trkpt>
      <trkpt lat="39.929150" lon="-4.560000">
        <ele>2014.0</ele>
        <time>2013-07-03T14:22:53Z</time>
      </trkpt>
      <trkpt lat="39.929150" lon="-4.559917">
        <ele>2017.0</ele>
        <time>2013-07-03T14:22:54Z</time>
      </trkpt>
      <trkpt lat="39.929167" lon="-4.559850">
        <ele>2020.0</ele>
        <time>2013-07-03T14:22:55Z</time>
      </trkpt>
      <trkpt lat="39.929200" lon="-4.559800">
        <ele>2022.0</ele>
        <time>2013-07-03T14:22:56Z</time>
      </trkpt>
      <trkpt lat="39.929233" lon="-4.559750">
        <ele>2023.0</ele>
        <time>2013-07-03T14:22:57Z</time>
      </trkpt>
      <trkpt lat="39.929283" lon="-4.559733">
        <ele>2025.0</ele>
        <time>2013-07-03T14:22:58Z</time>
      </trkpt>
      <trkpt lat="39.929333" lon="-4.559750">
        <ele>2026.0</ele>
        <time>2013-07-03T14:22:59Z</time>
      </trkpt>
      <trkpt lat="39.929350" lon="-4.559800">
        <ele>2028.0</ele>
        <time>2013-07-03T14:23:00Z</time>
      </trkpt>
      <trkpt lat="39.929367" lon="-4.559867">
        <ele>2031.0</ele>
        <time>2013-07-03T14:23:01Z</time>
      </trkpt>
      <trkpt lat="39.929367" lon="-4.559950">
        <ele>2033.0</ele>
        <time>2013-07-03T14:23:02Z</time>
      </trkpt>
      <trkpt lat="39.929350" lon="-4.560033">
        <ele>2035.0</ele>
        <time>2013-07-03T14:23:03Z</time>
      </trkpt>
      <trkpt lat="39.929333" lon="-4.560117">
        <ele>2037.0</ele>
        <time>2013-07-03T14:23:04Z</time>
      </trkpt>
      <trkpt lat="39.929283" lon="-4.560200">
        <ele>2039.0</ele>
        <time>2013-07-03T14:23:05Z</time>
      </trkpt>
      <trkpt lat="39.929217" lon="-4.560283">
        <ele>2040.0</ele>
        <time>2013-07-03T14:23:06Z</time>
      </trkpt>
      <trkpt lat="39.929133" lon="-4.560350">
        <ele>2042.0</ele>
        <time>2013-07-03T14:23:07Z</time>
      </trkpt>
      <trkpt lat="39.929033" lon="-4.560383">
        <ele>2044.0</ele>
        <time>2013-07-03T14:23:08Z</time>
      </trkpt>
      <trkpt lat="39.928933" lon="-4.560400">
        <ele>2046.0</ele>
        <time>2013-07-03T14:23:09Z</time>
      </trkpt>
      <trkpt lat="39.928833" lon="-4.560400">
        <ele>2048.0</ele>
        <time>2013-07-03T14:23:10Z</time>
      </trkpt>
      <trkpt lat="39.928717" lon="-4.560383">
        <ele>2050.0</ele>
        <time>2013-07-03T14:23:11Z</time>
      </trkpt>
      <trkpt lat="39.928617" lon="-4.560350">
        <ele>2052.0</ele>
        <time>2013-07-03T14:23:12Z</time>
      </trkpt>
      <trkpt lat="39.928517" lon="-4.560317">
        <ele>2053.0</ele>
        <time>2013-07-03T14:23:13Z</time>
      </trkpt>
      <trkpt lat="39.928433" lon="-4.560267">
        <ele>2053.0</ele>
        <time>2013-07-03T14:23:14Z</time>
      </trkpt>
      <trkpt lat="39.928333" lon="-4.560200">
        <ele>2053.0</ele>
        <time>2013-07-03T14:23:15Z</time>
      </trkpt>
      <trkpt lat="39.928233" lon="-4.560083">
        <ele>2054.0</ele>
        <time>2013-07-03T14:23:16Z</time>
      </trkpt>
      <trkpt lat="39.928167" lon="-4.559967">
        <ele>2056.0</ele>
        <time>2013-07-03T14:23:17Z</time>
      </trkpt>
      <trkpt lat="39.928133" lon="-4.559833">
        <ele>2058.0</ele>
        <time>2013-07-03T14:23:18Z</time>
      </trkpt>
      <trkpt lat="39.928117" lon="-4.559717">
        <ele>2061.0</ele>
        <time>2013-07-03T14:23:19Z</time>
      </trkpt>
      <trkpt lat="39.928117" lon="-4.559617">
        <ele>2063.0</ele>
        <time>2013-07-03T14:23:20Z</time>
      </trkpt>
      <trkpt lat="39.928133" lon="-4.559550">
        <ele>2066.0</ele>
        <time>2013-07-03T14:23:21Z</time>
      </trkpt>
      <trkpt lat="39.928167" lon="-4.559483">
        <ele>2068.0</ele>
        <time>2013-07-03T14:23:22Z</time>
      </trkpt>
      <trkpt lat="39.928217" lon="-4.559450">
        <ele>2070.0</ele>
        <time>2013-07-03T14:23:23Z</time>
      </trkpt>
      <trkpt lat="39.928267" lon="-4.559450">
        <ele>2071.0</ele>
        <time>2013-07-03T14:23:24Z</time>
      </trkpt>
      <trkpt lat="39.928283" lon="-4.559517">
        <ele>2073.0</ele>
        <time>2013-07-03T14:23:25Z</time>
      </trkpt>
      <trkpt lat="39.928300" lon="-4.559583">
        <ele>2075.0</ele>
        <time>2013-07-03T14:23:26Z</time>
      </trkpt>
      <trkpt lat="39.928283" lon="-4.559650">
        <ele>2077.0</ele>
        <time>2013-07-03T14:23:27Z</time>
      </trkpt>
      <trkpt lat="39.928267" lon="-4.559733">
        <ele>2079.0</ele>
        <time>2013-07-03T14:23:28Z</time>
      </trkpt>
      <trkpt lat="39.928217" lon="-4.559817">
        <ele>2081.0</ele>
        <time>2013-07-03T14:23:29Z</time>
      </trkpt>
      <trkpt lat="39.928150" lon="-4.559900">
        <ele>2082.0</ele>
        <time>2013-07-03T14:23:30Z</time>
      </trkpt>
      <trkpt lat="39.928067" lon="-4.559967">
        <ele>2084.0</ele>
        <time>2013-07-03T14:23:31Z</time>
      </trkpt>
      <trkpt lat="39.927967" lon="-4.560017">
        <ele>2086.0</ele>
        <time>2013-07-03T14:23:32Z</time>
      </trkpt>
      <trkpt lat="39.927850" lon="-4.560050">
        <ele>2088.0</ele>
        <time>2013-07-03T14:23:33Z</time>
      </trkpt>
      <trkpt lat="39.927750" lon="-4.560050">
        <ele>2091.0</ele>
        <time>2013-07-03T14:23:34Z</time>
      </trkpt>
      <trkpt lat="39.927650" lon="-4.560050">
        <ele>2093.0</ele>
        <time>2013-07-03T14:23:35Z</time>
      </trkpt>
      <trkpt lat="39.927533" lon="-4.560017">
        <ele>2095.0</ele>
        <time>2013-07-03T14:23:36Z</time>
      </trkpt>
      <trkpt lat="39.927433" lon="-4.559983">
        <ele>2097.0</ele>
        <time>2013-07-03T14:23:37Z</time>
      </trkpt>
      <trkpt lat="39.927350" lon="-4.559933">
        <ele>2099.0</ele>
        <time>2013-07-03T14:23:38Z</time>
      </trkpt>
      <trkpt lat="39.927267" lon="-4.559867">
        <ele>2101.0</ele>
        <time>2013-07-03T14:23:39Z</time>
      </trkpt>
      <trkpt lat="39.927183" lon="-4.559783">
        <ele>2102.0</ele>
        <time>2013-07-03T14:23:40Z</time>
      </trkpt>
      <trkpt lat="39.927133" lon="-4.559683">
        <ele>2104.0</ele>
        <time>2013-07-03T14:23:41Z</time>
      </trkpt>
      <trkpt lat="39.927083" lon="-4.559567">
        <ele>2106.0</ele>
        <time>2013-07-03T14:23:42Z</time>
      </trkpt>
      <trkpt lat="39.927067" lon="-4.559467">
        <ele>2107.0</ele>
        <time>2013-07-03T14:23:43Z</time>
      </trkpt>
      <trkpt lat="39.927050" lon="-4.559367">
        <ele>2109.0</ele>
        <time>2013-07-03T14:23:44Z</time>
      </trkpt>
      <trkpt lat="39.927067" lon="-4.559283">
        <ele>2110.0</ele>
        <time>2013-07-03T14:23:45Z</time>
      </trkpt>
      <trkpt lat="39.927083" lon="-4.559200">
        <ele>2112.0</ele>
        <time>2013-07-03T14:23:46Z</time>
      </trkpt>
      <trkpt lat="39.927117" lon="-4.559133">
        <ele>2113.0</ele>
        <time>2013-07-03T14:23:47Z</time>
      </trkpt>
      <trkpt lat="39.927167" lon="-4.559100">
        <ele>2114.0</ele>
        <time>2013-07-03T14:23:48Z</time>
      </trkpt>
      <trkpt lat="39.927217" lon="-4.559067">
        <ele>2116.0</ele>
        <time>2013-07-03T14:23:49Z</time>
      </trkpt>
      <trkpt lat="39.927267" lon="-4.559067">
        <ele>2117.0</ele>
        <time>2013-07-03T14:23:50Z</time>
      </trkpt>
      <trkpt lat="39.927300" lon="-4.559100">
        <ele>2119.0</ele>
        <time>2013-07-03T14:23:51Z</time>
      </trkpt>
      <trkpt lat="39.927333" lon="-4.559150">
        <ele>2122.0</ele>
        <time>2013-07-03T14:23:52Z</time>
      </trkpt>
      <trkpt lat="39.927333" lon="-4.559217">
        <ele>2124.0</ele>
        <time>2013-07-03T14:23:53Z</time>
      </trkpt>
      <trkpt lat="39.927317" lon="-4.559283">
        <ele>2126.0</ele>
        <time>2013-07-03T14:23:54Z</time>
      </trkpt>
      <trkpt lat="39.927300" lon="-4.559350">
        <ele>2128.0</ele>
        <time>2013-07-03T14:23:55Z</time>
      </trkpt>
      <trkpt lat="39.927250" lon="-4.559450">
        <ele>2129.0</ele>
        <time>2013-07-03T14:23:56Z</time>
      </trkpt>
      <trkpt lat="39.927200" lon="-4.559533">
        <ele>2130.0</ele>
        <time>2013-07-03T14:23:57Z</time>
      </trkpt>
      <trkpt lat="39.927117" lon="-4.559617">
        <ele>2131.0</ele>
        <time>2013-07-03T14:23:58Z</time>
      </trkpt>
      <trkpt lat="39.927017" lon="-4.559683">
        <ele>2133.0</ele>
        <time>2013-07-03T14:23:59Z</time>
      </trkpt>
      <trkpt lat="39.926917" lon="-4.559717">
        <ele>2135.0</ele>
        <time>2013-07-03T14:24:00Z</time>
      </trkpt>
      <trkpt lat="39.926817" lon="-4.559750">
        <ele>2137.0</ele>
        <time>2013-07-03T14:24:01Z</time>
      </trkpt>
      <trkpt lat="39.926700" lon="-4.559750">
        <ele>2139.0</ele>
        <time>2013-07-03T14:24:02Z</time>
      </trkpt>
      <trkpt lat="39.926600" lon="-4.559717">
        <ele>2140.0</ele>
        <time>2013-07-03T14:24:03Z</time>
      </trkpt>
      <trkpt lat="39.926500" lon="-4.559683">
        <ele>2141.0</ele>
        <time>2013-07-03T14:24:04Z</time>
      </trkpt>
      <trkpt lat="39.926400" lon="-4.559633">
        <ele>2143.0</ele>
        <time>2013-07-03T14:24:05Z</time>
      </trkpt>
      <trkpt lat="39.926317" lon="-4.559567">
        <ele>2144.0</ele>
        <time>2013-07-03T14:24:06Z</time>
      </trkpt>
      <trkpt lat="39.926233" lon="-4.559483">
        <ele>2146.0</ele>
        <time>2013-07-03T14:24:07Z</time>
      </trkpt>
      <trkpt lat="39.926183" lon="-4.559383">
        <ele>2147.0</ele>
        <time>2013-07-03T14:24:08Z</time>
      </trkpt>
      <trkpt lat="39.926133" lon="-4.559283">
        <ele>2148.0</ele>
        <time>2013-07-03T14:24:09Z</time>
      </trkpt>
      <trkpt lat="39.926117" lon="-4.559167">
        <ele>2149.0</ele>
        <time>2013-07-03T14:24:10Z</time>
      </trkpt>
      <trkpt lat="39.926100" lon="-4.559067">
        <ele>2151.0</ele>
        <time>2013-07-03T14:24:11Z</time>
      </trkpt>
      <trkpt lat="39.926100" lon="-4.558967">
        <ele>2152.0</ele>
        <time>2013-07-03T14:24:12Z</time>
      </trkpt>
      <trkpt lat="39.926117" lon="-4.558900">
        <ele>2153.0</ele>
        <time>2013-07-03T14:24:13Z</time>
      </trkpt>
      <trkpt lat="39.926133" lon="-4.558817">
        <ele>2154.0</ele>
        <time>2013-07-03T14:24:14Z</time>
      </trkpt>
      <trkpt lat="39.926167" lon="-4.558750">
        <ele>2155.0</ele>
        <time>2013-07-03T14:24:15Z</time>
      </trkpt>
      <trkpt lat="39.926217" lon="-4.558683">
        <ele>2156.0</ele>
        <time>2013-07-03T14:24:16Z</time>
      </trkpt>
      <trkpt lat="39.926250" lon="-4.558633">
        <ele>2157.0</ele>
        <time>2013-07-03T14:24:17Z</time>
      </trkpt>
      <trkpt lat="39.926300" lon="-4.558617">
        <ele>2158.0</ele>
        <time>2013-07-03T14:24:18Z</time>
      </trkpt>
      <trkpt lat="39.926367" lon="-4.558633">
        <ele>2159.0</ele>
        <time>2013-07-03T14:24:19Z</time>
      </trkpt>
      <trkpt lat="39.926400" lon="-4.558667">
        <ele>2160.0</ele>
        <time>2013-07-03T14:24:20Z</time>
      </trkpt>
      <trkpt lat="39.926433" lon="-4.558733">
        <ele>2162.0</ele>
        <time>2013-07-03T14:24:21Z</time>
      </trkpt>
      <trkpt lat="39.926467" lon="-4.558767">
        <ele>2165.0</ele>
        <time>2013-07-03T14:24:22Z</time>
      </trkpt>
      <trkpt lat="39.926483" lon="-4.558800">
        <ele>2169.0</ele>
        <time>2013-07-03T14:24:23Z</time>
      </trkpt>
      <trkpt lat="39.926483" lon="-4.558833">
        <ele>2171.0</ele>
        <time>2013-07-03T14:24:24Z</time>
      </trkpt>
      <trkpt lat="39.926500" lon="-4.558900">
        <ele>2173.0</ele>
        <time>2013-07-03T14:24:25Z</time>
      </trkpt>
      <trkpt lat="39.926483" lon="-4.558967">
        <ele>2174.0</ele>
        <time>2013-07-03T14:24:26Z</time>
      </trkpt>
      <trkpt lat="39.926467" lon="-4.559050">
        <ele>2175.0</ele>
        <time>2013-07-03T14:24:27Z</time>
      </trkpt>
      <trkpt lat="39.926433" lon="-4.559133">
        <ele>2177.0</ele>
        <time>2013-07-03T14:24:28Z</time>
      </trkpt>
      <trkpt lat="39.926383" lon="-4.559217">
        <ele>2178.0</ele>
        <time>2013-07-03T14:24:29Z</time>
      </trkpt>
      <trkpt lat="39.926333" lon="-4.559300">
        <ele>2179.0</ele>
        <time>2013-07-03T14:24:30Z</time>
      </trkpt>
      <trkpt lat="39.926283" lon="-4.559383">
        <ele>2180.0</ele>
        <time>2013-07-03T14:24:31Z</time>
      </trkpt>
      <trkpt lat="39.926217" lon="-4.559450">
        <ele>2182.0</ele>
        <time>2013-07-03T14:24:32Z</time>
      </trkpt>
      <trkpt lat="39.926150" lon="-4.559533">
        <ele>2183.0</ele>
        <time>2013-07-03T14:24:33Z</time>
      </trkpt>
      <trkpt lat="39.926067" lon="-4.559600">
        <ele>2184.0</ele>
        <time>2013-07-03T14:24:34Z</time>
      </trkpt>
      <trkpt lat="39.925967" lon="-4.559650">
        <ele>2186.0</ele>
        <time>2013-07-03T14:24:35Z</time>
      </trkpt>
      <trkpt lat="39.925850" lon="-4.559683">
        <ele>2188.0</ele>
        <time>2013-07-03T14:24:36Z</time>
      </trkpt>
      <trkpt lat="39.925750" lon="-4.559717">
        <ele>2189.0</ele>
        <time>2013-07-03T14:24:37Z</time>
      </trkpt>
      <trkpt lat="39.925650" lon="-4.559733">
        <ele>2191.0</ele>
        <time>2013-07-03T14:24:38Z</time>
      </trkpt>
      <trkpt lat="39.925550" lon="-4.559733">
        <ele>2192.0</ele>
        <time>2013-07-03T14:24:39Z</time>
      </trkpt>
      <trkpt lat="39.925450" lon="-4.559733">
        <ele>2192.0</ele>
        <time>2013-07-03T14:24:40Z</time>
      </trkpt>
      <trkpt lat="39.925333" lon="-4.559700">
        <ele>2193.0</ele>
        <time>2013-07-03T14:24:41Z</time>
      </trkpt>
      <trkpt lat="39.925233" lon="-4.559650">
        <ele>2194.0</ele>
        <time>2013-07-03T14:24:42Z</time>
      </trkpt>
      <trkpt lat="39.925133" lon="-4.559567">
        <ele>2195.0</ele>
        <time>2013-07-03T14:24:43Z</time>
      </trkpt>
      <trkpt lat="39.925067" lon="-4.559483">
        <ele>2196.0</ele>
        <time>2013-07-03T14:24:44Z</time>
      </trkpt>
      <trkpt lat="39.925017" lon="-4.559367">
        <ele>2197.0</ele>
        <time>2013-07-03T14:24:45Z</time>
      </trkpt>
      <trkpt lat="39.925000" lon="-4.559267">
        <ele>2198.0</ele>
        <time>2013-07-03T14:24:46Z</time>
      </trkpt>
      <trkpt lat="39.924983" lon="-4.559167">
        <ele>2200.0</ele>
        <time>2013-07-03T14:24:47Z</time>
      </trkpt>
      <trkpt lat="39.924983" lon="-4.559083">
        <ele>2201.0</ele>
        <time>2013-07-03T14:24:48Z</time>
      </trkpt>
      <trkpt lat="39.924983" lon="-4.559000">
        <ele>2203.0</ele>
        <time>2013-07-03T14:24:49Z</time>
      </trkpt>
      <trkpt lat="39.925017" lon="-4.558950">
        <ele>2204.0</ele>
        <time>2013-07-03T14:24:50Z</time>
      </trkpt>
      <trkpt lat="39.925033" lon="-4.558917">
        <ele>2205.0</ele>
        <time>2013-07-03T14:24:51Z</time>
      </trkpt>
      <trkpt lat="39.925067" lon="-4.558867">
        <ele>2206.0</ele>
        <time>2013-07-03T14:24:52Z</time>
      </trkpt>
      <trkpt lat="39.925083" lon="-4.558833">
        <ele>2207.0</ele>
        <time>2013-07-03T14:24:53Z</time>
      </trkpt>
      <trkpt lat="39.925117" lon="-4.558800">
        <ele>2208.0</ele>
        <time>2013-07-03T14:24:54Z</time>
      </trkpt>
      <trkpt lat="39.925167" lon="-4.558800">
        <ele>2209.0</ele>
        <time>2013-07-03T14:24:55Z</time>
      </trkpt>
      <trkpt lat="39.925217" lon="-4.558800">
        <ele>2209.0</ele>
        <time>2013-07-03T14:24:56Z</time>
      </trkpt>
      <trkpt lat="39.925267" lon="-4.558800">
        <ele>2211.0</ele>
        <time>2013-07-03T14:24:57Z</time>
      </trkpt>
      <trkpt lat="39.925300" lon="-4.558850">
        <ele>2214.0</ele>
        <time>2013-07-03T14:24:58Z</time>
      </trkpt>
      <trkpt lat="39.925300" lon="-4.558900">
        <ele>2216.0</ele>
        <time>2013-07-03T14:24:59Z</time>
      </trkpt>
      <trkpt lat="39.925283" lon="-4.558983">
        <ele>2217.0</ele>
        <time>2013-07-03T14:25:00Z</time>
      </trkpt>
      <trkpt lat="39.925267" lon="-4.559050">
        <ele>2219.0</ele>
        <time>2013-07-03T14:25:01Z</time>
      </trkpt>
      <trkpt lat="39.925233" lon="-4.559150">
        <ele>2220.0</ele>
        <time>2013-07-03T14:25:02Z</time>
      </trkpt>
      <trkpt lat="39.925200" lon="-4.559233">
        <ele>2222.0</ele>
        <time>2013-07-03T14:25:03Z</time>
      </trkpt>
      <trkpt lat="39.925167" lon="-4.559300">
        <ele>2224.0</ele>
        <time>2013-07-03T14:25:04Z</time>
      </trkpt>
      <trkpt lat="39.925100" lon="-4.559383">
        <ele>2225.0</ele>
        <time>2013-07-03T14:25:05Z</time>
      </trkpt>
      <trkpt lat="39.925033" lon="-4.559450">
        <ele>2226.0</ele>
        <time>2013-07-03T14:25:06Z</time>
      </trkpt>
      <trkpt lat="39.924933" lon="-4.559517">
        <ele>2227.0</ele>
        <time>2013-07-03T14:25:07Z</time>
      </trkpt>
      <trkpt lat="39.924833" lon="-4.559567">
        <ele>2228.0</ele>
        <time>2013-07-03T14:25:08Z</time>
      </trkpt>
      <trkpt lat="39.924733" lon="-4.559617">
        <ele>2229.0</ele>
        <time>2013-07-03T14:25:09Z</time>
      </trkpt>
      <trkpt lat="39.924633" lon="-4.559633">
        <ele>2230.0</ele>
        <time>2013-07-03T14:25:10Z</time>
      </trkpt>
      <trkpt lat="39.924533" lon="-4.559650">
        <ele>2231.0</ele>
        <time>2013-07-03T14:25:11Z</time>
      </trkpt>
      <trkpt lat="39.924417" lon="-4.559633">
        <ele>2231.0</ele>
        <time>2013-07-03T14:25:12Z</time>
      </trkpt>
      <trkpt lat="39.924300" lon="-4.559600">
        <ele>2231.0</ele>
        <time>2013-07-03T14:25:13Z</time>
      </trkpt>
      <trkpt lat="39.924183" lon="-4.559533">
        <ele>2232.0</ele>
        <time>2013-07-03T14:25:14Z</time>
      </trkpt>
      <trkpt lat="39.924100" lon="-4.559450">
        <ele>2234.0</ele>
        <time>2013-07-03T14:25:15Z</time>
      </trkpt>
      <trkpt lat="39.924017" lon="-4.559383">
        <ele>2237.0</ele>
        <time>2013-07-03T14:25:16Z</time>
      </trkpt>
      <trkpt lat="39.923950" lon="-4.559317">
        <ele>2239.0</ele>
        <time>2013-07-03T14:25:17Z</time>
      </trkpt>
      <trkpt lat="39.923883" lon="-4.559250">
        <ele>2241.0</ele>
        <time>2013-07-03T14:25:18Z</time>
      </trkpt>
      <trkpt lat="39.923817" lon="-4.559183">
        <ele>2241.0</ele>
        <time>2013-07-03T14:25:19Z</time>
      </trkpt>
      <trkpt lat="39.923750" lon="-4.559083">
        <ele>2241.0</ele>
        <time>2013-07-03T14:25:20Z</time>
      </trkpt>
      <trkpt lat="39.923717" lon="-4.558967">
        <ele>2241.0</ele>
        <time>2013-07-03T14:25:21Z</time>
      </trkpt>
      <trkpt lat="39.923717" lon="-4.558867">
        <ele>2242.0</ele>
        <time>2013-07-03T14:25:22Z</time>
      </trkpt>
      <trkpt lat="39.923717" lon="-4.558783">
        <ele>2243.0</ele>
        <time>2013-07-03T14:25:23Z</time>
      </trkpt>
      <trkpt lat="39.923733" lon="-4.558717">
        <ele>2244.0</ele>
        <time>2013-07-03T14:25:24Z</time>
      </trkpt>
      <trkpt lat="39.923767" lon="-4.558667">
        <ele>2246.0</ele>
        <time>2013-07-03T14:25:25Z</time>
      </trkpt>
      <trkpt lat="39.923800" lon="-4.558633">
        <ele>2247.0</ele>
        <time>2013-07-03T14:25:26Z</time>
      </trkpt>
      <trkpt lat="39.923833" lon="-4.558617">
        <ele>2249.0</ele>
        <time>2013-07-03T14:25:27Z</time>
      </trkpt>
      <trkpt lat="39.923867" lon="-4.558600">
        <ele>2250.0</ele>
        <time>2013-07-03T14:25:28Z</time>
      </trkpt>
      <trkpt lat="39.923900" lon="-4.558617">
        <ele>2250.0</ele>
        <time>2013-07-03T14:25:29Z</time>
      </trkpt>
      <trkpt lat="39.923950" lon="-4.558633">
        <ele>2251.0</ele>
        <time>2013-07-03T14:25:30Z</time>
      </trkpt>
      <trkpt lat="39.923983" lon="-4.558700">
        <ele>2252.0</ele>
        <time>2013-07-03T14:25:31Z</time>
      </trkpt>
      <trkpt lat="39.924017" lon="-4.558767">
        <ele>2254.0</ele>
        <time>2013-07-03T14:25:32Z</time>
      </trkpt>
      <trkpt lat="39.924017" lon="-4.558850">
        <ele>2255.0</ele>
        <time>2013-07-03T14:25:33Z</time>
      </trkpt>
      <trkpt lat="39.923983" lon="-4.558950">
        <ele>2256.0</ele>
        <time>2013-07-03T14:25:34Z</time>
      </trkpt>
      <trkpt lat="39.923950" lon="-4.559033">
        <ele>2256.0</ele>
        <time>2013-07-03T14:25:35Z</time>
      </trkpt>
      <trkpt lat="39.923883" lon="-4.559133">
        <ele>2257.0</ele>
        <time>2013-07-03T14:25:36Z</time>
      </trkpt>
      <trkpt lat="39.923817" lon="-4.559217">
        <ele>2257.0</ele>
        <time>2013-07-03T14:25:37Z</time>
      </trkpt>
      <trkpt lat="39.923733" lon="-4.559300">
        <ele>2258.0</ele>
        <time>2013-07-03T14:25:38Z</time>
      </trkpt>
      <trkpt lat="39.923650" lon="-4.559367">
        <ele>2258.0</ele>
        <time>2013-07-03T14:25:39Z</time>
      </trkpt>
      <trkpt lat="39.923533" lon="-4.559383">
        <ele>2259.0</ele>
        <time>2013-07-03T14:25:40Z</time>
      </trkpt>
      <trkpt lat="39.923417" lon="-4.559383">
        <ele>2260.0</ele>
        <time>2013-07-03T14:25:41Z</time>
      </trkpt>
      <trkpt lat="39.923300" lon="-4.559333">
        <ele>2260.0</ele>
        <time>2013-07-03T14:25:42Z</time>
      </trkpt>
      <trkpt lat="39.923183" lon="-4.559283">
        <ele>2260.0</ele>
        <time>2013-07-03T14:25:43Z</time>
      </trkpt>
      <trkpt lat="39.923083" lon="-4.559200">
        <ele>2261.0</ele>
        <time>2013-07-03T14:25:44Z</time>
      </trkpt>
      <trkpt lat="39.923000" lon="-4.559117">
        <ele>2262.0</ele>
        <time>2013-07-03T14:25:45Z</time>
      </trkpt>
      <trkpt lat="39.922933" lon="-4.559017">
        <ele>2263.0</ele>
        <time>2013-07-03T14:25:46Z</time>
      </trkpt>
      <trkpt lat="39.922883" lon="-4.558917">
        <ele>2264.0</ele>
        <time>2013-07-03T14:25:47Z</time>
      </trkpt>
      <trkpt lat="39.922833" lon="-4.558800">
        <ele>2266.0</ele>
        <time>2013-07-03T14:25:48Z</time>
      </trkpt>
      <trkpt lat="39.922800" lon="-4.558700">
        <ele>2267.0</ele>
        <time>2013-07-03T14:25:49Z</time>
      </trkpt>
      <trkpt lat="39.922767" lon="-4.558600">
        <ele>2268.0</ele>
        <time>2013-07-03T14:25:50Z</time>
      </trkpt>
      <trkpt lat="39.922767" lon="-4.558500">
        <ele>2270.0</ele>
        <time>2013-07-03T14:25:51Z</time>
      </trkpt>
      <trkpt lat="39.922767" lon="-4.558417">
        <ele>2271.0</ele>
        <time>2013-07-03T14:25:52Z</time>
      </trkpt>
      <trkpt lat="39.922783" lon="-4.558367">
        <ele>2273.0</ele>
        <time>2013-07-03T14:25:53Z</time>
      </trkpt>
      <trkpt lat="39.922817" lon="-4.558317">
        <ele>2274.0</ele>
        <time>2013-07-03T14:25:54Z</time>
      </trkpt>
      <trkpt lat="39.922850" lon="-4.558267">
        <ele>2275.0</ele>
        <time>2013-07-03T14:25:55Z</time>
      </trkpt>
      <trkpt lat="39.922883" lon="-4.558233">
        <ele>2275.0</ele>
        <time>2013-07-03T14:25:56Z</time>
      </trkpt>
      <trkpt lat="39.922917" lon="-4.558217">
        <ele>2276.0</ele>
        <time>2013-07-03T14:25:57Z</time>
      </trkpt>
      <trkpt lat="39.922967" lon="-4.558200">
        <ele>2277.0</ele>
        <time>2013-07-03T14:25:58Z</time>
      </trkpt>
      <trkpt lat="39.923000" lon="-4.558200">
        <ele>2278.0</ele>
        <time>2013-07-03T14:25:59Z</time>
      </trkpt>
      <trkpt lat="39.923050" lon="-4.558233">
        <ele>2279.0</ele>
        <time>2013-07-03T14:26:00Z</time>
      </trkpt>
      <trkpt lat="39.923083" lon="-4.558283">
        <ele>2280.0</ele>
        <time>2013-07-03T14:26:01Z</time>
      </trkpt>
      <trkpt lat="39.923100" lon="-4.558333">
        <ele>2281.0</ele>
        <time>2013-07-03T14:26:02Z</time>
      </trkpt>
      <trkpt lat="39.923117" lon="-4.558417">
        <ele>2282.0</ele>
        <time>2013-07-03T14:26:03Z</time>
      </trkpt>
      <trkpt lat="39.923117" lon="-4.558483">
        <ele>2283.0</ele>
        <time>2013-07-03T14:26:04Z</time>
      </trkpt>
      <trkpt lat="39.923117" lon="-4.558567">
        <ele>2284.0</ele>
        <time>2013-07-03T14:26:05Z</time>
      </trkpt>
      <trkpt lat="39.923083" lon="-4.558667">
        <ele>2285.0</ele>
        <time>2013-07-03T14:26:06Z</time>
      </trkpt>
      <trkpt lat="39.923050" lon="-4.558750">
        <ele>2286.0</ele>
        <time>2013-07-03T14:26:07Z</time>
      </trkpt>
      <trkpt lat="39.923017" lon="-4.558850">
        <ele>2286.0</ele>
        <time>2013-07-03T14:26:08Z</time>
      </trkpt>
      <trkpt lat="39.922950" lon="-4.558950">
        <ele>2286.0</ele>
        <time>2013-07-03T14:26:09Z</time>
      </trkpt>
      <trkpt lat="39.922900" lon="-4.559033">
        <ele>2287.0</ele>
        <time>2013-07-03T14:26:10Z</time>
      </trkpt>
      <trkpt lat="39.922817" lon="-4.559133">
        <ele>2287.0</ele>
        <time>2013-07-03T14:26:11Z</time>
      </trkpt>
      <trkpt lat="39.922733" lon="-4.559200">
        <ele>2287.0</ele>
        <time>2013-07-03T14:26:12Z</time>
      </trkpt>
      <trkpt lat="39.922633" lon="-4.559233">
        <ele>2286.0</ele>
        <time>2013-07-03T14:26:13Z</time>
      </trkpt>
      <trkpt lat="39.922517" lon="-4.559250">
        <ele>2286.0</ele>
        <time>2013-07-03T14:26:14Z</time>
      </trkpt>
      <trkpt lat="39.922400" lon="-4.559267">
        <ele>2284.0</ele>
        <time>2013-07-03T14:26:15Z</time>
      </trkpt>
      <trkpt lat="39.922283" lon="-4.559267">
        <ele>2285.0</ele>
        <time>2013-07-03T14:26:16Z</time>
      </trkpt>
      <trkpt lat="39.922150" lon="-4.559267">
        <ele>2285.0</ele>
        <time>2013-07-03T14:26:17Z</time>
      </trkpt>
      <trkpt lat="39.922033" lon="-4.559267">
        <ele>2287.0</ele>
        <time>2013-07-03T14:26:18Z</time>
      </trkpt>
      <trkpt lat="39.921917" lon="-4.559217">
        <ele>2287.0</ele>
        <time>2013-07-03T14:26:19Z</time>
      </trkpt>
      <trkpt lat="39.921817" lon="-4.559150">
        <ele>2287.0</ele>
        <time>2013-07-03T14:26:20Z</time>
      </trkpt>
      <trkpt lat="39.921733" lon="-4.559067">
        <ele>2288.0</ele>
        <time>2013-07-03T14:26:21Z</time>
      </trkpt>
      <trkpt lat="39.921667" lon="-4.558983">
        <ele>2289.0</ele>
        <time>2013-07-03T14:26:22Z</time>
      </trkpt>
      <trkpt lat="39.921600" lon="-4.558883">
        <ele>2291.0</ele>
        <time>2013-07-03T14:26:23Z</time>
      </trkpt>
      <trkpt lat="39.921533" lon="-4.558800">
        <ele>2291.0</ele>
        <time>2013-07-03T14:26:24Z</time>
      </trkpt>
      <trkpt lat="39.921483" lon="-4.558717">
        <ele>2292.0</ele>
        <time>2013-07-03T14:26:25Z</time>
      </trkpt>
      <trkpt lat="39.921433" lon="-4.558600">
        <ele>2292.0</ele>
        <time>2013-07-03T14:26:26Z</time>
      </trkpt>
      <trkpt lat="39.921417" lon="-4.558500">
        <ele>2292.0</ele>
        <time>2013-07-03T14:26:27Z</time>
      </trkpt>
      <trkpt lat="39.921417" lon="-4.558400">
        <ele>2293.0</ele>
        <time>2013-07-03T14:26:28Z</time>
      </trkpt>
      <trkpt lat="39.921417" lon="-4.558333">
        <ele>2294.0</ele>
        <time>2013-07-03T14:26:29Z</time>
      </trkpt>
      <trkpt lat="39.921417" lon="-4.558267">
        <ele>2295.0</ele>
        <time>2013-07-03T14:26:30Z</time>
      </trkpt>
      <trkpt lat="39.921417" lon="-4.558217">
        <ele>2296.0</ele>
        <time>2013-07-03T14:26:31Z</time>
      </trkpt>
      <trkpt lat="39.921417" lon="-4.558150">
        <ele>2295.0</ele>
        <time>2013-07-03T14:26:32Z</time>
      </trkpt>
      <trkpt lat="39.921433" lon="-4.558083">
        <ele>2295.0</ele>
        <time>2013-07-03T14:26:33Z</time>
      </trkpt>
      <trkpt lat="39.921467" lon="-4.558033">
        <ele>2295.0</ele>
        <time>2013-07-03T14:26:34Z</time>
      </trkpt>
      <trkpt lat="39.921517" lon="-4.558000">
        <ele>2295.0</ele>
        <time>2013-07-03T14:26:35Z</time>
      </trkpt>
      <trkpt lat="39.921550" lon="-4.557983">
        <ele>2296.0</ele>
        <time>2013-07-03T14:26:36Z</time>
      </trkpt>
      <trkpt lat="39.921583" lon="-4.558000">
        <ele>2296.0</ele>
        <time>2013-07-03T14:26:37Z</time>
      </trkpt>
      <trkpt lat="39.921617" lon="-4.558017">
        <ele>2296.0</ele>
        <time>2013-07-03T14:26:38Z</time>
      </trkpt>
      <trkpt lat="39.921650" lon="-4.558033">
        <ele>2296.0</ele>
        <time>2013-07-03T14:26:39Z</time>
      </trkpt>
      <trkpt lat="39.921683" lon="-4.558083">
        <ele>2296.0</ele>
        <time>2013-07-03T14:26:40Z</time>
      </trkpt>
      <trkpt lat="39.921717" lon="-4.558150">
        <ele>2297.0</ele>
        <time>2013-07-03T14:26:41Z</time>
      </trkpt>
      <trkpt lat="39.921733" lon="-4.558217">
        <ele>2297.0</ele>
        <time>2013-07-03T14:26:42Z</time>
      </trkpt>
      <trkpt lat="39.921750" lon="-4.558283">
        <ele>2297.0</ele>
        <time>2013-07-03T14:26:43Z</time>
      </trkpt>
      <trkpt lat="39.921767" lon="-4.558350">
        <ele>2297.0</ele>
        <time>2013-07-03T14:26:44Z</time>
      </trkpt>
      <trkpt lat="39.921750" lon="-4.558433">
        <ele>2297.0</ele>
        <time>2013-07-03T14:26:45Z</time>
      </trkpt>
      <trkpt lat="39.921733" lon="-4.558533">
        <ele>2297.0</ele>
        <time>2013-07-03T14:26:46Z</time>
      </trkpt>
      <trkpt lat="39.921700" lon="-4.558633">
        <ele>2296.0</ele>
        <time>2013-07-03T14:26:47Z</time>
      </trkpt>
      <trkpt lat="39.921650" lon="-4.558733">
        <ele>2296.0</ele>
        <time>2013-07-03T14:26:48Z</time>
      </trkpt>
      <trkpt lat="39.921583" lon="-4.558817">
        <ele>2296.0</ele>
        <time>2013-07-03T14:26:49Z</time>
      </trkpt>
      <trkpt lat="39.921517" lon="-4.558883">
        <ele>2296.0</ele>
        <time>2013-07-03T14:26:50Z</time>
      </trkpt>
      <trkpt lat="39.921433" lon="-4.558950">
        <ele>2295.0</ele>
        <time>2013-07-03T14:26:51Z</time>
      </trkpt>
      <trkpt lat="39.921333" lon="-4.559000">
        <ele>2294.0</ele>
        <time>2013-07-03T14:26:52Z</time>
      </trkpt>
      <trkpt lat="39.921250" lon="-4.559050">
        <ele>2294.0</ele>
        <time>2013-07-03T14:26:53Z</time>
      </trkpt>
      <trkpt lat="39.921133" lon="-4.559067">
        <ele>2293.0</ele>
        <time>2013-07-03T14:26:54Z</time>
      </trkpt>
      <trkpt lat="39.921033" lon="-4.559083">
        <ele>2292.0</ele>
        <time>2013-07-03T14:26:55Z</time>
      </trkpt>
      <trkpt lat="39.920900" lon="-4.559083">
        <ele>2292.0</ele>
        <time>2013-07-03T14:26:56Z</time>
      </trkpt>
      <trkpt lat="39.920800" lon="-4.559050">
        <ele>2293.0</ele>
        <time>2013-07-03T14:26:57Z</time>
      </trkpt>
      <trkpt lat="39.920683" lon="-4.558983">
        <ele>2293.0</ele>
        <time>2013-07-03T14:26:58Z</time>
      </trkpt>
      <trkpt lat="39.920600" lon="-4.558917">
        <ele>2293.0</ele>
        <time>2013-07-03T14:26:59Z</time>
      </trkpt>
      <trkpt lat="39.920517" lon="-4.558850">
        <ele>2293.0</ele>
        <time>2013-07-03T14:27:00Z</time>
      </trkpt>
      <trkpt lat="39.920433" lon="-4.558767">
        <ele>2293.0</ele>
        <time>2013-07-03T14:27:01Z</time>
      </trkpt>
      <trkpt lat="39.920367" lon="-4.558683">
        <ele>2293.0</ele>
        <time>2013-07-03T14:27:02Z</time>
      </trkpt>
      <trkpt lat="39.920300" lon="-4.558583">
        <ele>2294.0</ele>
        <time>2013-07-03T14:27:03Z</time>
      </trkpt>
      <trkpt lat="39.920233" lon="-4.558483">
        <ele>2294.0</ele>
        <time>2013-07-03T14:27:04Z</time>
      </trkpt>
      <trkpt lat="39.920183" lon="-4.558383">
        <ele>2294.0</ele>
        <time>2013-07-03T14:27:05Z</time>
      </trkpt>
      <trkpt lat="39.920117" lon="-4.558283">
        <ele>2294.0</ele>
        <time>2013-07-03T14:27:06Z</time>
      </trkpt>
      <trkpt lat="39.920067" lon="-4.558200">
        <ele>2294.0</ele>
        <time>2013-07-03T14:27:07Z</time>
      </trkpt>
      <trkpt lat="39.920017" lon="-4.558117">
        <ele>2293.0</ele>
        <time>2013-07-03T14:27:08Z</time>
      </trkpt>
      <trkpt lat="39.919967" lon="-4.558017">
        <ele>2292.0</ele>
        <time>2013-07-03T14:27:09Z</time>
      </trkpt>
      <trkpt lat="39.919917" lon="-4.557900">
        <ele>2290.0</ele>
        <time>2013-07-03T14:27:10Z</time>
      </trkpt>
      <trkpt lat="39.919883" lon="-4.557783">
        <ele>2290.0</ele>
        <time>2013-07-03T14:27:11Z</time>
      </trkpt>
      <trkpt lat="39.919850" lon="-4.557683">
        <ele>2289.0</ele>
        <time>2013-07-03T14:27:12Z</time>
      </trkpt>
      <trkpt lat="39.919817" lon="-4.557567">
        <ele>2290.0</ele>
        <time>2013-07-03T14:27:13Z</time>
      </trkpt>
      <trkpt lat="39.919800" lon="-4.557483">
        <ele>2291.0</ele>
        <time>2013-07-03T14:27:14Z</time>
      </trkpt>
      <trkpt lat="39.919783" lon="-4.557400">
        <ele>2292.0</ele>
        <time>2013-07-03T14:27:15Z</time>
      </trkpt>
      <trkpt lat="39.919767" lon="-4.557333">
        <ele>2292.0</ele>
        <time>2013-07-03T14:27:16Z</time>
      </trkpt>
      <trkpt lat="39.919767" lon="-4.557283">
        <ele>2291.0</ele>
        <time>2013-07-03T14:27:17Z</time>
      </trkpt>
      <trkpt lat="39.919783" lon="-4.557217">
        <ele>2290.0</ele>
        <time>2013-07-03T14:27:18Z</time>
      </trkpt>
      <trkpt lat="39.919817" lon="-4.557167">
        <ele>2290.0</ele>
        <time>2013-07-03T14:27:19Z</time>
      </trkpt>
      <trkpt lat="39.919850" lon="-4.557133">
        <ele>2290.0</ele>
        <time>2013-07-03T14:27:20Z</time>
      </trkpt>
      <trkpt lat="39.919883" lon="-4.557117">
        <ele>2290.0</ele>
        <time>2013-07-03T14:27:21Z</time>
      </trkpt>
      <trkpt lat="39.919917" lon="-4.557100">
        <ele>2290.0</ele>
        <time>2013-07-03T14:27:22Z</time>
      </trkpt>
      <trkpt lat="39.919950" lon="-4.557100">
        <ele>2290.0</ele>
        <time>2013-07-03T14:27:23Z</time>
      </trkpt>
      <trkpt lat="39.920000" lon="-4.557100">
        <ele>2289.0</ele>
        <time>2013-07-03T14:27:24Z</time>
      </trkpt>
      <trkpt lat="39.920033" lon="-4.557117">
        <ele>2289.0</ele>
        <time>2013-07-03T14:27:25Z</time>
      </trkpt>
      <trkpt lat="39.920067" lon="-4.557133">
        <ele>2288.0</ele>
        <time>2013-07-03T14:27:26Z</time>
      </trkpt>
      <trkpt lat="39.920100" lon="-4.557183">
        <ele>2287.0</ele>
        <time>2013-07-03T14:27:27Z</time>
      </trkpt>
      <trkpt lat="39.920133" lon="-4.557250">
        <ele>2286.0</ele>
        <time>2013-07-03T14:27:28Z</time>
      </trkpt>
      <trkpt lat="39.920150" lon="-4.557317">
        <ele>2285.0</ele>
        <time>2013-07-03T14:27:29Z</time>
      </trkpt>
      <trkpt lat="39.920167" lon="-4.557417">
        <ele>2284.0</ele>
        <time>2013-07-03T14:27:30Z</time>
      </trkpt>
      <trkpt lat="39.920167" lon="-4.557533">
        <ele>2284.0</ele>
        <time>2013-07-03T14:27:31Z</time>
      </trkpt>
      <trkpt lat="39.920133" lon="-4.557617">
        <ele>2285.0</ele>
        <time>2013-07-03T14:27:32Z</time>
      </trkpt>
      <trkpt lat="39.920083" lon="-4.557700">
        <ele>2285.0</ele>
        <time>2013-07-03T14:27:33Z</time>
      </trkpt>
      <trkpt lat="39.920017" lon="-4.557783">
        <ele>2284.0</ele>
        <time>2013-07-03T14:27:34Z</time>
      </trkpt>
      <trkpt lat="39.919950" lon="-4.557867">
        <ele>2283.0</ele>
        <time>2013-07-03T14:27:35Z</time>
      </trkpt>
      <trkpt lat="39.919867" lon="-4.557950">
        <ele>2282.0</ele>
        <time>2013-07-03T14:27:36Z</time>
      </trkpt>
      <trkpt lat="39.919783" lon="-4.558050">
        <ele>2282.0</ele>
        <time>2013-07-03T14:27:37Z</time>
      </trkpt>
      <trkpt lat="39.919683" lon="-4.558117">
        <ele>2281.0</ele>
        <time>2013-07-03T14:27:38Z</time>
      </trkpt>
      <trkpt lat="39.919583" lon="-4.558183">
        <ele>2281.0</ele>
        <time>2013-07-03T14:27:39Z</time>
      </trkpt>
      <trkpt lat="39.919483" lon="-4.558250">
        <ele>2280.0</ele>
        <time>2013-07-03T14:27:40Z</time>
      </trkpt>
      <trkpt lat="39.919367" lon="-4.558300">
        <ele>2280.0</ele>
        <time>2013-07-03T14:27:41Z</time>
      </trkpt>
      <trkpt lat="39.919250" lon="-4.558333">
        <ele>2280.0</ele>
        <time>2013-07-03T14:27:42Z</time>
      </trkpt>
      <trkpt lat="39.919150" lon="-4.558333">
        <ele>2280.0</ele>
        <time>2013-07-03T14:27:43Z</time>
      </trkpt>
      <trkpt lat="39.919033" lon="-4.558333">
        <ele>2280.0</ele>
        <time>2013-07-03T14:27:44Z</time>
      </trkpt>
      <trkpt lat="39.918933" lon="-4.558317">
        <ele>2280.0</ele>
        <time>2013-07-03T14:27:45Z</time>
      </trkpt>
      <trkpt lat="39.918817" lon="-4.558283">
        <ele>2279.0</ele>
        <time>2013-07-03T14:27:46Z</time>
      </trkpt>
      <trkpt lat="39.918717" lon="-4.558233">
        <ele>2279.0</ele>
        <time>2013-07-03T14:27:47Z</time>
      </trkpt>
      <trkpt lat="39.918617" lon="-4.558167">
        <ele>2278.0</ele>
        <time>2013-07-03T14:27:48Z</time>
      </trkpt>
      <trkpt lat="39.918517" lon="-4.558083">
        <ele>2277.0</ele>
        <time>2013-07-03T14:27:49Z</time>
      </trkpt>
      <trkpt lat="39.918417" lon="-4.558000">
        <ele>2276.0</ele>
        <time>2013-07-03T14:27:50Z</time>
      </trkpt>
      <trkpt lat="39.918317" lon="-4.557917">
        <ele>2275.0</ele>
        <time>2013-07-03T14:27:51Z</time>
      </trkpt>
      <trkpt lat="39.918217" lon="-4.557817">
        <ele>2274.0</ele>
        <time>2013-07-03T14:27:52Z</time>
      </trkpt>
      <trkpt lat="39.918117" lon="-4.557733">
        <ele>2272.0</ele>
        <time>2013-07-03T14:27:53Z</time>
      </trkpt>
      <trkpt lat="39.918017" lon="-4.557633">
        <ele>2270.0</ele>
        <time>2013-07-03T14:27:54Z</time>
      </trkpt>
      <trkpt lat="39.917900" lon="-4.557533">
        <ele>2269.0</ele>
        <time>2013-07-03T14:27:55Z</time>
      </trkpt>
      <trkpt lat="39.917800" lon="-4.557433">
        <ele>2269.0</ele>
        <time>2013-07-03T14:27:56Z</time>
      </trkpt>
      <trkpt lat="39.917717" lon="-4.557333">
        <ele>2269.0</ele>
        <time>2013-07-03T14:27:57Z</time>
      </trkpt>
      <trkpt lat="39.917633" lon="-4.557233">
        <ele>2268.0</ele>
        <time>2013-07-03T14:27:58Z</time>
      </trkpt>
      <trkpt lat="39.917533" lon="-4.557117">
        <ele>2266.0</ele>
        <time>2013-07-03T14:27:59Z</time>
      </trkpt>
      <trkpt lat="39.917450" lon="-4.557000">
        <ele>2265.0</ele>
        <time>2013-07-03T14:28:00Z</time>
      </trkpt>
      <trkpt lat="39.917367" lon="-4.556867">
        <ele>2266.0</ele>
        <time>2013-07-03T14:28:01Z</time>
      </trkpt>
      <trkpt lat="39.917317" lon="-4.556733">
        <ele>2267.0</ele>
        <time>2013-07-03T14:28:02Z</time>
      </trkpt>
      <trkpt lat="39.917267" lon="-4.556617">
        <ele>2268.0</ele>
        <time>2013-07-03T14:28:03Z</time>
      </trkpt>
      <trkpt lat="39.917217" lon="-4.556500">
        <ele>2269.0</ele>
        <time>2013-07-03T14:28:04Z</time>
      </trkpt>
      <trkpt lat="39.917150" lon="-4.556383">
        <ele>2268.0</ele>
        <time>2013-07-03T14:28:05Z</time>
      </trkpt>
      <trkpt lat="39.917100" lon="-4.556267">
        <ele>2268.0</ele>
        <time>2013-07-03T14:28:06Z</time>
      </trkpt>
      <trkpt lat="39.917033" lon="-4.556150">
        <ele>2268.0</ele>
        <time>2013-07-03T14:28:07Z</time>
      </trkpt>
      <trkpt lat="39.916983" lon="-4.556033">
        <ele>2268.0</ele>
        <time>2013-07-03T14:28:08Z</time>
      </trkpt>
      <trkpt lat="39.916933" lon="-4.555917">
        <ele>2268.0</ele>
        <time>2013-07-03T14:28:09Z</time>
      </trkpt>
      <trkpt lat="39.916867" lon="-4.555800">
        <ele>2268.0</ele>
        <time>2013-07-03T14:28:10Z</time>
      </trkpt>
      <trkpt lat="39.916783" lon="-4.555700">
        <ele>2268.0</ele>
        <time>2013-07-03T14:28:11Z</time>
      </trkpt>
      <trkpt lat="39.916717" lon="-4.555583">
        <ele>2268.0</ele>
        <time>2013-07-03T14:28:12Z</time>
      </trkpt>
      <trkpt lat="39.916667" lon="-4.555483">
        <ele>2267.0</ele>
        <time>2013-07-03T14:28:13Z</time>
      </trkpt>
      <trkpt lat="39.916600" lon="-4.555367">
        <ele>2267.0</ele>
        <time>2013-07-03T14:28:14Z</time>
      </trkpt>
      <trkpt lat="39.916550" lon="-4.555250">
        <ele>2266.0</ele>
        <time>2013-07-03T14:28:15Z</time>
      </trkpt>
      <trkpt lat="39.916483" lon="-4.555133">
        <ele>2266.0</ele>
        <time>2013-07-03T14:28:16Z</time>
      </trkpt>
      <trkpt lat="39.916433" lon="-4.555000">
        <ele>2266.0</ele>
        <time>2013-07-03T14:28:17Z</time>
      </trkpt>
      <trkpt lat="39.916383" lon="-4.554900">
        <ele>2266.0</ele>
        <time>2013-07-03T14:28:18Z</time>
      </trkpt>
      <trkpt lat="39.916333" lon="-4.554783">
        <ele>2266.0</ele>
        <time>2013-07-03T14:28:19Z</time>
      </trkpt>
      <trkpt lat="39.916283" lon="-4.554683">
        <ele>2266.0</ele>
        <time>2013-07-03T14:28:20Z</time>
      </trkpt>
      <trkpt lat="39.916233" lon="-4.554550">
        <ele>2265.0</ele>
        <time>2013-07-03T14:28:21Z</time>
      </trkpt>
      <trkpt lat="39.916167" lon="-4.554433">
        <ele>2264.0</ele>
        <time>2013-07-03T14:28:22Z</time>
      </trkpt>
      <trkpt lat="39.916100" lon="-4.554300">
        <ele>2263.0</ele>
        <time>2013-07-03T14:28:23Z</time>
      </trkpt>
      <trkpt lat="39.916033" lon="-4.554167">
        <ele>2263.0</ele>
        <time>2013-07-03T14:28:24Z</time>
      </trkpt>
      <trkpt lat="39.915983" lon="-4.554033">
        <ele>2263.0</ele>
        <time>2013-07-03T14:28:25Z</time>
      </trkpt>
      <trkpt lat="39.915933" lon="-4.553917">
        <ele>2263.0</ele>
        <time>2013-07-03T14:28:26Z</time>
      </trkpt>
      <trkpt lat="39.915867" lon="-4.553800">
        <ele>2261.0</ele>
        <time>2013-07-03T14:28:27Z</time>
      </trkpt>
      <trkpt lat="39.915817" lon="-4.553667">
        <ele>2260.0</ele>
        <time>2013-07-03T14:28:28Z</time>
      </trkpt>
      <trkpt lat="39.915750" lon="-4.553533">
        <ele>2259.0</ele>
        <time>2013-07-03T14:28:29Z</time>
      </trkpt>
      <trkpt lat="39.915700" lon="-4.553400">
        <ele>2259.0</ele>
        <time>2013-07-03T14:28:30Z</time>
      </trkpt>
      <trkpt lat="39.915667" lon="-4.553300">
        <ele>2260.0</ele>
        <time>2013-07-03T14:28:31Z</time>
      </trkpt>
      <trkpt lat="39.915617" lon="-4.553200">
        <ele>2260.0</ele>
        <time>2013-07-03T14:28:32Z</time>
      </trkpt>
      <trkpt lat="39.915567" lon="-4.553117">
        <ele>2260.0</ele>
        <time>2013-07-03T14:28:33Z</time>
      </trkpt>
      <trkpt lat="39.915517" lon="-4.553017">
        <ele>2259.0</ele>
        <time>2013-07-03T14:28:34Z</time>
      </trkpt>
      <trkpt lat="39.915450" lon="-4.552900">
        <ele>2257.0</ele>
        <time>2013-07-03T14:28:35Z</time>
      </trkpt>
      <trkpt lat="39.915383" lon="-4.552767">
        <ele>2256.0</ele>
        <time>2013-07-03T14:28:36Z</time>
      </trkpt>
      <trkpt lat="39.915317" lon="-4.552650">
        <ele>2257.0</ele>
        <time>2013-07-03T14:28:37Z</time>
      </trkpt>
      <trkpt lat="39.915267" lon="-4.552533">
        <ele>2257.0</ele>
        <time>2013-07-03T14:28:38Z</time>
      </trkpt>
      <trkpt lat="39.915200" lon="-4.552417">
        <ele>2258.0</ele>
        <time>2013-07-03T14:28:39Z</time>
      </trkpt>
      <trkpt lat="39.915133" lon="-4.552317">
        <ele>2258.0</ele>
        <time>2013-07-03T14:28:40Z</time>
      </trkpt>
      <trkpt lat="39.915067" lon="-4.552200">
        <ele>2257.0</ele>
        <time>2013-07-03T14:28:41Z</time>
      </trkpt>
      <trkpt lat="39.915000" lon="-4.552100">
        <ele>2255.0</ele>
        <time>2013-07-03T14:28:42Z</time>
      </trkpt>
      <trkpt lat="39.914933" lon="-4.551967">
        <ele>2252.0</ele>
        <time>2013-07-03T14:28:43Z</time>
      </trkpt>
      <trkpt lat="39.914867" lon="-4.551833">
        <ele>2250.0</ele>
        <time>2013-07-03T14:28:44Z</time>
      </trkpt>
      <trkpt lat="39.914783" lon="-4.551717">
        <ele>2248.0</ele>
        <time>2013-07-03T14:28:45Z</time>
      </trkpt>
      <trkpt lat="39.914700" lon="-4.551600">
        <ele>2247.0</ele>
        <time>2013-07-03T14:28:46Z</time>
      </trkpt>
      <trkpt lat="39.914600" lon="-4.551483">
        <ele>2246.0</ele>
        <time>2013-07-03T14:28:47Z</time>
      </trkpt>
      <trkpt lat="39.914517" lon="-4.551367">
        <ele>2243.0</ele>
        <time>2013-07-03T14:28:48Z</time>
      </trkpt>
      <trkpt lat="39.914433" lon="-4.551233">
        <ele>2241.0</ele>
        <time>2013-07-03T14:28:49Z</time>
      </trkpt>
      <trkpt lat="39.914350" lon="-4.551100">
        <ele>2238.0</ele>
        <time>2013-07-03T14:28:50Z</time>
      </trkpt>
      <trkpt lat="39.914250" lon="-4.550967">
        <ele>2235.0</ele>
        <time>2013-07-03T14:28:51Z</time>
      </trkpt>
      <trkpt lat="39.914167" lon="-4.550833">
        <ele>2232.0</ele>
        <time>2013-07-03T14:28:52Z</time>
      </trkpt>
      <trkpt lat="39.914067" lon="-4.550700">
        <ele>2230.0</ele>
        <time>2013-07-03T14:28:53Z</time>
      </trkpt>
      <trkpt lat="39.914000" lon="-4.550583">
        <ele>2228.0</ele>
        <time>2013-07-03T14:28:54Z</time>
      </trkpt>
      <trkpt lat="39.913917" lon="-4.550450">
        <ele>2226.0</ele>
        <time>2013-07-03T14:28:55Z</time>
      </trkpt>
      <trkpt lat="39.913833" lon="-4.550350">
        <ele>2224.0</ele>
        <time>2013-07-03T14:28:56Z</time>
      </trkpt>
      <trkpt lat="39.913767" lon="-4.550233">
        <ele>2222.0</ele>
        <time>2013-07-03T14:28:57Z</time>
      </trkpt>
      <trkpt lat="39.913700" lon="-4.550117">
        <ele>2219.0</ele>
        <time>2013-07-03T14:28:58Z</time>
      </trkpt>
      <trkpt lat="39.913617" lon="-4.549983">
        <ele>2215.0</ele>
        <time>2013-07-03T14:28:59Z</time>
      </trkpt>
      <trkpt lat="39.913517" lon="-4.549867">
        <ele>2213.0</ele>
        <time>2013-07-03T14:29:00Z</time>
      </trkpt>
      <trkpt lat="39.913433" lon="-4.549750">
        <ele>2211.0</ele>
        <time>2013-07-03T14:29:01Z</time>
      </trkpt>
      <trkpt lat="39.913333" lon="-4.549633">
        <ele>2210.0</ele>
        <time>2013-07-03T14:29:02Z</time>
      </trkpt>
      <trkpt lat="39.913267" lon="-4.549533">
        <ele>2209.0</ele>
        <time>2013-07-03T14:29:03Z</time>
      </trkpt>
      <trkpt lat="39.913183" lon="-4.549433">
        <ele>2207.0</ele>
        <time>2013-07-03T14:29:04Z</time>
      </trkpt>
      <trkpt lat="39.913083" lon="-4.549317">
        <ele>2204.0</ele>
        <time>2013-07-03T14:29:05Z</time>
      </trkpt>
      <trkpt lat="39.913000" lon="-4.549200">
        <ele>2202.0</ele>
        <time>2013-07-03T14:29:06Z</time>
      </trkpt>
      <trkpt lat="39.912917" lon="-4.549067">
        <ele>2200.0</ele>
        <time>2013-07-03T14:29:07Z</time>
      </trkpt>
      <trkpt lat="39.912833" lon="-4.548933">
        <ele>2200.0</ele>
        <time>2013-07-03T14:29:08Z</time>
      </trkpt>
      <trkpt lat="39.912750" lon="-4.548817">
        <ele>2199.0</ele>
        <time>2013-07-03T14:29:09Z</time>
      </trkpt>
      <trkpt lat="39.912667" lon="-4.548717">
        <ele>2198.0</ele>
        <time>2013-07-03T14:29:10Z</time>
      </trkpt>
      <trkpt lat="39.912583" lon="-4.548600">
        <ele>2195.0</ele>
        <time>2013-07-03T14:29:11Z</time>
      </trkpt>
      <trkpt lat="39.912483" lon="-4.548483">
        <ele>2192.0</ele>
        <time>2013-07-03T14:29:12Z</time>
      </trkpt>
      <trkpt lat="39.912400" lon="-4.548350">
        <ele>2189.0</ele>
        <time>2013-07-03T14:29:13Z</time>
      </trkpt>
      <trkpt lat="39.912317" lon="-4.548200">
        <ele>2186.0</ele>
        <time>2013-07-03T14:29:14Z</time>
      </trkpt>
      <trkpt lat="39.912233" lon="-4.548067">
        <ele>2183.0</ele>
        <time>2013-07-03T14:29:15Z</time>
      </trkpt>
      <trkpt lat="39.912150" lon="-4.547917">
        <ele>2182.0</ele>
        <time>2013-07-03T14:29:16Z</time>
      </trkpt>
      <trkpt lat="39.912083" lon="-4.547800">
        <ele>2180.0</ele>
        <time>2013-07-03T14:29:17Z</time>
      </trkpt>
      <trkpt lat="39.912000" lon="-4.547667">
        <ele>2179.0</ele>
        <time>2013-07-03T14:29:18Z</time>
      </trkpt>
      <trkpt lat="39.911900" lon="-4.547533">
        <ele>2178.0</ele>
        <time>2013-07-03T14:29:19Z</time>
      </trkpt>
      <trkpt lat="39.911817" lon="-4.547400">
        <ele>2176.0</ele>
        <time>2013-07-03T14:29:20Z</time>
      </trkpt>
      <trkpt lat="39.911733" lon="-4.547267">
        <ele>2174.0</ele>
        <time>2013-07-03T14:29:21Z</time>
      </trkpt>
      <trkpt lat="39.911650" lon="-4.547133">
        <ele>2173.0</ele>
        <time>2013-07-03T14:29:22Z</time>
      </trkpt>
      <trkpt lat="39.911550" lon="-4.547000">
        <ele>2173.0</ele>
        <time>2013-07-03T14:29:23Z</time>
      </trkpt>
      <trkpt lat="39.911467" lon="-4.546883">
        <ele>2173.0</ele>
        <time>2013-07-03T14:29:24Z</time>
      </trkpt>
      <trkpt lat="39.911367" lon="-4.546767">
        <ele>2172.0</ele>
        <time>2013-07-03T14:29:25Z</time>
      </trkpt>
      <trkpt lat="39.911267" lon="-4.546667">
        <ele>2171.0</ele>
        <time>2013-07-03T14:29:26Z</time>
      </trkpt>
      <trkpt lat="39.911183" lon="-4.546550">
        <ele>2169.0</ele>
        <time>2013-07-03T14:29:27Z</time>
      </trkpt>
      <trkpt lat="39.911083" lon="-4.546450">
        <ele>2167.0</ele>
        <time>2013-07-03T14:29:28Z</time>
      </trkpt>
      <trkpt lat="39.911017" lon="-4.546317">
        <ele>2166.0</ele>
        <time>2013-07-03T14:29:29Z</time>
      </trkpt>
      <trkpt lat="39.910950" lon="-4.546200">
        <ele>2164.0</ele>
        <time>2013-07-03T14:29:30Z</time>
      </trkpt>
      <trkpt lat="39.910883" lon="-4.546083">
        <ele>2163.0</ele>
        <time>2013-07-03T14:29:31Z</time>
      </trkpt>
      <trkpt lat="39.910800" lon="-4.545967">
        <ele>2160.0</ele>
        <time>2013-07-03T14:29:32Z</time>
      </trkpt>
      <trkpt lat="39.910717" lon="-4.545833">
        <ele>2157.0</ele>
        <time>2013-07-03T14:29:33Z</time>
      </trkpt>
      <trkpt lat="39.910617" lon="-4.545700">
        <ele>2155.0</ele>
        <time>2013-07-03T14:29:34Z</time>
      </trkpt>
      <trkpt lat="39.910533" lon="-4.545550">
        <ele>2152.0</ele>
        <time>2013-07-03T14:29:35Z</time>
      </trkpt>
      <trkpt lat="39.910467" lon="-4.545417">
        <ele>2150.0</ele>
        <time>2013-07-03T14:29:36Z</time>
      </trkpt>
      <trkpt lat="39.910383" lon="-4.545283">
        <ele>2149.0</ele>
        <time>2013-07-03T14:29:37Z</time>
      </trkpt>
      <trkpt lat="39.910300" lon="-4.545150">
        <ele>2148.0</ele>
        <time>2013-07-03T14:29:38Z</time>
      </trkpt>
      <trkpt lat="39.910217" lon="-4.545033">
        <ele>2146.0</ele>
        <time>2013-07-03T14:29:39Z</time>
      </trkpt>
      <trkpt lat="39.910133" lon="-4.544883">
        <ele>2143.0</ele>
        <time>2013-07-03T14:29:40Z</time>
      </trkpt>
      <trkpt lat="39.910083" lon="-4.544733">
        <ele>2140.0</ele>
        <time>2013-07-03T14:29:41Z</time>
      </trkpt>
      <trkpt lat="39.910017" lon="-4.544567">
        <ele>2138.0</ele>
        <time>2013-07-03T14:29:42Z</time>
      </trkpt>
      <trkpt lat="39.909950" lon="-4.544433">
        <ele>2138.0</ele>
        <time>2013-07-03T14:29:43Z</time>
      </trkpt>
      <trkpt lat="39.909867" lon="-4.544317">
        <ele>2138.0</ele>
        <time>2013-07-03T14:29:44Z</time>
      </trkpt>
      <trkpt lat="39.909800" lon="-4.544200">
        <ele>2137.0</ele>
        <time>2013-07-03T14:29:45Z</time>
      </trkpt>
      <trkpt lat="39.909733" lon="-4.544083">
        <ele>2135.0</ele>
        <time>2013-07-03T14:29:46Z</time>
      </trkpt>
      <trkpt lat="39.909667" lon="-4.543950">
        <ele>2132.0</ele>
        <time>2013-07-03T14:29:47Z</time>
      </trkpt>
      <trkpt lat="39.909617" lon="-4.543817">
        <ele>2129.0</ele>
        <time>2013-07-03T14:29:48Z</time>
      </trkpt>
      <trkpt lat="39.909550" lon="-4.543667">
        <ele>2127.0</ele>
        <time>2013-07-03T14:29:49Z</time>
      </trkpt>
      <trkpt lat="39.909483" lon="-4.543517">
        <ele>2126.0</ele>
        <time>2013-07-03T14:29:50Z</time>
      </trkpt>
      <trkpt lat="39.909417" lon="-4.543383">
        <ele>2125.0</ele>
        <time>2013-07-03T14:29:51Z</time>
      </trkpt>
      <trkpt lat="39.909350" lon="-4.543250">
        <ele>2125.0</ele>
        <time>2013-07-03T14:29:52Z</time>
      </trkpt>
      <trkpt lat="39.909283" lon="-4.543133">
        <ele>2125.0</ele>
        <time>2013-07-03T14:29:53Z</time>
      </trkpt>
      <trkpt lat="39.909233" lon="-4.543000">
        <ele>2125.0</ele>
        <time>2013-07-03T14:29:54Z</time>
      </trkpt>
      <trkpt lat="39.909183" lon="-4.542883">
        <ele>2125.0</ele>
        <time>2013-07-03T14:29:55Z</time>
      </trkpt>
      <trkpt lat="39.909133" lon="-4.542767">
        <ele>2124.0</ele>
        <time>2013-07-03T14:29:56Z</time>
      </trkpt>
      <trkpt lat="39.909083" lon="-4.542650">
        <ele>2124.0</ele>
        <time>2013-07-03T14:29:57Z</time>
      </trkpt>
      <trkpt lat="39.909033" lon="-4.542533">
        <ele>2123.0</ele>
        <time>2013-07-03T14:29:58Z</time>
      </trkpt>
      <trkpt lat="39.908967" lon="-4.542417">
        <ele>2122.0</ele>
        <time>2013-07-03T14:29:59Z</time>
      </trkpt>
      <trkpt lat="39.908900" lon="-4.542300">
        <ele>2121.0</ele>
        <time>2013-07-03T14:30:00Z</time>
      </trkpt>
      <trkpt lat="39.908833" lon="-4.542183">
        <ele>2119.0</ele>
        <time>2013-07-03T14:30:01Z</time>
      </trkpt>
      <trkpt lat="39.908750" lon="-4.542067">
        <ele>2117.0</ele>
        <time>2013-07-03T14:30:02Z</time>
      </trkpt>
      <trkpt lat="39.908667" lon="-4.541933">
        <ele>2116.0</ele>
        <time>2013-07-03T14:30:03Z</time>
      </trkpt>
      <trkpt lat="39.908600" lon="-4.541817">
        <ele>2115.0</ele>
        <time>2013-07-03T14:30:04Z</time>
      </trkpt>
      <trkpt lat="39.908533" lon="-4.541683">
        <ele>2114.0</ele>
        <time>2013-07-03T14:30:05Z</time>
      </trkpt>
      <trkpt lat="39.908467" lon="-4.541567">
        <ele>2113.0</ele>
        <time>2013-07-03T14:30:06Z</time>
      </trkpt>
      <trkpt lat="39.908400" lon="-4.541433">
        <ele>2111.0</ele>
        <time>2013-07-03T14:30:07Z</time>
      </trkpt>
      <trkpt lat="39.908317" lon="-4.541317">
        <ele>2110.0</ele>
        <time>2013-07-03T14:30:08Z</time>
      </trkpt>
      <trkpt lat="39.908250" lon="-4.541183">
        <ele>2109.0</ele>
        <time>2013-07-03T14:30:09Z</time>
      </trkpt>
      <trkpt lat="39.908167" lon="-4.541050">
        <ele>2108.0</ele>
        <time>2013-07-03T14:30:10Z</time>
      </trkpt>
      <trkpt lat="39.908083" lon="-4.540933">
        <ele>2107.0</ele>
        <time>2013-07-03T14:30:11Z</time>
      </trkpt>
      <trkpt lat="39.908017" lon="-4.540817">
        <ele>2106.0</ele>
        <time>2013-07-03T14:30:12Z</time>
      </trkpt>
      <trkpt lat="39.907933" lon="-4.540700">
        <ele>2104.0</ele>
        <time>2013-07-03T14:30:13Z</time>
      </trkpt>
      <trkpt lat="39.907867" lon="-4.540583">
        <ele>2102.0</ele>
        <time>2013-07-03T14:30:14Z</time>
      </trkpt>
      <trkpt lat="39.907800" lon="-4.540450">
        <ele>2100.0</ele>
        <time>2013-07-03T14:30:15Z</time>
      </trkpt>
      <trkpt lat="39.907717" lon="-4.540333">
        <ele>2098.0</ele>
        <time>2013-07-03T14:30:16Z</time>
      </trkpt>
      <trkpt lat="39.907650" lon="-4.540217">
        <ele>2096.0</ele>
        <time>2013-07-03T14:30:17Z</time>
      </trkpt>
      <trkpt lat="39.907583" lon="-4.540100">
        <ele>2094.0</ele>
        <time>2013-07-03T14:30:18Z</time>
      </trkpt>
      <trkpt lat="39.907517" lon="-4.539967">
        <ele>2092.0</ele>
        <time>2013-07-03T14:30:19Z</time>
      </trkpt>
      <trkpt lat="39.907467" lon="-4.539833">
        <ele>2090.0</ele>
        <time>2013-07-03T14:30:20Z</time>
      </trkpt>
      <trkpt lat="39.907400" lon="-4.539700">
        <ele>2088.0</ele>
        <time>2013-07-03T14:30:21Z</time>
      </trkpt>
      <trkpt lat="39.907350" lon="-4.539583">
        <ele>2086.0</ele>
        <time>2013-07-03T14:30:22Z</time>
      </trkpt>
      <trkpt lat="39.907300" lon="-4.539450">
        <ele>2084.0</ele>
        <time>2013-07-03T14:30:23Z</time>
      </trkpt>
      <trkpt lat="39.907233" lon="-4.539333">
        <ele>2082.0</ele>
        <time>2013-07-03T14:30:24Z</time>
      </trkpt>
      <trkpt lat="39.907150" lon="-4.539200">
        <ele>2080.0</ele>
        <time>2013-07-03T14:30:25Z</time>
      </trkpt>
      <trkpt lat="39.907083" lon="-4.539067">
        <ele>2077.0</ele>
        <time>2013-07-03T14:30:26Z</time>
      </trkpt>
      <trkpt lat="39.907000" lon="-4.538933">
        <ele>2075.0</ele>
        <time>2013-07-03T14:30:27Z</time>
      </trkpt>
      <trkpt lat="39.906933" lon="-4.538800">
        <ele>2073.0</ele>
        <time>2013-07-03T14:30:28Z</time>
      </trkpt>
      <trkpt lat="39.906867" lon="-4.538683">
        <ele>2072.0</ele>
        <time>2013-07-03T14:30:29Z</time>
      </trkpt>
      <trkpt lat="39.906800" lon="-4.538567">
        <ele>2070.0</ele>
        <time>2013-07-03T14:30:30Z</time>
      </trkpt>
      <trkpt lat="39.906750" lon="-4.538450">
        <ele>2068.0</ele>
        <time>2013-07-03T14:30:31Z</time>
      </trkpt>
      <trkpt lat="39.906683" lon="-4.538333">
        <ele>2066.0</ele>
        <time>2013-07-03T14:30:32Z</time>
      </trkpt>
      <trkpt lat="39.906633" lon="-4.538200">
        <ele>2063.0</ele>
        <time>2013-07-03T14:30:33Z</time>
      </trkpt>
      <trkpt lat="39.906583" lon="-4.538083">
        <ele>2060.0</ele>
        <time>2013-07-03T14:30:34Z</time>
      </trkpt>
      <trkpt lat="39.906533" lon="-4.537933">
        <ele>2058.0</ele>
        <time>2013-07-03T14:30:35Z</time>
      </trkpt>
      <trkpt lat="39.906483" lon="-4.537817">
        <ele>2056.0</ele>
        <time>2013-07-03T14:30:36Z</time>
      </trkpt>
      <trkpt lat="39.906433" lon="-4.537683">
        <ele>2054.0</ele>
        <time>2013-07-03T14:30:37Z</time>
      </trkpt>
      <trkpt lat="39.906400" lon="-4.537550">
        <ele>2052.0</ele>
        <time>2013-07-03T14:30:38Z</time>
      </trkpt>
      <trkpt lat="39.906350" lon="-4.537433">
        <ele>2050.0</ele>
        <time>2013-07-03T14:30:39Z</time>
      </trkpt>
      <trkpt lat="39.906283" lon="-4.537300">
        <ele>2048.0</ele>
        <time>2013-07-03T14:30:40Z</time>
      </trkpt>
      <trkpt lat="39.906233" lon="-4.537167">
        <ele>2045.0</ele>
        <time>2013-07-03T14:30:41Z</time>
      </trkpt>
      <trkpt lat="39.906183" lon="-4.537033">
        <ele>2043.0</ele>
        <time>2013-07-03T14:30:42Z</time>
      </trkpt>
      <trkpt lat="39.906133" lon="-4.536917">
        <ele>2042.0</ele>
        <time>2013-07-03T14:30:43Z</time>
      </trkpt>
      <trkpt lat="39.906083" lon="-4.536800">
        <ele>2040.0</ele>
        <time>2013-07-03T14:30:44Z</time>
      </trkpt>
      <trkpt lat="39.906033" lon="-4.536667">
        <ele>2038.0</ele>
        <time>2013-07-03T14:30:45Z</time>
      </trkpt>
      <trkpt lat="39.905983" lon="-4.536550">
        <ele>2036.0</ele>
        <time>2013-07-03T14:30:46Z</time>
      </trkpt>
      <trkpt lat="39.905933" lon="-4.536417">
        <ele>2033.0</ele>
        <time>2013-07-03T14:30:47Z</time>
      </trkpt>
      <trkpt lat="39.905867" lon="-4.536283">
        <ele>2030.0</ele>
        <time>2013-07-03T14:30:48Z</time>
      </trkpt>
      <trkpt lat="39.905800" lon="-4.536133">
        <ele>2027.0</ele>
        <time>2013-07-03T14:30:49Z</time>
      </trkpt>
      <trkpt lat="39.905717" lon="-4.536000">
        <ele>2024.0</ele>
        <time>2013-07-03T14:30:50Z</time>
      </trkpt>
      <trkpt lat="39.905633" lon="-4.535867">
        <ele>2022.0</ele>
        <time>2013-07-03T14:30:51Z</time>
      </trkpt>
      <trkpt lat="39.905550" lon="-4.535733">
        <ele>2020.0</ele>
        <time>2013-07-03T14:30:52Z</time>
      </trkpt>
      <trkpt lat="39.905483" lon="-4.535600">
        <ele>2018.0</ele>
        <time>2013-07-03T14:30:53Z</time>
      </trkpt>
      <trkpt lat="39.905417" lon="-4.535467">
        <ele>2016.0</ele>
        <time>2013-07-03T14:30:54Z</time>
      </trkpt>
      <trkpt lat="39.905333" lon="-4.535333">
        <ele>2014.0</ele>
        <time>2013-07-03T14:30:55Z</time>
      </trkpt>
      <trkpt lat="39.905250" lon="-4.535200">
        <ele>2011.0</ele>
        <time>2013-07-03T14:30:56Z</time>
      </trkpt>
      <trkpt lat="39.905183" lon="-4.535067">
        <ele>2009.0</ele>
        <time>2013-07-03T14:30:57Z</time>
      </trkpt>
      <trkpt lat="39.905117" lon="-4.534933">
        <ele>2006.0</ele>
        <time>2013-07-03T14:30:58Z</time>
      </trkpt>
      <trkpt lat="39.905033" lon="-4.534800">
        <ele>2004.0</ele>
        <time>2013-07-03T14:30:59Z</time>
      </trkpt>
      <trkpt lat="39.904967" lon="-4.534667">
        <ele>2000.0</ele>
        <time>2013-07-03T14:31:00Z</time>
      </trkpt>
      <trkpt lat="39.904883" lon="-4.534550">
        <ele>1997.0</ele>
        <time>2013-07-03T14:31:01Z</time>
      </trkpt>
      <trkpt lat="39.904817" lon="-4.534400">
        <ele>1993.0</ele>
        <time>2013-07-03T14:31:02Z</time>
      </trkpt>
      <trkpt lat="39.904733" lon="-4.534267">
        <ele>1989.0</ele>
        <time>2013-07-03T14:31:03Z</time>
      </trkpt>
      <trkpt lat="39.904667" lon="-4.534117">
        <ele>1986.0</ele>
        <time>2013-07-03T14:31:04Z</time>
      </trkpt>
      <trkpt lat="39.904583" lon="-4.533967">
        <ele>1983.0</ele>
        <time>2013-07-03T14:31:05Z</time>
      </trkpt>
      <trkpt lat="39.904500" lon="-4.533833">
        <ele>1981.0</ele>
        <time>2013-07-03T14:31:06Z</time>
      </trkpt>
      <trkpt lat="39.904433" lon="-4.533700">
        <ele>1979.0</ele>
        <time>2013-07-03T14:31:07Z</time>
      </trkpt>
      <trkpt lat="39.904350" lon="-4.533567">
        <ele>1976.0</ele>
        <time>2013-07-03T14:31:08Z</time>
      </trkpt>
      <trkpt lat="39.904283" lon="-4.533433">
        <ele>1973.0</ele>
        <time>2013-07-03T14:31:09Z</time>
      </trkpt>
      <trkpt lat="39.904217" lon="-4.533283">
        <ele>1969.0</ele>
        <time>2013-07-03T14:31:10Z</time>
      </trkpt>
      <trkpt lat="39.904133" lon="-4.533150">
        <ele>1964.0</ele>
        <time>2013-07-03T14:31:11Z</time>
      </trkpt>
      <trkpt lat="39.904050" lon="-4.533000">
        <ele>1960.0</ele>
        <time>2013-07-03T14:31:12Z</time>
      </trkpt>
      <trkpt lat="39.903967" lon="-4.532833">
        <ele>1956.0</ele>
        <time>2013-07-03T14:31:13Z</time>
      </trkpt>
      <trkpt lat="39.903900" lon="-4.532683">
        <ele>1952.0</ele>
        <time>2013-07-03T14:31:14Z</time>
      </trkpt>
      <trkpt lat="39.903850" lon="-4.532517">
        <ele>1949.0</ele>
        <time>2013-07-03T14:31:15Z</time>
      </trkpt>
      <trkpt lat="39.903783" lon="-4.532367">
        <ele>1946.0</ele>
        <time>2013-07-03T14:31:16Z</time>
      </trkpt>
      <trkpt lat="39.903733" lon="-4.532233">
        <ele>1943.0</ele>
        <time>2013-07-03T14:31:17Z</time>
      </trkpt>
      <trkpt lat="39.903683" lon="-4.532100">
        <ele>1940.0</ele>
        <time>2013-07-03T14:31:18Z</time>
      </trkpt>
      <trkpt lat="39.903633" lon="-4.531967">
        <ele>1937.0</ele>
        <time>2013-07-03T14:31:19Z</time>
      </trkpt>
      <trkpt lat="39.903600" lon="-4.531817">
        <ele>1932.0</ele>
        <time>2013-07-03T14:31:20Z</time>
      </trkpt>
      <trkpt lat="39.903550" lon="-4.531667">
        <ele>1928.0</ele>
        <time>2013-07-03T14:31:21Z</time>
      </trkpt>
      <trkpt lat="39.903517" lon="-4.531517">
        <ele>1925.0</ele>
        <time>2013-07-03T14:31:22Z</time>
      </trkpt>
      <trkpt lat="39.903467" lon="-4.531367">
        <ele>1923.0</ele>
        <time>2013-07-03T14:31:23Z</time>
      </trkpt>
      <trkpt lat="39.903433" lon="-4.531233">
        <ele>1920.0</ele>
        <time>2013-07-03T14:31:24Z</time>
      </trkpt>
      <trkpt lat="39.903400" lon="-4.531117">
        <ele>1917.0</ele>
        <time>2013-07-03T14:31:25Z</time>
      </trkpt>
      <trkpt lat="39.903367" lon="-4.530983">
        <ele>1913.0</ele>
        <time>2013-07-03T14:31:26Z</time>
      </trkpt>
      <trkpt lat="39.903333" lon="-4.530867">
        <ele>1908.0</ele>
        <time>2013-07-03T14:31:27Z</time>
      </trkpt>
      <trkpt lat="39.903300" lon="-4.530717">
        <ele>1902.0</ele>
        <time>2013-07-03T14:31:28Z</time>
      </trkpt>
      <trkpt lat="39.903267" lon="-4.530550">
        <ele>1897.0</ele>
        <time>2013-07-03T14:31:29Z</time>
      </trkpt>
      <trkpt lat="39.903250" lon="-4.530400">
        <ele>1893.0</ele>
        <time>2013-07-03T14:31:30Z</time>
      </trkpt>
      <trkpt lat="39.903250" lon="-4.530250">
        <ele>1890.0</ele>
        <time>2013-07-03T14:31:31Z</time>
      </trkpt>
      <trkpt lat="39.903233" lon="-4.530133">
        <ele>1886.0</ele>
        <time>2013-07-03T14:31:32Z</time>
      </trkpt>
      <trkpt lat="39.903233" lon="-4.530000">
        <ele>1883.0</ele>
        <time>2013-07-03T14:31:33Z</time>
      </trkpt>
      <trkpt lat="39.903217" lon="-4.529867">
        <ele>1879.0</ele>
        <time>2013-07-03T14:31:34Z</time>
      </trkpt>
      <trkpt lat="39.903217" lon="-4.529733">
        <ele>1876.0</ele>
        <time>2013-07-03T14:31:35Z</time>
      </trkpt>
      <trkpt lat="39.903200" lon="-4.529583">
        <ele>1872.0</ele>
        <time>2013-07-03T14:31:36Z</time>
      </trkpt>
      <trkpt lat="39.903183" lon="-4.529433">
        <ele>1869.0</ele>
        <time>2013-07-03T14:31:37Z</time>
      </trkpt>
      <trkpt lat="39.903167" lon="-4.529300">
        <ele>1865.0</ele>
        <time>2013-07-03T14:31:38Z</time>
      </trkpt>
      <trkpt lat="39.903150" lon="-4.529150">
        <ele>1862.0</ele>
        <time>2013-07-03T14:31:39Z</time>
      </trkpt>
      <trkpt lat="39.903150" lon="-4.529000">
        <ele>1858.0</ele>
        <time>2013-07-03T14:31:40Z</time>
      </trkpt>
      <trkpt lat="39.903133" lon="-4.528833">
        <ele>1854.0</ele>
        <time>2013-07-03T14:31:41Z</time>
      </trkpt>
      <trkpt lat="39.903117" lon="-4.528667">
        <ele>1853.0</ele>
        <time>2013-07-03T14:31:42Z</time>
      </trkpt>
      <trkpt lat="39.903100" lon="-4.528517">
        <ele>1851.0</ele>
        <time>2013-07-03T14:31:43Z</time>
      </trkpt>
      <trkpt lat="39.903100" lon="-4.528383">
        <ele>1849.0</ele>
        <time>2013-07-03T14:31:44Z</time>
      </trkpt>
      <trkpt lat="39.903100" lon="-4.528233">
        <ele>1847.0</ele>
        <time>2013-07-03T14:31:45Z</time>
      </trkpt>
      <trkpt lat="39.903083" lon="-4.528100">
        <ele>1843.0</ele>
        <time>2013-07-03T14:31:46Z</time>
      </trkpt>
      <trkpt lat="39.903067" lon="-4.527950">
        <ele>1839.0</ele>
        <time>2013-07-03T14:31:47Z</time>
      </trkpt>
      <trkpt lat="39.903050" lon="-4.527800">
        <ele>1834.0</ele>
        <time>2013-07-03T14:31:48Z</time>
      </trkpt>
      <trkpt lat="39.903050" lon="-4.527650">
        <ele>1831.0</ele>
        <time>2013-07-03T14:31:49Z</time>
      </trkpt>
      <trkpt lat="39.903033" lon="-4.527500">
        <ele>1828.0</ele>
        <time>2013-07-03T14:31:50Z</time>
      </trkpt>
      <trkpt lat="39.903033" lon="-4.527350">
        <ele>1825.0</ele>
        <time>2013-07-03T14:31:51Z</time>
      </trkpt>
      <trkpt lat="39.903017" lon="-4.527200">
        <ele>1822.0</ele>
        <time>2013-07-03T14:31:52Z</time>
      </trkpt>
      <trkpt lat="39.903017" lon="-4.527050">
        <ele>1819.0</ele>
        <time>2013-07-03T14:31:53Z</time>
      </trkpt>
      <trkpt lat="39.903017" lon="-4.526900">
        <ele>1816.0</ele>
        <time>2013-07-03T14:31:54Z</time>
      </trkpt>
      <trkpt lat="39.903017" lon="-4.526750">
        <ele>1813.0</ele>
        <time>2013-07-03T14:31:55Z</time>
      </trkpt>
      <trkpt lat="39.903017" lon="-4.526617">
        <ele>1811.0</ele>
        <time>2013-07-03T14:31:56Z</time>
      </trkpt>
      <trkpt lat="39.903017" lon="-4.526467">
        <ele>1808.0</ele>
        <time>2013-07-03T14:31:57Z</time>
      </trkpt>
      <trkpt lat="39.903017" lon="-4.526333">
        <ele>1806.0</ele>
        <time>2013-07-03T14:31:58Z</time>
      </trkpt>
      <trkpt lat="39.903033" lon="-4.526200">
        <ele>1803.0</ele>
        <time>2013-07-03T14:31:59Z</time>
      </trkpt>
      <trkpt lat="39.903033" lon="-4.526050">
        <ele>1800.0</ele>
        <time>2013-07-03T14:32:00Z</time>
      </trkpt>
      <trkpt lat="39.903033" lon="-4.525917">
        <ele>1797.0</ele>
        <time>2013-07-03T14:32:01Z</time>
      </trkpt>
      <trkpt lat="39.903033" lon="-4.525767">
        <ele>1794.0</ele>
        <time>2013-07-03T14:32:02Z</time>
      </trkpt>
      <trkpt lat="39.903033" lon="-4.525617">
        <ele>1791.0</ele>
        <time>2013-07-03T14:32:03Z</time>
      </trkpt>
      <trkpt lat="39.903033" lon="-4.525467">
        <ele>1788.0</ele>
        <time>2013-07-03T14:32:04Z</time>
      </trkpt>
      <trkpt lat="39.903017" lon="-4.525317">
        <ele>1785.0</ele>
        <time>2013-07-03T14:32:05Z</time>
      </trkpt>
      <trkpt lat="39.903000" lon="-4.525150">
        <ele>1781.0</ele>
        <time>2013-07-03T14:32:06Z</time>
      </trkpt>
      <trkpt lat="39.902983" lon="-4.524983">
        <ele>1778.0</ele>
        <time>2013-07-03T14:32:07Z</time>
      </trkpt>
      <trkpt lat="39.902950" lon="-4.524817">
        <ele>1775.0</ele>
        <time>2013-07-03T14:32:08Z</time>
      </trkpt>
      <trkpt lat="39.902933" lon="-4.524650">
        <ele>1772.0</ele>
        <time>2013-07-03T14:32:09Z</time>
      </trkpt>
      <trkpt lat="39.902917" lon="-4.524483">
        <ele>1769.0</ele>
        <time>2013-07-03T14:32:10Z</time>
      </trkpt>
      <trkpt lat="39.902900" lon="-4.524333">
        <ele>1767.0</ele>
        <time>2013-07-03T14:32:11Z</time>
      </trkpt>
      <trkpt lat="39.902867" lon="-4.524183">
        <ele>1765.0</ele>
        <time>2013-07-03T14:32:12Z</time>
      </trkpt>
      <trkpt lat="39.902850" lon="-4.524050">
        <ele>1762.0</ele>
        <time>2013-07-03T14:32:13Z</time>
      </trkpt>
      <trkpt lat="39.902817" lon="-4.523917">
        <ele>1759.0</ele>
        <time>2013-07-03T14:32:14Z</time>
      </trkpt>
      <trkpt lat="39.902800" lon="-4.523783">
        <ele>1755.0</ele>
        <time>2013-07-03T14:32:15Z</time>
      </trkpt>
      <trkpt lat="39.902783" lon="-4.523633">
        <ele>1751.0</ele>
        <time>2013-07-03T14:32:16Z</time>
      </trkpt>
      <trkpt lat="39.902767" lon="-4.523500">
        <ele>1748.0</ele>
        <time>2013-07-03T14:32:17Z</time>
      </trkpt>
      <trkpt lat="39.902767" lon="-4.523367">
        <ele>1745.0</ele>
        <time>2013-07-03T14:32:18Z</time>
      </trkpt>
      <trkpt lat="39.902767" lon="-4.523250">
        <ele>1741.0</ele>
        <time>2013-07-03T14:32:19Z</time>
      </trkpt>
      <trkpt lat="39.902750" lon="-4.523100">
        <ele>1737.0</ele>
        <time>2013-07-03T14:32:20Z</time>
      </trkpt>
      <trkpt lat="39.902733" lon="-4.522967">
        <ele>1734.0</ele>
        <time>2013-07-03T14:32:21Z</time>
      </trkpt>
      <trkpt lat="39.902733" lon="-4.522833">
        <ele>1731.0</ele>
        <time>2013-07-03T14:32:22Z</time>
      </trkpt>
      <trkpt lat="39.902717" lon="-4.522700">
        <ele>1728.0</ele>
        <time>2013-07-03T14:32:23Z</time>
      </trkpt>
      <trkpt lat="39.902700" lon="-4.522567">
        <ele>1725.0</ele>
        <time>2013-07-03T14:32:24Z</time>
      </trkpt>
      <trkpt lat="39.902683" lon="-4.522433">
        <ele>1721.0</ele>
        <time>2013-07-03T14:32:25Z</time>
      </trkpt>
      <trkpt lat="39.902683" lon="-4.522283">
        <ele>1717.0</ele>
        <time>2013-07-03T14:32:26Z</time>
      </trkpt>
      <trkpt lat="39.902667" lon="-4.522133">
        <ele>1713.0</ele>
        <time>2013-07-03T14:32:27Z</time>
      </trkpt>
      <trkpt lat="39.902650" lon="-4.522000">
        <ele>1708.0</ele>
        <time>2013-07-03T14:32:28Z</time>
      </trkpt>
      <trkpt lat="39.902617" lon="-4.521850">
        <ele>1704.0</ele>
        <time>2013-07-03T14:32:29Z</time>
      </trkpt>
      <trkpt lat="39.902583" lon="-4.521700">
        <ele>1700.0</ele>
        <time>2013-07-03T14:32:30Z</time>
      </trkpt>
      <trkpt lat="39.902533" lon="-4.521550">
        <ele>1697.0</ele>
        <time>2013-07-03T14:32:31Z</time>
      </trkpt>
      <trkpt lat="39.902517" lon="-4.521400">
        <ele>1695.0</ele>
        <time>2013-07-03T14:32:32Z</time>
      </trkpt>
      <trkpt lat="39.902500" lon="-4.521267">
        <ele>1692.0</ele>
        <time>2013-07-03T14:32:33Z</time>
      </trkpt>
      <trkpt lat="39.902500" lon="-4.521133">
        <ele>1689.0</ele>
        <time>2013-07-03T14:32:34Z</time>
      </trkpt>
      <trkpt lat="39.902483" lon="-4.521017">
        <ele>1684.0</ele>
        <time>2013-07-03T14:32:35Z</time>
      </trkpt>
      <trkpt lat="39.902467" lon="-4.520883">
        <ele>1680.0</ele>
        <time>2013-07-03T14:32:36Z</time>
      </trkpt>
      <trkpt lat="39.902450" lon="-4.520750">
        <ele>1675.0</ele>
        <time>2013-07-03T14:32:37Z</time>
      </trkpt>
      <trkpt lat="39.902450" lon="-4.520600">
        <ele>1669.0</ele>
        <time>2013-07-03T14:32:38Z</time>
      </trkpt>
      <trkpt lat="39.902450" lon="-4.520450">
        <ele>1665.0</ele>
        <time>2013-07-03T14:32:39Z</time>
      </trkpt>
      <trkpt lat="39.902467" lon="-4.520317">
        <ele>1661.0</ele>
        <time>2013-07-03T14:32:40Z</time>
      </trkpt>
      <trkpt lat="39.902467" lon="-4.520183">
        <ele>1658.0</ele>
        <time>2013-07-03T14:32:41Z</time>
      </trkpt>
      <trkpt lat="39.902467" lon="-4.520050">
        <ele>1654.0</ele>
        <time>2013-07-03T14:32:42Z</time>
      </trkpt>
      <trkpt lat="39.902483" lon="-4.519917">
        <ele>1649.0</ele>
        <time>2013-07-03T14:32:43Z</time>
      </trkpt>
      <trkpt lat="39.902500" lon="-4.519767">
        <ele>1644.0</ele>
        <time>2013-07-03T14:32:44Z</time>
      </trkpt>
      <trkpt lat="39.902517" lon="-4.519600">
        <ele>1640.0</ele>
        <time>2013-07-03T14:32:45Z</time>
      </trkpt>
      <trkpt lat="39.902533" lon="-4.519467">
        <ele>1637.0</ele>
        <time>2013-07-03T14:32:46Z</time>
      </trkpt>
      <trkpt lat="39.902550" lon="-4.519317">
        <ele>1635.0</ele>
        <time>2013-07-03T14:32:47Z</time>
      </trkpt>
      <trkpt lat="39.902583" lon="-4.519200">
        <ele>1633.0</ele>
        <time>2013-07-03T14:32:48Z</time>
      </trkpt>
      <trkpt lat="39.902617" lon="-4.519083">
        <ele>1629.0</ele>
        <time>2013-07-03T14:32:49Z</time>
      </trkpt>
      <trkpt lat="39.902650" lon="-4.518950">
        <ele>1625.0</ele>
        <time>2013-07-03T14:32:50Z</time>
      </trkpt>
      <trkpt lat="39.902683" lon="-4.518800">
        <ele>1621.0</ele>
        <time>2013-07-03T14:32:51Z</time>
      </trkpt>
      <trkpt lat="39.902717" lon="-4.518633">
        <ele>1616.0</ele>
        <time>2013-07-03T14:32:52Z</time>
      </trkpt>
      <trkpt lat="39.902750" lon="-4.518483">
        <ele>1613.0</ele>
        <time>2013-07-03T14:32:53Z</time>
      </trkpt>
      <trkpt lat="39.902767" lon="-4.518317">
        <ele>1611.0</ele>
        <time>2013-07-03T14:32:54Z</time>
      </trkpt>
      <trkpt lat="39.902800" lon="-4.518183">
        <ele>1609.0</ele>
        <time>2013-07-03T14:32:55Z</time>
      </trkpt>
      <trkpt lat="39.902817" lon="-4.518033">
        <ele>1606.0</ele>
        <time>2013-07-03T14:32:56Z</time>
      </trkpt>
      <trkpt lat="39.902850" lon="-4.517900">
        <ele>1604.0</ele>
        <time>2013-07-03T14:32:57Z</time>
      </trkpt>
      <trkpt lat="39.902867" lon="-4.517750">
        <ele>1602.0</ele>
        <time>2013-07-03T14:32:58Z</time>
      </trkpt>
      <trkpt lat="39.902900" lon="-4.517600">
        <ele>1601.0</ele>
        <time>2013-07-03T14:32:59Z</time>
      </trkpt>
      <trkpt lat="39.902933" lon="-4.517467">
        <ele>1601.0</ele>
        <time>2013-07-03T14:33:00Z</time>
      </trkpt>
      <trkpt lat="39.902950" lon="-4.517350">
        <ele>1601.0</ele>
        <time>2013-07-03T14:33:01Z</time>
      </trkpt>
      <trkpt lat="39.902967" lon="-4.517217">
        <ele>1602.0</ele>
        <time>2013-07-03T14:33:02Z</time>
      </trkpt>
      <trkpt lat="39.902983" lon="-4.517100">
        <ele>1602.0</ele>
        <time>2013-07-03T14:33:03Z</time>
      </trkpt>
      <trkpt lat="39.903000" lon="-4.516967">
        <ele>1601.0</ele>
        <time>2013-07-03T14:33:04Z</time>
      </trkpt>
      <trkpt lat="39.903050" lon="-4.516817">
        <ele>1600.0</ele>
        <time>2013-07-03T14:33:05Z</time>
      </trkpt>
      <trkpt lat="39.903083" lon="-4.516667">
        <ele>1599.0</ele>
        <time>2013-07-03T14:33:06Z</time>
      </trkpt>
      <trkpt lat="39.903117" lon="-4.516517">
        <ele>1601.0</ele>
        <time>2013-07-03T14:33:07Z</time>
      </trkpt>
      <trkpt lat="39.903150" lon="-4.516400">
        <ele>1602.0</ele>
        <time>2013-07-03T14:33:08Z</time>
      </trkpt>
      <trkpt lat="39.903183" lon="-4.516283">
        <ele>1604.0</ele>
        <time>2013-07-03T14:33:09Z</time>
      </trkpt>
      <trkpt lat="39.903200" lon="-4.516183">
        <ele>1605.0</ele>
        <time>2013-07-03T14:33:10Z</time>
      </trkpt>
      <trkpt lat="39.903233" lon="-4.516083">
        <ele>1605.0</ele>
        <time>2013-07-03T14:33:11Z</time>
      </trkpt>
      <trkpt lat="39.903267" lon="-4.515967">
        <ele>1604.0</ele>
        <time>2013-07-03T14:33:12Z</time>
      </trkpt>
      <trkpt lat="39.903300" lon="-4.515850">
        <ele>1602.0</ele>
        <time>2013-07-03T14:33:13Z</time>
      </trkpt>
      <trkpt lat="39.903333" lon="-4.515717">
        <ele>1602.0</ele>
        <time>2013-07-03T14:33:14Z</time>
      </trkpt>
      <trkpt lat="39.903350" lon="-4.515600">
        <ele>1603.0</ele>
        <time>2013-07-03T14:33:15Z</time>
      </trkpt>
      <trkpt lat="39.903383" lon="-4.515500">
        <ele>1604.0</ele>
        <time>2013-07-03T14:33:16Z</time>
      </trkpt>
      <trkpt lat="39.903383" lon="-4.515400">
        <ele>1604.0</ele>
        <time>2013-07-03T14:33:17Z</time>
      </trkpt>
      <trkpt lat="39.903400" lon="-4.515300">
        <ele>1604.0</ele>
        <time>2013-07-03T14:33:18Z</time>
      </trkpt>
      <trkpt lat="39.903400" lon="-4.515217">
        <ele>1603.0</ele>
        <time>2013-07-03T14:33:19Z</time>
      </trkpt>
      <trkpt lat="39.903417" lon="-4.515100">
        <ele>1602.0</ele>
        <time>2013-07-03T14:33:20Z</time>
      </trkpt>
      <trkpt lat="39.903450" lon="-4.514983">
        <ele>1599.0</ele>
        <time>2013-07-03T14:33:21Z</time>
      </trkpt>
      <trkpt lat="39.903467" lon="-4.514850">
        <ele>1598.0</ele>
        <time>2013-07-03T14:33:22Z</time>
      </trkpt>
      <trkpt lat="39.903500" lon="-4.514717">
        <ele>1598.0</ele>
        <time>2013-07-03T14:33:23Z</time>
      </trkpt>
      <trkpt lat="39.903533" lon="-4.514617">
        <ele>1600.0</ele>
        <time>2013-07-03T14:33:24Z</time>
      </trkpt>
      <trkpt lat="39.903550" lon="-4.514533">
        <ele>1602.0</ele>
        <time>2013-07-03T14:33:25Z</time>
      </trkpt>
      <trkpt lat="39.903567" lon="-4.514467">
        <ele>1605.0</ele>
        <time>2013-07-03T14:33:26Z</time>
      </trkpt>
      <trkpt lat="39.903567" lon="-4.514400">
        <ele>1606.0</ele>
        <time>2013-07-03T14:33:27Z</time>
      </trkpt>
      <trkpt lat="39.903583" lon="-4.514333">
        <ele>1606.0</ele>
        <time>2013-07-03T14:33:28Z</time>
      </trkpt>
      <trkpt lat="39.903600" lon="-4.514283">
        <ele>1606.0</ele>
        <time>2013-07-03T14:33:29Z</time>
      </trkpt>
      <trkpt lat="39.903650" lon="-4.514233">
        <ele>1605.0</ele>
        <time>2013-07-03T14:33:30Z</time>
      </trkpt>
      <trkpt lat="39.903700" lon="-4.514217">
        <ele>1604.0</ele>
        <time>2013-07-03T14:33:31Z</time>
      </trkpt>
      <trkpt lat="39.903767" lon="-4.514183">
        <ele>1604.0</ele>
        <time>2013-07-03T14:33:32Z</time>
      </trkpt>
      <trkpt lat="39.903833" lon="-4.514167">
        <ele>1604.0</ele>
        <time>2013-07-03T14:33:33Z</time>
      </trkpt>
      <trkpt lat="39.903883" lon="-4.514133">
        <ele>1604.0</ele>
        <time>2013-07-03T14:33:34Z</time>
      </trkpt>
      <trkpt lat="39.903950" lon="-4.514083">
        <ele>1604.0</ele>
        <time>2013-07-03T14:33:35Z</time>
      </trkpt>
      <trkpt lat="39.904017" lon="-4.514017">
        <ele>1604.0</ele>
        <time>2013-07-03T14:33:36Z</time>
      </trkpt>
      <trkpt lat="39.904067" lon="-4.513950">
        <ele>1604.0</ele>
        <time>2013-07-03T14:33:37Z</time>
      </trkpt>
      <trkpt lat="39.904133" lon="-4.513867">
        <ele>1604.0</ele>
        <time>2013-07-03T14:33:38Z</time>
      </trkpt>
      <trkpt lat="39.904200" lon="-4.513767">
        <ele>1604.0</ele>
        <time>2013-07-03T14:33:39Z</time>
      </trkpt>
      <trkpt lat="39.904250" lon="-4.513683">
        <ele>1606.0</ele>
        <time>2013-07-03T14:33:40Z</time>
      </trkpt>
      <trkpt lat="39.904300" lon="-4.513583">
        <ele>1608.0</ele>
        <time>2013-07-03T14:33:41Z</time>
      </trkpt>
      <trkpt lat="39.904317" lon="-4.513500">
        <ele>1610.0</ele>
        <time>2013-07-03T14:33:42Z</time>
      </trkpt>
      <trkpt lat="39.904333" lon="-4.513433">
        <ele>1610.0</ele>
        <time>2013-07-03T14:33:43Z</time>
      </trkpt>
      <trkpt lat="39.904333" lon="-4.513383">
        <ele>1609.0</ele>
        <time>2013-07-03T14:33:44Z</time>
      </trkpt>
      <trkpt lat="39.904333" lon="-4.513300">
        <ele>1608.0</ele>
        <time>2013-07-03T14:33:45Z</time>
      </trkpt>
      <trkpt lat="39.904367" lon="-4.513183">
        <ele>1604.0</ele>
        <time>2013-07-03T14:33:46Z</time>
      </trkpt>
      <trkpt lat="39.904400" lon="-4.513067">
        <ele>1601.0</ele>
        <time>2013-07-03T14:33:47Z</time>
      </trkpt>
      <trkpt lat="39.904433" lon="-4.512933">
        <ele>1599.0</ele>
        <time>2013-07-03T14:33:48Z</time>
      </trkpt>
      <trkpt lat="39.904450" lon="-4.512783">
        <ele>1599.0</ele>
        <time>2013-07-03T14:33:49Z</time>
      </trkpt>
      <trkpt lat="39.904467" lon="-4.512650">
        <ele>1598.0</ele>
        <time>2013-07-03T14:33:50Z</time>
      </trkpt>
      <trkpt lat="39.904467" lon="-4.512533">
        <ele>1599.0</ele>
        <time>2013-07-03T14:33:51Z</time>
      </trkpt>
      <trkpt lat="39.904483" lon="-4.512433">
        <ele>1599.0</ele>
        <time>2013-07-03T14:33:52Z</time>
      </trkpt>
      <trkpt lat="39.904483" lon="-4.512317">
        <ele>1598.0</ele>
        <time>2013-07-03T14:33:53Z</time>
      </trkpt>
      <trkpt lat="39.904500" lon="-4.512200">
        <ele>1596.0</ele>
        <time>2013-07-03T14:33:54Z</time>
      </trkpt>
      <trkpt lat="39.904517" lon="-4.512067">
        <ele>1595.0</ele>
        <time>2013-07-03T14:33:55Z</time>
      </trkpt>
      <trkpt lat="39.904533" lon="-4.511933">
        <ele>1595.0</ele>
        <time>2013-07-03T14:33:56Z</time>
      </trkpt>
      <trkpt lat="39.904533" lon="-4.511800">
        <ele>1595.0</ele>
        <time>2013-07-03T14:33:57Z</time>
      </trkpt>
      <trkpt lat="39.904533" lon="-4.511683">
        <ele>1595.0</ele>
        <time>2013-07-03T14:33:58Z</time>
      </trkpt>
      <trkpt lat="39.904533" lon="-4.511567">
        <ele>1595.0</ele>
        <time>2013-07-03T14:33:59Z</time>
      </trkpt>
      <trkpt lat="39.904517" lon="-4.511467">
        <ele>1594.0</ele>
        <time>2013-07-03T14:34:00Z</time>
      </trkpt>
      <trkpt lat="39.904517" lon="-4.511350">
        <ele>1591.0</ele>
        <time>2013-07-03T14:34:01Z</time>
      </trkpt>
      <trkpt lat="39.904517" lon="-4.511233">
        <ele>1588.0</ele>
        <time>2013-07-03T14:34:02Z</time>
      </trkpt>
      <trkpt lat="39.904533" lon="-4.511133">
        <ele>1584.0</ele>
        <time>2013-07-03T14:34:03Z</time>
      </trkpt>
      <trkpt lat="39.904533" lon="-4.511017">
        <ele>1581.0</ele>
        <time>2013-07-03T14:34:04Z</time>
      </trkpt>
      <trkpt lat="39.904533" lon="-4.510917">
        <ele>1577.0</ele>
        <time>2013-07-03T14:34:05Z</time>
      </trkpt>
      <trkpt lat="39.904533" lon="-4.510800">
        <ele>1572.0</ele>
        <time>2013-07-03T14:34:06Z</time>
      </trkpt>
      <trkpt lat="39.904533" lon="-4.510683">
        <ele>1568.0</ele>
        <time>2013-07-03T14:34:07Z</time>
      </trkpt>
      <trkpt lat="39.904550" lon="-4.510533">
        <ele>1564.0</ele>
        <time>2013-07-03T14:34:08Z</time>
      </trkpt>
      <trkpt lat="39.904567" lon="-4.510367">
        <ele>1561.0</ele>
        <time>2013-07-03T14:34:09Z</time>
      </trkpt>
      <trkpt lat="39.904583" lon="-4.510217">
        <ele>1562.0</ele>
        <time>2013-07-03T14:34:10Z</time>
      </trkpt>
      <trkpt lat="39.904583" lon="-4.510083">
        <ele>1566.0</ele>
        <time>2013-07-03T14:34:11Z</time>
      </trkpt>
      <trkpt lat="39.904567" lon="-4.509983">
        <ele>1569.0</ele>
        <time>2013-07-03T14:34:12Z</time>
      </trkpt>
      <trkpt lat="39.904533" lon="-4.509917">
        <ele>1571.0</ele>
        <time>2013-07-03T14:34:13Z</time>
      </trkpt>
      <trkpt lat="39.904517" lon="-4.509850">
        <ele>1571.0</ele>
        <time>2013-07-03T14:34:14Z</time>
      </trkpt>
      <trkpt lat="39.904517" lon="-4.509767">
        <ele>1570.0</ele>
        <time>2013-07-03T14:34:15Z</time>
      </trkpt>
      <trkpt lat="39.904517" lon="-4.509683">
        <ele>1569.0</ele>
        <time>2013-07-03T14:34:16Z</time>
      </trkpt>
      <trkpt lat="39.904550" lon="-4.509600">
        <ele>1567.0</ele>
        <time>2013-07-03T14:34:17Z</time>
      </trkpt>
      <trkpt lat="39.904583" lon="-4.509517">
        <ele>1566.0</ele>
        <time>2013-07-03T14:34:18Z</time>
      </trkpt>
      <trkpt lat="39.904600" lon="-4.509433">
        <ele>1565.0</ele>
        <time>2013-07-03T14:34:19Z</time>
      </trkpt>
      <trkpt lat="39.904617" lon="-4.509333">
        <ele>1563.0</ele>
        <time>2013-07-03T14:34:20Z</time>
      </trkpt>
      <trkpt lat="39.904650" lon="-4.509233">
        <ele>1562.0</ele>
        <time>2013-07-03T14:34:21Z</time>
      </trkpt>
      <trkpt lat="39.904683" lon="-4.509150">
        <ele>1561.0</ele>
        <time>2013-07-03T14:34:22Z</time>
      </trkpt>
      <trkpt lat="39.904700" lon="-4.509050">
        <ele>1559.0</ele>
        <time>2013-07-03T14:34:23Z</time>
      </trkpt>
      <trkpt lat="39.904733" lon="-4.508967">
        <ele>1558.0</ele>
        <time>2013-07-03T14:34:24Z</time>
      </trkpt>
      <trkpt lat="39.904767" lon="-4.508883">
        <ele>1557.0</ele>
        <time>2013-07-03T14:34:25Z</time>
      </trkpt>
      <trkpt lat="39.904783" lon="-4.508800">
        <ele>1556.0</ele>
        <time>2013-07-03T14:34:26Z</time>
      </trkpt>
      <trkpt lat="39.904783" lon="-4.508700">
        <ele>1555.0</ele>
        <time>2013-07-03T14:34:27Z</time>
      </trkpt>
      <trkpt lat="39.904800" lon="-4.508617">
        <ele>1553.0</ele>
        <time>2013-07-03T14:34:28Z</time>
      </trkpt>
      <trkpt lat="39.904817" lon="-4.508517">
        <ele>1551.0</ele>
        <time>2013-07-03T14:34:29Z</time>
      </trkpt>
      <trkpt lat="39.904850" lon="-4.508450">
        <ele>1549.0</ele>
        <time>2013-07-03T14:34:30Z</time>
      </trkpt>
      <trkpt lat="39.904867" lon="-4.508367">
        <ele>1547.0</ele>
        <time>2013-07-03T14:34:31Z</time>
      </trkpt>
      <trkpt lat="39.904850" lon="-4.508283">
        <ele>1544.0</ele>
        <time>2013-07-03T14:34:32Z</time>
      </trkpt>
      <trkpt lat="39.904850" lon="-4.508200">
        <ele>1540.0</ele>
        <time>2013-07-03T14:34:33Z</time>
      </trkpt>
      <trkpt lat="39.904867" lon="-4.508117">
        <ele>1537.0</ele>
        <time>2013-07-03T14:34:34Z</time>
      </trkpt>
      <trkpt lat="39.904900" lon="-4.508033">
        <ele>1534.0</ele>
        <time>2013-07-03T14:34:35Z</time>
      </trkpt>
      <trkpt lat="39.904917" lon="-4.507933">
        <ele>1531.0</ele>
        <time>2013-07-03T14:34:36Z</time>
      </trkpt>
      <trkpt lat="39.904933" lon="-4.507850">
        <ele>1529.0</ele>
        <time>2013-07-03T14:34:37Z</time>
      </trkpt>
      <trkpt lat="39.904933" lon="-4.507783">
        <ele>1527.0</ele>
        <time>2013-07-03T14:34:38Z</time>
      </trkpt>
      <trkpt lat="39.904950" lon="-4.507717">
        <ele>1525.0</ele>
        <time>2013-07-03T14:34:39Z</time>
      </trkpt>
      <trkpt lat="39.904967" lon="-4.507650">
        <ele>1522.0</ele>
        <time>2013-07-03T14:34:40Z</time>
      </trkpt>
      <trkpt lat="39.904983" lon="-4.507567">
        <ele>1519.0</ele>
        <time>2013-07-03T14:34:41Z</time>
      </trkpt>
      <trkpt lat="39.905000" lon="-4.507483">
        <ele>1515.0</ele>
        <time>2013-07-03T14:34:42Z</time>
      </trkpt>
      <trkpt lat="39.905000" lon="-4.507417">
        <ele>1512.0</ele>
        <time>2013-07-03T14:34:43Z</time>
      </trkpt>
      <trkpt lat="39.905033" lon="-4.507333">
        <ele>1509.0</ele>
        <time>2013-07-03T14:34:44Z</time>
      </trkpt>
      <trkpt lat="39.905050" lon="-4.507267">
        <ele>1508.0</ele>
        <time>2013-07-03T14:34:45Z</time>
      </trkpt>
      <trkpt lat="39.905067" lon="-4.507200">
        <ele>1507.0</ele>
        <time>2013-07-03T14:34:46Z</time>
      </trkpt>
      <trkpt lat="39.905100" lon="-4.507117">
        <ele>1506.0</ele>
        <time>2013-07-03T14:34:47Z</time>
      </trkpt>
      <trkpt lat="39.905100" lon="-4.507050">
        <ele>1505.0</ele>
        <time>2013-07-03T14:34:48Z</time>
      </trkpt>
      <trkpt lat="39.905117" lon="-4.506983">
        <ele>1505.0</ele>
        <time>2013-07-03T14:34:49Z</time>
      </trkpt>
      <trkpt lat="39.905150" lon="-4.506900">
        <ele>1505.0</ele>
        <time>2013-07-03T14:34:50Z</time>
      </trkpt>
      <trkpt lat="39.905167" lon="-4.506833">
        <ele>1503.0</ele>
        <time>2013-07-03T14:34:51Z</time>
      </trkpt>
      <trkpt lat="39.905167" lon="-4.506767">
        <ele>1502.0</ele>
        <time>2013-07-03T14:34:52Z</time>
      </trkpt>
      <trkpt lat="39.905183" lon="-4.506683">
        <ele>1499.0</ele>
        <time>2013-07-03T14:34:53Z</time>
      </trkpt>
      <trkpt lat="39.905183" lon="-4.506583">
        <ele>1496.0</ele>
        <time>2013-07-03T14:34:54Z</time>
      </trkpt>
      <trkpt lat="39.905183" lon="-4.506483">
        <ele>1493.0</ele>
        <time>2013-07-03T14:34:55Z</time>
      </trkpt>
      <trkpt lat="39.905200" lon="-4.506383">
        <ele>1491.0</ele>
        <time>2013-07-03T14:34:56Z</time>
      </trkpt>
      <trkpt lat="39.905217" lon="-4.506283">
        <ele>1489.0</ele>
        <time>2013-07-03T14:34:57Z</time>
      </trkpt>
      <trkpt lat="39.905233" lon="-4.506217">
        <ele>1488.0</ele>
        <time>2013-07-03T14:34:58Z</time>
      </trkpt>
      <trkpt lat="39.905267" lon="-4.506133">
        <ele>1486.0</ele>
        <time>2013-07-03T14:34:59Z</time>
      </trkpt>
      <trkpt lat="39.905283" lon="-4.506050">
        <ele>1484.0</ele>
        <time>2013-07-03T14:35:00Z</time>
      </trkpt>
      <trkpt lat="39.905300" lon="-4.505967">
        <ele>1480.0</ele>
        <time>2013-07-03T14:35:01Z</time>
      </trkpt>
      <trkpt lat="39.905333" lon="-4.505867">
        <ele>1477.0</ele>
        <time>2013-07-03T14:35:02Z</time>
      </trkpt>
      <trkpt lat="39.905383" lon="-4.505767">
        <ele>1475.0</ele>
        <time>2013-07-03T14:35:03Z</time>
      </trkpt>
      <trkpt lat="39.905400" lon="-4.505667">
        <ele>1473.0</ele>
        <time>2013-07-03T14:35:04Z</time>
      </trkpt>
      <trkpt lat="39.905417" lon="-4.505567">
        <ele>1471.0</ele>
        <time>2013-07-03T14:35:05Z</time>
      </trkpt>
      <trkpt lat="39.905417" lon="-4.505450">
        <ele>1469.0</ele>
        <time>2013-07-03T14:35:06Z</time>
      </trkpt>
      <trkpt lat="39.905433" lon="-4.505350">
        <ele>1466.0</ele>
        <time>2013-07-03T14:35:07Z</time>
      </trkpt>
      <trkpt lat="39.905450" lon="-4.505233">
        <ele>1461.0</ele>
        <time>2013-07-03T14:35:08Z</time>
      </trkpt>
      <trkpt lat="39.905517" lon="-4.505117">
        <ele>1456.0</ele>
        <time>2013-07-03T14:35:09Z</time>
      </trkpt>
      <trkpt lat="39.905583" lon="-4.505000">
        <ele>1451.0</ele>
        <time>2013-07-03T14:35:10Z</time>
      </trkpt>
      <trkpt lat="39.905633" lon="-4.504867">
        <ele>1449.0</ele>
        <time>2013-07-03T14:35:11Z</time>
      </trkpt>
      <trkpt lat="39.905683" lon="-4.504750">
        <ele>1448.0</ele>
        <time>2013-07-03T14:35:12Z</time>
      </trkpt>
      <trkpt lat="39.905717" lon="-4.504667">
        <ele>1447.0</ele>
        <time>2013-07-03T14:35:13Z</time>
      </trkpt>
      <trkpt lat="39.905767" lon="-4.504583">
        <ele>1446.0</ele>
        <time>2013-07-03T14:35:14Z</time>
      </trkpt>
      <trkpt lat="39.905800" lon="-4.504517">
        <ele>1444.0</ele>
        <time>2013-07-03T14:35:15Z</time>
      </trkpt>
      <trkpt lat="39.905850" lon="-4.504433">
        <ele>1441.0</ele>
        <time>2013-07-03T14:35:16Z</time>
      </trkpt>
      <trkpt lat="39.905883" lon="-4.504350">
        <ele>1437.0</ele>
        <time>2013-07-03T14:35:17Z</time>
      </trkpt>
      <trkpt lat="39.905933" lon="-4.504250">
        <ele>1433.0</ele>
        <time>2013-07-03T14:35:18Z</time>
      </trkpt>
      <trkpt lat="39.905983" lon="-4.504150">
        <ele>1431.0</ele>
        <time>2013-07-03T14:35:19Z</time>
      </trkpt>
      <trkpt lat="39.906017" lon="-4.504067">
        <ele>1431.0</ele>
        <time>2013-07-03T14:35:20Z</time>
      </trkpt>
      <trkpt lat="39.906050" lon="-4.503983">
        <ele>1430.0</ele>
        <time>2013-07-03T14:35:21Z</time>
      </trkpt>
      <trkpt lat="39.906083" lon="-4.503900">
        <ele>1428.0</ele>
        <time>2013-07-03T14:35:22Z</time>
      </trkpt>
      <trkpt lat="39.906133" lon="-4.503817">
        <ele>1425.0</ele>
        <time>2013-07-03T14:35:23Z</time>
      </trkpt>
      <trkpt lat="39.906200" lon="-4.503700">
        <ele>1420.0</ele>
        <time>2013-07-03T14:35:24Z</time>
      </trkpt>
      <trkpt lat="39.906250" lon="-4.503567">
        <ele>1416.0</ele>
        <time>2013-07-03T14:35:25Z</time>
      </trkpt>
      <trkpt lat="39.906300" lon="-4.503433">
        <ele>1413.0</ele>
        <time>2013-07-03T14:35:26Z</time>
      </trkpt>
      <trkpt lat="39.906350" lon="-4.503300">
        <ele>1412.0</ele>
        <time>2013-07-03T14:35:27Z</time>
      </trkpt>
      <trkpt lat="39.906383" lon="-4.503200">
        <ele>1409.0</ele>
        <time>2013-07-03T14:35:28Z</time>
      </trkpt>
      <trkpt lat="39.906417" lon="-4.503100">
        <ele>1407.0</ele>
        <time>2013-07-03T14:35:29Z</time>
      </trkpt>
      <trkpt lat="39.906450" lon="-4.502983">
        <ele>1402.0</ele>
        <time>2013-07-03T14:35:30Z</time>
      </trkpt>
      <trkpt lat="39.906500" lon="-4.502850">
        <ele>1398.0</ele>
        <time>2013-07-03T14:35:31Z</time>
      </trkpt>
      <trkpt lat="39.906550" lon="-4.502700">
        <ele>1394.0</ele>
        <time>2013-07-03T14:35:32Z</time>
      </trkpt>
      <trkpt lat="39.906583" lon="-4.502550">
        <ele>1391.0</ele>
        <time>2013-07-03T14:35:33Z</time>
      </trkpt>
      <trkpt lat="39.906617" lon="-4.502433">
        <ele>1390.0</ele>
        <time>2013-07-03T14:35:34Z</time>
      </trkpt>
      <trkpt lat="39.906650" lon="-4.502317">
        <ele>1389.0</ele>
        <time>2013-07-03T14:35:35Z</time>
      </trkpt>
      <trkpt lat="39.906700" lon="-4.502200">
        <ele>1386.0</ele>
        <time>2013-07-03T14:35:36Z</time>
      </trkpt>
      <trkpt lat="39.906733" lon="-4.502083">
        <ele>1383.0</ele>
        <time>2013-07-03T14:35:37Z</time>
      </trkpt>
      <trkpt lat="39.906783" lon="-4.501950">
        <ele>1380.0</ele>
        <time>2013-07-03T14:35:38Z</time>
      </trkpt>
      <trkpt lat="39.906833" lon="-4.501817">
        <ele>1378.0</ele>
        <time>2013-07-03T14:35:39Z</time>
      </trkpt>
      <trkpt lat="39.906883" lon="-4.501700">
        <ele>1377.0</ele>
        <time>2013-07-03T14:35:40Z</time>
      </trkpt>
      <trkpt lat="39.906933" lon="-4.501600">
        <ele>1376.0</ele>
        <time>2013-07-03T14:35:41Z</time>
      </trkpt>
      <trkpt lat="39.907000" lon="-4.501500">
        <ele>1375.0</ele>
        <time>2013-07-03T14:35:42Z</time>
      </trkpt>
      <trkpt lat="39.907050" lon="-4.501417">
        <ele>1372.0</ele>
        <time>2013-07-03T14:35:43Z</time>
      </trkpt>
      <trkpt lat="39.907133" lon="-4.501333">
        <ele>1368.0</ele>
        <time>2013-07-03T14:35:44Z</time>
      </trkpt>
      <trkpt lat="39.907200" lon="-4.501233">
        <ele>1364.0</ele>
        <time>2013-07-03T14:35:45Z</time>
      </trkpt>
      <trkpt lat="39.907283" lon="-4.501133">
        <ele>1361.0</ele>
        <time>2013-07-03T14:35:46Z</time>
      </trkpt>
      <trkpt lat="39.907350" lon="-4.501033">
        <ele>1358.0</ele>
        <time>2013-07-03T14:35:47Z</time>
      </trkpt>
      <trkpt lat="39.907417" lon="-4.500917">
        <ele>1355.0</ele>
        <time>2013-07-03T14:35:48Z</time>
      </trkpt>
      <trkpt lat="39.907467" lon="-4.500817">
        <ele>1353.0</ele>
        <time>2013-07-03T14:35:49Z</time>
      </trkpt>
      <trkpt lat="39.907533" lon="-4.500700">
        <ele>1350.0</ele>
        <time>2013-07-03T14:35:50Z</time>
      </trkpt>
      <trkpt lat="39.907600" lon="-4.500600">
        <ele>1348.0</ele>
        <time>2013-07-03T14:35:51Z</time>
      </trkpt>
      <trkpt lat="39.907650" lon="-4.500500">
        <ele>1346.0</ele>
        <time>2013-07-03T14:35:52Z</time>
      </trkpt>
      <trkpt lat="39.907717" lon="-4.500400">
        <ele>1344.0</ele>
        <time>2013-07-03T14:35:53Z</time>
      </trkpt>
      <trkpt lat="39.907767" lon="-4.500283">
        <ele>1341.0</ele>
        <time>2013-07-03T14:35:54Z</time>
      </trkpt>
      <trkpt lat="39.907817" lon="-4.500167">
        <ele>1338.0</ele>
        <time>2013-07-03T14:35:55Z</time>
      </trkpt>
      <trkpt lat="39.907867" lon="-4.500033">
        <ele>1334.0</ele>
        <time>2013-07-03T14:35:56Z</time>
      </trkpt>
      <trkpt lat="39.907917" lon="-4.499900">
        <ele>1330.0</ele>
        <time>2013-07-03T14:35:57Z</time>
      </trkpt>
      <trkpt lat="39.907967" lon="-4.499783">
        <ele>1327.0</ele>
        <time>2013-07-03T14:35:58Z</time>
      </trkpt>
      <trkpt lat="39.908033" lon="-4.499650">
        <ele>1324.0</ele>
        <time>2013-07-03T14:35:59Z</time>
      </trkpt>
      <trkpt lat="39.908083" lon="-4.499517">
        <ele>1321.0</ele>
        <time>2013-07-03T14:36:00Z</time>
      </trkpt>
      <trkpt lat="39.908117" lon="-4.499367">
        <ele>1320.0</ele>
        <time>2013-07-03T14:36:01Z</time>
      </trkpt>
      <trkpt lat="39.908150" lon="-4.499250">
        <ele>1318.0</ele>
        <time>2013-07-03T14:36:02Z</time>
      </trkpt>
      <trkpt lat="39.908167" lon="-4.499150">
        <ele>1317.0</ele>
        <time>2013-07-03T14:36:03Z</time>
      </trkpt>
      <trkpt lat="39.908217" lon="-4.499050">
        <ele>1316.0</ele>
        <time>2013-07-03T14:36:04Z</time>
      </trkpt>
      <trkpt lat="39.908250" lon="-4.498933">
        <ele>1314.0</ele>
        <time>2013-07-03T14:36:05Z</time>
      </trkpt>
      <trkpt lat="39.908300" lon="-4.498833">
        <ele>1311.0</ele>
        <time>2013-07-03T14:36:06Z</time>
      </trkpt>
      <trkpt lat="39.908350" lon="-4.498717">
        <ele>1308.0</ele>
        <time>2013-07-03T14:36:07Z</time>
      </trkpt>
      <trkpt lat="39.908417" lon="-4.498617">
        <ele>1306.0</ele>
        <time>2013-07-03T14:36:08Z</time>
      </trkpt>
      <trkpt lat="39.908467" lon="-4.498517">
        <ele>1305.0</ele>
        <time>2013-07-03T14:36:09Z</time>
      </trkpt>
      <trkpt lat="39.908517" lon="-4.498417">
        <ele>1307.0</ele>
        <time>2013-07-03T14:36:10Z</time>
      </trkpt>
      <trkpt lat="39.908550" lon="-4.498350">
        <ele>1308.0</ele>
        <time>2013-07-03T14:36:11Z</time>
      </trkpt>
      <trkpt lat="39.908583" lon="-4.498267">
        <ele>1309.0</ele>
        <time>2013-07-03T14:36:12Z</time>
      </trkpt>
      <trkpt lat="39.908583" lon="-4.498167">
        <ele>1309.0</ele>
        <time>2013-07-03T14:36:13Z</time>
      </trkpt>
      <trkpt lat="39.908600" lon="-4.498083">
        <ele>1309.0</ele>
        <time>2013-07-03T14:36:14Z</time>
      </trkpt>
      <trkpt lat="39.908617" lon="-4.497983">
        <ele>1308.0</ele>
        <time>2013-07-03T14:36:15Z</time>
      </trkpt>
      <trkpt lat="39.908650" lon="-4.497883">
        <ele>1307.0</ele>
        <time>2013-07-03T14:36:16Z</time>
      </trkpt>
      <trkpt lat="39.908683" lon="-4.497767">
        <ele>1306.0</ele>
        <time>2013-07-03T14:36:17Z</time>
      </trkpt>
      <trkpt lat="39.908733" lon="-4.497650">
        <ele>1305.0</ele>
        <time>2013-07-03T14:36:18Z</time>
      </trkpt>
      <trkpt lat="39.908767" lon="-4.497533">
        <ele>1304.0</ele>
        <time>2013-07-03T14:36:19Z</time>
      </trkpt>
      <trkpt lat="39.908817" lon="-4.497417">
        <ele>1304.0</ele>
        <time>2013-07-03T14:36:20Z</time>
      </trkpt>
      <trkpt lat="39.908883" lon="-4.497317">
        <ele>1303.0</ele>
        <time>2013-07-03T14:36:21Z</time>
      </trkpt>
      <trkpt lat="39.908917" lon="-4.497217">
        <ele>1302.0</ele>
        <time>2013-07-03T14:36:22Z</time>
      </trkpt>
      <trkpt lat="39.908967" lon="-4.497117">
        <ele>1301.0</ele>
        <time>2013-07-03T14:36:23Z</time>
      </trkpt>
      <trkpt lat="39.909017" lon="-4.497000">
        <ele>1300.0</ele>
        <time>2013-07-03T14:36:24Z</time>
      </trkpt>
      <trkpt lat="39.909067" lon="-4.496900">
        <ele>1298.0</ele>
        <time>2013-07-03T14:36:25Z</time>
      </trkpt>
      <trkpt lat="39.909117" lon="-4.496783">
        <ele>1297.0</ele>
        <time>2013-07-03T14:36:26Z</time>
      </trkpt>
      <trkpt lat="39.909167" lon="-4.496683">
        <ele>1296.0</ele>
        <time>2013-07-03T14:36:27Z</time>
      </trkpt>
      <trkpt lat="39.909217" lon="-4.496567">
        <ele>1295.0</ele>
        <time>2013-07-03T14:36:28Z</time>
      </trkpt>
      <trkpt lat="39.909267" lon="-4.496467">
        <ele>1294.0</ele>
        <time>2013-07-03T14:36:29Z</time>
      </trkpt>
      <trkpt lat="39.909333" lon="-4.496383">
        <ele>1294.0</ele>
        <time>2013-07-03T14:36:30Z</time>
      </trkpt>
      <trkpt lat="39.909417" lon="-4.496317">
        <ele>1294.0</ele>
        <time>2013-07-03T14:36:31Z</time>
      </trkpt>
      <trkpt lat="39.909483" lon="-4.496233">
        <ele>1294.0</ele>
        <time>2013-07-03T14:36:32Z</time>
      </trkpt>
      <trkpt lat="39.909533" lon="-4.496150">
        <ele>1295.0</ele>
        <time>2013-07-03T14:36:33Z</time>
      </trkpt>
      <trkpt lat="39.909600" lon="-4.496050">
        <ele>1296.0</ele>
        <time>2013-07-03T14:36:34Z</time>
      </trkpt>
      <trkpt lat="39.909650" lon="-4.495950">
        <ele>1299.0</ele>
        <time>2013-07-03T14:36:35Z</time>
      </trkpt>
      <trkpt lat="39.909683" lon="-4.495883">
        <ele>1302.0</ele>
        <time>2013-07-03T14:36:36Z</time>
      </trkpt>
      <trkpt lat="39.909717" lon="-4.495800">
        <ele>1304.0</ele>
        <time>2013-07-03T14:36:37Z</time>
      </trkpt>
      <trkpt lat="39.909750" lon="-4.495717">
        <ele>1306.0</ele>
        <time>2013-07-03T14:36:38Z</time>
      </trkpt>
      <trkpt lat="39.909767" lon="-4.495633">
        <ele>1309.0</ele>
        <time>2013-07-03T14:36:39Z</time>
      </trkpt>
      <trkpt lat="39.909800" lon="-4.495550">
        <ele>1311.0</ele>
        <time>2013-07-03T14:36:40Z</time>
      </trkpt>
      <trkpt lat="39.909817" lon="-4.495450">
        <ele>1313.0</ele>
        <time>2013-07-03T14:36:41Z</time>
      </trkpt>
      <trkpt lat="39.909817" lon="-4.495350">
        <ele>1314.0</ele>
        <time>2013-07-03T14:36:42Z</time>
      </trkpt>
      <trkpt lat="39.909800" lon="-4.495217">
        <ele>1316.0</ele>
        <time>2013-07-03T14:36:43Z</time>
      </trkpt>
      <trkpt lat="39.909767" lon="-4.495083">
        <ele>1319.0</ele>
        <time>2013-07-03T14:36:44Z</time>
      </trkpt>
      <trkpt lat="39.909717" lon="-4.494983">
        <ele>1321.0</ele>
        <time>2013-07-03T14:36:45Z</time>
      </trkpt>
      <trkpt lat="39.909650" lon="-4.494917">
        <ele>1323.0</ele>
        <time>2013-07-03T14:36:46Z</time>
      </trkpt>
      <trkpt lat="39.909567" lon="-4.494850">
        <ele>1324.0</ele>
        <time>2013-07-03T14:36:47Z</time>
      </trkpt>
      <trkpt lat="39.909467" lon="-4.494817">
        <ele>1326.0</ele>
        <time>2013-07-03T14:36:48Z</time>
      </trkpt>
      <trkpt lat="39.909383" lon="-4.494800">
        <ele>1328.0</ele>
        <time>2013-07-03T14:36:49Z</time>
      </trkpt>
      <trkpt lat="39.909300" lon="-4.494817">
        <ele>1330.0</ele>
        <time>2013-07-03T14:36:50Z</time>
      </trkpt>
      <trkpt lat="39.909217" lon="-4.494850">
        <ele>1331.0</ele>
        <time>2013-07-03T14:36:51Z</time>
      </trkpt>
      <trkpt lat="39.909150" lon="-4.494900">
        <ele>1334.0</ele>
        <time>2013-07-03T14:36:52Z</time>
      </trkpt>
      <trkpt lat="39.909100" lon="-4.494950">
        <ele>1336.0</ele>
        <time>2013-07-03T14:36:53Z</time>
      </trkpt>
      <trkpt lat="39.909050" lon="-4.495017">
        <ele>1338.0</ele>
        <time>2013-07-03T14:36:54Z</time>
      </trkpt>
      <trkpt lat="39.909033" lon="-4.495083">
        <ele>1340.0</ele>
        <time>2013-07-03T14:36:55Z</time>
      </trkpt>
      <trkpt lat="39.909017" lon="-4.495150">
        <ele>1341.0</ele>
        <time>2013-07-03T14:36:56Z</time>
      </trkpt>
      <trkpt lat="39.909033" lon="-4.495217">
        <ele>1342.0</ele>
        <time>2013-07-03T14:36:57Z</time>
      </trkpt>
      <trkpt lat="39.909083" lon="-4.495283">
        <ele>1344.0</ele>
        <time>2013-07-03T14:36:58Z</time>
      </trkpt>
      <trkpt lat="39.909150" lon="-4.495283">
        <ele>1346.0</ele>
        <time>2013-07-03T14:36:59Z</time>
      </trkpt>
      <trkpt lat="39.909200" lon="-4.495250">
        <ele>1348.0</ele>
        <time>2013-07-03T14:37:00Z</time>
      </trkpt>
      <trkpt lat="39.909250" lon="-4.495200">
        <ele>1350.0</ele>
        <time>2013-07-03T14:37:01Z</time>
      </trkpt>
      <trkpt lat="39.909300" lon="-4.495133">
        <ele>1352.0</ele>
        <time>2013-07-03T14:37:02Z</time>
      </trkpt>
      <trkpt lat="39.909333" lon="-4.495050">
        <ele>1355.0</ele>
        <time>2013-07-03T14:37:03Z</time>
      </trkpt>
      <trkpt lat="39.909333" lon="-4.494950">
        <ele>1356.0</ele>
        <time>2013-07-03T14:37:04Z</time>
      </trkpt>
      <trkpt lat="39.909317" lon="-4.494850">
        <ele>1357.0</ele>
        <time>2013-07-03T14:37:05Z</time>
      </trkpt>
      <trkpt lat="39.909283" lon="-4.494733">
        <ele>1358.0</ele>
        <time>2013-07-03T14:37:06Z</time>
      </trkpt>
      <trkpt lat="39.909233" lon="-4.494633">
        <ele>1360.0</ele>
        <time>2013-07-03T14:37:07Z</time>
      </trkpt>
      <trkpt lat="39.909167" lon="-4.494567">
        <ele>1362.0</ele>
        <time>2013-07-03T14:37:08Z</time>
      </trkpt>
      <trkpt lat="39.909083" lon="-4.494533">
        <ele>1363.0</ele>
        <time>2013-07-03T14:37:09Z</time>
      </trkpt>
      <trkpt lat="39.908983" lon="-4.494517">
        <ele>1364.0</ele>
        <time>2013-07-03T14:37:10Z</time>
      </trkpt>
      <trkpt lat="39.908900" lon="-4.494533">
        <ele>1365.0</ele>
        <time>2013-07-03T14:37:11Z</time>
      </trkpt>
      <trkpt lat="39.908817" lon="-4.494567">
        <ele>1367.0</ele>
        <time>2013-07-03T14:37:12Z</time>
      </trkpt>
      <trkpt lat="39.908750" lon="-4.494617">
        <ele>1368.0</ele>
        <time>2013-07-03T14:37:13Z</time>
      </trkpt>
      <trkpt lat="39.908717" lon="-4.494700">
        <ele>1370.0</ele>
        <time>2013-07-03T14:37:14Z</time>
      </trkpt>
      <trkpt lat="39.908717" lon="-4.494783">
        <ele>1373.0</ele>
        <time>2013-07-03T14:37:15Z</time>
      </trkpt>
      <trkpt lat="39.908717" lon="-4.494867">
        <ele>1375.0</ele>
        <time>2013-07-03T14:37:16Z</time>
      </trkpt>
      <trkpt lat="39.908750" lon="-4.494933">
        <ele>1378.0</ele>
        <time>2013-07-03T14:37:17Z</time>
      </trkpt>
      <trkpt lat="39.908767" lon="-4.494983">
        <ele>1380.0</ele>
        <time>2013-07-03T14:37:18Z</time>
      </trkpt>
      <trkpt lat="39.908817" lon="-4.495017">
        <ele>1383.0</ele>
        <time>2013-07-03T14:37:19Z</time>
      </trkpt>
      <trkpt lat="39.908883" lon="-4.495017">
        <ele>1384.0</ele>
        <time>2013-07-03T14:37:20Z</time>
      </trkpt>
      <trkpt lat="39.908933" lon="-4.494983">
        <ele>1386.0</ele>
        <time>2013-07-03T14:37:21Z</time>
      </trkpt>
      <trkpt lat="39.909000" lon="-4.494933">
        <ele>1388.0</ele>
        <time>2013-07-03T14:37:22Z</time>
      </trkpt>
      <trkpt lat="39.909050" lon="-4.494867">
        <ele>1390.0</ele>
        <time>2013-07-03T14:37:23Z</time>
      </trkpt>
      <trkpt lat="39.909083" lon="-4.494783">
        <ele>1393.0</ele>
        <time>2013-07-03T14:37:24Z</time>
      </trkpt>
      <trkpt lat="39.909083" lon="-4.494717">
        <ele>1395.0</ele>
        <time>2013-07-03T14:37:25Z</time>
      </trkpt>
      <trkpt lat="39.909083" lon="-4.494633">
        <ele>1397.0</ele>
        <time>2013-07-03T14:37:26Z</time>
      </trkpt>
      <trkpt lat="39.909067" lon="-4.494533">
        <ele>1398.0</ele>
        <time>2013-07-03T14:37:27Z</time>
      </trkpt>
      <trkpt lat="39.909033" lon="-4.494433">
        <ele>1399.0</ele>
        <time>2013-07-03T14:37:28Z</time>
      </trkpt>
      <trkpt lat="39.908983" lon="-4.494317">
        <ele>1401.0</ele>
        <time>2013-07-03T14:37:29Z</time>
      </trkpt>
      <trkpt lat="39.908917" lon="-4.494233">
        <ele>1402.0</ele>
        <time>2013-07-03T14:37:30Z</time>
      </trkpt>
      <trkpt lat="39.908850" lon="-4.494150">
        <ele>1404.0</ele>
        <time>2013-07-03T14:37:31Z</time>
      </trkpt>
      <trkpt lat="39.908767" lon="-4.494100">
        <ele>1406.0</ele>
        <time>2013-07-03T14:37:32Z</time>
      </trkpt>
      <trkpt lat="39.908683" lon="-4.494050">
        <ele>1407.0</ele>
        <time>2013-07-03T14:37:33Z</time>
      </trkpt>
      <trkpt lat="39.908583" lon="-4.494033">
        <ele>1409.0</ele>
        <time>2013-07-03T14:37:34Z</time>
      </trkpt>
      <trkpt lat="39.908500" lon="-4.494033">
        <ele>1411.0</ele>
        <time>2013-07-03T14:37:35Z</time>
      </trkpt>
      <trkpt lat="39.908417" lon="-4.494033">
        <ele>1412.0</ele>
        <time>2013-07-03T14:37:36Z</time>
      </trkpt>
      <trkpt lat="39.908333" lon="-4.494050">
        <ele>1414.0</ele>
        <time>2013-07-03T14:37:37Z</time>
      </trkpt>
      <trkpt lat="39.908267" lon="-4.494100">
        <ele>1415.0</ele>
        <time>2013-07-03T14:37:38Z</time>
      </trkpt>
      <trkpt lat="39.908183" lon="-4.494150">
        <ele>1417.0</ele>
        <time>2013-07-03T14:37:39Z</time>
      </trkpt>
      <trkpt lat="39.908133" lon="-4.494217">
        <ele>1419.0</ele>
        <time>2013-07-03T14:37:40Z</time>
      </trkpt>
      <trkpt lat="39.908083" lon="-4.494283">
        <ele>1421.0</ele>
        <time>2013-07-03T14:37:41Z</time>
      </trkpt>
      <trkpt lat="39.908050" lon="-4.494333">
        <ele>1423.0</ele>
        <time>2013-07-03T14:37:42Z</time>
      </trkpt>
      <trkpt lat="39.908017" lon="-4.494400">
        <ele>1425.0</ele>
        <time>2013-07-03T14:37:43Z</time>
      </trkpt>
      <trkpt lat="39.908017" lon="-4.494483">
        <ele>1426.0</ele>
        <time>2013-07-03T14:37:44Z</time>
      </trkpt>
      <trkpt lat="39.908033" lon="-4.494550">
        <ele>1427.0</ele>
        <time>2013-07-03T14:37:45Z</time>
      </trkpt>
      <trkpt lat="39.908083" lon="-4.494583">
        <ele>1427.0</ele>
        <time>2013-07-03T14:37:46Z</time>
      </trkpt>
      <trkpt lat="39.908133" lon="-4.494600">
        <ele>1429.0</ele>
        <time>2013-07-03T14:37:47Z</time>
      </trkpt>
      <trkpt lat="39.908167" lon="-4.494600">
        <ele>1430.0</ele>
        <time>2013-07-03T14:37:48Z</time>
      </trkpt>
      <trkpt lat="39.908217" lon="-4.494583">
        <ele>1430.0</ele>
        <time>2013-07-03T14:37:49Z</time>
      </trkpt>
      <trkpt lat="39.908267" lon="-4.494567">
        <ele>1430.0</ele>
        <time>2013-07-03T14:37:50Z</time>
      </trkpt>
      <trkpt lat="39.908350" lon="-4.494533">
        <ele>1431.0</ele>
        <time>2013-07-03T14:37:51Z</time>
      </trkpt>
      <trkpt lat="39.908400" lon="-4.494483">
        <ele>1432.0</ele>
        <time>2013-07-03T14:37:52Z</time>
      </trkpt>
      <trkpt lat="39.908450" lon="-4.494433">
        <ele>1435.0</ele>
        <time>2013-07-03T14:37:53Z</time>
      </trkpt>
      <trkpt lat="39.908467" lon="-4.494367">
        <ele>1438.0</ele>
        <time>2013-07-03T14:37:54Z</time>
      </trkpt>
      <trkpt lat="39.908483" lon="-4.494317">
        <ele>1440.0</ele>
        <time>2013-07-03T14:37:55Z</time>
      </trkpt>
      <trkpt lat="39.908500" lon="-4.494283">
        <ele>1441.0</ele>
        <time>2013-07-03T14:37:56Z</time>
      </trkpt>
      <trkpt lat="39.908533" lon="-4.494217">
        <ele>1442.0</ele>
        <time>2013-07-03T14:37:57Z</time>
      </trkpt>
      <trkpt lat="39.908550" lon="-4.494133">
        <ele>1443.0</ele>
        <time>2013-07-03T14:37:58Z</time>
      </trkpt>
      <trkpt lat="39.908533" lon="-4.494033">
        <ele>1443.0</ele>
        <time>2013-07-03T14:37:59Z</time>
      </trkpt>
      <trkpt lat="39.908500" lon="-4.493917">
        <ele>1444.0</ele>
        <time>2013-07-03T14:38:00Z</time>
      </trkpt>
      <trkpt lat="39.908450" lon="-4.493817">
        <ele>1445.0</ele>
        <time>2013-07-03T14:38:01Z</time>
      </trkpt>
      <trkpt lat="39.908383" lon="-4.493733">
        <ele>1447.0</ele>
        <time>2013-07-03T14:38:02Z</time>
      </trkpt>
      <trkpt lat="39.908317" lon="-4.493667">
        <ele>1448.0</ele>
        <time>2013-07-03T14:38:03Z</time>
      </trkpt>
      <trkpt lat="39.908233" lon="-4.493617">
        <ele>1449.0</ele>
        <time>2013-07-03T14:38:04Z</time>
      </trkpt>
      <trkpt lat="39.908133" lon="-4.493567">
        <ele>1450.0</ele>
        <time>2013-07-03T14:38:05Z</time>
      </trkpt>
      <trkpt lat="39.908033" lon="-4.493567">
        <ele>1451.0</ele>
        <time>2013-07-03T14:38:06Z</time>
      </trkpt>
      <trkpt lat="39.907933" lon="-4.493567">
        <ele>1453.0</ele>
        <time>2013-07-03T14:38:07Z</time>
      </trkpt>
      <trkpt lat="39.907850" lon="-4.493600">
        <ele>1455.0</ele>
        <time>2013-07-03T14:38:08Z</time>
      </trkpt>
      <trkpt lat="39.907783" lon="-4.493650">
        <ele>1457.0</ele>
        <time>2013-07-03T14:38:09Z</time>
      </trkpt>
      <trkpt lat="39.907717" lon="-4.493717">
        <ele>1459.0</ele>
        <time>2013-07-03T14:38:10Z</time>
      </trkpt>
      <trkpt lat="39.907667" lon="-4.493783">
        <ele>1461.0</ele>
        <time>2013-07-03T14:38:11Z</time>
      </trkpt>
      <trkpt lat="39.907650" lon="-4.493850">
        <ele>1463.0</ele>
        <time>2013-07-03T14:38:12Z</time>
      </trkpt>
      <trkpt lat="39.907617" lon="-4.493917">
        <ele>1465.0</ele>
        <time>2013-07-03T14:38:13Z</time>
      </trkpt>
      <trkpt lat="39.907617" lon="-4.493967">
        <ele>1465.0</ele>
        <time>2013-07-03T14:38:14Z</time>
      </trkpt>
      <trkpt lat="39.907617" lon="-4.494017">
        <ele>1465.0</ele>
        <time>2013-07-03T14:38:15Z</time>
      </trkpt>
      <trkpt lat="39.907617" lon="-4.494083">
        <ele>1466.0</ele>
        <time>2013-07-03T14:38:16Z</time>
      </trkpt>
      <trkpt lat="39.907633" lon="-4.494150">
        <ele>1466.0</ele>
        <time>2013-07-03T14:38:17Z</time>
      </trkpt>
      <trkpt lat="39.907650" lon="-4.494200">
        <ele>1466.0</ele>
        <time>2013-07-03T14:38:18Z</time>
      </trkpt>
      <trkpt lat="39.907700" lon="-4.494233">
        <ele>1467.0</ele>
        <time>2013-07-03T14:38:19Z</time>
      </trkpt>
      <trkpt lat="39.907750" lon="-4.494233">
        <ele>1468.0</ele>
        <time>2013-07-03T14:38:20Z</time>
      </trkpt>
      <trkpt lat="39.907800" lon="-4.494200">
        <ele>1469.0</ele>
        <time>2013-07-03T14:38:21Z</time>
      </trkpt>
      <trkpt lat="39.907850" lon="-4.494150">
        <ele>1469.0</ele>
        <time>2013-07-03T14:38:22Z</time>
      </trkpt>
      <trkpt lat="39.907900" lon="-4.494100">
        <ele>1470.0</ele>
        <time>2013-07-03T14:38:23Z</time>
      </trkpt>
      <trkpt lat="39.907933" lon="-4.494050">
        <ele>1471.0</ele>
        <time>2013-07-03T14:38:24Z</time>
      </trkpt>
      <trkpt lat="39.907983" lon="-4.494000">
        <ele>1472.0</ele>
        <time>2013-07-03T14:38:25Z</time>
      </trkpt>
      <trkpt lat="39.908033" lon="-4.493950">
        <ele>1473.0</ele>
        <time>2013-07-03T14:38:26Z</time>
      </trkpt>
      <trkpt lat="39.908067" lon="-4.493883">
        <ele>1473.0</ele>
        <time>2013-07-03T14:38:27Z</time>
      </trkpt>
      <trkpt lat="39.908083" lon="-4.493817">
        <ele>1474.0</ele>
        <time>2013-07-03T14:38:28Z</time>
      </trkpt>
      <trkpt lat="39.908117" lon="-4.493733">
        <ele>1474.0</ele>
        <time>2013-07-03T14:38:29Z</time>
      </trkpt>
      <trkpt lat="39.908117" lon="-4.493650">
        <ele>1474.0</ele>
        <time>2013-07-03T14:38:30Z</time>
      </trkpt>
      <trkpt lat="39.908100" lon="-4.493550">
        <ele>1474.0</ele>
        <time>2013-07-03T14:38:31Z</time>
      </trkpt>
      <trkpt lat="39.908050" lon="-4.493433">
        <ele>1474.0</ele>
        <time>2013-07-03T14:38:32Z</time>
      </trkpt>
      <trkpt lat="39.908000" lon="-4.493333">
        <ele>1475.0</ele>
        <time>2013-07-03T14:38:33Z</time>
      </trkpt>
      <trkpt lat="39.907917" lon="-4.493267">
        <ele>1476.0</ele>
        <time>2013-07-03T14:38:34Z</time>
      </trkpt>
      <trkpt lat="39.907833" lon="-4.493233">
        <ele>1477.0</ele>
        <time>2013-07-03T14:38:35Z</time>
      </trkpt>
      <trkpt lat="39.907767" lon="-4.493217">
        <ele>1478.0</ele>
        <time>2013-07-03T14:38:36Z</time>
      </trkpt>
      <trkpt lat="39.907683" lon="-4.493200">
        <ele>1479.0</ele>
        <time>2013-07-03T14:38:37Z</time>
      </trkpt>
      <trkpt lat="39.907600" lon="-4.493183">
        <ele>1479.0</ele>
        <time>2013-07-03T14:38:38Z</time>
      </trkpt>
      <trkpt lat="39.907517" lon="-4.493183">
        <ele>1479.0</ele>
        <time>2013-07-03T14:38:39Z</time>
      </trkpt>
      <trkpt lat="39.907433" lon="-4.493217">
        <ele>1480.0</ele>
        <time>2013-07-03T14:38:40Z</time>
      </trkpt>
      <trkpt lat="39.907367" lon="-4.493283">
        <ele>1480.0</ele>
        <time>2013-07-03T14:38:41Z</time>
      </trkpt>
      <trkpt lat="39.907317" lon="-4.493350">
        <ele>1481.0</ele>
        <time>2013-07-03T14:38:42Z</time>
      </trkpt>
      <trkpt lat="39.907267" lon="-4.493433">
        <ele>1483.0</ele>
        <time>2013-07-03T14:38:43Z</time>
      </trkpt>
      <trkpt lat="39.907233" lon="-4.493517">
        <ele>1484.0</ele>
        <time>2013-07-03T14:38:44Z</time>
      </trkpt>
      <trkpt lat="39.907217" lon="-4.493617">
        <ele>1486.0</ele>
        <time>2013-07-03T14:38:45Z</time>
      </trkpt>
      <trkpt lat="39.907200" lon="-4.493700">
        <ele>1487.0</ele>
        <time>2013-07-03T14:38:46Z</time>
      </trkpt>
      <trkpt lat="39.907200" lon="-4.493783">
        <ele>1488.0</ele>
        <time>2013-07-03T14:38:47Z</time>
      </trkpt>
      <trkpt lat="39.907200" lon="-4.493850">
        <ele>1490.0</ele>
        <time>2013-07-03T14:38:48Z</time>
      </trkpt>
      <trkpt lat="39.907217" lon="-4.493917">
        <ele>1490.0</ele>
        <time>2013-07-03T14:38:49Z</time>
      </trkpt>
      <trkpt lat="39.907233" lon="-4.493967">
        <ele>1491.0</ele>
        <time>2013-07-03T14:38:50Z</time>
      </trkpt>
      <trkpt lat="39.907250" lon="-4.494017">
        <ele>1492.0</ele>
        <time>2013-07-03T14:38:51Z</time>
      </trkpt>
      <trkpt lat="39.907300" lon="-4.494067">
        <ele>1491.0</ele>
        <time>2013-07-03T14:38:52Z</time>
      </trkpt>
      <trkpt lat="39.907350" lon="-4.494083">
        <ele>1492.0</ele>
        <time>2013-07-03T14:38:53Z</time>
      </trkpt>
      <trkpt lat="39.907417" lon="-4.494100">
        <ele>1493.0</ele>
        <time>2013-07-03T14:38:54Z</time>
      </trkpt>
      <trkpt lat="39.907467" lon="-4.494100">
        <ele>1494.0</ele>
        <time>2013-07-03T14:38:55Z</time>
      </trkpt>
      <trkpt lat="39.907533" lon="-4.494100">
        <ele>1496.0</ele>
        <time>2013-07-03T14:38:56Z</time>
      </trkpt>
      <trkpt lat="39.907583" lon="-4.494067">
        <ele>1496.0</ele>
        <time>2013-07-03T14:38:57Z</time>
      </trkpt>
      <trkpt lat="39.907650" lon="-4.494033">
        <ele>1497.0</ele>
        <time>2013-07-03T14:38:58Z</time>
      </trkpt>
      <trkpt lat="39.907700" lon="-4.493983">
        <ele>1497.0</ele>
        <time>2013-07-03T14:38:59Z</time>
      </trkpt>
      <trkpt lat="39.907750" lon="-4.493900">
        <ele>1497.0</ele>
        <time>2013-07-03T14:39:00Z</time>
      </trkpt>
      <trkpt lat="39.907783" lon="-4.493800">
        <ele>1498.0</ele>
        <time>2013-07-03T14:39:01Z</time>
      </trkpt>
      <trkpt lat="39.907800" lon="-4.493700">
        <ele>1499.0</ele>
        <time>2013-07-03T14:39:02Z</time>
      </trkpt>
      <trkpt lat="39.907800" lon="-4.493583">
        <ele>1500.0</ele>
        <time>2013-07-03T14:39:03Z</time>
      </trkpt>
      <trkpt lat="39.907783" lon="-4.493483">
        <ele>1501.0</ele>
        <time>2013-07-03T14:39:04Z</time>
      </trkpt>
      <trkpt lat="39.907767" lon="-4.493400">
        <ele>1502.0</ele>
        <time>2013-07-03T14:39:05Z</time>
      </trkpt>
      <trkpt lat="39.907717" lon="-4.493317">
        <ele>1502.0</ele>
        <time>2013-07-03T14:39:06Z</time>
      </trkpt>
      <trkpt lat="39.907667" lon="-4.493250">
        <ele>1501.0</ele>
        <time>2013-07-03T14:39:07Z</time>
      </trkpt>
      <trkpt lat="39.907600" lon="-4.493183">
        <ele>1501.0</ele>
        <time>2013-07-03T14:39:08Z</time>
      </trkpt>
      <trkpt lat="39.907533" lon="-4.493117">
        <ele>1500.0</ele>
        <time>2013-07-03T14:39:09Z</time>
      </trkpt>
      <trkpt lat="39.907450" lon="-4.493067">
        <ele>1501.0</ele>
        <time>2013-07-03T14:39:10Z</time>
      </trkpt>
      <trkpt lat="39.907383" lon="-4.493033">
        <ele>1501.0</ele>
        <time>2013-07-03T14:39:11Z</time>
      </trkpt>
      <trkpt lat="39.907300" lon="-4.493017">
        <ele>1502.0</ele>
        <time>2013-07-03T14:39:12Z</time>
      </trkpt>
      <trkpt lat="39.907217" lon="-4.493000">
        <ele>1503.0</ele>
        <time>2013-07-03T14:39:13Z</time>
      </trkpt>
      <trkpt lat="39.907133" lon="-4.493017">
        <ele>1504.0</ele>
        <time>2013-07-03T14:39:14Z</time>
      </trkpt>
      <trkpt lat="39.907050" lon="-4.493033">
        <ele>1506.0</ele>
        <time>2013-07-03T14:39:15Z</time>
      </trkpt>
      <trkpt lat="39.906983" lon="-4.493067">
        <ele>1508.0</ele>
        <time>2013-07-03T14:39:16Z</time>
      </trkpt>
      <trkpt lat="39.906917" lon="-4.493117">
        <ele>1509.0</ele>
        <time>2013-07-03T14:39:17Z</time>
      </trkpt>
      <trkpt lat="39.906850" lon="-4.493150">
        <ele>1510.0</ele>
        <time>2013-07-03T14:39:18Z</time>
      </trkpt>
      <trkpt lat="39.906783" lon="-4.493217">
        <ele>1510.0</ele>
        <time>2013-07-03T14:39:19Z</time>
      </trkpt>
      <trkpt lat="39.906717" lon="-4.493283">
        <ele>1511.0</ele>
        <time>2013-07-03T14:39:20Z</time>
      </trkpt>
      <trkpt lat="39.906650" lon="-4.493350">
        <ele>1511.0</ele>
        <time>2013-07-03T14:39:21Z</time>
      </trkpt>
      <trkpt lat="39.906600" lon="-4.493450">
        <ele>1512.0</ele>
        <time>2013-07-03T14:39:22Z</time>
      </trkpt>
      <trkpt lat="39.906583" lon="-4.493533">
        <ele>1512.0</ele>
        <time>2013-07-03T14:39:23Z</time>
      </trkpt>
      <trkpt lat="39.906567" lon="-4.493617">
        <ele>1513.0</ele>
        <time>2013-07-03T14:39:24Z</time>
      </trkpt>
      <trkpt lat="39.906567" lon="-4.493717">
        <ele>1512.0</ele>
        <time>2013-07-03T14:39:25Z</time>
      </trkpt>
      <trkpt lat="39.906583" lon="-4.493800">
        <ele>1513.0</ele>
        <time>2013-07-03T14:39:26Z</time>
      </trkpt>
      <trkpt lat="39.906583" lon="-4.493867">
        <ele>1514.0</ele>
        <time>2013-07-03T14:39:27Z</time>
      </trkpt>
      <trkpt lat="39.906583" lon="-4.493933">
        <ele>1516.0</ele>
        <time>2013-07-03T14:39:28Z</time>
      </trkpt>
      <trkpt lat="39.906600" lon="-4.494000">
        <ele>1517.0</ele>
        <time>2013-07-03T14:39:29Z</time>
      </trkpt>
      <trkpt lat="39.906617" lon="-4.494067">
        <ele>1517.0</ele>
        <time>2013-07-03T14:39:30Z</time>
      </trkpt>
      <trkpt lat="39.906650" lon="-4.494117">
        <ele>1517.0</ele>
        <time>2013-07-03T14:39:31Z</time>
      </trkpt>
      <trkpt lat="39.906700" lon="-4.494150">
        <ele>1517.0</ele>
        <time>2013-07-03T14:39:32Z</time>
      </trkpt>
      <trkpt lat="39.906733" lon="-4.494183">
        <ele>1517.0</ele>
        <time>2013-07-03T14:39:33Z</time>
      </trkpt>
      <trkpt lat="39.906783" lon="-4.494183">
        <ele>1518.0</ele>
        <time>2013-07-03T14:39:34Z</time>
      </trkpt>
      <trkpt lat="39.906833" lon="-4.494200">
        <ele>1517.0</ele>
        <time>2013-07-03T14:39:35Z</time>
      </trkpt>
      <trkpt lat="39.906900" lon="-4.494200">
        <ele>1517.0</ele>
        <time>2013-07-03T14:39:36Z</time>
      </trkpt>
      <trkpt lat="39.906967" lon="-4.494217">
        <ele>1517.0</ele>
        <time>2013-07-03T14:39:37Z</time>
      </trkpt>
      <trkpt lat="39.907033" lon="-4.494217">
        <ele>1518.0</ele>
        <time>2013-07-03T14:39:38Z</time>
      </trkpt>
      <trkpt lat="39.907083" lon="-4.494217">
        <ele>1518.0</ele>
        <time>2013-07-03T14:39:39Z</time>
      </trkpt>
      <trkpt lat="39.907133" lon="-4.494233">
        <ele>1518.0</ele>
        <time>2013-07-03T14:39:40Z</time>
      </trkpt>
      <trkpt lat="39.907183" lon="-4.494250">
        <ele>1517.0</ele>
        <time>2013-07-03T14:39:41Z</time>
      </trkpt>
      <trkpt lat="39.907250" lon="-4.494267">
        <ele>1516.0</ele>
        <time>2013-07-03T14:39:42Z</time>
      </trkpt>
      <trkpt lat="39.907317" lon="-4.494300">
        <ele>1515.0</ele>
        <time>2013-07-03T14:39:43Z</time>
      </trkpt>
      <trkpt lat="39.907383" lon="-4.494317">
        <ele>1515.0</ele>
        <time>2013-07-03T14:39:44Z</time>
      </trkpt>
      <trkpt lat="39.907450" lon="-4.494317">
        <ele>1515.0</ele>
        <time>2013-07-03T14:39:45Z</time>
      </trkpt>
      <trkpt lat="39.907517" lon="-4.494317">
        <ele>1515.0</ele>
        <time>2013-07-03T14:39:46Z</time>
      </trkpt>
      <trkpt lat="39.907583" lon="-4.494317">
        <ele>1514.0</ele>
        <time>2013-07-03T14:39:47Z</time>
      </trkpt>
      <trkpt lat="39.907650" lon="-4.494317">
        <ele>1514.0</ele>
        <time>2013-07-03T14:39:48Z</time>
      </trkpt>
      <trkpt lat="39.907700" lon="-4.494333">
        <ele>1513.0</ele>
        <time>2013-07-03T14:39:49Z</time>
      </trkpt>
      <trkpt lat="39.907767" lon="-4.494350">
        <ele>1512.0</ele>
        <time>2013-07-03T14:39:50Z</time>
      </trkpt>
      <trkpt lat="39.907833" lon="-4.494367">
        <ele>1512.0</ele>
        <time>2013-07-03T14:39:51Z</time>
      </trkpt>
      <trkpt lat="39.907900" lon="-4.494400">
        <ele>1511.0</ele>
        <time>2013-07-03T14:39:52Z</time>
      </trkpt>
      <trkpt lat="39.907967" lon="-4.494433">
        <ele>1510.0</ele>
        <time>2013-07-03T14:39:53Z</time>
      </trkpt>
      <trkpt lat="39.908033" lon="-4.494450">
        <ele>1510.0</ele>
        <time>2013-07-03T14:39:54Z</time>
      </trkpt>
      <trkpt lat="39.908100" lon="-4.494467">
        <ele>1510.0</ele>
        <time>2013-07-03T14:39:55Z</time>
      </trkpt>
      <trkpt lat="39.908150" lon="-4.494467">
        <ele>1511.0</ele>
        <time>2013-07-03T14:39:56Z</time>
      </trkpt>
      <trkpt lat="39.908200" lon="-4.494450">
        <ele>1511.0</ele>
        <time>2013-07-03T14:39:57Z</time>
      </trkpt>
      <trkpt lat="39.908250" lon="-4.494450">
        <ele>1511.0</ele>
        <time>2013-07-03T14:39:58Z</time>
      </trkpt>
      <trkpt lat="39.908317" lon="-4.494450">
        <ele>1511.0</ele>
        <time>2013-07-03T14:39:59Z</time>
      </trkpt>
      <trkpt lat="39.908367" lon="-4.494467">
        <ele>1511.0</ele>
        <time>2013-07-03T14:40:00Z</time>
      </trkpt>
      <trkpt lat="39.908400" lon="-4.494483">
        <ele>1511.0</ele>
        <time>2013-07-03T14:40:01Z</time>
      </trkpt>
      <trkpt lat="39.908433" lon="-4.494533">
        <ele>1511.0</ele>
        <time>2013-07-03T14:40:02Z</time>
      </trkpt>
      <trkpt lat="39.908483" lon="-4.494567">
        <ele>1510.0</ele>
        <time>2013-07-03T14:40:03Z</time>
      </trkpt>
      <trkpt lat="39.908500" lon="-4.494633">
        <ele>1510.0</ele>
        <time>2013-07-03T14:40:04Z</time>
      </trkpt>
      <trkpt lat="39.908533" lon="-4.494700">
        <ele>1510.0</ele>
        <time>2013-07-03T14:40:05Z</time>
      </trkpt>
      <trkpt lat="39.908533" lon="-4.494783">
        <ele>1509.0</ele>
        <time>2013-07-03T14:40:06Z</time>
      </trkpt>
      <trkpt lat="39.908500" lon="-4.494883">
        <ele>1509.0</ele>
        <time>2013-07-03T14:40:07Z</time>
      </trkpt>
      <trkpt lat="39.908450" lon="-4.494967">
        <ele>1508.0</ele>
        <time>2013-07-03T14:40:08Z</time>
      </trkpt>
      <trkpt lat="39.908383" lon="-4.495017">
        <ele>1507.0</ele>
        <time>2013-07-03T14:40:09Z</time>
      </trkpt>
      <trkpt lat="39.908283" lon="-4.495050">
        <ele>1506.0</ele>
        <time>2013-07-03T14:40:10Z</time>
      </trkpt>
      <trkpt lat="39.908200" lon="-4.495067">
        <ele>1505.0</ele>
        <time>2013-07-03T14:40:11Z</time>
      </trkpt>
      <trkpt lat="39.908117" lon="-4.495067">
        <ele>1504.0</ele>
        <time>2013-07-03T14:40:12Z</time>
      </trkpt>
      <trkpt lat="39.908017" lon="-4.495050">
        <ele>1503.0</ele>
        <time>2013-07-03T14:40:13Z</time>
      </trkpt>
      <trkpt lat="39.907933" lon="-4.495017">
        <ele>1502.0</ele>
        <time>2013-07-03T14:40:14Z</time>
      </trkpt>
      <trkpt lat="39.907833" lon="-4.494950">
        <ele>1501.0</ele>
        <time>2013-07-03T14:40:15Z</time>
      </trkpt>
      <trkpt lat="39.907750" lon="-4.494867">
        <ele>1501.0</ele>
        <time>2013-07-03T14:40:16Z</time>
      </trkpt>
      <trkpt lat="39.907650" lon="-4.494783">
        <ele>1500.0</ele>
        <time>2013-07-03T14:40:17Z</time>
      </trkpt>
      <trkpt lat="39.907567" lon="-4.494717">
        <ele>1500.0</ele>
        <time>2013-07-03T14:40:18Z</time>
      </trkpt>
      <trkpt lat="39.907467" lon="-4.494633">
        <ele>1499.0</ele>
        <time>2013-07-03T14:40:19Z</time>
      </trkpt>
      <trkpt lat="39.907383" lon="-4.494567">
        <ele>1498.0</ele>
        <time>2013-07-03T14:40:20Z</time>
      </trkpt>
      <trkpt lat="39.907300" lon="-4.494483">
        <ele>1497.0</ele>
        <time>2013-07-03T14:40:21Z</time>
      </trkpt>
      <trkpt lat="39.907217" lon="-4.494367">
        <ele>1496.0</ele>
        <time>2013-07-03T14:40:22Z</time>
      </trkpt>
      <trkpt lat="39.907150" lon="-4.494250">
        <ele>1495.0</ele>
        <time>2013-07-03T14:40:23Z</time>
      </trkpt>
      <trkpt lat="39.907083" lon="-4.494133">
        <ele>1495.0</ele>
        <time>2013-07-03T14:40:24Z</time>
      </trkpt>
      <trkpt lat="39.907017" lon="-4.494033">
        <ele>1495.0</ele>
        <time>2013-07-03T14:40:25Z</time>
      </trkpt>
      <trkpt lat="39.906967" lon="-4.493917">
        <ele>1495.0</ele>
        <time>2013-07-03T14:40:26Z</time>
      </trkpt>
      <trkpt lat="39.906917" lon="-4.493817">
        <ele>1494.0</ele>
        <time>2013-07-03T14:40:27Z</time>
      </trkpt>
      <trkpt lat="39.906867" lon="-4.493700">
        <ele>1494.0</ele>
        <time>2013-07-03T14:40:28Z</time>
      </trkpt>
      <trkpt lat="39.906817" lon="-4.493567">
        <ele>1493.0</ele>
        <time>2013-07-03T14:40:29Z</time>
      </trkpt>
      <trkpt lat="39.906767" lon="-4.493450">
        <ele>1493.0</ele>
        <time>2013-07-03T14:40:30Z</time>
      </trkpt>
      <trkpt lat="39.906717" lon="-4.493333">
        <ele>1493.0</ele>
        <time>2013-07-03T14:40:31Z</time>
      </trkpt>
      <trkpt lat="39.906650" lon="-4.493217">
        <ele>1492.0</ele>
        <time>2013-07-03T14:40:32Z</time>
      </trkpt>
      <trkpt lat="39.906600" lon="-4.493100">
        <ele>1490.0</ele>
        <time>2013-07-03T14:40:33Z</time>
      </trkpt>
      <trkpt lat="39.906550" lon="-4.492983">
        <ele>1488.0</ele>
        <time>2013-07-03T14:40:34Z</time>
      </trkpt>
      <trkpt lat="39.906500" lon="-4.492850">
        <ele>1485.0</ele>
        <time>2013-07-03T14:40:35Z</time>
      </trkpt>
      <trkpt lat="39.906450" lon="-4.492700">
        <ele>1484.0</ele>
        <time>2013-07-03T14:40:36Z</time>
      </trkpt>
      <trkpt lat="39.906400" lon="-4.492550">
        <ele>1484.0</ele>
        <time>2013-07-03T14:40:37Z</time>
      </trkpt>
      <trkpt lat="39.906367" lon="-4.492417">
        <ele>1485.0</ele>
        <time>2013-07-03T14:40:38Z</time>
      </trkpt>
      <trkpt lat="39.906333" lon="-4.492283">
        <ele>1485.0</ele>
        <time>2013-07-03T14:40:39Z</time>
      </trkpt>
      <trkpt lat="39.906300" lon="-4.492167">
        <ele>1486.0</ele>
        <time>2013-07-03T14:40:40Z</time>
      </trkpt>
      <trkpt lat="39.906267" lon="-4.492033">
        <ele>1485.0</ele>
        <time>2013-07-03T14:40:41Z</time>
      </trkpt>
      <trkpt lat="39.906250" lon="-4.491900">
        <ele>1484.0</ele>
        <time>2013-07-03T14:40:42Z</time>
      </trkpt>
      <trkpt lat="39.906233" lon="-4.491750">
        <ele>1483.0</ele>
        <time>2013-07-03T14:40:43Z</time>
      </trkpt>
      <trkpt lat="39.906233" lon="-4.491617">
        <ele>1483.0</ele>
        <time>2013-07-03T14:40:44Z</time>
      </trkpt>
      <trkpt lat="39.906233" lon="-4.491483">
        <ele>1483.0</ele>
        <time>2013-07-03T14:40:45Z</time>
      </trkpt>
      <trkpt lat="39.906250" lon="-4.491367">
        <ele>1484.0</ele>
        <time>2013-07-03T14:40:46Z</time>
      </trkpt>
      <trkpt lat="39.906250" lon="-4.491250">
        <ele>1484.0</ele>
        <time>2013-07-03T14:40:47Z</time>
      </trkpt>
      <trkpt lat="39.906267" lon="-4.491133">
        <ele>1484.0</ele>
        <time>2013-07-03T14:40:48Z</time>
      </trkpt>
      <trkpt lat="39.906283" lon="-4.491017">
        <ele>1483.0</ele>
        <time>2013-07-03T14:40:49Z</time>
      </trkpt>
      <trkpt lat="39.906317" lon="-4.490883">
        <ele>1482.0</ele>
        <time>2013-07-03T14:40:50Z</time>
      </trkpt>
      <trkpt lat="39.906350" lon="-4.490750">
        <ele>1481.0</ele>
        <time>2013-07-03T14:40:51Z</time>
      </trkpt>
      <trkpt lat="39.906383" lon="-4.490633">
        <ele>1481.0</ele>
        <time>2013-07-03T14:40:52Z</time>
      </trkpt>
      <trkpt lat="39.906400" lon="-4.490517">
        <ele>1482.0</ele>
        <time>2013-07-03T14:40:53Z</time>
      </trkpt>
      <trkpt lat="39.906433" lon="-4.490400">
        <ele>1482.0</ele>
        <time>2013-07-03T14:40:54Z</time>
      </trkpt>
      <trkpt lat="39.906450" lon="-4.490283">
        <ele>1483.0</ele>
        <time>2013-07-03T14:40:55Z</time>
      </trkpt>
      <trkpt lat="39.906500" lon="-4.490183">
        <ele>1484.0</ele>
        <time>2013-07-03T14:40:56Z</time>
      </trkpt>
      <trkpt lat="39.906533" lon="-4.490083">
        <ele>1484.0</ele>
        <time>2013-07-03T14:40:57Z</time>
      </trkpt>
      <trkpt lat="39.906567" lon="-4.489983">
        <ele>1485.0</ele>
        <time>2013-07-03T14:40:58Z</time>
      </trkpt>
      <trkpt lat="39.906600" lon="-4.489867">
        <ele>1485.0</ele>
        <time>2013-07-03T14:40:59Z</time>
      </trkpt>
      <trkpt lat="39.906633" lon="-4.489750">
        <ele>1486.0</ele>
        <time>2013-07-03T14:41:00Z</time>
      </trkpt>
      <trkpt lat="39.906667" lon="-4.489633">
        <ele>1487.0</ele>
        <time>2013-07-03T14:41:01Z</time>
      </trkpt>
      <trkpt lat="39.906717" lon="-4.489533">
        <ele>1487.0</ele>
        <time>2013-07-03T14:41:02Z</time>
      </trkpt>
      <trkpt lat="39.906750" lon="-4.489417">
        <ele>1488.0</ele>
        <time>2013-07-03T14:41:03Z</time>
      </trkpt>
      <trkpt lat="39.906800" lon="-4.489317">
        <ele>1488.0</ele>
        <time>2013-07-03T14:41:04Z</time>
      </trkpt>
      <trkpt lat="39.906833" lon="-4.489200">
        <ele>1488.0</ele>
        <time>2013-07-03T14:41:05Z</time>
      </trkpt>
      <trkpt lat="39.906867" lon="-4.489083">
        <ele>1487.0</ele>
        <time>2013-07-03T14:41:06Z</time>
      </trkpt>
      <trkpt lat="39.906917" lon="-4.488950">
        <ele>1487.0</ele>
        <time>2013-07-03T14:41:07Z</time>
      </trkpt>
      <trkpt lat="39.906950" lon="-4.488817">
        <ele>1487.0</ele>
        <time>2013-07-03T14:41:08Z</time>
      </trkpt>
      <trkpt lat="39.907000" lon="-4.488683">
        <ele>1488.0</ele>
        <time>2013-07-03T14:41:09Z</time>
      </trkpt>
      <trkpt lat="39.907050" lon="-4.488583">
        <ele>1490.0</ele>
        <time>2013-07-03T14:41:10Z</time>
      </trkpt>
      <trkpt lat="39.907100" lon="-4.488483">
        <ele>1491.0</ele>
        <time>2013-07-03T14:41:11Z</time>
      </trkpt>
      <trkpt lat="39.907150" lon="-4.488383">
        <ele>1492.0</ele>
        <time>2013-07-03T14:41:12Z</time>
      </trkpt>
      <trkpt lat="39.907200" lon="-4.488283">
        <ele>1492.0</ele>
        <time>2013-07-03T14:41:13Z</time>
      </trkpt>
      <trkpt lat="39.907250" lon="-4.488167">
        <ele>1493.0</ele>
        <time>2013-07-03T14:41:14Z</time>
      </trkpt>
      <trkpt lat="39.907317" lon="-4.488050">
        <ele>1494.0</ele>
        <time>2013-07-03T14:41:15Z</time>
      </trkpt>
      <trkpt lat="39.907367" lon="-4.487933">
        <ele>1495.0</ele>
        <time>2013-07-03T14:41:16Z</time>
      </trkpt>
      <trkpt lat="39.907433" lon="-4.487833">
        <ele>1498.0</ele>
        <time>2013-07-03T14:41:17Z</time>
      </trkpt>
      <trkpt lat="39.907500" lon="-4.487767">
        <ele>1501.0</ele>
        <time>2013-07-03T14:41:18Z</time>
      </trkpt>
      <trkpt lat="39.907583" lon="-4.487733">
        <ele>1503.0</ele>
        <time>2013-07-03T14:41:19Z</time>
      </trkpt>
      <trkpt lat="39.907667" lon="-4.487717">
        <ele>1505.0</ele>
        <time>2013-07-03T14:41:20Z</time>
      </trkpt>
      <trkpt lat="39.907750" lon="-4.487733">
        <ele>1507.0</ele>
        <time>2013-07-03T14:41:21Z</time>
      </trkpt>
      <trkpt lat="39.907817" lon="-4.487767">
        <ele>1510.0</ele>
        <time>2013-07-03T14:41:22Z</time>
      </trkpt>
      <trkpt lat="39.907900" lon="-4.487783">
        <ele>1513.0</ele>
        <time>2013-07-03T14:41:23Z</time>
      </trkpt>
      <trkpt lat="39.908000" lon="-4.487817">
        <ele>1516.0</ele>
        <time>2013-07-03T14:41:24Z</time>
      </trkpt>
      <trkpt lat="39.908083" lon="-4.487817">
        <ele>1520.0</ele>
        <time>2013-07-03T14:41:25Z</time>
      </trkpt>
      <trkpt lat="39.908167" lon="-4.487800">
        <ele>1526.0</ele>
        <time>2013-07-03T14:41:26Z</time>
      </trkpt>
      <trkpt lat="39.908233" lon="-4.487783">
        <ele>1532.0</ele>
        <time>2013-07-03T14:41:27Z</time>
      </trkpt>
      <trkpt lat="39.908267" lon="-4.487767">
        <ele>1537.0</ele>
        <time>2013-07-03T14:41:28Z</time>
      </trkpt>
      <trkpt lat="39.908317" lon="-4.487750">
        <ele>1542.0</ele>
        <time>2013-07-03T14:41:29Z</time>
      </trkpt>
      <trkpt lat="39.908350" lon="-4.487717">
        <ele>1545.0</ele>
        <time>2013-07-03T14:41:30Z</time>
      </trkpt>
      <trkpt lat="39.908383" lon="-4.487633">
        <ele>1548.0</ele>
        <time>2013-07-03T14:41:31Z</time>
      </trkpt>
      <trkpt lat="39.908400" lon="-4.487533">
        <ele>1552.0</ele>
        <time>2013-07-03T14:41:32Z</time>
      </trkpt>
      <trkpt lat="39.908383" lon="-4.487450">
        <ele>1555.0</ele>
        <time>2013-07-03T14:41:33Z</time>
      </trkpt>
      <trkpt lat="39.908333" lon="-4.487383">
        <ele>1559.0</ele>
        <time>2013-07-03T14:41:34Z</time>
      </trkpt>
      <trkpt lat="39.908267" lon="-4.487350">
        <ele>1562.0</ele>
        <time>2013-07-03T14:41:35Z</time>
      </trkpt>
      <trkpt lat="39.908200" lon="-4.487367">
        <ele>1564.0</ele>
        <time>2013-07-03T14:41:36Z</time>
      </trkpt>
      <trkpt lat="39.908133" lon="-4.487400">
        <ele>1567.0</ele>
        <time>2013-07-03T14:41:37Z</time>
      </trkpt>
      <trkpt lat="39.908067" lon="-4.487467">
        <ele>1571.0</ele>
        <time>2013-07-03T14:41:38Z</time>
      </trkpt>
      <trkpt lat="39.908017" lon="-4.487550">
        <ele>1574.0</ele>
        <time>2013-07-03T14:41:39Z</time>
      </trkpt>
      <trkpt lat="39.907983" lon="-4.487633">
        <ele>1579.0</ele>
        <time>2013-07-03T14:41:40Z</time>
      </trkpt>
      <trkpt lat="39.907983" lon="-4.487733">
        <ele>1584.0</ele>
        <time>2013-07-03T14:41:41Z</time>
      </trkpt>
      <trkpt lat="39.907967" lon="-4.487833">
        <ele>1587.0</ele>
        <time>2013-07-03T14:41:42Z</time>
      </trkpt>
      <trkpt lat="39.907983" lon="-4.487933">
        <ele>1589.0</ele>
        <time>2013-07-03T14:41:43Z</time>
      </trkpt>
      <trkpt lat="39.908000" lon="-4.488017">
        <ele>1592.0</ele>
        <time>2013-07-03T14:41:44Z</time>
      </trkpt>
      <trkpt lat="39.908067" lon="-4.488100">
        <ele>1594.0</ele>
        <time>2013-07-03T14:41:45Z</time>
      </trkpt>
      <trkpt lat="39.908133" lon="-4.488167">
        <ele>1597.0</ele>
        <time>2013-07-03T14:41:46Z</time>
      </trkpt>
      <trkpt lat="39.908217" lon="-4.488217">
        <ele>1600.0</ele>
        <time>2013-07-03T14:41:47Z</time>
      </trkpt>
      <trkpt lat="39.908300" lon="-4.488217">
        <ele>1605.0</ele>
        <time>2013-07-03T14:41:48Z</time>
      </trkpt>
      <trkpt lat="39.908367" lon="-4.488217">
        <ele>1610.0</ele>
        <time>2013-07-03T14:41:49Z</time>
      </trkpt>
      <trkpt lat="39.908433" lon="-4.488183">
        <ele>1615.0</ele>
        <time>2013-07-03T14:41:50Z</time>
      </trkpt>
      <trkpt lat="39.908467" lon="-4.488133">
        <ele>1618.0</ele>
        <time>2013-07-03T14:41:51Z</time>
      </trkpt>
      <trkpt lat="39.908533" lon="-4.488083">
        <ele>1621.0</ele>
        <time>2013-07-03T14:41:52Z</time>
      </trkpt>
      <trkpt lat="39.908583" lon="-4.488033">
        <ele>1623.0</ele>
        <time>2013-07-03T14:41:53Z</time>
      </trkpt>
      <trkpt lat="39.908633" lon="-4.487950">
        <ele>1627.0</ele>
        <time>2013-07-03T14:41:54Z</time>
      </trkpt>
      <trkpt lat="39.908650" lon="-4.487867">
        <ele>1630.0</ele>
        <time>2013-07-03T14:41:55Z</time>
      </trkpt>
      <trkpt lat="39.908650" lon="-4.487767">
        <ele>1632.0</ele>
        <time>2013-07-03T14:41:56Z</time>
      </trkpt>
      <trkpt lat="39.908633" lon="-4.487667">
        <ele>1636.0</ele>
        <time>2013-07-03T14:41:57Z</time>
      </trkpt>
      <trkpt lat="39.908617" lon="-4.487567">
        <ele>1638.0</ele>
        <time>2013-07-03T14:41:58Z</time>
      </trkpt>
      <trkpt lat="39.908600" lon="-4.487467">
        <ele>1641.0</ele>
        <time>2013-07-03T14:41:59Z</time>
      </trkpt>
      <trkpt lat="39.908550" lon="-4.487367">
        <ele>1644.0</ele>
        <time>2013-07-03T14:42:00Z</time>
      </trkpt>
      <trkpt lat="39.908500" lon="-4.487267">
        <ele>1647.0</ele>
        <time>2013-07-03T14:42:01Z</time>
      </trkpt>
      <trkpt lat="39.908433" lon="-4.487200">
        <ele>1651.0</ele>
        <time>2013-07-03T14:42:02Z</time>
      </trkpt>
      <trkpt lat="39.908383" lon="-4.487133">
        <ele>1655.0</ele>
        <time>2013-07-03T14:42:03Z</time>
      </trkpt>
      <trkpt lat="39.908333" lon="-4.487083">
        <ele>1659.0</ele>
        <time>2013-07-03T14:42:04Z</time>
      </trkpt>
      <trkpt lat="39.908283" lon="-4.487050">
        <ele>1663.0</ele>
        <time>2013-07-03T14:42:05Z</time>
      </trkpt>
      <trkpt lat="39.908217" lon="-4.487033">
        <ele>1666.0</ele>
        <time>2013-07-03T14:42:06Z</time>
      </trkpt>
      <trkpt lat="39.908150" lon="-4.487033">
        <ele>1668.0</ele>
        <time>2013-07-03T14:42:07Z</time>
      </trkpt>
      <trkpt lat="39.908083" lon="-4.487067">
        <ele>1671.0</ele>
        <time>2013-07-03T14:42:08Z</time>
      </trkpt>
      <trkpt lat="39.908033" lon="-4.487100">
        <ele>1674.0</ele>
        <time>2013-07-03T14:42:09Z</time>
      </trkpt>
      <trkpt lat="39.907967" lon="-4.487150">
        <ele>1676.0</ele>
        <time>2013-07-03T14:42:10Z</time>
      </trkpt>
      <trkpt lat="39.907917" lon="-4.487217">
        <ele>1679.0</ele>
        <time>2013-07-03T14:42:11Z</time>
      </trkpt>
      <trkpt lat="39.907867" lon="-4.487300">
        <ele>1682.0</ele>
        <time>2013-07-03T14:42:12Z</time>
      </trkpt>
      <trkpt lat="39.907850" lon="-4.487417">
        <ele>1683.0</ele>
        <time>2013-07-03T14:42:13Z</time>
      </trkpt>
      <trkpt lat="39.907867" lon="-4.487550">
        <ele>1686.0</ele>
        <time>2013-07-03T14:42:14Z</time>
      </trkpt>
      <trkpt lat="39.907917" lon="-4.487667">
        <ele>1689.0</ele>
        <time>2013-07-03T14:42:15Z</time>
      </trkpt>
      <trkpt lat="39.907983" lon="-4.487750">
        <ele>1693.0</ele>
        <time>2013-07-03T14:42:16Z</time>
      </trkpt>
      <trkpt lat="39.908067" lon="-4.487817">
        <ele>1697.0</ele>
        <time>2013-07-03T14:42:17Z</time>
      </trkpt>
      <trkpt lat="39.908150" lon="-4.487867">
        <ele>1700.0</ele>
        <time>2013-07-03T14:42:18Z</time>
      </trkpt>
      <trkpt lat="39.908217" lon="-4.487917">
        <ele>1703.0</ele>
        <time>2013-07-03T14:42:19Z</time>
      </trkpt>
      <trkpt lat="39.908300" lon="-4.487950">
        <ele>1707.0</ele>
        <time>2013-07-03T14:42:20Z</time>
      </trkpt>
      <trkpt lat="39.908383" lon="-4.487967">
        <ele>1710.0</ele>
        <time>2013-07-03T14:42:21Z</time>
      </trkpt>
      <trkpt lat="39.908467" lon="-4.487967">
        <ele>1712.0</ele>
        <time>2013-07-03T14:42:22Z</time>
      </trkpt>
      <trkpt lat="39.908550" lon="-4.487933">
        <ele>1715.0</ele>
        <time>2013-07-03T14:42:23Z</time>
      </trkpt>
      <trkpt lat="39.908617" lon="-4.487867">
        <ele>1716.0</ele>
        <time>2013-07-03T14:42:24Z</time>
      </trkpt>
      <trkpt lat="39.908683" lon="-4.487783">
        <ele>1718.0</ele>
        <time>2013-07-03T14:42:25Z</time>
      </trkpt>
      <trkpt lat="39.908717" lon="-4.487683">
        <ele>1720.0</ele>
        <time>2013-07-03T14:42:26Z</time>
      </trkpt>
      <trkpt lat="39.908733" lon="-4.487583">
        <ele>1721.0</ele>
        <time>2013-07-03T14:42:27Z</time>
      </trkpt>
      <trkpt lat="39.908733" lon="-4.487467">
        <ele>1723.0</ele>
        <time>2013-07-03T14:42:28Z</time>
      </trkpt>
      <trkpt lat="39.908717" lon="-4.487367">
        <ele>1725.0</ele>
        <time>2013-07-03T14:42:29Z</time>
      </trkpt>
      <trkpt lat="39.908683" lon="-4.487283">
        <ele>1728.0</ele>
        <time>2013-07-03T14:42:30Z</time>
      </trkpt>
      <trkpt lat="39.908650" lon="-4.487200">
        <ele>1731.0</ele>
        <time>2013-07-03T14:42:31Z</time>
      </trkpt>
      <trkpt lat="39.908617" lon="-4.487133">
        <ele>1733.0</ele>
        <time>2013-07-03T14:42:32Z</time>
      </trkpt>
      <trkpt lat="39.908567" lon="-4.487067">
        <ele>1736.0</ele>
        <time>2013-07-03T14:42:33Z</time>
      </trkpt>
      <trkpt lat="39.908517" lon="-4.486983">
        <ele>1737.0</ele>
        <time>2013-07-03T14:42:34Z</time>
      </trkpt>
      <trkpt lat="39.908467" lon="-4.486900">
        <ele>1739.0</ele>
        <time>2013-07-03T14:42:35Z</time>
      </trkpt>
      <trkpt lat="39.908400" lon="-4.486850">
        <ele>1741.0</ele>
        <time>2013-07-03T14:42:36Z</time>
      </trkpt>
      <trkpt lat="39.908333" lon="-4.486817">
        <ele>1742.0</ele>
        <time>2013-07-03T14:42:37Z</time>
      </trkpt>
      <trkpt lat="39.908250" lon="-4.486817">
        <ele>1743.0</ele>
        <time>2013-07-03T14:42:38Z</time>
      </trkpt>
      <trkpt lat="39.908167" lon="-4.486833">
        <ele>1746.0</ele>
        <time>2013-07-03T14:42:39Z</time>
      </trkpt>
      <trkpt lat="39.908083" lon="-4.486850">
        <ele>1750.0</ele>
        <time>2013-07-03T14:42:40Z</time>
      </trkpt>
      <trkpt lat="39.908033" lon="-4.486883">
        <ele>1753.0</ele>
        <time>2013-07-03T14:42:41Z</time>
      </trkpt>
      <trkpt lat="39.907983" lon="-4.486917">
        <ele>1755.0</ele>
        <time>2013-07-03T14:42:42Z</time>
      </trkpt>
      <trkpt lat="39.907933" lon="-4.486967">
        <ele>1758.0</ele>
        <time>2013-07-03T14:42:43Z</time>
      </trkpt>
      <trkpt lat="39.907900" lon="-4.487033">
        <ele>1761.0</ele>
        <time>2013-07-03T14:42:44Z</time>
      </trkpt>
      <trkpt lat="39.907883" lon="-4.487117">
        <ele>1764.0</ele>
        <time>2013-07-03T14:42:45Z</time>
      </trkpt>
      <trkpt lat="39.907883" lon="-4.487200">
        <ele>1768.0</ele>
        <time>2013-07-03T14:42:46Z</time>
      </trkpt>
      <trkpt lat="39.907900" lon="-4.487267">
        <ele>1771.0</ele>
        <time>2013-07-03T14:42:47Z</time>
      </trkpt>
      <trkpt lat="39.907917" lon="-4.487350">
        <ele>1773.0</ele>
        <time>2013-07-03T14:42:48Z</time>
      </trkpt>
      <trkpt lat="39.907967" lon="-4.487433">
        <ele>1775.0</ele>
        <time>2013-07-03T14:42:49Z</time>
      </trkpt>
      <trkpt lat="39.908050" lon="-4.487500">
        <ele>1774.0</ele>
        <time>2013-07-03T14:42:50Z</time>
      </trkpt>
      <trkpt lat="39.908133" lon="-4.487550">
        <ele>1777.0</ele>
        <time>2013-07-03T14:42:51Z</time>
      </trkpt>
      <trkpt lat="39.908217" lon="-4.487583">
        <ele>1779.0</ele>
        <time>2013-07-03T14:42:52Z</time>
      </trkpt>
      <trkpt lat="39.908283" lon="-4.487617">
        <ele>1782.0</ele>
        <time>2013-07-03T14:42:53Z</time>
      </trkpt>
      <trkpt lat="39.908367" lon="-4.487650">
        <ele>1786.0</ele>
        <time>2013-07-03T14:42:54Z</time>
      </trkpt>
      <trkpt lat="39.908433" lon="-4.487650">
        <ele>1788.0</ele>
        <time>2013-07-03T14:42:55Z</time>
      </trkpt>
      <trkpt lat="39.908500" lon="-4.487633">
        <ele>1790.0</ele>
        <time>2013-07-03T14:42:56Z</time>
      </trkpt>
      <trkpt lat="39.908583" lon="-4.487600">
        <ele>1792.0</ele>
        <time>2013-07-03T14:42:57Z</time>
      </trkpt>
      <trkpt lat="39.908650" lon="-4.487550">
        <ele>1795.0</ele>
        <time>2013-07-03T14:42:58Z</time>
      </trkpt>
      <trkpt lat="39.908717" lon="-4.487467">
        <ele>1797.0</ele>
        <time>2013-07-03T14:42:59Z</time>
      </trkpt>
      <trkpt lat="39.908767" lon="-4.487383">
        <ele>1799.0</ele>
        <time>2013-07-03T14:43:00Z</time>
      </trkpt>
      <trkpt lat="39.908783" lon="-4.487267">
        <ele>1800.0</ele>
        <time>2013-07-03T14:43:01Z</time>
      </trkpt>
      <trkpt lat="39.908800" lon="-4.487167">
        <ele>1802.0</ele>
        <time>2013-07-03T14:43:02Z</time>
      </trkpt>
      <trkpt lat="39.908800" lon="-4.487050">
        <ele>1803.0</ele>
        <time>2013-07-03T14:43:03Z</time>
      </trkpt>
      <trkpt lat="39.908767" lon="-4.486933">
        <ele>1804.0</ele>
        <time>2013-07-03T14:43:04Z</time>
      </trkpt>
      <trkpt lat="39.908717" lon="-4.486833">
        <ele>1805.0</ele>
        <time>2013-07-03T14:43:05Z</time>
      </trkpt>
      <trkpt lat="39.908667" lon="-4.486733">
        <ele>1807.0</ele>
        <time>2013-07-03T14:43:06Z</time>
      </trkpt>
      <trkpt lat="39.908617" lon="-4.486650">
        <ele>1810.0</ele>
        <time>2013-07-03T14:43:07Z</time>
      </trkpt>
      <trkpt lat="39.908567" lon="-4.486617">
        <ele>1812.0</ele>
        <time>2013-07-03T14:43:08Z</time>
      </trkpt>
      <trkpt lat="39.908517" lon="-4.486583">
        <ele>1812.0</ele>
        <time>2013-07-03T14:43:09Z</time>
      </trkpt>
      <trkpt lat="39.908467" lon="-4.486550">
        <ele>1812.0</ele>
        <time>2013-07-03T14:43:10Z</time>
      </trkpt>
      <trkpt lat="39.908400" lon="-4.486550">
        <ele>1813.0</ele>
        <time>2013-07-03T14:43:11Z</time>
      </trkpt>
      <trkpt lat="39.908333" lon="-4.486567">
        <ele>1814.0</ele>
        <time>2013-07-03T14:43:12Z</time>
      </trkpt>
      <trkpt lat="39.908300" lon="-4.486633">
        <ele>1814.0</ele>
        <time>2013-07-03T14:43:13Z</time>
      </trkpt>
      <trkpt lat="39.908283" lon="-4.486717">
        <ele>1815.0</ele>
        <time>2013-07-03T14:43:14Z</time>
      </trkpt>
      <trkpt lat="39.908267" lon="-4.486817">
        <ele>1818.0</ele>
        <time>2013-07-03T14:43:15Z</time>
      </trkpt>
      <trkpt lat="39.908250" lon="-4.486900">
        <ele>1822.0</ele>
        <time>2013-07-03T14:43:16Z</time>
      </trkpt>
      <trkpt lat="39.908250" lon="-4.486967">
        <ele>1828.0</ele>
        <time>2013-07-03T14:43:17Z</time>
      </trkpt>
      <trkpt lat="39.908233" lon="-4.487000">
        <ele>1830.0</ele>
        <time>2013-07-03T14:43:18Z</time>
      </trkpt>
      <trkpt lat="39.908217" lon="-4.487050">
        <ele>1833.0</ele>
        <time>2013-07-03T14:43:19Z</time>
      </trkpt>
      <trkpt lat="39.908200" lon="-4.487133">
        <ele>1835.0</ele>
        <time>2013-07-03T14:43:20Z</time>
      </trkpt>
      <trkpt lat="39.908200" lon="-4.487217">
        <ele>1835.0</ele>
        <time>2013-07-03T14:43:21Z</time>
      </trkpt>
      <trkpt lat="39.908233" lon="-4.487300">
        <ele>1836.0</ele>
        <time>2013-07-03T14:43:22Z</time>
      </trkpt>
      <trkpt lat="39.908283" lon="-4.487367">
        <ele>1837.0</ele>
        <time>2013-07-03T14:43:23Z</time>
      </trkpt>
      <trkpt lat="39.908350" lon="-4.487417">
        <ele>1838.0</ele>
        <time>2013-07-03T14:43:24Z</time>
      </trkpt>
      <trkpt lat="39.908433" lon="-4.487417">
        <ele>1839.0</ele>
        <time>2013-07-03T14:43:25Z</time>
      </trkpt>
      <trkpt lat="39.908517" lon="-4.487400">
        <ele>1840.0</ele>
        <time>2013-07-03T14:43:26Z</time>
      </trkpt>
      <trkpt lat="39.908600" lon="-4.487400">
        <ele>1842.0</ele>
        <time>2013-07-03T14:43:27Z</time>
      </trkpt>
      <trkpt lat="39.908683" lon="-4.487383">
        <ele>1844.0</ele>
        <time>2013-07-03T14:43:28Z</time>
      </trkpt>
      <trkpt lat="39.908750" lon="-4.487383">
        <ele>1847.0</ele>
        <time>2013-07-03T14:43:29Z</time>
      </trkpt>
      <trkpt lat="39.908833" lon="-4.487367">
        <ele>1849.0</ele>
        <time>2013-07-03T14:43:30Z</time>
      </trkpt>
      <trkpt lat="39.908917" lon="-4.487333">
        <ele>1850.0</ele>
        <time>2013-07-03T14:43:31Z</time>
      </trkpt>
      <trkpt lat="39.908983" lon="-4.487267">
        <ele>1851.0</ele>
        <time>2013-07-03T14:43:32Z</time>
      </trkpt>
      <trkpt lat="39.909067" lon="-4.487200">
        <ele>1852.0</ele>
        <time>2013-07-03T14:43:33Z</time>
      </trkpt>
      <trkpt lat="39.909133" lon="-4.487100">
        <ele>1852.0</ele>
        <time>2013-07-03T14:43:34Z</time>
      </trkpt>
      <trkpt lat="39.909167" lon="-4.486983">
        <ele>1855.0</ele>
        <time>2013-07-03T14:43:35Z</time>
      </trkpt>
      <trkpt lat="39.909133" lon="-4.486883">
        <ele>1857.0</ele>
        <time>2013-07-03T14:43:36Z</time>
      </trkpt>
      <trkpt lat="39.909083" lon="-4.486800">
        <ele>1858.0</ele>
        <time>2013-07-03T14:43:37Z</time>
      </trkpt>
      <trkpt lat="39.909017" lon="-4.486733">
        <ele>1860.0</ele>
        <time>2013-07-03T14:43:38Z</time>
      </trkpt>
      <trkpt lat="39.908967" lon="-4.486667">
        <ele>1862.0</ele>
        <time>2013-07-03T14:43:39Z</time>
      </trkpt>
      <trkpt lat="39.908917" lon="-4.486600">
        <ele>1863.0</ele>
        <time>2013-07-03T14:43:40Z</time>
      </trkpt>
      <trkpt lat="39.908867" lon="-4.486550">
        <ele>1864.0</ele>
        <time>2013-07-03T14:43:41Z</time>
      </trkpt>
      <trkpt lat="39.908817" lon="-4.486517">
        <ele>1864.0</ele>
        <time>2013-07-03T14:43:42Z</time>
      </trkpt>
      <trkpt lat="39.908750" lon="-4.486500">
        <ele>1863.0</ele>
        <time>2013-07-03T14:43:43Z</time>
      </trkpt>
      <trkpt lat="39.908667" lon="-4.486500">
        <ele>1864.0</ele>
        <time>2013-07-03T14:43:44Z</time>
      </trkpt>
      <trkpt lat="39.908600" lon="-4.486517">
        <ele>1865.0</ele>
        <time>2013-07-03T14:43:45Z</time>
      </trkpt>
      <trkpt lat="39.908550" lon="-4.486567">
        <ele>1865.0</ele>
        <time>2013-07-03T14:43:46Z</time>
      </trkpt>
      <trkpt lat="39.908500" lon="-4.486600">
        <ele>1866.0</ele>
        <time>2013-07-03T14:43:47Z</time>
      </trkpt>
      <trkpt lat="39.908450" lon="-4.486617">
        <ele>1867.0</ele>
        <time>2013-07-03T14:43:48Z</time>
      </trkpt>
      <trkpt lat="39.908400" lon="-4.486650">
        <ele>1867.0</ele>
        <time>2013-07-03T14:43:49Z</time>
      </trkpt>
      <trkpt lat="39.908367" lon="-4.486683">
        <ele>1867.0</ele>
        <time>2013-07-03T14:43:50Z</time>
      </trkpt>
      <trkpt lat="39.908333" lon="-4.486750">
        <ele>1867.0</ele>
        <time>2013-07-03T14:43:51Z</time>
      </trkpt>
      <trkpt lat="39.908317" lon="-4.486850">
        <ele>1866.0</ele>
        <time>2013-07-03T14:43:52Z</time>
      </trkpt>
      <trkpt lat="39.908317" lon="-4.486950">
        <ele>1866.0</ele>
        <time>2013-07-03T14:43:53Z</time>
      </trkpt>
      <trkpt lat="39.908333" lon="-4.487050">
        <ele>1866.0</ele>
        <time>2013-07-03T14:43:54Z</time>
      </trkpt>
      <trkpt lat="39.908350" lon="-4.487133">
        <ele>1865.0</ele>
        <time>2013-07-03T14:43:55Z</time>
      </trkpt>
      <trkpt lat="39.908367" lon="-4.487250">
        <ele>1865.0</ele>
        <time>2013-07-03T14:43:56Z</time>
      </trkpt>
      <trkpt lat="39.908383" lon="-4.487367">
        <ele>1867.0</ele>
        <time>2013-07-03T14:43:57Z</time>
      </trkpt>
      <trkpt lat="39.908383" lon="-4.487500">
        <ele>1869.0</ele>
        <time>2013-07-03T14:43:58Z</time>
      </trkpt>
      <trkpt lat="39.908367" lon="-4.487633">
        <ele>1873.0</ele>
        <time>2013-07-03T14:43:59Z</time>
      </trkpt>
      <trkpt lat="39.908383" lon="-4.487733">
        <ele>1877.0</ele>
        <time>2013-07-03T14:44:00Z</time>
      </trkpt>
      <trkpt lat="39.908417" lon="-4.487833">
        <ele>1881.0</ele>
        <time>2013-07-03T14:44:01Z</time>
      </trkpt>
      <trkpt lat="39.908433" lon="-4.487933">
        <ele>1884.0</ele>
        <time>2013-07-03T14:44:02Z</time>
      </trkpt>
      <trkpt lat="39.908450" lon="-4.488017">
        <ele>1886.0</ele>
        <time>2013-07-03T14:44:03Z</time>
      </trkpt>
      <trkpt lat="39.908467" lon="-4.488133">
        <ele>1888.0</ele>
        <time>2013-07-03T14:44:04Z</time>
      </trkpt>
      <trkpt lat="39.908483" lon="-4.488233">
        <ele>1889.0</ele>
        <time>2013-07-03T14:44:05Z</time>
      </trkpt>
      <trkpt lat="39.908533" lon="-4.488333">
        <ele>1891.0</ele>
        <time>2013-07-03T14:44:06Z</time>
      </trkpt>
      <trkpt lat="39.908600" lon="-4.488383">
        <ele>1892.0</ele>
        <time>2013-07-03T14:44:07Z</time>
      </trkpt>
      <trkpt lat="39.908667" lon="-4.488400">
        <ele>1894.0</ele>
        <time>2013-07-03T14:44:08Z</time>
      </trkpt>
      <trkpt lat="39.908733" lon="-4.488383">
        <ele>1896.0</ele>
        <time>2013-07-03T14:44:09Z</time>
      </trkpt>
      <trkpt lat="39.908800" lon="-4.488333">
        <ele>1898.0</ele>
        <time>2013-07-03T14:44:10Z</time>
      </trkpt>
      <trkpt lat="39.908833" lon="-4.488267">
        <ele>1901.0</ele>
        <time>2013-07-03T14:44:11Z</time>
      </trkpt>
      <trkpt lat="39.908833" lon="-4.488200">
        <ele>1903.0</ele>
        <time>2013-07-03T14:44:12Z</time>
      </trkpt>
      <trkpt lat="39.908817" lon="-4.488117">
        <ele>1904.0</ele>
        <time>2013-07-03T14:44:13Z</time>
      </trkpt>
      <trkpt lat="39.908750" lon="-4.488067">
        <ele>1905.0</ele>
        <time>2013-07-03T14:44:14Z</time>
      </trkpt>
      <trkpt lat="39.908683" lon="-4.488050">
        <ele>1906.0</ele>
        <time>2013-07-03T14:44:15Z</time>
      </trkpt>
      <trkpt lat="39.908600" lon="-4.488067">
        <ele>1907.0</ele>
        <time>2013-07-03T14:44:16Z</time>
      </trkpt>
      <trkpt lat="39.908517" lon="-4.488100">
        <ele>1909.0</ele>
        <time>2013-07-03T14:44:17Z</time>
      </trkpt>
      <trkpt lat="39.908433" lon="-4.488167">
        <ele>1910.0</ele>
        <time>2013-07-03T14:44:18Z</time>
      </trkpt>
      <trkpt lat="39.908367" lon="-4.488233">
        <ele>1912.0</ele>
        <time>2013-07-03T14:44:19Z</time>
      </trkpt>
      <trkpt lat="39.908317" lon="-4.488317">
        <ele>1915.0</ele>
        <time>2013-07-03T14:44:20Z</time>
      </trkpt>
      <trkpt lat="39.908267" lon="-4.488383">
        <ele>1917.0</ele>
        <time>2013-07-03T14:44:21Z</time>
      </trkpt>
      <trkpt lat="39.908250" lon="-4.488483">
        <ele>1919.0</ele>
        <time>2013-07-03T14:44:22Z</time>
      </trkpt>
      <trkpt lat="39.908233" lon="-4.488583">
        <ele>1922.0</ele>
        <time>2013-07-03T14:44:23Z</time>
      </trkpt>
      <trkpt lat="39.908233" lon="-4.488700">
        <ele>1926.0</ele>
        <time>2013-07-03T14:44:24Z</time>
      </trkpt>
      <trkpt lat="39.908250" lon="-4.488817">
        <ele>1931.0</ele>
        <time>2013-07-03T14:44:25Z</time>
      </trkpt>
      <trkpt lat="39.908283" lon="-4.488900">
        <ele>1935.0</ele>
        <time>2013-07-03T14:44:26Z</time>
      </trkpt>
      <trkpt lat="39.908317" lon="-4.488983">
        <ele>1939.0</ele>
        <time>2013-07-03T14:44:27Z</time>
      </trkpt>
      <trkpt lat="39.908367" lon="-4.489033">
        <ele>1943.0</ele>
        <time>2013-07-03T14:44:28Z</time>
      </trkpt>
      <trkpt lat="39.908433" lon="-4.489100">
        <ele>1945.0</ele>
        <time>2013-07-03T14:44:29Z</time>
      </trkpt>
      <trkpt lat="39.908500" lon="-4.489150">
        <ele>1947.0</ele>
        <time>2013-07-03T14:44:30Z</time>
      </trkpt>
      <trkpt lat="39.908567" lon="-4.489183">
        <ele>1950.0</ele>
        <time>2013-07-03T14:44:31Z</time>
      </trkpt>
      <trkpt lat="39.908650" lon="-4.489183">
        <ele>1952.0</ele>
        <time>2013-07-03T14:44:32Z</time>
      </trkpt>
      <trkpt lat="39.908717" lon="-4.489133">
        <ele>1953.0</ele>
        <time>2013-07-03T14:44:33Z</time>
      </trkpt>
      <trkpt lat="39.908767" lon="-4.489050">
        <ele>1956.0</ele>
        <time>2013-07-03T14:44:34Z</time>
      </trkpt>
      <trkpt lat="39.908817" lon="-4.488967">
        <ele>1959.0</ele>
        <time>2013-07-03T14:44:35Z</time>
      </trkpt>
      <trkpt lat="39.908833" lon="-4.488883">
        <ele>1963.0</ele>
        <time>2013-07-03T14:44:36Z</time>
      </trkpt>
      <trkpt lat="39.908833" lon="-4.488800">
        <ele>1967.0</ele>
        <time>2013-07-03T14:44:37Z</time>
      </trkpt>
      <trkpt lat="39.908817" lon="-4.488717">
        <ele>1970.0</ele>
        <time>2013-07-03T14:44:38Z</time>
      </trkpt>
      <trkpt lat="39.908783" lon="-4.488633">
        <ele>1973.0</ele>
        <time>2013-07-03T14:44:39Z</time>
      </trkpt>
      <trkpt lat="39.908750" lon="-4.488550">
        <ele>1975.0</ele>
        <time>2013-07-03T14:44:40Z</time>
      </trkpt>
      <trkpt lat="39.908717" lon="-4.488500">
        <ele>1978.0</ele>
        <time>2013-07-03T14:44:41Z</time>
      </trkpt>
      <trkpt lat="39.908667" lon="-4.488450">
        <ele>1980.0</ele>
        <time>2013-07-03T14:44:42Z</time>
      </trkpt>
      <trkpt lat="39.908617" lon="-4.488417">
        <ele>1982.0</ele>
        <time>2013-07-03T14:44:43Z</time>
      </trkpt>
      <trkpt lat="39.908550" lon="-4.488383">
        <ele>1983.0</ele>
        <time>2013-07-03T14:44:44Z</time>
      </trkpt>
      <trkpt lat="39.908467" lon="-4.488383">
        <ele>1985.0</ele>
        <time>2013-07-03T14:44:45Z</time>
      </trkpt>
      <trkpt lat="39.908383" lon="-4.488400">
        <ele>1987.0</ele>
        <time>2013-07-03T14:44:46Z</time>
      </trkpt>
      <trkpt lat="39.908317" lon="-4.488417">
        <ele>1990.0</ele>
        <time>2013-07-03T14:44:47Z</time>
      </trkpt>
      <trkpt lat="39.908250" lon="-4.488417">
        <ele>1993.0</ele>
        <time>2013-07-03T14:44:48Z</time>
      </trkpt>
      <trkpt lat="39.908183" lon="-4.488417">
        <ele>1996.0</ele>
        <time>2013-07-03T14:44:49Z</time>
      </trkpt>
      <trkpt lat="39.908100" lon="-4.488433">
        <ele>1999.0</ele>
        <time>2013-07-03T14:44:50Z</time>
      </trkpt>
      <trkpt lat="39.908033" lon="-4.488433">
        <ele>2003.0</ele>
        <time>2013-07-03T14:44:51Z</time>
      </trkpt>
      <trkpt lat="39.907950" lon="-4.488417">
        <ele>2007.0</ele>
        <time>2013-07-03T14:44:52Z</time>
      </trkpt>
      <trkpt lat="39.907883" lon="-4.488400">
        <ele>2011.0</ele>
        <time>2013-07-03T14:44:53Z</time>
      </trkpt>
      <trkpt lat="39.907817" lon="-4.488350">
        <ele>2015.0</ele>
        <time>2013-07-03T14:44:54Z</time>
      </trkpt>
      <trkpt lat="39.907767" lon="-4.488300">
        <ele>2018.0</ele>
        <time>2013-07-03T14:44:55Z</time>
      </trkpt>
      <trkpt lat="39.907700" lon="-4.488250">
        <ele>2021.0</ele>
        <time>2013-07-03T14:44:56Z</time>
      </trkpt>
      <trkpt lat="39.907650" lon="-4.488183">
        <ele>2024.0</ele>
        <time>2013-07-03T14:44:57Z</time>
      </trkpt>
      <trkpt lat="39.907583" lon="-4.488117">
        <ele>2028.0</ele>
        <time>2013-07-03T14:44:58Z</time>
      </trkpt>
      <trkpt lat="39.907533" lon="-4.488033">
        <ele>2031.0</ele>
        <time>2013-07-03T14:44:59Z</time>
      </trkpt>
      <trkpt lat="39.907483" lon="-4.487967">
        <ele>2036.0</ele>
        <time>2013-07-03T14:45:00Z</time>
      </trkpt>
      <trkpt lat="39.907417" lon="-4.487933">
        <ele>2039.0</ele>
        <time>2013-07-03T14:45:01Z</time>
      </trkpt>
      <trkpt lat="39.907350" lon="-4.487900">
        <ele>2043.0</ele>
        <time>2013-07-03T14:45:02Z</time>
      </trkpt>
      <trkpt lat="39.907267" lon="-4.487900">
        <ele>2046.0</ele>
        <time>2013-07-03T14:45:03Z</time>
      </trkpt>
      <trkpt lat="39.907167" lon="-4.487917">
        <ele>2049.0</ele>
        <time>2013-07-03T14:45:04Z</time>
      </trkpt>
      <trkpt lat="39.907083" lon="-4.487950">
        <ele>2052.0</ele>
        <time>2013-07-03T14:45:05Z</time>
      </trkpt>
      <trkpt lat="39.907017" lon="-4.488000">
        <ele>2055.0</ele>
        <time>2013-07-03T14:45:06Z</time>
      </trkpt>
      <trkpt lat="39.906983" lon="-4.488100">
        <ele>2058.0</ele>
        <time>2013-07-03T14:45:07Z</time>
      </trkpt>
      <trkpt lat="39.906967" lon="-4.488200">
        <ele>2059.0</ele>
        <time>2013-07-03T14:45:08Z</time>
      </trkpt>
      <trkpt lat="39.906983" lon="-4.488300">
        <ele>2060.0</ele>
        <time>2013-07-03T14:45:09Z</time>
      </trkpt>
      <trkpt lat="39.907017" lon="-4.488400">
        <ele>2063.0</ele>
        <time>2013-07-03T14:45:10Z</time>
      </trkpt>
      <trkpt lat="39.907050" lon="-4.488500">
        <ele>2066.0</ele>
        <time>2013-07-03T14:45:11Z</time>
      </trkpt>
      <trkpt lat="39.907067" lon="-4.488583">
        <ele>2069.0</ele>
        <time>2013-07-03T14:45:12Z</time>
      </trkpt>
      <trkpt lat="39.907083" lon="-4.488667">
        <ele>2072.0</ele>
        <time>2013-07-03T14:45:13Z</time>
      </trkpt>
      <trkpt lat="39.907117" lon="-4.488733">
        <ele>2075.0</ele>
        <time>2013-07-03T14:45:14Z</time>
      </trkpt>
      <trkpt lat="39.907167" lon="-4.488783">
        <ele>2077.0</ele>
        <time>2013-07-03T14:45:15Z</time>
      </trkpt>
      <trkpt lat="39.907233" lon="-4.488833">
        <ele>2080.0</ele>
        <time>2013-07-03T14:45:16Z</time>
      </trkpt>
      <trkpt lat="39.907300" lon="-4.488867">
        <ele>2082.0</ele>
        <time>2013-07-03T14:45:17Z</time>
      </trkpt>
      <trkpt lat="39.907367" lon="-4.488900">
        <ele>2085.0</ele>
        <time>2013-07-03T14:45:18Z</time>
      </trkpt>
      <trkpt lat="39.907433" lon="-4.488917">
        <ele>2089.0</ele>
        <time>2013-07-03T14:45:19Z</time>
      </trkpt>
      <trkpt lat="39.907483" lon="-4.488917">
        <ele>2092.0</ele>
        <time>2013-07-03T14:45:20Z</time>
      </trkpt>
      <trkpt lat="39.907550" lon="-4.488917">
        <ele>2095.0</ele>
        <time>2013-07-03T14:45:21Z</time>
      </trkpt>
      <trkpt lat="39.907617" lon="-4.488883">
        <ele>2097.0</ele>
        <time>2013-07-03T14:45:22Z</time>
      </trkpt>
      <trkpt lat="39.907683" lon="-4.488850">
        <ele>2099.0</ele>
        <time>2013-07-03T14:45:23Z</time>
      </trkpt>
      <trkpt lat="39.907750" lon="-4.488783">
        <ele>2101.0</ele>
        <time>2013-07-03T14:45:24Z</time>
      </trkpt>
      <trkpt lat="39.907817" lon="-4.488717">
        <ele>2103.0</ele>
        <time>2013-07-03T14:45:25Z</time>
      </trkpt>
      <trkpt lat="39.907867" lon="-4.488633">
        <ele>2107.0</ele>
        <time>2013-07-03T14:45:26Z</time>
      </trkpt>
      <trkpt lat="39.907900" lon="-4.488550">
        <ele>2111.0</ele>
        <time>2013-07-03T14:45:27Z</time>
      </trkpt>
      <trkpt lat="39.907933" lon="-4.488467">
        <ele>2114.0</ele>
        <time>2013-07-03T14:45:28Z</time>
      </trkpt>
      <trkpt lat="39.907967" lon="-4.488383">
        <ele>2117.0</ele>
        <time>2013-07-03T14:45:29Z</time>
      </trkpt>
      <trkpt lat="39.907983" lon="-4.488300">
        <ele>2120.0</ele>
        <time>2013-07-03T14:45:30Z</time>
      </trkpt>
      <trkpt lat="39.908000" lon="-4.488200">
        <ele>2122.0</ele>
        <time>2013-07-03T14:45:31Z</time>
      </trkpt>
      <trkpt lat="39.908000" lon="-4.488117">
        <ele>2125.0</ele>
        <time>2013-07-03T14:45:32Z</time>
      </trkpt>
      <trkpt lat="39.907983" lon="-4.488033">
        <ele>2125.0</ele>
        <time>2013-07-03T14:45:33Z</time>
      </trkpt>
      <trkpt lat="39.907950" lon="-4.487933">
        <ele>2126.0</ele>
        <time>2013-07-03T14:45:34Z</time>
      </trkpt>
      <trkpt lat="39.907883" lon="-4.487833">
        <ele>2127.0</ele>
        <time>2013-07-03T14:45:35Z</time>
      </trkpt>
      <trkpt lat="39.907817" lon="-4.487767">
        <ele>2129.0</ele>
        <time>2013-07-03T14:45:36Z</time>
      </trkpt>
      <trkpt lat="39.907733" lon="-4.487700">
        <ele>2131.0</ele>
        <time>2013-07-03T14:45:37Z</time>
      </trkpt>
      <trkpt lat="39.907667" lon="-4.487667">
        <ele>2133.0</ele>
        <time>2013-07-03T14:45:38Z</time>
      </trkpt>
      <trkpt lat="39.907567" lon="-4.487650">
        <ele>2134.0</ele>
        <time>2013-07-03T14:45:39Z</time>
      </trkpt>
      <trkpt lat="39.907483" lon="-4.487633">
        <ele>2136.0</ele>
        <time>2013-07-03T14:45:40Z</time>
      </trkpt>
      <trkpt lat="39.907417" lon="-4.487633">
        <ele>2139.0</ele>
        <time>2013-07-03T14:45:41Z</time>
      </trkpt>
      <trkpt lat="39.907333" lon="-4.487650">
        <ele>2141.0</ele>
        <time>2013-07-03T14:45:42Z</time>
      </trkpt>
      <trkpt lat="39.907267" lon="-4.487683">
        <ele>2143.0</ele>
        <time>2013-07-03T14:45:43Z</time>
      </trkpt>
      <trkpt lat="39.907200" lon="-4.487733">
        <ele>2145.0</ele>
        <time>2013-07-03T14:45:44Z</time>
      </trkpt>
      <trkpt lat="39.907150" lon="-4.487800">
        <ele>2147.0</ele>
        <time>2013-07-03T14:45:45Z</time>
      </trkpt>
      <trkpt lat="39.907100" lon="-4.487867">
        <ele>2150.0</ele>
        <time>2013-07-03T14:45:46Z</time>
      </trkpt>
      <trkpt lat="39.907083" lon="-4.487933">
        <ele>2153.0</ele>
        <time>2013-07-03T14:45:47Z</time>
      </trkpt>
      <trkpt lat="39.907067" lon="-4.488000">
        <ele>2156.0</ele>
        <time>2013-07-03T14:45:48Z</time>
      </trkpt>
      <trkpt lat="39.907050" lon="-4.488067">
        <ele>2158.0</ele>
        <time>2013-07-03T14:45:49Z</time>
      </trkpt>
      <trkpt lat="39.907033" lon="-4.488133">
        <ele>2160.0</ele>
        <time>2013-07-03T14:45:50Z</time>
      </trkpt>
      <trkpt lat="39.907033" lon="-4.488217">
        <ele>2162.0</ele>
        <time>2013-07-03T14:45:51Z</time>
      </trkpt>
      <trkpt lat="39.907050" lon="-4.488300">
        <ele>2165.0</ele>
        <time>2013-07-03T14:45:52Z</time>
      </trkpt>
      <trkpt lat="39.907117" lon="-4.488367">
        <ele>2167.0</ele>
        <time>2013-07-03T14:45:53Z</time>
      </trkpt>
      <trkpt lat="39.907200" lon="-4.488367">
        <ele>2169.0</ele>
        <time>2013-07-03T14:45:54Z</time>
      </trkpt>
      <trkpt lat="39.907283" lon="-4.488333">
        <ele>2172.0</ele>
        <time>2013-07-03T14:45:55Z</time>
      </trkpt>
      <trkpt lat="39.907350" lon="-4.488283">
        <ele>2175.0</ele>
        <time>2013-07-03T14:45:56Z</time>
      </trkpt>
      <trkpt lat="39.907417" lon="-4.488217">
        <ele>2178.0</ele>
        <time>2013-07-03T14:45:57Z</time>
      </trkpt>
      <trkpt lat="39.907450" lon="-4.488117">
        <ele>2180.0</ele>
        <time>2013-07-03T14:45:58Z</time>
      </trkpt>
      <trkpt lat="39.907467" lon="-4.488017">
        <ele>2183.0</ele>
        <time>2013-07-03T14:45:59Z</time>
      </trkpt>
      <trkpt lat="39.907483" lon="-4.487917">
        <ele>2186.0</ele>
        <time>2013-07-03T14:46:00Z</time>
      </trkpt>
      <trkpt lat="39.907483" lon="-4.487800">
        <ele>2188.0</ele>
        <time>2013-07-03T14:46:01Z</time>
      </trkpt>
      <trkpt lat="39.907467" lon="-4.487700">
        <ele>2190.0</ele>
        <time>2013-07-03T14:46:02Z</time>
      </trkpt>
      <trkpt lat="39.907433" lon="-4.487600">
        <ele>2191.0</ele>
        <time>2013-07-03T14:46:03Z</time>
      </trkpt>
      <trkpt lat="39.907367" lon="-4.487500">
        <ele>2191.0</ele>
        <time>2013-07-03T14:46:04Z</time>
      </trkpt>
      <trkpt lat="39.907283" lon="-4.487433">
        <ele>2191.0</ele>
        <time>2013-07-03T14:46:05Z</time>
      </trkpt>
      <trkpt lat="39.907200" lon="-4.487383">
        <ele>2193.0</ele>
        <time>2013-07-03T14:46:06Z</time>
      </trkpt>
      <trkpt lat="39.907117" lon="-4.487367">
        <ele>2195.0</ele>
        <time>2013-07-03T14:46:07Z</time>
      </trkpt>
      <trkpt lat="39.907050" lon="-4.487367">
        <ele>2198.0</ele>
        <time>2013-07-03T14:46:08Z</time>
      </trkpt>
      <trkpt lat="39.906983" lon="-4.487367">
        <ele>2200.0</ele>
        <time>2013-07-03T14:46:09Z</time>
      </trkpt>
      <trkpt lat="39.906917" lon="-4.487350">
        <ele>2201.0</ele>
        <time>2013-07-03T14:46:10Z</time>
      </trkpt>
      <trkpt lat="39.906833" lon="-4.487367">
        <ele>2203.0</ele>
        <time>2013-07-03T14:46:11Z</time>
      </trkpt>
      <trkpt lat="39.906767" lon="-4.487400">
        <ele>2205.0</ele>
        <time>2013-07-03T14:46:12Z</time>
      </trkpt>
      <trkpt lat="39.906700" lon="-4.487467">
        <ele>2207.0</ele>
        <time>2013-07-03T14:46:13Z</time>
      </trkpt>
      <trkpt lat="39.906667" lon="-4.487533">
        <ele>2210.0</ele>
        <time>2013-07-03T14:46:14Z</time>
      </trkpt>
      <trkpt lat="39.906633" lon="-4.487600">
        <ele>2212.0</ele>
        <time>2013-07-03T14:46:15Z</time>
      </trkpt>
      <trkpt lat="39.906617" lon="-4.487667">
        <ele>2214.0</ele>
        <time>2013-07-03T14:46:16Z</time>
      </trkpt>
      <trkpt lat="39.906583" lon="-4.487733">
        <ele>2215.0</ele>
        <time>2013-07-03T14:46:17Z</time>
      </trkpt>
      <trkpt lat="39.906567" lon="-4.487817">
        <ele>2216.0</ele>
        <time>2013-07-03T14:46:18Z</time>
      </trkpt>
      <trkpt lat="39.906567" lon="-4.487917">
        <ele>2216.0</ele>
        <time>2013-07-03T14:46:19Z</time>
      </trkpt>
      <trkpt lat="39.906567" lon="-4.488017">
        <ele>2218.0</ele>
        <time>2013-07-03T14:46:20Z</time>
      </trkpt>
      <trkpt lat="39.906600" lon="-4.488100">
        <ele>2220.0</ele>
        <time>2013-07-03T14:46:21Z</time>
      </trkpt>
      <trkpt lat="39.906633" lon="-4.488167">
        <ele>2221.0</ele>
        <time>2013-07-03T14:46:22Z</time>
      </trkpt>
      <trkpt lat="39.906667" lon="-4.488233">
        <ele>2223.0</ele>
        <time>2013-07-03T14:46:23Z</time>
      </trkpt>
      <trkpt lat="39.906700" lon="-4.488283">
        <ele>2225.0</ele>
        <time>2013-07-03T14:46:24Z</time>
      </trkpt>
      <trkpt lat="39.906750" lon="-4.488333">
        <ele>2225.0</ele>
        <time>2013-07-03T14:46:25Z</time>
      </trkpt>
      <trkpt lat="39.906800" lon="-4.488400">
        <ele>2226.0</ele>
        <time>2013-07-03T14:46:26Z</time>
      </trkpt>
      <trkpt lat="39.906867" lon="-4.488467">
        <ele>2228.0</ele>
        <time>2013-07-03T14:46:27Z</time>
      </trkpt>
      <trkpt lat="39.906933" lon="-4.488517">
        <ele>2232.0</ele>
        <time>2013-07-03T14:46:28Z</time>
      </trkpt>
      <trkpt lat="39.906983" lon="-4.488567">
        <ele>2235.0</ele>
        <time>2013-07-03T14:46:29Z</time>
      </trkpt>
      <trkpt lat="39.907050" lon="-4.488633">
        <ele>2238.0</ele>
        <time>2013-07-03T14:46:30Z</time>
      </trkpt>
      <trkpt lat="39.907083" lon="-4.488683">
        <ele>2240.0</ele>
        <time>2013-07-03T14:46:31Z</time>
      </trkpt>
      <trkpt lat="39.907117" lon="-4.488733">
        <ele>2242.0</ele>
        <time>2013-07-03T14:46:32Z</time>
      </trkpt>
      <trkpt lat="39.907167" lon="-4.488800">
        <ele>2242.0</ele>
        <time>2013-07-03T14:46:33Z</time>
      </trkpt>
      <trkpt lat="39.907200" lon="-4.488867">
        <ele>2243.0</ele>
        <time>2013-07-03T14:46:34Z</time>
      </trkpt>
      <trkpt lat="39.907250" lon="-4.488933">
        <ele>2244.0</ele>
        <time>2013-07-03T14:46:35Z</time>
      </trkpt>
      <trkpt lat="39.907317" lon="-4.489000">
        <ele>2245.0</ele>
        <time>2013-07-03T14:46:36Z</time>
      </trkpt>
      <trkpt lat="39.907350" lon="-4.489067">
        <ele>2248.0</ele>
        <time>2013-07-03T14:46:37Z</time>
      </trkpt>
      <trkpt lat="39.907400" lon="-4.489117">
        <ele>2251.0</ele>
        <time>2013-07-03T14:46:38Z</time>
      </trkpt>
      <trkpt lat="39.907433" lon="-4.489150">
        <ele>2252.0</ele>
        <time>2013-07-03T14:46:39Z</time>
      </trkpt>
      <trkpt lat="39.907467" lon="-4.489200">
        <ele>2254.0</ele>
        <time>2013-07-03T14:46:40Z</time>
      </trkpt>
      <trkpt lat="39.907500" lon="-4.489250">
        <ele>2254.0</ele>
        <time>2013-07-03T14:46:41Z</time>
      </trkpt>
      <trkpt lat="39.907533" lon="-4.489333">
        <ele>2254.0</ele>
        <time>2013-07-03T14:46:42Z</time>
      </trkpt>
      <trkpt lat="39.907533" lon="-4.489450">
        <ele>2254.0</ele>
        <time>2013-07-03T14:46:43Z</time>
      </trkpt>
      <trkpt lat="39.907533" lon="-4.489567">
        <ele>2255.0</ele>
        <time>2013-07-03T14:46:44Z</time>
      </trkpt>
      <trkpt lat="39.907517" lon="-4.489683">
        <ele>2256.0</ele>
        <time>2013-07-03T14:46:45Z</time>
      </trkpt>
      <trkpt lat="39.907500" lon="-4.489783">
        <ele>2257.0</ele>
        <time>2013-07-03T14:46:46Z</time>
      </trkpt>
      <trkpt lat="39.907483" lon="-4.489883">
        <ele>2259.0</ele>
        <time>2013-07-03T14:46:47Z</time>
      </trkpt>
      <trkpt lat="39.907450" lon="-4.489967">
        <ele>2261.0</ele>
        <time>2013-07-03T14:46:48Z</time>
      </trkpt>
      <trkpt lat="39.907400" lon="-4.490033">
        <ele>2262.0</ele>
        <time>2013-07-03T14:46:49Z</time>
      </trkpt>
      <trkpt lat="39.907317" lon="-4.490117">
        <ele>2263.0</ele>
        <time>2013-07-03T14:46:50Z</time>
      </trkpt>
      <trkpt lat="39.907217" lon="-4.490200">
        <ele>2265.0</ele>
        <time>2013-07-03T14:46:51Z</time>
      </trkpt>
      <trkpt lat="39.907117" lon="-4.490250">
        <ele>2268.0</ele>
        <time>2013-07-03T14:46:52Z</time>
      </trkpt>
      <trkpt lat="39.907017" lon="-4.490267">
        <ele>2271.0</ele>
        <time>2013-07-03T14:46:53Z</time>
      </trkpt>
      <trkpt lat="39.906917" lon="-4.490283">
        <ele>2274.0</ele>
        <time>2013-07-03T14:46:54Z</time>
      </trkpt>
      <trkpt lat="39.906817" lon="-4.490267">
        <ele>2277.0</ele>
        <time>2013-07-03T14:46:55Z</time>
      </trkpt>
      <trkpt lat="39.906717" lon="-4.490233">
        <ele>2281.0</ele>
        <time>2013-07-03T14:46:56Z</time>
      </trkpt>
      <trkpt lat="39.906617" lon="-4.490200">
        <ele>2285.0</ele>
        <time>2013-07-03T14:46:57Z</time>
      </trkpt>
      <trkpt lat="39.906517" lon="-4.490167">
        <ele>2289.0</ele>
        <time>2013-07-03T14:46:58Z</time>
      </trkpt>
      <trkpt lat="39.906433" lon="-4.490100">
        <ele>2292.0</ele>
        <time>2013-07-03T14:46:59Z</time>
      </trkpt>
      <trkpt lat="39.906367" lon="-4.490033">
        <ele>2295.0</ele>
        <time>2013-07-03T14:47:00Z</time>
      </trkpt>
      <trkpt lat="39.906300" lon="-4.489933">
        <ele>2299.0</ele>
        <time>2013-07-03T14:47:01Z</time>
      </trkpt>
      <trkpt lat="39.906233" lon="-4.489833">
        <ele>2302.0</ele>
        <time>2013-07-03T14:47:02Z</time>
      </trkpt>
      <trkpt lat="39.906183" lon="-4.489733">
        <ele>2306.0</ele>
        <time>2013-07-03T14:47:03Z</time>
      </trkpt>
      <trkpt lat="39.906150" lon="-4.489650">
        <ele>2310.0</ele>
        <time>2013-07-03T14:47:04Z</time>
      </trkpt>
      <trkpt lat="39.906133" lon="-4.489567">
        <ele>2312.0</ele>
        <time>2013-07-03T14:47:05Z</time>
      </trkpt>
      <trkpt lat="39.906117" lon="-4.489467">
        <ele>2314.0</ele>
        <time>2013-07-03T14:47:06Z</time>
      </trkpt>
      <trkpt lat="39.906117" lon="-4.489367">
        <ele>2315.0</ele>
        <time>2013-07-03T14:47:07Z</time>
      </trkpt>
      <trkpt lat="39.906117" lon="-4.489250">
        <ele>2317.0</ele>
        <time>2013-07-03T14:47:08Z</time>
      </trkpt>
      <trkpt lat="39.906133" lon="-4.489167">
        <ele>2318.0</ele>
        <time>2013-07-03T14:47:09Z</time>
      </trkpt>
      <trkpt lat="39.906167" lon="-4.489083">
        <ele>2320.0</ele>
        <time>2013-07-03T14:47:10Z</time>
      </trkpt>
      <trkpt lat="39.906200" lon="-4.489017">
        <ele>2321.0</ele>
        <time>2013-07-03T14:47:11Z</time>
      </trkpt>
      <trkpt lat="39.906267" lon="-4.488950">
        <ele>2322.0</ele>
        <time>2013-07-03T14:47:12Z</time>
      </trkpt>
      <trkpt lat="39.906317" lon="-4.488900">
        <ele>2324.0</ele>
        <time>2013-07-03T14:47:13Z</time>
      </trkpt>
      <trkpt lat="39.906367" lon="-4.488867">
        <ele>2326.0</ele>
        <time>2013-07-03T14:47:14Z</time>
      </trkpt>
      <trkpt lat="39.906417" lon="-4.488850">
        <ele>2327.0</ele>
        <time>2013-07-03T14:47:15Z</time>
      </trkpt>
      <trkpt lat="39.906467" lon="-4.488883">
        <ele>2328.0</ele>
        <time>2013-07-03T14:47:16Z</time>
      </trkpt>
      <trkpt lat="39.906500" lon="-4.488933">
        <ele>2328.0</ele>
        <time>2013-07-03T14:47:17Z</time>
      </trkpt>
      <trkpt lat="39.906533" lon="-4.489017">
        <ele>2329.0</ele>
        <time>2013-07-03T14:47:18Z</time>
      </trkpt>
      <trkpt lat="39.906550" lon="-4.489100">
        <ele>2329.0</ele>
        <time>2013-07-03T14:47:19Z</time>
      </trkpt>
      <trkpt lat="39.906550" lon="-4.489183">
        <ele>2333.0</ele>
        <time>2013-07-03T14:47:20Z</time>
      </trkpt>
      <trkpt lat="39.906533" lon="-4.489267">
        <ele>2337.0</ele>
        <time>2013-07-03T14:47:21Z</time>
      </trkpt>
      <trkpt lat="39.906517" lon="-4.489317">
        <ele>2340.0</ele>
        <time>2013-07-03T14:47:22Z</time>
      </trkpt>
      <trkpt lat="39.906483" lon="-4.489383">
        <ele>2343.0</ele>
        <time>2013-07-03T14:47:23Z</time>
      </trkpt>
      <trkpt lat="39.906433" lon="-4.489433">
        <ele>2345.0</ele>
        <time>2013-07-03T14:47:24Z</time>
      </trkpt>
      <trkpt lat="39.906367" lon="-4.489483">
        <ele>2348.0</ele>
        <time>2013-07-03T14:47:25Z</time>
      </trkpt>
      <trkpt lat="39.906283" lon="-4.489533">
        <ele>2349.0</ele>
        <time>2013-07-03T14:47:26Z</time>
      </trkpt>
      <trkpt lat="39.906200" lon="-4.489550">
        <ele>2351.0</ele>
        <time>2013-07-03T14:47:27Z</time>
      </trkpt>
      <trkpt lat="39.906100" lon="-4.489550">
        <ele>2352.0</ele>
        <time>2013-07-03T14:47:28Z</time>
      </trkpt>
      <trkpt lat="39.906000" lon="-4.489533">
        <ele>2354.0</ele>
        <time>2013-07-03T14:47:29Z</time>
      </trkpt>
      <trkpt lat="39.905917" lon="-4.489533">
        <ele>2356.0</ele>
        <time>2013-07-03T14:47:30Z</time>
      </trkpt>
      <trkpt lat="39.905833" lon="-4.489517">
        <ele>2358.0</ele>
        <time>2013-07-03T14:47:31Z</time>
      </trkpt>
      <trkpt lat="39.905733" lon="-4.489500">
        <ele>2359.0</ele>
        <time>2013-07-03T14:47:32Z</time>
      </trkpt>
      <trkpt lat="39.905650" lon="-4.489450">
        <ele>2361.0</ele>
        <time>2013-07-03T14:47:33Z</time>
      </trkpt>
      <trkpt lat="39.905550" lon="-4.489383">
        <ele>2362.0</ele>
        <time>2013-07-03T14:47:34Z</time>
      </trkpt>
      <trkpt lat="39.905483" lon="-4.489283">
        <ele>2363.0</ele>
        <time>2013-07-03T14:47:35Z</time>
      </trkpt>
      <trkpt lat="39.905433" lon="-4.489200">
        <ele>2365.0</ele>
        <time>2013-07-03T14:47:36Z</time>
      </trkpt>
      <trkpt lat="39.905383" lon="-4.489133">
        <ele>2367.0</ele>
        <time>2013-07-03T14:47:37Z</time>
      </trkpt>
      <trkpt lat="39.905317" lon="-4.489050">
        <ele>2368.0</ele>
        <time>2013-07-03T14:47:38Z</time>
      </trkpt>
      <trkpt lat="39.905267" lon="-4.488983">
        <ele>2368.0</ele>
        <time>2013-07-03T14:47:39Z</time>
      </trkpt>
      <trkpt lat="39.905200" lon="-4.488883">
        <ele>2369.0</ele>
        <time>2013-07-03T14:47:40Z</time>
      </trkpt>
      <trkpt lat="39.905167" lon="-4.488783">
        <ele>2369.0</ele>
        <time>2013-07-03T14:47:41Z</time>
      </trkpt>
      <trkpt lat="39.905167" lon="-4.488667">
        <ele>2370.0</ele>
        <time>2013-07-03T14:47:42Z</time>
      </trkpt>
      <trkpt lat="39.905167" lon="-4.488567">
        <ele>2370.0</ele>
        <time>2013-07-03T14:47:43Z</time>
      </trkpt>
      <trkpt lat="39.905200" lon="-4.488450">
        <ele>2370.0</ele>
        <time>2013-07-03T14:47:44Z</time>
      </trkpt>
      <trkpt lat="39.905233" lon="-4.488350">
        <ele>2370.0</ele>
        <time>2013-07-03T14:47:45Z</time>
      </trkpt>
      <trkpt lat="39.905283" lon="-4.488283">
        <ele>2371.0</ele>
        <time>2013-07-03T14:47:46Z</time>
      </trkpt>
      <trkpt lat="39.905333" lon="-4.488217">
        <ele>2372.0</ele>
        <time>2013-07-03T14:47:47Z</time>
      </trkpt>
      <trkpt lat="39.905400" lon="-4.488183">
        <ele>2373.0</ele>
        <time>2013-07-03T14:47:48Z</time>
      </trkpt>
      <trkpt lat="39.905450" lon="-4.488167">
        <ele>2374.0</ele>
        <time>2013-07-03T14:47:49Z</time>
      </trkpt>
      <trkpt lat="39.905500" lon="-4.488167">
        <ele>2374.0</ele>
        <time>2013-07-03T14:47:50Z</time>
      </trkpt>
      <trkpt lat="39.905533" lon="-4.488183">
        <ele>2374.0</ele>
        <time>2013-07-03T14:47:51Z</time>
      </trkpt>
      <trkpt lat="39.905583" lon="-4.488217">
        <ele>2374.0</ele>
        <time>2013-07-03T14:47:52Z</time>
      </trkpt>
      <trkpt lat="39.905633" lon="-4.488250">
        <ele>2374.0</ele>
        <time>2013-07-03T14:47:53Z</time>
      </trkpt>
      <trkpt lat="39.905667" lon="-4.488283">
        <ele>2372.0</ele>
        <time>2013-07-03T14:47:54Z</time>
      </trkpt>
      <trkpt lat="39.905717" lon="-4.488317">
        <ele>2372.0</ele>
        <time>2013-07-03T14:47:55Z</time>
      </trkpt>
      <trkpt lat="39.905783" lon="-4.488350">
        <ele>2371.0</ele>
        <time>2013-07-03T14:47:56Z</time>
      </trkpt>
      <trkpt lat="39.905833" lon="-4.488383">
        <ele>2370.0</ele>
        <time>2013-07-03T14:47:57Z</time>
      </trkpt>
      <trkpt lat="39.905900" lon="-4.488433">
        <ele>2370.0</ele>
        <time>2013-07-03T14:47:58Z</time>
      </trkpt>
      <trkpt lat="39.905967" lon="-4.488467">
        <ele>2370.0</ele>
        <time>2013-07-03T14:47:59Z</time>
      </trkpt>
      <trkpt lat="39.906033" lon="-4.488500">
        <ele>2370.0</ele>
        <time>2013-07-03T14:48:00Z</time>
      </trkpt>
      <trkpt lat="39.906100" lon="-4.488500">
        <ele>2370.0</ele>
        <time>2013-07-03T14:48:01Z</time>
      </trkpt>
      <trkpt lat="39.906167" lon="-4.488500">
        <ele>2370.0</ele>
        <time>2013-07-03T14:48:02Z</time>
      </trkpt>
      <trkpt lat="39.906217" lon="-4.488500">
        <ele>2371.0</ele>
        <time>2013-07-03T14:48:03Z</time>
      </trkpt>
      <trkpt lat="39.906283" lon="-4.488533">
        <ele>2371.0</ele>
        <time>2013-07-03T14:48:04Z</time>
      </trkpt>
      <trkpt lat="39.906333" lon="-4.488600">
        <ele>2371.0</ele>
        <time>2013-07-03T14:48:05Z</time>
      </trkpt>
      <trkpt lat="39.906383" lon="-4.488667">
        <ele>2373.0</ele>
        <time>2013-07-03T14:48:06Z</time>
      </trkpt>
      <trkpt lat="39.906417" lon="-4.488700">
        <ele>2376.0</ele>
        <time>2013-07-03T14:48:07Z</time>
      </trkpt>
      <trkpt lat="39.906450" lon="-4.488717">
        <ele>2378.0</ele>
        <time>2013-07-03T14:48:08Z</time>
      </trkpt>
      <trkpt lat="39.906483" lon="-4.488750">
        <ele>2381.0</ele>
        <time>2013-07-03T14:48:09Z</time>
      </trkpt>
      <trkpt lat="39.906517" lon="-4.488783">
        <ele>2382.0</ele>
        <time>2013-07-03T14:48:10Z</time>
      </trkpt>
      <trkpt lat="39.906550" lon="-4.488833">
        <ele>2383.0</ele>
        <time>2013-07-03T14:48:11Z</time>
      </trkpt>
      <trkpt lat="39.906567" lon="-4.488900">
        <ele>2385.0</ele>
        <time>2013-07-03T14:48:12Z</time>
      </trkpt>
      <trkpt lat="39.906583" lon="-4.488983">
        <ele>2386.0</ele>
        <time>2013-07-03T14:48:13Z</time>
      </trkpt>
      <trkpt lat="39.906567" lon="-4.489083">
        <ele>2387.0</ele>
        <time>2013-07-03T14:48:14Z</time>
      </trkpt>
      <trkpt lat="39.906517" lon="-4.489200">
        <ele>2388.0</ele>
        <time>2013-07-03T14:48:15Z</time>
      </trkpt>
      <trkpt lat="39.906433" lon="-4.489267">
        <ele>2389.0</ele>
        <time>2013-07-03T14:48:16Z</time>
      </trkpt>
      <trkpt lat="39.906317" lon="-4.489267">
        <ele>2390.0</ele>
        <time>2013-07-03T14:48:17Z</time>
      </trkpt>
      <trkpt lat="39.906233" lon="-4.489233">
        <ele>2391.0</ele>
        <time>2013-07-03T14:48:18Z</time>
      </trkpt>
      <trkpt lat="39.906150" lon="-4.489150">
        <ele>2391.0</ele>
        <time>2013-07-03T14:48:19Z</time>
      </trkpt>
      <trkpt lat="39.906100" lon="-4.489017">
        <ele>2391.0</ele>
        <time>2013-07-03T14:48:20Z</time>
      </trkpt>
      <trkpt lat="39.906083" lon="-4.488900">
        <ele>2393.0</ele>
        <time>2013-07-03T14:48:21Z</time>
      </trkpt>
      <trkpt lat="39.906100" lon="-4.488783">
        <ele>2396.0</ele>
        <time>2013-07-03T14:48:22Z</time>
      </trkpt>
      <trkpt lat="39.906117" lon="-4.488700">
        <ele>2398.0</ele>
        <time>2013-07-03T14:48:23Z</time>
      </trkpt>
      <trkpt lat="39.906133" lon="-4.488633">
        <ele>2400.0</ele>
        <time>2013-07-03T14:48:24Z</time>
      </trkpt>
      <trkpt lat="39.906167" lon="-4.488567">
        <ele>2401.0</ele>
        <time>2013-07-03T14:48:25Z</time>
      </trkpt>
      <trkpt lat="39.906200" lon="-4.488500">
        <ele>2402.0</ele>
        <time>2013-07-03T14:48:26Z</time>
      </trkpt>
      <trkpt lat="39.906250" lon="-4.488433">
        <ele>2402.0</ele>
        <time>2013-07-03T14:48:27Z</time>
      </trkpt>
      <trkpt lat="39.906300" lon="-4.488417">
        <ele>2402.0</ele>
        <time>2013-07-03T14:48:28Z</time>
      </trkpt>
      <trkpt lat="39.906367" lon="-4.488417">
        <ele>2402.0</ele>
        <time>2013-07-03T14:48:29Z</time>
      </trkpt>
      <trkpt lat="39.906433" lon="-4.488450">
        <ele>2402.0</ele>
        <time>2013-07-03T14:48:30Z</time>
      </trkpt>
      <trkpt lat="39.906500" lon="-4.488500">
        <ele>2404.0</ele>
        <time>2013-07-03T14:48:31Z</time>
      </trkpt>
      <trkpt lat="39.906567" lon="-4.488533">
        <ele>2406.0</ele>
        <time>2013-07-03T14:48:32Z</time>
      </trkpt>
      <trkpt lat="39.906617" lon="-4.488583">
        <ele>2408.0</ele>
        <time>2013-07-03T14:48:33Z</time>
      </trkpt>
      <trkpt lat="39.906667" lon="-4.488617">
        <ele>2410.0</ele>
        <time>2013-07-03T14:48:34Z</time>
      </trkpt>
      <trkpt lat="39.906717" lon="-4.488667">
        <ele>2411.0</ele>
        <time>2013-07-03T14:48:35Z</time>
      </trkpt>
      <trkpt lat="39.906767" lon="-4.488733">
        <ele>2413.0</ele>
        <time>2013-07-03T14:48:36Z</time>
      </trkpt>
      <trkpt lat="39.906833" lon="-4.488767">
        <ele>2415.0</ele>
        <time>2013-07-03T14:48:37Z</time>
      </trkpt>
      <trkpt lat="39.906900" lon="-4.488817">
        <ele>2418.0</ele>
        <time>2013-07-03T14:48:38Z</time>
      </trkpt>
      <trkpt lat="39.906950" lon="-4.488867">
        <ele>2421.0</ele>
        <time>2013-07-03T14:48:39Z</time>
      </trkpt>
      <trkpt lat="39.907000" lon="-4.488900">
        <ele>2424.0</ele>
        <time>2013-07-03T14:48:40Z</time>
      </trkpt>
      <trkpt lat="39.907033" lon="-4.488933">
        <ele>2426.0</ele>
        <time>2013-07-03T14:48:41Z</time>
      </trkpt>
      <trkpt lat="39.907083" lon="-4.488983">
        <ele>2428.0</ele>
        <time>2013-07-03T14:48:42Z</time>
      </trkpt>
      <trkpt lat="39.907133" lon="-4.489050">
        <ele>2430.0</ele>
        <time>2013-07-03T14:48:43Z</time>
      </trkpt>
      <trkpt lat="39.907183" lon="-4.489117">
        <ele>2433.0</ele>
        <time>2013-07-03T14:48:44Z</time>
      </trkpt>
      <trkpt lat="39.907233" lon="-4.489200">
        <ele>2437.0</ele>
        <time>2013-07-03T14:48:45Z</time>
      </trkpt>
      <trkpt lat="39.907267" lon="-4.489267">
        <ele>2440.0</ele>
        <time>2013-07-03T14:48:46Z</time>
      </trkpt>
      <trkpt lat="39.907300" lon="-4.489350">
        <ele>2444.0</ele>
        <time>2013-07-03T14:48:47Z</time>
      </trkpt>
      <trkpt lat="39.907317" lon="-4.489417">
        <ele>2448.0</ele>
        <time>2013-07-03T14:48:48Z</time>
      </trkpt>
      <trkpt lat="39.907317" lon="-4.489483">
        <ele>2451.0</ele>
        <time>2013-07-03T14:48:49Z</time>
      </trkpt>
      <trkpt lat="39.907317" lon="-4.489567">
        <ele>2455.0</ele>
        <time>2013-07-03T14:48:50Z</time>
      </trkpt>
      <trkpt lat="39.907317" lon="-4.489667">
        <ele>2458.0</ele>
        <time>2013-07-03T14:48:51Z</time>
      </trkpt>
      <trkpt lat="39.907317" lon="-4.489767">
        <ele>2463.0</ele>
        <time>2013-07-03T14:48:52Z</time>
      </trkpt>
      <trkpt lat="39.907300" lon="-4.489867">
        <ele>2472.0</ele>
        <time>2013-07-03T14:48:53Z</time>
      </trkpt>
      <trkpt lat="39.907300" lon="-4.489917">
        <ele>2478.0</ele>
        <time>2013-07-03T14:48:54Z</time>
      </trkpt>
      <trkpt lat="39.907283" lon="-4.489967">
        <ele>2483.0</ele>
        <time>2013-07-03T14:48:55Z</time>
      </trkpt>
      <trkpt lat="39.907267" lon="-4.490033">
        <ele>2488.0</ele>
        <time>2013-07-03T14:48:56Z</time>
      </trkpt>
      <trkpt lat="39.907267" lon="-4.490100">
        <ele>2491.0</ele>
        <time>2013-07-03T14:48:57Z</time>
      </trkpt>
      <trkpt lat="39.907267" lon="-4.490167">
        <ele>2493.0</ele>
        <time>2013-07-03T14:48:58Z</time>
      </trkpt>
      <trkpt lat="39.907300" lon="-4.490217">
        <ele>2495.0</ele>
        <time>2013-07-03T14:48:59Z</time>
      </trkpt>
      <trkpt lat="39.907350" lon="-4.490250">
        <ele>2497.0</ele>
        <time>2013-07-03T14:49:00Z</time>
      </trkpt>
      <trkpt lat="39.907400" lon="-4.490267">
        <ele>2499.0</ele>
        <time>2013-07-03T14:49:01Z</time>
      </trkpt>
      <trkpt lat="39.907483" lon="-4.490250">
        <ele>2501.0</ele>
        <time>2013-07-03T14:49:02Z</time>
      </trkpt>
      <trkpt lat="39.907550" lon="-4.490200">
        <ele>2505.0</ele>
        <time>2013-07-03T14:49:03Z</time>
      </trkpt>
      <trkpt lat="39.907600" lon="-4.490100">
        <ele>2508.0</ele>
        <time>2013-07-03T14:49:04Z</time>
      </trkpt>
      <trkpt lat="39.907600" lon="-4.490000">
        <ele>2513.0</ele>
        <time>2013-07-03T14:49:05Z</time>
      </trkpt>
      <trkpt lat="39.907583" lon="-4.489900">
        <ele>2517.0</ele>
        <time>2013-07-03T14:49:06Z</time>
      </trkpt>
      <trkpt lat="39.907550" lon="-4.489833">
        <ele>2522.0</ele>
        <time>2013-07-03T14:49:07Z</time>
      </trkpt>
      <trkpt lat="39.907500" lon="-4.489767">
        <ele>2526.0</ele>
        <time>2013-07-03T14:49:08Z</time>
      </trkpt>
      <trkpt lat="39.907450" lon="-4.489717">
        <ele>2530.0</ele>
        <time>2013-07-03T14:49:09Z</time>
      </trkpt>
      <trkpt lat="39.907367" lon="-4.489667">
        <ele>2533.0</ele>
        <time>2013-07-03T14:49:10Z</time>
      </trkpt>
      <trkpt lat="39.907283" lon="-4.489650">
        <ele>2536.0</ele>
        <time>2013-07-03T14:49:11Z</time>
      </trkpt>
      <trkpt lat="39.907200" lon="-4.489667">
        <ele>2539.0</ele>
        <time>2013-07-03T14:49:12Z</time>
      </trkpt>
      <trkpt lat="39.907133" lon="-4.489700">
        <ele>2543.0</ele>
        <time>2013-07-03T14:49:13Z</time>
      </trkpt>
      <trkpt lat="39.907067" lon="-4.489783">
        <ele>2546.0</ele>
        <time>2013-07-03T14:49:14Z</time>
      </trkpt>
      <trkpt lat="39.907033" lon="-4.489867">
        <ele>2550.0</ele>
        <time>2013-07-03T14:49:15Z</time>
      </trkpt>
      <trkpt lat="39.907050" lon="-4.489950">
        <ele>2554.0</ele>
        <time>2013-07-03T14:49:16Z</time>
      </trkpt>
      <trkpt lat="39.907100" lon="-4.489983">
        <ele>2557.0</ele>
        <time>2013-07-03T14:49:17Z</time>
      </trkpt>
      <trkpt lat="39.907167" lon="-4.489983">
        <ele>2560.0</ele>
        <time>2013-07-03T14:49:18Z</time>
      </trkpt>
      <trkpt lat="39.907250" lon="-4.489983">
        <ele>2565.0</ele>
        <time>2013-07-03T14:49:19Z</time>
      </trkpt>
      <trkpt lat="39.907317" lon="-4.490000">
        <ele>2570.0</ele>
        <time>2013-07-03T14:49:20Z</time>
      </trkpt>
      <trkpt lat="39.907383" lon="-4.490017">
        <ele>2574.0</ele>
        <time>2013-07-03T14:49:21Z</time>
      </trkpt>
      <trkpt lat="39.907450" lon="-4.490000">
        <ele>2578.0</ele>
        <time>2013-07-03T14:49:22Z</time>
      </trkpt>
      <trkpt lat="39.907500" lon="-4.489950">
        <ele>2581.0</ele>
        <time>2013-07-03T14:49:23Z</time>
      </trkpt>
      <trkpt lat="39.907567" lon="-4.489867">
        <ele>2585.0</ele>
        <time>2013-07-03T14:49:24Z</time>
      </trkpt>
      <trkpt lat="39.907617" lon="-4.489783">
        <ele>2588.0</ele>
        <time>2013-07-03T14:49:25Z</time>
      </trkpt>
      <trkpt lat="39.907650" lon="-4.489667">
        <ele>2593.0</ele>
        <time>2013-07-03T14:49:26Z</time>
      </trkpt>
      <trkpt lat="39.907633" lon="-4.489583">
        <ele>2597.0</ele>
        <time>2013-07-03T14:49:27Z</time>
      </trkpt>
      <trkpt lat="39.907583" lon="-4.489500">
        <ele>2600.0</ele>
        <time>2013-07-03T14:49:28Z</time>
      </trkpt>
      <trkpt lat="39.907533" lon="-4.489433">
        <ele>2604.0</ele>
        <time>2013-07-03T14:49:29Z</time>
      </trkpt>
      <trkpt lat="39.907467" lon="-4.489400">
        <ele>2607.0</ele>
        <time>2013-07-03T14:49:30Z</time>
      </trkpt>
      <trkpt lat="39.907400" lon="-4.489367">
        <ele>2611.0</ele>
        <time>2013-07-03T14:49:31Z</time>
      </trkpt>
      <trkpt lat="39.907317" lon="-4.489367">
        <ele>2614.0</ele>
        <time>2013-07-03T14:49:32Z</time>
      </trkpt>
      <trkpt lat="39.907250" lon="-4.489400">
        <ele>2618.0</ele>
        <time>2013-07-03T14:49:33Z</time>
      </trkpt>
      <trkpt lat="39.907183" lon="-4.489467">
        <ele>2621.0</ele>
        <time>2013-07-03T14:49:34Z</time>
      </trkpt>
      <trkpt lat="39.907133" lon="-4.489533">
        <ele>2626.0</ele>
        <time>2013-07-03T14:49:35Z</time>
      </trkpt>
      <trkpt lat="39.907100" lon="-4.489617">
        <ele>2630.0</ele>
        <time>2013-07-03T14:49:36Z</time>
      </trkpt>
      <trkpt lat="39.907067" lon="-4.489717">
        <ele>2634.0</ele>
        <time>2013-07-03T14:49:37Z</time>
      </trkpt>
      <trkpt lat="39.907050" lon="-4.489817">
        <ele>2638.0</ele>
        <time>2013-07-03T14:49:38Z</time>
      </trkpt>
      <trkpt lat="39.907050" lon="-4.489900">
        <ele>2642.0</ele>
        <time>2013-07-03T14:49:39Z</time>
      </trkpt>
      <trkpt lat="39.907067" lon="-4.490000">
        <ele>2647.0</ele>
        <time>2013-07-03T14:49:40Z</time>
      </trkpt>
      <trkpt lat="39.907083" lon="-4.490100">
        <ele>2652.0</ele>
        <time>2013-07-03T14:49:41Z</time>
      </trkpt>
      <trkpt lat="39.907100" lon="-4.490200">
        <ele>2657.0</ele>
        <time>2013-07-03T14:49:42Z</time>
      </trkpt>
      <trkpt lat="39.907133" lon="-4.490267">
        <ele>2662.0</ele>
        <time>2013-07-03T14:49:43Z</time>
      </trkpt>
      <trkpt lat="39.907167" lon="-4.490300">
        <ele>2665.0</ele>
        <time>2013-07-03T14:49:44Z</time>
      </trkpt>
      <trkpt lat="39.907217" lon="-4.490317">
        <ele>2667.0</ele>
        <time>2013-07-03T14:49:45Z</time>
      </trkpt>
      <trkpt lat="39.907283" lon="-4.490350">
        <ele>2669.0</ele>
        <time>2013-07-03T14:49:46Z</time>
      </trkpt>
      <trkpt lat="39.907367" lon="-4.490367">
        <ele>2671.0</ele>
        <time>2013-07-03T14:49:47Z</time>
      </trkpt>
      <trkpt lat="39.907450" lon="-4.490333">
        <ele>2673.0</ele>
        <time>2013-07-03T14:49:48Z</time>
      </trkpt>
      <trkpt lat="39.907533" lon="-4.490233">
        <ele>2676.0</ele>
        <time>2013-07-03T14:49:49Z</time>
      </trkpt>
      <trkpt lat="39.907567" lon="-4.490100">
        <ele>2679.0</ele>
        <time>2013-07-03T14:49:50Z</time>
      </trkpt>
      <trkpt lat="39.907567" lon="-4.489967">
        <ele>2682.0</ele>
        <time>2013-07-03T14:49:51Z</time>
      </trkpt>
      <trkpt lat="39.907550" lon="-4.489850">
        <ele>2685.0</ele>
        <time>2013-07-03T14:49:52Z</time>
      </trkpt>
      <trkpt lat="39.907500" lon="-4.489750">
        <ele>2690.0</ele>
        <time>2013-07-03T14:49:53Z</time>
      </trkpt>
      <trkpt lat="39.907467" lon="-4.489667">
        <ele>2694.0</ele>
        <time>2013-07-03T14:49:54Z</time>
      </trkpt>
      <trkpt lat="39.907417" lon="-4.489617">
        <ele>2698.0</ele>
        <time>2013-07-03T14:49:55Z</time>
      </trkpt>
      <trkpt lat="39.907350" lon="-4.489567">
        <ele>2700.0</ele>
        <time>2013-07-03T14:49:56Z</time>
      </trkpt>
      <trkpt lat="39.907267" lon="-4.489533">
        <ele>2703.0</ele>
        <time>2013-07-03T14:49:57Z</time>
      </trkpt>
      <trkpt lat="39.907167" lon="-4.489550">
        <ele>2706.0</ele>
        <time>2013-07-03T14:49:58Z</time>
      </trkpt>
      <trkpt lat="39.907100" lon="-4.489617">
        <ele>2711.0</ele>
        <time>2013-07-03T14:49:59Z</time>
      </trkpt>
      <trkpt lat="39.907050" lon="-4.489700">
        <ele>2715.0</ele>
        <time>2013-07-03T14:50:00Z</time>
      </trkpt>
      <trkpt lat="39.907050" lon="-4.489783">
        <ele>2720.0</ele>
        <time>2013-07-03T14:50:01Z</time>
      </trkpt>
      <trkpt lat="39.907083" lon="-4.489867">
        <ele>2724.0</ele>
        <time>2013-07-03T14:50:02Z</time>
      </trkpt>
      <trkpt lat="39.907150" lon="-4.489917">
        <ele>2727.0</ele>
        <time>2013-07-03T14:50:03Z</time>
      </trkpt>
      <trkpt lat="39.907250" lon="-4.489933">
        <ele>2729.0</ele>
        <time>2013-07-03T14:50:04Z</time>
      </trkpt>
      <trkpt lat="39.907333" lon="-4.489900">
        <ele>2732.0</ele>
        <time>2013-07-03T14:50:05Z</time>
      </trkpt>
      <trkpt lat="39.907400" lon="-4.489800">
        <ele>2735.0</ele>
        <time>2013-07-03T14:50:06Z</time>
      </trkpt>
      <trkpt lat="39.907450" lon="-4.489650">
        <ele>2737.0</ele>
        <time>2013-07-03T14:50:07Z</time>
      </trkpt>
      <trkpt lat="39.907467" lon="-4.489517">
        <ele>2742.0</ele>
        <time>2013-07-03T14:50:08Z</time>
      </trkpt>
      <trkpt lat="39.907450" lon="-4.489383">
        <ele>2746.0</ele>
        <time>2013-07-03T14:50:09Z</time>
      </trkpt>
      <trkpt lat="39.907417" lon="-4.489283">
        <ele>2751.0</ele>
        <time>2013-07-03T14:50:10Z</time>
      </trkpt>
      <trkpt lat="39.907350" lon="-4.489217">
        <ele>2754.0</ele>
        <time>2013-07-03T14:50:11Z</time>
      </trkpt>
      <trkpt lat="39.907267" lon="-4.489150">
        <ele>2758.0</ele>
        <time>2013-07-03T14:50:12Z</time>
      </trkpt>
      <trkpt lat="39.907200" lon="-4.489117">
        <ele>2762.0</ele>
        <time>2013-07-03T14:50:13Z</time>
      </trkpt>
      <trkpt lat="39.907117" lon="-4.489083">
        <ele>2768.0</ele>
        <time>2013-07-03T14:50:14Z</time>
      </trkpt>
      <trkpt lat="39.907067" lon="-4.489083">
        <ele>2773.0</ele>
        <time>2013-07-03T14:50:15Z</time>
      </trkpt>
      <trkpt lat="39.907000" lon="-4.489067">
        <ele>2777.0</ele>
        <time>2013-07-03T14:50:16Z</time>
      </trkpt>
      <trkpt lat="39.906933" lon="-4.489067">
        <ele>2780.0</ele>
        <time>2013-07-03T14:50:17Z</time>
      </trkpt>
      <trkpt lat="39.906850" lon="-4.489083">
        <ele>2784.0</ele>
        <time>2013-07-03T14:50:18Z</time>
      </trkpt>
      <trkpt lat="39.906767" lon="-4.489100">
        <ele>2787.0</ele>
        <time>2013-07-03T14:50:19Z</time>
      </trkpt>
      <trkpt lat="39.906700" lon="-4.489150">
        <ele>2791.0</ele>
        <time>2013-07-03T14:50:20Z</time>
      </trkpt>
      <trkpt lat="39.906650" lon="-4.489217">
        <ele>2794.0</ele>
        <time>2013-07-03T14:50:21Z</time>
      </trkpt>
      <trkpt lat="39.906600" lon="-4.489300">
        <ele>2797.0</ele>
        <time>2013-07-03T14:50:22Z</time>
      </trkpt>
      <trkpt lat="39.906550" lon="-4.489400">
        <ele>2801.0</ele>
        <time>2013-07-03T14:50:23Z</time>
      </trkpt>
      <trkpt lat="39.906517" lon="-4.489500">
        <ele>2805.0</ele>
        <time>2013-07-03T14:50:24Z</time>
      </trkpt>
      <trkpt lat="39.906483" lon="-4.489600">
        <ele>2811.0</ele>
        <time>2013-07-03T14:50:25Z</time>
      </trkpt>
      <trkpt lat="39.906483" lon="-4.489683">
        <ele>2817.0</ele>
        <time>2013-07-03T14:50:26Z</time>
      </trkpt>
      <trkpt lat="39.906500" lon="-4.489750">
        <ele>2822.0</ele>
        <time>2013-07-03T14:50:27Z</time>
      </trkpt>
      <trkpt lat="39.906517" lon="-4.489833">
        <ele>2826.0</ele>
        <time>2013-07-03T14:50:28Z</time>
      </trkpt>
      <trkpt lat="39.906500" lon="-4.489917">
        <ele>2827.0</ele>
        <time>2013-07-03T14:50:29Z</time>
      </trkpt>
      <trkpt lat="39.906517" lon="-4.490017">
        <ele>2827.0</ele>
        <time>2013-07-03T14:50:30Z</time>
      </trkpt>
      <trkpt lat="39.906550" lon="-4.490100">
        <ele>2827.0</ele>
        <time>2013-07-03T14:50:31Z</time>
      </trkpt>
      <trkpt lat="39.906633" lon="-4.490133">
        <ele>2827.0</ele>
        <time>2013-07-03T14:50:32Z</time>
      </trkpt>
      <trkpt lat="39.906733" lon="-4.490117">
        <ele>2826.0</ele>
        <time>2013-07-03T14:50:33Z</time>
      </trkpt>
      <trkpt lat="39.906817" lon="-4.490067">
        <ele>2828.0</ele>
        <time>2013-07-03T14:50:34Z</time>
      </trkpt>
      <trkpt lat="39.906867" lon="-4.489967">
        <ele>2830.0</ele>
        <time>2013-07-03T14:50:35Z</time>
      </trkpt>
      <trkpt lat="39.906900" lon="-4.489867">
        <ele>2832.0</ele>
        <time>2013-07-03T14:50:36Z</time>
      </trkpt>
      <trkpt lat="39.906900" lon="-4.489750">
        <ele>2833.0</ele>
        <time>2013-07-03T14:50:37Z</time>
      </trkpt>
      <trkpt lat="39.906883" lon="-4.489633">
        <ele>2834.0</ele>
        <time>2013-07-03T14:50:38Z</time>
      </trkpt>
      <trkpt lat="39.906867" lon="-4.489483">
        <ele>2837.0</ele>
        <time>2013-07-03T14:50:39Z</time>
      </trkpt>
      <trkpt lat="39.906850" lon="-4.489367">
        <ele>2841.0</ele>
        <time>2013-07-03T14:50:40Z</time>
      </trkpt>
      <trkpt lat="39.906800" lon="-4.489267">
        <ele>2846.0</ele>
        <time>2013-07-03T14:50:41Z</time>
      </trkpt>
      <trkpt lat="39.906767" lon="-4.489200">
        <ele>2851.0</ele>
        <time>2013-07-03T14:50:42Z</time>
      </trkpt>
      <trkpt lat="39.906717" lon="-4.489133">
        <ele>2854.0</ele>
        <time>2013-07-03T14:50:43Z</time>
      </trkpt>
      <trkpt lat="39.906683" lon="-4.489067">
        <ele>2856.0</ele>
        <time>2013-07-03T14:50:44Z</time>
      </trkpt>
      <trkpt lat="39.906633" lon="-4.488967">
        <ele>2858.0</ele>
        <time>2013-07-03T14:50:45Z</time>
      </trkpt>
      <trkpt lat="39.906583" lon="-4.488867">
        <ele>2861.0</ele>
        <time>2013-07-03T14:50:46Z</time>
      </trkpt>
      <trkpt lat="39.906517" lon="-4.488783">
        <ele>2863.0</ele>
        <time>2013-07-03T14:50:47Z</time>
      </trkpt>
      <trkpt lat="39.906450" lon="-4.488717">
        <ele>2865.0</ele>
        <time>2013-07-03T14:50:48Z</time>
      </trkpt>
      <trkpt lat="39.906367" lon="-4.488683">
        <ele>2867.0</ele>
        <time>2013-07-03T14:50:49Z</time>
      </trkpt>
      <trkpt lat="39.906300" lon="-4.488667">
        <ele>2868.0</ele>
        <time>2013-07-03T14:50:50Z</time>
      </trkpt>
      <trkpt lat="39.906233" lon="-4.488650">
        <ele>2869.0</ele>
        <time>2013-07-03T14:50:51Z</time>
      </trkpt>
      <trkpt lat="39.906167" lon="-4.488667">
        <ele>2870.0</ele>
        <time>2013-07-03T14:50:52Z</time>
      </trkpt>
      <trkpt lat="39.906100" lon="-4.488717">
        <ele>2871.0</ele>
        <time>2013-07-03T14:50:53Z</time>
      </trkpt>
      <trkpt lat="39.906050" lon="-4.488783">
        <ele>2871.0</ele>
        <time>2013-07-03T14:50:54Z</time>
      </trkpt>
      <trkpt lat="39.906017" lon="-4.488883">
        <ele>2871.0</ele>
        <time>2013-07-03T14:50:55Z</time>
      </trkpt>
      <trkpt lat="39.905967" lon="-4.488967">
        <ele>2872.0</ele>
        <time>2013-07-03T14:50:56Z</time>
      </trkpt>
      <trkpt lat="39.905917" lon="-4.489083">
        <ele>2872.0</ele>
        <time>2013-07-03T14:50:57Z</time>
      </trkpt>
      <trkpt lat="39.905867" lon="-4.489183">
        <ele>2874.0</ele>
        <time>2013-07-03T14:50:58Z</time>
      </trkpt>
      <trkpt lat="39.905833" lon="-4.489283">
        <ele>2877.0</ele>
        <time>2013-07-03T14:50:59Z</time>
      </trkpt>
      <trkpt lat="39.905817" lon="-4.489367">
        <ele>2879.0</ele>
        <time>2013-07-03T14:51:00Z</time>
      </trkpt>
      <trkpt lat="39.905800" lon="-4.489450">
        <ele>2881.0</ele>
        <time>2013-07-03T14:51:01Z</time>
      </trkpt>
      <trkpt lat="39.905800" lon="-4.489533">
        <ele>2883.0</ele>
        <time>2013-07-03T14:51:02Z</time>
      </trkpt>
      <trkpt lat="39.905783" lon="-4.489633">
        <ele>2885.0</ele>
        <time>2013-07-03T14:51:03Z</time>
      </trkpt>
      <trkpt lat="39.905783" lon="-4.489750">
        <ele>2887.0</ele>
        <time>2013-07-03T14:51:04Z</time>
      </trkpt>
      <trkpt lat="39.905800" lon="-4.489850">
        <ele>2891.0</ele>
        <time>2013-07-03T14:51:05Z</time>
      </trkpt>
      <trkpt lat="39.905850" lon="-4.489933">
        <ele>2894.0</ele>
        <time>2013-07-03T14:51:06Z</time>
      </trkpt>
      <trkpt lat="39.905933" lon="-4.489967">
        <ele>2895.0</ele>
        <time>2013-07-03T14:51:07Z</time>
      </trkpt>
      <trkpt lat="39.906017" lon="-4.489967">
        <ele>2895.0</ele>
        <time>2013-07-03T14:51:08Z</time>
      </trkpt>
      <trkpt lat="39.906083" lon="-4.489950">
        <ele>2896.0</ele>
        <time>2013-07-03T14:51:09Z</time>
      </trkpt>
      <trkpt lat="39.906150" lon="-4.489933">
        <ele>2896.0</ele>
        <time>2013-07-03T14:51:10Z</time>
      </trkpt>
      <trkpt lat="39.906217" lon="-4.489900">
        <ele>2896.0</ele>
        <time>2013-07-03T14:51:11Z</time>
      </trkpt>
      <trkpt lat="39.906267" lon="-4.489867">
        <ele>2897.0</ele>
        <time>2013-07-03T14:51:12Z</time>
      </trkpt>
      <trkpt lat="39.906333" lon="-4.489817">
        <ele>2898.0</ele>
        <time>2013-07-03T14:51:13Z</time>
      </trkpt>
      <trkpt lat="39.906400" lon="-4.489767">
        <ele>2900.0</ele>
        <time>2013-07-03T14:51:14Z</time>
      </trkpt>
      <trkpt lat="39.906450" lon="-4.489700">
        <ele>2902.0</ele>
        <time>2013-07-03T14:51:15Z</time>
      </trkpt>
      <trkpt lat="39.906500" lon="-4.489633">
        <ele>2905.0</ele>
        <time>2013-07-03T14:51:16Z</time>
      </trkpt>
      <trkpt lat="39.906550" lon="-4.489567">
        <ele>2908.0</ele>
        <time>2013-07-03T14:51:17Z</time>
      </trkpt>
      <trkpt lat="39.906600" lon="-4.489500">
        <ele>2910.0</ele>
        <time>2013-07-03T14:51:18Z</time>
      </trkpt>
      <trkpt lat="39.906650" lon="-4.489450">
        <ele>2911.0</ele>
        <time>2013-07-03T14:51:19Z</time>
      </trkpt>
      <trkpt lat="39.906700" lon="-4.489400">
        <ele>2911.0</ele>
        <time>2013-07-03T14:51:20Z</time>
      </trkpt>
      <trkpt lat="39.906767" lon="-4.489383">
        <ele>2912.0</ele>
        <time>2013-07-03T14:51:21Z</time>
      </trkpt>
      <trkpt lat="39.906817" lon="-4.489400">
        <ele>2912.0</ele>
        <time>2013-07-03T14:51:22Z</time>
      </trkpt>
      <trkpt lat="39.906867" lon="-4.489450">
        <ele>2912.0</ele>
        <time>2013-07-03T14:51:23Z</time>
      </trkpt>
      <trkpt lat="39.906867" lon="-4.489533">
        <ele>2912.0</ele>
        <time>2013-07-03T14:51:24Z</time>
      </trkpt>
      <trkpt lat="39.906883" lon="-4.489633">
        <ele>2913.0</ele>
        <time>2013-07-03T14:51:25Z</time>
      </trkpt>
      <trkpt lat="39.906867" lon="-4.489733">
        <ele>2914.0</ele>
        <time>2013-07-03T14:51:26Z</time>
      </trkpt>
      <trkpt lat="39.906833" lon="-4.489800">
        <ele>2915.0</ele>
        <time>2013-07-03T14:51:27Z</time>
      </trkpt>
      <trkpt lat="39.906783" lon="-4.489867">
        <ele>2917.0</ele>
        <time>2013-07-03T14:51:28Z</time>
      </trkpt>
      <trkpt lat="39.906717" lon="-4.489917">
        <ele>2919.0</ele>
        <time>2013-07-03T14:51:29Z</time>
      </trkpt>
      <trkpt lat="39.906650" lon="-4.489950">
        <ele>2921.0</ele>
        <time>2013-07-03T14:51:30Z</time>
      </trkpt>
      <trkpt lat="39.906583" lon="-4.489967">
        <ele>2922.0</ele>
        <time>2013-07-03T14:51:31Z</time>
      </trkpt>
      <trkpt lat="39.906500" lon="-4.489967">
        <ele>2923.0</ele>
        <time>2013-07-03T14:51:32Z</time>
      </trkpt>
      <trkpt lat="39.906417" lon="-4.489950">
        <ele>2924.0</ele>
        <time>2013-07-03T14:51:33Z</time>
      </trkpt>
      <trkpt lat="39.906317" lon="-4.489917">
        <ele>2925.0</ele>
        <time>2013-07-03T14:51:34Z</time>
      </trkpt>
      <trkpt lat="39.906233" lon="-4.489867">
        <ele>2927.0</ele>
        <time>2013-07-03T14:51:35Z</time>
      </trkpt>
      <trkpt lat="39.906150" lon="-4.489800">
        <ele>2929.0</ele>
        <time>2013-07-03T14:51:36Z</time>
      </trkpt>
      <trkpt lat="39.906100" lon="-4.489733">
        <ele>2930.0</ele>
        <time>2013-07-03T14:51:37Z</time>
      </trkpt>
      <trkpt lat="39.906050" lon="-4.489633">
        <ele>2931.0</ele>
        <time>2013-07-03T14:51:38Z</time>
      </trkpt>
      <trkpt lat="39.906017" lon="-4.489550">
        <ele>2931.0</ele>
        <time>2013-07-03T14:51:39Z</time>
      </trkpt>
      <trkpt lat="39.905967" lon="-4.489433">
        <ele>2932.0</ele>
        <time>2013-07-03T14:51:40Z</time>
      </trkpt>
      <trkpt lat="39.905933" lon="-4.489333">
        <ele>2933.0</ele>
        <time>2013-07-03T14:51:41Z</time>
      </trkpt>
      <trkpt lat="39.905917" lon="-4.489217">
        <ele>2934.0</ele>
        <time>2013-07-03T14:51:42Z</time>
      </trkpt>
      <trkpt lat="39.905933" lon="-4.489100">
        <ele>2935.0</ele>
        <time>2013-07-03T14:51:43Z</time>
      </trkpt>
      <trkpt lat="39.905983" lon="-4.489000">
        <ele>2936.0</ele>
        <time>2013-07-03T14:51:44Z</time>
      </trkpt>
      <trkpt lat="39.906017" lon="-4.488917">
        <ele>2939.0</ele>
        <time>2013-07-03T14:51:45Z</time>
      </trkpt>
      <trkpt lat="39.906050" lon="-4.488833">
        <ele>2942.0</ele>
        <time>2013-07-03T14:51:46Z</time>
      </trkpt>
      <trkpt lat="39.906100" lon="-4.488783">
        <ele>2944.0</ele>
        <time>2013-07-03T14:51:47Z</time>
      </trkpt>
      <trkpt lat="39.906150" lon="-4.488733">
        <ele>2945.0</ele>
        <time>2013-07-03T14:51:48Z</time>
      </trkpt>
      <trkpt lat="39.906233" lon="-4.488700">
        <ele>2945.0</ele>
        <time>2013-07-03T14:51:49Z</time>
      </trkpt>
      <trkpt lat="39.906317" lon="-4.488650">
        <ele>2945.0</ele>
        <time>2013-07-03T14:51:50Z</time>
      </trkpt>
      <trkpt lat="39.906383" lon="-4.488633">
        <ele>2947.0</ele>
        <time>2013-07-03T14:51:51Z</time>
      </trkpt>
      <trkpt lat="39.906450" lon="-4.488617">
        <ele>2948.0</ele>
        <time>2013-07-03T14:51:52Z</time>
      </trkpt>
      <trkpt lat="39.906500" lon="-4.488633">
        <ele>2949.0</ele>
        <time>2013-07-03T14:51:53Z</time>
      </trkpt>
      <trkpt lat="39.906533" lon="-4.488683">
        <ele>2949.0</ele>
        <time>2013-07-03T14:51:54Z</time>
      </trkpt>
      <trkpt lat="39.906567" lon="-4.488783">
        <ele>2947.0</ele>
        <time>2013-07-03T14:51:55Z</time>
      </trkpt>
      <trkpt lat="39.906567" lon="-4.488883">
        <ele>2947.0</ele>
        <time>2013-07-03T14:51:56Z</time>
      </trkpt>
      <trkpt lat="39.906550" lon="-4.488983">
        <ele>2948.0</ele>
        <time>2013-07-03T14:51:57Z</time>
      </trkpt>
      <trkpt lat="39.906517" lon="-4.489067">
        <ele>2949.0</ele>
        <time>2013-07-03T14:51:58Z</time>
      </trkpt>
      <trkpt lat="39.906450" lon="-4.489100">
        <ele>2950.0</ele>
        <time>2013-07-03T14:51:59Z</time>
      </trkpt>
      <trkpt lat="39.906383" lon="-4.489133">
        <ele>2950.0</ele>
        <time>2013-07-03T14:52:00Z</time>
      </trkpt>
      <trkpt lat="39.906300" lon="-4.489167">
        <ele>2951.0</ele>
        <time>2013-07-03T14:52:01Z</time>
      </trkpt>
      <trkpt lat="39.906200" lon="-4.489183">
        <ele>2951.0</ele>
        <time>2013-07-03T14:52:02Z</time>
      </trkpt>
      <trkpt lat="39.906117" lon="-4.489183">
        <ele>2953.0</ele>
        <time>2013-07-03T14:52:03Z</time>
      </trkpt>
      <trkpt lat="39.906033" lon="-4.489150">
        <ele>2954.0</ele>
        <time>2013-07-03T14:52:04Z</time>
      </trkpt>
      <trkpt lat="39.905950" lon="-4.489117">
        <ele>2957.0</ele>
        <time>2013-07-03T14:52:05Z</time>
      </trkpt>
      <trkpt lat="39.905867" lon="-4.489050">
        <ele>2958.0</ele>
        <time>2013-07-03T14:52:06Z</time>
      </trkpt>
      <trkpt lat="39.905800" lon="-4.488983">
        <ele>2958.0</ele>
        <time>2013-07-03T14:52:07Z</time>
      </trkpt>
      <trkpt lat="39.905733" lon="-4.488917">
        <ele>2958.0</ele>
        <time>2013-07-03T14:52:08Z</time>
      </trkpt>
      <trkpt lat="39.905667" lon="-4.488817">
        <ele>2958.0</ele>
        <time>2013-07-03T14:52:09Z</time>
      </trkpt>
      <trkpt lat="39.905633" lon="-4.488717">
        <ele>2958.0</ele>
        <time>2013-07-03T14:52:10Z</time>
      </trkpt>
      <trkpt lat="39.905600" lon="-4.488583">
        <ele>2959.0</ele>
        <time>2013-07-03T14:52:11Z</time>
      </trkpt>
      <trkpt lat="39.905600" lon="-4.488467">
        <ele>2961.0</ele>
        <time>2013-07-03T14:52:12Z</time>
      </trkpt>
      <trkpt lat="39.905583" lon="-4.488367">
        <ele>2963.0</ele>
        <time>2013-07-03T14:52:13Z</time>
      </trkpt>
      <trkpt lat="39.905600" lon="-4.488283">
        <ele>2965.0</ele>
        <time>2013-07-03T14:52:14Z</time>
      </trkpt>
      <trkpt lat="39.905617" lon="-4.488217">
        <ele>2964.0</ele>
        <time>2013-07-03T14:52:15Z</time>
      </trkpt>
      <trkpt lat="39.905667" lon="-4.488150">
        <ele>2964.0</ele>
        <time>2013-07-03T14:52:16Z</time>
      </trkpt>
      <trkpt lat="39.905717" lon="-4.488083">
        <ele>2962.0</ele>
        <time>2013-07-03T14:52:17Z</time>
      </trkpt>
      <trkpt lat="39.905783" lon="-4.488050">
        <ele>2960.0</ele>
        <time>2013-07-03T14:52:18Z</time>
      </trkpt>
      <trkpt lat="39.905867" lon="-4.488050">
        <ele>2960.0</ele>
        <time>2013-07-03T14:52:19Z</time>
      </trkpt>
      <trkpt lat="39.905933" lon="-4.488067">
        <ele>2959.0</ele>
        <time>2013-07-03T14:52:20Z</time>
      </trkpt>
      <trkpt lat="39.905983" lon="-4.488117">
        <ele>2960.0</ele>
        <time>2013-07-03T14:52:21Z</time>
      </trkpt>
      <trkpt lat="39.906033" lon="-4.488167">
        <ele>2960.0</ele>
        <time>2013-07-03T14:52:22Z</time>
      </trkpt>
      <trkpt lat="39.906050" lon="-4.488267">
        <ele>2960.0</ele>
        <time>2013-07-03T14:52:23Z</time>
      </trkpt>
      <trkpt lat="39.906067" lon="-4.488367">
        <ele>2958.0</ele>
        <time>2013-07-03T14:52:24Z</time>
      </trkpt>
      <trkpt lat="39.906050" lon="-4.488483">
        <ele>2958.0</ele>
        <time>2013-07-03T14:52:25Z</time>
      </trkpt>
      <trkpt lat="39.906017" lon="-4.488600">
        <ele>2958.0</ele>
        <time>2013-07-03T14:52:26Z</time>
      </trkpt>
      <trkpt lat="39.905983" lon="-4.488700">
        <ele>2958.0</ele>
        <time>2013-07-03T14:52:27Z</time>
      </trkpt>
      <trkpt lat="39.905917" lon="-4.488750">
        <ele>2959.0</ele>
        <time>2013-07-03T14:52:28Z</time>
      </trkpt>
      <trkpt lat="39.905833" lon="-4.488767">
        <ele>2959.0</ele>
        <time>2013-07-03T14:52:29Z</time>
      </trkpt>
      <trkpt lat="39.905750" lon="-4.488767">
        <ele>2959.0</ele>
        <time>2013-07-03T14:52:30Z</time>
      </trkpt>
      <trkpt lat="39.905650" lon="-4.488767">
        <ele>2961.0</ele>
        <time>2013-07-03T14:52:31Z</time>
      </trkpt>
      <trkpt lat="39.905550" lon="-4.488733">
        <ele>2964.0</ele>
        <time>2013-07-03T14:52:32Z</time>
      </trkpt>
      <trkpt lat="39.905450" lon="-4.488700">
        <ele>2966.0</ele>
        <time>2013-07-03T14:52:33Z</time>
      </trkpt>
      <trkpt lat="39.905367" lon="-4.488650">
        <ele>2967.0</ele>
        <time>2013-07-03T14:52:34Z</time>
      </trkpt>
      <trkpt lat="39.905300" lon="-4.488617">
        <ele>2968.0</ele>
        <time>2013-07-03T14:52:35Z</time>
      </trkpt>
      <trkpt lat="39.905217" lon="-4.488567">
        <ele>2968.0</ele>
        <time>2013-07-03T14:52:36Z</time>
      </trkpt>
      <trkpt lat="39.905133" lon="-4.488517">
        <ele>2968.0</ele>
        <time>2013-07-03T14:52:37Z</time>
      </trkpt>
      <trkpt lat="39.905050" lon="-4.488433">
        <ele>2967.0</ele>
        <time>2013-07-03T14:52:38Z</time>
      </trkpt>
      <trkpt lat="39.904967" lon="-4.488350">
        <ele>2967.0</ele>
        <time>2013-07-03T14:52:39Z</time>
      </trkpt>
      <trkpt lat="39.904900" lon="-4.488250">
        <ele>2966.0</ele>
        <time>2013-07-03T14:52:40Z</time>
      </trkpt>
      <trkpt lat="39.904817" lon="-4.488167">
        <ele>2965.0</ele>
        <time>2013-07-03T14:52:41Z</time>
      </trkpt>
      <trkpt lat="39.904733" lon="-4.488100">
        <ele>2964.0</ele>
        <time>2013-07-03T14:52:42Z</time>
      </trkpt>
      <trkpt lat="39.904633" lon="-4.488017">
        <ele>2962.0</ele>
        <time>2013-07-03T14:52:43Z</time>
      </trkpt>
      <trkpt lat="39.904533" lon="-4.487933">
        <ele>2961.0</ele>
        <time>2013-07-03T14:52:44Z</time>
      </trkpt>
      <trkpt lat="39.904450" lon="-4.487850">
        <ele>2960.0</ele>
        <time>2013-07-03T14:52:45Z</time>
      </trkpt>
      <trkpt lat="39.904367" lon="-4.487750">
        <ele>2960.0</ele>
        <time>2013-07-03T14:52:46Z</time>
      </trkpt>
      <trkpt lat="39.904283" lon="-4.487667">
        <ele>2959.0</ele>
        <time>2013-07-03T14:52:47Z</time>
      </trkpt>
      <trkpt lat="39.904217" lon="-4.487600">
        <ele>2957.0</ele>
        <time>2013-07-03T14:52:48Z</time>
      </trkpt>
      <trkpt lat="39.904133" lon="-4.487517">
        <ele>2956.0</ele>
        <time>2013-07-03T14:52:49Z</time>
      </trkpt>
      <trkpt lat="39.904033" lon="-4.487433">
        <ele>2954.0</ele>
        <time>2013-07-03T14:52:50Z</time>
      </trkpt>
      <trkpt lat="39.903967" lon="-4.487350">
        <ele>2952.0</ele>
        <time>2013-07-03T14:52:51Z</time>
      </trkpt>
      <trkpt lat="39.903900" lon="-4.487267">
        <ele>2951.0</ele>
        <time>2013-07-03T14:52:52Z</time>
      </trkpt>
      <trkpt lat="39.903817" lon="-4.487200">
        <ele>2949.0</ele>
        <time>2013-07-03T14:52:53Z</time>
      </trkpt>
      <trkpt lat="39.903733" lon="-4.487133">
        <ele>2945.0</ele>
        <time>2013-07-03T14:52:54Z</time>
      </trkpt>
      <trkpt lat="39.903633" lon="-4.487067">
        <ele>2942.0</ele>
        <time>2013-07-03T14:52:55Z</time>
      </trkpt>
      <trkpt lat="39.903517" lon="-4.487000">
        <ele>2938.0</ele>
        <time>2013-07-03T14:52:56Z</time>
      </trkpt>
      <trkpt lat="39.903400" lon="-4.486917">
        <ele>2935.0</ele>
        <time>2013-07-03T14:52:57Z</time>
      </trkpt>
      <trkpt lat="39.903283" lon="-4.486833">
        <ele>2933.0</ele>
        <time>2013-07-03T14:52:58Z</time>
      </trkpt>
      <trkpt lat="39.903183" lon="-4.486750">
        <ele>2932.0</ele>
        <time>2013-07-03T14:52:59Z</time>
      </trkpt>
      <trkpt lat="39.903083" lon="-4.486667">
        <ele>2931.0</ele>
        <time>2013-07-03T14:53:00Z</time>
      </trkpt>
      <trkpt lat="39.902983" lon="-4.486583">
        <ele>2929.0</ele>
        <time>2013-07-03T14:53:01Z</time>
      </trkpt>
      <trkpt lat="39.902883" lon="-4.486483">
        <ele>2926.0</ele>
        <time>2013-07-03T14:53:02Z</time>
      </trkpt>
      <trkpt lat="39.902783" lon="-4.486383">
        <ele>2924.0</ele>
        <time>2013-07-03T14:53:03Z</time>
      </trkpt>
      <trkpt lat="39.902683" lon="-4.486267">
        <ele>2922.0</ele>
        <time>2013-07-03T14:53:04Z</time>
      </trkpt>
      <trkpt lat="39.902583" lon="-4.486150">
        <ele>2921.0</ele>
        <time>2013-07-03T14:53:05Z</time>
      </trkpt>
      <trkpt lat="39.902483" lon="-4.486033">
        <ele>2921.0</ele>
        <time>2013-07-03T14:53:06Z</time>
      </trkpt>
      <trkpt lat="39.902400" lon="-4.485933">
        <ele>2921.0</ele>
        <time>2013-07-03T14:53:07Z</time>
      </trkpt>
      <trkpt lat="39.902300" lon="-4.485850">
        <ele>2921.0</ele>
        <time>2013-07-03T14:53:08Z</time>
      </trkpt>
      <trkpt lat="39.902217" lon="-4.485767">
        <ele>2920.0</ele>
        <time>2013-07-03T14:53:09Z</time>
      </trkpt>
      <trkpt lat="39.902133" lon="-4.485667">
        <ele>2919.0</ele>
        <time>2013-07-03T14:53:10Z</time>
      </trkpt>
      <trkpt lat="39.902050" lon="-4.485583">
        <ele>2917.0</ele>
        <time>2013-07-03T14:53:11Z</time>
      </trkpt>
      <trkpt lat="39.901967" lon="-4.485500">
        <ele>2914.0</ele>
        <time>2013-07-03T14:53:12Z</time>
      </trkpt>
      <trkpt lat="39.901867" lon="-4.485417">
        <ele>2912.0</ele>
        <time>2013-07-03T14:53:13Z</time>
      </trkpt>
      <trkpt lat="39.901767" lon="-4.485333">
        <ele>2910.0</ele>
        <time>2013-07-03T14:53:14Z</time>
      </trkpt>
      <trkpt lat="39.901667" lon="-4.485250">
        <ele>2907.0</ele>
        <time>2013-07-03T14:53:15Z</time>
      </trkpt>
      <trkpt lat="39.901567" lon="-4.485167">
        <ele>2906.0</ele>
        <time>2013-07-03T14:53:16Z</time>
      </trkpt>
      <trkpt lat="39.901467" lon="-4.485067">
        <ele>2904.0</ele>
        <time>2013-07-03T14:53:17Z</time>
      </trkpt>
      <trkpt lat="39.901383" lon="-4.484950">
        <ele>2902.0</ele>
        <time>2013-07-03T14:53:18Z</time>
      </trkpt>
      <trkpt lat="39.901300" lon="-4.484833">
        <ele>2901.0</ele>
        <time>2013-07-03T14:53:19Z</time>
      </trkpt>
      <trkpt lat="39.901217" lon="-4.484717">
        <ele>2901.0</ele>
        <time>2013-07-03T14:53:20Z</time>
      </trkpt>
      <trkpt lat="39.901133" lon="-4.484600">
        <ele>2901.0</ele>
        <time>2013-07-03T14:53:21Z</time>
      </trkpt>
      <trkpt lat="39.901050" lon="-4.484500">
        <ele>2900.0</ele>
        <time>2013-07-03T14:53:22Z</time>
      </trkpt>
      <trkpt lat="39.900967" lon="-4.484367">
        <ele>2898.0</ele>
        <time>2013-07-03T14:53:23Z</time>
      </trkpt>
      <trkpt lat="39.900883" lon="-4.484233">
        <ele>2897.0</ele>
        <time>2013-07-03T14:53:24Z</time>
      </trkpt>
      <trkpt lat="39.900800" lon="-4.484100">
        <ele>2896.0</ele>
        <time>2013-07-03T14:53:25Z</time>
      </trkpt>
      <trkpt lat="39.900733" lon="-4.483950">
        <ele>2896.0</ele>
        <time>2013-07-03T14:53:26Z</time>
      </trkpt>
      <trkpt lat="39.900667" lon="-4.483817">
        <ele>2896.0</ele>
        <time>2013-07-03T14:53:27Z</time>
      </trkpt>
      <trkpt lat="39.900600" lon="-4.483683">
        <ele>2897.0</ele>
        <time>2013-07-03T14:53:28Z</time>
      </trkpt>
      <trkpt lat="39.900533" lon="-4.483567">
        <ele>2896.0</ele>
        <time>2013-07-03T14:53:29Z</time>
      </trkpt>
      <trkpt lat="39.900467" lon="-4.483433">
        <ele>2894.0</ele>
        <time>2013-07-03T14:53:30Z</time>
      </trkpt>
      <trkpt lat="39.900383" lon="-4.483300">
        <ele>2892.0</ele>
        <time>2013-07-03T14:53:31Z</time>
      </trkpt>
      <trkpt lat="39.900283" lon="-4.483167">
        <ele>2891.0</ele>
        <time>2013-07-03T14:53:32Z</time>
      </trkpt>
      <trkpt lat="39.900200" lon="-4.483033">
        <ele>2891.0</ele>
        <time>2013-07-03T14:53:33Z</time>
      </trkpt>
      <trkpt lat="39.900133" lon="-4.482900">
        <ele>2891.0</ele>
        <time>2013-07-03T14:53:34Z</time>
      </trkpt>
      <trkpt lat="39.900050" lon="-4.482783">
        <ele>2890.0</ele>
        <time>2013-07-03T14:53:35Z</time>
      </trkpt>
      <trkpt lat="39.899983" lon="-4.482667">
        <ele>2889.0</ele>
        <time>2013-07-03T14:53:36Z</time>
      </trkpt>
      <trkpt lat="39.899900" lon="-4.482550">
        <ele>2886.0</ele>
        <time>2013-07-03T14:53:37Z</time>
      </trkpt>
      <trkpt lat="39.899817" lon="-4.482417">
        <ele>2884.0</ele>
        <time>2013-07-03T14:53:38Z</time>
      </trkpt>
      <trkpt lat="39.899733" lon="-4.482267">
        <ele>2883.0</ele>
        <time>2013-07-03T14:53:39Z</time>
      </trkpt>
      <trkpt lat="39.899650" lon="-4.482133">
        <ele>2882.0</ele>
        <time>2013-07-03T14:53:40Z</time>
      </trkpt>
      <trkpt lat="39.899567" lon="-4.482017">
        <ele>2881.0</ele>
        <time>2013-07-03T14:53:41Z</time>
      </trkpt>
      <trkpt lat="39.899500" lon="-4.481883">
        <ele>2879.0</ele>
        <time>2013-07-03T14:53:42Z</time>
      </trkpt>
      <trkpt lat="39.899417" lon="-4.481750">
        <ele>2876.0</ele>
        <time>2013-07-03T14:53:43Z</time>
      </trkpt>
      <trkpt lat="39.899333" lon="-4.481600">
        <ele>2872.0</ele>
        <time>2013-07-03T14:53:44Z</time>
      </trkpt>
      <trkpt lat="39.899233" lon="-4.481467">
        <ele>2870.0</ele>
        <time>2013-07-03T14:53:45Z</time>
      </trkpt>
      <trkpt lat="39.899150" lon="-4.481333">
        <ele>2868.0</ele>
        <time>2013-07-03T14:53:46Z</time>
      </trkpt>
      <trkpt lat="39.899067" lon="-4.481200">
        <ele>2866.0</ele>
        <time>2013-07-03T14:53:47Z</time>
      </trkpt>
      <trkpt lat="39.899000" lon="-4.481067">
        <ele>2863.0</ele>
        <time>2013-07-03T14:53:48Z</time>
      </trkpt>
      <trkpt lat="39.898917" lon="-4.480917">
        <ele>2859.0</ele>
        <time>2013-07-03T14:53:49Z</time>
      </trkpt>
      <trkpt lat="39.898833" lon="-4.480750">
        <ele>2855.0</ele>
        <time>2013-07-03T14:53:50Z</time>
      </trkpt>
      <trkpt lat="39.898733" lon="-4.480600">
        <ele>2852.0</ele>
        <time>2013-07-03T14:53:51Z</time>
      </trkpt>
      <trkpt lat="39.898633" lon="-4.480467">
        <ele>2850.0</ele>
        <time>2013-07-03T14:53:52Z</time>
      </trkpt>
      <trkpt lat="39.898550" lon="-4.480317">
        <ele>2849.0</ele>
        <time>2013-07-03T14:53:53Z</time>
      </trkpt>
      <trkpt lat="39.898467" lon="-4.480183">
        <ele>2848.0</ele>
        <time>2013-07-03T14:53:54Z</time>
      </trkpt>
      <trkpt lat="39.898400" lon="-4.480050">
        <ele>2846.0</ele>
        <time>2013-07-03T14:53:55Z</time>
      </trkpt>
      <trkpt lat="39.898317" lon="-4.479917">
        <ele>2845.0</ele>
        <time>2013-07-03T14:53:56Z</time>
      </trkpt>
      <trkpt lat="39.898233" lon="-4.479783">
        <ele>2843.0</ele>
        <time>2013-07-03T14:53:57Z</time>
      </trkpt>
      <trkpt lat="39.898133" lon="-4.479667">
        <ele>2841.0</ele>
        <time>2013-07-03T14:53:58Z</time>
      </trkpt>
      <trkpt lat="39.898050" lon="-4.479550">
        <ele>2840.0</ele>
        <time>2013-07-03T14:53:59Z</time>
      </trkpt>
      <trkpt lat="39.897967" lon="-4.479433">
        <ele>2839.0</ele>
        <time>2013-07-03T14:54:00Z</time>
      </trkpt>
      <trkpt lat="39.897900" lon="-4.479317">
        <ele>2838.0</ele>
        <time>2013-07-03T14:54:01Z</time>
      </trkpt>
      <trkpt lat="39.897817" lon="-4.479200">
        <ele>2837.0</ele>
        <time>2013-07-03T14:54:02Z</time>
      </trkpt>
      <trkpt lat="39.897733" lon="-4.479100">
        <ele>2836.0</ele>
        <time>2013-07-03T14:54:03Z</time>
      </trkpt>
      <trkpt lat="39.897650" lon="-4.478983">
        <ele>2834.0</ele>
        <time>2013-07-03T14:54:04Z</time>
      </trkpt>
      <trkpt lat="39.897550" lon="-4.478867">
        <ele>2832.0</ele>
        <time>2013-07-03T14:54:05Z</time>
      </trkpt>
      <trkpt lat="39.897450" lon="-4.478767">
        <ele>2831.0</ele>
        <time>2013-07-03T14:54:06Z</time>
      </trkpt>
      <trkpt lat="39.897350" lon="-4.478650">
        <ele>2831.0</ele>
        <time>2013-07-03T14:54:07Z</time>
      </trkpt>
      <trkpt lat="39.897250" lon="-4.478550">
        <ele>2830.0</ele>
        <time>2013-07-03T14:54:08Z</time>
      </trkpt>
      <trkpt lat="39.897150" lon="-4.478467">
        <ele>2830.0</ele>
        <time>2013-07-03T14:54:09Z</time>
      </trkpt>
      <trkpt lat="39.897067" lon="-4.478383">
        <ele>2829.0</ele>
        <time>2013-07-03T14:54:10Z</time>
      </trkpt>
      <trkpt lat="39.896967" lon="-4.478300">
        <ele>2829.0</ele>
        <time>2013-07-03T14:54:11Z</time>
      </trkpt>
      <trkpt lat="39.896883" lon="-4.478200">
        <ele>2828.0</ele>
        <time>2013-07-03T14:54:12Z</time>
      </trkpt>
      <trkpt lat="39.896800" lon="-4.478100">
        <ele>2827.0</ele>
        <time>2013-07-03T14:54:13Z</time>
      </trkpt>
      <trkpt lat="39.896717" lon="-4.477983">
        <ele>2825.0</ele>
        <time>2013-07-03T14:54:14Z</time>
      </trkpt>
      <trkpt lat="39.896650" lon="-4.477883">
        <ele>2824.0</ele>
        <time>2013-07-03T14:54:15Z</time>
      </trkpt>
      <trkpt lat="39.896583" lon="-4.477750">
        <ele>2822.0</ele>
        <time>2013-07-03T14:54:16Z</time>
      </trkpt>
      <trkpt lat="39.896500" lon="-4.477633">
        <ele>2821.0</ele>
        <time>2013-07-03T14:54:17Z</time>
      </trkpt>
      <trkpt lat="39.896433" lon="-4.477533">
        <ele>2821.0</ele>
        <time>2013-07-03T14:54:18Z</time>
      </trkpt>
      <trkpt lat="39.896367" lon="-4.477417">
        <ele>2820.0</ele>
        <time>2013-07-03T14:54:19Z</time>
      </trkpt>
      <trkpt lat="39.896300" lon="-4.477317">
        <ele>2819.0</ele>
        <time>2013-07-03T14:54:20Z</time>
      </trkpt>
      <trkpt lat="39.896233" lon="-4.477217">
        <ele>2818.0</ele>
        <time>2013-07-03T14:54:21Z</time>
      </trkpt>
      <trkpt lat="39.896150" lon="-4.477100">
        <ele>2816.0</ele>
        <time>2013-07-03T14:54:22Z</time>
      </trkpt>
      <trkpt lat="39.896067" lon="-4.476983">
        <ele>2813.0</ele>
        <time>2013-07-03T14:54:23Z</time>
      </trkpt>
      <trkpt lat="39.895967" lon="-4.476867">
        <ele>2812.0</ele>
        <time>2013-07-03T14:54:24Z</time>
      </trkpt>
      <trkpt lat="39.895883" lon="-4.476750">
        <ele>2811.0</ele>
        <time>2013-07-03T14:54:25Z</time>
      </trkpt>
      <trkpt lat="39.895800" lon="-4.476633">
        <ele>2811.0</ele>
        <time>2013-07-03T14:54:26Z</time>
      </trkpt>
      <trkpt lat="39.895717" lon="-4.476517">
        <ele>2810.0</ele>
        <time>2013-07-03T14:54:27Z</time>
      </trkpt>
      <trkpt lat="39.895633" lon="-4.476400">
        <ele>2808.0</ele>
        <time>2013-07-03T14:54:28Z</time>
      </trkpt>
      <trkpt lat="39.895550" lon="-4.476283">
        <ele>2807.0</ele>
        <time>2013-07-03T14:54:29Z</time>
      </trkpt>
      <trkpt lat="39.895450" lon="-4.476167">
        <ele>2806.0</ele>
        <time>2013-07-03T14:54:30Z</time>
      </trkpt>
      <trkpt lat="39.895367" lon="-4.476033">
        <ele>2805.0</ele>
        <time>2013-07-03T14:54:31Z</time>
      </trkpt>
      <trkpt lat="39.895283" lon="-4.475917">
        <ele>2804.0</ele>
        <time>2013-07-03T14:54:32Z</time>
      </trkpt>
      <trkpt lat="39.895200" lon="-4.475800">
        <ele>2802.0</ele>
        <time>2013-07-03T14:54:33Z</time>
      </trkpt>
      <trkpt lat="39.895117" lon="-4.475683">
        <ele>2801.0</ele>
        <time>2013-07-03T14:54:34Z</time>
      </trkpt>
      <trkpt lat="39.895017" lon="-4.475550">
        <ele>2799.0</ele>
        <time>2013-07-03T14:54:35Z</time>
      </trkpt>
      <trkpt lat="39.894917" lon="-4.475433">
        <ele>2796.0</ele>
        <time>2013-07-03T14:54:36Z</time>
      </trkpt>
      <trkpt lat="39.894817" lon="-4.475317">
        <ele>2794.0</ele>
        <time>2013-07-03T14:54:37Z</time>
      </trkpt>
      <trkpt lat="39.894733" lon="-4.475200">
        <ele>2793.0</ele>
        <time>2013-07-03T14:54:38Z</time>
      </trkpt>
      <trkpt lat="39.894650" lon="-4.475067">
        <ele>2791.0</ele>
        <time>2013-07-03T14:54:39Z</time>
      </trkpt>
      <trkpt lat="39.894550" lon="-4.474950">
        <ele>2790.0</ele>
        <time>2013-07-03T14:54:40Z</time>
      </trkpt>
      <trkpt lat="39.894467" lon="-4.474833">
        <ele>2788.0</ele>
        <time>2013-07-03T14:54:41Z</time>
      </trkpt>
      <trkpt lat="39.894367" lon="-4.474733">
        <ele>2787.0</ele>
        <time>2013-07-03T14:54:42Z</time>
      </trkpt>
      <trkpt lat="39.894267" lon="-4.474633">
        <ele>2786.0</ele>
        <time>2013-07-03T14:54:43Z</time>
      </trkpt>
      <trkpt lat="39.894167" lon="-4.474567">
        <ele>2784.0</ele>
        <time>2013-07-03T14:54:44Z</time>
      </trkpt>
      <trkpt lat="39.894050" lon="-4.474483">
        <ele>2782.0</ele>
        <time>2013-07-03T14:54:45Z</time>
      </trkpt>
      <trkpt lat="39.893917" lon="-4.474400">
        <ele>2780.0</ele>
        <time>2013-07-03T14:54:46Z</time>
      </trkpt>
      <trkpt lat="39.893783" lon="-4.474317">
        <ele>2779.0</ele>
        <time>2013-07-03T14:54:47Z</time>
      </trkpt>
      <trkpt lat="39.893667" lon="-4.474217">
        <ele>2779.0</ele>
        <time>2013-07-03T14:54:48Z</time>
      </trkpt>
      <trkpt lat="39.893567" lon="-4.474133">
        <ele>2779.0</ele>
        <time>2013-07-03T14:54:49Z</time>
      </trkpt>
      <trkpt lat="39.893467" lon="-4.474050">
        <ele>2778.0</ele>
        <time>2013-07-03T14:54:50Z</time>
      </trkpt>
      <trkpt lat="39.893383" lon="-4.473967">
        <ele>2776.0</ele>
        <time>2013-07-03T14:54:51Z</time>
      </trkpt>
      <trkpt lat="39.893267" lon="-4.473850">
        <ele>2773.0</ele>
        <time>2013-07-03T14:54:52Z</time>
      </trkpt>
      <trkpt lat="39.893167" lon="-4.473733">
        <ele>2772.0</ele>
        <time>2013-07-03T14:54:53Z</time>
      </trkpt>
      <trkpt lat="39.893050" lon="-4.473650">
        <ele>2771.0</ele>
        <time>2013-07-03T14:54:54Z</time>
      </trkpt>
      <trkpt lat="39.892950" lon="-4.473567">
        <ele>2770.0</ele>
        <time>2013-07-03T14:54:55Z</time>
      </trkpt>
      <trkpt lat="39.892850" lon="-4.473483">
        <ele>2769.0</ele>
        <time>2013-07-03T14:54:56Z</time>
      </trkpt>
      <trkpt lat="39.892767" lon="-4.473383">
        <ele>2767.0</ele>
        <time>2013-07-03T14:54:57Z</time>
      </trkpt>
      <trkpt lat="39.892667" lon="-4.473283">
        <ele>2765.0</ele>
        <time>2013-07-03T14:54:58Z</time>
      </trkpt>
      <trkpt lat="39.892583" lon="-4.473167">
        <ele>2762.0</ele>
        <time>2013-07-03T14:54:59Z</time>
      </trkpt>
      <trkpt lat="39.892500" lon="-4.473050">
        <ele>2761.0</ele>
        <time>2013-07-03T14:55:00Z</time>
      </trkpt>
      <trkpt lat="39.892417" lon="-4.472933">
        <ele>2759.0</ele>
        <time>2013-07-03T14:55:01Z</time>
      </trkpt>
      <trkpt lat="39.892350" lon="-4.472817">
        <ele>2757.0</ele>
        <time>2013-07-03T14:55:02Z</time>
      </trkpt>
      <trkpt lat="39.892283" lon="-4.472683">
        <ele>2755.0</ele>
        <time>2013-07-03T14:55:03Z</time>
      </trkpt>
      <trkpt lat="39.892217" lon="-4.472550">
        <ele>2752.0</ele>
        <time>2013-07-03T14:55:04Z</time>
      </trkpt>
      <trkpt lat="39.892150" lon="-4.472433">
        <ele>2749.0</ele>
        <time>2013-07-03T14:55:05Z</time>
      </trkpt>
      <trkpt lat="39.892083" lon="-4.472300">
        <ele>2747.0</ele>
        <time>2013-07-03T14:55:06Z</time>
      </trkpt>
      <trkpt lat="39.892000" lon="-4.472183">
        <ele>2744.0</ele>
        <time>2013-07-03T14:55:07Z</time>
      </trkpt>
      <trkpt lat="39.891917" lon="-4.472067">
        <ele>2741.0</ele>
        <time>2013-07-03T14:55:08Z</time>
      </trkpt>
      <trkpt lat="39.891833" lon="-4.471933">
        <ele>2738.0</ele>
        <time>2013-07-03T14:55:09Z</time>
      </trkpt>
      <trkpt lat="39.891733" lon="-4.471817">
        <ele>2736.0</ele>
        <time>2013-07-03T14:55:10Z</time>
      </trkpt>
      <trkpt lat="39.891633" lon="-4.471700">
        <ele>2733.0</ele>
        <time>2013-07-03T14:55:11Z</time>
      </trkpt>
      <trkpt lat="39.891550" lon="-4.471583">
        <ele>2732.0</ele>
        <time>2013-07-03T14:55:12Z</time>
      </trkpt>
      <trkpt lat="39.891450" lon="-4.471467">
        <ele>2730.0</ele>
        <time>2013-07-03T14:55:13Z</time>
      </trkpt>
      <trkpt lat="39.891367" lon="-4.471350">
        <ele>2729.0</ele>
        <time>2013-07-03T14:55:14Z</time>
      </trkpt>
      <trkpt lat="39.891283" lon="-4.471233">
        <ele>2726.0</ele>
        <time>2013-07-03T14:55:15Z</time>
      </trkpt>
      <trkpt lat="39.891183" lon="-4.471117">
        <ele>2722.0</ele>
        <time>2013-07-03T14:55:16Z</time>
      </trkpt>
      <trkpt lat="39.891083" lon="-4.470983">
        <ele>2719.0</ele>
        <time>2013-07-03T14:55:17Z</time>
      </trkpt>
      <trkpt lat="39.890967" lon="-4.470850">
        <ele>2716.0</ele>
        <time>2013-07-03T14:55:18Z</time>
      </trkpt>
      <trkpt lat="39.890850" lon="-4.470717">
        <ele>2713.0</ele>
        <time>2013-07-03T14:55:19Z</time>
      </trkpt>
      <trkpt lat="39.890733" lon="-4.470600">
        <ele>2711.0</ele>
        <time>2013-07-03T14:55:20Z</time>
      </trkpt>
      <trkpt lat="39.890617" lon="-4.470483">
        <ele>2708.0</ele>
        <time>2013-07-03T14:55:21Z</time>
      </trkpt>
      <trkpt lat="39.890500" lon="-4.470367">
        <ele>2705.0</ele>
        <time>2013-07-03T14:55:22Z</time>
      </trkpt>
      <trkpt lat="39.890383" lon="-4.470250">
        <ele>2702.0</ele>
        <time>2013-07-03T14:55:23Z</time>
      </trkpt>
      <trkpt lat="39.890267" lon="-4.470117">
        <ele>2700.0</ele>
        <time>2013-07-03T14:55:24Z</time>
      </trkpt>
      <trkpt lat="39.890150" lon="-4.470017">
        <ele>2697.0</ele>
        <time>2013-07-03T14:55:25Z</time>
      </trkpt>
      <trkpt lat="39.890033" lon="-4.469917">
        <ele>2695.0</ele>
        <time>2013-07-03T14:55:26Z</time>
      </trkpt>
      <trkpt lat="39.889933" lon="-4.469817">
        <ele>2693.0</ele>
        <time>2013-07-03T14:55:27Z</time>
      </trkpt>
      <trkpt lat="39.889817" lon="-4.469717">
        <ele>2690.0</ele>
        <time>2013-07-03T14:55:28Z</time>
      </trkpt>
      <trkpt lat="39.889700" lon="-4.469617">
        <ele>2687.0</ele>
        <time>2013-07-03T14:55:29Z</time>
      </trkpt>
      <trkpt lat="39.889583" lon="-4.469517">
        <ele>2684.0</ele>
        <time>2013-07-03T14:55:30Z</time>
      </trkpt>
      <trkpt lat="39.889467" lon="-4.469400">
        <ele>2681.0</ele>
        <time>2013-07-03T14:55:31Z</time>
      </trkpt>
      <trkpt lat="39.889333" lon="-4.469300">
        <ele>2678.0</ele>
        <time>2013-07-03T14:55:32Z</time>
      </trkpt>
      <trkpt lat="39.889200" lon="-4.469183">
        <ele>2676.0</ele>
        <time>2013-07-03T14:55:33Z</time>
      </trkpt>
      <trkpt lat="39.889083" lon="-4.469067">
        <ele>2674.0</ele>
        <time>2013-07-03T14:55:34Z</time>
      </trkpt>
      <trkpt lat="39.888967" lon="-4.468950">
        <ele>2674.0</ele>
        <time>2013-07-03T14:55:35Z</time>
      </trkpt>
      <trkpt lat="39.888850" lon="-4.468850">
        <ele>2673.0</ele>
        <time>2013-07-03T14:55:36Z</time>
      </trkpt>
      <trkpt lat="39.888733" lon="-4.468733">
        <ele>2672.0</ele>
        <time>2013-07-03T14:55:37Z</time>
      </trkpt>
      <trkpt lat="39.888617" lon="-4.468617">
        <ele>2670.0</ele>
        <time>2013-07-03T14:55:38Z</time>
      </trkpt>
      <trkpt lat="39.888517" lon="-4.468500">
        <ele>2668.0</ele>
        <time>2013-07-03T14:55:39Z</time>
      </trkpt>
      <trkpt lat="39.888417" lon="-4.468350">
        <ele>2667.0</ele>
        <time>2013-07-03T14:55:40Z</time>
      </trkpt>
      <trkpt lat="39.888333" lon="-4.468217">
        <ele>2667.0</ele>
        <time>2013-07-03T14:55:41Z</time>
      </trkpt>
      <trkpt lat="39.888233" lon="-4.468100">
        <ele>2667.0</ele>
        <time>2013-07-03T14:55:42Z</time>
      </trkpt>
      <trkpt lat="39.888133" lon="-4.468000">
        <ele>2666.0</ele>
        <time>2013-07-03T14:55:43Z</time>
      </trkpt>
      <trkpt lat="39.888050" lon="-4.467917">
        <ele>2665.0</ele>
        <time>2013-07-03T14:55:44Z</time>
      </trkpt>
      <trkpt lat="39.887950" lon="-4.467817">
        <ele>2662.0</ele>
        <time>2013-07-03T14:55:45Z</time>
      </trkpt>
      <trkpt lat="39.887850" lon="-4.467717">
        <ele>2658.0</ele>
        <time>2013-07-03T14:55:46Z</time>
      </trkpt>
      <trkpt lat="39.887767" lon="-4.467583">
        <ele>2653.0</ele>
        <time>2013-07-03T14:55:47Z</time>
      </trkpt>
      <trkpt lat="39.887667" lon="-4.467450">
        <ele>2650.0</ele>
        <time>2013-07-03T14:55:48Z</time>
      </trkpt>
      <trkpt lat="39.887567" lon="-4.467317">
        <ele>2648.0</ele>
        <time>2013-07-03T14:55:49Z</time>
      </trkpt>
      <trkpt lat="39.887467" lon="-4.467200">
        <ele>2647.0</ele>
        <time>2013-07-03T14:55:50Z</time>
      </trkpt>
      <trkpt lat="39.887383" lon="-4.467067">
        <ele>2646.0</ele>
        <time>2013-07-03T14:55:51Z</time>
      </trkpt>
      <trkpt lat="39.887317" lon="-4.466950">
        <ele>2645.0</ele>
        <time>2013-07-03T14:55:52Z</time>
      </trkpt>
      <trkpt lat="39.887233" lon="-4.466833">
        <ele>2644.0</ele>
        <time>2013-07-03T14:55:53Z</time>
      </trkpt>
      <trkpt lat="39.887150" lon="-4.466700">
        <ele>2641.0</ele>
        <time>2013-07-03T14:55:54Z</time>
      </trkpt>
      <trkpt lat="39.887067" lon="-4.466567">
        <ele>2639.0</ele>
        <time>2013-07-03T14:55:55Z</time>
      </trkpt>
      <trkpt lat="39.886983" lon="-4.466417">
        <ele>2637.0</ele>
        <time>2013-07-03T14:55:56Z</time>
      </trkpt>
      <trkpt lat="39.886900" lon="-4.466283">
        <ele>2636.0</ele>
        <time>2013-07-03T14:55:57Z</time>
      </trkpt>
      <trkpt lat="39.886817" lon="-4.466150">
        <ele>2636.0</ele>
        <time>2013-07-03T14:55:58Z</time>
      </trkpt>
      <trkpt lat="39.886750" lon="-4.466033">
        <ele>2635.0</ele>
        <time>2013-07-03T14:55:59Z</time>
      </trkpt>
      <trkpt lat="39.886667" lon="-4.465933">
        <ele>2635.0</ele>
        <time>2013-07-03T14:56:00Z</time>
      </trkpt>
      <trkpt lat="39.886583" lon="-4.465817">
        <ele>2633.0</ele>
        <time>2013-07-03T14:56:01Z</time>
      </trkpt>
      <trkpt lat="39.886500" lon="-4.465700">
        <ele>2631.0</ele>
        <time>2013-07-03T14:56:02Z</time>
      </trkpt>
      <trkpt lat="39.886417" lon="-4.465600">
        <ele>2628.0</ele>
        <time>2013-07-03T14:56:03Z</time>
      </trkpt>
      <trkpt lat="39.886333" lon="-4.465483">
        <ele>2626.0</ele>
        <time>2013-07-03T14:56:04Z</time>
      </trkpt>
      <trkpt lat="39.886250" lon="-4.465350">
        <ele>2623.0</ele>
        <time>2013-07-03T14:56:05Z</time>
      </trkpt>
      <trkpt lat="39.886167" lon="-4.465233">
        <ele>2621.0</ele>
        <time>2013-07-03T14:56:06Z</time>
      </trkpt>
      <trkpt lat="39.886100" lon="-4.465117">
        <ele>2619.0</ele>
        <time>2013-07-03T14:56:07Z</time>
      </trkpt>
      <trkpt lat="39.886017" lon="-4.465000">
        <ele>2617.0</ele>
        <time>2013-07-03T14:56:08Z</time>
      </trkpt>
      <trkpt lat="39.885933" lon="-4.464883">
        <ele>2615.0</ele>
        <time>2013-07-03T14:56:09Z</time>
      </trkpt>
      <trkpt lat="39.885850" lon="-4.464767">
        <ele>2612.0</ele>
        <time>2013-07-03T14:56:10Z</time>
      </trkpt>
      <trkpt lat="39.885767" lon="-4.464650">
        <ele>2610.0</ele>
        <time>2013-07-03T14:56:11Z</time>
      </trkpt>
      <trkpt lat="39.885683" lon="-4.464533">
        <ele>2607.0</ele>
        <time>2013-07-03T14:56:12Z</time>
      </trkpt>
      <trkpt lat="39.885617" lon="-4.464417">
        <ele>2604.0</ele>
        <time>2013-07-03T14:56:13Z</time>
      </trkpt>
      <trkpt lat="39.885533" lon="-4.464300">
        <ele>2601.0</ele>
        <time>2013-07-03T14:56:14Z</time>
      </trkpt>
      <trkpt lat="39.885450" lon="-4.464167">
        <ele>2598.0</ele>
        <time>2013-07-03T14:56:15Z</time>
      </trkpt>
      <trkpt lat="39.885367" lon="-4.464050">
        <ele>2595.0</ele>
        <time>2013-07-03T14:56:16Z</time>
      </trkpt>
      <trkpt lat="39.885283" lon="-4.463933">
        <ele>2592.0</ele>
        <time>2013-07-03T14:56:17Z</time>
      </trkpt>
      <trkpt lat="39.885200" lon="-4.463817">
        <ele>2589.0</ele>
        <time>2013-07-03T14:56:18Z</time>
      </trkpt>
      <trkpt lat="39.885133" lon="-4.463700">
        <ele>2587.0</ele>
        <time>2013-07-03T14:56:19Z</time>
      </trkpt>
      <trkpt lat="39.885067" lon="-4.463567">
        <ele>2584.0</ele>
        <time>2013-07-03T14:56:20Z</time>
      </trkpt>
      <trkpt lat="39.885000" lon="-4.463433">
        <ele>2582.0</ele>
        <time>2013-07-03T14:56:21Z</time>
      </trkpt>
      <trkpt lat="39.884933" lon="-4.463317">
        <ele>2580.0</ele>
        <time>2013-07-03T14:56:22Z</time>
      </trkpt>
      <trkpt lat="39.884883" lon="-4.463183">
        <ele>2581.0</ele>
        <time>2013-07-03T14:56:23Z</time>
      </trkpt>
      <trkpt lat="39.884817" lon="-4.463100">
        <ele>2582.0</ele>
        <time>2013-07-03T14:56:24Z</time>
      </trkpt>
      <trkpt lat="39.884750" lon="-4.463050">
        <ele>2581.0</ele>
        <time>2013-07-03T14:56:25Z</time>
      </trkpt>
      <trkpt lat="39.884683" lon="-4.462983">
        <ele>2579.0</ele>
        <time>2013-07-03T14:56:26Z</time>
      </trkpt>
      <trkpt lat="39.884600" lon="-4.462917">
        <ele>2576.0</ele>
        <time>2013-07-03T14:56:27Z</time>
      </trkpt>
      <trkpt lat="39.884533" lon="-4.462833">
        <ele>2572.0</ele>
        <time>2013-07-03T14:56:28Z</time>
      </trkpt>
      <trkpt lat="39.884467" lon="-4.462733">
        <ele>2569.0</ele>
        <time>2013-07-03T14:56:29Z</time>
      </trkpt>
      <trkpt lat="39.884400" lon="-4.462633">
        <ele>2567.0</ele>
        <time>2013-07-03T14:56:30Z</time>
      </trkpt>
      <trkpt lat="39.884333" lon="-4.462550">
        <ele>2566.0</ele>
        <time>2013-07-03T14:56:31Z</time>
      </trkpt>
      <trkpt lat="39.884267" lon="-4.462483">
        <ele>2564.0</ele>
        <time>2013-07-03T14:56:32Z</time>
      </trkpt>
      <trkpt lat="39.884183" lon="-4.462400">
        <ele>2561.0</ele>
        <time>2013-07-03T14:56:33Z</time>
      </trkpt>
      <trkpt lat="39.884100" lon="-4.462317">
        <ele>2559.0</ele>
        <time>2013-07-03T14:56:34Z</time>
      </trkpt>
      <trkpt lat="39.884017" lon="-4.462233">
        <ele>2557.0</ele>
        <time>2013-07-03T14:56:35Z</time>
      </trkpt>
      <trkpt lat="39.883950" lon="-4.462150">
        <ele>2555.0</ele>
        <time>2013-07-03T14:56:36Z</time>
      </trkpt>
      <trkpt lat="39.883883" lon="-4.462083">
        <ele>2554.0</ele>
        <time>2013-07-03T14:56:37Z</time>
      </trkpt>
      <trkpt lat="39.883800" lon="-4.462017">
        <ele>2551.0</ele>
        <time>2013-07-03T14:56:38Z</time>
      </trkpt>
      <trkpt lat="39.883733" lon="-4.461933">
        <ele>2548.0</ele>
        <time>2013-07-03T14:56:39Z</time>
      </trkpt>
      <trkpt lat="39.883667" lon="-4.461850">
        <ele>2544.0</ele>
        <time>2013-07-03T14:56:40Z</time>
      </trkpt>
      <trkpt lat="39.883600" lon="-4.461750">
        <ele>2541.0</ele>
        <time>2013-07-03T14:56:41Z</time>
      </trkpt>
      <trkpt lat="39.883533" lon="-4.461667">
        <ele>2539.0</ele>
        <time>2013-07-03T14:56:42Z</time>
      </trkpt>
      <trkpt lat="39.883467" lon="-4.461583">
        <ele>2536.0</ele>
        <time>2013-07-03T14:56:43Z</time>
      </trkpt>
      <trkpt lat="39.883400" lon="-4.461500">
        <ele>2533.0</ele>
        <time>2013-07-03T14:56:44Z</time>
      </trkpt>
      <trkpt lat="39.883333" lon="-4.461417">
        <ele>2531.0</ele>
        <time>2013-07-03T14:56:45Z</time>
      </trkpt>
      <trkpt lat="39.883267" lon="-4.461333">
        <ele>2528.0</ele>
        <time>2013-07-03T14:56:46Z</time>
      </trkpt>
      <trkpt lat="39.883200" lon="-4.461250">
        <ele>2526.0</ele>
        <time>2013-07-03T14:56:47Z</time>
      </trkpt>
      <trkpt lat="39.883133" lon="-4.461183">
        <ele>2525.0</ele>
        <time>2013-07-03T14:56:48Z</time>
      </trkpt>
      <trkpt lat="39.883083" lon="-4.461100">
        <ele>2523.0</ele>
        <time>2013-07-03T14:56:49Z</time>
      </trkpt>
      <trkpt lat="39.883017" lon="-4.461033">
        <ele>2521.0</ele>
        <time>2013-07-03T14:56:50Z</time>
      </trkpt>
      <trkpt lat="39.882950" lon="-4.460967">
        <ele>2519.0</ele>
        <time>2013-07-03T14:56:51Z</time>
      </trkpt>
      <trkpt lat="39.882883" lon="-4.460883">
        <ele>2516.0</ele>
        <time>2013-07-03T14:56:52Z</time>
      </trkpt>
      <trkpt lat="39.882833" lon="-4.460800">
        <ele>2513.0</ele>
        <time>2013-07-03T14:56:53Z</time>
      </trkpt>
      <trkpt lat="39.882767" lon="-4.460717">
        <ele>2510.0</ele>
        <time>2013-07-03T14:56:54Z</time>
      </trkpt>
      <trkpt lat="39.882683" lon="-4.460633">
        <ele>2508.0</ele>
        <time>2013-07-03T14:56:55Z</time>
      </trkpt>
      <trkpt lat="39.882617" lon="-4.460550">
        <ele>2505.0</ele>
        <time>2013-07-03T14:56:56Z</time>
      </trkpt>
      <trkpt lat="39.882533" lon="-4.460467">
        <ele>2503.0</ele>
        <time>2013-07-03T14:56:57Z</time>
      </trkpt>
      <trkpt lat="39.882483" lon="-4.460367">
        <ele>2501.0</ele>
        <time>2013-07-03T14:56:58Z</time>
      </trkpt>
      <trkpt lat="39.882433" lon="-4.460283">
        <ele>2500.0</ele>
        <time>2013-07-03T14:56:59Z</time>
      </trkpt>
      <trkpt lat="39.882367" lon="-4.460200">
        <ele>2498.0</ele>
        <time>2013-07-03T14:57:00Z</time>
      </trkpt>
      <trkpt lat="39.882317" lon="-4.460117">
        <ele>2496.0</ele>
        <time>2013-07-03T14:57:01Z</time>
      </trkpt>
      <trkpt lat="39.882250" lon="-4.460033">
        <ele>2494.0</ele>
        <time>2013-07-03T14:57:02Z</time>
      </trkpt>
      <trkpt lat="39.882183" lon="-4.459950">
        <ele>2492.0</ele>
        <time>2013-07-03T14:57:03Z</time>
      </trkpt>
      <trkpt lat="39.882117" lon="-4.459833">
        <ele>2490.0</ele>
        <time>2013-07-03T14:57:04Z</time>
      </trkpt>
      <trkpt lat="39.882067" lon="-4.459733">
        <ele>2488.0</ele>
        <time>2013-07-03T14:57:05Z</time>
      </trkpt>
      <trkpt lat="39.881983" lon="-4.459650">
        <ele>2487.0</ele>
        <time>2013-07-03T14:57:06Z</time>
      </trkpt>
      <trkpt lat="39.881917" lon="-4.459550">
        <ele>2485.0</ele>
        <time>2013-07-03T14:57:07Z</time>
      </trkpt>
      <trkpt lat="39.881833" lon="-4.459467">
        <ele>2484.0</ele>
        <time>2013-07-03T14:57:08Z</time>
      </trkpt>
      <trkpt lat="39.881750" lon="-4.459383">
        <ele>2482.0</ele>
        <time>2013-07-03T14:57:09Z</time>
      </trkpt>
      <trkpt lat="39.881683" lon="-4.459317">
        <ele>2482.0</ele>
        <time>2013-07-03T14:57:10Z</time>
      </trkpt>
      <trkpt lat="39.881617" lon="-4.459250">
        <ele>2480.0</ele>
        <time>2013-07-03T14:57:11Z</time>
      </trkpt>
      <trkpt lat="39.881533" lon="-4.459183">
        <ele>2479.0</ele>
        <time>2013-07-03T14:57:12Z</time>
      </trkpt>
      <trkpt lat="39.881450" lon="-4.459117">
        <ele>2476.0</ele>
        <time>2013-07-03T14:57:13Z</time>
      </trkpt>
      <trkpt lat="39.881383" lon="-4.459033">
        <ele>2474.0</ele>
        <time>2013-07-03T14:57:14Z</time>
      </trkpt>
      <trkpt lat="39.881317" lon="-4.458950">
        <ele>2473.0</ele>
        <time>2013-07-03T14:57:15Z</time>
      </trkpt>
      <trkpt lat="39.881250" lon="-4.458867">
        <ele>2471.0</ele>
        <time>2013-07-03T14:57:16Z</time>
      </trkpt>
      <trkpt lat="39.881183" lon="-4.458783">
        <ele>2469.0</ele>
        <time>2013-07-03T14:57:17Z</time>
      </trkpt>
      <trkpt lat="39.881117" lon="-4.458700">
        <ele>2466.0</ele>
        <time>2013-07-03T14:57:18Z</time>
      </trkpt>
      <trkpt lat="39.881050" lon="-4.458600">
        <ele>2464.0</ele>
        <time>2013-07-03T14:57:19Z</time>
      </trkpt>
      <trkpt lat="39.880983" lon="-4.458517">
        <ele>2462.0</ele>
        <time>2013-07-03T14:57:20Z</time>
      </trkpt>
      <trkpt lat="39.880917" lon="-4.458433">
        <ele>2461.0</ele>
        <time>2013-07-03T14:57:21Z</time>
      </trkpt>
      <trkpt lat="39.880850" lon="-4.458350">
        <ele>2459.0</ele>
        <time>2013-07-03T14:57:22Z</time>
      </trkpt>
      <trkpt lat="39.880783" lon="-4.458283">
        <ele>2457.0</ele>
        <time>2013-07-03T14:57:23Z</time>
      </trkpt>
      <trkpt lat="39.880700" lon="-4.458217">
        <ele>2456.0</ele>
        <time>2013-07-03T14:57:24Z</time>
      </trkpt>
      <trkpt lat="39.880633" lon="-4.458150">
        <ele>2454.0</ele>
        <time>2013-07-03T14:57:25Z</time>
      </trkpt>
      <trkpt lat="39.880567" lon="-4.458067">
        <ele>2451.0</ele>
        <time>2013-07-03T14:57:26Z</time>
      </trkpt>
      <trkpt lat="39.880500" lon="-4.457967">
        <ele>2448.0</ele>
        <time>2013-07-03T14:57:27Z</time>
      </trkpt>
      <trkpt lat="39.880433" lon="-4.457867">
        <ele>2445.0</ele>
        <time>2013-07-03T14:57:28Z</time>
      </trkpt>
      <trkpt lat="39.880367" lon="-4.457783">
        <ele>2442.0</ele>
        <time>2013-07-03T14:57:29Z</time>
      </trkpt>
      <trkpt lat="39.880317" lon="-4.457700">
        <ele>2440.0</ele>
        <time>2013-07-03T14:57:30Z</time>
      </trkpt>
      <trkpt lat="39.880250" lon="-4.457600">
        <ele>2438.0</ele>
        <time>2013-07-03T14:57:31Z</time>
      </trkpt>
      <trkpt lat="39.880200" lon="-4.457483">
        <ele>2438.0</ele>
        <time>2013-07-03T14:57:32Z</time>
      </trkpt>
      <trkpt lat="39.880133" lon="-4.457383">
        <ele>2436.0</ele>
        <time>2013-07-03T14:57:33Z</time>
      </trkpt>
      <trkpt lat="39.880067" lon="-4.457267">
        <ele>2433.0</ele>
        <time>2013-07-03T14:57:34Z</time>
      </trkpt>
      <trkpt lat="39.880000" lon="-4.457150">
        <ele>2431.0</ele>
        <time>2013-07-03T14:57:35Z</time>
      </trkpt>
      <trkpt lat="39.879950" lon="-4.457017">
        <ele>2429.0</ele>
        <time>2013-07-03T14:57:36Z</time>
      </trkpt>
      <trkpt lat="39.879917" lon="-4.456917">
        <ele>2429.0</ele>
        <time>2013-07-03T14:57:37Z</time>
      </trkpt>
      <trkpt lat="39.879867" lon="-4.456800">
        <ele>2428.0</ele>
        <time>2013-07-03T14:57:38Z</time>
      </trkpt>
      <trkpt lat="39.879833" lon="-4.456700">
        <ele>2427.0</ele>
        <time>2013-07-03T14:57:39Z</time>
      </trkpt>
      <trkpt lat="39.879817" lon="-4.456567">
        <ele>2426.0</ele>
        <time>2013-07-03T14:57:40Z</time>
      </trkpt>
      <trkpt lat="39.879800" lon="-4.456467">
        <ele>2425.0</ele>
        <time>2013-07-03T14:57:41Z</time>
      </trkpt>
      <trkpt lat="39.879800" lon="-4.456333">
        <ele>2425.0</ele>
        <time>2013-07-03T14:57:42Z</time>
      </trkpt>
      <trkpt lat="39.879783" lon="-4.456217">
        <ele>2426.0</ele>
        <time>2013-07-03T14:57:43Z</time>
      </trkpt>
      <trkpt lat="39.879767" lon="-4.456117">
        <ele>2428.0</ele>
        <time>2013-07-03T14:57:44Z</time>
      </trkpt>
      <trkpt lat="39.879733" lon="-4.456067">
        <ele>2428.0</ele>
        <time>2013-07-03T14:57:45Z</time>
      </trkpt>
      <trkpt lat="39.879700" lon="-4.456017">
        <ele>2429.0</ele>
        <time>2013-07-03T14:57:46Z</time>
      </trkpt>
      <trkpt lat="39.879650" lon="-4.455950">
        <ele>2428.0</ele>
        <time>2013-07-03T14:57:47Z</time>
      </trkpt>
      <trkpt lat="39.879617" lon="-4.455867">
        <ele>2428.0</ele>
        <time>2013-07-03T14:57:48Z</time>
      </trkpt>
      <trkpt lat="39.879583" lon="-4.455767">
        <ele>2428.0</ele>
        <time>2013-07-03T14:57:49Z</time>
      </trkpt>
      <trkpt lat="39.879567" lon="-4.455667">
        <ele>2429.0</ele>
        <time>2013-07-03T14:57:50Z</time>
      </trkpt>
      <trkpt lat="39.879550" lon="-4.455583">
        <ele>2431.0</ele>
        <time>2013-07-03T14:57:51Z</time>
      </trkpt>
      <trkpt lat="39.879550" lon="-4.455500">
        <ele>2432.0</ele>
        <time>2013-07-03T14:57:52Z</time>
      </trkpt>
      <trkpt lat="39.879550" lon="-4.455417">
        <ele>2435.0</ele>
        <time>2013-07-03T14:57:53Z</time>
      </trkpt>
      <trkpt lat="39.879550" lon="-4.455350">
        <ele>2437.0</ele>
        <time>2013-07-03T14:57:54Z</time>
      </trkpt>
      <trkpt lat="39.879550" lon="-4.455283">
        <ele>2439.0</ele>
        <time>2013-07-03T14:57:55Z</time>
      </trkpt>
      <trkpt lat="39.879567" lon="-4.455217">
        <ele>2440.0</ele>
        <time>2013-07-03T14:57:56Z</time>
      </trkpt>
      <trkpt lat="39.879600" lon="-4.455167">
        <ele>2441.0</ele>
        <time>2013-07-03T14:57:57Z</time>
      </trkpt>
      <trkpt lat="39.879633" lon="-4.455117">
        <ele>2442.0</ele>
        <time>2013-07-03T14:57:58Z</time>
      </trkpt>
      <trkpt lat="39.879683" lon="-4.455083">
        <ele>2442.0</ele>
        <time>2013-07-03T14:57:59Z</time>
      </trkpt>
      <trkpt lat="39.879717" lon="-4.455083">
        <ele>2443.0</ele>
        <time>2013-07-03T14:58:00Z</time>
      </trkpt>
      <trkpt lat="39.879767" lon="-4.455083">
        <ele>2443.0</ele>
        <time>2013-07-03T14:58:01Z</time>
      </trkpt>
      <trkpt lat="39.879817" lon="-4.455100">
        <ele>2443.0</ele>
        <time>2013-07-03T14:58:02Z</time>
      </trkpt>
      <trkpt lat="39.879867" lon="-4.455133">
        <ele>2443.0</ele>
        <time>2013-07-03T14:58:03Z</time>
      </trkpt>
      <trkpt lat="39.879900" lon="-4.455183">
        <ele>2442.0</ele>
        <time>2013-07-03T14:58:04Z</time>
      </trkpt>
      <trkpt lat="39.879950" lon="-4.455233">
        <ele>2442.0</ele>
        <time>2013-07-03T14:58:05Z</time>
      </trkpt>
      <trkpt lat="39.879967" lon="-4.455317">
        <ele>2443.0</ele>
        <time>2013-07-03T14:58:06Z</time>
      </trkpt>
      <trkpt lat="39.880000" lon="-4.455400">
        <ele>2443.0</ele>
        <time>2013-07-03T14:58:07Z</time>
      </trkpt>
      <trkpt lat="39.880000" lon="-4.455483">
        <ele>2442.0</ele>
        <time>2013-07-03T14:58:08Z</time>
      </trkpt>
      <trkpt lat="39.879983" lon="-4.455600">
        <ele>2442.0</ele>
        <time>2013-07-03T14:58:09Z</time>
      </trkpt>
      <trkpt lat="39.879950" lon="-4.455717">
        <ele>2441.0</ele>
        <time>2013-07-03T14:58:10Z</time>
      </trkpt>
      <trkpt lat="39.879917" lon="-4.455833">
        <ele>2441.0</ele>
        <time>2013-07-03T14:58:11Z</time>
      </trkpt>
      <trkpt lat="39.879850" lon="-4.455933">
        <ele>2441.0</ele>
        <time>2013-07-03T14:58:12Z</time>
      </trkpt>
      <trkpt lat="39.879767" lon="-4.456017">
        <ele>2443.0</ele>
        <time>2013-07-03T14:58:13Z</time>
      </trkpt>
      <trkpt lat="39.879683" lon="-4.456083">
        <ele>2445.0</ele>
        <time>2013-07-03T14:58:14Z</time>
      </trkpt>
      <trkpt lat="39.879600" lon="-4.456100">
        <ele>2448.0</ele>
        <time>2013-07-03T14:58:15Z</time>
      </trkpt>
      <trkpt lat="39.879533" lon="-4.456100">
        <ele>2450.0</ele>
        <time>2013-07-03T14:58:16Z</time>
      </trkpt>
      <trkpt lat="39.879467" lon="-4.456100">
        <ele>2451.0</ele>
        <time>2013-07-03T14:58:17Z</time>
      </trkpt>
      <trkpt lat="39.879400" lon="-4.456100">
        <ele>2449.0</ele>
        <time>2013-07-03T14:58:18Z</time>
      </trkpt>
      <trkpt lat="39.879317" lon="-4.456117">
        <ele>2449.0</ele>
        <time>2013-07-03T14:58:19Z</time>
      </trkpt>
      <trkpt lat="39.879217" lon="-4.456133">
        <ele>2448.0</ele>
        <time>2013-07-03T14:58:20Z</time>
      </trkpt>
      <trkpt lat="39.879117" lon="-4.456117">
        <ele>2448.0</ele>
        <time>2013-07-03T14:58:21Z</time>
      </trkpt>
      <trkpt lat="39.879033" lon="-4.456083">
        <ele>2449.0</ele>
        <time>2013-07-03T14:58:22Z</time>
      </trkpt>
      <trkpt lat="39.878950" lon="-4.456033">
        <ele>2450.0</ele>
        <time>2013-07-03T14:58:23Z</time>
      </trkpt>
      <trkpt lat="39.878883" lon="-4.455983">
        <ele>2451.0</ele>
        <time>2013-07-03T14:58:24Z</time>
      </trkpt>
      <trkpt lat="39.878833" lon="-4.455933">
        <ele>2451.0</ele>
        <time>2013-07-03T14:58:25Z</time>
      </trkpt>
      <trkpt lat="39.878750" lon="-4.455917">
        <ele>2451.0</ele>
        <time>2013-07-03T14:58:26Z</time>
      </trkpt>
      <trkpt lat="39.878683" lon="-4.455883">
        <ele>2450.0</ele>
        <time>2013-07-03T14:58:27Z</time>
      </trkpt>
      <trkpt lat="39.878600" lon="-4.455833">
        <ele>2447.0</ele>
        <time>2013-07-03T14:58:28Z</time>
      </trkpt>
      <trkpt lat="39.878500" lon="-4.455767">
        <ele>2445.0</ele>
        <time>2013-07-03T14:58:29Z</time>
      </trkpt>
      <trkpt lat="39.878400" lon="-4.455700">
        <ele>2444.0</ele>
        <time>2013-07-03T14:58:30Z</time>
      </trkpt>
      <trkpt lat="39.878317" lon="-4.455633">
        <ele>2444.0</ele>
        <time>2013-07-03T14:58:31Z</time>
      </trkpt>
      <trkpt lat="39.878250" lon="-4.455550">
        <ele>2444.0</ele>
        <time>2013-07-03T14:58:32Z</time>
      </trkpt>
      <trkpt lat="39.878183" lon="-4.455467">
        <ele>2445.0</ele>
        <time>2013-07-03T14:58:33Z</time>
      </trkpt>
      <trkpt lat="39.878117" lon="-4.455367">
        <ele>2445.0</ele>
        <time>2013-07-03T14:58:34Z</time>
      </trkpt>
      <trkpt lat="39.878050" lon="-4.455267">
        <ele>2446.0</ele>
        <time>2013-07-03T14:58:35Z</time>
      </trkpt>
      <trkpt lat="39.877983" lon="-4.455167">
        <ele>2447.0</ele>
        <time>2013-07-03T14:58:36Z</time>
      </trkpt>
      <trkpt lat="39.877933" lon="-4.455083">
        <ele>2448.0</ele>
        <time>2013-07-03T14:58:37Z</time>
      </trkpt>
      <trkpt lat="39.877883" lon="-4.455000">
        <ele>2449.0</ele>
        <time>2013-07-03T14:58:38Z</time>
      </trkpt>
      <trkpt lat="39.877833" lon="-4.454917">
        <ele>2450.0</ele>
        <time>2013-07-03T14:58:39Z</time>
      </trkpt>
      <trkpt lat="39.877800" lon="-4.454817">
        <ele>2450.0</ele>
        <time>2013-07-03T14:58:40Z</time>
      </trkpt>
      <trkpt lat="39.877783" lon="-4.454717">
        <ele>2451.0</ele>
        <time>2013-07-03T14:58:41Z</time>
      </trkpt>
      <trkpt lat="39.877750" lon="-4.454617">
        <ele>2451.0</ele>
        <time>2013-07-03T14:58:42Z</time>
      </trkpt>
      <trkpt lat="39.877733" lon="-4.454517">
        <ele>2452.0</ele>
        <time>2013-07-03T14:58:43Z</time>
      </trkpt>
      <trkpt lat="39.877733" lon="-4.454433">
        <ele>2453.0</ele>
        <time>2013-07-03T14:58:44Z</time>
      </trkpt>
      <trkpt lat="39.877733" lon="-4.454333">
        <ele>2452.0</ele>
        <time>2013-07-03T14:58:45Z</time>
      </trkpt>
      <trkpt lat="39.877750" lon="-4.454250">
        <ele>2453.0</ele>
        <time>2013-07-03T14:58:46Z</time>
      </trkpt>
      <trkpt lat="39.877783" lon="-4.454167">
        <ele>2453.0</ele>
        <time>2013-07-03T14:58:47Z</time>
      </trkpt>
      <trkpt lat="39.877817" lon="-4.454133">
        <ele>2455.0</ele>
        <time>2013-07-03T14:58:48Z</time>
      </trkpt>
      <trkpt lat="39.877867" lon="-4.454117">
        <ele>2456.0</ele>
        <time>2013-07-03T14:58:49Z</time>
      </trkpt>
      <trkpt lat="39.877900" lon="-4.454117">
        <ele>2456.0</ele>
        <time>2013-07-03T14:58:50Z</time>
      </trkpt>
      <trkpt lat="39.877950" lon="-4.454133">
        <ele>2456.0</ele>
        <time>2013-07-03T14:58:51Z</time>
      </trkpt>
      <trkpt lat="39.877983" lon="-4.454167">
        <ele>2454.0</ele>
        <time>2013-07-03T14:58:52Z</time>
      </trkpt>
      <trkpt lat="39.878017" lon="-4.454233">
        <ele>2453.0</ele>
        <time>2013-07-03T14:58:53Z</time>
      </trkpt>
      <trkpt lat="39.878083" lon="-4.454283">
        <ele>2452.0</ele>
        <time>2013-07-03T14:58:54Z</time>
      </trkpt>
      <trkpt lat="39.878117" lon="-4.454367">
        <ele>2453.0</ele>
        <time>2013-07-03T14:58:55Z</time>
      </trkpt>
      <trkpt lat="39.878150" lon="-4.454433">
        <ele>2455.0</ele>
        <time>2013-07-03T14:58:56Z</time>
      </trkpt>
      <trkpt lat="39.878167" lon="-4.454500">
        <ele>2456.0</ele>
        <time>2013-07-03T14:58:57Z</time>
      </trkpt>
      <trkpt lat="39.878183" lon="-4.454567">
        <ele>2457.0</ele>
        <time>2013-07-03T14:58:58Z</time>
      </trkpt>
      <trkpt lat="39.878183" lon="-4.454633">
        <ele>2458.0</ele>
        <time>2013-07-03T14:58:59Z</time>
      </trkpt>
      <trkpt lat="39.878200" lon="-4.454700">
        <ele>2457.0</ele>
        <time>2013-07-03T14:59:00Z</time>
      </trkpt>
      <trkpt lat="39.878217" lon="-4.454767">
        <ele>2456.0</ele>
        <time>2013-07-03T14:59:01Z</time>
      </trkpt>
      <trkpt lat="39.878250" lon="-4.454833">
        <ele>2455.0</ele>
        <time>2013-07-03T14:59:02Z</time>
      </trkpt>
      <trkpt lat="39.878300" lon="-4.454867">
        <ele>2454.0</ele>
        <time>2013-07-03T14:59:03Z</time>
      </trkpt>
      <trkpt lat="39.878367" lon="-4.454883">
        <ele>2454.0</ele>
        <time>2013-07-03T14:59:04Z</time>
      </trkpt>
      <trkpt lat="39.878417" lon="-4.454867">
        <ele>2453.0</ele>
        <time>2013-07-03T14:59:05Z</time>
      </trkpt>
      <trkpt lat="39.878467" lon="-4.454833">
        <ele>2453.0</ele>
        <time>2013-07-03T14:59:06Z</time>
      </trkpt>
      <trkpt lat="39.878517" lon="-4.454800">
        <ele>2454.0</ele>
        <time>2013-07-03T14:59:07Z</time>
      </trkpt>
      <trkpt lat="39.878567" lon="-4.454767">
        <ele>2455.0</ele>
        <time>2013-07-03T14:59:08Z</time>
      </trkpt>
      <trkpt lat="39.878600" lon="-4.454733">
        <ele>2455.0</ele>
        <time>2013-07-03T14:59:09Z</time>
      </trkpt>
      <trkpt lat="39.878650" lon="-4.454683">
        <ele>2455.0</ele>
        <time>2013-07-03T14:59:10Z</time>
      </trkpt>
      <trkpt lat="39.878683" lon="-4.454617">
        <ele>2455.0</ele>
        <time>2013-07-03T14:59:11Z</time>
      </trkpt>
      <trkpt lat="39.878733" lon="-4.454567">
        <ele>2455.0</ele>
        <time>2013-07-03T14:59:12Z</time>
      </trkpt>
      <trkpt lat="39.878767" lon="-4.454483">
        <ele>2454.0</ele>
        <time>2013-07-03T14:59:13Z</time>
      </trkpt>
      <trkpt lat="39.878783" lon="-4.454400">
        <ele>2453.0</ele>
        <time>2013-07-03T14:59:14Z</time>
      </trkpt>
      <trkpt lat="39.878783" lon="-4.454317">
        <ele>2453.0</ele>
        <time>2013-07-03T14:59:15Z</time>
      </trkpt>
      <trkpt lat="39.878783" lon="-4.454217">
        <ele>2451.0</ele>
        <time>2013-07-03T14:59:16Z</time>
      </trkpt>
      <trkpt lat="39.878783" lon="-4.454083">
        <ele>2451.0</ele>
        <time>2013-07-03T14:59:17Z</time>
      </trkpt>
      <trkpt lat="39.878783" lon="-4.453950">
        <ele>2450.0</ele>
        <time>2013-07-03T14:59:18Z</time>
      </trkpt>
      <trkpt lat="39.878767" lon="-4.453833">
        <ele>2450.0</ele>
        <time>2013-07-03T14:59:19Z</time>
      </trkpt>
      <trkpt lat="39.878767" lon="-4.453733">
        <ele>2449.0</ele>
        <time>2013-07-03T14:59:20Z</time>
      </trkpt>
      <trkpt lat="39.878750" lon="-4.453633">
        <ele>2449.0</ele>
        <time>2013-07-03T14:59:21Z</time>
      </trkpt>
      <trkpt lat="39.878733" lon="-4.453517">
        <ele>2447.0</ele>
        <time>2013-07-03T14:59:22Z</time>
      </trkpt>
      <trkpt lat="39.878717" lon="-4.453400">
        <ele>2444.0</ele>
        <time>2013-07-03T14:59:23Z</time>
      </trkpt>
      <trkpt lat="39.878683" lon="-4.453283">
        <ele>2441.0</ele>
        <time>2013-07-03T14:59:24Z</time>
      </trkpt>
      <trkpt lat="39.878667" lon="-4.453117">
        <ele>2440.0</ele>
        <time>2013-07-03T14:59:25Z</time>
      </trkpt>
      <trkpt lat="39.878617" lon="-4.452967">
        <ele>2442.0</ele>
        <time>2013-07-03T14:59:26Z</time>
      </trkpt>
      <trkpt lat="39.878567" lon="-4.452850">
        <ele>2444.0</ele>
        <time>2013-07-03T14:59:27Z</time>
      </trkpt>
      <trkpt lat="39.878500" lon="-4.452750">
        <ele>2445.0</ele>
        <time>2013-07-03T14:59:28Z</time>
      </trkpt>
      <trkpt lat="39.878450" lon="-4.452667">
        <ele>2447.0</ele>
        <time>2013-07-03T14:59:29Z</time>
      </trkpt>
      <trkpt lat="39.878417" lon="-4.452583">
        <ele>2448.0</ele>
        <time>2013-07-03T14:59:30Z</time>
      </trkpt>
      <trkpt lat="39.878383" lon="-4.452517">
        <ele>2448.0</ele>
        <time>2013-07-03T14:59:31Z</time>
      </trkpt>
      <trkpt lat="39.878350" lon="-4.452450">
        <ele>2448.0</ele>
        <time>2013-07-03T14:59:32Z</time>
      </trkpt>
      <trkpt lat="39.878317" lon="-4.452383">
        <ele>2447.0</ele>
        <time>2013-07-03T14:59:33Z</time>
      </trkpt>
      <trkpt lat="39.878300" lon="-4.452300">
        <ele>2445.0</ele>
        <time>2013-07-03T14:59:34Z</time>
      </trkpt>
      <trkpt lat="39.878317" lon="-4.452217">
        <ele>2443.0</ele>
        <time>2013-07-03T14:59:35Z</time>
      </trkpt>
      <trkpt lat="39.878350" lon="-4.452150">
        <ele>2442.0</ele>
        <time>2013-07-03T14:59:36Z</time>
      </trkpt>
      <trkpt lat="39.878383" lon="-4.452100">
        <ele>2441.0</ele>
        <time>2013-07-03T14:59:37Z</time>
      </trkpt>
      <trkpt lat="39.878433" lon="-4.452083">
        <ele>2440.0</ele>
        <time>2013-07-03T14:59:38Z</time>
      </trkpt>
      <trkpt lat="39.878483" lon="-4.452100">
        <ele>2440.0</ele>
        <time>2013-07-03T14:59:39Z</time>
      </trkpt>
      <trkpt lat="39.878533" lon="-4.452133">
        <ele>2439.0</ele>
        <time>2013-07-03T14:59:40Z</time>
      </trkpt>
      <trkpt lat="39.878567" lon="-4.452200">
        <ele>2439.0</ele>
        <time>2013-07-03T14:59:41Z</time>
      </trkpt>
      <trkpt lat="39.878583" lon="-4.452267">
        <ele>2438.0</ele>
        <time>2013-07-03T14:59:42Z</time>
      </trkpt>
      <trkpt lat="39.878583" lon="-4.452367">
        <ele>2438.0</ele>
        <time>2013-07-03T14:59:43Z</time>
      </trkpt>
      <trkpt lat="39.878583" lon="-4.452467">
        <ele>2437.0</ele>
        <time>2013-07-03T14:59:44Z</time>
      </trkpt>
      <trkpt lat="39.878550" lon="-4.452567">
        <ele>2435.0</ele>
        <time>2013-07-03T14:59:45Z</time>
      </trkpt>
      <trkpt lat="39.878517" lon="-4.452683">
        <ele>2434.0</ele>
        <time>2013-07-03T14:59:46Z</time>
      </trkpt>
      <trkpt lat="39.878450" lon="-4.452800">
        <ele>2433.0</ele>
        <time>2013-07-03T14:59:47Z</time>
      </trkpt>
      <trkpt lat="39.878383" lon="-4.452900">
        <ele>2432.0</ele>
        <time>2013-07-03T14:59:48Z</time>
      </trkpt>
      <trkpt lat="39.878283" lon="-4.452967">
        <ele>2430.0</ele>
        <time>2013-07-03T14:59:49Z</time>
      </trkpt>
      <trkpt lat="39.878183" lon="-4.452950">
        <ele>2426.0</ele>
        <time>2013-07-03T14:59:50Z</time>
      </trkpt>
      <trkpt lat="39.878067" lon="-4.452900">
        <ele>2424.0</ele>
        <time>2013-07-03T14:59:51Z</time>
      </trkpt>
      <trkpt lat="39.877967" lon="-4.452800">
        <ele>2423.0</ele>
        <time>2013-07-03T14:59:52Z</time>
      </trkpt>
      <trkpt lat="39.877850" lon="-4.452717">
        <ele>2423.0</ele>
        <time>2013-07-03T14:59:53Z</time>
      </trkpt>
      <trkpt lat="39.877750" lon="-4.452650">
        <ele>2423.0</ele>
        <time>2013-07-03T14:59:54Z</time>
      </trkpt>
      <trkpt lat="39.877667" lon="-4.452583">
        <ele>2424.0</ele>
        <time>2013-07-03T14:59:55Z</time>
      </trkpt>
      <trkpt lat="39.877583" lon="-4.452517">
        <ele>2424.0</ele>
        <time>2013-07-03T14:59:56Z</time>
      </trkpt>
      <trkpt lat="39.877483" lon="-4.452450">
        <ele>2425.0</ele>
        <time>2013-07-03T14:59:57Z</time>
      </trkpt>
      <trkpt lat="39.877417" lon="-4.452383">
        <ele>2425.0</ele>
        <time>2013-07-03T14:59:58Z</time>
      </trkpt>
      <trkpt lat="39.877333" lon="-4.452333">
        <ele>2423.0</ele>
        <time>2013-07-03T14:59:59Z</time>
      </trkpt>
      <trkpt lat="39.877250" lon="-4.452250">
        <ele>2420.0</ele>
        <time>2013-07-03T15:00:00Z</time>
      </trkpt>
      <trkpt lat="39.877183" lon="-4.452150">
        <ele>2418.0</ele>
        <time>2013-07-03T15:00:01Z</time>
      </trkpt>
      <trkpt lat="39.877117" lon="-4.452017">
        <ele>2414.0</ele>
        <time>2013-07-03T15:00:02Z</time>
      </trkpt>
      <trkpt lat="39.877033" lon="-4.451883">
        <ele>2412.0</ele>
        <time>2013-07-03T15:00:03Z</time>
      </trkpt>
      <trkpt lat="39.876950" lon="-4.451750">
        <ele>2409.0</ele>
        <time>2013-07-03T15:00:04Z</time>
      </trkpt>
      <trkpt lat="39.876850" lon="-4.451633">
        <ele>2409.0</ele>
        <time>2013-07-03T15:00:05Z</time>
      </trkpt>
      <trkpt lat="39.876767" lon="-4.451550">
        <ele>2409.0</ele>
        <time>2013-07-03T15:00:06Z</time>
      </trkpt>
      <trkpt lat="39.876683" lon="-4.451483">
        <ele>2408.0</ele>
        <time>2013-07-03T15:00:07Z</time>
      </trkpt>
      <trkpt lat="39.876600" lon="-4.451417">
        <ele>2406.0</ele>
        <time>2013-07-03T15:00:08Z</time>
      </trkpt>
      <trkpt lat="39.876533" lon="-4.451333">
        <ele>2401.0</ele>
        <time>2013-07-03T15:00:09Z</time>
      </trkpt>
      <trkpt lat="39.876450" lon="-4.451233">
        <ele>2397.0</ele>
        <time>2013-07-03T15:00:10Z</time>
      </trkpt>
      <trkpt lat="39.876367" lon="-4.451100">
        <ele>2392.0</ele>
        <time>2013-07-03T15:00:11Z</time>
      </trkpt>
      <trkpt lat="39.876283" lon="-4.450983">
        <ele>2389.0</ele>
        <time>2013-07-03T15:00:12Z</time>
      </trkpt>
      <trkpt lat="39.876200" lon="-4.450867">
        <ele>2386.0</ele>
        <time>2013-07-03T15:00:13Z</time>
      </trkpt>
      <trkpt lat="39.876117" lon="-4.450767">
        <ele>2384.0</ele>
        <time>2013-07-03T15:00:14Z</time>
      </trkpt>
      <trkpt lat="39.876050" lon="-4.450667">
        <ele>2381.0</ele>
        <time>2013-07-03T15:00:15Z</time>
      </trkpt>
      <trkpt lat="39.875983" lon="-4.450583">
        <ele>2377.0</ele>
        <time>2013-07-03T15:00:16Z</time>
      </trkpt>
      <trkpt lat="39.875917" lon="-4.450467">
        <ele>2373.0</ele>
        <time>2013-07-03T15:00:17Z</time>
      </trkpt>
      <trkpt lat="39.875833" lon="-4.450367">
        <ele>2370.0</ele>
        <time>2013-07-03T15:00:18Z</time>
      </trkpt>
      <trkpt lat="39.875767" lon="-4.450250">
        <ele>2368.0</ele>
        <time>2013-07-03T15:00:19Z</time>
      </trkpt>
      <trkpt lat="39.875700" lon="-4.450133">
        <ele>2365.0</ele>
        <time>2013-07-03T15:00:20Z</time>
      </trkpt>
      <trkpt lat="39.875633" lon="-4.450017">
        <ele>2363.0</ele>
        <time>2013-07-03T15:00:21Z</time>
      </trkpt>
      <trkpt lat="39.875583" lon="-4.449900">
        <ele>2360.0</ele>
        <time>2013-07-03T15:00:22Z</time>
      </trkpt>
      <trkpt lat="39.875517" lon="-4.449767">
        <ele>2357.0</ele>
        <time>2013-07-03T15:00:23Z</time>
      </trkpt>
      <trkpt lat="39.875467" lon="-4.449633">
        <ele>2354.0</ele>
        <time>2013-07-03T15:00:24Z</time>
      </trkpt>
      <trkpt lat="39.875417" lon="-4.449500">
        <ele>2351.0</ele>
        <time>2013-07-03T15:00:25Z</time>
      </trkpt>
      <trkpt lat="39.875367" lon="-4.449383">
        <ele>2350.0</ele>
        <time>2013-07-03T15:00:26Z</time>
      </trkpt>
      <trkpt lat="39.875300" lon="-4.449267">
        <ele>2348.0</ele>
        <time>2013-07-03T15:00:27Z</time>
      </trkpt>
      <trkpt lat="39.875250" lon="-4.449167">
        <ele>2346.0</ele>
        <time>2013-07-03T15:00:28Z</time>
      </trkpt>
      <trkpt lat="39.875200" lon="-4.449067">
        <ele>2341.0</ele>
        <time>2013-07-03T15:00:29Z</time>
      </trkpt>
      <trkpt lat="39.875150" lon="-4.448950">
        <ele>2337.0</ele>
        <time>2013-07-03T15:00:30Z</time>
      </trkpt>
      <trkpt lat="39.875100" lon="-4.448800">
        <ele>2333.0</ele>
        <time>2013-07-03T15:00:31Z</time>
      </trkpt>
      <trkpt lat="39.875033" lon="-4.448667">
        <ele>2330.0</ele>
        <time>2013-07-03T15:00:32Z</time>
      </trkpt>
      <trkpt lat="39.874967" lon="-4.448533">
        <ele>2327.0</ele>
        <time>2013-07-03T15:00:33Z</time>
      </trkpt>
      <trkpt lat="39.874917" lon="-4.448400">
        <ele>2325.0</ele>
        <time>2013-07-03T15:00:34Z</time>
      </trkpt>
      <trkpt lat="39.874867" lon="-4.448267">
        <ele>2322.0</ele>
        <time>2013-07-03T15:00:35Z</time>
      </trkpt>
      <trkpt lat="39.874817" lon="-4.448133">
        <ele>2319.0</ele>
        <time>2013-07-03T15:00:36Z</time>
      </trkpt>
      <trkpt lat="39.874767" lon="-4.448000">
        <ele>2316.0</ele>
        <time>2013-07-03T15:00:37Z</time>
      </trkpt>
      <trkpt lat="39.874700" lon="-4.447867">
        <ele>2312.0</ele>
        <time>2013-07-03T15:00:38Z</time>
      </trkpt>
      <trkpt lat="39.874633" lon="-4.447733">
        <ele>2309.0</ele>
        <time>2013-07-03T15:00:39Z</time>
      </trkpt>
      <trkpt lat="39.874567" lon="-4.447600">
        <ele>2306.0</ele>
        <time>2013-07-03T15:00:40Z</time>
      </trkpt>
      <trkpt lat="39.874533" lon="-4.447467">
        <ele>2302.0</ele>
        <time>2013-07-03T15:00:41Z</time>
      </trkpt>
      <trkpt lat="39.874483" lon="-4.447317">
        <ele>2299.0</ele>
        <time>2013-07-03T15:00:42Z</time>
      </trkpt>
      <trkpt lat="39.874433" lon="-4.447183">
        <ele>2295.0</ele>
        <time>2013-07-03T15:00:43Z</time>
      </trkpt>
      <trkpt lat="39.874383" lon="-4.447050">
        <ele>2293.0</ele>
        <time>2013-07-03T15:00:44Z</time>
      </trkpt>
      <trkpt lat="39.874317" lon="-4.446900">
        <ele>2291.0</ele>
        <time>2013-07-03T15:00:45Z</time>
      </trkpt>
      <trkpt lat="39.874267" lon="-4.446767">
        <ele>2289.0</ele>
        <time>2013-07-03T15:00:46Z</time>
      </trkpt>
      <trkpt lat="39.874200" lon="-4.446633">
        <ele>2286.0</ele>
        <time>2013-07-03T15:00:47Z</time>
      </trkpt>
      <trkpt lat="39.874117" lon="-4.446500">
        <ele>2283.0</ele>
        <time>2013-07-03T15:00:48Z</time>
      </trkpt>
      <trkpt lat="39.874050" lon="-4.446350">
        <ele>2280.0</ele>
        <time>2013-07-03T15:00:49Z</time>
      </trkpt>
      <trkpt lat="39.873967" lon="-4.446200">
        <ele>2278.0</ele>
        <time>2013-07-03T15:00:50Z</time>
      </trkpt>
      <trkpt lat="39.873917" lon="-4.446033">
        <ele>2277.0</ele>
        <time>2013-07-03T15:00:51Z</time>
      </trkpt>
      <trkpt lat="39.873850" lon="-4.445883">
        <ele>2276.0</ele>
        <time>2013-07-03T15:00:52Z</time>
      </trkpt>
      <trkpt lat="39.873800" lon="-4.445733">
        <ele>2274.0</ele>
        <time>2013-07-03T15:00:53Z</time>
      </trkpt>
      <trkpt lat="39.873750" lon="-4.445567">
        <ele>2273.0</ele>
        <time>2013-07-03T15:00:54Z</time>
      </trkpt>
      <trkpt lat="39.873700" lon="-4.445400">
        <ele>2272.0</ele>
        <time>2013-07-03T15:00:55Z</time>
      </trkpt>
      <trkpt lat="39.873667" lon="-4.445233">
        <ele>2271.0</ele>
        <time>2013-07-03T15:00:56Z</time>
      </trkpt>
      <trkpt lat="39.873633" lon="-4.445067">
        <ele>2270.0</ele>
        <time>2013-07-03T15:00:57Z</time>
      </trkpt>
      <trkpt lat="39.873583" lon="-4.444900">
        <ele>2270.0</ele>
        <time>2013-07-03T15:00:58Z</time>
      </trkpt>
      <trkpt lat="39.873550" lon="-4.444750">
        <ele>2270.0</ele>
        <time>2013-07-03T15:00:59Z</time>
      </trkpt>
      <trkpt lat="39.873517" lon="-4.444600">
        <ele>2270.0</ele>
        <time>2013-07-03T15:01:00Z</time>
      </trkpt>
      <trkpt lat="39.873467" lon="-4.444433">
        <ele>2269.0</ele>
        <time>2013-07-03T15:01:01Z</time>
      </trkpt>
      <trkpt lat="39.873433" lon="-4.444267">
        <ele>2269.0</ele>
        <time>2013-07-03T15:01:02Z</time>
      </trkpt>
      <trkpt lat="39.873383" lon="-4.444117">
        <ele>2268.0</ele>
        <time>2013-07-03T15:01:03Z</time>
      </trkpt>
      <trkpt lat="39.873350" lon="-4.443967">
        <ele>2267.0</ele>
        <time>2013-07-03T15:01:04Z</time>
      </trkpt>
      <trkpt lat="39.873300" lon="-4.443817">
        <ele>2265.0</ele>
        <time>2013-07-03T15:01:05Z</time>
      </trkpt>
      <trkpt lat="39.873250" lon="-4.443667">
        <ele>2262.0</ele>
        <time>2013-07-03T15:01:06Z</time>
      </trkpt>
      <trkpt lat="39.873217" lon="-4.443500">
        <ele>2260.0</ele>
        <time>2013-07-03T15:01:07Z</time>
      </trkpt>
      <trkpt lat="39.873183" lon="-4.443333">
        <ele>2258.0</ele>
        <time>2013-07-03T15:01:08Z</time>
      </trkpt>
      <trkpt lat="39.873167" lon="-4.443183">
        <ele>2256.0</ele>
        <time>2013-07-03T15:01:09Z</time>
      </trkpt>
      <trkpt lat="39.873133" lon="-4.443033">
        <ele>2256.0</ele>
        <time>2013-07-03T15:01:10Z</time>
      </trkpt>
      <trkpt lat="39.873083" lon="-4.442883">
        <ele>2255.0</ele>
        <time>2013-07-03T15:01:11Z</time>
      </trkpt>
      <trkpt lat="39.873050" lon="-4.442733">
        <ele>2254.0</ele>
        <time>2013-07-03T15:01:12Z</time>
      </trkpt>
      <trkpt lat="39.873017" lon="-4.442583">
        <ele>2253.0</ele>
        <time>2013-07-03T15:01:13Z</time>
      </trkpt>
      <trkpt lat="39.872983" lon="-4.442450">
        <ele>2252.0</ele>
        <time>2013-07-03T15:01:14Z</time>
      </trkpt>
      <trkpt lat="39.872967" lon="-4.442317">
        <ele>2251.0</ele>
        <time>2013-07-03T15:01:15Z</time>
      </trkpt>
      <trkpt lat="39.872950" lon="-4.442167">
        <ele>2249.0</ele>
        <time>2013-07-03T15:01:16Z</time>
      </trkpt>
      <trkpt lat="39.872917" lon="-4.442033">
        <ele>2248.0</ele>
        <time>2013-07-03T15:01:17Z</time>
      </trkpt>
      <trkpt lat="39.872867" lon="-4.441883">
        <ele>2246.0</ele>
        <time>2013-07-03T15:01:18Z</time>
      </trkpt>
      <trkpt lat="39.872833" lon="-4.441733">
        <ele>2245.0</ele>
        <time>2013-07-03T15:01:19Z</time>
      </trkpt>
      <trkpt lat="39.872783" lon="-4.441600">
        <ele>2244.0</ele>
        <time>2013-07-03T15:01:20Z</time>
      </trkpt>
      <trkpt lat="39.872750" lon="-4.441467">
        <ele>2243.0</ele>
        <time>2013-07-03T15:01:21Z</time>
      </trkpt>
      <trkpt lat="39.872717" lon="-4.441333">
        <ele>2242.0</ele>
        <time>2013-07-03T15:01:22Z</time>
      </trkpt>
      <trkpt lat="39.872667" lon="-4.441183">
        <ele>2240.0</ele>
        <time>2013-07-03T15:01:23Z</time>
      </trkpt>
      <trkpt lat="39.872617" lon="-4.441017">
        <ele>2238.0</ele>
        <time>2013-07-03T15:01:24Z</time>
      </trkpt>
      <trkpt lat="39.872567" lon="-4.440867">
        <ele>2239.0</ele>
        <time>2013-07-03T15:01:25Z</time>
      </trkpt>
      <trkpt lat="39.872517" lon="-4.440733">
        <ele>2240.0</ele>
        <time>2013-07-03T15:01:26Z</time>
      </trkpt>
      <trkpt lat="39.872483" lon="-4.440617">
        <ele>2241.0</ele>
        <time>2013-07-03T15:01:27Z</time>
      </trkpt>
      <trkpt lat="39.872450" lon="-4.440500">
        <ele>2241.0</ele>
        <time>2013-07-03T15:01:28Z</time>
      </trkpt>
      <trkpt lat="39.872400" lon="-4.440383">
        <ele>2240.0</ele>
        <time>2013-07-03T15:01:29Z</time>
      </trkpt>
      <trkpt lat="39.872350" lon="-4.440250">
        <ele>2239.0</ele>
        <time>2013-07-03T15:01:30Z</time>
      </trkpt>
      <trkpt lat="39.872283" lon="-4.440117">
        <ele>2238.0</ele>
        <time>2013-07-03T15:01:31Z</time>
      </trkpt>
      <trkpt lat="39.872233" lon="-4.439983">
        <ele>2237.0</ele>
        <time>2013-07-03T15:01:32Z</time>
      </trkpt>
      <trkpt lat="39.872183" lon="-4.439833">
        <ele>2236.0</ele>
        <time>2013-07-03T15:01:33Z</time>
      </trkpt>
      <trkpt lat="39.872133" lon="-4.439667">
        <ele>2235.0</ele>
        <time>2013-07-03T15:01:34Z</time>
      </trkpt>
      <trkpt lat="39.872100" lon="-4.439533">
        <ele>2235.0</ele>
        <time>2013-07-03T15:01:35Z</time>
      </trkpt>
      <trkpt lat="39.872050" lon="-4.439417">
        <ele>2235.0</ele>
        <time>2013-07-03T15:01:36Z</time>
      </trkpt>
      <trkpt lat="39.872000" lon="-4.439300">
        <ele>2234.0</ele>
        <time>2013-07-03T15:01:37Z</time>
      </trkpt>
      <trkpt lat="39.871950" lon="-4.439183">
        <ele>2231.0</ele>
        <time>2013-07-03T15:01:38Z</time>
      </trkpt>
      <trkpt lat="39.871900" lon="-4.439050">
        <ele>2228.0</ele>
        <time>2013-07-03T15:01:39Z</time>
      </trkpt>
      <trkpt lat="39.871833" lon="-4.438900">
        <ele>2225.0</ele>
        <time>2013-07-03T15:01:40Z</time>
      </trkpt>
      <trkpt lat="39.871767" lon="-4.438750">
        <ele>2221.0</ele>
        <time>2013-07-03T15:01:41Z</time>
      </trkpt>
      <trkpt lat="39.871683" lon="-4.438617">
        <ele>2219.0</ele>
        <time>2013-07-03T15:01:42Z</time>
      </trkpt>
      <trkpt lat="39.871600" lon="-4.438500">
        <ele>2217.0</ele>
        <time>2013-07-03T15:01:43Z</time>
      </trkpt>
      <trkpt lat="39.871517" lon="-4.438367">
        <ele>2217.0</ele>
        <time>2013-07-03T15:01:44Z</time>
      </trkpt>
      <trkpt lat="39.871450" lon="-4.438250">
        <ele>2216.0</ele>
        <time>2013-07-03T15:01:45Z</time>
      </trkpt>
      <trkpt lat="39.871383" lon="-4.438117">
        <ele>2214.0</ele>
        <time>2013-07-03T15:01:46Z</time>
      </trkpt>
      <trkpt lat="39.871317" lon="-4.437983">
        <ele>2212.0</ele>
        <time>2013-07-03T15:01:47Z</time>
      </trkpt>
      <trkpt lat="39.871233" lon="-4.437867">
        <ele>2210.0</ele>
        <time>2013-07-03T15:01:48Z</time>
      </trkpt>
      <trkpt lat="39.871150" lon="-4.437733">
        <ele>2207.0</ele>
        <time>2013-07-03T15:01:49Z</time>
      </trkpt>
      <trkpt lat="39.871083" lon="-4.437600">
        <ele>2206.0</ele>
        <time>2013-07-03T15:01:50Z</time>
      </trkpt>
      <trkpt lat="39.871000" lon="-4.437483">
        <ele>2205.0</ele>
        <time>2013-07-03T15:01:51Z</time>
      </trkpt>
      <trkpt lat="39.870933" lon="-4.437350">
        <ele>2203.0</ele>
        <time>2013-07-03T15:01:52Z</time>
      </trkpt>
      <trkpt lat="39.870867" lon="-4.437233">
        <ele>2201.0</ele>
        <time>2013-07-03T15:01:53Z</time>
      </trkpt>
      <trkpt lat="39.870783" lon="-4.437100">
        <ele>2199.0</ele>
        <time>2013-07-03T15:01:54Z</time>
      </trkpt>
      <trkpt lat="39.870700" lon="-4.436967">
        <ele>2196.0</ele>
        <time>2013-07-03T15:01:55Z</time>
      </trkpt>
      <trkpt lat="39.870600" lon="-4.436833">
        <ele>2194.0</ele>
        <time>2013-07-03T15:01:56Z</time>
      </trkpt>
      <trkpt lat="39.870517" lon="-4.436733">
        <ele>2193.0</ele>
        <time>2013-07-03T15:01:57Z</time>
      </trkpt>
      <trkpt lat="39.870433" lon="-4.436633">
        <ele>2192.0</ele>
        <time>2013-07-03T15:01:58Z</time>
      </trkpt>
      <trkpt lat="39.870367" lon="-4.436517">
        <ele>2190.0</ele>
        <time>2013-07-03T15:01:59Z</time>
      </trkpt>
      <trkpt lat="39.870283" lon="-4.436417">
        <ele>2189.0</ele>
        <time>2013-07-03T15:02:00Z</time>
      </trkpt>
      <trkpt lat="39.870183" lon="-4.436283">
        <ele>2187.0</ele>
        <time>2013-07-03T15:02:01Z</time>
      </trkpt>
      <trkpt lat="39.870083" lon="-4.436167">
        <ele>2186.0</ele>
        <time>2013-07-03T15:02:02Z</time>
      </trkpt>
      <trkpt lat="39.870000" lon="-4.436067">
        <ele>2185.0</ele>
        <time>2013-07-03T15:02:03Z</time>
      </trkpt>
      <trkpt lat="39.869900" lon="-4.435967">
        <ele>2184.0</ele>
        <time>2013-07-03T15:02:04Z</time>
      </trkpt>
      <trkpt lat="39.869817" lon="-4.435867">
        <ele>2182.0</ele>
        <time>2013-07-03T15:02:05Z</time>
      </trkpt>
      <trkpt lat="39.869733" lon="-4.435750">
        <ele>2179.0</ele>
        <time>2013-07-03T15:02:06Z</time>
      </trkpt>
      <trkpt lat="39.869633" lon="-4.435633">
        <ele>2175.0</ele>
        <time>2013-07-03T15:02:07Z</time>
      </trkpt>
      <trkpt lat="39.869517" lon="-4.435517">
        <ele>2173.0</ele>
        <time>2013-07-03T15:02:08Z</time>
      </trkpt>
      <trkpt lat="39.869417" lon="-4.435400">
        <ele>2171.0</ele>
        <time>2013-07-03T15:02:09Z</time>
      </trkpt>
      <trkpt lat="39.869333" lon="-4.435300">
        <ele>2171.0</ele>
        <time>2013-07-03T15:02:10Z</time>
      </trkpt>
      <trkpt lat="39.869250" lon="-4.435200">
        <ele>2168.0</ele>
        <time>2013-07-03T15:02:11Z</time>
      </trkpt>
      <trkpt lat="39.869150" lon="-4.435083">
        <ele>2166.0</ele>
        <time>2013-07-03T15:02:12Z</time>
      </trkpt>
      <trkpt lat="39.869067" lon="-4.434967">
        <ele>2162.0</ele>
        <time>2013-07-03T15:02:13Z</time>
      </trkpt>
      <trkpt lat="39.868967" lon="-4.434850">
        <ele>2158.0</ele>
        <time>2013-07-03T15:02:14Z</time>
      </trkpt>
      <trkpt lat="39.868883" lon="-4.434717">
        <ele>2155.0</ele>
        <time>2013-07-03T15:02:15Z</time>
      </trkpt>
      <trkpt lat="39.868800" lon="-4.434583">
        <ele>2153.0</ele>
        <time>2013-07-03T15:02:16Z</time>
      </trkpt>
      <trkpt lat="39.868717" lon="-4.434483">
        <ele>2151.0</ele>
        <time>2013-07-03T15:02:17Z</time>
      </trkpt>
      <trkpt lat="39.868650" lon="-4.434383">
        <ele>2150.0</ele>
        <time>2013-07-03T15:02:18Z</time>
      </trkpt>
      <trkpt lat="39.868567" lon="-4.434267">
        <ele>2147.0</ele>
        <time>2013-07-03T15:02:19Z</time>
      </trkpt>
      <trkpt lat="39.868483" lon="-4.434150">
        <ele>2145.0</ele>
        <time>2013-07-03T15:02:20Z</time>
      </trkpt>
      <trkpt lat="39.868400" lon="-4.434017">
        <ele>2143.0</ele>
        <time>2013-07-03T15:02:21Z</time>
      </trkpt>
      <trkpt lat="39.868317" lon="-4.433883">
        <ele>2142.0</ele>
        <time>2013-07-03T15:02:22Z</time>
      </trkpt>
      <trkpt lat="39.868250" lon="-4.433767">
        <ele>2141.0</ele>
        <time>2013-07-03T15:02:23Z</time>
      </trkpt>
      <trkpt lat="39.868183" lon="-4.433667">
        <ele>2140.0</ele>
        <time>2013-07-03T15:02:24Z</time>
      </trkpt>
      <trkpt lat="39.868117" lon="-4.433550">
        <ele>2139.0</ele>
        <time>2013-07-03T15:02:25Z</time>
      </trkpt>
      <trkpt lat="39.868033" lon="-4.433433">
        <ele>2137.0</ele>
        <time>2013-07-03T15:02:26Z</time>
      </trkpt>
      <trkpt lat="39.867950" lon="-4.433317">
        <ele>2135.0</ele>
        <time>2013-07-03T15:02:27Z</time>
      </trkpt>
      <trkpt lat="39.867850" lon="-4.433200">
        <ele>2133.0</ele>
        <time>2013-07-03T15:02:28Z</time>
      </trkpt>
      <trkpt lat="39.867767" lon="-4.433083">
        <ele>2132.0</ele>
        <time>2013-07-03T15:02:29Z</time>
      </trkpt>
      <trkpt lat="39.867700" lon="-4.432967">
        <ele>2131.0</ele>
        <time>2013-07-03T15:02:30Z</time>
      </trkpt>
      <trkpt lat="39.867617" lon="-4.432850">
        <ele>2130.0</ele>
        <time>2013-07-03T15:02:31Z</time>
      </trkpt>
      <trkpt lat="39.867550" lon="-4.432733">
        <ele>2128.0</ele>
        <time>2013-07-03T15:02:32Z</time>
      </trkpt>
      <trkpt lat="39.867467" lon="-4.432617">
        <ele>2125.0</ele>
        <time>2013-07-03T15:02:33Z</time>
      </trkpt>
      <trkpt lat="39.867400" lon="-4.432483">
        <ele>2122.0</ele>
        <time>2013-07-03T15:02:34Z</time>
      </trkpt>
      <trkpt lat="39.867317" lon="-4.432350">
        <ele>2119.0</ele>
        <time>2013-07-03T15:02:35Z</time>
      </trkpt>
      <trkpt lat="39.867233" lon="-4.432217">
        <ele>2117.0</ele>
        <time>2013-07-03T15:02:36Z</time>
      </trkpt>
      <trkpt lat="39.867150" lon="-4.432100">
        <ele>2115.0</ele>
        <time>2013-07-03T15:02:37Z</time>
      </trkpt>
      <trkpt lat="39.867083" lon="-4.431983">
        <ele>2113.0</ele>
        <time>2013-07-03T15:02:38Z</time>
      </trkpt>
      <trkpt lat="39.867000" lon="-4.431867">
        <ele>2111.0</ele>
        <time>2013-07-03T15:02:39Z</time>
      </trkpt>
      <trkpt lat="39.866933" lon="-4.431767">
        <ele>2108.0</ele>
        <time>2013-07-03T15:02:40Z</time>
      </trkpt>
      <trkpt lat="39.866867" lon="-4.431650">
        <ele>2105.0</ele>
        <time>2013-07-03T15:02:41Z</time>
      </trkpt>
      <trkpt lat="39.866783" lon="-4.431533">
        <ele>2102.0</ele>
        <time>2013-07-03T15:02:42Z</time>
      </trkpt>
      <trkpt lat="39.866717" lon="-4.431417">
        <ele>2098.0</ele>
        <time>2013-07-03T15:02:43Z</time>
      </trkpt>
      <trkpt lat="39.866633" lon="-4.431317">
        <ele>2095.0</ele>
        <time>2013-07-03T15:02:44Z</time>
      </trkpt>
      <trkpt lat="39.866550" lon="-4.431200">
        <ele>2092.0</ele>
        <time>2013-07-03T15:02:45Z</time>
      </trkpt>
      <trkpt lat="39.866483" lon="-4.431083">
        <ele>2089.0</ele>
        <time>2013-07-03T15:02:46Z</time>
      </trkpt>
      <trkpt lat="39.866400" lon="-4.430967">
        <ele>2086.0</ele>
        <time>2013-07-03T15:02:47Z</time>
      </trkpt>
      <trkpt lat="39.866317" lon="-4.430850">
        <ele>2083.0</ele>
        <time>2013-07-03T15:02:48Z</time>
      </trkpt>
      <trkpt lat="39.866233" lon="-4.430733">
        <ele>2080.0</ele>
        <time>2013-07-03T15:02:49Z</time>
      </trkpt>
      <trkpt lat="39.866167" lon="-4.430633">
        <ele>2077.0</ele>
        <time>2013-07-03T15:02:50Z</time>
      </trkpt>
      <trkpt lat="39.866083" lon="-4.430517">
        <ele>2074.0</ele>
        <time>2013-07-03T15:02:51Z</time>
      </trkpt>
      <trkpt lat="39.865983" lon="-4.430400">
        <ele>2071.0</ele>
        <time>2013-07-03T15:02:52Z</time>
      </trkpt>
      <trkpt lat="39.865900" lon="-4.430283">
        <ele>2069.0</ele>
        <time>2013-07-03T15:02:53Z</time>
      </trkpt>
      <trkpt lat="39.865817" lon="-4.430183">
        <ele>2066.0</ele>
        <time>2013-07-03T15:02:54Z</time>
      </trkpt>
      <trkpt lat="39.865717" lon="-4.430050">
        <ele>2063.0</ele>
        <time>2013-07-03T15:02:55Z</time>
      </trkpt>
      <trkpt lat="39.865633" lon="-4.429933">
        <ele>2059.0</ele>
        <time>2013-07-03T15:02:56Z</time>
      </trkpt>
      <trkpt lat="39.865533" lon="-4.429800">
        <ele>2056.0</ele>
        <time>2013-07-03T15:02:57Z</time>
      </trkpt>
      <trkpt lat="39.865433" lon="-4.429683">
        <ele>2053.0</ele>
        <time>2013-07-03T15:02:58Z</time>
      </trkpt>
      <trkpt lat="39.865350" lon="-4.429583">
        <ele>2052.0</ele>
        <time>2013-07-03T15:02:59Z</time>
      </trkpt>
      <trkpt lat="39.865250" lon="-4.429500">
        <ele>2049.0</ele>
        <time>2013-07-03T15:03:00Z</time>
      </trkpt>
      <trkpt lat="39.865150" lon="-4.429417">
        <ele>2047.0</ele>
        <time>2013-07-03T15:03:01Z</time>
      </trkpt>
      <trkpt lat="39.865050" lon="-4.429350">
        <ele>2044.0</ele>
        <time>2013-07-03T15:03:02Z</time>
      </trkpt>
      <trkpt lat="39.864950" lon="-4.429267">
        <ele>2037.0</ele>
        <time>2013-07-03T15:03:03Z</time>
      </trkpt>
      <trkpt lat="39.864850" lon="-4.429167">
        <ele>2033.0</ele>
        <time>2013-07-03T15:03:04Z</time>
      </trkpt>
      <trkpt lat="39.864733" lon="-4.429083">
        <ele>2029.0</ele>
        <time>2013-07-03T15:03:05Z</time>
      </trkpt>
      <trkpt lat="39.864617" lon="-4.429000">
        <ele>2027.0</ele>
        <time>2013-07-03T15:03:06Z</time>
      </trkpt>
      <trkpt lat="39.864517" lon="-4.428917">
        <ele>2027.0</ele>
        <time>2013-07-03T15:03:07Z</time>
      </trkpt>
      <trkpt lat="39.864417" lon="-4.428833">
        <ele>2026.0</ele>
        <time>2013-07-03T15:03:08Z</time>
      </trkpt>
      <trkpt lat="39.864317" lon="-4.428750">
        <ele>2024.0</ele>
        <time>2013-07-03T15:03:09Z</time>
      </trkpt>
      <trkpt lat="39.864233" lon="-4.428683">
        <ele>2022.0</ele>
        <time>2013-07-03T15:03:10Z</time>
      </trkpt>
      <trkpt lat="39.864133" lon="-4.428617">
        <ele>2019.0</ele>
        <time>2013-07-03T15:03:11Z</time>
      </trkpt>
      <trkpt lat="39.864017" lon="-4.428533">
        <ele>2015.0</ele>
        <time>2013-07-03T15:03:12Z</time>
      </trkpt>
      <trkpt lat="39.863917" lon="-4.428450">
        <ele>2011.0</ele>
        <time>2013-07-03T15:03:13Z</time>
      </trkpt>
      <trkpt lat="39.863800" lon="-4.428350">
        <ele>2009.0</ele>
        <time>2013-07-03T15:03:14Z</time>
      </trkpt>
      <trkpt lat="39.863700" lon="-4.428267">
        <ele>2006.0</ele>
        <time>2013-07-03T15:03:15Z</time>
      </trkpt>
      <trkpt lat="39.863600" lon="-4.428200">
        <ele>2005.0</ele>
        <time>2013-07-03T15:03:16Z</time>
      </trkpt>
      <trkpt lat="39.863500" lon="-4.428117">
        <ele>2002.0</ele>
        <time>2013-07-03T15:03:17Z</time>
      </trkpt>
      <trkpt lat="39.863417" lon="-4.428000">
        <ele>1999.0</ele>
        <time>2013-07-03T15:03:18Z</time>
      </trkpt>
      <trkpt lat="39.863317" lon="-4.427883">
        <ele>1996.0</ele>
        <time>2013-07-03T15:03:19Z</time>
      </trkpt>
      <trkpt lat="39.863217" lon="-4.427783">
        <ele>1994.0</ele>
        <time>2013-07-03T15:03:20Z</time>
      </trkpt>
      <trkpt lat="39.863117" lon="-4.427700">
        <ele>1992.0</ele>
        <time>2013-07-03T15:03:21Z</time>
      </trkpt>
      <trkpt lat="39.863000" lon="-4.427617">
        <ele>1991.0</ele>
        <time>2013-07-03T15:03:22Z</time>
      </trkpt>
      <trkpt lat="39.862917" lon="-4.427517">
        <ele>1989.0</ele>
        <time>2013-07-03T15:03:23Z</time>
      </trkpt>
      <trkpt lat="39.862817" lon="-4.427400">
        <ele>1987.0</ele>
        <time>2013-07-03T15:03:24Z</time>
      </trkpt>
      <trkpt lat="39.862733" lon="-4.427267">
        <ele>1984.0</ele>
        <time>2013-07-03T15:03:25Z</time>
      </trkpt>
      <trkpt lat="39.862633" lon="-4.427150">
        <ele>1982.0</ele>
        <time>2013-07-03T15:03:26Z</time>
      </trkpt>
      <trkpt lat="39.862550" lon="-4.427050">
        <ele>1980.0</ele>
        <time>2013-07-03T15:03:27Z</time>
      </trkpt>
      <trkpt lat="39.862450" lon="-4.426933">
        <ele>1977.0</ele>
        <time>2013-07-03T15:03:28Z</time>
      </trkpt>
      <trkpt lat="39.862367" lon="-4.426817">
        <ele>1975.0</ele>
        <time>2013-07-03T15:03:29Z</time>
      </trkpt>
      <trkpt lat="39.862267" lon="-4.426717">
        <ele>1972.0</ele>
        <time>2013-07-03T15:03:30Z</time>
      </trkpt>
      <trkpt lat="39.862167" lon="-4.426600">
        <ele>1968.0</ele>
        <time>2013-07-03T15:03:31Z</time>
      </trkpt>
      <trkpt lat="39.862067" lon="-4.426500">
        <ele>1965.0</ele>
        <time>2013-07-03T15:03:32Z</time>
      </trkpt>
      <trkpt lat="39.861950" lon="-4.426367">
        <ele>1961.0</ele>
        <time>2013-07-03T15:03:33Z</time>
      </trkpt>
      <trkpt lat="39.861850" lon="-4.426233">
        <ele>1958.0</ele>
        <time>2013-07-03T15:03:34Z</time>
      </trkpt>
      <trkpt lat="39.861733" lon="-4.426117">
        <ele>1956.0</ele>
        <time>2013-07-03T15:03:35Z</time>
      </trkpt>
      <trkpt lat="39.861650" lon="-4.425983">
        <ele>1954.0</ele>
        <time>2013-07-03T15:03:36Z</time>
      </trkpt>
      <trkpt lat="39.861550" lon="-4.425850">
        <ele>1951.0</ele>
        <time>2013-07-03T15:03:37Z</time>
      </trkpt>
      <trkpt lat="39.861467" lon="-4.425733">
        <ele>1949.0</ele>
        <time>2013-07-03T15:03:38Z</time>
      </trkpt>
      <trkpt lat="39.861367" lon="-4.425600">
        <ele>1946.0</ele>
        <time>2013-07-03T15:03:39Z</time>
      </trkpt>
      <trkpt lat="39.861267" lon="-4.425467">
        <ele>1943.0</ele>
        <time>2013-07-03T15:03:40Z</time>
      </trkpt>
      <trkpt lat="39.861167" lon="-4.425317">
        <ele>1940.0</ele>
        <time>2013-07-03T15:03:41Z</time>
      </trkpt>
      <trkpt lat="39.861083" lon="-4.425200">
        <ele>1938.0</ele>
        <time>2013-07-03T15:03:42Z</time>
      </trkpt>
      <trkpt lat="39.861000" lon="-4.425067">
        <ele>1937.0</ele>
        <time>2013-07-03T15:03:43Z</time>
      </trkpt>
      <trkpt lat="39.860917" lon="-4.424950">
        <ele>1936.0</ele>
        <time>2013-07-03T15:03:44Z</time>
      </trkpt>
      <trkpt lat="39.860833" lon="-4.424850">
        <ele>1934.0</ele>
        <time>2013-07-03T15:03:45Z</time>
      </trkpt>
      <trkpt lat="39.860750" lon="-4.424717">
        <ele>1931.0</ele>
        <time>2013-07-03T15:03:46Z</time>
      </trkpt>
      <trkpt lat="39.860667" lon="-4.424583">
        <ele>1929.0</ele>
        <time>2013-07-03T15:03:47Z</time>
      </trkpt>
      <trkpt lat="39.860567" lon="-4.424450">
        <ele>1927.0</ele>
        <time>2013-07-03T15:03:48Z</time>
      </trkpt>
      <trkpt lat="39.860483" lon="-4.424333">
        <ele>1925.0</ele>
        <time>2013-07-03T15:03:49Z</time>
      </trkpt>
      <trkpt lat="39.860400" lon="-4.424217">
        <ele>1925.0</ele>
        <time>2013-07-03T15:03:50Z</time>
      </trkpt>
      <trkpt lat="39.860317" lon="-4.424117">
        <ele>1924.0</ele>
        <time>2013-07-03T15:03:51Z</time>
      </trkpt>
      <trkpt lat="39.860233" lon="-4.424017">
        <ele>1921.0</ele>
        <time>2013-07-03T15:03:52Z</time>
      </trkpt>
      <trkpt lat="39.860150" lon="-4.423900">
        <ele>1918.0</ele>
        <time>2013-07-03T15:03:53Z</time>
      </trkpt>
      <trkpt lat="39.860067" lon="-4.423767">
        <ele>1914.0</ele>
        <time>2013-07-03T15:03:54Z</time>
      </trkpt>
      <trkpt lat="39.859967" lon="-4.423617">
        <ele>1911.0</ele>
        <time>2013-07-03T15:03:55Z</time>
      </trkpt>
      <trkpt lat="39.859883" lon="-4.423500">
        <ele>1910.0</ele>
        <time>2013-07-03T15:03:56Z</time>
      </trkpt>
      <trkpt lat="39.859800" lon="-4.423383">
        <ele>1912.0</ele>
        <time>2013-07-03T15:03:57Z</time>
      </trkpt>
      <trkpt lat="39.859717" lon="-4.423300">
        <ele>1912.0</ele>
        <time>2013-07-03T15:03:58Z</time>
      </trkpt>
      <trkpt lat="39.859650" lon="-4.423217">
        <ele>1912.0</ele>
        <time>2013-07-03T15:03:59Z</time>
      </trkpt>
      <trkpt lat="39.859567" lon="-4.423133">
        <ele>1910.0</ele>
        <time>2013-07-03T15:04:00Z</time>
      </trkpt>
      <trkpt lat="39.859500" lon="-4.423033">
        <ele>1906.0</ele>
        <time>2013-07-03T15:04:01Z</time>
      </trkpt>
      <trkpt lat="39.859417" lon="-4.422917">
        <ele>1903.0</ele>
        <time>2013-07-03T15:04:02Z</time>
      </trkpt>
      <trkpt lat="39.859333" lon="-4.422800">
        <ele>1901.0</ele>
        <time>2013-07-03T15:04:03Z</time>
      </trkpt>
      <trkpt lat="39.859250" lon="-4.422700">
        <ele>1901.0</ele>
        <time>2013-07-03T15:04:04Z</time>
      </trkpt>
      <trkpt lat="39.859183" lon="-4.422633">
        <ele>1901.0</ele>
        <time>2013-07-03T15:04:05Z</time>
      </trkpt>
      <trkpt lat="39.859100" lon="-4.422550">
        <ele>1899.0</ele>
        <time>2013-07-03T15:04:06Z</time>
      </trkpt>
      <trkpt lat="39.859017" lon="-4.422450">
        <ele>1897.0</ele>
        <time>2013-07-03T15:04:07Z</time>
      </trkpt>
      <trkpt lat="39.858950" lon="-4.422333">
        <ele>1893.0</ele>
        <time>2013-07-03T15:04:08Z</time>
      </trkpt>
      <trkpt lat="39.858867" lon="-4.422217">
        <ele>1890.0</ele>
        <time>2013-07-03T15:04:09Z</time>
      </trkpt>
      <trkpt lat="39.858767" lon="-4.422117">
        <ele>1888.0</ele>
        <time>2013-07-03T15:04:10Z</time>
      </trkpt>
      <trkpt lat="39.858683" lon="-4.422017">
        <ele>1887.0</ele>
        <time>2013-07-03T15:04:11Z</time>
      </trkpt>
      <trkpt lat="39.858600" lon="-4.421933">
        <ele>1885.0</ele>
        <time>2013-07-03T15:04:12Z</time>
      </trkpt>
      <trkpt lat="39.858500" lon="-4.421850">
        <ele>1883.0</ele>
        <time>2013-07-03T15:04:13Z</time>
      </trkpt>
      <trkpt lat="39.858417" lon="-4.421767">
        <ele>1881.0</ele>
        <time>2013-07-03T15:04:14Z</time>
      </trkpt>
      <trkpt lat="39.858317" lon="-4.421683">
        <ele>1879.0</ele>
        <time>2013-07-03T15:04:15Z</time>
      </trkpt>
      <trkpt lat="39.858217" lon="-4.421600">
        <ele>1877.0</ele>
        <time>2013-07-03T15:04:16Z</time>
      </trkpt>
      <trkpt lat="39.858117" lon="-4.421533">
        <ele>1875.0</ele>
        <time>2013-07-03T15:04:17Z</time>
      </trkpt>
      <trkpt lat="39.858033" lon="-4.421450">
        <ele>1873.0</ele>
        <time>2013-07-03T15:04:18Z</time>
      </trkpt>
      <trkpt lat="39.857917" lon="-4.421367">
        <ele>1870.0</ele>
        <time>2013-07-03T15:04:19Z</time>
      </trkpt>
      <trkpt lat="39.857817" lon="-4.421283">
        <ele>1868.0</ele>
        <time>2013-07-03T15:04:20Z</time>
      </trkpt>
      <trkpt lat="39.857700" lon="-4.421183">
        <ele>1867.0</ele>
        <time>2013-07-03T15:04:21Z</time>
      </trkpt>
      <trkpt lat="39.857600" lon="-4.421100">
        <ele>1867.0</ele>
        <time>2013-07-03T15:04:22Z</time>
      </trkpt>
      <trkpt lat="39.857500" lon="-4.421017">
        <ele>1867.0</ele>
        <time>2013-07-03T15:04:23Z</time>
      </trkpt>
      <trkpt lat="39.857417" lon="-4.420933">
        <ele>1867.0</ele>
        <time>2013-07-03T15:04:24Z</time>
      </trkpt>
      <trkpt lat="39.857333" lon="-4.420850">
        <ele>1866.0</ele>
        <time>2013-07-03T15:04:25Z</time>
      </trkpt>
      <trkpt lat="39.857250" lon="-4.420750">
        <ele>1865.0</ele>
        <time>2013-07-03T15:04:26Z</time>
      </trkpt>
      <trkpt lat="39.857167" lon="-4.420667">
        <ele>1863.0</ele>
        <time>2013-07-03T15:04:27Z</time>
      </trkpt>
      <trkpt lat="39.857067" lon="-4.420583">
        <ele>1861.0</ele>
        <time>2013-07-03T15:04:28Z</time>
      </trkpt>
      <trkpt lat="39.856967" lon="-4.420500">
        <ele>1860.0</ele>
        <time>2013-07-03T15:04:29Z</time>
      </trkpt>
      <trkpt lat="39.856850" lon="-4.420417">
        <ele>1859.0</ele>
        <time>2013-07-03T15:04:30Z</time>
      </trkpt>
      <trkpt lat="39.856767" lon="-4.420333">
        <ele>1859.0</ele>
        <time>2013-07-03T15:04:31Z</time>
      </trkpt>
      <trkpt lat="39.856667" lon="-4.420233">
        <ele>1858.0</ele>
        <time>2013-07-03T15:04:32Z</time>
      </trkpt>
      <trkpt lat="39.856583" lon="-4.420150">
        <ele>1856.0</ele>
        <time>2013-07-03T15:04:33Z</time>
      </trkpt>
      <trkpt lat="39.856483" lon="-4.420050">
        <ele>1855.0</ele>
        <time>2013-07-03T15:04:34Z</time>
      </trkpt>
      <trkpt lat="39.856400" lon="-4.419950">
        <ele>1853.0</ele>
        <time>2013-07-03T15:04:35Z</time>
      </trkpt>
      <trkpt lat="39.856317" lon="-4.419833">
        <ele>1852.0</ele>
        <time>2013-07-03T15:04:36Z</time>
      </trkpt>
      <trkpt lat="39.856250" lon="-4.419733">
        <ele>1851.0</ele>
        <time>2013-07-03T15:04:37Z</time>
      </trkpt>
      <trkpt lat="39.856183" lon="-4.419633">
        <ele>1850.0</ele>
        <time>2013-07-03T15:04:38Z</time>
      </trkpt>
      <trkpt lat="39.856100" lon="-4.419533">
        <ele>1848.0</ele>
        <time>2013-07-03T15:04:39Z</time>
      </trkpt>
      <trkpt lat="39.856017" lon="-4.419417">
        <ele>1845.0</ele>
        <time>2013-07-03T15:04:40Z</time>
      </trkpt>
      <trkpt lat="39.855933" lon="-4.419317">
        <ele>1843.0</ele>
        <time>2013-07-03T15:04:41Z</time>
      </trkpt>
      <trkpt lat="39.855850" lon="-4.419217">
        <ele>1840.0</ele>
        <time>2013-07-03T15:04:42Z</time>
      </trkpt>
      <trkpt lat="39.855767" lon="-4.419100">
        <ele>1838.0</ele>
        <time>2013-07-03T15:04:43Z</time>
      </trkpt>
      <trkpt lat="39.855683" lon="-4.419000">
        <ele>1836.0</ele>
        <time>2013-07-03T15:04:44Z</time>
      </trkpt>
      <trkpt lat="39.855600" lon="-4.418900">
        <ele>1834.0</ele>
        <time>2013-07-03T15:04:45Z</time>
      </trkpt>
      <trkpt lat="39.855517" lon="-4.418817">
        <ele>1832.0</ele>
        <time>2013-07-03T15:04:46Z</time>
      </trkpt>
      <trkpt lat="39.855433" lon="-4.418717">
        <ele>1829.0</ele>
        <time>2013-07-03T15:04:47Z</time>
      </trkpt>
      <trkpt lat="39.855333" lon="-4.418617">
        <ele>1827.0</ele>
        <time>2013-07-03T15:04:48Z</time>
      </trkpt>
      <trkpt lat="39.855250" lon="-4.418517">
        <ele>1824.0</ele>
        <time>2013-07-03T15:04:49Z</time>
      </trkpt>
      <trkpt lat="39.855150" lon="-4.418433">
        <ele>1822.0</ele>
        <time>2013-07-03T15:04:50Z</time>
      </trkpt>
      <trkpt lat="39.855067" lon="-4.418333">
        <ele>1820.0</ele>
        <time>2013-07-03T15:04:51Z</time>
      </trkpt>
      <trkpt lat="39.854983" lon="-4.418250">
        <ele>1818.0</ele>
        <time>2013-07-03T15:04:52Z</time>
      </trkpt>
      <trkpt lat="39.854883" lon="-4.418150">
        <ele>1816.0</ele>
        <time>2013-07-03T15:04:53Z</time>
      </trkpt>
      <trkpt lat="39.854800" lon="-4.418050">
        <ele>1814.0</ele>
        <time>2013-07-03T15:04:54Z</time>
      </trkpt>
      <trkpt lat="39.854733" lon="-4.417967">
        <ele>1813.0</ele>
        <time>2013-07-03T15:04:55Z</time>
      </trkpt>
      <trkpt lat="39.854650" lon="-4.417900">
        <ele>1810.0</ele>
        <time>2013-07-03T15:04:56Z</time>
      </trkpt>
      <trkpt lat="39.854567" lon="-4.417817">
        <ele>1807.0</ele>
        <time>2013-07-03T15:04:57Z</time>
      </trkpt>
      <trkpt lat="39.854467" lon="-4.417733">
        <ele>1804.0</ele>
        <time>2013-07-03T15:04:58Z</time>
      </trkpt>
      <trkpt lat="39.854367" lon="-4.417650">
        <ele>1801.0</ele>
        <time>2013-07-03T15:04:59Z</time>
      </trkpt>
      <trkpt lat="39.854267" lon="-4.417567">
        <ele>1799.0</ele>
        <time>2013-07-03T15:05:00Z</time>
      </trkpt>
      <trkpt lat="39.854167" lon="-4.417517">
        <ele>1799.0</ele>
        <time>2013-07-03T15:05:01Z</time>
      </trkpt>
      <trkpt lat="39.854067" lon="-4.417483">
        <ele>1799.0</ele>
        <time>2013-07-03T15:05:02Z</time>
      </trkpt>
      <trkpt lat="39.853983" lon="-4.417433">
        <ele>1798.0</ele>
        <time>2013-07-03T15:05:03Z</time>
      </trkpt>
      <trkpt lat="39.853900" lon="-4.417383">
        <ele>1797.0</ele>
        <time>2013-07-03T15:05:04Z</time>
      </trkpt>
      <trkpt lat="39.853800" lon="-4.417333">
        <ele>1795.0</ele>
        <time>2013-07-03T15:05:05Z</time>
      </trkpt>
      <trkpt lat="39.853700" lon="-4.417267">
        <ele>1793.0</ele>
        <time>2013-07-03T15:05:06Z</time>
      </trkpt>
      <trkpt lat="39.853600" lon="-4.417217">
        <ele>1792.0</ele>
        <time>2013-07-03T15:05:07Z</time>
      </trkpt>
      <trkpt lat="39.853500" lon="-4.417150">
        <ele>1790.0</ele>
        <time>2013-07-03T15:05:08Z</time>
      </trkpt>
      <trkpt lat="39.853400" lon="-4.417100">
        <ele>1789.0</ele>
        <time>2013-07-03T15:05:09Z</time>
      </trkpt>
      <trkpt lat="39.853317" lon="-4.417050">
        <ele>1788.0</ele>
        <time>2013-07-03T15:05:10Z</time>
      </trkpt>
      <trkpt lat="39.853233" lon="-4.417017">
        <ele>1786.0</ele>
        <time>2013-07-03T15:05:11Z</time>
      </trkpt>
      <trkpt lat="39.853133" lon="-4.416967">
        <ele>1783.0</ele>
        <time>2013-07-03T15:05:12Z</time>
      </trkpt>
      <trkpt lat="39.853017" lon="-4.416933">
        <ele>1781.0</ele>
        <time>2013-07-03T15:05:13Z</time>
      </trkpt>
      <trkpt lat="39.852900" lon="-4.416917">
        <ele>1778.0</ele>
        <time>2013-07-03T15:05:14Z</time>
      </trkpt>
      <trkpt lat="39.852767" lon="-4.416883">
        <ele>1775.0</ele>
        <time>2013-07-03T15:05:15Z</time>
      </trkpt>
      <trkpt lat="39.852650" lon="-4.416867">
        <ele>1771.0</ele>
        <time>2013-07-03T15:05:16Z</time>
      </trkpt>
      <trkpt lat="39.852517" lon="-4.416883">
        <ele>1768.0</ele>
        <time>2013-07-03T15:05:17Z</time>
      </trkpt>
      <trkpt lat="39.852417" lon="-4.416917">
        <ele>1765.0</ele>
        <time>2013-07-03T15:05:18Z</time>
      </trkpt>
      <trkpt lat="39.852300" lon="-4.416950">
        <ele>1763.0</ele>
        <time>2013-07-03T15:05:19Z</time>
      </trkpt>
      <trkpt lat="39.852200" lon="-4.417000">
        <ele>1759.0</ele>
        <time>2013-07-03T15:05:20Z</time>
      </trkpt>
      <trkpt lat="39.852083" lon="-4.417067">
        <ele>1757.0</ele>
        <time>2013-07-03T15:05:21Z</time>
      </trkpt>
      <trkpt lat="39.851950" lon="-4.417133">
        <ele>1756.0</ele>
        <time>2013-07-03T15:05:22Z</time>
      </trkpt>
      <trkpt lat="39.851850" lon="-4.417200">
        <ele>1757.0</ele>
        <time>2013-07-03T15:05:23Z</time>
      </trkpt>
      <trkpt lat="39.851750" lon="-4.417250">
        <ele>1758.0</ele>
        <time>2013-07-03T15:05:24Z</time>
      </trkpt>
      <trkpt lat="39.851667" lon="-4.417283">
        <ele>1757.0</ele>
        <time>2013-07-03T15:05:25Z</time>
      </trkpt>
      <trkpt lat="39.851583" lon="-4.417300">
        <ele>1756.0</ele>
        <time>2013-07-03T15:05:26Z</time>
      </trkpt>
      <trkpt lat="39.851483" lon="-4.417317">
        <ele>1754.0</ele>
        <time>2013-07-03T15:05:27Z</time>
      </trkpt>
      <trkpt lat="39.851400" lon="-4.417383">
        <ele>1751.0</ele>
        <time>2013-07-03T15:05:28Z</time>
      </trkpt>
      <trkpt lat="39.851283" lon="-4.417467">
        <ele>1747.0</ele>
        <time>2013-07-03T15:05:29Z</time>
      </trkpt>
      <trkpt lat="39.851183" lon="-4.417533">
        <ele>1745.0</ele>
        <time>2013-07-03T15:05:30Z</time>
      </trkpt>
      <trkpt lat="39.851067" lon="-4.417617">
        <ele>1744.0</ele>
        <time>2013-07-03T15:05:31Z</time>
      </trkpt>
      <trkpt lat="39.850950" lon="-4.417700">
        <ele>1743.0</ele>
        <time>2013-07-03T15:05:32Z</time>
      </trkpt>
      <trkpt lat="39.850850" lon="-4.417800">
        <ele>1742.0</ele>
        <time>2013-07-03T15:05:33Z</time>
      </trkpt>
      <trkpt lat="39.850767" lon="-4.417900">
        <ele>1741.0</ele>
        <time>2013-07-03T15:05:34Z</time>
      </trkpt>
      <trkpt lat="39.850650" lon="-4.418000">
        <ele>1739.0</ele>
        <time>2013-07-03T15:05:35Z</time>
      </trkpt>
      <trkpt lat="39.850533" lon="-4.418083">
        <ele>1737.0</ele>
        <time>2013-07-03T15:05:36Z</time>
      </trkpt>
      <trkpt lat="39.850417" lon="-4.418150">
        <ele>1736.0</ele>
        <time>2013-07-03T15:05:37Z</time>
      </trkpt>
      <trkpt lat="39.850300" lon="-4.418217">
        <ele>1736.0</ele>
        <time>2013-07-03T15:05:38Z</time>
      </trkpt>
      <trkpt lat="39.850183" lon="-4.418300">
        <ele>1735.0</ele>
        <time>2013-07-03T15:05:39Z</time>
      </trkpt>
      <trkpt lat="39.850083" lon="-4.418383">
        <ele>1734.0</ele>
        <time>2013-07-03T15:05:40Z</time>
      </trkpt>
      <trkpt lat="39.849983" lon="-4.418483">
        <ele>1733.0</ele>
        <time>2013-07-03T15:05:41Z</time>
      </trkpt>
      <trkpt lat="39.849883" lon="-4.418583">
        <ele>1732.0</ele>
        <time>2013-07-03T15:05:42Z</time>
      </trkpt>
      <trkpt lat="39.849767" lon="-4.418667">
        <ele>1730.0</ele>
        <time>2013-07-03T15:05:43Z</time>
      </trkpt>
      <trkpt lat="39.849667" lon="-4.418750">
        <ele>1729.0</ele>
        <time>2013-07-03T15:05:44Z</time>
      </trkpt>
      <trkpt lat="39.849550" lon="-4.418817">
        <ele>1728.0</ele>
        <time>2013-07-03T15:05:45Z</time>
      </trkpt>
      <trkpt lat="39.849433" lon="-4.418883">
        <ele>1727.0</ele>
        <time>2013-07-03T15:05:46Z</time>
      </trkpt>
      <trkpt lat="39.849317" lon="-4.418950">
        <ele>1726.0</ele>
        <time>2013-07-03T15:05:47Z</time>
      </trkpt>
      <trkpt lat="39.849200" lon="-4.419017">
        <ele>1725.0</ele>
        <time>2013-07-03T15:05:48Z</time>
      </trkpt>
      <trkpt lat="39.849100" lon="-4.419100">
        <ele>1725.0</ele>
        <time>2013-07-03T15:05:49Z</time>
      </trkpt>
      <trkpt lat="39.848983" lon="-4.419167">
        <ele>1724.0</ele>
        <time>2013-07-03T15:05:50Z</time>
      </trkpt>
      <trkpt lat="39.848883" lon="-4.419217">
        <ele>1722.0</ele>
        <time>2013-07-03T15:05:51Z</time>
      </trkpt>
      <trkpt lat="39.848767" lon="-4.419267">
        <ele>1719.0</ele>
        <time>2013-07-03T15:05:52Z</time>
      </trkpt>
      <trkpt lat="39.848667" lon="-4.419317">
        <ele>1717.0</ele>
        <time>2013-07-03T15:05:53Z</time>
      </trkpt>
      <trkpt lat="39.848550" lon="-4.419367">
        <ele>1714.0</ele>
        <time>2013-07-03T15:05:54Z</time>
      </trkpt>
      <trkpt lat="39.848433" lon="-4.419433">
        <ele>1712.0</ele>
        <time>2013-07-03T15:05:55Z</time>
      </trkpt>
      <trkpt lat="39.848317" lon="-4.419483">
        <ele>1710.0</ele>
        <time>2013-07-03T15:05:56Z</time>
      </trkpt>
      <trkpt lat="39.848200" lon="-4.419533">
        <ele>1708.0</ele>
        <time>2013-07-03T15:05:57Z</time>
      </trkpt>
      <trkpt lat="39.848067" lon="-4.419567">
        <ele>1707.0</ele>
        <time>2013-07-03T15:05:58Z</time>
      </trkpt>
      <trkpt lat="39.847950" lon="-4.419617">
        <ele>1705.0</ele>
        <time>2013-07-03T15:05:59Z</time>
      </trkpt>
      <trkpt lat="39.847817" lon="-4.419650">
        <ele>1704.0</ele>
        <time>2013-07-03T15:06:00Z</time>
      </trkpt>
      <trkpt lat="39.847683" lon="-4.419700">
        <ele>1703.0</ele>
        <time>2013-07-03T15:06:01Z</time>
      </trkpt>
      <trkpt lat="39.847550" lon="-4.419717">
        <ele>1703.0</ele>
        <time>2013-07-03T15:06:02Z</time>
      </trkpt>
      <trkpt lat="39.847417" lon="-4.419750">
        <ele>1703.0</ele>
        <time>2013-07-03T15:06:03Z</time>
      </trkpt>
      <trkpt lat="39.847283" lon="-4.419767">
        <ele>1702.0</ele>
        <time>2013-07-03T15:06:04Z</time>
      </trkpt>
      <trkpt lat="39.847150" lon="-4.419767">
        <ele>1702.0</ele>
        <time>2013-07-03T15:06:05Z</time>
      </trkpt>
      <trkpt lat="39.847017" lon="-4.419767">
        <ele>1701.0</ele>
        <time>2013-07-03T15:06:06Z</time>
      </trkpt>
      <trkpt lat="39.846883" lon="-4.419767">
        <ele>1701.0</ele>
        <time>2013-07-03T15:06:07Z</time>
      </trkpt>
      <trkpt lat="39.846750" lon="-4.419750">
        <ele>1700.0</ele>
        <time>2013-07-03T15:06:08Z</time>
      </trkpt>
      <trkpt lat="39.846617" lon="-4.419750">
        <ele>1700.0</ele>
        <time>2013-07-03T15:06:09Z</time>
      </trkpt>
      <trkpt lat="39.846483" lon="-4.419733">
        <ele>1699.0</ele>
        <time>2013-07-03T15:06:10Z</time>
      </trkpt>
      <trkpt lat="39.846350" lon="-4.419717">
        <ele>1698.0</ele>
        <time>2013-07-03T15:06:11Z</time>
      </trkpt>
      <trkpt lat="39.846200" lon="-4.419683">
        <ele>1699.0</ele>
        <time>2013-07-03T15:06:12Z</time>
      </trkpt>
      <trkpt lat="39.846067" lon="-4.419650">
        <ele>1700.0</ele>
        <time>2013-07-03T15:06:13Z</time>
      </trkpt>
      <trkpt lat="39.845967" lon="-4.419583">
        <ele>1700.0</ele>
        <time>2013-07-03T15:06:14Z</time>
      </trkpt>
      <trkpt lat="39.845850" lon="-4.419550">
        <ele>1701.0</ele>
        <time>2013-07-03T15:06:15Z</time>
      </trkpt>
      <trkpt lat="39.845750" lon="-4.419517">
        <ele>1703.0</ele>
        <time>2013-07-03T15:06:16Z</time>
      </trkpt>
      <trkpt lat="39.845650" lon="-4.419483">
        <ele>1703.0</ele>
        <time>2013-07-03T15:06:17Z</time>
      </trkpt>
      <trkpt lat="39.845550" lon="-4.419450">
        <ele>1702.0</ele>
        <time>2013-07-03T15:06:18Z</time>
      </trkpt>
      <trkpt lat="39.845450" lon="-4.419417">
        <ele>1701.0</ele>
        <time>2013-07-03T15:06:19Z</time>
      </trkpt>
      <trkpt lat="39.845333" lon="-4.419350">
        <ele>1699.0</ele>
        <time>2013-07-03T15:06:20Z</time>
      </trkpt>
      <trkpt lat="39.845233" lon="-4.419300">
        <ele>1697.0</ele>
        <time>2013-07-03T15:06:21Z</time>
      </trkpt>
      <trkpt lat="39.845117" lon="-4.419233">
        <ele>1696.0</ele>
        <time>2013-07-03T15:06:22Z</time>
      </trkpt>
      <trkpt lat="39.845017" lon="-4.419167">
        <ele>1694.0</ele>
        <time>2013-07-03T15:06:23Z</time>
      </trkpt>
      <trkpt lat="39.844900" lon="-4.419100">
        <ele>1692.0</ele>
        <time>2013-07-03T15:06:24Z</time>
      </trkpt>
      <trkpt lat="39.844800" lon="-4.419000">
        <ele>1691.0</ele>
        <time>2013-07-03T15:06:25Z</time>
      </trkpt>
      <trkpt lat="39.844717" lon="-4.418900">
        <ele>1689.0</ele>
        <time>2013-07-03T15:06:26Z</time>
      </trkpt>
      <trkpt lat="39.844633" lon="-4.418800">
        <ele>1687.0</ele>
        <time>2013-07-03T15:06:27Z</time>
      </trkpt>
      <trkpt lat="39.844567" lon="-4.418667">
        <ele>1685.0</ele>
        <time>2013-07-03T15:06:28Z</time>
      </trkpt>
      <trkpt lat="39.844483" lon="-4.418550">
        <ele>1683.0</ele>
        <time>2013-07-03T15:06:29Z</time>
      </trkpt>
      <trkpt lat="39.844383" lon="-4.418433">
        <ele>1681.0</ele>
        <time>2013-07-03T15:06:30Z</time>
      </trkpt>
      <trkpt lat="39.844300" lon="-4.418317">
        <ele>1680.0</ele>
        <time>2013-07-03T15:06:31Z</time>
      </trkpt>
      <trkpt lat="39.844233" lon="-4.418217">
        <ele>1679.0</ele>
        <time>2013-07-03T15:06:32Z</time>
      </trkpt>
      <trkpt lat="39.844150" lon="-4.418083">
        <ele>1677.0</ele>
        <time>2013-07-03T15:06:33Z</time>
      </trkpt>
      <trkpt lat="39.844083" lon="-4.417967">
        <ele>1676.0</ele>
        <time>2013-07-03T15:06:34Z</time>
      </trkpt>
      <trkpt lat="39.844017" lon="-4.417850">
        <ele>1675.0</ele>
        <time>2013-07-03T15:06:35Z</time>
      </trkpt>
      <trkpt lat="39.843950" lon="-4.417733">
        <ele>1674.0</ele>
        <time>2013-07-03T15:06:36Z</time>
      </trkpt>
      <trkpt lat="39.843883" lon="-4.417617">
        <ele>1672.0</ele>
        <time>2013-07-03T15:06:37Z</time>
      </trkpt>
      <trkpt lat="39.843833" lon="-4.417483">
        <ele>1670.0</ele>
        <time>2013-07-03T15:06:38Z</time>
      </trkpt>
      <trkpt lat="39.843767" lon="-4.417350">
        <ele>1668.0</ele>
        <time>2013-07-03T15:06:39Z</time>
      </trkpt>
      <trkpt lat="39.843700" lon="-4.417217">
        <ele>1666.0</ele>
        <time>2013-07-03T15:06:40Z</time>
      </trkpt>
      <trkpt lat="39.843650" lon="-4.417100">
        <ele>1665.0</ele>
        <time>2013-07-03T15:06:41Z</time>
      </trkpt>
      <trkpt lat="39.843583" lon="-4.416983">
        <ele>1666.0</ele>
        <time>2013-07-03T15:06:42Z</time>
      </trkpt>
      <trkpt lat="39.843533" lon="-4.416867">
        <ele>1666.0</ele>
        <time>2013-07-03T15:06:43Z</time>
      </trkpt>
      <trkpt lat="39.843483" lon="-4.416767">
        <ele>1666.0</ele>
        <time>2013-07-03T15:06:44Z</time>
      </trkpt>
      <trkpt lat="39.843433" lon="-4.416650">
        <ele>1664.0</ele>
        <time>2013-07-03T15:06:45Z</time>
      </trkpt>
      <trkpt lat="39.843367" lon="-4.416533">
        <ele>1663.0</ele>
        <time>2013-07-03T15:06:46Z</time>
      </trkpt>
      <trkpt lat="39.843317" lon="-4.416417">
        <ele>1663.0</ele>
        <time>2013-07-03T15:06:47Z</time>
      </trkpt>
      <trkpt lat="39.843267" lon="-4.416300">
        <ele>1662.0</ele>
        <time>2013-07-03T15:06:48Z</time>
      </trkpt>
      <trkpt lat="39.843217" lon="-4.416200">
        <ele>1661.0</ele>
        <time>2013-07-03T15:06:49Z</time>
      </trkpt>
      <trkpt lat="39.843167" lon="-4.416083">
        <ele>1659.0</ele>
        <time>2013-07-03T15:06:50Z</time>
      </trkpt>
      <trkpt lat="39.843133" lon="-4.415967">
        <ele>1656.0</ele>
        <time>2013-07-03T15:06:51Z</time>
      </trkpt>
      <trkpt lat="39.843100" lon="-4.415833">
        <ele>1654.0</ele>
        <time>2013-07-03T15:06:52Z</time>
      </trkpt>
      <trkpt lat="39.843067" lon="-4.415717">
        <ele>1652.0</ele>
        <time>2013-07-03T15:06:53Z</time>
      </trkpt>
      <trkpt lat="39.843033" lon="-4.415600">
        <ele>1650.0</ele>
        <time>2013-07-03T15:06:54Z</time>
      </trkpt>
      <trkpt lat="39.843000" lon="-4.415483">
        <ele>1648.0</ele>
        <time>2013-07-03T15:06:55Z</time>
      </trkpt>
      <trkpt lat="39.842967" lon="-4.415367">
        <ele>1646.0</ele>
        <time>2013-07-03T15:06:56Z</time>
      </trkpt>
      <trkpt lat="39.842900" lon="-4.415250">
        <ele>1643.0</ele>
        <time>2013-07-03T15:06:57Z</time>
      </trkpt>
      <trkpt lat="39.842817" lon="-4.415150">
        <ele>1639.0</ele>
        <time>2013-07-03T15:06:58Z</time>
      </trkpt>
      <trkpt lat="39.842750" lon="-4.415033">
        <ele>1637.0</ele>
        <time>2013-07-03T15:06:59Z</time>
      </trkpt>
      <trkpt lat="39.842683" lon="-4.414917">
        <ele>1634.0</ele>
        <time>2013-07-03T15:07:00Z</time>
      </trkpt>
      <trkpt lat="39.842650" lon="-4.414783">
        <ele>1631.0</ele>
        <time>2013-07-03T15:07:01Z</time>
      </trkpt>
      <trkpt lat="39.842600" lon="-4.414650">
        <ele>1628.0</ele>
        <time>2013-07-03T15:07:02Z</time>
      </trkpt>
      <trkpt lat="39.842550" lon="-4.414533">
        <ele>1624.0</ele>
        <time>2013-07-03T15:07:03Z</time>
      </trkpt>
      <trkpt lat="39.842500" lon="-4.414400">
        <ele>1622.0</ele>
        <time>2013-07-03T15:07:04Z</time>
      </trkpt>
      <trkpt lat="39.842433" lon="-4.414267">
        <ele>1619.0</ele>
        <time>2013-07-03T15:07:05Z</time>
      </trkpt>
      <trkpt lat="39.842400" lon="-4.414117">
        <ele>1617.0</ele>
        <time>2013-07-03T15:07:06Z</time>
      </trkpt>
      <trkpt lat="39.842350" lon="-4.413983">
        <ele>1614.0</ele>
        <time>2013-07-03T15:07:07Z</time>
      </trkpt>
      <trkpt lat="39.842317" lon="-4.413817">
        <ele>1612.0</ele>
        <time>2013-07-03T15:07:08Z</time>
      </trkpt>
      <trkpt lat="39.842283" lon="-4.413667">
        <ele>1610.0</ele>
        <time>2013-07-03T15:07:09Z</time>
      </trkpt>
      <trkpt lat="39.842250" lon="-4.413500">
        <ele>1608.0</ele>
        <time>2013-07-03T15:07:10Z</time>
      </trkpt>
      <trkpt lat="39.842217" lon="-4.413350">
        <ele>1606.0</ele>
        <time>2013-07-03T15:07:11Z</time>
      </trkpt>
      <trkpt lat="39.842167" lon="-4.413200">
        <ele>1604.0</ele>
        <time>2013-07-03T15:07:12Z</time>
      </trkpt>
      <trkpt lat="39.842117" lon="-4.413050">
        <ele>1603.0</ele>
        <time>2013-07-03T15:07:13Z</time>
      </trkpt>
      <trkpt lat="39.842083" lon="-4.412917">
        <ele>1601.0</ele>
        <time>2013-07-03T15:07:14Z</time>
      </trkpt>
      <trkpt lat="39.842033" lon="-4.412783">
        <ele>1599.0</ele>
        <time>2013-07-03T15:07:15Z</time>
      </trkpt>
      <trkpt lat="39.842000" lon="-4.412650">
        <ele>1596.0</ele>
        <time>2013-07-03T15:07:16Z</time>
      </trkpt>
      <trkpt lat="39.841967" lon="-4.412500">
        <ele>1593.0</ele>
        <time>2013-07-03T15:07:17Z</time>
      </trkpt>
      <trkpt lat="39.841933" lon="-4.412350">
        <ele>1591.0</ele>
        <time>2013-07-03T15:07:18Z</time>
      </trkpt>
      <trkpt lat="39.841883" lon="-4.412217">
        <ele>1588.0</ele>
        <time>2013-07-03T15:07:19Z</time>
      </trkpt>
      <trkpt lat="39.841833" lon="-4.412083">
        <ele>1586.0</ele>
        <time>2013-07-03T15:07:20Z</time>
      </trkpt>
      <trkpt lat="39.841767" lon="-4.411967">
        <ele>1584.0</ele>
        <time>2013-07-03T15:07:21Z</time>
      </trkpt>
      <trkpt lat="39.841733" lon="-4.411833">
        <ele>1582.0</ele>
        <time>2013-07-03T15:07:22Z</time>
      </trkpt>
      <trkpt lat="39.841683" lon="-4.411700">
        <ele>1579.0</ele>
        <time>2013-07-03T15:07:23Z</time>
      </trkpt>
      <trkpt lat="39.841650" lon="-4.411550">
        <ele>1577.0</ele>
        <time>2013-07-03T15:07:24Z</time>
      </trkpt>
      <trkpt lat="39.841617" lon="-4.411417">
        <ele>1576.0</ele>
        <time>2013-07-03T15:07:25Z</time>
      </trkpt>
      <trkpt lat="39.841583" lon="-4.411267">
        <ele>1575.0</ele>
        <time>2013-07-03T15:07:26Z</time>
      </trkpt>
      <trkpt lat="39.841567" lon="-4.411133">
        <ele>1575.0</ele>
        <time>2013-07-03T15:07:27Z</time>
      </trkpt>
      <trkpt lat="39.841533" lon="-4.410983">
        <ele>1574.0</ele>
        <time>2013-07-03T15:07:28Z</time>
      </trkpt>
      <trkpt lat="39.841517" lon="-4.410850">
        <ele>1573.0</ele>
        <time>2013-07-03T15:07:29Z</time>
      </trkpt>
      <trkpt lat="39.841500" lon="-4.410700">
        <ele>1572.0</ele>
        <time>2013-07-03T15:07:30Z</time>
      </trkpt>
      <trkpt lat="39.841500" lon="-4.410533">
        <ele>1572.0</ele>
        <time>2013-07-03T15:07:31Z</time>
      </trkpt>
      <trkpt lat="39.841500" lon="-4.410383">
        <ele>1572.0</ele>
        <time>2013-07-03T15:07:32Z</time>
      </trkpt>
      <trkpt lat="39.841500" lon="-4.410233">
        <ele>1572.0</ele>
        <time>2013-07-03T15:07:33Z</time>
      </trkpt>
      <trkpt lat="39.841500" lon="-4.410083">
        <ele>1572.0</ele>
        <time>2013-07-03T15:07:34Z</time>
      </trkpt>
      <trkpt lat="39.841500" lon="-4.409950">
        <ele>1573.0</ele>
        <time>2013-07-03T15:07:35Z</time>
      </trkpt>
      <trkpt lat="39.841517" lon="-4.409817">
        <ele>1573.0</ele>
        <time>2013-07-03T15:07:36Z</time>
      </trkpt>
      <trkpt lat="39.841533" lon="-4.409667">
        <ele>1573.0</ele>
        <time>2013-07-03T15:07:37Z</time>
      </trkpt>
      <trkpt lat="39.841550" lon="-4.409517">
        <ele>1572.0</ele>
        <time>2013-07-03T15:07:38Z</time>
      </trkpt>
      <trkpt lat="39.841550" lon="-4.409367">
        <ele>1572.0</ele>
        <time>2013-07-03T15:07:39Z</time>
      </trkpt>
      <trkpt lat="39.841583" lon="-4.409217">
        <ele>1572.0</ele>
        <time>2013-07-03T15:07:40Z</time>
      </trkpt>
      <trkpt lat="39.841583" lon="-4.409067">
        <ele>1572.0</ele>
        <time>2013-07-03T15:07:41Z</time>
      </trkpt>
      <trkpt lat="39.841600" lon="-4.408917">
        <ele>1572.0</ele>
        <time>2013-07-03T15:07:42Z</time>
      </trkpt>
      <trkpt lat="39.841600" lon="-4.408767">
        <ele>1573.0</ele>
        <time>2013-07-03T15:07:43Z</time>
      </trkpt>
      <trkpt lat="39.841617" lon="-4.408617">
        <ele>1575.0</ele>
        <time>2013-07-03T15:07:44Z</time>
      </trkpt>
      <trkpt lat="39.841633" lon="-4.408500">
        <ele>1577.0</ele>
        <time>2013-07-03T15:07:45Z</time>
      </trkpt>
      <trkpt lat="39.841667" lon="-4.408383">
        <ele>1578.0</ele>
        <time>2013-07-03T15:07:46Z</time>
      </trkpt>
      <trkpt lat="39.841700" lon="-4.408267">
        <ele>1578.0</ele>
        <time>2013-07-03T15:07:47Z</time>
      </trkpt>
      <trkpt lat="39.841717" lon="-4.408150">
        <ele>1579.0</ele>
        <time>2013-07-03T15:07:48Z</time>
      </trkpt>
      <trkpt lat="39.841767" lon="-4.408050">
        <ele>1578.0</ele>
        <time>2013-07-03T15:07:49Z</time>
      </trkpt>
      <trkpt lat="39.841817" lon="-4.407950">
        <ele>1579.0</ele>
        <time>2013-07-03T15:07:50Z</time>
      </trkpt>
      <trkpt lat="39.841883" lon="-4.407850">
        <ele>1578.0</ele>
        <time>2013-07-03T15:07:51Z</time>
      </trkpt>
      <trkpt lat="39.841967" lon="-4.407767">
        <ele>1579.0</ele>
        <time>2013-07-03T15:07:52Z</time>
      </trkpt>
      <trkpt lat="39.842033" lon="-4.407683">
        <ele>1579.0</ele>
        <time>2013-07-03T15:07:53Z</time>
      </trkpt>
      <trkpt lat="39.842100" lon="-4.407600">
        <ele>1580.0</ele>
        <time>2013-07-03T15:07:54Z</time>
      </trkpt>
      <trkpt lat="39.842167" lon="-4.407533">
        <ele>1580.0</ele>
        <time>2013-07-03T15:07:55Z</time>
      </trkpt>
      <trkpt lat="39.842250" lon="-4.407467">
        <ele>1581.0</ele>
        <time>2013-07-03T15:07:56Z</time>
      </trkpt>
      <trkpt lat="39.842317" lon="-4.407417">
        <ele>1581.0</ele>
        <time>2013-07-03T15:07:57Z</time>
      </trkpt>
      <trkpt lat="39.842400" lon="-4.407367">
        <ele>1581.0</ele>
        <time>2013-07-03T15:07:58Z</time>
      </trkpt>
      <trkpt lat="39.842467" lon="-4.407333">
        <ele>1581.0</ele>
        <time>2013-07-03T15:07:59Z</time>
      </trkpt>
      <trkpt lat="39.842550" lon="-4.407283">
        <ele>1580.0</ele>
        <time>2013-07-03T15:08:00Z</time>
      </trkpt>
      <trkpt lat="39.842633" lon="-4.407250">
        <ele>1580.0</ele>
        <time>2013-07-03T15:08:01Z</time>
      </trkpt>
      <trkpt lat="39.842733" lon="-4.407217">
        <ele>1579.0</ele>
        <time>2013-07-03T15:08:02Z</time>
      </trkpt>
      <trkpt lat="39.842833" lon="-4.407183">
        <ele>1577.0</ele>
        <time>2013-07-03T15:08:03Z</time>
      </trkpt>
      <trkpt lat="39.842933" lon="-4.407150">
        <ele>1576.0</ele>
        <time>2013-07-03T15:08:04Z</time>
      </trkpt>
      <trkpt lat="39.843033" lon="-4.407133">
        <ele>1576.0</ele>
        <time>2013-07-03T15:08:05Z</time>
      </trkpt>
      <trkpt lat="39.843133" lon="-4.407100">
        <ele>1576.0</ele>
        <time>2013-07-03T15:08:06Z</time>
      </trkpt>
      <trkpt lat="39.843217" lon="-4.407083">
        <ele>1576.0</ele>
        <time>2013-07-03T15:08:07Z</time>
      </trkpt>
      <trkpt lat="39.843300" lon="-4.407067">
        <ele>1576.0</ele>
        <time>2013-07-03T15:08:08Z</time>
      </trkpt>
      <trkpt lat="39.843383" lon="-4.407050">
        <ele>1577.0</ele>
        <time>2013-07-03T15:08:09Z</time>
      </trkpt>
      <trkpt lat="39.843433" lon="-4.407067">
        <ele>1578.0</ele>
        <time>2013-07-03T15:08:10Z</time>
      </trkpt>
      <trkpt lat="39.843483" lon="-4.407067">
        <ele>1579.0</ele>
        <time>2013-07-03T15:08:11Z</time>
      </trkpt>
      <trkpt lat="39.843533" lon="-4.407083">
        <ele>1578.0</ele>
        <time>2013-07-03T15:08:12Z</time>
      </trkpt>
      <trkpt lat="39.843600" lon="-4.407100">
        <ele>1578.0</ele>
        <time>2013-07-03T15:08:13Z</time>
      </trkpt>
      <trkpt lat="39.843650" lon="-4.407133">
        <ele>1577.0</ele>
        <time>2013-07-03T15:08:14Z</time>
      </trkpt>
      <trkpt lat="39.843683" lon="-4.407183">
        <ele>1577.0</ele>
        <time>2013-07-03T15:08:15Z</time>
      </trkpt>
      <trkpt lat="39.843717" lon="-4.407250">
        <ele>1577.0</ele>
        <time>2013-07-03T15:08:16Z</time>
      </trkpt>
      <trkpt lat="39.843733" lon="-4.407333">
        <ele>1576.0</ele>
        <time>2013-07-03T15:08:17Z</time>
      </trkpt>
      <trkpt lat="39.843733" lon="-4.407433">
        <ele>1576.0</ele>
        <time>2013-07-03T15:08:18Z</time>
      </trkpt>
      <trkpt lat="39.843717" lon="-4.407517">
        <ele>1577.0</ele>
        <time>2013-07-03T15:08:19Z</time>
      </trkpt>
      <trkpt lat="39.843733" lon="-4.407600">
        <ele>1577.0</ele>
        <time>2013-07-03T15:08:20Z</time>
      </trkpt>
      <trkpt lat="39.843717" lon="-4.407667">
        <ele>1578.0</ele>
        <time>2013-07-03T15:08:21Z</time>
      </trkpt>
      <trkpt lat="39.843717" lon="-4.407733">
        <ele>1578.0</ele>
        <time>2013-07-03T15:08:22Z</time>
      </trkpt>
      <trkpt lat="39.843683" lon="-4.407817">
        <ele>1577.0</ele>
        <time>2013-07-03T15:08:23Z</time>
      </trkpt>
      <trkpt lat="39.843650" lon="-4.407900">
        <ele>1577.0</ele>
        <time>2013-07-03T15:08:24Z</time>
      </trkpt>
      <trkpt lat="39.843600" lon="-4.407967">
        <ele>1577.0</ele>
        <time>2013-07-03T15:08:25Z</time>
      </trkpt>
      <trkpt lat="39.843533" lon="-4.408033">
        <ele>1576.0</ele>
        <time>2013-07-03T15:08:26Z</time>
      </trkpt>
      <trkpt lat="39.843483" lon="-4.408083">
        <ele>1576.0</ele>
        <time>2013-07-03T15:08:27Z</time>
      </trkpt>
      <trkpt lat="39.843417" lon="-4.408133">
        <ele>1575.0</ele>
        <time>2013-07-03T15:08:28Z</time>
      </trkpt>
      <trkpt lat="39.843350" lon="-4.408167">
        <ele>1573.0</ele>
        <time>2013-07-03T15:08:29Z</time>
      </trkpt>
      <trkpt lat="39.843283" lon="-4.408183">
        <ele>1571.0</ele>
        <time>2013-07-03T15:08:30Z</time>
      </trkpt>
      <trkpt lat="39.843183" lon="-4.408200">
        <ele>1569.0</ele>
        <time>2013-07-03T15:08:31Z</time>
      </trkpt>
      <trkpt lat="39.843083" lon="-4.408200">
        <ele>1568.0</ele>
        <time>2013-07-03T15:08:32Z</time>
      </trkpt>
      <trkpt lat="39.842967" lon="-4.408167">
        <ele>1569.0</ele>
        <time>2013-07-03T15:08:33Z</time>
      </trkpt>
      <trkpt lat="39.842883" lon="-4.408150">
        <ele>1569.0</ele>
        <time>2013-07-03T15:08:34Z</time>
      </trkpt>
      <trkpt lat="39.842783" lon="-4.408117">
        <ele>1570.0</ele>
        <time>2013-07-03T15:08:35Z</time>
      </trkpt>
      <trkpt lat="39.842700" lon="-4.408083">
        <ele>1571.0</ele>
        <time>2013-07-03T15:08:36Z</time>
      </trkpt>
      <trkpt lat="39.842617" lon="-4.408050">
        <ele>1572.0</ele>
        <time>2013-07-03T15:08:37Z</time>
      </trkpt>
      <trkpt lat="39.842550" lon="-4.408000">
        <ele>1573.0</ele>
        <time>2013-07-03T15:08:38Z</time>
      </trkpt>
      <trkpt lat="39.842500" lon="-4.407950">
        <ele>1573.0</ele>
        <time>2013-07-03T15:08:39Z</time>
      </trkpt>
      <trkpt lat="39.842450" lon="-4.407883">
        <ele>1573.0</ele>
        <time>2013-07-03T15:08:40Z</time>
      </trkpt>
      <trkpt lat="39.842383" lon="-4.407800">
        <ele>1572.0</ele>
        <time>2013-07-03T15:08:41Z</time>
      </trkpt>
      <trkpt lat="39.842317" lon="-4.407700">
        <ele>1571.0</ele>
        <time>2013-07-03T15:08:42Z</time>
      </trkpt>
      <trkpt lat="39.842267" lon="-4.407600">
        <ele>1571.0</ele>
        <time>2013-07-03T15:08:43Z</time>
      </trkpt>
      <trkpt lat="39.842233" lon="-4.407500">
        <ele>1571.0</ele>
        <time>2013-07-03T15:08:44Z</time>
      </trkpt>
      <trkpt lat="39.842183" lon="-4.407400">
        <ele>1571.0</ele>
        <time>2013-07-03T15:08:45Z</time>
      </trkpt>
      <trkpt lat="39.842150" lon="-4.407283">
        <ele>1571.0</ele>
        <time>2013-07-03T15:08:46Z</time>
      </trkpt>
      <trkpt lat="39.842133" lon="-4.407167">
        <ele>1572.0</ele>
        <time>2013-07-03T15:08:47Z</time>
      </trkpt>
      <trkpt lat="39.842133" lon="-4.407067">
        <ele>1573.0</ele>
        <time>2013-07-03T15:08:48Z</time>
      </trkpt>
      <trkpt lat="39.842133" lon="-4.406967">
        <ele>1574.0</ele>
        <time>2013-07-03T15:08:49Z</time>
      </trkpt>
      <trkpt lat="39.842133" lon="-4.406867">
        <ele>1575.0</ele>
        <time>2013-07-03T15:08:50Z</time>
      </trkpt>
      <trkpt lat="39.842133" lon="-4.406767">
        <ele>1575.0</ele>
        <time>2013-07-03T15:08:51Z</time>
      </trkpt>
      <trkpt lat="39.842133" lon="-4.406650">
        <ele>1574.0</ele>
        <time>2013-07-03T15:08:52Z</time>
      </trkpt>
      <trkpt lat="39.842150" lon="-4.406533">
        <ele>1574.0</ele>
        <time>2013-07-03T15:08:53Z</time>
      </trkpt>
      <trkpt lat="39.842167" lon="-4.406433">
        <ele>1574.0</ele>
        <time>2013-07-03T15:08:54Z</time>
      </trkpt>
      <trkpt lat="39.842217" lon="-4.406317">
        <ele>1575.0</ele>
        <time>2013-07-03T15:08:55Z</time>
      </trkpt>
      <trkpt lat="39.842250" lon="-4.406233">
        <ele>1575.0</ele>
        <time>2013-07-03T15:08:56Z</time>
      </trkpt>
      <trkpt lat="39.842317" lon="-4.406150">
        <ele>1575.0</ele>
        <time>2013-07-03T15:08:57Z</time>
      </trkpt>
      <trkpt lat="39.842367" lon="-4.406067">
        <ele>1575.0</ele>
        <time>2013-07-03T15:08:58Z</time>
      </trkpt>
      <trkpt lat="39.842450" lon="-4.406000">
        <ele>1574.0</ele>
        <time>2013-07-03T15:08:59Z</time>
      </trkpt>
      <trkpt lat="39.842517" lon="-4.405967">
        <ele>1573.0</ele>
        <time>2013-07-03T15:09:00Z</time>
      </trkpt>
      <trkpt lat="39.842600" lon="-4.405950">
        <ele>1573.0</ele>
        <time>2013-07-03T15:09:01Z</time>
      </trkpt>
      <trkpt lat="39.842667" lon="-4.405950">
        <ele>1572.0</ele>
        <time>2013-07-03T15:09:02Z</time>
      </trkpt>
      <trkpt lat="39.842750" lon="-4.405967">
        <ele>1572.0</ele>
        <time>2013-07-03T15:09:03Z</time>
      </trkpt>
      <trkpt lat="39.842817" lon="-4.406000">
        <ele>1571.0</ele>
        <time>2013-07-03T15:09:04Z</time>
      </trkpt>
      <trkpt lat="39.842867" lon="-4.406033">
        <ele>1571.0</ele>
        <time>2013-07-03T15:09:05Z</time>
      </trkpt>
      <trkpt lat="39.842917" lon="-4.406083">
        <ele>1570.0</ele>
        <time>2013-07-03T15:09:06Z</time>
      </trkpt>
      <trkpt lat="39.842967" lon="-4.406150">
        <ele>1569.0</ele>
        <time>2013-07-03T15:09:07Z</time>
      </trkpt>
      <trkpt lat="39.843000" lon="-4.406233">
        <ele>1568.0</ele>
        <time>2013-07-03T15:09:08Z</time>
      </trkpt>
      <trkpt lat="39.843000" lon="-4.406317">
        <ele>1567.0</ele>
        <time>2013-07-03T15:09:09Z</time>
      </trkpt>
      <trkpt lat="39.843000" lon="-4.406400">
        <ele>1567.0</ele>
        <time>2013-07-03T15:09:10Z</time>
      </trkpt>
      <trkpt lat="39.843000" lon="-4.406483">
        <ele>1566.0</ele>
        <time>2013-07-03T15:09:11Z</time>
      </trkpt>
      <trkpt lat="39.842983" lon="-4.406567">
        <ele>1565.0</ele>
        <time>2013-07-03T15:09:12Z</time>
      </trkpt>
      <trkpt lat="39.842967" lon="-4.406650">
        <ele>1564.0</ele>
        <time>2013-07-03T15:09:13Z</time>
      </trkpt>
      <trkpt lat="39.842933" lon="-4.406733">
        <ele>1563.0</ele>
        <time>2013-07-03T15:09:14Z</time>
      </trkpt>
      <trkpt lat="39.842883" lon="-4.406800">
        <ele>1562.0</ele>
        <time>2013-07-03T15:09:15Z</time>
      </trkpt>
      <trkpt lat="39.842833" lon="-4.406867">
        <ele>1561.0</ele>
        <time>2013-07-03T15:09:16Z</time>
      </trkpt>
      <trkpt lat="39.842767" lon="-4.406917">
        <ele>1558.0</ele>
        <time>2013-07-03T15:09:17Z</time>
      </trkpt>
      <trkpt lat="39.842700" lon="-4.406983">
        <ele>1556.0</ele>
        <time>2013-07-03T15:09:18Z</time>
      </trkpt>
      <trkpt lat="39.842617" lon="-4.407033">
        <ele>1554.0</ele>
        <time>2013-07-03T15:09:19Z</time>
      </trkpt>
      <trkpt lat="39.842533" lon="-4.407083">
        <ele>1553.0</ele>
        <time>2013-07-03T15:09:20Z</time>
      </trkpt>
      <trkpt lat="39.842450" lon="-4.407133">
        <ele>1553.0</ele>
        <time>2013-07-03T15:09:21Z</time>
      </trkpt>
      <trkpt lat="39.842367" lon="-4.407150">
        <ele>1552.0</ele>
        <time>2013-07-03T15:09:22Z</time>
      </trkpt>
      <trkpt lat="39.842300" lon="-4.407183">
        <ele>1551.0</ele>
        <time>2013-07-03T15:09:23Z</time>
      </trkpt>
      <trkpt lat="39.842233" lon="-4.407200">
        <ele>1549.0</ele>
        <time>2013-07-03T15:09:24Z</time>
      </trkpt>
      <trkpt lat="39.842133" lon="-4.407200">
        <ele>1547.0</ele>
        <time>2013-07-03T15:09:25Z</time>
      </trkpt>
      <trkpt lat="39.842033" lon="-4.407167">
        <ele>1546.0</ele>
        <time>2013-07-03T15:09:26Z</time>
      </trkpt>
      <trkpt lat="39.841950" lon="-4.407117">
        <ele>1545.0</ele>
        <time>2013-07-03T15:09:27Z</time>
      </trkpt>
      <trkpt lat="39.841867" lon="-4.407017">
        <ele>1544.0</ele>
        <time>2013-07-03T15:09:28Z</time>
      </trkpt>
      <trkpt lat="39.841817" lon="-4.406917">
        <ele>1544.0</ele>
        <time>2013-07-03T15:09:29Z</time>
      </trkpt>
      <trkpt lat="39.841783" lon="-4.406817">
        <ele>1544.0</ele>
        <time>2013-07-03T15:09:30Z</time>
      </trkpt>
      <trkpt lat="39.841750" lon="-4.406717">
        <ele>1543.0</ele>
        <time>2013-07-03T15:09:31Z</time>
      </trkpt>
      <trkpt lat="39.841700" lon="-4.406617">
        <ele>1543.0</ele>
        <time>2013-07-03T15:09:32Z</time>
      </trkpt>
      <trkpt lat="39.841667" lon="-4.406500">
        <ele>1543.0</ele>
        <time>2013-07-03T15:09:33Z</time>
      </trkpt>
      <trkpt lat="39.841617" lon="-4.406400">
        <ele>1544.0</ele>
        <time>2013-07-03T15:09:34Z</time>
      </trkpt>
      <trkpt lat="39.841583" lon="-4.406300">
        <ele>1544.0</ele>
        <time>2013-07-03T15:09:35Z</time>
      </trkpt>
      <trkpt lat="39.841550" lon="-4.406200">
        <ele>1545.0</ele>
        <time>2013-07-03T15:09:36Z</time>
      </trkpt>
      <trkpt lat="39.841517" lon="-4.406100">
        <ele>1546.0</ele>
        <time>2013-07-03T15:09:37Z</time>
      </trkpt>
      <trkpt lat="39.841483" lon="-4.406000">
        <ele>1546.0</ele>
        <time>2013-07-03T15:09:38Z</time>
      </trkpt>
      <trkpt lat="39.841450" lon="-4.405900">
        <ele>1547.0</ele>
        <time>2013-07-03T15:09:39Z</time>
      </trkpt>
      <trkpt lat="39.841417" lon="-4.405783">
        <ele>1548.0</ele>
        <time>2013-07-03T15:09:40Z</time>
      </trkpt>
      <trkpt lat="39.841400" lon="-4.405683">
        <ele>1548.0</ele>
        <time>2013-07-03T15:09:41Z</time>
      </trkpt>
      <trkpt lat="39.841400" lon="-4.405567">
        <ele>1548.0</ele>
        <time>2013-07-03T15:09:42Z</time>
      </trkpt>
      <trkpt lat="39.841417" lon="-4.405450">
        <ele>1548.0</ele>
        <time>2013-07-03T15:09:43Z</time>
      </trkpt>
      <trkpt lat="39.841450" lon="-4.405317">
        <ele>1550.0</ele>
        <time>2013-07-03T15:09:44Z</time>
      </trkpt>
      <trkpt lat="39.841483" lon="-4.405217">
        <ele>1552.0</ele>
        <time>2013-07-03T15:09:45Z</time>
      </trkpt>
      <trkpt lat="39.841533" lon="-4.405133">
        <ele>1553.0</ele>
        <time>2013-07-03T15:09:46Z</time>
      </trkpt>
      <trkpt lat="39.841583" lon="-4.405050">
        <ele>1554.0</ele>
        <time>2013-07-03T15:09:47Z</time>
      </trkpt>
      <trkpt lat="39.841633" lon="-4.404983">
        <ele>1554.0</ele>
        <time>2013-07-03T15:09:48Z</time>
      </trkpt>
      <trkpt lat="39.841683" lon="-4.404917">
        <ele>1552.0</ele>
        <time>2013-07-03T15:09:49Z</time>
      </trkpt>
      <trkpt lat="39.841750" lon="-4.404850">
        <ele>1551.0</ele>
        <time>2013-07-03T15:09:50Z</time>
      </trkpt>
      <trkpt lat="39.841833" lon="-4.404800">
        <ele>1551.0</ele>
        <time>2013-07-03T15:09:51Z</time>
      </trkpt>
      <trkpt lat="39.841900" lon="-4.404767">
        <ele>1552.0</ele>
        <time>2013-07-03T15:09:52Z</time>
      </trkpt>
      <trkpt lat="39.841967" lon="-4.404750">
        <ele>1552.0</ele>
        <time>2013-07-03T15:09:53Z</time>
      </trkpt>
      <trkpt lat="39.842033" lon="-4.404750">
        <ele>1552.0</ele>
        <time>2013-07-03T15:09:54Z</time>
      </trkpt>
      <trkpt lat="39.842083" lon="-4.404750">
        <ele>1552.0</ele>
        <time>2013-07-03T15:09:55Z</time>
      </trkpt>
      <trkpt lat="39.842150" lon="-4.404750">
        <ele>1551.0</ele>
        <time>2013-07-03T15:09:56Z</time>
      </trkpt>
      <trkpt lat="39.842217" lon="-4.404767">
        <ele>1550.0</ele>
        <time>2013-07-03T15:09:57Z</time>
      </trkpt>
      <trkpt lat="39.842283" lon="-4.404817">
        <ele>1549.0</ele>
        <time>2013-07-03T15:09:58Z</time>
      </trkpt>
      <trkpt lat="39.842317" lon="-4.404867">
        <ele>1548.0</ele>
        <time>2013-07-03T15:09:59Z</time>
      </trkpt>
      <trkpt lat="39.842350" lon="-4.404933">
        <ele>1547.0</ele>
        <time>2013-07-03T15:10:00Z</time>
      </trkpt>
      <trkpt lat="39.842383" lon="-4.405000">
        <ele>1546.0</ele>
        <time>2013-07-03T15:10:01Z</time>
      </trkpt>
      <trkpt lat="39.842383" lon="-4.405083">
        <ele>1545.0</ele>
        <time>2013-07-03T15:10:02Z</time>
      </trkpt>
      <trkpt lat="39.842383" lon="-4.405150">
        <ele>1544.0</ele>
        <time>2013-07-03T15:10:03Z</time>
      </trkpt>
      <trkpt lat="39.842350" lon="-4.405233">
        <ele>1543.0</ele>
        <time>2013-07-03T15:10:04Z</time>
      </trkpt>
      <trkpt lat="39.842300" lon="-4.405300">
        <ele>1542.0</ele>
        <time>2013-07-03T15:10:05Z</time>
      </trkpt>
      <trkpt lat="39.842233" lon="-4.405333">
        <ele>1540.0</ele>
        <time>2013-07-03T15:10:06Z</time>
      </trkpt>
      <trkpt lat="39.842167" lon="-4.405367">
        <ele>1539.0</ele>
        <time>2013-07-03T15:10:07Z</time>
      </trkpt>
      <trkpt lat="39.842083" lon="-4.405383">
        <ele>1537.0</ele>
        <time>2013-07-03T15:10:08Z</time>
      </trkpt>
      <trkpt lat="39.842000" lon="-4.405383">
        <ele>1536.0</ele>
        <time>2013-07-03T15:10:09Z</time>
      </trkpt>
      <trkpt lat="39.841917" lon="-4.405367">
        <ele>1535.0</ele>
        <time>2013-07-03T15:10:10Z</time>
      </trkpt>
      <trkpt lat="39.841833" lon="-4.405350">
        <ele>1535.0</ele>
        <time>2013-07-03T15:10:11Z</time>
      </trkpt>
      <trkpt lat="39.841733" lon="-4.405333">
        <ele>1534.0</ele>
        <time>2013-07-03T15:10:12Z</time>
      </trkpt>
      <trkpt lat="39.841650" lon="-4.405317">
        <ele>1533.0</ele>
        <time>2013-07-03T15:10:13Z</time>
      </trkpt>
      <trkpt lat="39.841550" lon="-4.405300">
        <ele>1532.0</ele>
        <time>2013-07-03T15:10:14Z</time>
      </trkpt>
      <trkpt lat="39.841450" lon="-4.405267">
        <ele>1531.0</ele>
        <time>2013-07-03T15:10:15Z</time>
      </trkpt>
      <trkpt lat="39.841350" lon="-4.405200">
        <ele>1531.0</ele>
        <time>2013-07-03T15:10:16Z</time>
      </trkpt>
      <trkpt lat="39.841267" lon="-4.405150">
        <ele>1530.0</ele>
        <time>2013-07-03T15:10:17Z</time>
      </trkpt>
      <trkpt lat="39.841167" lon="-4.405083">
        <ele>1530.0</ele>
        <time>2013-07-03T15:10:18Z</time>
      </trkpt>
      <trkpt lat="39.841083" lon="-4.405033">
        <ele>1530.0</ele>
        <time>2013-07-03T15:10:19Z</time>
      </trkpt>
      <trkpt lat="39.840983" lon="-4.404983">
        <ele>1531.0</ele>
        <time>2013-07-03T15:10:20Z</time>
      </trkpt>
      <trkpt lat="39.840900" lon="-4.404933">
        <ele>1532.0</ele>
        <time>2013-07-03T15:10:21Z</time>
      </trkpt>
      <trkpt lat="39.840833" lon="-4.404867">
        <ele>1533.0</ele>
        <time>2013-07-03T15:10:22Z</time>
      </trkpt>
      <trkpt lat="39.840767" lon="-4.404833">
        <ele>1533.0</ele>
        <time>2013-07-03T15:10:23Z</time>
      </trkpt>
      <trkpt lat="39.840683" lon="-4.404800">
        <ele>1533.0</ele>
        <time>2013-07-03T15:10:24Z</time>
      </trkpt>
      <trkpt lat="39.840617" lon="-4.404783">
        <ele>1533.0</ele>
        <time>2013-07-03T15:10:25Z</time>
      </trkpt>
      <trkpt lat="39.840550" lon="-4.404750">
        <ele>1532.0</ele>
        <time>2013-07-03T15:10:26Z</time>
      </trkpt>
      <trkpt lat="39.840467" lon="-4.404717">
        <ele>1532.0</ele>
        <time>2013-07-03T15:10:27Z</time>
      </trkpt>
      <trkpt lat="39.840400" lon="-4.404650">
        <ele>1531.0</ele>
        <time>2013-07-03T15:10:28Z</time>
      </trkpt>
      <trkpt lat="39.840317" lon="-4.404600">
        <ele>1530.0</ele>
        <time>2013-07-03T15:10:29Z</time>
      </trkpt>
      <trkpt lat="39.840233" lon="-4.404550">
        <ele>1529.0</ele>
        <time>2013-07-03T15:10:30Z</time>
      </trkpt>
      <trkpt lat="39.840150" lon="-4.404483">
        <ele>1529.0</ele>
        <time>2013-07-03T15:10:31Z</time>
      </trkpt>
      <trkpt lat="39.840083" lon="-4.404433">
        <ele>1530.0</ele>
        <time>2013-07-03T15:10:32Z</time>
      </trkpt>
      <trkpt lat="39.840033" lon="-4.404367">
        <ele>1530.0</ele>
        <time>2013-07-03T15:10:33Z</time>
      </trkpt>
      <trkpt lat="39.839983" lon="-4.404317">
        <ele>1530.0</ele>
        <time>2013-07-03T15:10:34Z</time>
      </trkpt>
      <trkpt lat="39.839933" lon="-4.404250">
        <ele>1530.0</ele>
        <time>2013-07-03T15:10:35Z</time>
      </trkpt>
      <trkpt lat="39.839867" lon="-4.404183">
        <ele>1529.0</ele>
        <time>2013-07-03T15:10:36Z</time>
      </trkpt>
      <trkpt lat="39.839783" lon="-4.404117">
        <ele>1529.0</ele>
        <time>2013-07-03T15:10:37Z</time>
      </trkpt>
      <trkpt lat="39.839733" lon="-4.404017">
        <ele>1529.0</ele>
        <time>2013-07-03T15:10:38Z</time>
      </trkpt>
      <trkpt lat="39.839667" lon="-4.403933">
        <ele>1529.0</ele>
        <time>2013-07-03T15:10:39Z</time>
      </trkpt>
      <trkpt lat="39.839617" lon="-4.403867">
        <ele>1529.0</ele>
        <time>2013-07-03T15:10:40Z</time>
      </trkpt>
      <trkpt lat="39.839567" lon="-4.403783">
        <ele>1529.0</ele>
        <time>2013-07-03T15:10:41Z</time>
      </trkpt>
      <trkpt lat="39.839517" lon="-4.403717">
        <ele>1529.0</ele>
        <time>2013-07-03T15:10:42Z</time>
      </trkpt>
      <trkpt lat="39.839450" lon="-4.403633">
        <ele>1529.0</ele>
        <time>2013-07-03T15:10:43Z</time>
      </trkpt>
      <trkpt lat="39.839400" lon="-4.403550">
        <ele>1528.0</ele>
        <time>2013-07-03T15:10:44Z</time>
      </trkpt>
      <trkpt lat="39.839333" lon="-4.403467">
        <ele>1528.0</ele>
        <time>2013-07-03T15:10:45Z</time>
      </trkpt>
      <trkpt lat="39.839283" lon="-4.403367">
        <ele>1528.0</ele>
        <time>2013-07-03T15:10:46Z</time>
      </trkpt>
      <trkpt lat="39.839250" lon="-4.403250">
        <ele>1528.0</ele>
        <time>2013-07-03T15:10:47Z</time>
      </trkpt>
      <trkpt lat="39.839217" lon="-4.403133">
        <ele>1527.0</ele>
        <time>2013-07-03T15:10:48Z</time>
      </trkpt>
      <trkpt lat="39.839183" lon="-4.403017">
        <ele>1526.0</ele>
        <time>2013-07-03T15:10:49Z</time>
      </trkpt>
      <trkpt lat="39.839150" lon="-4.402883">
        <ele>1526.0</ele>
        <time>2013-07-03T15:10:50Z</time>
      </trkpt>
      <trkpt lat="39.839117" lon="-4.402767">
        <ele>1525.0</ele>
        <time>2013-07-03T15:10:51Z</time>
      </trkpt>
      <trkpt lat="39.839100" lon="-4.402633">
        <ele>1525.0</ele>
        <time>2013-07-03T15:10:52Z</time>
      </trkpt>
      <trkpt lat="39.839083" lon="-4.402517">
        <ele>1525.0</ele>
        <time>2013-07-03T15:10:53Z</time>
      </trkpt>
      <trkpt lat="39.839067" lon="-4.402400">
        <ele>1525.0</ele>
        <time>2013-07-03T15:10:54Z</time>
      </trkpt>
      <trkpt lat="39.839050" lon="-4.402283">
        <ele>1524.0</ele>
        <time>2013-07-03T15:10:55Z</time>
      </trkpt>
      <trkpt lat="39.839050" lon="-4.402150">
        <ele>1524.0</ele>
        <time>2013-07-03T15:10:56Z</time>
      </trkpt>
      <trkpt lat="39.839050" lon="-4.402017">
        <ele>1523.0</ele>
        <time>2013-07-03T15:10:57Z</time>
      </trkpt>
      <trkpt lat="39.839050" lon="-4.401900">
        <ele>1522.0</ele>
        <time>2013-07-03T15:10:58Z</time>
      </trkpt>
      <trkpt lat="39.839067" lon="-4.401783">
        <ele>1522.0</ele>
        <time>2013-07-03T15:10:59Z</time>
      </trkpt>
      <trkpt lat="39.839067" lon="-4.401667">
        <ele>1523.0</ele>
        <time>2013-07-03T15:11:00Z</time>
      </trkpt>
      <trkpt lat="39.839067" lon="-4.401533">
        <ele>1522.0</ele>
        <time>2013-07-03T15:11:01Z</time>
      </trkpt>
      <trkpt lat="39.839067" lon="-4.401400">
        <ele>1523.0</ele>
        <time>2013-07-03T15:11:02Z</time>
      </trkpt>
      <trkpt lat="39.839050" lon="-4.401267">
        <ele>1524.0</ele>
        <time>2013-07-03T15:11:03Z</time>
      </trkpt>
      <trkpt lat="39.839050" lon="-4.401133">
        <ele>1524.0</ele>
        <time>2013-07-03T15:11:04Z</time>
      </trkpt>
      <trkpt lat="39.839033" lon="-4.401017">
        <ele>1525.0</ele>
        <time>2013-07-03T15:11:05Z</time>
      </trkpt>
      <trkpt lat="39.839033" lon="-4.400900">
        <ele>1525.0</ele>
        <time>2013-07-03T15:11:06Z</time>
      </trkpt>
      <trkpt lat="39.839017" lon="-4.400767">
        <ele>1525.0</ele>
        <time>2013-07-03T15:11:07Z</time>
      </trkpt>
      <trkpt lat="39.839000" lon="-4.400667">
        <ele>1525.0</ele>
        <time>2013-07-03T15:11:08Z</time>
      </trkpt>
      <trkpt lat="39.839000" lon="-4.400550">
        <ele>1525.0</ele>
        <time>2013-07-03T15:11:09Z</time>
      </trkpt>
      <trkpt lat="39.838983" lon="-4.400450">
        <ele>1524.0</ele>
        <time>2013-07-03T15:11:10Z</time>
      </trkpt>
      <trkpt lat="39.838950" lon="-4.400350">
        <ele>1524.0</ele>
        <time>2013-07-03T15:11:11Z</time>
      </trkpt>
      <trkpt lat="39.838917" lon="-4.400233">
        <ele>1522.0</ele>
        <time>2013-07-03T15:11:12Z</time>
      </trkpt>
      <trkpt lat="39.838900" lon="-4.400117">
        <ele>1521.0</ele>
        <time>2013-07-03T15:11:13Z</time>
      </trkpt>
      <trkpt lat="39.838867" lon="-4.399983">
        <ele>1519.0</ele>
        <time>2013-07-03T15:11:14Z</time>
      </trkpt>
      <trkpt lat="39.838833" lon="-4.399867">
        <ele>1519.0</ele>
        <time>2013-07-03T15:11:15Z</time>
      </trkpt>
      <trkpt lat="39.838800" lon="-4.399783">
        <ele>1518.0</ele>
        <time>2013-07-03T15:11:16Z</time>
      </trkpt>
      <trkpt lat="39.838767" lon="-4.399683">
        <ele>1516.0</ele>
        <time>2013-07-03T15:11:17Z</time>
      </trkpt>
      <trkpt lat="39.838733" lon="-4.399567">
        <ele>1513.0</ele>
        <time>2013-07-03T15:11:18Z</time>
      </trkpt>
      <trkpt lat="39.838700" lon="-4.399417">
        <ele>1509.0</ele>
        <time>2013-07-03T15:11:19Z</time>
      </trkpt>
      <trkpt lat="39.838667" lon="-4.399267">
        <ele>1507.0</ele>
        <time>2013-07-03T15:11:20Z</time>
      </trkpt>
      <trkpt lat="39.838617" lon="-4.399150">
        <ele>1505.0</ele>
        <time>2013-07-03T15:11:21Z</time>
      </trkpt>
      <trkpt lat="39.838583" lon="-4.399033">
        <ele>1503.0</ele>
        <time>2013-07-03T15:11:22Z</time>
      </trkpt>
      <trkpt lat="39.838550" lon="-4.398933">
        <ele>1501.0</ele>
        <time>2013-07-03T15:11:23Z</time>
      </trkpt>
      <trkpt lat="39.838517" lon="-4.398817">
        <ele>1499.0</ele>
        <time>2013-07-03T15:11:24Z</time>
      </trkpt>
      <trkpt lat="39.838500" lon="-4.398667">
        <ele>1496.0</ele>
        <time>2013-07-03T15:11:25Z</time>
      </trkpt>
      <trkpt lat="39.838467" lon="-4.398500">
        <ele>1494.0</ele>
        <time>2013-07-03T15:11:26Z</time>
      </trkpt>
      <trkpt lat="39.838433" lon="-4.398350">
        <ele>1493.0</ele>
        <time>2013-07-03T15:11:27Z</time>
      </trkpt>
      <trkpt lat="39.838417" lon="-4.398217">
        <ele>1493.0</ele>
        <time>2013-07-03T15:11:28Z</time>
      </trkpt>
      <trkpt lat="39.838400" lon="-4.398083">
        <ele>1493.0</ele>
        <time>2013-07-03T15:11:29Z</time>
      </trkpt>
      <trkpt lat="39.838367" lon="-4.397967">
        <ele>1491.0</ele>
        <time>2013-07-03T15:11:30Z</time>
      </trkpt>
      <trkpt lat="39.838333" lon="-4.397817">
        <ele>1488.0</ele>
        <time>2013-07-03T15:11:31Z</time>
      </trkpt>
      <trkpt lat="39.838300" lon="-4.397683">
        <ele>1486.0</ele>
        <time>2013-07-03T15:11:32Z</time>
      </trkpt>
      <trkpt lat="39.838267" lon="-4.397517">
        <ele>1484.0</ele>
        <time>2013-07-03T15:11:33Z</time>
      </trkpt>
      <trkpt lat="39.838233" lon="-4.397367">
        <ele>1483.0</ele>
        <time>2013-07-03T15:11:34Z</time>
      </trkpt>
      <trkpt lat="39.838200" lon="-4.397217">
        <ele>1482.0</ele>
        <time>2013-07-03T15:11:35Z</time>
      </trkpt>
      <trkpt lat="39.838183" lon="-4.397067">
        <ele>1481.0</ele>
        <time>2013-07-03T15:11:36Z</time>
      </trkpt>
      <trkpt lat="39.838167" lon="-4.396933">
        <ele>1479.0</ele>
        <time>2013-07-03T15:11:37Z</time>
      </trkpt>
      <trkpt lat="39.838133" lon="-4.396783">
        <ele>1479.0</ele>
        <time>2013-07-03T15:11:38Z</time>
      </trkpt>
      <trkpt lat="39.838100" lon="-4.396650">
        <ele>1480.0</ele>
        <time>2013-07-03T15:11:39Z</time>
      </trkpt>
      <trkpt lat="39.838067" lon="-4.396517">
        <ele>1480.0</ele>
        <time>2013-07-03T15:11:40Z</time>
      </trkpt>
      <trkpt lat="39.838050" lon="-4.396383">
        <ele>1480.0</ele>
        <time>2013-07-03T15:11:41Z</time>
      </trkpt>
      <trkpt lat="39.838017" lon="-4.396267">
        <ele>1480.0</ele>
        <time>2013-07-03T15:11:42Z</time>
      </trkpt>
      <trkpt lat="39.837983" lon="-4.396150">
        <ele>1479.0</ele>
        <time>2013-07-03T15:11:43Z</time>
      </trkpt>
      <trkpt lat="39.837950" lon="-4.396017">
        <ele>1479.0</ele>
        <time>2013-07-03T15:11:44Z</time>
      </trkpt>
      <trkpt lat="39.837933" lon="-4.395900">
        <ele>1478.0</ele>
        <time>2013-07-03T15:11:45Z</time>
      </trkpt>
      <trkpt lat="39.837933" lon="-4.395767">
        <ele>1478.0</ele>
        <time>2013-07-03T15:11:46Z</time>
      </trkpt>
      <trkpt lat="39.837917" lon="-4.395650">
        <ele>1478.0</ele>
        <time>2013-07-03T15:11:47Z</time>
      </trkpt>
      <trkpt lat="39.837883" lon="-4.395517">
        <ele>1478.0</ele>
        <time>2013-07-03T15:11:48Z</time>
      </trkpt>
      <trkpt lat="39.837867" lon="-4.395367">
        <ele>1477.0</ele>
        <time>2013-07-03T15:11:49Z</time>
      </trkpt>
      <trkpt lat="39.837850" lon="-4.395200">
        <ele>1476.0</ele>
        <time>2013-07-03T15:11:50Z</time>
      </trkpt>
      <trkpt lat="39.837817" lon="-4.395050">
        <ele>1475.0</ele>
        <time>2013-07-03T15:11:51Z</time>
      </trkpt>
      <trkpt lat="39.837783" lon="-4.394883">
        <ele>1475.0</ele>
        <time>2013-07-03T15:11:52Z</time>
      </trkpt>
      <trkpt lat="39.837767" lon="-4.394733">
        <ele>1475.0</ele>
        <time>2013-07-03T15:11:53Z</time>
      </trkpt>
      <trkpt lat="39.837733" lon="-4.394567">
        <ele>1474.0</ele>
        <time>2013-07-03T15:11:54Z</time>
      </trkpt>
      <trkpt lat="39.837700" lon="-4.394417">
        <ele>1473.0</ele>
        <time>2013-07-03T15:11:55Z</time>
      </trkpt>
      <trkpt lat="39.837667" lon="-4.394250">
        <ele>1471.0</ele>
        <time>2013-07-03T15:11:56Z</time>
      </trkpt>
      <trkpt lat="39.837633" lon="-4.394083">
        <ele>1468.0</ele>
        <time>2013-07-03T15:11:57Z</time>
      </trkpt>
      <trkpt lat="39.837600" lon="-4.393933">
        <ele>1468.0</ele>
        <time>2013-07-03T15:11:58Z</time>
      </trkpt>
      <trkpt lat="39.837583" lon="-4.393750">
        <ele>1467.0</ele>
        <time>2013-07-03T15:11:59Z</time>
      </trkpt>
      <trkpt lat="39.837550" lon="-4.393600">
        <ele>1466.0</ele>
        <time>2013-07-03T15:12:00Z</time>
      </trkpt>
      <trkpt lat="39.837533" lon="-4.393433">
        <ele>1467.0</ele>
        <time>2013-07-03T15:12:01Z</time>
      </trkpt>
      <trkpt lat="39.837500" lon="-4.393267">
        <ele>1465.0</ele>
        <time>2013-07-03T15:12:02Z</time>
      </trkpt>
      <trkpt lat="39.837467" lon="-4.393100">
        <ele>1466.0</ele>
        <time>2013-07-03T15:12:03Z</time>
      </trkpt>
      <trkpt lat="39.837433" lon="-4.392950">
        <ele>1469.0</ele>
        <time>2013-07-03T15:12:04Z</time>
      </trkpt>
      <trkpt lat="39.837400" lon="-4.392817">
        <ele>1471.0</ele>
        <time>2013-07-03T15:12:05Z</time>
      </trkpt>
      <trkpt lat="39.837383" lon="-4.392683">
        <ele>1474.0</ele>
        <time>2013-07-03T15:12:06Z</time>
      </trkpt>
      <trkpt lat="39.837367" lon="-4.392550">
        <ele>1476.0</ele>
        <time>2013-07-03T15:12:07Z</time>
      </trkpt>
      <trkpt lat="39.837367" lon="-4.392450">
        <ele>1480.0</ele>
        <time>2013-07-03T15:12:08Z</time>
      </trkpt>
      <trkpt lat="39.837367" lon="-4.392350">
        <ele>1482.0</ele>
        <time>2013-07-03T15:12:09Z</time>
      </trkpt>
      <trkpt lat="39.837367" lon="-4.392233">
        <ele>1484.0</ele>
        <time>2013-07-03T15:12:10Z</time>
      </trkpt>
      <trkpt lat="39.837367" lon="-4.392100">
        <ele>1486.0</ele>
        <time>2013-07-03T15:12:11Z</time>
      </trkpt>
      <trkpt lat="39.837400" lon="-4.391967">
        <ele>1486.0</ele>
        <time>2013-07-03T15:12:12Z</time>
      </trkpt>
      <trkpt lat="39.837467" lon="-4.391900">
        <ele>1485.0</ele>
        <time>2013-07-03T15:12:13Z</time>
      </trkpt>
      <trkpt lat="39.837533" lon="-4.391883">
        <ele>1482.0</ele>
        <time>2013-07-03T15:12:14Z</time>
      </trkpt>
      <trkpt lat="39.837583" lon="-4.391933">
        <ele>1480.0</ele>
        <time>2013-07-03T15:12:15Z</time>
      </trkpt>
      <trkpt lat="39.837600" lon="-4.392017">
        <ele>1480.0</ele>
        <time>2013-07-03T15:12:16Z</time>
      </trkpt>
      <trkpt lat="39.837600" lon="-4.392083">
        <ele>1479.0</ele>
        <time>2013-07-03T15:12:17Z</time>
      </trkpt>
      <trkpt lat="39.837567" lon="-4.392133">
        <ele>1480.0</ele>
        <time>2013-07-03T15:12:18Z</time>
      </trkpt>
      <trkpt lat="39.837550" lon="-4.392167">
        <ele>1480.0</ele>
        <time>2013-07-03T15:12:19Z</time>
      </trkpt>
      <trkpt lat="39.837500" lon="-4.392200">
        <ele>1480.0</ele>
        <time>2013-07-03T15:12:20Z</time>
      </trkpt>
      <trkpt lat="39.837467" lon="-4.392233">
        <ele>1479.0</ele>
        <time>2013-07-03T15:12:21Z</time>
      </trkpt>
      <trkpt lat="39.837450" lon="-4.392283">
        <ele>1477.0</ele>
        <time>2013-07-03T15:12:22Z</time>
      </trkpt>
      <trkpt lat="39.837417" lon="-4.392333">
        <ele>1476.0</ele>
        <time>2013-07-03T15:12:23Z</time>
      </trkpt>
      <trkpt lat="39.837383" lon="-4.392400">
        <ele>1475.0</ele>
        <time>2013-07-03T15:12:24Z</time>
      </trkpt>
      <trkpt lat="39.837367" lon="-4.392483">
        <ele>1476.0</ele>
        <time>2013-07-03T15:12:25Z</time>
      </trkpt>
      <trkpt lat="39.837350" lon="-4.392533">
        <ele>1477.0</ele>
        <time>2013-07-03T15:12:26Z</time>
      </trkpt>
      <trkpt lat="39.837350" lon="-4.392583">
        <ele>1479.0</ele>
        <time>2013-07-03T15:12:27Z</time>
      </trkpt>
      <trkpt lat="39.837350" lon="-4.392650">
        <ele>1479.0</ele>
        <time>2013-07-03T15:12:28Z</time>
      </trkpt>
      <trkpt lat="39.837367" lon="-4.392700">
        <ele>1480.0</ele>
        <time>2013-07-03T15:12:29Z</time>
      </trkpt>
      <trkpt lat="39.837383" lon="-4.392750">
        <ele>1480.0</ele>
        <time>2013-07-03T15:12:30Z</time>
      </trkpt>
      <trkpt lat="39.837383" lon="-4.392817">
        <ele>1481.0</ele>
        <time>2013-07-03T15:12:31Z</time>
      </trkpt>
      <trkpt lat="39.837367" lon="-4.392867">
        <ele>1480.0</ele>
        <time>2013-07-03T15:12:32Z</time>
      </trkpt>
      <trkpt lat="39.837350" lon="-4.392917">
        <ele>1480.0</ele>
        <time>2013-07-03T15:12:33Z</time>
      </trkpt>
      <trkpt lat="39.837333" lon="-4.392967">
        <ele>1479.0</ele>
        <time>2013-07-03T15:12:34Z</time>
      </trkpt>
      <trkpt lat="39.837300" lon="-4.393017">
        <ele>1478.0</ele>
        <time>2013-07-03T15:12:35Z</time>
      </trkpt>
      <trkpt lat="39.837267" lon="-4.393067">
        <ele>1477.0</ele>
        <time>2013-07-03T15:12:36Z</time>
      </trkpt>
      <trkpt lat="39.837233" lon="-4.393133">
        <ele>1476.0</ele>
        <time>2013-07-03T15:12:37Z</time>
      </trkpt>
      <trkpt lat="39.837200" lon="-4.393200">
        <ele>1476.0</ele>
        <time>2013-07-03T15:12:38Z</time>
      </trkpt>
      <trkpt lat="39.837167" lon="-4.393250">
        <ele>1476.0</ele>
        <time>2013-07-03T15:12:39Z</time>
      </trkpt>
      <trkpt lat="39.837117" lon="-4.393300">
        <ele>1476.0</ele>
        <time>2013-07-03T15:12:40Z</time>
      </trkpt>
      <trkpt lat="39.837050" lon="-4.393350">
        <ele>1477.0</ele>
        <time>2013-07-03T15:12:41Z</time>
      </trkpt>
      <trkpt lat="39.836983" lon="-4.393383">
        <ele>1477.0</ele>
        <time>2013-07-03T15:12:42Z</time>
      </trkpt>
      <trkpt lat="39.836900" lon="-4.393400">
        <ele>1478.0</ele>
        <time>2013-07-03T15:12:43Z</time>
      </trkpt>
      <trkpt lat="39.836817" lon="-4.393400">
        <ele>1479.0</ele>
        <time>2013-07-03T15:12:44Z</time>
      </trkpt>
      <trkpt lat="39.836733" lon="-4.393383">
        <ele>1480.0</ele>
        <time>2013-07-03T15:12:45Z</time>
      </trkpt>
      <trkpt lat="39.836650" lon="-4.393350">
        <ele>1481.0</ele>
        <time>2013-07-03T15:12:46Z</time>
      </trkpt>
      <trkpt lat="39.836567" lon="-4.393300">
        <ele>1482.0</ele>
        <time>2013-07-03T15:12:47Z</time>
      </trkpt>
      <trkpt lat="39.836483" lon="-4.393217">
        <ele>1483.0</ele>
        <time>2013-07-03T15:12:48Z</time>
      </trkpt>
      <trkpt lat="39.836417" lon="-4.393133">
        <ele>1484.0</ele>
        <time>2013-07-03T15:12:49Z</time>
      </trkpt>
      <trkpt lat="39.836333" lon="-4.393050">
        <ele>1485.0</ele>
        <time>2013-07-03T15:12:50Z</time>
      </trkpt>
      <trkpt lat="39.836283" lon="-4.392950">
        <ele>1486.0</ele>
        <time>2013-07-03T15:12:51Z</time>
      </trkpt>
      <trkpt lat="39.836217" lon="-4.392850">
        <ele>1487.0</ele>
        <time>2013-07-03T15:12:52Z</time>
      </trkpt>
      <trkpt lat="39.836167" lon="-4.392717">
        <ele>1488.0</ele>
        <time>2013-07-03T15:12:53Z</time>
      </trkpt>
      <trkpt lat="39.836133" lon="-4.392600">
        <ele>1489.0</ele>
        <time>2013-07-03T15:12:54Z</time>
      </trkpt>
      <trkpt lat="39.836083" lon="-4.392467">
        <ele>1490.0</ele>
        <time>2013-07-03T15:12:55Z</time>
      </trkpt>
      <trkpt lat="39.836050" lon="-4.392333">
        <ele>1491.0</ele>
        <time>2013-07-03T15:12:56Z</time>
      </trkpt>
      <trkpt lat="39.836017" lon="-4.392200">
        <ele>1493.0</ele>
        <time>2013-07-03T15:12:57Z</time>
      </trkpt>
      <trkpt lat="39.836000" lon="-4.392067">
        <ele>1493.0</ele>
        <time>2013-07-03T15:12:58Z</time>
      </trkpt>
      <trkpt lat="39.835983" lon="-4.391917">
        <ele>1494.0</ele>
        <time>2013-07-03T15:12:59Z</time>
      </trkpt>
      <trkpt lat="39.835967" lon="-4.391767">
        <ele>1495.0</ele>
        <time>2013-07-03T15:13:00Z</time>
      </trkpt>
      <trkpt lat="39.835967" lon="-4.391633">
        <ele>1496.0</ele>
        <time>2013-07-03T15:13:01Z</time>
      </trkpt>
      <trkpt lat="39.835967" lon="-4.391500">
        <ele>1497.0</ele>
        <time>2013-07-03T15:13:02Z</time>
      </trkpt>
      <trkpt lat="39.835983" lon="-4.391367">
        <ele>1498.0</ele>
        <time>2013-07-03T15:13:03Z</time>
      </trkpt>
      <trkpt lat="39.835983" lon="-4.391233">
        <ele>1499.0</ele>
        <time>2013-07-03T15:13:04Z</time>
      </trkpt>
      <trkpt lat="39.836000" lon="-4.391117">
        <ele>1499.0</ele>
        <time>2013-07-03T15:13:05Z</time>
      </trkpt>
      <trkpt lat="39.836033" lon="-4.391000">
        <ele>1499.0</ele>
        <time>2013-07-03T15:13:06Z</time>
      </trkpt>
      <trkpt lat="39.836067" lon="-4.390900">
        <ele>1499.0</ele>
        <time>2013-07-03T15:13:07Z</time>
      </trkpt>
      <trkpt lat="39.836100" lon="-4.390800">
        <ele>1499.0</ele>
        <time>2013-07-03T15:13:08Z</time>
      </trkpt>
      <trkpt lat="39.836167" lon="-4.390733">
        <ele>1500.0</ele>
        <time>2013-07-03T15:13:09Z</time>
      </trkpt>
      <trkpt lat="39.836217" lon="-4.390683">
        <ele>1501.0</ele>
        <time>2013-07-03T15:13:10Z</time>
      </trkpt>
      <trkpt lat="39.836283" lon="-4.390650">
        <ele>1501.0</ele>
        <time>2013-07-03T15:13:11Z</time>
      </trkpt>
      <trkpt lat="39.836333" lon="-4.390650">
        <ele>1502.0</ele>
        <time>2013-07-03T15:13:12Z</time>
      </trkpt>
      <trkpt lat="39.836400" lon="-4.390683">
        <ele>1502.0</ele>
        <time>2013-07-03T15:13:13Z</time>
      </trkpt>
      <trkpt lat="39.836433" lon="-4.390733">
        <ele>1503.0</ele>
        <time>2013-07-03T15:13:14Z</time>
      </trkpt>
      <trkpt lat="39.836450" lon="-4.390783">
        <ele>1504.0</ele>
        <time>2013-07-03T15:13:15Z</time>
      </trkpt>
      <trkpt lat="39.836450" lon="-4.390833">
        <ele>1505.0</ele>
        <time>2013-07-03T15:13:16Z</time>
      </trkpt>
      <trkpt lat="39.836450" lon="-4.390883">
        <ele>1505.0</ele>
        <time>2013-07-03T15:13:17Z</time>
      </trkpt>
      <trkpt lat="39.836417" lon="-4.390950">
        <ele>1505.0</ele>
        <time>2013-07-03T15:13:18Z</time>
      </trkpt>
      <trkpt lat="39.836367" lon="-4.391000">
        <ele>1505.0</ele>
        <time>2013-07-03T15:13:19Z</time>
      </trkpt>
      <trkpt lat="39.836300" lon="-4.391050">
        <ele>1505.0</ele>
        <time>2013-07-03T15:13:20Z</time>
      </trkpt>
      <trkpt lat="39.836217" lon="-4.391067">
        <ele>1506.0</ele>
        <time>2013-07-03T15:13:21Z</time>
      </trkpt>
      <trkpt lat="39.836133" lon="-4.391050">
        <ele>1507.0</ele>
        <time>2013-07-03T15:13:22Z</time>
      </trkpt>
      <trkpt lat="39.836067" lon="-4.391017">
        <ele>1507.0</ele>
        <time>2013-07-03T15:13:23Z</time>
      </trkpt>
      <trkpt lat="39.835983" lon="-4.390967">
        <ele>1506.0</ele>
        <time>2013-07-03T15:13:24Z</time>
      </trkpt>
      <trkpt lat="39.835883" lon="-4.390933">
        <ele>1505.0</ele>
        <time>2013-07-03T15:13:25Z</time>
      </trkpt>
      <trkpt lat="39.835783" lon="-4.390867">
        <ele>1505.0</ele>
        <time>2013-07-03T15:13:26Z</time>
      </trkpt>
      <trkpt lat="39.835683" lon="-4.390800">
        <ele>1505.0</ele>
        <time>2013-07-03T15:13:27Z</time>
      </trkpt>
      <trkpt lat="39.835600" lon="-4.390717">
        <ele>1507.0</ele>
        <time>2013-07-03T15:13:28Z</time>
      </trkpt>
      <trkpt lat="39.835533" lon="-4.390617">
        <ele>1507.0</ele>
        <time>2013-07-03T15:13:29Z</time>
      </trkpt>
      <trkpt lat="39.835483" lon="-4.390517">
        <ele>1508.0</ele>
        <time>2013-07-03T15:13:30Z</time>
      </trkpt>
      <trkpt lat="39.835433" lon="-4.390400">
        <ele>1508.0</ele>
        <time>2013-07-03T15:13:31Z</time>
      </trkpt>
      <trkpt lat="39.835383" lon="-4.390267">
        <ele>1508.0</ele>
        <time>2013-07-03T15:13:32Z</time>
      </trkpt>
      <trkpt lat="39.835350" lon="-4.390133">
        <ele>1508.0</ele>
        <time>2013-07-03T15:13:33Z</time>
      </trkpt>
      <trkpt lat="39.835333" lon="-4.390000">
        <ele>1509.0</ele>
        <time>2013-07-03T15:13:34Z</time>
      </trkpt>
      <trkpt lat="39.835317" lon="-4.389900">
        <ele>1510.0</ele>
        <time>2013-07-03T15:13:35Z</time>
      </trkpt>
      <trkpt lat="39.835333" lon="-4.389800">
        <ele>1509.0</ele>
        <time>2013-07-03T15:13:36Z</time>
      </trkpt>
      <trkpt lat="39.835333" lon="-4.389700">
        <ele>1510.0</ele>
        <time>2013-07-03T15:13:37Z</time>
      </trkpt>
      <trkpt lat="39.835367" lon="-4.389600">
        <ele>1510.0</ele>
        <time>2013-07-03T15:13:38Z</time>
      </trkpt>
      <trkpt lat="39.835400" lon="-4.389517">
        <ele>1511.0</ele>
        <time>2013-07-03T15:13:39Z</time>
      </trkpt>
      <trkpt lat="39.835433" lon="-4.389467">
        <ele>1512.0</ele>
        <time>2013-07-03T15:13:40Z</time>
      </trkpt>
      <trkpt lat="39.835450" lon="-4.389433">
        <ele>1513.0</ele>
        <time>2013-07-03T15:13:41Z</time>
      </trkpt>
      <trkpt lat="39.835483" lon="-4.389400">
        <ele>1514.0</ele>
        <time>2013-07-03T15:13:42Z</time>
      </trkpt>
      <trkpt lat="39.835517" lon="-4.389383">
        <ele>1514.0</ele>
        <time>2013-07-03T15:13:43Z</time>
      </trkpt>
      <trkpt lat="39.835550" lon="-4.389383">
        <ele>1514.0</ele>
        <time>2013-07-03T15:13:44Z</time>
      </trkpt>
      <trkpt lat="39.835583" lon="-4.389400">
        <ele>1514.0</ele>
        <time>2013-07-03T15:13:45Z</time>
      </trkpt>
      <trkpt lat="39.835617" lon="-4.389433">
        <ele>1515.0</ele>
        <time>2013-07-03T15:13:46Z</time>
      </trkpt>
      <trkpt lat="39.835650" lon="-4.389483">
        <ele>1515.0</ele>
        <time>2013-07-03T15:13:47Z</time>
      </trkpt>
      <trkpt lat="39.835650" lon="-4.389550">
        <ele>1515.0</ele>
        <time>2013-07-03T15:13:48Z</time>
      </trkpt>
      <trkpt lat="39.835633" lon="-4.389617">
        <ele>1514.0</ele>
        <time>2013-07-03T15:13:49Z</time>
      </trkpt>
      <trkpt lat="39.835633" lon="-4.389700">
        <ele>1514.0</ele>
        <time>2013-07-03T15:13:50Z</time>
      </trkpt>
      <trkpt lat="39.835600" lon="-4.389767">
        <ele>1514.0</ele>
        <time>2013-07-03T15:13:51Z</time>
      </trkpt>
      <trkpt lat="39.835583" lon="-4.389850">
        <ele>1515.0</ele>
        <time>2013-07-03T15:13:52Z</time>
      </trkpt>
      <trkpt lat="39.835567" lon="-4.389917">
        <ele>1516.0</ele>
        <time>2013-07-03T15:13:53Z</time>
      </trkpt>
      <trkpt lat="39.835567" lon="-4.389967">
        <ele>1517.0</ele>
        <time>2013-07-03T15:13:54Z</time>
      </trkpt>
      <trkpt lat="39.835567" lon="-4.390000">
        <ele>1517.0</ele>
        <time>2013-07-03T15:13:55Z</time>
      </trkpt>
      <trkpt lat="39.835550" lon="-4.390050">
        <ele>1516.0</ele>
        <time>2013-07-03T15:13:56Z</time>
      </trkpt>
      <trkpt lat="39.835550" lon="-4.390133">
        <ele>1516.0</ele>
        <time>2013-07-03T15:13:57Z</time>
      </trkpt>
      <trkpt lat="39.835517" lon="-4.390233">
        <ele>1515.0</ele>
        <time>2013-07-03T15:13:58Z</time>
      </trkpt>
      <trkpt lat="39.835483" lon="-4.390317">
        <ele>1515.0</ele>
        <time>2013-07-03T15:13:59Z</time>
      </trkpt>
      <trkpt lat="39.835467" lon="-4.390383">
        <ele>1516.0</ele>
        <time>2013-07-03T15:14:00Z</time>
      </trkpt>
      <trkpt lat="39.835417" lon="-4.390450">
        <ele>1517.0</ele>
        <time>2013-07-03T15:14:01Z</time>
      </trkpt>
      <trkpt lat="39.835367" lon="-4.390500">
        <ele>1517.0</ele>
        <time>2013-07-03T15:14:02Z</time>
      </trkpt>
      <trkpt lat="39.835317" lon="-4.390550">
        <ele>1517.0</ele>
        <time>2013-07-03T15:14:03Z</time>
      </trkpt>
      <trkpt lat="39.835233" lon="-4.390583">
        <ele>1516.0</ele>
        <time>2013-07-03T15:14:04Z</time>
      </trkpt>
      <trkpt lat="39.835167" lon="-4.390633">
        <ele>1515.0</ele>
        <time>2013-07-03T15:14:05Z</time>
      </trkpt>
      <trkpt lat="39.835083" lon="-4.390700">
        <ele>1516.0</ele>
        <time>2013-07-03T15:14:06Z</time>
      </trkpt>
      <trkpt lat="39.835000" lon="-4.390733">
        <ele>1518.0</ele>
        <time>2013-07-03T15:14:07Z</time>
      </trkpt>
      <trkpt lat="39.834917" lon="-4.390767">
        <ele>1519.0</ele>
        <time>2013-07-03T15:14:08Z</time>
      </trkpt>
      <trkpt lat="39.834833" lon="-4.390800">
        <ele>1521.0</ele>
        <time>2013-07-03T15:14:09Z</time>
      </trkpt>
      <trkpt lat="39.834767" lon="-4.390817">
        <ele>1522.0</ele>
        <time>2013-07-03T15:14:10Z</time>
      </trkpt>
      <trkpt lat="39.834683" lon="-4.390833">
        <ele>1524.0</ele>
        <time>2013-07-03T15:14:11Z</time>
      </trkpt>
      <trkpt lat="39.834617" lon="-4.390850">
        <ele>1525.0</ele>
        <time>2013-07-03T15:14:12Z</time>
      </trkpt>
      <trkpt lat="39.834567" lon="-4.390883">
        <ele>1526.0</ele>
        <time>2013-07-03T15:14:13Z</time>
      </trkpt>
      <trkpt lat="39.834517" lon="-4.390917">
        <ele>1526.0</ele>
        <time>2013-07-03T15:14:14Z</time>
      </trkpt>
      <trkpt lat="39.834500" lon="-4.390983">
        <ele>1525.0</ele>
        <time>2013-07-03T15:14:15Z</time>
      </trkpt>
      <trkpt lat="39.834500" lon="-4.391050">
        <ele>1524.0</ele>
        <time>2013-07-03T15:14:16Z</time>
      </trkpt>
      <trkpt lat="39.834533" lon="-4.391117">
        <ele>1523.0</ele>
        <time>2013-07-03T15:14:17Z</time>
      </trkpt>
      <trkpt lat="39.834567" lon="-4.391150">
        <ele>1523.0</ele>
        <time>2013-07-03T15:14:18Z</time>
      </trkpt>
      <trkpt lat="39.834633" lon="-4.391183">
        <ele>1523.0</ele>
        <time>2013-07-03T15:14:19Z</time>
      </trkpt>
      <trkpt lat="39.834683" lon="-4.391200">
        <ele>1524.0</ele>
        <time>2013-07-03T15:14:20Z</time>
      </trkpt>
      <trkpt lat="39.834733" lon="-4.391233">
        <ele>1524.0</ele>
        <time>2013-07-03T15:14:21Z</time>
      </trkpt>
      <trkpt lat="39.834783" lon="-4.391250">
        <ele>1524.0</ele>
        <time>2013-07-03T15:14:22Z</time>
      </trkpt>
      <trkpt lat="39.834833" lon="-4.391267">
        <ele>1525.0</ele>
        <time>2013-07-03T15:14:23Z</time>
      </trkpt>
      <trkpt lat="39.834883" lon="-4.391300">
        <ele>1527.0</ele>
        <time>2013-07-03T15:14:24Z</time>
      </trkpt>
      <trkpt lat="39.834900" lon="-4.391333">
        <ele>1527.0</ele>
        <time>2013-07-03T15:14:25Z</time>
      </trkpt>
      <trkpt lat="39.834917" lon="-4.391383">
        <ele>1527.0</ele>
        <time>2013-07-03T15:14:26Z</time>
      </trkpt>
      <trkpt lat="39.834900" lon="-4.391467">
        <ele>1527.0</ele>
        <time>2013-07-03T15:14:27Z</time>
      </trkpt>
      <trkpt lat="39.834867" lon="-4.391533">
        <ele>1526.0</ele>
        <time>2013-07-03T15:14:28Z</time>
      </trkpt>
      <trkpt lat="39.834817" lon="-4.391600">
        <ele>1526.0</ele>
        <time>2013-07-03T15:14:29Z</time>
      </trkpt>
      <trkpt lat="39.834750" lon="-4.391650">
        <ele>1526.0</ele>
        <time>2013-07-03T15:14:30Z</time>
      </trkpt>
      <trkpt lat="39.834683" lon="-4.391683">
        <ele>1526.0</ele>
        <time>2013-07-03T15:14:31Z</time>
      </trkpt>
      <trkpt lat="39.834600" lon="-4.391717">
        <ele>1526.0</ele>
        <time>2013-07-03T15:14:32Z</time>
      </trkpt>
      <trkpt lat="39.834500" lon="-4.391733">
        <ele>1525.0</ele>
        <time>2013-07-03T15:14:33Z</time>
      </trkpt>
      <trkpt lat="39.834400" lon="-4.391717">
        <ele>1524.0</ele>
        <time>2013-07-03T15:14:34Z</time>
      </trkpt>
      <trkpt lat="39.834300" lon="-4.391667">
        <ele>1524.0</ele>
        <time>2013-07-03T15:14:35Z</time>
      </trkpt>
      <trkpt lat="39.834183" lon="-4.391600">
        <ele>1524.0</ele>
        <time>2013-07-03T15:14:36Z</time>
      </trkpt>
      <trkpt lat="39.834083" lon="-4.391500">
        <ele>1524.0</ele>
        <time>2013-07-03T15:14:37Z</time>
      </trkpt>
      <trkpt lat="39.834000" lon="-4.391417">
        <ele>1524.0</ele>
        <time>2013-07-03T15:14:38Z</time>
      </trkpt>
      <trkpt lat="39.833917" lon="-4.391317">
        <ele>1524.0</ele>
        <time>2013-07-03T15:14:39Z</time>
      </trkpt>
      <trkpt lat="39.833833" lon="-4.391200">
        <ele>1524.0</ele>
        <time>2013-07-03T15:14:40Z</time>
      </trkpt>
      <trkpt lat="39.833767" lon="-4.391067">
        <ele>1524.0</ele>
        <time>2013-07-03T15:14:41Z</time>
      </trkpt>
      <trkpt lat="39.833717" lon="-4.390933">
        <ele>1524.0</ele>
        <time>2013-07-03T15:14:42Z</time>
      </trkpt>
      <trkpt lat="39.833667" lon="-4.390783">
        <ele>1524.0</ele>
        <time>2013-07-03T15:14:43Z</time>
      </trkpt>
      <trkpt lat="39.833617" lon="-4.390650">
        <ele>1524.0</ele>
        <time>2013-07-03T15:14:44Z</time>
      </trkpt>
      <trkpt lat="39.833550" lon="-4.390517">
        <ele>1524.0</ele>
        <time>2013-07-03T15:14:45Z</time>
      </trkpt>
      <trkpt lat="39.833500" lon="-4.390400">
        <ele>1524.0</ele>
        <time>2013-07-03T15:14:46Z</time>
      </trkpt>
      <trkpt lat="39.833450" lon="-4.390267">
        <ele>1523.0</ele>
        <time>2013-07-03T15:14:47Z</time>
      </trkpt>
      <trkpt lat="39.833400" lon="-4.390133">
        <ele>1523.0</ele>
        <time>2013-07-03T15:14:48Z</time>
      </trkpt>
      <trkpt lat="39.833350" lon="-4.389967">
        <ele>1521.0</ele>
        <time>2013-07-03T15:14:49Z</time>
      </trkpt>
      <trkpt lat="39.833300" lon="-4.389783">
        <ele>1520.0</ele>
        <time>2013-07-03T15:14:50Z</time>
      </trkpt>
      <trkpt lat="39.833267" lon="-4.389617">
        <ele>1520.0</ele>
        <time>2013-07-03T15:14:51Z</time>
      </trkpt>
      <trkpt lat="39.833233" lon="-4.389467">
        <ele>1520.0</ele>
        <time>2013-07-03T15:14:52Z</time>
      </trkpt>
      <trkpt lat="39.833183" lon="-4.389350">
        <ele>1521.0</ele>
        <time>2013-07-03T15:14:53Z</time>
      </trkpt>
      <trkpt lat="39.833167" lon="-4.389250">
        <ele>1522.0</ele>
        <time>2013-07-03T15:14:54Z</time>
      </trkpt>
      <trkpt lat="39.833117" lon="-4.389117">
        <ele>1521.0</ele>
        <time>2013-07-03T15:14:55Z</time>
      </trkpt>
      <trkpt lat="39.833100" lon="-4.388967">
        <ele>1520.0</ele>
        <time>2013-07-03T15:14:56Z</time>
      </trkpt>
      <trkpt lat="39.833083" lon="-4.388783">
        <ele>1520.0</ele>
        <time>2013-07-03T15:14:57Z</time>
      </trkpt>
      <trkpt lat="39.833067" lon="-4.388633">
        <ele>1520.0</ele>
        <time>2013-07-03T15:14:58Z</time>
      </trkpt>
      <trkpt lat="39.833067" lon="-4.388483">
        <ele>1522.0</ele>
        <time>2013-07-03T15:14:59Z</time>
      </trkpt>
      <trkpt lat="39.833050" lon="-4.388350">
        <ele>1523.0</ele>
        <time>2013-07-03T15:15:00Z</time>
      </trkpt>
      <trkpt lat="39.833017" lon="-4.388217">
        <ele>1523.0</ele>
        <time>2013-07-03T15:15:01Z</time>
      </trkpt>
      <trkpt lat="39.832983" lon="-4.388083">
        <ele>1523.0</ele>
        <time>2013-07-03T15:15:02Z</time>
      </trkpt>
      <trkpt lat="39.832950" lon="-4.387933">
        <ele>1522.0</ele>
        <time>2013-07-03T15:15:03Z</time>
      </trkpt>
      <trkpt lat="39.832933" lon="-4.387783">
        <ele>1521.0</ele>
        <time>2013-07-03T15:15:04Z</time>
      </trkpt>
      <trkpt lat="39.832933" lon="-4.387650">
        <ele>1520.0</ele>
        <time>2013-07-03T15:15:05Z</time>
      </trkpt>
      <trkpt lat="39.832933" lon="-4.387500">
        <ele>1520.0</ele>
        <time>2013-07-03T15:15:06Z</time>
      </trkpt>
      <trkpt lat="39.832917" lon="-4.387367">
        <ele>1520.0</ele>
        <time>2013-07-03T15:15:07Z</time>
      </trkpt>
      <trkpt lat="39.832900" lon="-4.387217">
        <ele>1519.0</ele>
        <time>2013-07-03T15:15:08Z</time>
      </trkpt>
      <trkpt lat="39.832867" lon="-4.387050">
        <ele>1517.0</ele>
        <time>2013-07-03T15:15:09Z</time>
      </trkpt>
      <trkpt lat="39.832833" lon="-4.386883">
        <ele>1516.0</ele>
        <time>2013-07-03T15:15:10Z</time>
      </trkpt>
      <trkpt lat="39.832817" lon="-4.386700">
        <ele>1516.0</ele>
        <time>2013-07-03T15:15:11Z</time>
      </trkpt>
      <trkpt lat="39.832783" lon="-4.386550">
        <ele>1517.0</ele>
        <time>2013-07-03T15:15:12Z</time>
      </trkpt>
      <trkpt lat="39.832750" lon="-4.386417">
        <ele>1518.0</ele>
        <time>2013-07-03T15:15:13Z</time>
      </trkpt>
      <trkpt lat="39.832733" lon="-4.386283">
        <ele>1518.0</ele>
        <time>2013-07-03T15:15:14Z</time>
      </trkpt>
      <trkpt lat="39.832700" lon="-4.386167">
        <ele>1517.0</ele>
        <time>2013-07-03T15:15:15Z</time>
      </trkpt>
      <trkpt lat="39.832683" lon="-4.386050">
        <ele>1518.0</ele>
        <time>2013-07-03T15:15:16Z</time>
      </trkpt>
      <trkpt lat="39.832667" lon="-4.385917">
        <ele>1517.0</ele>
        <time>2013-07-03T15:15:17Z</time>
      </trkpt>
      <trkpt lat="39.832650" lon="-4.385783">
        <ele>1516.0</ele>
        <time>2013-07-03T15:15:18Z</time>
      </trkpt>
      <trkpt lat="39.832650" lon="-4.385617">
        <ele>1515.0</ele>
        <time>2013-07-03T15:15:19Z</time>
      </trkpt>
      <trkpt lat="39.832633" lon="-4.385467">
        <ele>1514.0</ele>
        <time>2013-07-03T15:15:20Z</time>
      </trkpt>
      <trkpt lat="39.832600" lon="-4.385300">
        <ele>1514.0</ele>
        <time>2013-07-03T15:15:21Z</time>
      </trkpt>
      <trkpt lat="39.832583" lon="-4.385150">
        <ele>1514.0</ele>
        <time>2013-07-03T15:15:22Z</time>
      </trkpt>
      <trkpt lat="39.832583" lon="-4.385017">
        <ele>1514.0</ele>
        <time>2013-07-03T15:15:23Z</time>
      </trkpt>
      <trkpt lat="39.832567" lon="-4.384883">
        <ele>1513.0</ele>
        <time>2013-07-03T15:15:24Z</time>
      </trkpt>
      <trkpt lat="39.832550" lon="-4.384750">
        <ele>1512.0</ele>
        <time>2013-07-03T15:15:25Z</time>
      </trkpt>
      <trkpt lat="39.832550" lon="-4.384600">
        <ele>1511.0</ele>
        <time>2013-07-03T15:15:26Z</time>
      </trkpt>
      <trkpt lat="39.832550" lon="-4.384450">
        <ele>1510.0</ele>
        <time>2013-07-03T15:15:27Z</time>
      </trkpt>
      <trkpt lat="39.832550" lon="-4.384300">
        <ele>1510.0</ele>
        <time>2013-07-03T15:15:28Z</time>
      </trkpt>
      <trkpt lat="39.832567" lon="-4.384150">
        <ele>1509.0</ele>
        <time>2013-07-03T15:15:29Z</time>
      </trkpt>
      <trkpt lat="39.832567" lon="-4.384017">
        <ele>1509.0</ele>
        <time>2013-07-03T15:15:30Z</time>
      </trkpt>
      <trkpt lat="39.832567" lon="-4.383883">
        <ele>1508.0</ele>
        <time>2013-07-03T15:15:31Z</time>
      </trkpt>
      <trkpt lat="39.832567" lon="-4.383750">
        <ele>1507.0</ele>
        <time>2013-07-03T15:15:32Z</time>
      </trkpt>
      <trkpt lat="39.832583" lon="-4.383600">
        <ele>1505.0</ele>
        <time>2013-07-03T15:15:33Z</time>
      </trkpt>
      <trkpt lat="39.832600" lon="-4.383433">
        <ele>1504.0</ele>
        <time>2013-07-03T15:15:34Z</time>
      </trkpt>
      <trkpt lat="39.832617" lon="-4.383267">
        <ele>1503.0</ele>
        <time>2013-07-03T15:15:35Z</time>
      </trkpt>
      <trkpt lat="39.832617" lon="-4.383100">
        <ele>1504.0</ele>
        <time>2013-07-03T15:15:36Z</time>
      </trkpt>
      <trkpt lat="39.832617" lon="-4.382933">
        <ele>1507.0</ele>
        <time>2013-07-03T15:15:37Z</time>
      </trkpt>
      <trkpt lat="39.832600" lon="-4.382800">
        <ele>1508.0</ele>
        <time>2013-07-03T15:15:38Z</time>
      </trkpt>
      <trkpt lat="39.832583" lon="-4.382667">
        <ele>1508.0</ele>
        <time>2013-07-03T15:15:39Z</time>
      </trkpt>
      <trkpt lat="39.832583" lon="-4.382550">
        <ele>1508.0</ele>
        <time>2013-07-03T15:15:40Z</time>
      </trkpt>
      <trkpt lat="39.832567" lon="-4.382417">
        <ele>1507.0</ele>
        <time>2013-07-03T15:15:41Z</time>
      </trkpt>
      <trkpt lat="39.832550" lon="-4.382283">
        <ele>1506.0</ele>
        <time>2013-07-03T15:15:42Z</time>
      </trkpt>
      <trkpt lat="39.832533" lon="-4.382133">
        <ele>1504.0</ele>
        <time>2013-07-03T15:15:43Z</time>
      </trkpt>
      <trkpt lat="39.832517" lon="-4.381950">
        <ele>1502.0</ele>
        <time>2013-07-03T15:15:44Z</time>
      </trkpt>
      <trkpt lat="39.832500" lon="-4.381767">
        <ele>1499.0</ele>
        <time>2013-07-03T15:15:45Z</time>
      </trkpt>
      <trkpt lat="39.832500" lon="-4.381567">
        <ele>1497.0</ele>
        <time>2013-07-03T15:15:46Z</time>
      </trkpt>
      <trkpt lat="39.832483" lon="-4.381383">
        <ele>1496.0</ele>
        <time>2013-07-03T15:15:47Z</time>
      </trkpt>
      <trkpt lat="39.832433" lon="-4.381200">
        <ele>1495.0</ele>
        <time>2013-07-03T15:15:48Z</time>
      </trkpt>
      <trkpt lat="39.832383" lon="-4.381033">
        <ele>1494.0</ele>
        <time>2013-07-03T15:15:49Z</time>
      </trkpt>
      <trkpt lat="39.832350" lon="-4.380867">
        <ele>1494.0</ele>
        <time>2013-07-03T15:15:50Z</time>
      </trkpt>
      <trkpt lat="39.832333" lon="-4.380717">
        <ele>1495.0</ele>
        <time>2013-07-03T15:15:51Z</time>
      </trkpt>
      <trkpt lat="39.832317" lon="-4.380583">
        <ele>1497.0</ele>
        <time>2013-07-03T15:15:52Z</time>
      </trkpt>
      <trkpt lat="39.832317" lon="-4.380467">
        <ele>1499.0</ele>
        <time>2013-07-03T15:15:53Z</time>
      </trkpt>
      <trkpt lat="39.832317" lon="-4.380350">
        <ele>1499.0</ele>
        <time>2013-07-03T15:15:54Z</time>
      </trkpt>
      <trkpt lat="39.832300" lon="-4.380233">
        <ele>1499.0</ele>
        <time>2013-07-03T15:15:55Z</time>
      </trkpt>
      <trkpt lat="39.832317" lon="-4.380083">
        <ele>1499.0</ele>
        <time>2013-07-03T15:15:56Z</time>
      </trkpt>
      <trkpt lat="39.832317" lon="-4.379950">
        <ele>1498.0</ele>
        <time>2013-07-03T15:15:57Z</time>
      </trkpt>
      <trkpt lat="39.832350" lon="-4.379800">
        <ele>1498.0</ele>
        <time>2013-07-03T15:15:58Z</time>
      </trkpt>
      <trkpt lat="39.832367" lon="-4.379650">
        <ele>1498.0</ele>
        <time>2013-07-03T15:15:59Z</time>
      </trkpt>
      <trkpt lat="39.832400" lon="-4.379483">
        <ele>1497.0</ele>
        <time>2013-07-03T15:16:00Z</time>
      </trkpt>
      <trkpt lat="39.832433" lon="-4.379333">
        <ele>1497.0</ele>
        <time>2013-07-03T15:16:01Z</time>
      </trkpt>
      <trkpt lat="39.832467" lon="-4.379167">
        <ele>1496.0</ele>
        <time>2013-07-03T15:16:02Z</time>
      </trkpt>
      <trkpt lat="39.832500" lon="-4.379000">
        <ele>1497.0</ele>
        <time>2013-07-03T15:16:03Z</time>
      </trkpt>
      <trkpt lat="39.832517" lon="-4.378833">
        <ele>1497.0</ele>
        <time>2013-07-03T15:16:04Z</time>
      </trkpt>
      <trkpt lat="39.832533" lon="-4.378667">
        <ele>1497.0</ele>
        <time>2013-07-03T15:16:05Z</time>
      </trkpt>
      <trkpt lat="39.832550" lon="-4.378517">
        <ele>1497.0</ele>
        <time>2013-07-03T15:16:06Z</time>
      </trkpt>
      <trkpt lat="39.832567" lon="-4.378367">
        <ele>1498.0</ele>
        <time>2013-07-03T15:16:07Z</time>
      </trkpt>
      <trkpt lat="39.832583" lon="-4.378217">
        <ele>1500.0</ele>
        <time>2013-07-03T15:16:08Z</time>
      </trkpt>
      <trkpt lat="39.832600" lon="-4.378100">
        <ele>1502.0</ele>
        <time>2013-07-03T15:16:09Z</time>
      </trkpt>
      <trkpt lat="39.832600" lon="-4.377983">
        <ele>1503.0</ele>
        <time>2013-07-03T15:16:10Z</time>
      </trkpt>
      <trkpt lat="39.832617" lon="-4.377867">
        <ele>1504.0</ele>
        <time>2013-07-03T15:16:11Z</time>
      </trkpt>
      <trkpt lat="39.832633" lon="-4.377750">
        <ele>1504.0</ele>
        <time>2013-07-03T15:16:12Z</time>
      </trkpt>
      <trkpt lat="39.832650" lon="-4.377633">
        <ele>1504.0</ele>
        <time>2013-07-03T15:16:13Z</time>
      </trkpt>
      <trkpt lat="39.832700" lon="-4.377550">
        <ele>1504.0</ele>
        <time>2013-07-03T15:16:14Z</time>
      </trkpt>
      <trkpt lat="39.832767" lon="-4.377483">
        <ele>1505.0</ele>
        <time>2013-07-03T15:16:15Z</time>
      </trkpt>
      <trkpt lat="39.832817" lon="-4.377433">
        <ele>1507.0</ele>
        <time>2013-07-03T15:16:16Z</time>
      </trkpt>
      <trkpt lat="39.832850" lon="-4.377417">
        <ele>1508.0</ele>
        <time>2013-07-03T15:16:17Z</time>
      </trkpt>
      <trkpt lat="39.832883" lon="-4.377417">
        <ele>1509.0</ele>
        <time>2013-07-03T15:16:18Z</time>
      </trkpt>
      <trkpt lat="39.832900" lon="-4.377417">
        <ele>1509.0</ele>
        <time>2013-07-03T15:16:19Z</time>
      </trkpt>
      <trkpt lat="39.832917" lon="-4.377450">
        <ele>1509.0</ele>
        <time>2013-07-03T15:16:20Z</time>
      </trkpt>
      <trkpt lat="39.832917" lon="-4.377483">
        <ele>1509.0</ele>
        <time>2013-07-03T15:16:21Z</time>
      </trkpt>
      <trkpt lat="39.832917" lon="-4.377517">
        <ele>1509.0</ele>
        <time>2013-07-03T15:16:22Z</time>
      </trkpt>
      <trkpt lat="39.832883" lon="-4.377567">
        <ele>1509.0</ele>
        <time>2013-07-03T15:16:23Z</time>
      </trkpt>
      <trkpt lat="39.832850" lon="-4.377617">
        <ele>1510.0</ele>
        <time>2013-07-03T15:16:24Z</time>
      </trkpt>
      <trkpt lat="39.832800" lon="-4.377667">
        <ele>1511.0</ele>
        <time>2013-07-03T15:16:25Z</time>
      </trkpt>
      <trkpt lat="39.832750" lon="-4.377700">
        <ele>1513.0</ele>
        <time>2013-07-03T15:16:26Z</time>
      </trkpt>
      <trkpt lat="39.832683" lon="-4.377717">
        <ele>1514.0</ele>
        <time>2013-07-03T15:16:27Z</time>
      </trkpt>
      <trkpt lat="39.832617" lon="-4.377733">
        <ele>1515.0</ele>
        <time>2013-07-03T15:16:28Z</time>
      </trkpt>
      <trkpt lat="39.832533" lon="-4.377717">
        <ele>1516.0</ele>
        <time>2013-07-03T15:16:29Z</time>
      </trkpt>
      <trkpt lat="39.832450" lon="-4.377700">
        <ele>1517.0</ele>
        <time>2013-07-03T15:16:30Z</time>
      </trkpt>
      <trkpt lat="39.832367" lon="-4.377650">
        <ele>1517.0</ele>
        <time>2013-07-03T15:16:31Z</time>
      </trkpt>
      <trkpt lat="39.832283" lon="-4.377583">
        <ele>1517.0</ele>
        <time>2013-07-03T15:16:32Z</time>
      </trkpt>
      <trkpt lat="39.832200" lon="-4.377500">
        <ele>1518.0</ele>
        <time>2013-07-03T15:16:33Z</time>
      </trkpt>
      <trkpt lat="39.832133" lon="-4.377383">
        <ele>1518.0</ele>
        <time>2013-07-03T15:16:34Z</time>
      </trkpt>
      <trkpt lat="39.832067" lon="-4.377267">
        <ele>1518.0</ele>
        <time>2013-07-03T15:16:35Z</time>
      </trkpt>
      <trkpt lat="39.832017" lon="-4.377117">
        <ele>1518.0</ele>
        <time>2013-07-03T15:16:36Z</time>
      </trkpt>
      <trkpt lat="39.831983" lon="-4.376983">
        <ele>1518.0</ele>
        <time>2013-07-03T15:16:37Z</time>
      </trkpt>
      <trkpt lat="39.831950" lon="-4.376833">
        <ele>1517.0</ele>
        <time>2013-07-03T15:16:38Z</time>
      </trkpt>
      <trkpt lat="39.831933" lon="-4.376700">
        <ele>1517.0</ele>
        <time>2013-07-03T15:16:39Z</time>
      </trkpt>
      <trkpt lat="39.831917" lon="-4.376567">
        <ele>1517.0</ele>
        <time>2013-07-03T15:16:40Z</time>
      </trkpt>
      <trkpt lat="39.831900" lon="-4.376400">
        <ele>1517.0</ele>
        <time>2013-07-03T15:16:41Z</time>
      </trkpt>
      <trkpt lat="39.831883" lon="-4.376250">
        <ele>1517.0</ele>
        <time>2013-07-03T15:16:42Z</time>
      </trkpt>
      <trkpt lat="39.831883" lon="-4.376100">
        <ele>1516.0</ele>
        <time>2013-07-03T15:16:43Z</time>
      </trkpt>
      <trkpt lat="39.831900" lon="-4.375967">
        <ele>1516.0</ele>
        <time>2013-07-03T15:16:44Z</time>
      </trkpt>
      <trkpt lat="39.831933" lon="-4.375867">
        <ele>1515.0</ele>
        <time>2013-07-03T15:16:45Z</time>
      </trkpt>
      <trkpt lat="39.831983" lon="-4.375767">
        <ele>1515.0</ele>
        <time>2013-07-03T15:16:46Z</time>
      </trkpt>
      <trkpt lat="39.832033" lon="-4.375667">
        <ele>1515.0</ele>
        <time>2013-07-03T15:16:47Z</time>
      </trkpt>
      <trkpt lat="39.832083" lon="-4.375600">
        <ele>1516.0</ele>
        <time>2013-07-03T15:16:48Z</time>
      </trkpt>
      <trkpt lat="39.832133" lon="-4.375533">
        <ele>1518.0</ele>
        <time>2013-07-03T15:16:49Z</time>
      </trkpt>
      <trkpt lat="39.832183" lon="-4.375483">
        <ele>1519.0</ele>
        <time>2013-07-03T15:16:50Z</time>
      </trkpt>
      <trkpt lat="39.832217" lon="-4.375450">
        <ele>1521.0</ele>
        <time>2013-07-03T15:16:51Z</time>
      </trkpt>
      <trkpt lat="39.832250" lon="-4.375417">
        <ele>1521.0</ele>
        <time>2013-07-03T15:16:52Z</time>
      </trkpt>
      <trkpt lat="39.832283" lon="-4.375417">
        <ele>1522.0</ele>
        <time>2013-07-03T15:16:53Z</time>
      </trkpt>
      <trkpt lat="39.832317" lon="-4.375433">
        <ele>1522.0</ele>
        <time>2013-07-03T15:16:54Z</time>
      </trkpt>
      <trkpt lat="39.832317" lon="-4.375467">
        <ele>1522.0</ele>
        <time>2013-07-03T15:16:55Z</time>
      </trkpt>
      <trkpt lat="39.832317" lon="-4.375517">
        <ele>1522.0</ele>
        <time>2013-07-03T15:16:56Z</time>
      </trkpt>
      <trkpt lat="39.832300" lon="-4.375583">
        <ele>1523.0</ele>
        <time>2013-07-03T15:16:57Z</time>
      </trkpt>
      <trkpt lat="39.832267" lon="-4.375633">
        <ele>1524.0</ele>
        <time>2013-07-03T15:16:58Z</time>
      </trkpt>
      <trkpt lat="39.832217" lon="-4.375683">
        <ele>1524.0</ele>
        <time>2013-07-03T15:16:59Z</time>
      </trkpt>
      <trkpt lat="39.832167" lon="-4.375717">
        <ele>1526.0</ele>
        <time>2013-07-03T15:17:00Z</time>
      </trkpt>
      <trkpt lat="39.832100" lon="-4.375733">
        <ele>1527.0</ele>
        <time>2013-07-03T15:17:01Z</time>
      </trkpt>
      <trkpt lat="39.832033" lon="-4.375733">
        <ele>1527.0</ele>
        <time>2013-07-03T15:17:02Z</time>
      </trkpt>
      <trkpt lat="39.831950" lon="-4.375717">
        <ele>1528.0</ele>
        <time>2013-07-03T15:17:03Z</time>
      </trkpt>
      <trkpt lat="39.831867" lon="-4.375700">
        <ele>1527.0</ele>
        <time>2013-07-03T15:17:04Z</time>
      </trkpt>
      <trkpt lat="39.831783" lon="-4.375633">
        <ele>1527.0</ele>
        <time>2013-07-03T15:17:05Z</time>
      </trkpt>
      <trkpt lat="39.831683" lon="-4.375550">
        <ele>1526.0</ele>
        <time>2013-07-03T15:17:06Z</time>
      </trkpt>
      <trkpt lat="39.831617" lon="-4.375433">
        <ele>1526.0</ele>
        <time>2013-07-03T15:17:07Z</time>
      </trkpt>
      <trkpt lat="39.831550" lon="-4.375317">
        <ele>1525.0</ele>
        <time>2013-07-03T15:17:08Z</time>
      </trkpt>
      <trkpt lat="39.831500" lon="-4.375183">
        <ele>1526.0</ele>
        <time>2013-07-03T15:17:09Z</time>
      </trkpt>
      <trkpt lat="39.831450" lon="-4.375050">
        <ele>1525.0</ele>
        <time>2013-07-03T15:17:10Z</time>
      </trkpt>
      <trkpt lat="39.831417" lon="-4.374917">
        <ele>1525.0</ele>
        <time>2013-07-03T15:17:11Z</time>
      </trkpt>
      <trkpt lat="39.831383" lon="-4.374783">
        <ele>1525.0</ele>
        <time>2013-07-03T15:17:12Z</time>
      </trkpt>
      <trkpt lat="39.831367" lon="-4.374633">
        <ele>1524.0</ele>
        <time>2013-07-03T15:17:13Z</time>
      </trkpt>
      <trkpt lat="39.831383" lon="-4.374483">
        <ele>1523.0</ele>
        <time>2013-07-03T15:17:14Z</time>
      </trkpt>
      <trkpt lat="39.831417" lon="-4.374367">
        <ele>1523.0</ele>
        <time>2013-07-03T15:17:15Z</time>
      </trkpt>
      <trkpt lat="39.831450" lon="-4.374267">
        <ele>1524.0</ele>
        <time>2013-07-03T15:17:16Z</time>
      </trkpt>
      <trkpt lat="39.831517" lon="-4.374183">
        <ele>1525.0</ele>
        <time>2013-07-03T15:17:17Z</time>
      </trkpt>
      <trkpt lat="39.831550" lon="-4.374133">
        <ele>1525.0</ele>
        <time>2013-07-03T15:17:18Z</time>
      </trkpt>
      <trkpt lat="39.831600" lon="-4.374117">
        <ele>1525.0</ele>
        <time>2013-07-03T15:17:19Z</time>
      </trkpt>
      <trkpt lat="39.831633" lon="-4.374133">
        <ele>1525.0</ele>
        <time>2013-07-03T15:17:20Z</time>
      </trkpt>
      <trkpt lat="39.831650" lon="-4.374167">
        <ele>1524.0</ele>
        <time>2013-07-03T15:17:21Z</time>
      </trkpt>
      <trkpt lat="39.831683" lon="-4.374200">
        <ele>1524.0</ele>
        <time>2013-07-03T15:17:22Z</time>
      </trkpt>
      <trkpt lat="39.831700" lon="-4.374250">
        <ele>1524.0</ele>
        <time>2013-07-03T15:17:23Z</time>
      </trkpt>
      <trkpt lat="39.831717" lon="-4.374300">
        <ele>1524.0</ele>
        <time>2013-07-03T15:17:24Z</time>
      </trkpt>
      <trkpt lat="39.831717" lon="-4.374350">
        <ele>1524.0</ele>
        <time>2013-07-03T15:17:25Z</time>
      </trkpt>
      <trkpt lat="39.831717" lon="-4.374400">
        <ele>1523.0</ele>
        <time>2013-07-03T15:17:26Z</time>
      </trkpt>
      <trkpt lat="39.831683" lon="-4.374467">
        <ele>1522.0</ele>
        <time>2013-07-03T15:17:27Z</time>
      </trkpt>
      <trkpt lat="39.831650" lon="-4.374517">
        <ele>1522.0</ele>
        <time>2013-07-03T15:17:28Z</time>
      </trkpt>
      <trkpt lat="39.831617" lon="-4.374567">
        <ele>1523.0</ele>
        <time>2013-07-03T15:17:29Z</time>
      </trkpt>
      <trkpt lat="39.831567" lon="-4.374600">
        <ele>1523.0</ele>
        <time>2013-07-03T15:17:30Z</time>
      </trkpt>
      <trkpt lat="39.831500" lon="-4.374633">
        <ele>1523.0</ele>
        <time>2013-07-03T15:17:31Z</time>
      </trkpt>
      <trkpt lat="39.831433" lon="-4.374650">
        <ele>1523.0</ele>
        <time>2013-07-03T15:17:32Z</time>
      </trkpt>
      <trkpt lat="39.831367" lon="-4.374667">
        <ele>1522.0</ele>
        <time>2013-07-03T15:17:33Z</time>
      </trkpt>
      <trkpt lat="39.831283" lon="-4.374683">
        <ele>1522.0</ele>
        <time>2013-07-03T15:17:34Z</time>
      </trkpt>
      <trkpt lat="39.831217" lon="-4.374667">
        <ele>1522.0</ele>
        <time>2013-07-03T15:17:35Z</time>
      </trkpt>
      <trkpt lat="39.831133" lon="-4.374650">
        <ele>1521.0</ele>
        <time>2013-07-03T15:17:36Z</time>
      </trkpt>
      <trkpt lat="39.831033" lon="-4.374617">
        <ele>1520.0</ele>
        <time>2013-07-03T15:17:37Z</time>
      </trkpt>
      <trkpt lat="39.830950" lon="-4.374583">
        <ele>1519.0</ele>
        <time>2013-07-03T15:17:38Z</time>
      </trkpt>
      <trkpt lat="39.830850" lon="-4.374533">
        <ele>1518.0</ele>
        <time>2013-07-03T15:17:39Z</time>
      </trkpt>
      <trkpt lat="39.830750" lon="-4.374467">
        <ele>1517.0</ele>
        <time>2013-07-03T15:17:40Z</time>
      </trkpt>
      <trkpt lat="39.830667" lon="-4.374383">
        <ele>1516.0</ele>
        <time>2013-07-03T15:17:41Z</time>
      </trkpt>
      <trkpt lat="39.830567" lon="-4.374300">
        <ele>1515.0</ele>
        <time>2013-07-03T15:17:42Z</time>
      </trkpt>
      <trkpt lat="39.830467" lon="-4.374183">
        <ele>1514.0</ele>
        <time>2013-07-03T15:17:43Z</time>
      </trkpt>
      <trkpt lat="39.830383" lon="-4.374067">
        <ele>1513.0</ele>
        <time>2013-07-03T15:17:44Z</time>
      </trkpt>
      <trkpt lat="39.830300" lon="-4.373950">
        <ele>1512.0</ele>
        <time>2013-07-03T15:17:45Z</time>
      </trkpt>
      <trkpt lat="39.830233" lon="-4.373817">
        <ele>1510.0</ele>
        <time>2013-07-03T15:17:46Z</time>
      </trkpt>
      <trkpt lat="39.830167" lon="-4.373683">
        <ele>1509.0</ele>
        <time>2013-07-03T15:17:47Z</time>
      </trkpt>
      <trkpt lat="39.830117" lon="-4.373533">
        <ele>1508.0</ele>
        <time>2013-07-03T15:17:48Z</time>
      </trkpt>
      <trkpt lat="39.830067" lon="-4.373383">
        <ele>1507.0</ele>
        <time>2013-07-03T15:17:49Z</time>
      </trkpt>
      <trkpt lat="39.830050" lon="-4.373217">
        <ele>1506.0</ele>
        <time>2013-07-03T15:17:50Z</time>
      </trkpt>
      <trkpt lat="39.830033" lon="-4.373067">
        <ele>1505.0</ele>
        <time>2013-07-03T15:17:51Z</time>
      </trkpt>
      <trkpt lat="39.830050" lon="-4.372933">
        <ele>1504.0</ele>
        <time>2013-07-03T15:17:52Z</time>
      </trkpt>
      <trkpt lat="39.830067" lon="-4.372800">
        <ele>1502.0</ele>
        <time>2013-07-03T15:17:53Z</time>
      </trkpt>
      <trkpt lat="39.830100" lon="-4.372683">
        <ele>1501.0</ele>
        <time>2013-07-03T15:17:54Z</time>
      </trkpt>
      <trkpt lat="39.830150" lon="-4.372583">
        <ele>1499.0</ele>
        <time>2013-07-03T15:17:55Z</time>
      </trkpt>
      <trkpt lat="39.830217" lon="-4.372517">
        <ele>1498.0</ele>
        <time>2013-07-03T15:17:56Z</time>
      </trkpt>
      <trkpt lat="39.830283" lon="-4.372483">
        <ele>1497.0</ele>
        <time>2013-07-03T15:17:57Z</time>
      </trkpt>
      <trkpt lat="39.830333" lon="-4.372483">
        <ele>1496.0</ele>
        <time>2013-07-03T15:17:58Z</time>
      </trkpt>
      <trkpt lat="39.830383" lon="-4.372483">
        <ele>1496.0</ele>
        <time>2013-07-03T15:17:59Z</time>
      </trkpt>
      <trkpt lat="39.830417" lon="-4.372483">
        <ele>1496.0</ele>
        <time>2013-07-03T15:18:00Z</time>
      </trkpt>
      <trkpt lat="39.830450" lon="-4.372500">
        <ele>1496.0</ele>
        <time>2013-07-03T15:18:01Z</time>
      </trkpt>
      <trkpt lat="39.830467" lon="-4.372517">
        <ele>1495.0</ele>
        <time>2013-07-03T15:18:02Z</time>
      </trkpt>
      <trkpt lat="39.830483" lon="-4.372567">
        <ele>1493.0</ele>
        <time>2013-07-03T15:18:03Z</time>
      </trkpt>
      <trkpt lat="39.830517" lon="-4.372617">
        <ele>1491.0</ele>
        <time>2013-07-03T15:18:04Z</time>
      </trkpt>
      <trkpt lat="39.830533" lon="-4.372667">
        <ele>1490.0</ele>
        <time>2013-07-03T15:18:05Z</time>
      </trkpt>
      <trkpt lat="39.830533" lon="-4.372717">
        <ele>1489.0</ele>
        <time>2013-07-03T15:18:06Z</time>
      </trkpt>
      <trkpt lat="39.830550" lon="-4.372767">
        <ele>1489.0</ele>
        <time>2013-07-03T15:18:07Z</time>
      </trkpt>
      <trkpt lat="39.830567" lon="-4.372817">
        <ele>1488.0</ele>
        <time>2013-07-03T15:18:08Z</time>
      </trkpt>
      <trkpt lat="39.830567" lon="-4.372850">
        <ele>1488.0</ele>
        <time>2013-07-03T15:18:09Z</time>
      </trkpt>
      <trkpt lat="39.830600" lon="-4.372900">
        <ele>1487.0</ele>
        <time>2013-07-03T15:18:10Z</time>
      </trkpt>
      <trkpt lat="39.830617" lon="-4.372933">
        <ele>1486.0</ele>
        <time>2013-07-03T15:18:11Z</time>
      </trkpt>
      <trkpt lat="39.830650" lon="-4.372983">
        <ele>1487.0</ele>
        <time>2013-07-03T15:18:12Z</time>
      </trkpt>
      <trkpt lat="39.830667" lon="-4.373017">
        <ele>1487.0</ele>
        <time>2013-07-03T15:18:13Z</time>
      </trkpt>
      <trkpt lat="39.830683" lon="-4.373050">
        <ele>1487.0</ele>
        <time>2013-07-03T15:18:14Z</time>
      </trkpt>
      <trkpt lat="39.830700" lon="-4.373083">
        <ele>1487.0</ele>
        <time>2013-07-03T15:18:15Z</time>
      </trkpt>
      <trkpt lat="39.830700" lon="-4.373117">
        <ele>1487.0</ele>
        <time>2013-07-03T15:18:16Z</time>
      </trkpt>
      <trkpt lat="39.830717" lon="-4.373150">
        <ele>1487.0</ele>
        <time>2013-07-03T15:18:17Z</time>
      </trkpt>
      <trkpt lat="39.830733" lon="-4.373183">
        <ele>1487.0</ele>
        <time>2013-07-03T15:18:18Z</time>
      </trkpt>
      <trkpt lat="39.830750" lon="-4.373200">
        <ele>1487.0</ele>
        <time>2013-07-03T15:18:19Z</time>
      </trkpt>
      <trkpt lat="39.830767" lon="-4.373233">
        <ele>1487.0</ele>
        <time>2013-07-03T15:18:20Z</time>
      </trkpt>
      <trkpt lat="39.830800" lon="-4.373250">
        <ele>1486.0</ele>
        <time>2013-07-03T15:18:21Z</time>
      </trkpt>
      <trkpt lat="39.830800" lon="-4.373283">
        <ele>1484.0</ele>
        <time>2013-07-03T15:18:22Z</time>
      </trkpt>
      <trkpt lat="39.830817" lon="-4.373317">
        <ele>1483.0</ele>
        <time>2013-07-03T15:18:23Z</time>
      </trkpt>
      <trkpt lat="39.830800" lon="-4.373350">
        <ele>1482.0</ele>
        <time>2013-07-03T15:18:24Z</time>
      </trkpt>
      <trkpt lat="39.830800" lon="-4.373383">
        <ele>1482.0</ele>
        <time>2013-07-03T15:18:25Z</time>
      </trkpt>
      <trkpt lat="39.830800" lon="-4.373417">
        <ele>1481.0</ele>
        <time>2013-07-03T15:18:26Z</time>
      </trkpt>
      <trkpt lat="39.830783" lon="-4.373450">
        <ele>1480.0</ele>
        <time>2013-07-03T15:18:27Z</time>
      </trkpt>
      <trkpt lat="39.830767" lon="-4.373483">
        <ele>1480.0</ele>
        <time>2013-07-03T15:18:28Z</time>
      </trkpt>
      <trkpt lat="39.830750" lon="-4.373517">
        <ele>1479.0</ele>
        <time>2013-07-03T15:18:29Z</time>
      </trkpt>
      <trkpt lat="39.830717" lon="-4.373550">
        <ele>1479.0</ele>
        <time>2013-07-03T15:18:30Z</time>
      </trkpt>
      <trkpt lat="39.830683" lon="-4.373567">
        <ele>1478.0</ele>
        <time>2013-07-03T15:18:31Z</time>
      </trkpt>
      <trkpt lat="39.830633" lon="-4.373583">
        <ele>1477.0</ele>
        <time>2013-07-03T15:18:32Z</time>
      </trkpt>
      <trkpt lat="39.830583" lon="-4.373600">
        <ele>1477.0</ele>
        <time>2013-07-03T15:18:33Z</time>
      </trkpt>
      <trkpt lat="39.830517" lon="-4.373600">
        <ele>1476.0</ele>
        <time>2013-07-03T15:18:34Z</time>
      </trkpt>
      <trkpt lat="39.830467" lon="-4.373600">
        <ele>1476.0</ele>
        <time>2013-07-03T15:18:35Z</time>
      </trkpt>
      <trkpt lat="39.830400" lon="-4.373583">
        <ele>1475.0</ele>
        <time>2013-07-03T15:18:36Z</time>
      </trkpt>
      <trkpt lat="39.830317" lon="-4.373550">
        <ele>1474.0</ele>
        <time>2013-07-03T15:18:37Z</time>
      </trkpt>
      <trkpt lat="39.830250" lon="-4.373533">
        <ele>1474.0</ele>
        <time>2013-07-03T15:18:38Z</time>
      </trkpt>
      <trkpt lat="39.830167" lon="-4.373483">
        <ele>1476.0</ele>
        <time>2013-07-03T15:18:39Z</time>
      </trkpt>
      <trkpt lat="39.830100" lon="-4.373433">
        <ele>1476.0</ele>
        <time>2013-07-03T15:18:40Z</time>
      </trkpt>
      <trkpt lat="39.830017" lon="-4.373367">
        <ele>1475.0</ele>
        <time>2013-07-03T15:18:41Z</time>
      </trkpt>
      <trkpt lat="39.829950" lon="-4.373283">
        <ele>1473.0</ele>
        <time>2013-07-03T15:18:42Z</time>
      </trkpt>
      <trkpt lat="39.829867" lon="-4.373183">
        <ele>1472.0</ele>
        <time>2013-07-03T15:18:43Z</time>
      </trkpt>
      <trkpt lat="39.829800" lon="-4.373067">
        <ele>1470.0</ele>
        <time>2013-07-03T15:18:44Z</time>
      </trkpt>
      <trkpt lat="39.829733" lon="-4.372933">
        <ele>1468.0</ele>
        <time>2013-07-03T15:18:45Z</time>
      </trkpt>
      <trkpt lat="39.829683" lon="-4.372783">
        <ele>1466.0</ele>
        <time>2013-07-03T15:18:46Z</time>
      </trkpt>
      <trkpt lat="39.829633" lon="-4.372633">
        <ele>1464.0</ele>
        <time>2013-07-03T15:18:47Z</time>
      </trkpt>
      <trkpt lat="39.829600" lon="-4.372467">
        <ele>1461.0</ele>
        <time>2013-07-03T15:18:48Z</time>
      </trkpt>
      <trkpt lat="39.829567" lon="-4.372300">
        <ele>1459.0</ele>
        <time>2013-07-03T15:18:49Z</time>
      </trkpt>
      <trkpt lat="39.829550" lon="-4.372150">
        <ele>1457.0</ele>
        <time>2013-07-03T15:18:50Z</time>
      </trkpt>
      <trkpt lat="39.829533" lon="-4.372000">
        <ele>1454.0</ele>
        <time>2013-07-03T15:18:51Z</time>
      </trkpt>
      <trkpt lat="39.829550" lon="-4.371850">
        <ele>1451.0</ele>
        <time>2013-07-03T15:18:52Z</time>
      </trkpt>
      <trkpt lat="39.829567" lon="-4.371667">
        <ele>1447.0</ele>
        <time>2013-07-03T15:18:53Z</time>
      </trkpt>
      <trkpt lat="39.829583" lon="-4.371483">
        <ele>1445.0</ele>
        <time>2013-07-03T15:18:54Z</time>
      </trkpt>
      <trkpt lat="39.829600" lon="-4.371317">
        <ele>1446.0</ele>
        <time>2013-07-03T15:18:55Z</time>
      </trkpt>
      <trkpt lat="39.829617" lon="-4.371150">
        <ele>1445.0</ele>
        <time>2013-07-03T15:18:56Z</time>
      </trkpt>
      <trkpt lat="39.829633" lon="-4.371000">
        <ele>1443.0</ele>
        <time>2013-07-03T15:18:57Z</time>
      </trkpt>
      <trkpt lat="39.829650" lon="-4.370833">
        <ele>1442.0</ele>
        <time>2013-07-03T15:18:58Z</time>
      </trkpt>
      <trkpt lat="39.829683" lon="-4.370683">
        <ele>1440.0</ele>
        <time>2013-07-03T15:18:59Z</time>
      </trkpt>
      <trkpt lat="39.829717" lon="-4.370517">
        <ele>1438.0</ele>
        <time>2013-07-03T15:19:00Z</time>
      </trkpt>
      <trkpt lat="39.829750" lon="-4.370350">
        <ele>1436.0</ele>
        <time>2013-07-03T15:19:01Z</time>
      </trkpt>
      <trkpt lat="39.829800" lon="-4.370217">
        <ele>1435.0</ele>
        <time>2013-07-03T15:19:02Z</time>
      </trkpt>
      <trkpt lat="39.829833" lon="-4.370083">
        <ele>1434.0</ele>
        <time>2013-07-03T15:19:03Z</time>
      </trkpt>
      <trkpt lat="39.829867" lon="-4.369967">
        <ele>1433.0</ele>
        <time>2013-07-03T15:19:04Z</time>
      </trkpt>
      <trkpt lat="39.829900" lon="-4.369833">
        <ele>1431.0</ele>
        <time>2013-07-03T15:19:05Z</time>
      </trkpt>
      <trkpt lat="39.829933" lon="-4.369700">
        <ele>1428.0</ele>
        <time>2013-07-03T15:19:06Z</time>
      </trkpt>
      <trkpt lat="39.829983" lon="-4.369567">
        <ele>1426.0</ele>
        <time>2013-07-03T15:19:07Z</time>
      </trkpt>
      <trkpt lat="39.830033" lon="-4.369417">
        <ele>1425.0</ele>
        <time>2013-07-03T15:19:08Z</time>
      </trkpt>
      <trkpt lat="39.830083" lon="-4.369283">
        <ele>1426.0</ele>
        <time>2013-07-03T15:19:09Z</time>
      </trkpt>
      <trkpt lat="39.830117" lon="-4.369150">
        <ele>1425.0</ele>
        <time>2013-07-03T15:19:10Z</time>
      </trkpt>
      <trkpt lat="39.830150" lon="-4.369033">
        <ele>1424.0</ele>
        <time>2013-07-03T15:19:11Z</time>
      </trkpt>
      <trkpt lat="39.830183" lon="-4.368933">
        <ele>1422.0</ele>
        <time>2013-07-03T15:19:12Z</time>
      </trkpt>
      <trkpt lat="39.830200" lon="-4.368800">
        <ele>1420.0</ele>
        <time>2013-07-03T15:19:13Z</time>
      </trkpt>
      <trkpt lat="39.830250" lon="-4.368683">
        <ele>1419.0</ele>
        <time>2013-07-03T15:19:14Z</time>
      </trkpt>
      <trkpt lat="39.830283" lon="-4.368550">
        <ele>1417.0</ele>
        <time>2013-07-03T15:19:15Z</time>
      </trkpt>
      <trkpt lat="39.830333" lon="-4.368433">
        <ele>1415.0</ele>
        <time>2013-07-03T15:19:16Z</time>
      </trkpt>
      <trkpt lat="39.830383" lon="-4.368300">
        <ele>1414.0</ele>
        <time>2013-07-03T15:19:17Z</time>
      </trkpt>
      <trkpt lat="39.830433" lon="-4.368183">
        <ele>1413.0</ele>
        <time>2013-07-03T15:19:18Z</time>
      </trkpt>
      <trkpt lat="39.830483" lon="-4.368050">
        <ele>1412.0</ele>
        <time>2013-07-03T15:19:19Z</time>
      </trkpt>
      <trkpt lat="39.830533" lon="-4.367933">
        <ele>1411.0</ele>
        <time>2013-07-03T15:19:20Z</time>
      </trkpt>
      <trkpt lat="39.830583" lon="-4.367800">
        <ele>1410.0</ele>
        <time>2013-07-03T15:19:21Z</time>
      </trkpt>
      <trkpt lat="39.830633" lon="-4.367683">
        <ele>1409.0</ele>
        <time>2013-07-03T15:19:22Z</time>
      </trkpt>
      <trkpt lat="39.830700" lon="-4.367567">
        <ele>1407.0</ele>
        <time>2013-07-03T15:19:23Z</time>
      </trkpt>
      <trkpt lat="39.830750" lon="-4.367450">
        <ele>1407.0</ele>
        <time>2013-07-03T15:19:24Z</time>
      </trkpt>
      <trkpt lat="39.830817" lon="-4.367317">
        <ele>1406.0</ele>
        <time>2013-07-03T15:19:25Z</time>
      </trkpt>
      <trkpt lat="39.830867" lon="-4.367200">
        <ele>1407.0</ele>
        <time>2013-07-03T15:19:26Z</time>
      </trkpt>
      <trkpt lat="39.830917" lon="-4.367100">
        <ele>1406.0</ele>
        <time>2013-07-03T15:19:27Z</time>
      </trkpt>
      <trkpt lat="39.830950" lon="-4.367000">
        <ele>1405.0</ele>
        <time>2013-07-03T15:19:28Z</time>
      </trkpt>
      <trkpt lat="39.831000" lon="-4.366900">
        <ele>1404.0</ele>
        <time>2013-07-03T15:19:29Z</time>
      </trkpt>
      <trkpt lat="39.831033" lon="-4.366817">
        <ele>1401.0</ele>
        <time>2013-07-03T15:19:30Z</time>
      </trkpt>
      <trkpt lat="39.831100" lon="-4.366700">
        <ele>1399.0</ele>
        <time>2013-07-03T15:19:31Z</time>
      </trkpt>
      <trkpt lat="39.831167" lon="-4.366583">
        <ele>1394.0</ele>
        <time>2013-07-03T15:19:32Z</time>
      </trkpt>
      <trkpt lat="39.831233" lon="-4.366500">
        <ele>1391.0</ele>
        <time>2013-07-03T15:19:33Z</time>
      </trkpt>
      <trkpt lat="39.831300" lon="-4.366467">
        <ele>1387.0</ele>
        <time>2013-07-03T15:19:34Z</time>
      </trkpt>
      <trkpt lat="39.831350" lon="-4.366467">
        <ele>1382.0</ele>
        <time>2013-07-03T15:19:35Z</time>
      </trkpt>
      <trkpt lat="39.831383" lon="-4.366517">
        <ele>1377.0</ele>
        <time>2013-07-03T15:19:36Z</time>
      </trkpt>
      <trkpt lat="39.831400" lon="-4.366583">
        <ele>1372.0</ele>
        <time>2013-07-03T15:19:37Z</time>
      </trkpt>
      <trkpt lat="39.831400" lon="-4.366667">
        <ele>1373.0</ele>
        <time>2013-07-03T15:19:38Z</time>
      </trkpt>
      <trkpt lat="39.831367" lon="-4.366733">
        <ele>1370.0</ele>
        <time>2013-07-03T15:19:39Z</time>
      </trkpt>
      <trkpt lat="39.831333" lon="-4.366767">
        <ele>1367.0</ele>
        <time>2013-07-03T15:19:40Z</time>
      </trkpt>
      <trkpt lat="39.831283" lon="-4.366800">
        <ele>1364.0</ele>
        <time>2013-07-03T15:19:41Z</time>
      </trkpt>
      <trkpt lat="39.831217" lon="-4.366850">
        <ele>1361.0</ele>
        <time>2013-07-03T15:19:42Z</time>
      </trkpt>
      <trkpt lat="39.831133" lon="-4.366883">
        <ele>1358.0</ele>
        <time>2013-07-03T15:19:43Z</time>
      </trkpt>
      <trkpt lat="39.831067" lon="-4.366933">
        <ele>1356.0</ele>
        <time>2013-07-03T15:19:44Z</time>
      </trkpt>
      <trkpt lat="39.831000" lon="-4.366967">
        <ele>1354.0</ele>
        <time>2013-07-03T15:19:45Z</time>
      </trkpt>
      <trkpt lat="39.830950" lon="-4.367017">
        <ele>1352.0</ele>
        <time>2013-07-03T15:19:46Z</time>
      </trkpt>
      <trkpt lat="39.830883" lon="-4.367050">
        <ele>1350.0</ele>
        <time>2013-07-03T15:19:47Z</time>
      </trkpt>
      <trkpt lat="39.830817" lon="-4.367083">
        <ele>1347.0</ele>
        <time>2013-07-03T15:19:48Z</time>
      </trkpt>
      <trkpt lat="39.830733" lon="-4.367117">
        <ele>1344.0</ele>
        <time>2013-07-03T15:19:49Z</time>
      </trkpt>
      <trkpt lat="39.830667" lon="-4.367150">
        <ele>1342.0</ele>
        <time>2013-07-03T15:19:50Z</time>
      </trkpt>
      <trkpt lat="39.830600" lon="-4.367200">
        <ele>1340.0</ele>
        <time>2013-07-03T15:19:51Z</time>
      </trkpt>
      <trkpt lat="39.830533" lon="-4.367250">
        <ele>1339.0</ele>
        <time>2013-07-03T15:19:52Z</time>
      </trkpt>
      <trkpt lat="39.830467" lon="-4.367283">
        <ele>1338.0</ele>
        <time>2013-07-03T15:19:53Z</time>
      </trkpt>
      <trkpt lat="39.830383" lon="-4.367333">
        <ele>1336.0</ele>
        <time>2013-07-03T15:19:54Z</time>
      </trkpt>
      <trkpt lat="39.830283" lon="-4.367367">
        <ele>1335.0</ele>
        <time>2013-07-03T15:19:55Z</time>
      </trkpt>
      <trkpt lat="39.830183" lon="-4.367383">
        <ele>1333.0</ele>
        <time>2013-07-03T15:19:56Z</time>
      </trkpt>
      <trkpt lat="39.830083" lon="-4.367400">
        <ele>1332.0</ele>
        <time>2013-07-03T15:19:57Z</time>
      </trkpt>
      <trkpt lat="39.830000" lon="-4.367417">
        <ele>1331.0</ele>
        <time>2013-07-03T15:19:58Z</time>
      </trkpt>
      <trkpt lat="39.829917" lon="-4.367467">
        <ele>1330.0</ele>
        <time>2013-07-03T15:19:59Z</time>
      </trkpt>
      <trkpt lat="39.829833" lon="-4.367500">
        <ele>1328.0</ele>
        <time>2013-07-03T15:20:00Z</time>
      </trkpt>
      <trkpt lat="39.829750" lon="-4.367550">
        <ele>1327.0</ele>
        <time>2013-07-03T15:20:01Z</time>
      </trkpt>
      <trkpt lat="39.829650" lon="-4.367583">
        <ele>1324.0</ele>
        <time>2013-07-03T15:20:02Z</time>
      </trkpt>
      <trkpt lat="39.829550" lon="-4.367633">
        <ele>1322.0</ele>
        <time>2013-07-03T15:20:03Z</time>
      </trkpt>
      <trkpt lat="39.829467" lon="-4.367667">
        <ele>1320.0</ele>
        <time>2013-07-03T15:20:04Z</time>
      </trkpt>
      <trkpt lat="39.829367" lon="-4.367700">
        <ele>1319.0</ele>
        <time>2013-07-03T15:20:05Z</time>
      </trkpt>
      <trkpt lat="39.829283" lon="-4.367717">
        <ele>1318.0</ele>
        <time>2013-07-03T15:20:06Z</time>
      </trkpt>
      <trkpt lat="39.829200" lon="-4.367750">
        <ele>1316.0</ele>
        <time>2013-07-03T15:20:07Z</time>
      </trkpt>
      <trkpt lat="39.829100" lon="-4.367783">
        <ele>1314.0</ele>
        <time>2013-07-03T15:20:08Z</time>
      </trkpt>
      <trkpt lat="39.829017" lon="-4.367833">
        <ele>1312.0</ele>
        <time>2013-07-03T15:20:09Z</time>
      </trkpt>
      <trkpt lat="39.828917" lon="-4.367883">
        <ele>1310.0</ele>
        <time>2013-07-03T15:20:10Z</time>
      </trkpt>
      <trkpt lat="39.828833" lon="-4.367950">
        <ele>1310.0</ele>
        <time>2013-07-03T15:20:11Z</time>
      </trkpt>
      <trkpt lat="39.828750" lon="-4.368000">
        <ele>1310.0</ele>
        <time>2013-07-03T15:20:12Z</time>
      </trkpt>
      <trkpt lat="39.828683" lon="-4.368050">
        <ele>1310.0</ele>
        <time>2013-07-03T15:20:13Z</time>
      </trkpt>
      <trkpt lat="39.828600" lon="-4.368100">
        <ele>1309.0</ele>
        <time>2013-07-03T15:20:14Z</time>
      </trkpt>
      <trkpt lat="39.828533" lon="-4.368150">
        <ele>1307.0</ele>
        <time>2013-07-03T15:20:15Z</time>
      </trkpt>
      <trkpt lat="39.828450" lon="-4.368200">
        <ele>1306.0</ele>
        <time>2013-07-03T15:20:16Z</time>
      </trkpt>
      <trkpt lat="39.828383" lon="-4.368267">
        <ele>1306.0</ele>
        <time>2013-07-03T15:20:17Z</time>
      </trkpt>
      <trkpt lat="39.828317" lon="-4.368300">
        <ele>1305.0</ele>
        <time>2013-07-03T15:20:18Z</time>
      </trkpt>
      <trkpt lat="39.828250" lon="-4.368333">
        <ele>1305.0</ele>
        <time>2013-07-03T15:20:19Z</time>
      </trkpt>
      <trkpt lat="39.828167" lon="-4.368367">
        <ele>1305.0</ele>
        <time>2013-07-03T15:20:20Z</time>
      </trkpt>
      <trkpt lat="39.828083" lon="-4.368400">
        <ele>1303.0</ele>
        <time>2013-07-03T15:20:21Z</time>
      </trkpt>
      <trkpt lat="39.828000" lon="-4.368417">
        <ele>1302.0</ele>
        <time>2013-07-03T15:20:22Z</time>
      </trkpt>
      <trkpt lat="39.827917" lon="-4.368467">
        <ele>1302.0</ele>
        <time>2013-07-03T15:20:23Z</time>
      </trkpt>
      <trkpt lat="39.827833" lon="-4.368500">
        <ele>1302.0</ele>
        <time>2013-07-03T15:20:24Z</time>
      </trkpt>
      <trkpt lat="39.827767" lon="-4.368533">
        <ele>1303.0</ele>
        <time>2013-07-03T15:20:25Z</time>
      </trkpt>
      <trkpt lat="39.827717" lon="-4.368567">
        <ele>1304.0</ele>
        <time>2013-07-03T15:20:26Z</time>
      </trkpt>
      <trkpt lat="39.827650" lon="-4.368600">
        <ele>1304.0</ele>
        <time>2013-07-03T15:20:27Z</time>
      </trkpt>
      <trkpt lat="39.827617" lon="-4.368633">
        <ele>1305.0</ele>
        <time>2013-07-03T15:20:28Z</time>
      </trkpt>
      <trkpt lat="39.827583" lon="-4.368667">
        <ele>1305.0</ele>
        <time>2013-07-03T15:20:29Z</time>
      </trkpt>
      <trkpt lat="39.827567" lon="-4.368700">
        <ele>1304.0</ele>
        <time>2013-07-03T15:20:30Z</time>
      </trkpt>
      <trkpt lat="39.827533" lon="-4.368750">
        <ele>1303.0</ele>
        <time>2013-07-03T15:20:31Z</time>
      </trkpt>
      <trkpt lat="39.827483" lon="-4.368800">
        <ele>1303.0</ele>
        <time>2013-07-03T15:20:32Z</time>
      </trkpt>
      <trkpt lat="39.827433" lon="-4.368850">
        <ele>1303.0</ele>
        <time>2013-07-03T15:20:33Z</time>
      </trkpt>
      <trkpt lat="39.827383" lon="-4.368900">
        <ele>1303.0</ele>
        <time>2013-07-03T15:20:34Z</time>
      </trkpt>
      <trkpt lat="39.827333" lon="-4.368933">
        <ele>1303.0</ele>
        <time>2013-07-03T15:20:35Z</time>
      </trkpt>
      <trkpt lat="39.827300" lon="-4.368983">
        <ele>1302.0</ele>
        <time>2013-07-03T15:20:36Z</time>
      </trkpt>
      <trkpt lat="39.827250" lon="-4.369017">
        <ele>1301.0</ele>
        <time>2013-07-03T15:20:37Z</time>
      </trkpt>
      <trkpt lat="39.827217" lon="-4.369067">
        <ele>1300.0</ele>
        <time>2013-07-03T15:20:38Z</time>
      </trkpt>
      <trkpt lat="39.827167" lon="-4.369117">
        <ele>1299.0</ele>
        <time>2013-07-03T15:20:39Z</time>
      </trkpt>
      <trkpt lat="39.827100" lon="-4.369167">
        <ele>1297.0</ele>
        <time>2013-07-03T15:20:40Z</time>
      </trkpt>
      <trkpt lat="39.827033" lon="-4.369200">
        <ele>1295.0</ele>
        <time>2013-07-03T15:20:41Z</time>
      </trkpt>
      <trkpt lat="39.826967" lon="-4.369250">
        <ele>1292.0</ele>
        <time>2013-07-03T15:20:42Z</time>
      </trkpt>
      <trkpt lat="39.826867" lon="-4.369300">
        <ele>1290.0</ele>
        <time>2013-07-03T15:20:43Z</time>
      </trkpt>
      <trkpt lat="39.826783" lon="-4.369367">
        <ele>1288.0</ele>
        <time>2013-07-03T15:20:44Z</time>
      </trkpt>
      <trkpt lat="39.826700" lon="-4.369417">
        <ele>1287.0</ele>
        <time>2013-07-03T15:20:45Z</time>
      </trkpt>
      <trkpt lat="39.826617" lon="-4.369467">
        <ele>1287.0</ele>
        <time>2013-07-03T15:20:46Z</time>
      </trkpt>
      <trkpt lat="39.826533" lon="-4.369533">
        <ele>1286.0</ele>
        <time>2013-07-03T15:20:47Z</time>
      </trkpt>
      <trkpt lat="39.826467" lon="-4.369583">
        <ele>1285.0</ele>
        <time>2013-07-03T15:20:48Z</time>
      </trkpt>
      <trkpt lat="39.826400" lon="-4.369633">
        <ele>1283.0</ele>
        <time>2013-07-03T15:20:49Z</time>
      </trkpt>
      <trkpt lat="39.826333" lon="-4.369700">
        <ele>1281.0</ele>
        <time>2013-07-03T15:20:50Z</time>
      </trkpt>
      <trkpt lat="39.826267" lon="-4.369767">
        <ele>1280.0</ele>
        <time>2013-07-03T15:20:51Z</time>
      </trkpt>
      <trkpt lat="39.826200" lon="-4.369817">
        <ele>1279.0</ele>
        <time>2013-07-03T15:20:52Z</time>
      </trkpt>
      <trkpt lat="39.826133" lon="-4.369850">
        <ele>1278.0</ele>
        <time>2013-07-03T15:20:53Z</time>
      </trkpt>
      <trkpt lat="39.826083" lon="-4.369900">
        <ele>1276.0</ele>
        <time>2013-07-03T15:20:54Z</time>
      </trkpt>
      <trkpt lat="39.826017" lon="-4.369950">
        <ele>1274.0</ele>
        <time>2013-07-03T15:20:55Z</time>
      </trkpt>
      <trkpt lat="39.825950" lon="-4.370000">
        <ele>1272.0</ele>
        <time>2013-07-03T15:20:56Z</time>
      </trkpt>
      <trkpt lat="39.825883" lon="-4.370033">
        <ele>1271.0</ele>
        <time>2013-07-03T15:20:57Z</time>
      </trkpt>
      <trkpt lat="39.825817" lon="-4.370033">
        <ele>1270.0</ele>
        <time>2013-07-03T15:20:58Z</time>
      </trkpt>
      <trkpt lat="39.825750" lon="-4.369983">
        <ele>1268.0</ele>
        <time>2013-07-03T15:20:59Z</time>
      </trkpt>
      <trkpt lat="39.825683" lon="-4.369900">
        <ele>1266.0</ele>
        <time>2013-07-03T15:21:00Z</time>
      </trkpt>
      <trkpt lat="39.825617" lon="-4.369783">
        <ele>1263.0</ele>
        <time>2013-07-03T15:21:01Z</time>
      </trkpt>
      <trkpt lat="39.825550" lon="-4.369667">
        <ele>1261.0</ele>
        <time>2013-07-03T15:21:02Z</time>
      </trkpt>
      <trkpt lat="39.825517" lon="-4.369533">
        <ele>1259.0</ele>
        <time>2013-07-03T15:21:03Z</time>
      </trkpt>
      <trkpt lat="39.825467" lon="-4.369400">
        <ele>1257.0</ele>
        <time>2013-07-03T15:21:04Z</time>
      </trkpt>
      <trkpt lat="39.825417" lon="-4.369267">
        <ele>1255.0</ele>
        <time>2013-07-03T15:21:05Z</time>
      </trkpt>
      <trkpt lat="39.825383" lon="-4.369117">
        <ele>1252.0</ele>
        <time>2013-07-03T15:21:06Z</time>
      </trkpt>
      <trkpt lat="39.825333" lon="-4.368950">
        <ele>1250.0</ele>
        <time>2013-07-03T15:21:07Z</time>
      </trkpt>
      <trkpt lat="39.825283" lon="-4.368800">
        <ele>1249.0</ele>
        <time>2013-07-03T15:21:08Z</time>
      </trkpt>
      <trkpt lat="39.825267" lon="-4.368633">
        <ele>1247.0</ele>
        <time>2013-07-03T15:21:09Z</time>
      </trkpt>
      <trkpt lat="39.825233" lon="-4.368483">
        <ele>1245.0</ele>
        <time>2013-07-03T15:21:10Z</time>
      </trkpt>
      <trkpt lat="39.825200" lon="-4.368317">
        <ele>1243.0</ele>
        <time>2013-07-03T15:21:11Z</time>
      </trkpt>
      <trkpt lat="39.825183" lon="-4.368150">
        <ele>1241.0</ele>
        <time>2013-07-03T15:21:12Z</time>
      </trkpt>
      <trkpt lat="39.825167" lon="-4.367983">
        <ele>1239.0</ele>
        <time>2013-07-03T15:21:13Z</time>
      </trkpt>
      <trkpt lat="39.825133" lon="-4.367817">
        <ele>1237.0</ele>
        <time>2013-07-03T15:21:14Z</time>
      </trkpt>
      <trkpt lat="39.825117" lon="-4.367650">
        <ele>1236.0</ele>
        <time>2013-07-03T15:21:15Z</time>
      </trkpt>
      <trkpt lat="39.825100" lon="-4.367483">
        <ele>1234.0</ele>
        <time>2013-07-03T15:21:16Z</time>
      </trkpt>
      <trkpt lat="39.825083" lon="-4.367333">
        <ele>1233.0</ele>
        <time>2013-07-03T15:21:17Z</time>
      </trkpt>
      <trkpt lat="39.825083" lon="-4.367167">
        <ele>1231.0</ele>
        <time>2013-07-03T15:21:18Z</time>
      </trkpt>
      <trkpt lat="39.825067" lon="-4.367017">
        <ele>1230.0</ele>
        <time>2013-07-03T15:21:19Z</time>
      </trkpt>
      <trkpt lat="39.825050" lon="-4.366867">
        <ele>1229.0</ele>
        <time>2013-07-03T15:21:20Z</time>
      </trkpt>
      <trkpt lat="39.825033" lon="-4.366700">
        <ele>1227.0</ele>
        <time>2013-07-03T15:21:21Z</time>
      </trkpt>
      <trkpt lat="39.825017" lon="-4.366550">
        <ele>1226.0</ele>
        <time>2013-07-03T15:21:22Z</time>
      </trkpt>
      <trkpt lat="39.825000" lon="-4.366383">
        <ele>1225.0</ele>
        <time>2013-07-03T15:21:23Z</time>
      </trkpt>
      <trkpt lat="39.825000" lon="-4.366217">
        <ele>1225.0</ele>
        <time>2013-07-03T15:21:24Z</time>
      </trkpt>
      <trkpt lat="39.824983" lon="-4.366050">
        <ele>1224.0</ele>
        <time>2013-07-03T15:21:25Z</time>
      </trkpt>
      <trkpt lat="39.824983" lon="-4.365900">
        <ele>1223.0</ele>
        <time>2013-07-03T15:21:26Z</time>
      </trkpt>
      <trkpt lat="39.824967" lon="-4.365733">
        <ele>1222.0</ele>
        <time>2013-07-03T15:21:27Z</time>
      </trkpt>
      <trkpt lat="39.824950" lon="-4.365583">
        <ele>1222.0</ele>
        <time>2013-07-03T15:21:28Z</time>
      </trkpt>
      <trkpt lat="39.824933" lon="-4.365417">
        <ele>1221.0</ele>
        <time>2013-07-03T15:21:29Z</time>
      </trkpt>
      <trkpt lat="39.824933" lon="-4.365267">
        <ele>1221.0</ele>
        <time>2013-07-03T15:21:30Z</time>
      </trkpt>
      <trkpt lat="39.824933" lon="-4.365117">
        <ele>1220.0</ele>
        <time>2013-07-03T15:21:31Z</time>
      </trkpt>
      <trkpt lat="39.824950" lon="-4.364967">
        <ele>1219.0</ele>
        <time>2013-07-03T15:21:32Z</time>
      </trkpt>
      <trkpt lat="39.824950" lon="-4.364817">
        <ele>1219.0</ele>
        <time>2013-07-03T15:21:33Z</time>
      </trkpt>
      <trkpt lat="39.824983" lon="-4.364667">
        <ele>1218.0</ele>
        <time>2013-07-03T15:21:34Z</time>
      </trkpt>
      <trkpt lat="39.825000" lon="-4.364517">
        <ele>1218.0</ele>
        <time>2013-07-03T15:21:35Z</time>
      </trkpt>
      <trkpt lat="39.825017" lon="-4.364367">
        <ele>1219.0</ele>
        <time>2013-07-03T15:21:36Z</time>
      </trkpt>
      <trkpt lat="39.825033" lon="-4.364233">
        <ele>1219.0</ele>
        <time>2013-07-03T15:21:37Z</time>
      </trkpt>
      <trkpt lat="39.825050" lon="-4.364117">
        <ele>1220.0</ele>
        <time>2013-07-03T15:21:38Z</time>
      </trkpt>
      <trkpt lat="39.825050" lon="-4.364000">
        <ele>1219.0</ele>
        <time>2013-07-03T15:21:39Z</time>
      </trkpt>
      <trkpt lat="39.825067" lon="-4.363867">
        <ele>1217.0</ele>
        <time>2013-07-03T15:21:40Z</time>
      </trkpt>
      <trkpt lat="39.825050" lon="-4.363717">
        <ele>1215.0</ele>
        <time>2013-07-03T15:21:41Z</time>
      </trkpt>
      <trkpt lat="39.825050" lon="-4.363567">
        <ele>1214.0</ele>
        <time>2013-07-03T15:21:42Z</time>
      </trkpt>
      <trkpt lat="39.825033" lon="-4.363417">
        <ele>1213.0</ele>
        <time>2013-07-03T15:21:43Z</time>
      </trkpt>
      <trkpt lat="39.825017" lon="-4.363283">
        <ele>1212.0</ele>
        <time>2013-07-03T15:21:44Z</time>
      </trkpt>
      <trkpt lat="39.825000" lon="-4.363133">
        <ele>1210.0</ele>
        <time>2013-07-03T15:21:45Z</time>
      </trkpt>
      <trkpt lat="39.824983" lon="-4.362967">
        <ele>1207.0</ele>
        <time>2013-07-03T15:21:46Z</time>
      </trkpt>
      <trkpt lat="39.824983" lon="-4.362800">
        <ele>1204.0</ele>
        <time>2013-07-03T15:21:47Z</time>
      </trkpt>
      <trkpt lat="39.825000" lon="-4.362617">
        <ele>1202.0</ele>
        <time>2013-07-03T15:21:48Z</time>
      </trkpt>
      <trkpt lat="39.825000" lon="-4.362450">
        <ele>1200.0</ele>
        <time>2013-07-03T15:21:49Z</time>
      </trkpt>
      <trkpt lat="39.824983" lon="-4.362283">
        <ele>1198.0</ele>
        <time>2013-07-03T15:21:50Z</time>
      </trkpt>
      <trkpt lat="39.824967" lon="-4.362133">
        <ele>1196.0</ele>
        <time>2013-07-03T15:21:51Z</time>
      </trkpt>
      <trkpt lat="39.824967" lon="-4.361967">
        <ele>1193.0</ele>
        <time>2013-07-03T15:21:52Z</time>
      </trkpt>
      <trkpt lat="39.824967" lon="-4.361783">
        <ele>1192.0</ele>
        <time>2013-07-03T15:21:53Z</time>
      </trkpt>
      <trkpt lat="39.824967" lon="-4.361600">
        <ele>1190.0</ele>
        <time>2013-07-03T15:21:54Z</time>
      </trkpt>
      <trkpt lat="39.824950" lon="-4.361417">
        <ele>1189.0</ele>
        <time>2013-07-03T15:21:55Z</time>
      </trkpt>
      <trkpt lat="39.824917" lon="-4.361250">
        <ele>1190.0</ele>
        <time>2013-07-03T15:21:56Z</time>
      </trkpt>
      <trkpt lat="39.824900" lon="-4.361100">
        <ele>1191.0</ele>
        <time>2013-07-03T15:21:57Z</time>
      </trkpt>
      <trkpt lat="39.824883" lon="-4.360967">
        <ele>1191.0</ele>
        <time>2013-07-03T15:21:58Z</time>
      </trkpt>
      <trkpt lat="39.824883" lon="-4.360817">
        <ele>1190.0</ele>
        <time>2013-07-03T15:21:59Z</time>
      </trkpt>
      <trkpt lat="39.824883" lon="-4.360667">
        <ele>1188.0</ele>
        <time>2013-07-03T15:22:00Z</time>
      </trkpt>
      <trkpt lat="39.824850" lon="-4.360483">
        <ele>1186.0</ele>
        <time>2013-07-03T15:22:01Z</time>
      </trkpt>
      <trkpt lat="39.824833" lon="-4.360283">
        <ele>1185.0</ele>
        <time>2013-07-03T15:22:02Z</time>
      </trkpt>
      <trkpt lat="39.824800" lon="-4.360100">
        <ele>1183.0</ele>
        <time>2013-07-03T15:22:03Z</time>
      </trkpt>
      <trkpt lat="39.824800" lon="-4.359933">
        <ele>1181.0</ele>
        <time>2013-07-03T15:22:04Z</time>
      </trkpt>
      <trkpt lat="39.824783" lon="-4.359767">
        <ele>1179.0</ele>
        <time>2013-07-03T15:22:05Z</time>
      </trkpt>
      <trkpt lat="39.824750" lon="-4.359583">
        <ele>1177.0</ele>
        <time>2013-07-03T15:22:06Z</time>
      </trkpt>
      <trkpt lat="39.824733" lon="-4.359433">
        <ele>1176.0</ele>
        <time>2013-07-03T15:22:07Z</time>
      </trkpt>
      <trkpt lat="39.824700" lon="-4.359300">
        <ele>1175.0</ele>
        <time>2013-07-03T15:22:08Z</time>
      </trkpt>
      <trkpt lat="39.824667" lon="-4.359183">
        <ele>1176.0</ele>
        <time>2013-07-03T15:22:09Z</time>
      </trkpt>
      <trkpt lat="39.824633" lon="-4.359067">
        <ele>1175.0</ele>
        <time>2013-07-03T15:22:10Z</time>
      </trkpt>
      <trkpt lat="39.824600" lon="-4.358950">
        <ele>1173.0</ele>
        <time>2013-07-03T15:22:11Z</time>
      </trkpt>
      <trkpt lat="39.824583" lon="-4.358817">
        <ele>1171.0</ele>
        <time>2013-07-03T15:22:12Z</time>
      </trkpt>
      <trkpt lat="39.824583" lon="-4.358683">
        <ele>1169.0</ele>
        <time>2013-07-03T15:22:13Z</time>
      </trkpt>
      <trkpt lat="39.824600" lon="-4.358533">
        <ele>1168.0</ele>
        <time>2013-07-03T15:22:14Z</time>
      </trkpt>
      <trkpt lat="39.824583" lon="-4.358400">
        <ele>1168.0</ele>
        <time>2013-07-03T15:22:15Z</time>
      </trkpt>
      <trkpt lat="39.824583" lon="-4.358267">
        <ele>1167.0</ele>
        <time>2013-07-03T15:22:16Z</time>
      </trkpt>
      <trkpt lat="39.824567" lon="-4.358133">
        <ele>1165.0</ele>
        <time>2013-07-03T15:22:17Z</time>
      </trkpt>
      <trkpt lat="39.824567" lon="-4.358000">
        <ele>1163.0</ele>
        <time>2013-07-03T15:22:18Z</time>
      </trkpt>
      <trkpt lat="39.824567" lon="-4.357883">
        <ele>1161.0</ele>
        <time>2013-07-03T15:22:19Z</time>
      </trkpt>
      <trkpt lat="39.824567" lon="-4.357767">
        <ele>1159.0</ele>
        <time>2013-07-03T15:22:20Z</time>
      </trkpt>
      <trkpt lat="39.824567" lon="-4.357633">
        <ele>1157.0</ele>
        <time>2013-07-03T15:22:21Z</time>
      </trkpt>
      <trkpt lat="39.824567" lon="-4.357517">
        <ele>1154.0</ele>
        <time>2013-07-03T15:22:22Z</time>
      </trkpt>
      <trkpt lat="39.824567" lon="-4.357400">
        <ele>1150.0</ele>
        <time>2013-07-03T15:22:23Z</time>
      </trkpt>
      <trkpt lat="39.824567" lon="-4.357267">
        <ele>1147.0</ele>
        <time>2013-07-03T15:22:24Z</time>
      </trkpt>
      <trkpt lat="39.824550" lon="-4.357150">
        <ele>1144.0</ele>
        <time>2013-07-03T15:22:25Z</time>
      </trkpt>
      <trkpt lat="39.824550" lon="-4.357017">
        <ele>1140.0</ele>
        <time>2013-07-03T15:22:26Z</time>
      </trkpt>
      <trkpt lat="39.824550" lon="-4.356900">
        <ele>1136.0</ele>
        <time>2013-07-03T15:22:27Z</time>
      </trkpt>
      <trkpt lat="39.824567" lon="-4.356783">
        <ele>1133.0</ele>
        <time>2013-07-03T15:22:28Z</time>
      </trkpt>
      <trkpt lat="39.824600" lon="-4.356667">
        <ele>1130.0</ele>
        <time>2013-07-03T15:22:29Z</time>
      </trkpt>
      <trkpt lat="39.824633" lon="-4.356517">
        <ele>1127.0</ele>
        <time>2013-07-03T15:22:30Z</time>
      </trkpt>
      <trkpt lat="39.824650" lon="-4.356367">
        <ele>1123.0</ele>
        <time>2013-07-03T15:22:31Z</time>
      </trkpt>
      <trkpt lat="39.824650" lon="-4.356233">
        <ele>1121.0</ele>
        <time>2013-07-03T15:22:32Z</time>
      </trkpt>
      <trkpt lat="39.824650" lon="-4.356100">
        <ele>1118.0</ele>
        <time>2013-07-03T15:22:33Z</time>
      </trkpt>
      <trkpt lat="39.824667" lon="-4.355967">
        <ele>1115.0</ele>
        <time>2013-07-03T15:22:34Z</time>
      </trkpt>
      <trkpt lat="39.824667" lon="-4.355833">
        <ele>1112.0</ele>
        <time>2013-07-03T15:22:35Z</time>
      </trkpt>
      <trkpt lat="39.824667" lon="-4.355717">
        <ele>1109.0</ele>
        <time>2013-07-03T15:22:36Z</time>
      </trkpt>
      <trkpt lat="39.824650" lon="-4.355583">
        <ele>1105.0</ele>
        <time>2013-07-03T15:22:37Z</time>
      </trkpt>
      <trkpt lat="39.824617" lon="-4.355450">
        <ele>1102.0</ele>
        <time>2013-07-03T15:22:38Z</time>
      </trkpt>
      <trkpt lat="39.824600" lon="-4.355317">
        <ele>1100.0</ele>
        <time>2013-07-03T15:22:39Z</time>
      </trkpt>
      <trkpt lat="39.824583" lon="-4.355183">
        <ele>1097.0</ele>
        <time>2013-07-03T15:22:40Z</time>
      </trkpt>
      <trkpt lat="39.824583" lon="-4.355050">
        <ele>1095.0</ele>
        <time>2013-07-03T15:22:41Z</time>
      </trkpt>
      <trkpt lat="39.824567" lon="-4.354900">
        <ele>1093.0</ele>
        <time>2013-07-03T15:22:42Z</time>
      </trkpt>
      <trkpt lat="39.824550" lon="-4.354750">
        <ele>1091.0</ele>
        <time>2013-07-03T15:22:43Z</time>
      </trkpt>
      <trkpt lat="39.824533" lon="-4.354600">
        <ele>1090.0</ele>
        <time>2013-07-03T15:22:44Z</time>
      </trkpt>
      <trkpt lat="39.824533" lon="-4.354467">
        <ele>1089.0</ele>
        <time>2013-07-03T15:22:45Z</time>
      </trkpt>
      <trkpt lat="39.824533" lon="-4.354350">
        <ele>1088.0</ele>
        <time>2013-07-03T15:22:46Z</time>
      </trkpt>
      <trkpt lat="39.824517" lon="-4.354250">
        <ele>1088.0</ele>
        <time>2013-07-03T15:22:47Z</time>
      </trkpt>
      <trkpt lat="39.824517" lon="-4.354133">
        <ele>1087.0</ele>
        <time>2013-07-03T15:22:48Z</time>
      </trkpt>
      <trkpt lat="39.824500" lon="-4.354000">
        <ele>1085.0</ele>
        <time>2013-07-03T15:22:49Z</time>
      </trkpt>
      <trkpt lat="39.824467" lon="-4.353867">
        <ele>1083.0</ele>
        <time>2013-07-03T15:22:50Z</time>
      </trkpt>
      <trkpt lat="39.824450" lon="-4.353750">
        <ele>1082.0</ele>
        <time>2013-07-03T15:22:51Z</time>
      </trkpt>
      <trkpt lat="39.824417" lon="-4.353617">
        <ele>1082.0</ele>
        <time>2013-07-03T15:22:52Z</time>
      </trkpt>
      <trkpt lat="39.824383" lon="-4.353517">
        <ele>1081.0</ele>
        <time>2013-07-03T15:22:53Z</time>
      </trkpt>
      <trkpt lat="39.824350" lon="-4.353433">
        <ele>1081.0</ele>
        <time>2013-07-03T15:22:54Z</time>
      </trkpt>
      <trkpt lat="39.824317" lon="-4.353350">
        <ele>1081.0</ele>
        <time>2013-07-03T15:22:55Z</time>
      </trkpt>
      <trkpt lat="39.824283" lon="-4.353267">
        <ele>1079.0</ele>
        <time>2013-07-03T15:22:56Z</time>
      </trkpt>
      <trkpt lat="39.824233" lon="-4.353167">
        <ele>1077.0</ele>
        <time>2013-07-03T15:22:57Z</time>
      </trkpt>
      <trkpt lat="39.824183" lon="-4.353083">
        <ele>1075.0</ele>
        <time>2013-07-03T15:22:58Z</time>
      </trkpt>
      <trkpt lat="39.824117" lon="-4.352983">
        <ele>1075.0</ele>
        <time>2013-07-03T15:22:59Z</time>
      </trkpt>
      <trkpt lat="39.824067" lon="-4.352900">
        <ele>1074.0</ele>
        <time>2013-07-03T15:23:00Z</time>
      </trkpt>
      <trkpt lat="39.824017" lon="-4.352817">
        <ele>1074.0</ele>
        <time>2013-07-03T15:23:01Z</time>
      </trkpt>
      <trkpt lat="39.823950" lon="-4.352733">
        <ele>1072.0</ele>
        <time>2013-07-03T15:23:02Z</time>
      </trkpt>
      <trkpt lat="39.823867" lon="-4.352667">
        <ele>1070.0</ele>
        <time>2013-07-03T15:23:03Z</time>
      </trkpt>
      <trkpt lat="39.823783" lon="-4.352600">
        <ele>1068.0</ele>
        <time>2013-07-03T15:23:04Z</time>
      </trkpt>
      <trkpt lat="39.823700" lon="-4.352533">
        <ele>1069.0</ele>
        <time>2013-07-03T15:23:05Z</time>
      </trkpt>
      <trkpt lat="39.823617" lon="-4.352467">
        <ele>1070.0</ele>
        <time>2013-07-03T15:23:06Z</time>
      </trkpt>
      <trkpt lat="39.823550" lon="-4.352433">
        <ele>1071.0</ele>
        <time>2013-07-03T15:23:07Z</time>
      </trkpt>
      <trkpt lat="39.823500" lon="-4.352383">
        <ele>1071.0</ele>
        <time>2013-07-03T15:23:08Z</time>
      </trkpt>
      <trkpt lat="39.823433" lon="-4.352333">
        <ele>1071.0</ele>
        <time>2013-07-03T15:23:09Z</time>
      </trkpt>
      <trkpt lat="39.823367" lon="-4.352267">
        <ele>1070.0</ele>
        <time>2013-07-03T15:23:10Z</time>
      </trkpt>
      <trkpt lat="39.823283" lon="-4.352200">
        <ele>1069.0</ele>
        <time>2013-07-03T15:23:11Z</time>
      </trkpt>
      <trkpt lat="39.823200" lon="-4.352167">
        <ele>1069.0</ele>
        <time>2013-07-03T15:23:12Z</time>
      </trkpt>
      <trkpt lat="39.823117" lon="-4.352150">
        <ele>1069.0</ele>
        <time>2013-07-03T15:23:13Z</time>
      </trkpt>
      <trkpt lat="39.823033" lon="-4.352133">
        <ele>1069.0</ele>
        <time>2013-07-03T15:23:14Z</time>
      </trkpt>
      <trkpt lat="39.822967" lon="-4.352100">
        <ele>1068.0</ele>
        <time>2013-07-03T15:23:15Z</time>
      </trkpt>
      <trkpt lat="39.822883" lon="-4.352067">
        <ele>1068.0</ele>
        <time>2013-07-03T15:23:16Z</time>
      </trkpt>
      <trkpt lat="39.822800" lon="-4.352033">
        <ele>1067.0</ele>
        <time>2013-07-03T15:23:17Z</time>
      </trkpt>
      <trkpt lat="39.822700" lon="-4.352000">
        <ele>1067.0</ele>
        <time>2013-07-03T15:23:18Z</time>
      </trkpt>
      <trkpt lat="39.822617" lon="-4.351983">
        <ele>1067.0</ele>
        <time>2013-07-03T15:23:19Z</time>
      </trkpt>
      <trkpt lat="39.822533" lon="-4.351950">
        <ele>1067.0</ele>
        <time>2013-07-03T15:23:20Z</time>
      </trkpt>
      <trkpt lat="39.822450" lon="-4.351917">
        <ele>1068.0</ele>
        <time>2013-07-03T15:23:21Z</time>
      </trkpt>
      <trkpt lat="39.822383" lon="-4.351900">
        <ele>1067.0</ele>
        <time>2013-07-03T15:23:22Z</time>
      </trkpt>
      <trkpt lat="39.822300" lon="-4.351883">
        <ele>1066.0</ele>
        <time>2013-07-03T15:23:23Z</time>
      </trkpt>
      <trkpt lat="39.822200" lon="-4.351867">
        <ele>1065.0</ele>
        <time>2013-07-03T15:23:24Z</time>
      </trkpt>
      <trkpt lat="39.822117" lon="-4.351833">
        <ele>1066.0</ele>
        <time>2013-07-03T15:23:25Z</time>
      </trkpt>
      <trkpt lat="39.822033" lon="-4.351800">
        <ele>1067.0</ele>
        <time>2013-07-03T15:23:26Z</time>
      </trkpt>
      <trkpt lat="39.821967" lon="-4.351767">
        <ele>1069.0</ele>
        <time>2013-07-03T15:23:27Z</time>
      </trkpt>
      <trkpt lat="39.821917" lon="-4.351717">
        <ele>1071.0</ele>
        <time>2013-07-03T15:23:28Z</time>
      </trkpt>
      <trkpt lat="39.821867" lon="-4.351700">
        <ele>1072.0</ele>
        <time>2013-07-03T15:23:29Z</time>
      </trkpt>
      <trkpt lat="39.821817" lon="-4.351667">
        <ele>1071.0</ele>
        <time>2013-07-03T15:23:30Z</time>
      </trkpt>
      <trkpt lat="39.821750" lon="-4.351633">
        <ele>1070.0</ele>
        <time>2013-07-03T15:23:31Z</time>
      </trkpt>
      <trkpt lat="39.821683" lon="-4.351600">
        <ele>1069.0</ele>
        <time>2013-07-03T15:23:32Z</time>
      </trkpt>
      <trkpt lat="39.821617" lon="-4.351567">
        <ele>1069.0</ele>
        <time>2013-07-03T15:23:33Z</time>
      </trkpt>
      <trkpt lat="39.821550" lon="-4.351533">
        <ele>1069.0</ele>
        <time>2013-07-03T15:23:34Z</time>
      </trkpt>
      <trkpt lat="39.821500" lon="-4.351500">
        <ele>1070.0</ele>
        <time>2013-07-03T15:23:35Z</time>
      </trkpt>
      <trkpt lat="39.821450" lon="-4.351483">
        <ele>1069.0</ele>
        <time>2013-07-03T15:23:36Z</time>
      </trkpt>
      <trkpt lat="39.821383" lon="-4.351450">
        <ele>1068.0</ele>
        <time>2013-07-03T15:23:37Z</time>
      </trkpt>
      <trkpt lat="39.821317" lon="-4.351417">
        <ele>1067.0</ele>
        <time>2013-07-03T15:23:38Z</time>
      </trkpt>
      <trkpt lat="39.821250" lon="-4.351383">
        <ele>1066.0</ele>
        <time>2013-07-03T15:23:39Z</time>
      </trkpt>
      <trkpt lat="39.821183" lon="-4.351333">
        <ele>1066.0</ele>
        <time>2013-07-03T15:23:40Z</time>
      </trkpt>
      <trkpt lat="39.821133" lon="-4.351283">
        <ele>1066.0</ele>
        <time>2013-07-03T15:23:41Z</time>
      </trkpt>
      <trkpt lat="39.821067" lon="-4.351233">
        <ele>1065.0</ele>
        <time>2013-07-03T15:23:42Z</time>
      </trkpt>
      <trkpt lat="39.821000" lon="-4.351167">
        <ele>1064.0</ele>
        <time>2013-07-03T15:23:43Z</time>
      </trkpt>
      <trkpt lat="39.820950" lon="-4.351117">
        <ele>1063.0</ele>
        <time>2013-07-03T15:23:44Z</time>
      </trkpt>
      <trkpt lat="39.820883" lon="-4.351050">
        <ele>1063.0</ele>
        <time>2013-07-03T15:23:45Z</time>
      </trkpt>
      <trkpt lat="39.820833" lon="-4.350967">
        <ele>1063.0</ele>
        <time>2013-07-03T15:23:46Z</time>
      </trkpt>
      <trkpt lat="39.820800" lon="-4.350867">
        <ele>1063.0</ele>
        <time>2013-07-03T15:23:47Z</time>
      </trkpt>
      <trkpt lat="39.820800" lon="-4.350767">
        <ele>1063.0</ele>
        <time>2013-07-03T15:23:48Z</time>
      </trkpt>
      <trkpt lat="39.820817" lon="-4.350667">
        <ele>1062.0</ele>
        <time>2013-07-03T15:23:49Z</time>
      </trkpt>
      <trkpt lat="39.820850" lon="-4.350583">
        <ele>1062.0</ele>
        <time>2013-07-03T15:23:50Z</time>
      </trkpt>
      <trkpt lat="39.820883" lon="-4.350500">
        <ele>1061.0</ele>
        <time>2013-07-03T15:23:51Z</time>
      </trkpt>
      <trkpt lat="39.820933" lon="-4.350417">
        <ele>1061.0</ele>
        <time>2013-07-03T15:23:52Z</time>
      </trkpt>
      <trkpt lat="39.820983" lon="-4.350317">
        <ele>1060.0</ele>
        <time>2013-07-03T15:23:53Z</time>
      </trkpt>
      <trkpt lat="39.821050" lon="-4.350233">
        <ele>1059.0</ele>
        <time>2013-07-03T15:23:54Z</time>
      </trkpt>
      <trkpt lat="39.821117" lon="-4.350167">
        <ele>1059.0</ele>
        <time>2013-07-03T15:23:55Z</time>
      </trkpt>
      <trkpt lat="39.821200" lon="-4.350117">
        <ele>1059.0</ele>
        <time>2013-07-03T15:23:56Z</time>
      </trkpt>
      <trkpt lat="39.821300" lon="-4.350100">
        <ele>1059.0</ele>
        <time>2013-07-03T15:23:57Z</time>
      </trkpt>
      <trkpt lat="39.821400" lon="-4.350100">
        <ele>1059.0</ele>
        <time>2013-07-03T15:23:58Z</time>
      </trkpt>
      <trkpt lat="39.821483" lon="-4.350133">
        <ele>1059.0</ele>
        <time>2013-07-03T15:23:59Z</time>
      </trkpt>
      <trkpt lat="39.821550" lon="-4.350167">
        <ele>1059.0</ele>
        <time>2013-07-03T15:24:00Z</time>
      </trkpt>
      <trkpt lat="39.821633" lon="-4.350217">
        <ele>1058.0</ele>
        <time>2013-07-03T15:24:01Z</time>
      </trkpt>
      <trkpt lat="39.821683" lon="-4.350283">
        <ele>1057.0</ele>
        <time>2013-07-03T15:24:02Z</time>
      </trkpt>
      <trkpt lat="39.821750" lon="-4.350350">
        <ele>1056.0</ele>
        <time>2013-07-03T15:24:03Z</time>
      </trkpt>
      <trkpt lat="39.821833" lon="-4.350417">
        <ele>1054.0</ele>
        <time>2013-07-03T15:24:04Z</time>
      </trkpt>
      <trkpt lat="39.821917" lon="-4.350483">
        <ele>1053.0</ele>
        <time>2013-07-03T15:24:05Z</time>
      </trkpt>
      <trkpt lat="39.822000" lon="-4.350550">
        <ele>1052.0</ele>
        <time>2013-07-03T15:24:06Z</time>
      </trkpt>
      <trkpt lat="39.822100" lon="-4.350633">
        <ele>1052.0</ele>
        <time>2013-07-03T15:24:07Z</time>
      </trkpt>
      <trkpt lat="39.822183" lon="-4.350717">
        <ele>1053.0</ele>
        <time>2013-07-03T15:24:08Z</time>
      </trkpt>
      <trkpt lat="39.822233" lon="-4.350783">
        <ele>1055.0</ele>
        <time>2013-07-03T15:24:09Z</time>
      </trkpt>
      <trkpt lat="39.822300" lon="-4.350833">
        <ele>1056.0</ele>
        <time>2013-07-03T15:24:10Z</time>
      </trkpt>
      <trkpt lat="39.822350" lon="-4.350900">
        <ele>1056.0</ele>
        <time>2013-07-03T15:24:11Z</time>
      </trkpt>
      <trkpt lat="39.822400" lon="-4.350967">
        <ele>1056.0</ele>
        <time>2013-07-03T15:24:12Z</time>
      </trkpt>
      <trkpt lat="39.822467" lon="-4.351033">
        <ele>1054.0</ele>
        <time>2013-07-03T15:24:13Z</time>
      </trkpt>
      <trkpt lat="39.822533" lon="-4.351133">
        <ele>1053.0</ele>
        <time>2013-07-03T15:24:14Z</time>
      </trkpt>
      <trkpt lat="39.822583" lon="-4.351217">
        <ele>1052.0</ele>
        <time>2013-07-03T15:24:15Z</time>
      </trkpt>
      <trkpt lat="39.822633" lon="-4.351317">
        <ele>1052.0</ele>
        <time>2013-07-03T15:24:16Z</time>
      </trkpt>
      <trkpt lat="39.822667" lon="-4.351400">
        <ele>1053.0</ele>
        <time>2013-07-03T15:24:17Z</time>
      </trkpt>
      <trkpt lat="39.822700" lon="-4.351483">
        <ele>1052.0</ele>
        <time>2013-07-03T15:24:18Z</time>
      </trkpt>
      <trkpt lat="39.822717" lon="-4.351567">
        <ele>1051.0</ele>
        <time>2013-07-03T15:24:19Z</time>
      </trkpt>
      <trkpt lat="39.822733" lon="-4.351650">
        <ele>1050.0</ele>
        <time>2013-07-03T15:24:20Z</time>
      </trkpt>
      <trkpt lat="39.822750" lon="-4.351750">
        <ele>1049.0</ele>
        <time>2013-07-03T15:24:21Z</time>
      </trkpt>
      <trkpt lat="39.822767" lon="-4.351850">
        <ele>1048.0</ele>
        <time>2013-07-03T15:24:22Z</time>
      </trkpt>
      <trkpt lat="39.822783" lon="-4.351933">
        <ele>1046.0</ele>
        <time>2013-07-03T15:24:23Z</time>
      </trkpt>
      <trkpt lat="39.822783" lon="-4.352033">
        <ele>1044.0</ele>
        <time>2013-07-03T15:24:24Z</time>
      </trkpt>
      <trkpt lat="39.822800" lon="-4.352117">
        <ele>1042.0</ele>
        <time>2013-07-03T15:24:25Z</time>
      </trkpt>
      <trkpt lat="39.822800" lon="-4.352217">
        <ele>1041.0</ele>
        <time>2013-07-03T15:24:26Z</time>
      </trkpt>
      <trkpt lat="39.822800" lon="-4.352283">
        <ele>1039.0</ele>
        <time>2013-07-03T15:24:27Z</time>
      </trkpt>
      <trkpt lat="39.822817" lon="-4.352367">
        <ele>1037.0</ele>
        <time>2013-07-03T15:24:28Z</time>
      </trkpt>
      <trkpt lat="39.822850" lon="-4.352433">
        <ele>1035.0</ele>
        <time>2013-07-03T15:24:29Z</time>
      </trkpt>
      <trkpt lat="39.822883" lon="-4.352500">
        <ele>1032.0</ele>
        <time>2013-07-03T15:24:30Z</time>
      </trkpt>
      <trkpt lat="39.822900" lon="-4.352567">
        <ele>1030.0</ele>
        <time>2013-07-03T15:24:31Z</time>
      </trkpt>
      <trkpt lat="39.822933" lon="-4.352633">
        <ele>1028.0</ele>
        <time>2013-07-03T15:24:32Z</time>
      </trkpt>
      <trkpt lat="39.822967" lon="-4.352717">
        <ele>1025.0</ele>
        <time>2013-07-03T15:24:33Z</time>
      </trkpt>
      <trkpt lat="39.823017" lon="-4.352767">
        <ele>1024.0</ele>
        <time>2013-07-03T15:24:34Z</time>
      </trkpt>
      <trkpt lat="39.823083" lon="-4.352800">
        <ele>1022.0</ele>
        <time>2013-07-03T15:24:35Z</time>
      </trkpt>
      <trkpt lat="39.823167" lon="-4.352800">
        <ele>1020.0</ele>
        <time>2013-07-03T15:24:36Z</time>
      </trkpt>
      <trkpt lat="39.823267" lon="-4.352750">
        <ele>1017.0</ele>
        <time>2013-07-03T15:24:37Z</time>
      </trkpt>
      <trkpt lat="39.823350" lon="-4.352667">
        <ele>1015.0</ele>
        <time>2013-07-03T15:24:38Z</time>
      </trkpt>
      <trkpt lat="39.823417" lon="-4.352550">
        <ele>1012.0</ele>
        <time>2013-07-03T15:24:39Z</time>
      </trkpt>
      <trkpt lat="39.823467" lon="-4.352433">
        <ele>1010.0</ele>
        <time>2013-07-03T15:24:40Z</time>
      </trkpt>
      <trkpt lat="39.823500" lon="-4.352300">
        <ele>1007.0</ele>
        <time>2013-07-03T15:24:41Z</time>
      </trkpt>
      <trkpt lat="39.823533" lon="-4.352183">
        <ele>1005.0</ele>
        <time>2013-07-03T15:24:42Z</time>
      </trkpt>
      <trkpt lat="39.823567" lon="-4.352050">
        <ele>1003.0</ele>
        <time>2013-07-03T15:24:43Z</time>
      </trkpt>
      <trkpt lat="39.823583" lon="-4.351917">
        <ele>1002.0</ele>
        <time>2013-07-03T15:24:44Z</time>
      </trkpt>
      <trkpt lat="39.823617" lon="-4.351800">
        <ele>1001.0</ele>
        <time>2013-07-03T15:24:45Z</time>
      </trkpt>
      <trkpt lat="39.823617" lon="-4.351683">
        <ele>1000.0</ele>
        <time>2013-07-03T15:24:46Z</time>
      </trkpt>
      <trkpt lat="39.823617" lon="-4.351567">
        <ele>999.0</ele>
        <time>2013-07-03T15:24:47Z</time>
      </trkpt>
      <trkpt lat="39.823617" lon="-4.351450">
        <ele>998.0</ele>
        <time>2013-07-03T15:24:48Z</time>
      </trkpt>
      <trkpt lat="39.823617" lon="-4.351317">
        <ele>997.0</ele>
        <time>2013-07-03T15:24:49Z</time>
      </trkpt>
      <trkpt lat="39.823617" lon="-4.351183">
        <ele>997.0</ele>
        <time>2013-07-03T15:24:50Z</time>
      </trkpt>
      <trkpt lat="39.823600" lon="-4.351067">
        <ele>996.0</ele>
        <time>2013-07-03T15:24:51Z</time>
      </trkpt>
      <trkpt lat="39.823583" lon="-4.350950">
        <ele>995.0</ele>
        <time>2013-07-03T15:24:52Z</time>
      </trkpt>
      <trkpt lat="39.823567" lon="-4.350833">
        <ele>996.0</ele>
        <time>2013-07-03T15:24:53Z</time>
      </trkpt>
      <trkpt lat="39.823567" lon="-4.350717">
        <ele>996.0</ele>
        <time>2013-07-03T15:24:54Z</time>
      </trkpt>
      <trkpt lat="39.823550" lon="-4.350600">
        <ele>995.0</ele>
        <time>2013-07-03T15:24:55Z</time>
      </trkpt>
      <trkpt lat="39.823533" lon="-4.350483">
        <ele>993.0</ele>
        <time>2013-07-03T15:24:56Z</time>
      </trkpt>
      <trkpt lat="39.823500" lon="-4.350367">
        <ele>992.0</ele>
        <time>2013-07-03T15:24:57Z</time>
      </trkpt>
      <trkpt lat="39.823483" lon="-4.350267">
        <ele>993.0</ele>
        <time>2013-07-03T15:24:58Z</time>
      </trkpt>
      <trkpt lat="39.823450" lon="-4.350150">
        <ele>993.0</ele>
        <time>2013-07-03T15:24:59Z</time>
      </trkpt>
      <trkpt lat="39.823417" lon="-4.350050">
        <ele>993.0</ele>
        <time>2013-07-03T15:25:00Z</time>
      </trkpt>
      <trkpt lat="39.823383" lon="-4.349967">
        <ele>993.0</ele>
        <time>2013-07-03T15:25:01Z</time>
      </trkpt>
      <trkpt lat="39.823350" lon="-4.349867">
        <ele>991.0</ele>
        <time>2013-07-03T15:25:02Z</time>
      </trkpt>
      <trkpt lat="39.823300" lon="-4.349750">
        <ele>990.0</ele>
        <time>2013-07-03T15:25:03Z</time>
      </trkpt>
      <trkpt lat="39.823267" lon="-4.349633">
        <ele>989.0</ele>
        <time>2013-07-03T15:25:04Z</time>
      </trkpt>
      <trkpt lat="39.823250" lon="-4.349517">
        <ele>988.0</ele>
        <time>2013-07-03T15:25:05Z</time>
      </trkpt>
      <trkpt lat="39.823217" lon="-4.349417">
        <ele>988.0</ele>
        <time>2013-07-03T15:25:06Z</time>
      </trkpt>
      <trkpt lat="39.823183" lon="-4.349317">
        <ele>987.0</ele>
        <time>2013-07-03T15:25:07Z</time>
      </trkpt>
      <trkpt lat="39.823150" lon="-4.349217">
        <ele>985.0</ele>
        <time>2013-07-03T15:25:08Z</time>
      </trkpt>
      <trkpt lat="39.823117" lon="-4.349100">
        <ele>983.0</ele>
        <time>2013-07-03T15:25:09Z</time>
      </trkpt>
      <trkpt lat="39.823083" lon="-4.348983">
        <ele>982.0</ele>
        <time>2013-07-03T15:25:10Z</time>
      </trkpt>
      <trkpt lat="39.823033" lon="-4.348867">
        <ele>982.0</ele>
        <time>2013-07-03T15:25:11Z</time>
      </trkpt>
      <trkpt lat="39.822983" lon="-4.348783">
        <ele>983.0</ele>
        <time>2013-07-03T15:25:12Z</time>
      </trkpt>
      <trkpt lat="39.822950" lon="-4.348683">
        <ele>983.0</ele>
        <time>2013-07-03T15:25:13Z</time>
      </trkpt>
      <trkpt lat="39.822900" lon="-4.348600">
        <ele>982.0</ele>
        <time>2013-07-03T15:25:14Z</time>
      </trkpt>
      <trkpt lat="39.822850" lon="-4.348500">
        <ele>981.0</ele>
        <time>2013-07-03T15:25:15Z</time>
      </trkpt>
      <trkpt lat="39.822800" lon="-4.348400">
        <ele>980.0</ele>
        <time>2013-07-03T15:25:16Z</time>
      </trkpt>
      <trkpt lat="39.822750" lon="-4.348317">
        <ele>979.0</ele>
        <time>2013-07-03T15:25:17Z</time>
      </trkpt>
      <trkpt lat="39.822683" lon="-4.348233">
        <ele>978.0</ele>
        <time>2013-07-03T15:25:18Z</time>
      </trkpt>
      <trkpt lat="39.822617" lon="-4.348150">
        <ele>977.0</ele>
        <time>2013-07-03T15:25:19Z</time>
      </trkpt>
      <trkpt lat="39.822567" lon="-4.348083">
        <ele>977.0</ele>
        <time>2013-07-03T15:25:20Z</time>
      </trkpt>
      <trkpt lat="39.822500" lon="-4.348000">
        <ele>976.0</ele>
        <time>2013-07-03T15:25:21Z</time>
      </trkpt>
      <trkpt lat="39.822450" lon="-4.347933">
        <ele>975.0</ele>
        <time>2013-07-03T15:25:22Z</time>
      </trkpt>
      <trkpt lat="39.822400" lon="-4.347867">
        <ele>975.0</ele>
        <time>2013-07-03T15:25:23Z</time>
      </trkpt>
      <trkpt lat="39.822333" lon="-4.347783">
        <ele>975.0</ele>
        <time>2013-07-03T15:25:24Z</time>
      </trkpt>
      <trkpt lat="39.822283" lon="-4.347700">
        <ele>974.0</ele>
        <time>2013-07-03T15:25:25Z</time>
      </trkpt>
      <trkpt lat="39.822250" lon="-4.347617">
        <ele>974.0</ele>
        <time>2013-07-03T15:25:26Z</time>
      </trkpt>
      <trkpt lat="39.822200" lon="-4.347517">
        <ele>973.0</ele>
        <time>2013-07-03T15:25:27Z</time>
      </trkpt>
      <trkpt lat="39.822167" lon="-4.347400">
        <ele>973.0</ele>
        <time>2013-07-03T15:25:28Z</time>
      </trkpt>
      <trkpt lat="39.822117" lon="-4.347300">
        <ele>972.0</ele>
        <time>2013-07-03T15:25:29Z</time>
      </trkpt>
      <trkpt lat="39.822067" lon="-4.347183">
        <ele>972.0</ele>
        <time>2013-07-03T15:25:30Z</time>
      </trkpt>
      <trkpt lat="39.822033" lon="-4.347067">
        <ele>973.0</ele>
        <time>2013-07-03T15:25:31Z</time>
      </trkpt>
      <trkpt lat="39.822000" lon="-4.346967">
        <ele>973.0</ele>
        <time>2013-07-03T15:25:32Z</time>
      </trkpt>
      <trkpt lat="39.821967" lon="-4.346850">
        <ele>974.0</ele>
        <time>2013-07-03T15:25:33Z</time>
      </trkpt>
      <trkpt lat="39.821933" lon="-4.346750">
        <ele>975.0</ele>
        <time>2013-07-03T15:25:34Z</time>
      </trkpt>
      <trkpt lat="39.821900" lon="-4.346667">
        <ele>977.0</ele>
        <time>2013-07-03T15:25:35Z</time>
      </trkpt>
      <trkpt lat="39.821883" lon="-4.346600">
        <ele>979.0</ele>
        <time>2013-07-03T15:25:36Z</time>
      </trkpt>
      <trkpt lat="39.821850" lon="-4.346550">
        <ele>980.0</ele>
        <time>2013-07-03T15:25:37Z</time>
      </trkpt>
      <trkpt lat="39.821833" lon="-4.346500">
        <ele>978.0</ele>
        <time>2013-07-03T15:25:38Z</time>
      </trkpt>
      <trkpt lat="39.821783" lon="-4.346433">
        <ele>977.0</ele>
        <time>2013-07-03T15:25:39Z</time>
      </trkpt>
      <trkpt lat="39.821733" lon="-4.346367">
        <ele>976.0</ele>
        <time>2013-07-03T15:25:40Z</time>
      </trkpt>
      <trkpt lat="39.821683" lon="-4.346283">
        <ele>975.0</ele>
        <time>2013-07-03T15:25:41Z</time>
      </trkpt>
      <trkpt lat="39.821633" lon="-4.346200">
        <ele>974.0</ele>
        <time>2013-07-03T15:25:42Z</time>
      </trkpt>
      <trkpt lat="39.821617" lon="-4.346100">
        <ele>972.0</ele>
        <time>2013-07-03T15:25:43Z</time>
      </trkpt>
      <trkpt lat="39.821600" lon="-4.346000">
        <ele>969.0</ele>
        <time>2013-07-03T15:25:44Z</time>
      </trkpt>
      <trkpt lat="39.821567" lon="-4.345867">
        <ele>964.0</ele>
        <time>2013-07-03T15:25:45Z</time>
      </trkpt>
      <trkpt lat="39.821533" lon="-4.345750">
        <ele>960.0</ele>
        <time>2013-07-03T15:25:46Z</time>
      </trkpt>
      <trkpt lat="39.821483" lon="-4.345617">
        <ele>958.0</ele>
        <time>2013-07-03T15:25:47Z</time>
      </trkpt>
      <trkpt lat="39.821467" lon="-4.345483">
        <ele>956.0</ele>
        <time>2013-07-03T15:25:48Z</time>
      </trkpt>
      <trkpt lat="39.821467" lon="-4.345350">
        <ele>954.0</ele>
        <time>2013-07-03T15:25:49Z</time>
      </trkpt>
      <trkpt lat="39.821500" lon="-4.345233">
        <ele>952.0</ele>
        <time>2013-07-03T15:25:50Z</time>
      </trkpt>
      <trkpt lat="39.821550" lon="-4.345100">
        <ele>950.0</ele>
        <time>2013-07-03T15:25:51Z</time>
      </trkpt>
      <trkpt lat="39.821600" lon="-4.344950">
        <ele>947.0</ele>
        <time>2013-07-03T15:25:52Z</time>
      </trkpt>
      <trkpt lat="39.821683" lon="-4.344817">
        <ele>944.0</ele>
        <time>2013-07-03T15:25:53Z</time>
      </trkpt>
      <trkpt lat="39.821767" lon="-4.344667">
        <ele>943.0</ele>
        <time>2013-07-03T15:25:54Z</time>
      </trkpt>
      <trkpt lat="39.821867" lon="-4.344533">
        <ele>942.0</ele>
        <time>2013-07-03T15:25:55Z</time>
      </trkpt>
      <trkpt lat="39.821967" lon="-4.344400">
        <ele>942.0</ele>
        <time>2013-07-03T15:25:56Z</time>
      </trkpt>
      <trkpt lat="39.822050" lon="-4.344267">
        <ele>941.0</ele>
        <time>2013-07-03T15:25:57Z</time>
      </trkpt>
      <trkpt lat="39.822117" lon="-4.344167">
        <ele>942.0</ele>
        <time>2013-07-03T15:25:58Z</time>
      </trkpt>
      <trkpt lat="39.822167" lon="-4.344100">
        <ele>944.0</ele>
        <time>2013-07-03T15:25:59Z</time>
      </trkpt>
      <trkpt lat="39.822233" lon="-4.344033">
        <ele>945.0</ele>
        <time>2013-07-03T15:26:00Z</time>
      </trkpt>
      <trkpt lat="39.822300" lon="-4.344000">
        <ele>945.0</ele>
        <time>2013-07-03T15:26:01Z</time>
      </trkpt>
      <trkpt lat="39.822383" lon="-4.343933">
        <ele>945.0</ele>
        <time>2013-07-03T15:26:02Z</time>
      </trkpt>
      <trkpt lat="39.822483" lon="-4.343900">
        <ele>946.0</ele>
        <time>2013-07-03T15:26:03Z</time>
      </trkpt>
      <trkpt lat="39.822567" lon="-4.343900">
        <ele>949.0</ele>
        <time>2013-07-03T15:26:04Z</time>
      </trkpt>
      <trkpt lat="39.822633" lon="-4.343933">
        <ele>948.0</ele>
        <time>2013-07-03T15:26:05Z</time>
      </trkpt>
      <trkpt lat="39.822667" lon="-4.344000">
        <ele>948.0</ele>
        <time>2013-07-03T15:26:06Z</time>
      </trkpt>
      <trkpt lat="39.822667" lon="-4.344083">
        <ele>948.0</ele>
        <time>2013-07-03T15:26:07Z</time>
      </trkpt>
      <trkpt lat="39.822650" lon="-4.344167">
        <ele>948.0</ele>
        <time>2013-07-03T15:26:08Z</time>
      </trkpt>
      <trkpt lat="39.822617" lon="-4.344217">
        <ele>948.0</ele>
        <time>2013-07-03T15:26:09Z</time>
      </trkpt>
      <trkpt lat="39.822567" lon="-4.344250">
        <ele>948.0</ele>
        <time>2013-07-03T15:26:10Z</time>
      </trkpt>
      <trkpt lat="39.822517" lon="-4.344267">
        <ele>948.0</ele>
        <time>2013-07-03T15:26:11Z</time>
      </trkpt>
      <trkpt lat="39.822467" lon="-4.344267">
        <ele>949.0</ele>
        <time>2013-07-03T15:26:12Z</time>
      </trkpt>
      <trkpt lat="39.822433" lon="-4.344233">
        <ele>950.0</ele>
        <time>2013-07-03T15:26:13Z</time>
      </trkpt>
      <trkpt lat="39.822417" lon="-4.344183">
        <ele>951.0</ele>
        <time>2013-07-03T15:26:14Z</time>
      </trkpt>
      <trkpt lat="39.822383" lon="-4.344100">
        <ele>951.0</ele>
        <time>2013-07-03T15:26:15Z</time>
      </trkpt>
      <trkpt lat="39.822367" lon="-4.344033">
        <ele>950.0</ele>
        <time>2013-07-03T15:26:16Z</time>
      </trkpt>
      <trkpt lat="39.822350" lon="-4.343933">
        <ele>949.0</ele>
        <time>2013-07-03T15:26:17Z</time>
      </trkpt>
      <trkpt lat="39.822317" lon="-4.343833">
        <ele>948.0</ele>
        <time>2013-07-03T15:26:18Z</time>
      </trkpt>
      <trkpt lat="39.822317" lon="-4.343717">
        <ele>947.0</ele>
        <time>2013-07-03T15:26:19Z</time>
      </trkpt>
      <trkpt lat="39.822333" lon="-4.343567">
        <ele>946.0</ele>
        <time>2013-07-03T15:26:20Z</time>
      </trkpt>
      <trkpt lat="39.822350" lon="-4.343433">
        <ele>946.0</ele>
        <time>2013-07-03T15:26:21Z</time>
      </trkpt>
      <trkpt lat="39.822367" lon="-4.343283">
        <ele>945.0</ele>
        <time>2013-07-03T15:26:22Z</time>
      </trkpt>
      <trkpt lat="39.822417" lon="-4.343133">
        <ele>945.0</ele>
        <time>2013-07-03T15:26:23Z</time>
      </trkpt>
      <trkpt lat="39.822450" lon="-4.343000">
        <ele>944.0</ele>
        <time>2013-07-03T15:26:24Z</time>
      </trkpt>
      <trkpt lat="39.822517" lon="-4.342850">
        <ele>944.0</ele>
        <time>2013-07-03T15:26:25Z</time>
      </trkpt>
      <trkpt lat="39.822583" lon="-4.342717">
        <ele>945.0</ele>
        <time>2013-07-03T15:26:26Z</time>
      </trkpt>
      <trkpt lat="39.822633" lon="-4.342600">
        <ele>945.0</ele>
        <time>2013-07-03T15:26:27Z</time>
      </trkpt>
      <trkpt lat="39.822717" lon="-4.342500">
        <ele>947.0</ele>
        <time>2013-07-03T15:26:28Z</time>
      </trkpt>
      <trkpt lat="39.822783" lon="-4.342450">
        <ele>949.0</ele>
        <time>2013-07-03T15:26:29Z</time>
      </trkpt>
      <trkpt lat="39.822850" lon="-4.342400">
        <ele>949.0</ele>
        <time>2013-07-03T15:26:30Z</time>
      </trkpt>
      <trkpt lat="39.822933" lon="-4.342383">
        <ele>949.0</ele>
        <time>2013-07-03T15:26:31Z</time>
      </trkpt>
      <trkpt lat="39.823000" lon="-4.342333">
        <ele>949.0</ele>
        <time>2013-07-03T15:26:32Z</time>
      </trkpt>
      <trkpt lat="39.823083" lon="-4.342317">
        <ele>949.0</ele>
        <time>2013-07-03T15:26:33Z</time>
      </trkpt>
      <trkpt lat="39.823167" lon="-4.342300">
        <ele>950.0</ele>
        <time>2013-07-03T15:26:34Z</time>
      </trkpt>
      <trkpt lat="39.823250" lon="-4.342300">
        <ele>950.0</ele>
        <time>2013-07-03T15:26:35Z</time>
      </trkpt>
      <trkpt lat="39.823317" lon="-4.342300">
        <ele>950.0</ele>
        <time>2013-07-03T15:26:36Z</time>
      </trkpt>
      <trkpt lat="39.823383" lon="-4.342317">
        <ele>950.0</ele>
        <time>2013-07-03T15:26:37Z</time>
      </trkpt>
      <trkpt lat="39.823450" lon="-4.342350">
        <ele>950.0</ele>
        <time>2013-07-03T15:26:38Z</time>
      </trkpt>
      <trkpt lat="39.823517" lon="-4.342383">
        <ele>950.0</ele>
        <time>2013-07-03T15:26:39Z</time>
      </trkpt>
      <trkpt lat="39.823583" lon="-4.342433">
        <ele>950.0</ele>
        <time>2013-07-03T15:26:40Z</time>
      </trkpt>
      <trkpt lat="39.823633" lon="-4.342483">
        <ele>950.0</ele>
        <time>2013-07-03T15:26:41Z</time>
      </trkpt>
      <trkpt lat="39.823683" lon="-4.342517">
        <ele>950.0</ele>
        <time>2013-07-03T15:26:42Z</time>
      </trkpt>
      <trkpt lat="39.823733" lon="-4.342567">
        <ele>950.0</ele>
        <time>2013-07-03T15:26:43Z</time>
      </trkpt>
      <trkpt lat="39.823767" lon="-4.342617">
        <ele>950.0</ele>
        <time>2013-07-03T15:26:44Z</time>
      </trkpt>
      <trkpt lat="39.823817" lon="-4.342683">
        <ele>949.0</ele>
        <time>2013-07-03T15:26:45Z</time>
      </trkpt>
      <trkpt lat="39.823850" lon="-4.342767">
        <ele>949.0</ele>
        <time>2013-07-03T15:26:46Z</time>
      </trkpt>
      <trkpt lat="39.823850" lon="-4.342850">
        <ele>948.0</ele>
        <time>2013-07-03T15:26:47Z</time>
      </trkpt>
      <trkpt lat="39.823867" lon="-4.342933">
        <ele>948.0</ele>
        <time>2013-07-03T15:26:48Z</time>
      </trkpt>
      <trkpt lat="39.823850" lon="-4.343017">
        <ele>948.0</ele>
        <time>2013-07-03T15:26:49Z</time>
      </trkpt>
      <trkpt lat="39.823817" lon="-4.343083">
        <ele>947.0</ele>
        <time>2013-07-03T15:26:50Z</time>
      </trkpt>
      <trkpt lat="39.823783" lon="-4.343150">
        <ele>947.0</ele>
        <time>2013-07-03T15:26:51Z</time>
      </trkpt>
      <trkpt lat="39.823717" lon="-4.343183">
        <ele>946.0</ele>
        <time>2013-07-03T15:26:52Z</time>
      </trkpt>
      <trkpt lat="39.823633" lon="-4.343217">
        <ele>945.0</ele>
        <time>2013-07-03T15:26:53Z</time>
      </trkpt>
      <trkpt lat="39.823567" lon="-4.343233">
        <ele>946.0</ele>
        <time>2013-07-03T15:26:54Z</time>
      </trkpt>
      <trkpt lat="39.823483" lon="-4.343250">
        <ele>947.0</ele>
        <time>2013-07-03T15:26:55Z</time>
      </trkpt>
      <trkpt lat="39.823433" lon="-4.343283">
        <ele>948.0</ele>
        <time>2013-07-03T15:26:56Z</time>
      </trkpt>
      <trkpt lat="39.823383" lon="-4.343300">
        <ele>949.0</ele>
        <time>2013-07-03T15:26:57Z</time>
      </trkpt>
      <trkpt lat="39.823317" lon="-4.343300">
        <ele>949.0</ele>
        <time>2013-07-03T15:26:58Z</time>
      </trkpt>
      <trkpt lat="39.823267" lon="-4.343283">
        <ele>949.0</ele>
        <time>2013-07-03T15:26:59Z</time>
      </trkpt>
      <trkpt lat="39.823200" lon="-4.343267">
        <ele>949.0</ele>
        <time>2013-07-03T15:27:00Z</time>
      </trkpt>
      <trkpt lat="39.823150" lon="-4.343233">
        <ele>949.0</ele>
        <time>2013-07-03T15:27:01Z</time>
      </trkpt>
      <trkpt lat="39.823100" lon="-4.343217">
        <ele>950.0</ele>
        <time>2013-07-03T15:27:02Z</time>
      </trkpt>
      <trkpt lat="39.823033" lon="-4.343183">
        <ele>950.0</ele>
        <time>2013-07-03T15:27:03Z</time>
      </trkpt>
      <trkpt lat="39.822983" lon="-4.343150">
        <ele>951.0</ele>
        <time>2013-07-03T15:27:04Z</time>
      </trkpt>
      <trkpt lat="39.822917" lon="-4.343117">
        <ele>951.0</ele>
        <time>2013-07-03T15:27:05Z</time>
      </trkpt>
      <trkpt lat="39.822850" lon="-4.343067">
        <ele>952.0</ele>
        <time>2013-07-03T15:27:06Z</time>
      </trkpt>
      <trkpt lat="39.822800" lon="-4.343033">
        <ele>953.0</ele>
        <time>2013-07-03T15:27:07Z</time>
      </trkpt>
      <trkpt lat="39.822733" lon="-4.342967">
        <ele>953.0</ele>
        <time>2013-07-03T15:27:08Z</time>
      </trkpt>
      <trkpt lat="39.822683" lon="-4.342900">
        <ele>952.0</ele>
        <time>2013-07-03T15:27:09Z</time>
      </trkpt>
      <trkpt lat="39.822633" lon="-4.342817">
        <ele>951.0</ele>
        <time>2013-07-03T15:27:10Z</time>
      </trkpt>
      <trkpt lat="39.822567" lon="-4.342750">
        <ele>951.0</ele>
        <time>2013-07-03T15:27:11Z</time>
      </trkpt>
      <trkpt lat="39.822500" lon="-4.342683">
        <ele>950.0</ele>
        <time>2013-07-03T15:27:12Z</time>
      </trkpt>
      <trkpt lat="39.822450" lon="-4.342617">
        <ele>950.0</ele>
        <time>2013-07-03T15:27:13Z</time>
      </trkpt>
      <trkpt lat="39.822383" lon="-4.342567">
        <ele>949.0</ele>
        <time>2013-07-03T15:27:14Z</time>
      </trkpt>
      <trkpt lat="39.822333" lon="-4.342500">
        <ele>949.0</ele>
        <time>2013-07-03T15:27:15Z</time>
      </trkpt>
      <trkpt lat="39.822283" lon="-4.342433">
        <ele>947.0</ele>
        <time>2013-07-03T15:27:16Z</time>
      </trkpt>
      <trkpt lat="39.822233" lon="-4.342383">
        <ele>945.0</ele>
        <time>2013-07-03T15:27:17Z</time>
      </trkpt>
      <trkpt lat="39.822183" lon="-4.342317">
        <ele>944.0</ele>
        <time>2013-07-03T15:27:18Z</time>
      </trkpt>
      <trkpt lat="39.822133" lon="-4.342267">
        <ele>942.0</ele>
        <time>2013-07-03T15:27:19Z</time>
      </trkpt>
      <trkpt lat="39.822067" lon="-4.342217">
        <ele>941.0</ele>
        <time>2013-07-03T15:27:20Z</time>
      </trkpt>
      <trkpt lat="39.822000" lon="-4.342150">
        <ele>940.0</ele>
        <time>2013-07-03T15:27:21Z</time>
      </trkpt>
      <trkpt lat="39.821933" lon="-4.342083">
        <ele>939.0</ele>
        <time>2013-07-03T15:27:22Z</time>
      </trkpt>
      <trkpt lat="39.821883" lon="-4.342000">
        <ele>939.0</ele>
        <time>2013-07-03T15:27:23Z</time>
      </trkpt>
      <trkpt lat="39.821817" lon="-4.341933">
        <ele>937.0</ele>
        <time>2013-07-03T15:27:24Z</time>
      </trkpt>
      <trkpt lat="39.821750" lon="-4.341850">
        <ele>936.0</ele>
        <time>2013-07-03T15:27:25Z</time>
      </trkpt>
      <trkpt lat="39.821683" lon="-4.341750">
        <ele>935.0</ele>
        <time>2013-07-03T15:27:26Z</time>
      </trkpt>
      <trkpt lat="39.821600" lon="-4.341667">
        <ele>934.0</ele>
        <time>2013-07-03T15:27:27Z</time>
      </trkpt>
      <trkpt lat="39.821517" lon="-4.341600">
        <ele>934.0</ele>
        <time>2013-07-03T15:27:28Z</time>
      </trkpt>
      <trkpt lat="39.821417" lon="-4.341533">
        <ele>934.0</ele>
        <time>2013-07-03T15:27:29Z</time>
      </trkpt>
      <trkpt lat="39.821333" lon="-4.341483">
        <ele>934.0</ele>
        <time>2013-07-03T15:27:30Z</time>
      </trkpt>
      <trkpt lat="39.821250" lon="-4.341417">
        <ele>934.0</ele>
        <time>2013-07-03T15:27:31Z</time>
      </trkpt>
      <trkpt lat="39.821150" lon="-4.341367">
        <ele>934.0</ele>
        <time>2013-07-03T15:27:32Z</time>
      </trkpt>
      <trkpt lat="39.821067" lon="-4.341300">
        <ele>934.0</ele>
        <time>2013-07-03T15:27:33Z</time>
      </trkpt>
      <trkpt lat="39.820967" lon="-4.341233">
        <ele>935.0</ele>
        <time>2013-07-03T15:27:34Z</time>
      </trkpt>
      <trkpt lat="39.820883" lon="-4.341183">
        <ele>938.0</ele>
        <time>2013-07-03T15:27:35Z</time>
      </trkpt>
      <trkpt lat="39.820800" lon="-4.341133">
        <ele>939.0</ele>
        <time>2013-07-03T15:27:36Z</time>
      </trkpt>
      <trkpt lat="39.820717" lon="-4.341083">
        <ele>941.0</ele>
        <time>2013-07-03T15:27:37Z</time>
      </trkpt>
      <trkpt lat="39.820650" lon="-4.341033">
        <ele>942.0</ele>
        <time>2013-07-03T15:27:38Z</time>
      </trkpt>
      <trkpt lat="39.820567" lon="-4.340983">
        <ele>945.0</ele>
        <time>2013-07-03T15:27:39Z</time>
      </trkpt>
      <trkpt lat="39.820517" lon="-4.340967">
        <ele>947.0</ele>
        <time>2013-07-03T15:27:40Z</time>
      </trkpt>
      <trkpt lat="39.820467" lon="-4.340933">
        <ele>948.0</ele>
        <time>2013-07-03T15:27:41Z</time>
      </trkpt>
      <trkpt lat="39.820400" lon="-4.340917">
        <ele>950.0</ele>
        <time>2013-07-03T15:27:42Z</time>
      </trkpt>
      <trkpt lat="39.820333" lon="-4.340883">
        <ele>952.0</ele>
        <time>2013-07-03T15:27:43Z</time>
      </trkpt>
      <trkpt lat="39.820283" lon="-4.340850">
        <ele>954.0</ele>
        <time>2013-07-03T15:27:44Z</time>
      </trkpt>
      <trkpt lat="39.820233" lon="-4.340817">
        <ele>957.0</ele>
        <time>2013-07-03T15:27:45Z</time>
      </trkpt>
      <trkpt lat="39.820183" lon="-4.340800">
        <ele>960.0</ele>
        <time>2013-07-03T15:27:46Z</time>
      </trkpt>
      <trkpt lat="39.820133" lon="-4.340783">
        <ele>962.0</ele>
        <time>2013-07-03T15:27:47Z</time>
      </trkpt>
      <trkpt lat="39.820083" lon="-4.340767">
        <ele>964.0</ele>
        <time>2013-07-03T15:27:48Z</time>
      </trkpt>
      <trkpt lat="39.820033" lon="-4.340750">
        <ele>965.0</ele>
        <time>2013-07-03T15:27:49Z</time>
      </trkpt>
      <trkpt lat="39.819967" lon="-4.340733">
        <ele>966.0</ele>
        <time>2013-07-03T15:27:50Z</time>
      </trkpt>
      <trkpt lat="39.819900" lon="-4.340700">
        <ele>968.0</ele>
        <time>2013-07-03T15:27:51Z</time>
      </trkpt>
      <trkpt lat="39.819833" lon="-4.340667">
        <ele>971.0</ele>
        <time>2013-07-03T15:27:52Z</time>
      </trkpt>
      <trkpt lat="39.819767" lon="-4.340633">
        <ele>974.0</ele>
        <time>2013-07-03T15:27:53Z</time>
      </trkpt>
      <trkpt lat="39.819717" lon="-4.340600">
        <ele>978.0</ele>
        <time>2013-07-03T15:27:54Z</time>
      </trkpt>
      <trkpt lat="39.819667" lon="-4.340583">
        <ele>981.0</ele>
        <time>2013-07-03T15:27:55Z</time>
      </trkpt>
      <trkpt lat="39.819633" lon="-4.340583">
        <ele>984.0</ele>
        <time>2013-07-03T15:27:56Z</time>
      </trkpt>
      <trkpt lat="39.819583" lon="-4.340583">
        <ele>987.0</ele>
        <time>2013-07-03T15:27:57Z</time>
      </trkpt>
      <trkpt lat="39.819533" lon="-4.340567">
        <ele>989.0</ele>
        <time>2013-07-03T15:27:58Z</time>
      </trkpt>
      <trkpt lat="39.819467" lon="-4.340567">
        <ele>991.0</ele>
        <time>2013-07-03T15:27:59Z</time>
      </trkpt>
      <trkpt lat="39.819417" lon="-4.340550">
        <ele>993.0</ele>
        <time>2013-07-03T15:28:00Z</time>
      </trkpt>
      <trkpt lat="39.819350" lon="-4.340533">
        <ele>996.0</ele>
        <time>2013-07-03T15:28:01Z</time>
      </trkpt>
      <trkpt lat="39.819317" lon="-4.340517">
        <ele>1000.0</ele>
        <time>2013-07-03T15:28:02Z</time>
      </trkpt>
      <trkpt lat="39.819267" lon="-4.340483">
        <ele>1003.0</ele>
        <time>2013-07-03T15:28:03Z</time>
      </trkpt>
      <trkpt lat="39.819233" lon="-4.340483">
        <ele>1007.0</ele>
        <time>2013-07-03T15:28:04Z</time>
      </trkpt>
      <trkpt lat="39.819200" lon="-4.340467">
        <ele>1010.0</ele>
        <time>2013-07-03T15:28:05Z</time>
      </trkpt>
      <trkpt lat="39.819167" lon="-4.340483">
        <ele>1013.0</ele>
        <time>2013-07-03T15:28:06Z</time>
      </trkpt>
      <trkpt lat="39.819117" lon="-4.340500">
        <ele>1017.0</ele>
        <time>2013-07-03T15:28:07Z</time>
      </trkpt>
      <trkpt lat="39.819083" lon="-4.340517">
        <ele>1020.0</ele>
        <time>2013-07-03T15:28:08Z</time>
      </trkpt>
      <trkpt lat="39.819033" lon="-4.340517">
        <ele>1024.0</ele>
        <time>2013-07-03T15:28:09Z</time>
      </trkpt>
      <trkpt lat="39.819000" lon="-4.340500">
        <ele>1028.0</ele>
        <time>2013-07-03T15:28:10Z</time>
      </trkpt>
      <trkpt lat="39.818950" lon="-4.340467">
        <ele>1031.0</ele>
        <time>2013-07-03T15:28:11Z</time>
      </trkpt>
      <trkpt lat="39.818917" lon="-4.340433">
        <ele>1034.0</ele>
        <time>2013-07-03T15:28:12Z</time>
      </trkpt>
      <trkpt lat="39.818883" lon="-4.340417">
        <ele>1036.0</ele>
        <time>2013-07-03T15:28:13Z</time>
      </trkpt>
      <trkpt lat="39.818833" lon="-4.340367">
        <ele>1040.0</ele>
        <time>2013-07-03T15:28:14Z</time>
      </trkpt>
      <trkpt lat="39.818800" lon="-4.340300">
        <ele>1043.0</ele>
        <time>2013-07-03T15:28:15Z</time>
      </trkpt>
      <trkpt lat="39.818783" lon="-4.340200">
        <ele>1046.0</ele>
        <time>2013-07-03T15:28:16Z</time>
      </trkpt>
      <trkpt lat="39.818800" lon="-4.340083">
        <ele>1049.0</ele>
        <time>2013-07-03T15:28:17Z</time>
      </trkpt>
      <trkpt lat="39.818883" lon="-4.339967">
        <ele>1051.0</ele>
        <time>2013-07-03T15:28:18Z</time>
      </trkpt>
      <trkpt lat="39.818967" lon="-4.339900">
        <ele>1055.0</ele>
        <time>2013-07-03T15:28:19Z</time>
      </trkpt>
      <trkpt lat="39.819083" lon="-4.339900">
        <ele>1058.0</ele>
        <time>2013-07-03T15:28:20Z</time>
      </trkpt>
      <trkpt lat="39.819150" lon="-4.339983">
        <ele>1060.0</ele>
        <time>2013-07-03T15:28:21Z</time>
      </trkpt>
      <trkpt lat="39.819200" lon="-4.340067">
        <ele>1065.0</ele>
        <time>2013-07-03T15:28:22Z</time>
      </trkpt>
      <trkpt lat="39.819200" lon="-4.340167">
        <ele>1069.0</ele>
        <time>2013-07-03T15:28:23Z</time>
      </trkpt>
      <trkpt lat="39.819167" lon="-4.340233">
        <ele>1074.0</ele>
        <time>2013-07-03T15:28:24Z</time>
      </trkpt>
      <trkpt lat="39.819100" lon="-4.340250">
        <ele>1078.0</ele>
        <time>2013-07-03T15:28:25Z</time>
      </trkpt>
      <trkpt lat="39.819050" lon="-4.340217">
        <ele>1082.0</ele>
        <time>2013-07-03T15:28:26Z</time>
      </trkpt>
      <trkpt lat="39.819000" lon="-4.340167">
        <ele>1086.0</ele>
        <time>2013-07-03T15:28:27Z</time>
      </trkpt>
      <trkpt lat="39.818967" lon="-4.340100">
        <ele>1089.0</ele>
        <time>2013-07-03T15:28:28Z</time>
      </trkpt>
      <trkpt lat="39.818933" lon="-4.340033">
        <ele>1094.0</ele>
        <time>2013-07-03T15:28:29Z</time>
      </trkpt>
      <trkpt lat="39.818900" lon="-4.339950">
        <ele>1098.0</ele>
        <time>2013-07-03T15:28:30Z</time>
      </trkpt>
      <trkpt lat="39.818883" lon="-4.339850">
        <ele>1102.0</ele>
        <time>2013-07-03T15:28:31Z</time>
      </trkpt>
      <trkpt lat="39.818900" lon="-4.339750">
        <ele>1106.0</ele>
        <time>2013-07-03T15:28:32Z</time>
      </trkpt>
      <trkpt lat="39.818933" lon="-4.339633">
        <ele>1110.0</ele>
        <time>2013-07-03T15:28:33Z</time>
      </trkpt>
      <trkpt lat="39.819000" lon="-4.339567">
        <ele>1113.0</ele>
        <time>2013-07-03T15:28:34Z</time>
      </trkpt>
      <trkpt lat="39.819083" lon="-4.339517">
        <ele>1117.0</ele>
        <time>2013-07-03T15:28:35Z</time>
      </trkpt>
      <trkpt lat="39.819183" lon="-4.339533">
        <ele>1120.0</ele>
        <time>2013-07-03T15:28:36Z</time>
      </trkpt>
      <trkpt lat="39.819267" lon="-4.339567">
        <ele>1124.0</ele>
        <time>2013-07-03T15:28:37Z</time>
      </trkpt>
      <trkpt lat="39.819350" lon="-4.339633">
        <ele>1129.0</ele>
        <time>2013-07-03T15:28:38Z</time>
      </trkpt>
      <trkpt lat="39.819400" lon="-4.339700">
        <ele>1134.0</ele>
        <time>2013-07-03T15:28:39Z</time>
      </trkpt>
      <trkpt lat="39.819433" lon="-4.339767">
        <ele>1139.0</ele>
        <time>2013-07-03T15:28:40Z</time>
      </trkpt>
      <trkpt lat="39.819450" lon="-4.339833">
        <ele>1143.0</ele>
        <time>2013-07-03T15:28:41Z</time>
      </trkpt>
      <trkpt lat="39.819467" lon="-4.339917">
        <ele>1147.0</ele>
        <time>2013-07-03T15:28:42Z</time>
      </trkpt>
      <trkpt lat="39.819450" lon="-4.339983">
        <ele>1151.0</ele>
        <time>2013-07-03T15:28:43Z</time>
      </trkpt>
      <trkpt lat="39.819433" lon="-4.340050">
        <ele>1156.0</ele>
        <time>2013-07-03T15:28:44Z</time>
      </trkpt>
      <trkpt lat="39.819400" lon="-4.340117">
        <ele>1160.0</ele>
        <time>2013-07-03T15:28:45Z</time>
      </trkpt>
      <trkpt lat="39.819367" lon="-4.340150">
        <ele>1165.0</ele>
        <time>2013-07-03T15:28:46Z</time>
      </trkpt>
      <trkpt lat="39.819317" lon="-4.340167">
        <ele>1169.0</ele>
        <time>2013-07-03T15:28:47Z</time>
      </trkpt>
      <trkpt lat="39.819267" lon="-4.340167">
        <ele>1173.0</ele>
        <time>2013-07-03T15:28:48Z</time>
      </trkpt>
      <trkpt lat="39.819200" lon="-4.340133">
        <ele>1177.0</ele>
        <time>2013-07-03T15:28:49Z</time>
      </trkpt>
      <trkpt lat="39.819150" lon="-4.340067">
        <ele>1181.0</ele>
        <time>2013-07-03T15:28:50Z</time>
      </trkpt>
      <trkpt lat="39.819100" lon="-4.340000">
        <ele>1186.0</ele>
        <time>2013-07-03T15:28:51Z</time>
      </trkpt>
      <trkpt lat="39.819067" lon="-4.339917">
        <ele>1191.0</ele>
        <time>2013-07-03T15:28:52Z</time>
      </trkpt>
      <trkpt lat="39.819050" lon="-4.339833">
        <ele>1196.0</ele>
        <time>2013-07-03T15:28:53Z</time>
      </trkpt>
      <trkpt lat="39.819017" lon="-4.339733">
        <ele>1201.0</ele>
        <time>2013-07-03T15:28:54Z</time>
      </trkpt>
      <trkpt lat="39.819017" lon="-4.339633">
        <ele>1207.0</ele>
        <time>2013-07-03T15:28:55Z</time>
      </trkpt>
      <trkpt lat="39.819017" lon="-4.339533">
        <ele>1212.0</ele>
        <time>2013-07-03T15:28:56Z</time>
      </trkpt>
      <trkpt lat="39.819050" lon="-4.339433">
        <ele>1216.0</ele>
        <time>2013-07-03T15:28:57Z</time>
      </trkpt>
      <trkpt lat="39.819117" lon="-4.339367">
        <ele>1220.0</ele>
        <time>2013-07-03T15:28:58Z</time>
      </trkpt>
      <trkpt lat="39.819183" lon="-4.339283">
        <ele>1224.0</ele>
        <time>2013-07-03T15:28:59Z</time>
      </trkpt>
      <trkpt lat="39.819250" lon="-4.339217">
        <ele>1229.0</ele>
        <time>2013-07-03T15:29:00Z</time>
      </trkpt>
      <trkpt lat="39.819333" lon="-4.339183">
        <ele>1233.0</ele>
        <time>2013-07-03T15:29:01Z</time>
      </trkpt>
      <trkpt lat="39.819417" lon="-4.339167">
        <ele>1237.0</ele>
        <time>2013-07-03T15:29:02Z</time>
      </trkpt>
      <trkpt lat="39.819500" lon="-4.339183">
        <ele>1241.0</ele>
        <time>2013-07-03T15:29:03Z</time>
      </trkpt>
      <trkpt lat="39.819583" lon="-4.339233">
        <ele>1246.0</ele>
        <time>2013-07-03T15:29:04Z</time>
      </trkpt>
      <trkpt lat="39.819633" lon="-4.339300">
        <ele>1250.0</ele>
        <time>2013-07-03T15:29:05Z</time>
      </trkpt>
      <trkpt lat="39.819667" lon="-4.339367">
        <ele>1256.0</ele>
        <time>2013-07-03T15:29:06Z</time>
      </trkpt>
      <trkpt lat="39.819683" lon="-4.339450">
        <ele>1261.0</ele>
        <time>2013-07-03T15:29:07Z</time>
      </trkpt>
      <trkpt lat="39.819700" lon="-4.339533">
        <ele>1266.0</ele>
        <time>2013-07-03T15:29:08Z</time>
      </trkpt>
      <trkpt lat="39.819683" lon="-4.339600">
        <ele>1272.0</ele>
        <time>2013-07-03T15:29:09Z</time>
      </trkpt>
      <trkpt lat="39.819650" lon="-4.339650">
        <ele>1278.0</ele>
        <time>2013-07-03T15:29:10Z</time>
      </trkpt>
      <trkpt lat="39.819600" lon="-4.339667">
        <ele>1283.0</ele>
        <time>2013-07-03T15:29:11Z</time>
      </trkpt>
      <trkpt lat="39.819550" lon="-4.339650">
        <ele>1287.0</ele>
        <time>2013-07-03T15:29:12Z</time>
      </trkpt>
      <trkpt lat="39.819483" lon="-4.339617">
        <ele>1291.0</ele>
        <time>2013-07-03T15:29:13Z</time>
      </trkpt>
      <trkpt lat="39.819417" lon="-4.339583">
        <ele>1298.0</ele>
        <time>2013-07-03T15:29:14Z</time>
      </trkpt>
      <trkpt lat="39.819367" lon="-4.339550">
        <ele>1304.0</ele>
        <time>2013-07-03T15:29:15Z</time>
      </trkpt>
      <trkpt lat="39.819317" lon="-4.339483">
        <ele>1310.0</ele>
        <time>2013-07-03T15:29:16Z</time>
      </trkpt>
      <trkpt lat="39.819300" lon="-4.339400">
        <ele>1316.0</ele>
        <time>2013-07-03T15:29:17Z</time>
      </trkpt>
      <trkpt lat="39.819283" lon="-4.339283">
        <ele>1322.0</ele>
        <time>2013-07-03T15:29:18Z</time>
      </trkpt>
      <trkpt lat="39.819283" lon="-4.339183">
        <ele>1328.0</ele>
        <time>2013-07-03T15:29:19Z</time>
      </trkpt>
      <trkpt lat="39.819283" lon="-4.339067">
        <ele>1333.0</ele>
        <time>2013-07-03T15:29:20Z</time>
      </trkpt>
      <trkpt lat="39.819300" lon="-4.338950">
        <ele>1338.0</ele>
        <time>2013-07-03T15:29:21Z</time>
      </trkpt>
      <trkpt lat="39.819333" lon="-4.338850">
        <ele>1342.0</ele>
        <time>2013-07-03T15:29:22Z</time>
      </trkpt>
      <trkpt lat="39.819400" lon="-4.338750">
        <ele>1345.0</ele>
        <time>2013-07-03T15:29:23Z</time>
      </trkpt>
      <trkpt lat="39.819483" lon="-4.338667">
        <ele>1350.0</ele>
        <time>2013-07-03T15:29:24Z</time>
      </trkpt>
      <trkpt lat="39.819583" lon="-4.338617">
        <ele>1355.0</ele>
        <time>2013-07-03T15:29:25Z</time>
      </trkpt>
      <trkpt lat="39.819667" lon="-4.338600">
        <ele>1361.0</ele>
        <time>2013-07-03T15:29:26Z</time>
      </trkpt>
      <trkpt lat="39.819733" lon="-4.338617">
        <ele>1366.0</ele>
        <time>2013-07-03T15:29:27Z</time>
      </trkpt>
      <trkpt lat="39.819783" lon="-4.338667">
        <ele>1370.0</ele>
        <time>2013-07-03T15:29:28Z</time>
      </trkpt>
      <trkpt lat="39.819833" lon="-4.338750">
        <ele>1375.0</ele>
        <time>2013-07-03T15:29:29Z</time>
      </trkpt>
      <trkpt lat="39.819867" lon="-4.338833">
        <ele>1380.0</ele>
        <time>2013-07-03T15:29:30Z</time>
      </trkpt>
      <trkpt lat="39.819867" lon="-4.338917">
        <ele>1385.0</ele>
        <time>2013-07-03T15:29:31Z</time>
      </trkpt>
      <trkpt lat="39.819817" lon="-4.338983">
        <ele>1390.0</ele>
        <time>2013-07-03T15:29:32Z</time>
      </trkpt>
      <trkpt lat="39.819767" lon="-4.339000">
        <ele>1397.0</ele>
        <time>2013-07-03T15:29:33Z</time>
      </trkpt>
      <trkpt lat="39.819717" lon="-4.339033">
        <ele>1404.0</ele>
        <time>2013-07-03T15:29:34Z</time>
      </trkpt>
      <trkpt lat="39.819683" lon="-4.339017">
        <ele>1411.0</ele>
        <time>2013-07-03T15:29:35Z</time>
      </trkpt>
      <trkpt lat="39.819633" lon="-4.339000">
        <ele>1417.0</ele>
        <time>2013-07-03T15:29:36Z</time>
      </trkpt>
      <trkpt lat="39.819583" lon="-4.338933">
        <ele>1422.0</ele>
        <time>2013-07-03T15:29:37Z</time>
      </trkpt>
      <trkpt lat="39.819533" lon="-4.338850">
        <ele>1428.0</ele>
        <time>2013-07-03T15:29:38Z</time>
      </trkpt>
      <trkpt lat="39.819500" lon="-4.338767">
        <ele>1434.0</ele>
        <time>2013-07-03T15:29:39Z</time>
      </trkpt>
      <trkpt lat="39.819483" lon="-4.338667">
        <ele>1440.0</ele>
        <time>2013-07-03T15:29:40Z</time>
      </trkpt>
      <trkpt lat="39.819467" lon="-4.338567">
        <ele>1446.0</ele>
        <time>2013-07-03T15:29:41Z</time>
      </trkpt>
      <trkpt lat="39.819467" lon="-4.338467">
        <ele>1450.0</ele>
        <time>2013-07-03T15:29:42Z</time>
      </trkpt>
      <trkpt lat="39.819483" lon="-4.338350">
        <ele>1455.0</ele>
        <time>2013-07-03T15:29:43Z</time>
      </trkpt>
      <trkpt lat="39.819517" lon="-4.338217">
        <ele>1459.0</ele>
        <time>2013-07-03T15:29:44Z</time>
      </trkpt>
      <trkpt lat="39.819600" lon="-4.338133">
        <ele>1461.0</ele>
        <time>2013-07-03T15:29:45Z</time>
      </trkpt>
      <trkpt lat="39.819700" lon="-4.338083">
        <ele>1465.0</ele>
        <time>2013-07-03T15:29:46Z</time>
      </trkpt>
      <trkpt lat="39.819800" lon="-4.338067">
        <ele>1469.0</ele>
        <time>2013-07-03T15:29:47Z</time>
      </trkpt>
      <trkpt lat="39.819900" lon="-4.338100">
        <ele>1475.0</ele>
        <time>2013-07-03T15:29:48Z</time>
      </trkpt>
      <trkpt lat="39.819967" lon="-4.338150">
        <ele>1482.0</ele>
        <time>2013-07-03T15:29:49Z</time>
      </trkpt>
      <trkpt lat="39.820017" lon="-4.338200">
        <ele>1488.0</ele>
        <time>2013-07-03T15:29:50Z</time>
      </trkpt>
      <trkpt lat="39.820050" lon="-4.338267">
        <ele>1495.0</ele>
        <time>2013-07-03T15:29:51Z</time>
      </trkpt>
      <trkpt lat="39.820050" lon="-4.338333">
        <ele>1500.0</ele>
        <time>2013-07-03T15:29:52Z</time>
      </trkpt>
      <trkpt lat="39.820050" lon="-4.338400">
        <ele>1506.0</ele>
        <time>2013-07-03T15:29:53Z</time>
      </trkpt>
      <trkpt lat="39.820033" lon="-4.338483">
        <ele>1512.0</ele>
        <time>2013-07-03T15:29:54Z</time>
      </trkpt>
      <trkpt lat="39.820000" lon="-4.338550">
        <ele>1519.0</ele>
        <time>2013-07-03T15:29:55Z</time>
      </trkpt>
      <trkpt lat="39.819967" lon="-4.338583">
        <ele>1525.0</ele>
        <time>2013-07-03T15:29:56Z</time>
      </trkpt>
      <trkpt lat="39.819917" lon="-4.338583">
        <ele>1531.0</ele>
        <time>2013-07-03T15:29:57Z</time>
      </trkpt>
      <trkpt lat="39.819867" lon="-4.338533">
        <ele>1536.0</ele>
        <time>2013-07-03T15:29:58Z</time>
      </trkpt>
      <trkpt lat="39.819800" lon="-4.338450">
        <ele>1541.0</ele>
        <time>2013-07-03T15:29:59Z</time>
      </trkpt>
      <trkpt lat="39.819767" lon="-4.338350">
        <ele>1547.0</ele>
        <time>2013-07-03T15:30:00Z</time>
      </trkpt>
      <trkpt lat="39.819750" lon="-4.338250">
        <ele>1552.0</ele>
        <time>2013-07-03T15:30:01Z</time>
      </trkpt>
      <trkpt lat="39.819750" lon="-4.338167">
        <ele>1558.0</ele>
        <time>2013-07-03T15:30:02Z</time>
      </trkpt>
      <trkpt lat="39.819750" lon="-4.338083">
        <ele>1563.0</ele>
        <time>2013-07-03T15:30:03Z</time>
      </trkpt>
      <trkpt lat="39.819767" lon="-4.337983">
        <ele>1567.0</ele>
        <time>2013-07-03T15:30:04Z</time>
      </trkpt>
      <trkpt lat="39.819817" lon="-4.337850">
        <ele>1571.0</ele>
        <time>2013-07-03T15:30:05Z</time>
      </trkpt>
      <trkpt lat="39.819883" lon="-4.337750">
        <ele>1571.0</ele>
        <time>2013-07-03T15:30:06Z</time>
      </trkpt>
      <trkpt lat="39.819983" lon="-4.337650">
        <ele>1574.0</ele>
        <time>2013-07-03T15:30:07Z</time>
      </trkpt>
      <trkpt lat="39.820100" lon="-4.337600">
        <ele>1578.0</ele>
        <time>2013-07-03T15:30:08Z</time>
      </trkpt>
      <trkpt lat="39.820200" lon="-4.337583">
        <ele>1584.0</ele>
        <time>2013-07-03T15:30:09Z</time>
      </trkpt>
      <trkpt lat="39.820283" lon="-4.337600">
        <ele>1589.0</ele>
        <time>2013-07-03T15:30:10Z</time>
      </trkpt>
      <trkpt lat="39.820367" lon="-4.337633">
        <ele>1594.0</ele>
        <time>2013-07-03T15:30:11Z</time>
      </trkpt>
      <trkpt lat="39.820433" lon="-4.337683">
        <ele>1600.0</ele>
        <time>2013-07-03T15:30:12Z</time>
      </trkpt>
      <trkpt lat="39.820500" lon="-4.337750">
        <ele>1606.0</ele>
        <time>2013-07-03T15:30:13Z</time>
      </trkpt>
      <trkpt lat="39.820533" lon="-4.337817">
        <ele>1612.0</ele>
        <time>2013-07-03T15:30:14Z</time>
      </trkpt>
      <trkpt lat="39.820550" lon="-4.337883">
        <ele>1619.0</ele>
        <time>2013-07-03T15:30:15Z</time>
      </trkpt>
      <trkpt lat="39.820550" lon="-4.337950">
        <ele>1625.0</ele>
        <time>2013-07-03T15:30:16Z</time>
      </trkpt>
      <trkpt lat="39.820567" lon="-4.338017">
        <ele>1631.0</ele>
        <time>2013-07-03T15:30:17Z</time>
      </trkpt>
      <trkpt lat="39.820550" lon="-4.338083">
        <ele>1637.0</ele>
        <time>2013-07-03T15:30:18Z</time>
      </trkpt>
      <trkpt lat="39.820517" lon="-4.338117">
        <ele>1643.0</ele>
        <time>2013-07-03T15:30:19Z</time>
      </trkpt>
      <trkpt lat="39.820467" lon="-4.338133">
        <ele>1649.0</ele>
        <time>2013-07-03T15:30:20Z</time>
      </trkpt>
      <trkpt lat="39.820417" lon="-4.338100">
        <ele>1655.0</ele>
        <time>2013-07-03T15:30:21Z</time>
      </trkpt>
      <trkpt lat="39.820350" lon="-4.338033">
        <ele>1661.0</ele>
        <time>2013-07-03T15:30:22Z</time>
      </trkpt>
      <trkpt lat="39.820317" lon="-4.337950">
        <ele>1667.0</ele>
        <time>2013-07-03T15:30:23Z</time>
      </trkpt>
      <trkpt lat="39.820300" lon="-4.337850">
        <ele>1673.0</ele>
        <time>2013-07-03T15:30:24Z</time>
      </trkpt>
      <trkpt lat="39.820283" lon="-4.337733">
        <ele>1679.0</ele>
        <time>2013-07-03T15:30:25Z</time>
      </trkpt>
      <trkpt lat="39.820283" lon="-4.337600">
        <ele>1684.0</ele>
        <time>2013-07-03T15:30:26Z</time>
      </trkpt>
      <trkpt lat="39.820300" lon="-4.337450">
        <ele>1689.0</ele>
        <time>2013-07-03T15:30:27Z</time>
      </trkpt>
      <trkpt lat="39.820350" lon="-4.337317">
        <ele>1695.0</ele>
        <time>2013-07-03T15:30:28Z</time>
      </trkpt>
      <trkpt lat="39.820433" lon="-4.337233">
        <ele>1700.0</ele>
        <time>2013-07-03T15:30:29Z</time>
      </trkpt>
      <trkpt lat="39.820517" lon="-4.337167">
        <ele>1707.0</ele>
        <time>2013-07-03T15:30:30Z</time>
      </trkpt>
      <trkpt lat="39.820600" lon="-4.337133">
        <ele>1714.0</ele>
        <time>2013-07-03T15:30:31Z</time>
      </trkpt>
      <trkpt lat="39.820667" lon="-4.337117">
        <ele>1721.0</ele>
        <time>2013-07-03T15:30:32Z</time>
      </trkpt>
      <trkpt lat="39.820750" lon="-4.337133">
        <ele>1726.0</ele>
        <time>2013-07-03T15:30:33Z</time>
      </trkpt>
      <trkpt lat="39.820817" lon="-4.337167">
        <ele>1731.0</ele>
        <time>2013-07-03T15:30:34Z</time>
      </trkpt>
      <trkpt lat="39.820883" lon="-4.337217">
        <ele>1737.0</ele>
        <time>2013-07-03T15:30:35Z</time>
      </trkpt>
      <trkpt lat="39.820933" lon="-4.337283">
        <ele>1743.0</ele>
        <time>2013-07-03T15:30:36Z</time>
      </trkpt>
      <trkpt lat="39.820983" lon="-4.337350">
        <ele>1749.0</ele>
        <time>2013-07-03T15:30:37Z</time>
      </trkpt>
      <trkpt lat="39.821017" lon="-4.337417">
        <ele>1755.0</ele>
        <time>2013-07-03T15:30:38Z</time>
      </trkpt>
      <trkpt lat="39.821017" lon="-4.337483">
        <ele>1761.0</ele>
        <time>2013-07-03T15:30:39Z</time>
      </trkpt>
      <trkpt lat="39.821017" lon="-4.337567">
        <ele>1767.0</ele>
        <time>2013-07-03T15:30:40Z</time>
      </trkpt>
      <trkpt lat="39.820967" lon="-4.337633">
        <ele>1774.0</ele>
        <time>2013-07-03T15:30:41Z</time>
      </trkpt>
      <trkpt lat="39.820917" lon="-4.337667">
        <ele>1781.0</ele>
        <time>2013-07-03T15:30:42Z</time>
      </trkpt>
      <trkpt lat="39.820867" lon="-4.337667">
        <ele>1788.0</ele>
        <time>2013-07-03T15:30:43Z</time>
      </trkpt>
      <trkpt lat="39.820817" lon="-4.337667">
        <ele>1795.0</ele>
        <time>2013-07-03T15:30:44Z</time>
      </trkpt>
      <trkpt lat="39.820750" lon="-4.337633">
        <ele>1801.0</ele>
        <time>2013-07-03T15:30:45Z</time>
      </trkpt>
      <trkpt lat="39.820683" lon="-4.337583">
        <ele>1807.0</ele>
        <time>2013-07-03T15:30:46Z</time>
      </trkpt>
      <trkpt lat="39.820617" lon="-4.337517">
        <ele>1813.0</ele>
        <time>2013-07-03T15:30:47Z</time>
      </trkpt>
      <trkpt lat="39.820550" lon="-4.337417">
        <ele>1819.0</ele>
        <time>2013-07-03T15:30:48Z</time>
      </trkpt>
      <trkpt lat="39.820500" lon="-4.337317">
        <ele>1826.0</ele>
        <time>2013-07-03T15:30:49Z</time>
      </trkpt>
      <trkpt lat="39.820450" lon="-4.337217">
        <ele>1832.0</ele>
        <time>2013-07-03T15:30:50Z</time>
      </trkpt>
      <trkpt lat="39.820417" lon="-4.337100">
        <ele>1838.0</ele>
        <time>2013-07-03T15:30:51Z</time>
      </trkpt>
      <trkpt lat="39.820383" lon="-4.337000">
        <ele>1843.0</ele>
        <time>2013-07-03T15:30:52Z</time>
      </trkpt>
      <trkpt lat="39.820350" lon="-4.336867">
        <ele>1848.0</ele>
        <time>2013-07-03T15:30:53Z</time>
      </trkpt>
      <trkpt lat="39.820350" lon="-4.336733">
        <ele>1852.0</ele>
        <time>2013-07-03T15:30:54Z</time>
      </trkpt>
      <trkpt lat="39.820367" lon="-4.336600">
        <ele>1857.0</ele>
        <time>2013-07-03T15:30:55Z</time>
      </trkpt>
      <trkpt lat="39.820417" lon="-4.336483">
        <ele>1860.0</ele>
        <time>2013-07-03T15:30:56Z</time>
      </trkpt>
      <trkpt lat="39.820500" lon="-4.336417">
        <ele>1863.0</ele>
        <time>2013-07-03T15:30:57Z</time>
      </trkpt>
      <trkpt lat="39.820567" lon="-4.336367">
        <ele>1868.0</ele>
        <time>2013-07-03T15:30:58Z</time>
      </trkpt>
      <trkpt lat="39.820633" lon="-4.336350">
        <ele>1871.0</ele>
        <time>2013-07-03T15:30:59Z</time>
      </trkpt>
      <trkpt lat="39.820700" lon="-4.336333">
        <ele>1875.0</ele>
        <time>2013-07-03T15:31:00Z</time>
      </trkpt>
      <trkpt lat="39.820767" lon="-4.336350">
        <ele>1879.0</ele>
        <time>2013-07-03T15:31:01Z</time>
      </trkpt>
      <trkpt lat="39.820833" lon="-4.336367">
        <ele>1884.0</ele>
        <time>2013-07-03T15:31:02Z</time>
      </trkpt>
      <trkpt lat="39.820900" lon="-4.336383">
        <ele>1890.0</ele>
        <time>2013-07-03T15:31:03Z</time>
      </trkpt>
      <trkpt lat="39.820950" lon="-4.336417">
        <ele>1895.0</ele>
        <time>2013-07-03T15:31:04Z</time>
      </trkpt>
      <trkpt lat="39.821017" lon="-4.336450">
        <ele>1902.0</ele>
        <time>2013-07-03T15:31:05Z</time>
      </trkpt>
      <trkpt lat="39.821067" lon="-4.336483">
        <ele>1908.0</ele>
        <time>2013-07-03T15:31:06Z</time>
      </trkpt>
      <trkpt lat="39.821133" lon="-4.336500">
        <ele>1913.0</ele>
        <time>2013-07-03T15:31:07Z</time>
      </trkpt>
      <trkpt lat="39.821183" lon="-4.336533">
        <ele>1918.0</ele>
        <time>2013-07-03T15:31:08Z</time>
      </trkpt>
      <trkpt lat="39.821233" lon="-4.336600">
        <ele>1923.0</ele>
        <time>2013-07-03T15:31:09Z</time>
      </trkpt>
      <trkpt lat="39.821250" lon="-4.336683">
        <ele>1928.0</ele>
        <time>2013-07-03T15:31:10Z</time>
      </trkpt>
      <trkpt lat="39.821267" lon="-4.336783">
        <ele>1934.0</ele>
        <time>2013-07-03T15:31:11Z</time>
      </trkpt>
      <trkpt lat="39.821283" lon="-4.336850">
        <ele>1940.0</ele>
        <time>2013-07-03T15:31:12Z</time>
      </trkpt>
      <trkpt lat="39.821317" lon="-4.336917">
        <ele>1948.0</ele>
        <time>2013-07-03T15:31:13Z</time>
      </trkpt>
      <trkpt lat="39.821333" lon="-4.336983">
        <ele>1956.0</ele>
        <time>2013-07-03T15:31:14Z</time>
      </trkpt>
      <trkpt lat="39.821350" lon="-4.337033">
        <ele>1963.0</ele>
        <time>2013-07-03T15:31:15Z</time>
      </trkpt>
      <trkpt lat="39.821333" lon="-4.337100">
        <ele>1968.0</ele>
        <time>2013-07-03T15:31:16Z</time>
      </trkpt>
      <trkpt lat="39.821317" lon="-4.337183">
        <ele>1974.0</ele>
        <time>2013-07-03T15:31:17Z</time>
      </trkpt>
      <trkpt lat="39.821283" lon="-4.337250">
        <ele>1981.0</ele>
        <time>2013-07-03T15:31:18Z</time>
      </trkpt>
      <trkpt lat="39.821233" lon="-4.337300">
        <ele>1987.0</ele>
        <time>2013-07-03T15:31:19Z</time>
      </trkpt>
      <trkpt lat="39.821167" lon="-4.337300">
        <ele>1992.0</ele>
        <time>2013-07-03T15:31:20Z</time>
      </trkpt>
      <trkpt lat="39.821083" lon="-4.337250">
        <ele>1995.0</ele>
        <time>2013-07-03T15:31:21Z</time>
      </trkpt>
      <trkpt lat="39.821017" lon="-4.337183">
        <ele>1999.0</ele>
        <time>2013-07-03T15:31:22Z</time>
      </trkpt>
      <trkpt lat="39.820950" lon="-4.337100">
        <ele>2003.0</ele>
        <time>2013-07-03T15:31:23Z</time>
      </trkpt>
      <trkpt lat="39.820883" lon="-4.337017">
        <ele>2007.0</ele>
        <time>2013-07-03T15:31:24Z</time>
      </trkpt>
      <trkpt lat="39.820817" lon="-4.336933">
        <ele>2013.0</ele>
        <time>2013-07-03T15:31:25Z</time>
      </trkpt>
      <trkpt lat="39.820767" lon="-4.336817">
        <ele>2018.0</ele>
        <time>2013-07-03T15:31:26Z</time>
      </trkpt>
      <trkpt lat="39.820700" lon="-4.336700">
        <ele>2023.0</ele>
        <time>2013-07-03T15:31:27Z</time>
      </trkpt>
      <trkpt lat="39.820650" lon="-4.336567">
        <ele>2028.0</ele>
        <time>2013-07-03T15:31:28Z</time>
      </trkpt>
      <trkpt lat="39.820617" lon="-4.336417">
        <ele>2032.0</ele>
        <time>2013-07-03T15:31:29Z</time>
      </trkpt>
      <trkpt lat="39.820617" lon="-4.336267">
        <ele>2037.0</ele>
        <time>2013-07-03T15:31:30Z</time>
      </trkpt>
      <trkpt lat="39.820650" lon="-4.336150">
        <ele>2043.0</ele>
        <time>2013-07-03T15:31:31Z</time>
      </trkpt>
      <trkpt lat="39.820717" lon="-4.336067">
        <ele>2048.0</ele>
        <time>2013-07-03T15:31:32Z</time>
      </trkpt>
      <trkpt lat="39.820783" lon="-4.336033">
        <ele>2054.0</ele>
        <time>2013-07-03T15:31:33Z</time>
      </trkpt>
      <trkpt lat="39.820850" lon="-4.336033">
        <ele>2062.0</ele>
        <time>2013-07-03T15:31:34Z</time>
      </trkpt>
      <trkpt lat="39.820900" lon="-4.336017">
        <ele>2069.0</ele>
        <time>2013-07-03T15:31:35Z</time>
      </trkpt>
      <trkpt lat="39.820950" lon="-4.336033">
        <ele>2076.0</ele>
        <time>2013-07-03T15:31:36Z</time>
      </trkpt>
      <trkpt lat="39.820983" lon="-4.336050">
        <ele>2082.0</ele>
        <time>2013-07-03T15:31:37Z</time>
      </trkpt>
      <trkpt lat="39.821017" lon="-4.336100">
        <ele>2087.0</ele>
        <time>2013-07-03T15:31:38Z</time>
      </trkpt>
      <trkpt lat="39.821050" lon="-4.336167">
        <ele>2093.0</ele>
        <time>2013-07-03T15:31:39Z</time>
      </trkpt>
      <trkpt lat="39.821067" lon="-4.336233">
        <ele>2099.0</ele>
        <time>2013-07-03T15:31:40Z</time>
      </trkpt>
      <trkpt lat="39.821067" lon="-4.336300">
        <ele>2106.0</ele>
        <time>2013-07-03T15:31:41Z</time>
      </trkpt>
      <trkpt lat="39.821033" lon="-4.336367">
        <ele>2113.0</ele>
        <time>2013-07-03T15:31:42Z</time>
      </trkpt>
      <trkpt lat="39.820983" lon="-4.336400">
        <ele>2118.0</ele>
        <time>2013-07-03T15:31:43Z</time>
      </trkpt>
      <trkpt lat="39.820917" lon="-4.336383">
        <ele>2124.0</ele>
        <time>2013-07-03T15:31:44Z</time>
      </trkpt>
      <trkpt lat="39.820850" lon="-4.336367">
        <ele>2130.0</ele>
        <time>2013-07-03T15:31:45Z</time>
      </trkpt>
      <trkpt lat="39.820783" lon="-4.336350">
        <ele>2134.0</ele>
        <time>2013-07-03T15:31:46Z</time>
      </trkpt>
      <trkpt lat="39.820717" lon="-4.336333">
        <ele>2138.0</ele>
        <time>2013-07-03T15:31:47Z</time>
      </trkpt>
      <trkpt lat="39.820617" lon="-4.336333">
        <ele>2142.0</ele>
        <time>2013-07-03T15:31:48Z</time>
      </trkpt>
      <trkpt lat="39.820517" lon="-4.336317">
        <ele>2146.0</ele>
        <time>2013-07-03T15:31:49Z</time>
      </trkpt>
      <trkpt lat="39.820417" lon="-4.336283">
        <ele>2152.0</ele>
        <time>2013-07-03T15:31:50Z</time>
      </trkpt>
      <trkpt lat="39.820333" lon="-4.336217">
        <ele>2157.0</ele>
        <time>2013-07-03T15:31:51Z</time>
      </trkpt>
      <trkpt lat="39.820250" lon="-4.336117">
        <ele>2161.0</ele>
        <time>2013-07-03T15:31:52Z</time>
      </trkpt>
      <trkpt lat="39.820167" lon="-4.336017">
        <ele>2165.0</ele>
        <time>2013-07-03T15:31:53Z</time>
      </trkpt>
      <trkpt lat="39.820100" lon="-4.335933">
        <ele>2168.0</ele>
        <time>2013-07-03T15:31:54Z</time>
      </trkpt>
      <trkpt lat="39.820050" lon="-4.335833">
        <ele>2171.0</ele>
        <time>2013-07-03T15:31:55Z</time>
      </trkpt>
      <trkpt lat="39.820000" lon="-4.335717">
        <ele>2174.0</ele>
        <time>2013-07-03T15:31:56Z</time>
      </trkpt>
      <trkpt lat="39.819967" lon="-4.335567">
        <ele>2176.0</ele>
        <time>2013-07-03T15:31:57Z</time>
      </trkpt>
      <trkpt lat="39.819950" lon="-4.335400">
        <ele>2179.0</ele>
        <time>2013-07-03T15:31:58Z</time>
      </trkpt>
      <trkpt lat="39.819950" lon="-4.335283">
        <ele>2184.0</ele>
        <time>2013-07-03T15:31:59Z</time>
      </trkpt>
      <trkpt lat="39.819967" lon="-4.335183">
        <ele>2187.0</ele>
        <time>2013-07-03T15:32:00Z</time>
      </trkpt>
      <trkpt lat="39.819983" lon="-4.335117">
        <ele>2190.0</ele>
        <time>2013-07-03T15:32:01Z</time>
      </trkpt>
      <trkpt lat="39.820033" lon="-4.335067">
        <ele>2189.0</ele>
        <time>2013-07-03T15:32:02Z</time>
      </trkpt>
      <trkpt lat="39.820083" lon="-4.335000">
        <ele>2190.0</ele>
        <time>2013-07-03T15:32:03Z</time>
      </trkpt>
      <trkpt lat="39.820133" lon="-4.334933">
        <ele>2192.0</ele>
        <time>2013-07-03T15:32:04Z</time>
      </trkpt>
      <trkpt lat="39.820200" lon="-4.334867">
        <ele>2194.0</ele>
        <time>2013-07-03T15:32:05Z</time>
      </trkpt>
      <trkpt lat="39.820267" lon="-4.334800">
        <ele>2195.0</ele>
        <time>2013-07-03T15:32:06Z</time>
      </trkpt>
      <trkpt lat="39.820333" lon="-4.334733">
        <ele>2198.0</ele>
        <time>2013-07-03T15:32:07Z</time>
      </trkpt>
      <trkpt lat="39.820383" lon="-4.334700">
        <ele>2201.0</ele>
        <time>2013-07-03T15:32:08Z</time>
      </trkpt>
      <trkpt lat="39.820450" lon="-4.334667">
        <ele>2204.0</ele>
        <time>2013-07-03T15:32:09Z</time>
      </trkpt>
      <trkpt lat="39.820517" lon="-4.334650">
        <ele>2208.0</ele>
        <time>2013-07-03T15:32:10Z</time>
      </trkpt>
      <trkpt lat="39.820583" lon="-4.334650">
        <ele>2211.0</ele>
        <time>2013-07-03T15:32:11Z</time>
      </trkpt>
      <trkpt lat="39.820650" lon="-4.334633">
        <ele>2214.0</ele>
        <time>2013-07-03T15:32:12Z</time>
      </trkpt>
      <trkpt lat="39.820717" lon="-4.334650">
        <ele>2217.0</ele>
        <time>2013-07-03T15:32:13Z</time>
      </trkpt>
      <trkpt lat="39.820783" lon="-4.334667">
        <ele>2221.0</ele>
        <time>2013-07-03T15:32:14Z</time>
      </trkpt>
      <trkpt lat="39.820850" lon="-4.334683">
        <ele>2225.0</ele>
        <time>2013-07-03T15:32:15Z</time>
      </trkpt>
      <trkpt lat="39.820900" lon="-4.334700">
        <ele>2229.0</ele>
        <time>2013-07-03T15:32:16Z</time>
      </trkpt>
      <trkpt lat="39.820950" lon="-4.334717">
        <ele>2234.0</ele>
        <time>2013-07-03T15:32:17Z</time>
      </trkpt>
      <trkpt lat="39.821000" lon="-4.334717">
        <ele>2237.0</ele>
        <time>2013-07-03T15:32:18Z</time>
      </trkpt>
      <trkpt lat="39.821067" lon="-4.334717">
        <ele>2240.0</ele>
        <time>2013-07-03T15:32:19Z</time>
      </trkpt>
      <trkpt lat="39.821133" lon="-4.334750">
        <ele>2244.0</ele>
        <time>2013-07-03T15:32:20Z</time>
      </trkpt>
      <trkpt lat="39.821167" lon="-4.334800">
        <ele>2249.0</ele>
        <time>2013-07-03T15:32:21Z</time>
      </trkpt>
      <trkpt lat="39.821167" lon="-4.334900">
        <ele>2253.0</ele>
        <time>2013-07-03T15:32:22Z</time>
      </trkpt>
      <trkpt lat="39.821133" lon="-4.335000">
        <ele>2257.0</ele>
        <time>2013-07-03T15:32:23Z</time>
      </trkpt>
      <trkpt lat="39.821083" lon="-4.335083">
        <ele>2262.0</ele>
        <time>2013-07-03T15:32:24Z</time>
      </trkpt>
      <trkpt lat="39.821017" lon="-4.335167">
        <ele>2268.0</ele>
        <time>2013-07-03T15:32:25Z</time>
      </trkpt>
      <trkpt lat="39.820967" lon="-4.335217">
        <ele>2274.0</ele>
        <time>2013-07-03T15:32:26Z</time>
      </trkpt>
      <trkpt lat="39.820917" lon="-4.335233">
        <ele>2280.0</ele>
        <time>2013-07-03T15:32:27Z</time>
      </trkpt>
      <trkpt lat="39.820850" lon="-4.335250">
        <ele>2284.0</ele>
        <time>2013-07-03T15:32:28Z</time>
      </trkpt>
      <trkpt lat="39.820767" lon="-4.335283">
        <ele>2288.0</ele>
        <time>2013-07-03T15:32:29Z</time>
      </trkpt>
      <trkpt lat="39.820667" lon="-4.335283">
        <ele>2291.0</ele>
        <time>2013-07-03T15:32:30Z</time>
      </trkpt>
      <trkpt lat="39.820567" lon="-4.335283">
        <ele>2295.0</ele>
        <time>2013-07-03T15:32:31Z</time>
      </trkpt>
      <trkpt lat="39.820483" lon="-4.335267">
        <ele>2300.0</ele>
        <time>2013-07-03T15:32:32Z</time>
      </trkpt>
      <trkpt lat="39.820383" lon="-4.335217">
        <ele>2303.0</ele>
        <time>2013-07-03T15:32:33Z</time>
      </trkpt>
      <trkpt lat="39.820317" lon="-4.335150">
        <ele>2306.0</ele>
        <time>2013-07-03T15:32:34Z</time>
      </trkpt>
      <trkpt lat="39.820217" lon="-4.335067">
        <ele>2309.0</ele>
        <time>2013-07-03T15:32:35Z</time>
      </trkpt>
      <trkpt lat="39.820133" lon="-4.334967">
        <ele>2312.0</ele>
        <time>2013-07-03T15:32:36Z</time>
      </trkpt>
      <trkpt lat="39.820067" lon="-4.334867">
        <ele>2315.0</ele>
        <time>2013-07-03T15:32:37Z</time>
      </trkpt>
      <trkpt lat="39.819983" lon="-4.334733">
        <ele>2318.0</ele>
        <time>2013-07-03T15:32:38Z</time>
      </trkpt>
      <trkpt lat="39.819933" lon="-4.334617">
        <ele>2321.0</ele>
        <time>2013-07-03T15:32:39Z</time>
      </trkpt>
      <trkpt lat="39.819900" lon="-4.334483">
        <ele>2324.0</ele>
        <time>2013-07-03T15:32:40Z</time>
      </trkpt>
      <trkpt lat="39.819867" lon="-4.334367">
        <ele>2328.0</ele>
        <time>2013-07-03T15:32:41Z</time>
      </trkpt>
      <trkpt lat="39.819833" lon="-4.334250">
        <ele>2330.0</ele>
        <time>2013-07-03T15:32:42Z</time>
      </trkpt>
      <trkpt lat="39.819817" lon="-4.334150">
        <ele>2332.0</ele>
        <time>2013-07-03T15:32:43Z</time>
      </trkpt>
      <trkpt lat="39.819800" lon="-4.334050">
        <ele>2335.0</ele>
        <time>2013-07-03T15:32:44Z</time>
      </trkpt>
      <trkpt lat="39.819783" lon="-4.333933">
        <ele>2337.0</ele>
        <time>2013-07-03T15:32:45Z</time>
      </trkpt>
      <trkpt lat="39.819783" lon="-4.333817">
        <ele>2339.0</ele>
        <time>2013-07-03T15:32:46Z</time>
      </trkpt>
      <trkpt lat="39.819800" lon="-4.333733">
        <ele>2342.0</ele>
        <time>2013-07-03T15:32:47Z</time>
      </trkpt>
      <trkpt lat="39.819833" lon="-4.333667">
        <ele>2345.0</ele>
        <time>2013-07-03T15:32:48Z</time>
      </trkpt>
      <trkpt lat="39.819850" lon="-4.333600">
        <ele>2348.0</ele>
        <time>2013-07-03T15:32:49Z</time>
      </trkpt>
      <trkpt lat="39.819883" lon="-4.333550">
        <ele>2350.0</ele>
        <time>2013-07-03T15:32:50Z</time>
      </trkpt>
      <trkpt lat="39.819917" lon="-4.333500">
        <ele>2353.0</ele>
        <time>2013-07-03T15:32:51Z</time>
      </trkpt>
      <trkpt lat="39.819967" lon="-4.333483">
        <ele>2355.0</ele>
        <time>2013-07-03T15:32:52Z</time>
      </trkpt>
      <trkpt lat="39.820017" lon="-4.333483">
        <ele>2357.0</ele>
        <time>2013-07-03T15:32:53Z</time>
      </trkpt>
      <trkpt lat="39.820050" lon="-4.333517">
        <ele>2359.0</ele>
        <time>2013-07-03T15:32:54Z</time>
      </trkpt>
      <trkpt lat="39.820083" lon="-4.333567">
        <ele>2362.0</ele>
        <time>2013-07-03T15:32:55Z</time>
      </trkpt>
      <trkpt lat="39.820100" lon="-4.333617">
        <ele>2364.0</ele>
        <time>2013-07-03T15:32:56Z</time>
      </trkpt>
      <trkpt lat="39.820117" lon="-4.333683">
        <ele>2366.0</ele>
        <time>2013-07-03T15:32:57Z</time>
      </trkpt>
      <trkpt lat="39.820133" lon="-4.333767">
        <ele>2369.0</ele>
        <time>2013-07-03T15:32:58Z</time>
      </trkpt>
      <trkpt lat="39.820133" lon="-4.333833">
        <ele>2371.0</ele>
        <time>2013-07-03T15:32:59Z</time>
      </trkpt>
      <trkpt lat="39.820150" lon="-4.333917">
        <ele>2374.0</ele>
        <time>2013-07-03T15:33:00Z</time>
      </trkpt>
      <trkpt lat="39.820167" lon="-4.333983">
        <ele>2377.0</ele>
        <time>2013-07-03T15:33:01Z</time>
      </trkpt>
      <trkpt lat="39.820167" lon="-4.334050">
        <ele>2379.0</ele>
        <time>2013-07-03T15:33:02Z</time>
      </trkpt>
      <trkpt lat="39.820150" lon="-4.334117">
        <ele>2380.0</ele>
        <time>2013-07-03T15:33:03Z</time>
      </trkpt>
      <trkpt lat="39.820100" lon="-4.334167">
        <ele>2381.0</ele>
        <time>2013-07-03T15:33:04Z</time>
      </trkpt>
      <trkpt lat="39.820033" lon="-4.334217">
        <ele>2381.0</ele>
        <time>2013-07-03T15:33:05Z</time>
      </trkpt>
      <trkpt lat="39.819933" lon="-4.334267">
        <ele>2381.0</ele>
        <time>2013-07-03T15:33:06Z</time>
      </trkpt>
      <trkpt lat="39.819850" lon="-4.334300">
        <ele>2382.0</ele>
        <time>2013-07-03T15:33:07Z</time>
      </trkpt>
      <trkpt lat="39.819750" lon="-4.334300">
        <ele>2384.0</ele>
        <time>2013-07-03T15:33:08Z</time>
      </trkpt>
      <trkpt lat="39.819650" lon="-4.334250">
        <ele>2385.0</ele>
        <time>2013-07-03T15:33:09Z</time>
      </trkpt>
      <trkpt lat="39.819550" lon="-4.334167">
        <ele>2386.0</ele>
        <time>2013-07-03T15:33:10Z</time>
      </trkpt>
      <trkpt lat="39.819450" lon="-4.334067">
        <ele>2388.0</ele>
        <time>2013-07-03T15:33:11Z</time>
      </trkpt>
      <trkpt lat="39.819383" lon="-4.333950">
        <ele>2390.0</ele>
        <time>2013-07-03T15:33:12Z</time>
      </trkpt>
      <trkpt lat="39.819333" lon="-4.333833">
        <ele>2391.0</ele>
        <time>2013-07-03T15:33:13Z</time>
      </trkpt>
      <trkpt lat="39.819317" lon="-4.333717">
        <ele>2393.0</ele>
        <time>2013-07-03T15:33:14Z</time>
      </trkpt>
      <trkpt lat="39.819300" lon="-4.333617">
        <ele>2394.0</ele>
        <time>2013-07-03T15:33:15Z</time>
      </trkpt>
      <trkpt lat="39.819300" lon="-4.333517">
        <ele>2397.0</ele>
        <time>2013-07-03T15:33:16Z</time>
      </trkpt>
      <trkpt lat="39.819300" lon="-4.333433">
        <ele>2399.0</ele>
        <time>2013-07-03T15:33:17Z</time>
      </trkpt>
      <trkpt lat="39.819300" lon="-4.333350">
        <ele>2401.0</ele>
        <time>2013-07-03T15:33:18Z</time>
      </trkpt>
      <trkpt lat="39.819317" lon="-4.333283">
        <ele>2403.0</ele>
        <time>2013-07-03T15:33:19Z</time>
      </trkpt>
      <trkpt lat="39.819317" lon="-4.333200">
        <ele>2404.0</ele>
        <time>2013-07-03T15:33:20Z</time>
      </trkpt>
      <trkpt lat="39.819350" lon="-4.333133">
        <ele>2406.0</ele>
        <time>2013-07-03T15:33:21Z</time>
      </trkpt>
      <trkpt lat="39.819383" lon="-4.333083">
        <ele>2407.0</ele>
        <time>2013-07-03T15:33:22Z</time>
      </trkpt>
      <trkpt lat="39.819433" lon="-4.333033">
        <ele>2409.0</ele>
        <time>2013-07-03T15:33:23Z</time>
      </trkpt>
      <trkpt lat="39.819467" lon="-4.333000">
        <ele>2411.0</ele>
        <time>2013-07-03T15:33:24Z</time>
      </trkpt>
      <trkpt lat="39.819517" lon="-4.332950">
        <ele>2413.0</ele>
        <time>2013-07-03T15:33:25Z</time>
      </trkpt>
      <trkpt lat="39.819533" lon="-4.332900">
        <ele>2415.0</ele>
        <time>2013-07-03T15:33:26Z</time>
      </trkpt>
      <trkpt lat="39.819567" lon="-4.332867">
        <ele>2416.0</ele>
        <time>2013-07-03T15:33:27Z</time>
      </trkpt>
      <trkpt lat="39.819583" lon="-4.332817">
        <ele>2417.0</ele>
        <time>2013-07-03T15:33:28Z</time>
      </trkpt>
      <trkpt lat="39.819633" lon="-4.332800">
        <ele>2418.0</ele>
        <time>2013-07-03T15:33:29Z</time>
      </trkpt>
      <trkpt lat="39.819667" lon="-4.332783">
        <ele>2418.0</ele>
        <time>2013-07-03T15:33:30Z</time>
      </trkpt>
      <trkpt lat="39.819717" lon="-4.332783">
        <ele>2419.0</ele>
        <time>2013-07-03T15:33:31Z</time>
      </trkpt>
      <trkpt lat="39.819767" lon="-4.332800">
        <ele>2421.0</ele>
        <time>2013-07-03T15:33:32Z</time>
      </trkpt>
      <trkpt lat="39.819817" lon="-4.332817">
        <ele>2422.0</ele>
        <time>2013-07-03T15:33:33Z</time>
      </trkpt>
      <trkpt lat="39.819867" lon="-4.332850">
        <ele>2423.0</ele>
        <time>2013-07-03T15:33:34Z</time>
      </trkpt>
      <trkpt lat="39.819900" lon="-4.332883">
        <ele>2423.0</ele>
        <time>2013-07-03T15:33:35Z</time>
      </trkpt>
      <trkpt lat="39.819950" lon="-4.332917">
        <ele>2423.0</ele>
        <time>2013-07-03T15:33:36Z</time>
      </trkpt>
      <trkpt lat="39.820000" lon="-4.332933">
        <ele>2423.0</ele>
        <time>2013-07-03T15:33:37Z</time>
      </trkpt>
      <trkpt lat="39.820067" lon="-4.332950">
        <ele>2423.0</ele>
        <time>2013-07-03T15:33:38Z</time>
      </trkpt>
      <trkpt lat="39.820117" lon="-4.332967">
        <ele>2425.0</ele>
        <time>2013-07-03T15:33:39Z</time>
      </trkpt>
      <trkpt lat="39.820183" lon="-4.333000">
        <ele>2426.0</ele>
        <time>2013-07-03T15:33:40Z</time>
      </trkpt>
      <trkpt lat="39.820233" lon="-4.333050">
        <ele>2428.0</ele>
        <time>2013-07-03T15:33:41Z</time>
      </trkpt>
      <trkpt lat="39.820267" lon="-4.333100">
        <ele>2431.0</ele>
        <time>2013-07-03T15:33:42Z</time>
      </trkpt>
      <trkpt lat="39.820317" lon="-4.333150">
        <ele>2433.0</ele>
        <time>2013-07-03T15:33:43Z</time>
      </trkpt>
      <trkpt lat="39.820367" lon="-4.333183">
        <ele>2436.0</ele>
        <time>2013-07-03T15:33:44Z</time>
      </trkpt>
      <trkpt lat="39.820400" lon="-4.333217">
        <ele>2437.0</ele>
        <time>2013-07-03T15:33:45Z</time>
      </trkpt>
      <trkpt lat="39.820450" lon="-4.333267">
        <ele>2439.0</ele>
        <time>2013-07-03T15:33:46Z</time>
      </trkpt>
      <trkpt lat="39.820483" lon="-4.333333">
        <ele>2440.0</ele>
        <time>2013-07-03T15:33:47Z</time>
      </trkpt>
      <trkpt lat="39.820517" lon="-4.333400">
        <ele>2443.0</ele>
        <time>2013-07-03T15:33:48Z</time>
      </trkpt>
      <trkpt lat="39.820533" lon="-4.333467">
        <ele>2447.0</ele>
        <time>2013-07-03T15:33:49Z</time>
      </trkpt>
      <trkpt lat="39.820550" lon="-4.333500">
        <ele>2449.0</ele>
        <time>2013-07-03T15:33:50Z</time>
      </trkpt>
      <trkpt lat="39.820550" lon="-4.333550">
        <ele>2452.0</ele>
        <time>2013-07-03T15:33:51Z</time>
      </trkpt>
      <trkpt lat="39.820550" lon="-4.333617">
        <ele>2454.0</ele>
        <time>2013-07-03T15:33:52Z</time>
      </trkpt>
      <trkpt lat="39.820550" lon="-4.333717">
        <ele>2457.0</ele>
        <time>2013-07-03T15:33:53Z</time>
      </trkpt>
      <trkpt lat="39.820533" lon="-4.333817">
        <ele>2461.0</ele>
        <time>2013-07-03T15:33:54Z</time>
      </trkpt>
      <trkpt lat="39.820517" lon="-4.333883">
        <ele>2466.0</ele>
        <time>2013-07-03T15:33:55Z</time>
      </trkpt>
      <trkpt lat="39.820467" lon="-4.333950">
        <ele>2470.0</ele>
        <time>2013-07-03T15:33:56Z</time>
      </trkpt>
      <trkpt lat="39.820433" lon="-4.334000">
        <ele>2473.0</ele>
        <time>2013-07-03T15:33:57Z</time>
      </trkpt>
      <trkpt lat="39.820367" lon="-4.334067">
        <ele>2475.0</ele>
        <time>2013-07-03T15:33:58Z</time>
      </trkpt>
      <trkpt lat="39.820300" lon="-4.334133">
        <ele>2477.0</ele>
        <time>2013-07-03T15:33:59Z</time>
      </trkpt>
      <trkpt lat="39.820217" lon="-4.334183">
        <ele>2478.0</ele>
        <time>2013-07-03T15:34:00Z</time>
      </trkpt>
      <trkpt lat="39.820100" lon="-4.334200">
        <ele>2479.0</ele>
        <time>2013-07-03T15:34:01Z</time>
      </trkpt>
      <trkpt lat="39.819983" lon="-4.334183">
        <ele>2481.0</ele>
        <time>2013-07-03T15:34:02Z</time>
      </trkpt>
      <trkpt lat="39.819867" lon="-4.334133">
        <ele>2483.0</ele>
        <time>2013-07-03T15:34:03Z</time>
      </trkpt>
      <trkpt lat="39.819750" lon="-4.334067">
        <ele>2485.0</ele>
        <time>2013-07-03T15:34:04Z</time>
      </trkpt>
      <trkpt lat="39.819667" lon="-4.334000">
        <ele>2487.0</ele>
        <time>2013-07-03T15:34:05Z</time>
      </trkpt>
      <trkpt lat="39.819583" lon="-4.333900">
        <ele>2490.0</ele>
        <time>2013-07-03T15:34:06Z</time>
      </trkpt>
      <trkpt lat="39.819517" lon="-4.333817">
        <ele>2492.0</ele>
        <time>2013-07-03T15:34:07Z</time>
      </trkpt>
      <trkpt lat="39.819483" lon="-4.333700">
        <ele>2493.0</ele>
        <time>2013-07-03T15:34:08Z</time>
      </trkpt>
      <trkpt lat="39.819467" lon="-4.333583">
        <ele>2495.0</ele>
        <time>2013-07-03T15:34:09Z</time>
      </trkpt>
      <trkpt lat="39.819433" lon="-4.333467">
        <ele>2496.0</ele>
        <time>2013-07-03T15:34:10Z</time>
      </trkpt>
      <trkpt lat="39.819417" lon="-4.333350">
        <ele>2498.0</ele>
        <time>2013-07-03T15:34:11Z</time>
      </trkpt>
      <trkpt lat="39.819417" lon="-4.333233">
        <ele>2498.0</ele>
        <time>2013-07-03T15:34:12Z</time>
      </trkpt>
      <trkpt lat="39.819433" lon="-4.333133">
        <ele>2499.0</ele>
        <time>2013-07-03T15:34:13Z</time>
      </trkpt>
      <trkpt lat="39.819467" lon="-4.333050">
        <ele>2498.0</ele>
        <time>2013-07-03T15:34:14Z</time>
      </trkpt>
      <trkpt lat="39.819517" lon="-4.332983">
        <ele>2499.0</ele>
        <time>2013-07-03T15:34:15Z</time>
      </trkpt>
      <trkpt lat="39.819567" lon="-4.332917">
        <ele>2499.0</ele>
        <time>2013-07-03T15:34:16Z</time>
      </trkpt>
      <trkpt lat="39.819617" lon="-4.332883">
        <ele>2500.0</ele>
        <time>2013-07-03T15:34:17Z</time>
      </trkpt>
      <trkpt lat="39.819683" lon="-4.332850">
        <ele>2501.0</ele>
        <time>2013-07-03T15:34:18Z</time>
      </trkpt>
      <trkpt lat="39.819733" lon="-4.332833">
        <ele>2502.0</ele>
        <time>2013-07-03T15:34:19Z</time>
      </trkpt>
      <trkpt lat="39.819783" lon="-4.332833">
        <ele>2502.0</ele>
        <time>2013-07-03T15:34:20Z</time>
      </trkpt>
      <trkpt lat="39.819833" lon="-4.332850">
        <ele>2503.0</ele>
        <time>2013-07-03T15:34:21Z</time>
      </trkpt>
      <trkpt lat="39.819900" lon="-4.332883">
        <ele>2503.0</ele>
        <time>2013-07-03T15:34:22Z</time>
      </trkpt>
      <trkpt lat="39.819933" lon="-4.332933">
        <ele>2504.0</ele>
        <time>2013-07-03T15:34:23Z</time>
      </trkpt>
      <trkpt lat="39.819967" lon="-4.333000">
        <ele>2505.0</ele>
        <time>2013-07-03T15:34:24Z</time>
      </trkpt>
      <trkpt lat="39.819983" lon="-4.333067">
        <ele>2506.0</ele>
        <time>2013-07-03T15:34:25Z</time>
      </trkpt>
      <trkpt lat="39.820000" lon="-4.333150">
        <ele>2507.0</ele>
        <time>2013-07-03T15:34:26Z</time>
      </trkpt>
      <trkpt lat="39.819983" lon="-4.333233">
        <ele>2507.0</ele>
        <time>2013-07-03T15:34:27Z</time>
      </trkpt>
      <trkpt lat="39.819950" lon="-4.333350">
        <ele>2508.0</ele>
        <time>2013-07-03T15:34:28Z</time>
      </trkpt>
      <trkpt lat="39.819900" lon="-4.333450">
        <ele>2509.0</ele>
        <time>2013-07-03T15:34:29Z</time>
      </trkpt>
      <trkpt lat="39.819850" lon="-4.333550">
        <ele>2511.0</ele>
        <time>2013-07-03T15:34:30Z</time>
      </trkpt>
      <trkpt lat="39.819800" lon="-4.333650">
        <ele>2513.0</ele>
        <time>2013-07-03T15:34:31Z</time>
      </trkpt>
      <trkpt lat="39.819733" lon="-4.333750">
        <ele>2515.0</ele>
        <time>2013-07-03T15:34:32Z</time>
      </trkpt>
      <trkpt lat="39.819667" lon="-4.333833">
        <ele>2517.0</ele>
        <time>2013-07-03T15:34:33Z</time>
      </trkpt>
      <trkpt lat="39.819617" lon="-4.333933">
        <ele>2517.0</ele>
        <time>2013-07-03T15:34:34Z</time>
      </trkpt>
      <trkpt lat="39.819567" lon="-4.334017">
        <ele>2518.0</ele>
        <time>2013-07-03T15:34:35Z</time>
      </trkpt>
      <trkpt lat="39.819533" lon="-4.334100">
        <ele>2519.0</ele>
        <time>2013-07-03T15:34:36Z</time>
      </trkpt>
      <trkpt lat="39.819533" lon="-4.334200">
        <ele>2519.0</ele>
        <time>2013-07-03T15:34:37Z</time>
      </trkpt>
      <trkpt lat="39.819533" lon="-4.334283">
        <ele>2520.0</ele>
        <time>2013-07-03T15:34:38Z</time>
      </trkpt>
      <trkpt lat="39.819550" lon="-4.334383">
        <ele>2521.0</ele>
        <time>2013-07-03T15:34:39Z</time>
      </trkpt>
      <trkpt lat="39.819567" lon="-4.334450">
        <ele>2521.0</ele>
        <time>2013-07-03T15:34:40Z</time>
      </trkpt>
      <trkpt lat="39.819600" lon="-4.334500">
        <ele>2522.0</ele>
        <time>2013-07-03T15:34:41Z</time>
      </trkpt>
      <trkpt lat="39.819633" lon="-4.334550">
        <ele>2522.0</ele>
        <time>2013-07-03T15:34:42Z</time>
      </trkpt>
      <trkpt lat="39.819667" lon="-4.334600">
        <ele>2522.0</ele>
        <time>2013-07-03T15:34:43Z</time>
      </trkpt>
      <trkpt lat="39.819717" lon="-4.334650">
        <ele>2522.0</ele>
        <time>2013-07-03T15:34:44Z</time>
      </trkpt>
      <trkpt lat="39.819767" lon="-4.334667">
        <ele>2524.0</ele>
        <time>2013-07-03T15:34:45Z</time>
      </trkpt>
      <trkpt lat="39.819817" lon="-4.334683">
        <ele>2526.0</ele>
        <time>2013-07-03T15:34:46Z</time>
      </trkpt>
      <trkpt lat="39.819867" lon="-4.334700">
        <ele>2528.0</ele>
        <time>2013-07-03T15:34:47Z</time>
      </trkpt>
      <trkpt lat="39.819900" lon="-4.334700">
        <ele>2529.0</ele>
        <time>2013-07-03T15:34:48Z</time>
      </trkpt>
      <trkpt lat="39.819950" lon="-4.334700">
        <ele>2530.0</ele>
        <time>2013-07-03T15:34:49Z</time>
      </trkpt>
      <trkpt lat="39.819983" lon="-4.334667">
        <ele>2530.0</ele>
        <time>2013-07-03T15:34:50Z</time>
      </trkpt>
      <trkpt lat="39.820033" lon="-4.334617">
        <ele>2531.0</ele>
        <time>2013-07-03T15:34:51Z</time>
      </trkpt>
      <trkpt lat="39.820067" lon="-4.334517">
        <ele>2531.0</ele>
        <time>2013-07-03T15:34:52Z</time>
      </trkpt>
      <trkpt lat="39.820100" lon="-4.334417">
        <ele>2531.0</ele>
        <time>2013-07-03T15:34:53Z</time>
      </trkpt>
      <trkpt lat="39.820100" lon="-4.334300">
        <ele>2532.0</ele>
        <time>2013-07-03T15:34:54Z</time>
      </trkpt>
      <trkpt lat="39.820083" lon="-4.334183">
        <ele>2533.0</ele>
        <time>2013-07-03T15:34:55Z</time>
      </trkpt>
      <trkpt lat="39.820033" lon="-4.334083">
        <ele>2533.0</ele>
        <time>2013-07-03T15:34:56Z</time>
      </trkpt>
      <trkpt lat="39.819967" lon="-4.334000">
        <ele>2534.0</ele>
        <time>2013-07-03T15:34:57Z</time>
      </trkpt>
      <trkpt lat="39.819883" lon="-4.333917">
        <ele>2536.0</ele>
        <time>2013-07-03T15:34:58Z</time>
      </trkpt>
      <trkpt lat="39.819800" lon="-4.333867">
        <ele>2538.0</ele>
        <time>2013-07-03T15:34:59Z</time>
      </trkpt>
      <trkpt lat="39.819700" lon="-4.333850">
        <ele>2539.0</ele>
        <time>2013-07-03T15:35:00Z</time>
      </trkpt>
      <trkpt lat="39.819600" lon="-4.333883">
        <ele>2539.0</ele>
        <time>2013-07-03T15:35:01Z</time>
      </trkpt>
      <trkpt lat="39.819533" lon="-4.333933">
        <ele>2540.0</ele>
        <time>2013-07-03T15:35:02Z</time>
      </trkpt>
      <trkpt lat="39.819483" lon="-4.334017">
        <ele>2540.0</ele>
        <time>2013-07-03T15:35:03Z</time>
      </trkpt>
      <trkpt lat="39.819450" lon="-4.334100">
        <ele>2541.0</ele>
        <time>2013-07-03T15:35:04Z</time>
      </trkpt>
      <trkpt lat="39.819433" lon="-4.334167">
        <ele>2542.0</ele>
        <time>2013-07-03T15:35:05Z</time>
      </trkpt>
      <trkpt lat="39.819417" lon="-4.334233">
        <ele>2543.0</ele>
        <time>2013-07-03T15:35:06Z</time>
      </trkpt>
      <trkpt lat="39.819417" lon="-4.334300">
        <ele>2543.0</ele>
        <time>2013-07-03T15:35:07Z</time>
      </trkpt>
      <trkpt lat="39.819433" lon="-4.334383">
        <ele>2543.0</ele>
        <time>2013-07-03T15:35:08Z</time>
      </trkpt>
      <trkpt lat="39.819450" lon="-4.334483">
        <ele>2543.0</ele>
        <time>2013-07-03T15:35:09Z</time>
      </trkpt>
      <trkpt lat="39.819483" lon="-4.334567">
        <ele>2544.0</ele>
        <time>2013-07-03T15:35:10Z</time>
      </trkpt>
      <trkpt lat="39.819500" lon="-4.334633">
        <ele>2544.0</ele>
        <time>2013-07-03T15:35:11Z</time>
      </trkpt>
      <trkpt lat="39.819533" lon="-4.334700">
        <ele>2545.0</ele>
        <time>2013-07-03T15:35:12Z</time>
      </trkpt>
      <trkpt lat="39.819567" lon="-4.334767">
        <ele>2545.0</ele>
        <time>2013-07-03T15:35:13Z</time>
      </trkpt>
      <trkpt lat="39.819583" lon="-4.334850">
        <ele>2546.0</ele>
        <time>2013-07-03T15:35:14Z</time>
      </trkpt>
      <trkpt lat="39.819617" lon="-4.334917">
        <ele>2547.0</ele>
        <time>2013-07-03T15:35:15Z</time>
      </trkpt>
      <trkpt lat="39.819633" lon="-4.334983">
        <ele>2549.0</ele>
        <time>2013-07-03T15:35:16Z</time>
      </trkpt>
      <trkpt lat="39.819667" lon="-4.335033">
        <ele>2549.0</ele>
        <time>2013-07-03T15:35:17Z</time>
      </trkpt>
      <trkpt lat="39.819700" lon="-4.335083">
        <ele>2550.0</ele>
        <time>2013-07-03T15:35:18Z</time>
      </trkpt>
      <trkpt lat="39.819750" lon="-4.335133">
        <ele>2550.0</ele>
        <time>2013-07-03T15:35:19Z</time>
      </trkpt>
      <trkpt lat="39.819783" lon="-4.335167">
        <ele>2550.0</ele>
        <time>2013-07-03T15:35:20Z</time>
      </trkpt>
      <trkpt lat="39.819833" lon="-4.335183">
        <ele>2550.0</ele>
        <time>2013-07-03T15:35:21Z</time>
      </trkpt>
      <trkpt lat="39.819867" lon="-4.335183">
        <ele>2550.0</ele>
        <time>2013-07-03T15:35:22Z</time>
      </trkpt>
      <trkpt lat="39.819917" lon="-4.335133">
        <ele>2550.0</ele>
        <time>2013-07-03T15:35:23Z</time>
      </trkpt>
      <trkpt lat="39.819933" lon="-4.335050">
        <ele>2550.0</ele>
        <time>2013-07-03T15:35:24Z</time>
      </trkpt>
      <trkpt lat="39.819933" lon="-4.334950">
        <ele>2549.0</ele>
        <time>2013-07-03T15:35:25Z</time>
      </trkpt>
      <trkpt lat="39.819917" lon="-4.334850">
        <ele>2549.0</ele>
        <time>2013-07-03T15:35:26Z</time>
      </trkpt>
      <trkpt lat="39.819883" lon="-4.334750">
        <ele>2549.0</ele>
        <time>2013-07-03T15:35:27Z</time>
      </trkpt>
      <trkpt lat="39.819833" lon="-4.334650">
        <ele>2549.0</ele>
        <time>2013-07-03T15:35:28Z</time>
      </trkpt>
      <trkpt lat="39.819783" lon="-4.334567">
        <ele>2549.0</ele>
        <time>2013-07-03T15:35:29Z</time>
      </trkpt>
      <trkpt lat="39.819733" lon="-4.334467">
        <ele>2549.0</ele>
        <time>2013-07-03T15:35:30Z</time>
      </trkpt>
      <trkpt lat="39.819683" lon="-4.334350">
        <ele>2549.0</ele>
        <time>2013-07-03T15:35:31Z</time>
      </trkpt>
      <trkpt lat="39.819617" lon="-4.334233">
        <ele>2548.0</ele>
        <time>2013-07-03T15:35:32Z</time>
      </trkpt>
      <trkpt lat="39.819550" lon="-4.334117">
        <ele>2548.0</ele>
        <time>2013-07-03T15:35:33Z</time>
      </trkpt>
      <trkpt lat="39.819500" lon="-4.334000">
        <ele>2547.0</ele>
        <time>2013-07-03T15:35:34Z</time>
      </trkpt>
      <trkpt lat="39.819433" lon="-4.333883">
        <ele>2547.0</ele>
        <time>2013-07-03T15:35:35Z</time>
      </trkpt>
      <trkpt lat="39.819383" lon="-4.333767">
        <ele>2547.0</ele>
        <time>2013-07-03T15:35:36Z</time>
      </trkpt>
      <trkpt lat="39.819333" lon="-4.333650">
        <ele>2548.0</ele>
        <time>2013-07-03T15:35:37Z</time>
      </trkpt>
      <trkpt lat="39.819333" lon="-4.333533">
        <ele>2548.0</ele>
        <time>2013-07-03T15:35:38Z</time>
      </trkpt>
      <trkpt lat="39.819333" lon="-4.333417">
        <ele>2548.0</ele>
        <time>2013-07-03T15:35:39Z</time>
      </trkpt>
      <trkpt lat="39.819383" lon="-4.333317">
        <ele>2545.0</ele>
        <time>2013-07-03T15:35:40Z</time>
      </trkpt>
      <trkpt lat="39.819417" lon="-4.333183">
        <ele>2546.0</ele>
        <time>2013-07-03T15:35:41Z</time>
      </trkpt>
      <trkpt lat="39.819433" lon="-4.333050">
        <ele>2547.0</ele>
        <time>2013-07-03T15:35:42Z</time>
      </trkpt>
      <trkpt lat="39.819433" lon="-4.332933">
        <ele>2547.0</ele>
        <time>2013-07-03T15:35:43Z</time>
      </trkpt>
      <trkpt lat="39.819417" lon="-4.332817">
        <ele>2547.0</ele>
        <time>2013-07-03T15:35:44Z</time>
      </trkpt>
      <trkpt lat="39.819417" lon="-4.332700">
        <ele>2547.0</ele>
        <time>2013-07-03T15:35:45Z</time>
      </trkpt>
      <trkpt lat="39.819433" lon="-4.332583">
        <ele>2546.0</ele>
        <time>2013-07-03T15:35:46Z</time>
      </trkpt>
      <trkpt lat="39.819483" lon="-4.332467">
        <ele>2543.0</ele>
        <time>2013-07-03T15:35:47Z</time>
      </trkpt>
      <trkpt lat="39.819517" lon="-4.332367">
        <ele>2542.0</ele>
        <time>2013-07-03T15:35:48Z</time>
      </trkpt>
      <trkpt lat="39.819567" lon="-4.332267">
        <ele>2542.0</ele>
        <time>2013-07-03T15:35:49Z</time>
      </trkpt>
      <trkpt lat="39.819617" lon="-4.332200">
        <ele>2542.0</ele>
        <time>2013-07-03T15:35:50Z</time>
      </trkpt>
      <trkpt lat="39.819667" lon="-4.332133">
        <ele>2542.0</ele>
        <time>2013-07-03T15:35:51Z</time>
      </trkpt>
      <trkpt lat="39.819733" lon="-4.332067">
        <ele>2542.0</ele>
        <time>2013-07-03T15:35:52Z</time>
      </trkpt>
      <trkpt lat="39.819800" lon="-4.332017">
        <ele>2541.0</ele>
        <time>2013-07-03T15:35:53Z</time>
      </trkpt>
      <trkpt lat="39.819867" lon="-4.331983">
        <ele>2542.0</ele>
        <time>2013-07-03T15:35:54Z</time>
      </trkpt>
      <trkpt lat="39.819950" lon="-4.331933">
        <ele>2542.0</ele>
        <time>2013-07-03T15:35:55Z</time>
      </trkpt>
      <trkpt lat="39.820033" lon="-4.331900">
        <ele>2542.0</ele>
        <time>2013-07-03T15:35:56Z</time>
      </trkpt>
      <trkpt lat="39.820100" lon="-4.331900">
        <ele>2542.0</ele>
        <time>2013-07-03T15:35:57Z</time>
      </trkpt>
      <trkpt lat="39.820200" lon="-4.331900">
        <ele>2541.0</ele>
        <time>2013-07-03T15:35:58Z</time>
      </trkpt>
      <trkpt lat="39.820283" lon="-4.331900">
        <ele>2543.0</ele>
        <time>2013-07-03T15:35:59Z</time>
      </trkpt>
      <trkpt lat="39.820350" lon="-4.331883">
        <ele>2547.0</ele>
        <time>2013-07-03T15:36:00Z</time>
      </trkpt>
      <trkpt lat="39.820417" lon="-4.331867">
        <ele>2549.0</ele>
        <time>2013-07-03T15:36:01Z</time>
      </trkpt>
      <trkpt lat="39.820467" lon="-4.331833">
        <ele>2550.0</ele>
        <time>2013-07-03T15:36:02Z</time>
      </trkpt>
      <trkpt lat="39.820517" lon="-4.331800">
        <ele>2551.0</ele>
        <time>2013-07-03T15:36:03Z</time>
      </trkpt>
      <trkpt lat="39.820583" lon="-4.331783">
        <ele>2551.0</ele>
        <time>2013-07-03T15:36:04Z</time>
      </trkpt>
      <trkpt lat="39.820667" lon="-4.331750">
        <ele>2552.0</ele>
        <time>2013-07-03T15:36:05Z</time>
      </trkpt>
      <trkpt lat="39.820733" lon="-4.331717">
        <ele>2553.0</ele>
        <time>2013-07-03T15:36:06Z</time>
      </trkpt>
      <trkpt lat="39.820800" lon="-4.331700">
        <ele>2556.0</ele>
        <time>2013-07-03T15:36:07Z</time>
      </trkpt>
      <trkpt lat="39.820867" lon="-4.331683">
        <ele>2558.0</ele>
        <time>2013-07-03T15:36:08Z</time>
      </trkpt>
      <trkpt lat="39.820917" lon="-4.331700">
        <ele>2560.0</ele>
        <time>2013-07-03T15:36:09Z</time>
      </trkpt>
      <trkpt lat="39.820983" lon="-4.331717">
        <ele>2562.0</ele>
        <time>2013-07-03T15:36:10Z</time>
      </trkpt>
      <trkpt lat="39.821033" lon="-4.331733">
        <ele>2564.0</ele>
        <time>2013-07-03T15:36:11Z</time>
      </trkpt>
      <trkpt lat="39.821083" lon="-4.331767">
        <ele>2566.0</ele>
        <time>2013-07-03T15:36:12Z</time>
      </trkpt>
      <trkpt lat="39.821133" lon="-4.331800">
        <ele>2568.0</ele>
        <time>2013-07-03T15:36:13Z</time>
      </trkpt>
      <trkpt lat="39.821167" lon="-4.331833">
        <ele>2570.0</ele>
        <time>2013-07-03T15:36:14Z</time>
      </trkpt>
      <trkpt lat="39.821200" lon="-4.331883">
        <ele>2572.0</ele>
        <time>2013-07-03T15:36:15Z</time>
      </trkpt>
      <trkpt lat="39.821217" lon="-4.331950">
        <ele>2575.0</ele>
        <time>2013-07-03T15:36:16Z</time>
      </trkpt>
      <trkpt lat="39.821217" lon="-4.332000">
        <ele>2578.0</ele>
        <time>2013-07-03T15:36:17Z</time>
      </trkpt>
      <trkpt lat="39.821200" lon="-4.332050">
        <ele>2581.0</ele>
        <time>2013-07-03T15:36:18Z</time>
      </trkpt>
      <trkpt lat="39.821167" lon="-4.332100">
        <ele>2582.0</ele>
        <time>2013-07-03T15:36:19Z</time>
      </trkpt>
      <trkpt lat="39.821117" lon="-4.332133">
        <ele>2584.0</ele>
        <time>2013-07-03T15:36:20Z</time>
      </trkpt>
      <trkpt lat="39.821050" lon="-4.332167">
        <ele>2586.0</ele>
        <time>2013-07-03T15:36:21Z</time>
      </trkpt>
      <trkpt lat="39.820983" lon="-4.332150">
        <ele>2587.0</ele>
        <time>2013-07-03T15:36:22Z</time>
      </trkpt>
      <trkpt lat="39.820917" lon="-4.332150">
        <ele>2589.0</ele>
        <time>2013-07-03T15:36:23Z</time>
      </trkpt>
      <trkpt lat="39.820833" lon="-4.332117">
        <ele>2592.0</ele>
        <time>2013-07-03T15:36:24Z</time>
      </trkpt>
      <trkpt lat="39.820750" lon="-4.332100">
        <ele>2592.0</ele>
        <time>2013-07-03T15:36:25Z</time>
      </trkpt>
      <trkpt lat="39.820683" lon="-4.332083">
        <ele>2593.0</ele>
        <time>2013-07-03T15:36:26Z</time>
      </trkpt>
      <trkpt lat="39.820600" lon="-4.332033">
        <ele>2593.0</ele>
        <time>2013-07-03T15:36:27Z</time>
      </trkpt>
      <trkpt lat="39.820533" lon="-4.331983">
        <ele>2594.0</ele>
        <time>2013-07-03T15:36:28Z</time>
      </trkpt>
      <trkpt lat="39.820450" lon="-4.331883">
        <ele>2595.0</ele>
        <time>2013-07-03T15:36:29Z</time>
      </trkpt>
      <trkpt lat="39.820400" lon="-4.331750">
        <ele>2595.0</ele>
        <time>2013-07-03T15:36:30Z</time>
      </trkpt>
      <trkpt lat="39.820367" lon="-4.331617">
        <ele>2595.0</ele>
        <time>2013-07-03T15:36:31Z</time>
      </trkpt>
      <trkpt lat="39.820350" lon="-4.331467">
        <ele>2595.0</ele>
        <time>2013-07-03T15:36:32Z</time>
      </trkpt>
      <trkpt lat="39.820350" lon="-4.331333">
        <ele>2595.0</ele>
        <time>2013-07-03T15:36:33Z</time>
      </trkpt>
      <trkpt lat="39.820383" lon="-4.331183">
        <ele>2596.0</ele>
        <time>2013-07-03T15:36:34Z</time>
      </trkpt>
      <trkpt lat="39.820417" lon="-4.331050">
        <ele>2597.0</ele>
        <time>2013-07-03T15:36:35Z</time>
      </trkpt>
      <trkpt lat="39.820450" lon="-4.330917">
        <ele>2598.0</ele>
        <time>2013-07-03T15:36:36Z</time>
      </trkpt>
      <trkpt lat="39.820517" lon="-4.330783">
        <ele>2601.0</ele>
        <time>2013-07-03T15:36:37Z</time>
      </trkpt>
      <trkpt lat="39.820550" lon="-4.330683">
        <ele>2605.0</ele>
        <time>2013-07-03T15:36:38Z</time>
      </trkpt>
      <trkpt lat="39.820617" lon="-4.330567">
        <ele>2607.0</ele>
        <time>2013-07-03T15:36:39Z</time>
      </trkpt>
      <trkpt lat="39.820667" lon="-4.330467">
        <ele>2609.0</ele>
        <time>2013-07-03T15:36:40Z</time>
      </trkpt>
      <trkpt lat="39.820733" lon="-4.330383">
        <ele>2612.0</ele>
        <time>2013-07-03T15:36:41Z</time>
      </trkpt>
      <trkpt lat="39.820817" lon="-4.330317">
        <ele>2614.0</ele>
        <time>2013-07-03T15:36:42Z</time>
      </trkpt>
      <trkpt lat="39.820883" lon="-4.330250">
        <ele>2616.0</ele>
        <time>2013-07-03T15:36:43Z</time>
      </trkpt>
      <trkpt lat="39.820967" lon="-4.330217">
        <ele>2618.0</ele>
        <time>2013-07-03T15:36:44Z</time>
      </trkpt>
      <trkpt lat="39.821033" lon="-4.330200">
        <ele>2620.0</ele>
        <time>2013-07-03T15:36:45Z</time>
      </trkpt>
      <trkpt lat="39.821100" lon="-4.330183">
        <ele>2623.0</ele>
        <time>2013-07-03T15:36:46Z</time>
      </trkpt>
      <trkpt lat="39.821167" lon="-4.330200">
        <ele>2624.0</ele>
        <time>2013-07-03T15:36:47Z</time>
      </trkpt>
      <trkpt lat="39.821217" lon="-4.330233">
        <ele>2626.0</ele>
        <time>2013-07-03T15:36:48Z</time>
      </trkpt>
      <trkpt lat="39.821267" lon="-4.330283">
        <ele>2628.0</ele>
        <time>2013-07-03T15:36:49Z</time>
      </trkpt>
      <trkpt lat="39.821300" lon="-4.330333">
        <ele>2630.0</ele>
        <time>2013-07-03T15:36:50Z</time>
      </trkpt>
      <trkpt lat="39.821300" lon="-4.330400">
        <ele>2632.0</ele>
        <time>2013-07-03T15:36:51Z</time>
      </trkpt>
      <trkpt lat="39.821300" lon="-4.330450">
        <ele>2634.0</ele>
        <time>2013-07-03T15:36:52Z</time>
      </trkpt>
      <trkpt lat="39.821283" lon="-4.330500">
        <ele>2635.0</ele>
        <time>2013-07-03T15:36:53Z</time>
      </trkpt>
      <trkpt lat="39.821250" lon="-4.330550">
        <ele>2636.0</ele>
        <time>2013-07-03T15:36:54Z</time>
      </trkpt>
      <trkpt lat="39.821233" lon="-4.330600">
        <ele>2637.0</ele>
        <time>2013-07-03T15:36:55Z</time>
      </trkpt>
      <trkpt lat="39.821183" lon="-4.330650">
        <ele>2638.0</ele>
        <time>2013-07-03T15:36:56Z</time>
      </trkpt>
      <trkpt lat="39.821133" lon="-4.330683">
        <ele>2639.0</ele>
        <time>2013-07-03T15:36:57Z</time>
      </trkpt>
      <trkpt lat="39.821067" lon="-4.330717">
        <ele>2640.0</ele>
        <time>2013-07-03T15:36:58Z</time>
      </trkpt>
      <trkpt lat="39.821000" lon="-4.330750">
        <ele>2641.0</ele>
        <time>2013-07-03T15:36:59Z</time>
      </trkpt>
      <trkpt lat="39.820933" lon="-4.330750">
        <ele>2643.0</ele>
        <time>2013-07-03T15:37:00Z</time>
      </trkpt>
      <trkpt lat="39.820850" lon="-4.330750">
        <ele>2644.0</ele>
        <time>2013-07-03T15:37:01Z</time>
      </trkpt>
      <trkpt lat="39.820767" lon="-4.330700">
        <ele>2646.0</ele>
        <time>2013-07-03T15:37:02Z</time>
      </trkpt>
      <trkpt lat="39.820700" lon="-4.330633">
        <ele>2648.0</ele>
        <time>2013-07-03T15:37:03Z</time>
      </trkpt>
      <trkpt lat="39.820617" lon="-4.330567">
        <ele>2649.0</ele>
        <time>2013-07-03T15:37:04Z</time>
      </trkpt>
      <trkpt lat="39.820533" lon="-4.330467">
        <ele>2650.0</ele>
        <time>2013-07-03T15:37:05Z</time>
      </trkpt>
      <trkpt lat="39.820467" lon="-4.330350">
        <ele>2652.0</ele>
        <time>2013-07-03T15:37:06Z</time>
      </trkpt>
      <trkpt lat="39.820417" lon="-4.330233">
        <ele>2653.0</ele>
        <time>2013-07-03T15:37:07Z</time>
      </trkpt>
      <trkpt lat="39.820367" lon="-4.330100">
        <ele>2653.0</ele>
        <time>2013-07-03T15:37:08Z</time>
      </trkpt>
      <trkpt lat="39.820350" lon="-4.329933">
        <ele>2653.0</ele>
        <time>2013-07-03T15:37:09Z</time>
      </trkpt>
      <trkpt lat="39.820350" lon="-4.329783">
        <ele>2654.0</ele>
        <time>2013-07-03T15:37:10Z</time>
      </trkpt>
      <trkpt lat="39.820383" lon="-4.329633">
        <ele>2654.0</ele>
        <time>2013-07-03T15:37:11Z</time>
      </trkpt>
      <trkpt lat="39.820433" lon="-4.329500">
        <ele>2655.0</ele>
        <time>2013-07-03T15:37:12Z</time>
      </trkpt>
      <trkpt lat="39.820500" lon="-4.329383">
        <ele>2656.0</ele>
        <time>2013-07-03T15:37:13Z</time>
      </trkpt>
      <trkpt lat="39.820567" lon="-4.329283">
        <ele>2658.0</ele>
        <time>2013-07-03T15:37:14Z</time>
      </trkpt>
      <trkpt lat="39.820633" lon="-4.329200">
        <ele>2661.0</ele>
        <time>2013-07-03T15:37:15Z</time>
      </trkpt>
      <trkpt lat="39.820700" lon="-4.329117">
        <ele>2663.0</ele>
        <time>2013-07-03T15:37:16Z</time>
      </trkpt>
      <trkpt lat="39.820767" lon="-4.329050">
        <ele>2664.0</ele>
        <time>2013-07-03T15:37:17Z</time>
      </trkpt>
      <trkpt lat="39.820817" lon="-4.328983">
        <ele>2665.0</ele>
        <time>2013-07-03T15:37:18Z</time>
      </trkpt>
      <trkpt lat="39.820900" lon="-4.328933">
        <ele>2666.0</ele>
        <time>2013-07-03T15:37:19Z</time>
      </trkpt>
      <trkpt lat="39.820967" lon="-4.328883">
        <ele>2667.0</ele>
        <time>2013-07-03T15:37:20Z</time>
      </trkpt>
      <trkpt lat="39.821050" lon="-4.328833">
        <ele>2668.0</ele>
        <time>2013-07-03T15:37:21Z</time>
      </trkpt>
      <trkpt lat="39.821133" lon="-4.328767">
        <ele>2670.0</ele>
        <time>2013-07-03T15:37:22Z</time>
      </trkpt>
      <trkpt lat="39.821200" lon="-4.328700">
        <ele>2672.0</ele>
        <time>2013-07-03T15:37:23Z</time>
      </trkpt>
      <trkpt lat="39.821267" lon="-4.328633">
        <ele>2674.0</ele>
        <time>2013-07-03T15:37:24Z</time>
      </trkpt>
      <trkpt lat="39.821333" lon="-4.328600">
        <ele>2676.0</ele>
        <time>2013-07-03T15:37:25Z</time>
      </trkpt>
      <trkpt lat="39.821400" lon="-4.328550">
        <ele>2678.0</ele>
        <time>2013-07-03T15:37:26Z</time>
      </trkpt>
      <trkpt lat="39.821483" lon="-4.328500">
        <ele>2679.0</ele>
        <time>2013-07-03T15:37:27Z</time>
      </trkpt>
      <trkpt lat="39.821567" lon="-4.328450">
        <ele>2680.0</ele>
        <time>2013-07-03T15:37:28Z</time>
      </trkpt>
      <trkpt lat="39.821633" lon="-4.328417">
        <ele>2683.0</ele>
        <time>2013-07-03T15:37:29Z</time>
      </trkpt>
      <trkpt lat="39.821717" lon="-4.328417">
        <ele>2684.0</ele>
        <time>2013-07-03T15:37:30Z</time>
      </trkpt>
      <trkpt lat="39.821783" lon="-4.328433">
        <ele>2686.0</ele>
        <time>2013-07-03T15:37:31Z</time>
      </trkpt>
      <trkpt lat="39.821850" lon="-4.328450">
        <ele>2688.0</ele>
        <time>2013-07-03T15:37:32Z</time>
      </trkpt>
      <trkpt lat="39.821933" lon="-4.328467">
        <ele>2689.0</ele>
        <time>2013-07-03T15:37:33Z</time>
      </trkpt>
      <trkpt lat="39.822000" lon="-4.328500">
        <ele>2691.0</ele>
        <time>2013-07-03T15:37:34Z</time>
      </trkpt>
      <trkpt lat="39.822050" lon="-4.328533">
        <ele>2693.0</ele>
        <time>2013-07-03T15:37:35Z</time>
      </trkpt>
      <trkpt lat="39.822100" lon="-4.328583">
        <ele>2695.0</ele>
        <time>2013-07-03T15:37:36Z</time>
      </trkpt>
      <trkpt lat="39.822133" lon="-4.328633">
        <ele>2697.0</ele>
        <time>2013-07-03T15:37:37Z</time>
      </trkpt>
      <trkpt lat="39.822150" lon="-4.328717">
        <ele>2698.0</ele>
        <time>2013-07-03T15:37:38Z</time>
      </trkpt>
      <trkpt lat="39.822150" lon="-4.328783">
        <ele>2700.0</ele>
        <time>2013-07-03T15:37:39Z</time>
      </trkpt>
      <trkpt lat="39.822150" lon="-4.328867">
        <ele>2702.0</ele>
        <time>2013-07-03T15:37:40Z</time>
      </trkpt>
      <trkpt lat="39.822150" lon="-4.328933">
        <ele>2705.0</ele>
        <time>2013-07-03T15:37:41Z</time>
      </trkpt>
      <trkpt lat="39.822117" lon="-4.328967">
        <ele>2707.0</ele>
        <time>2013-07-03T15:37:42Z</time>
      </trkpt>
      <trkpt lat="39.822050" lon="-4.329017">
        <ele>2707.0</ele>
        <time>2013-07-03T15:37:43Z</time>
      </trkpt>
      <trkpt lat="39.821983" lon="-4.329033">
        <ele>2708.0</ele>
        <time>2013-07-03T15:37:44Z</time>
      </trkpt>
      <trkpt lat="39.821883" lon="-4.329050">
        <ele>2709.0</ele>
        <time>2013-07-03T15:37:45Z</time>
      </trkpt>
      <trkpt lat="39.821800" lon="-4.329033">
        <ele>2711.0</ele>
        <time>2013-07-03T15:37:46Z</time>
      </trkpt>
      <trkpt lat="39.821700" lon="-4.329000">
        <ele>2714.0</ele>
        <time>2013-07-03T15:37:47Z</time>
      </trkpt>
      <trkpt lat="39.821633" lon="-4.328967">
        <ele>2717.0</ele>
        <time>2013-07-03T15:37:48Z</time>
      </trkpt>
      <trkpt lat="39.821567" lon="-4.328917">
        <ele>2720.0</ele>
        <time>2013-07-03T15:37:49Z</time>
      </trkpt>
      <trkpt lat="39.821500" lon="-4.328867">
        <ele>2723.0</ele>
        <time>2013-07-03T15:37:50Z</time>
      </trkpt>
      <trkpt lat="39.821417" lon="-4.328800">
        <ele>2726.0</ele>
        <time>2013-07-03T15:37:51Z</time>
      </trkpt>
      <trkpt lat="39.821350" lon="-4.328733">
        <ele>2728.0</ele>
        <time>2013-07-03T15:37:52Z</time>
      </trkpt>
      <trkpt lat="39.821283" lon="-4.328633">
        <ele>2731.0</ele>
        <time>2013-07-03T15:37:53Z</time>
      </trkpt>
      <trkpt lat="39.821233" lon="-4.328517">
        <ele>2733.0</ele>
        <time>2013-07-03T15:37:54Z</time>
      </trkpt>
      <trkpt lat="39.821200" lon="-4.328400">
        <ele>2736.0</ele>
        <time>2013-07-03T15:37:55Z</time>
      </trkpt>
      <trkpt lat="39.821200" lon="-4.328267">
        <ele>2738.0</ele>
        <time>2013-07-03T15:37:56Z</time>
      </trkpt>
      <trkpt lat="39.821200" lon="-4.328150">
        <ele>2740.0</ele>
        <time>2013-07-03T15:37:57Z</time>
      </trkpt>
      <trkpt lat="39.821233" lon="-4.328017">
        <ele>2742.0</ele>
        <time>2013-07-03T15:37:58Z</time>
      </trkpt>
      <trkpt lat="39.821267" lon="-4.327900">
        <ele>2744.0</ele>
        <time>2013-07-03T15:37:59Z</time>
      </trkpt>
      <trkpt lat="39.821317" lon="-4.327783">
        <ele>2747.0</ele>
        <time>2013-07-03T15:38:00Z</time>
      </trkpt>
      <trkpt lat="39.821383" lon="-4.327700">
        <ele>2749.0</ele>
        <time>2013-07-03T15:38:01Z</time>
      </trkpt>
      <trkpt lat="39.821450" lon="-4.327650">
        <ele>2751.0</ele>
        <time>2013-07-03T15:38:02Z</time>
      </trkpt>
      <trkpt lat="39.821533" lon="-4.327600">
        <ele>2753.0</ele>
        <time>2013-07-03T15:38:03Z</time>
      </trkpt>
      <trkpt lat="39.821600" lon="-4.327567">
        <ele>2755.0</ele>
        <time>2013-07-03T15:38:04Z</time>
      </trkpt>
      <trkpt lat="39.821683" lon="-4.327550">
        <ele>2757.0</ele>
        <time>2013-07-03T15:38:05Z</time>
      </trkpt>
      <trkpt lat="39.821750" lon="-4.327567">
        <ele>2759.0</ele>
        <time>2013-07-03T15:38:06Z</time>
      </trkpt>
      <trkpt lat="39.821800" lon="-4.327600">
        <ele>2761.0</ele>
        <time>2013-07-03T15:38:07Z</time>
      </trkpt>
      <trkpt lat="39.821850" lon="-4.327667">
        <ele>2763.0</ele>
        <time>2013-07-03T15:38:08Z</time>
      </trkpt>
      <trkpt lat="39.821883" lon="-4.327733">
        <ele>2765.0</ele>
        <time>2013-07-03T15:38:09Z</time>
      </trkpt>
      <trkpt lat="39.821900" lon="-4.327800">
        <ele>2768.0</ele>
        <time>2013-07-03T15:38:10Z</time>
      </trkpt>
      <trkpt lat="39.821883" lon="-4.327867">
        <ele>2771.0</ele>
        <time>2013-07-03T15:38:11Z</time>
      </trkpt>
      <trkpt lat="39.821867" lon="-4.327917">
        <ele>2773.0</ele>
        <time>2013-07-03T15:38:12Z</time>
      </trkpt>
      <trkpt lat="39.821833" lon="-4.327967">
        <ele>2775.0</ele>
        <time>2013-07-03T15:38:13Z</time>
      </trkpt>
      <trkpt lat="39.821800" lon="-4.328017">
        <ele>2777.0</ele>
        <time>2013-07-03T15:38:14Z</time>
      </trkpt>
      <trkpt lat="39.821750" lon="-4.328067">
        <ele>2778.0</ele>
        <time>2013-07-03T15:38:15Z</time>
      </trkpt>
      <trkpt lat="39.821700" lon="-4.328117">
        <ele>2779.0</ele>
        <time>2013-07-03T15:38:16Z</time>
      </trkpt>
      <trkpt lat="39.821617" lon="-4.328150">
        <ele>2781.0</ele>
        <time>2013-07-03T15:38:17Z</time>
      </trkpt>
      <trkpt lat="39.821533" lon="-4.328183">
        <ele>2784.0</ele>
        <time>2013-07-03T15:38:18Z</time>
      </trkpt>
      <trkpt lat="39.821433" lon="-4.328167">
        <ele>2787.0</ele>
        <time>2013-07-03T15:38:19Z</time>
      </trkpt>
      <trkpt lat="39.821367" lon="-4.328133">
        <ele>2790.0</ele>
        <time>2013-07-03T15:38:20Z</time>
      </trkpt>
      <trkpt lat="39.821300" lon="-4.328067">
        <ele>2793.0</ele>
        <time>2013-07-03T15:38:21Z</time>
      </trkpt>
      <trkpt lat="39.821233" lon="-4.328017">
        <ele>2795.0</ele>
        <time>2013-07-03T15:38:22Z</time>
      </trkpt>
      <trkpt lat="39.821150" lon="-4.327933">
        <ele>2797.0</ele>
        <time>2013-07-03T15:38:23Z</time>
      </trkpt>
      <trkpt lat="39.821083" lon="-4.327850">
        <ele>2800.0</ele>
        <time>2013-07-03T15:38:24Z</time>
      </trkpt>
      <trkpt lat="39.821033" lon="-4.327733">
        <ele>2802.0</ele>
        <time>2013-07-03T15:38:25Z</time>
      </trkpt>
      <trkpt lat="39.821017" lon="-4.327617">
        <ele>2805.0</ele>
        <time>2013-07-03T15:38:26Z</time>
      </trkpt>
      <trkpt lat="39.821017" lon="-4.327483">
        <ele>2807.0</ele>
        <time>2013-07-03T15:38:27Z</time>
      </trkpt>
      <trkpt lat="39.821050" lon="-4.327367">
        <ele>2809.0</ele>
        <time>2013-07-03T15:38:28Z</time>
      </trkpt>
      <trkpt lat="39.821067" lon="-4.327250">
        <ele>2811.0</ele>
        <time>2013-07-03T15:38:29Z</time>
      </trkpt>
      <trkpt lat="39.821100" lon="-4.327150">
        <ele>2813.0</ele>
        <time>2013-07-03T15:38:30Z</time>
      </trkpt>
      <trkpt lat="39.821133" lon="-4.327050">
        <ele>2815.0</ele>
        <time>2013-07-03T15:38:31Z</time>
      </trkpt>
      <trkpt lat="39.821183" lon="-4.326967">
        <ele>2816.0</ele>
        <time>2013-07-03T15:38:32Z</time>
      </trkpt>
      <trkpt lat="39.821250" lon="-4.326917">
        <ele>2817.0</ele>
        <time>2013-07-03T15:38:33Z</time>
      </trkpt>
      <trkpt lat="39.821333" lon="-4.326867">
        <ele>2818.0</ele>
        <time>2013-07-03T15:38:34Z</time>
      </trkpt>
      <trkpt lat="39.821417" lon="-4.326850">
        <ele>2820.0</ele>
        <time>2013-07-03T15:38:35Z</time>
      </trkpt>
      <trkpt lat="39.821483" lon="-4.326850">
        <ele>2822.0</ele>
        <time>2013-07-03T15:38:36Z</time>
      </trkpt>
      <trkpt lat="39.821567" lon="-4.326867">
        <ele>2824.0</ele>
        <time>2013-07-03T15:38:37Z</time>
      </trkpt>
      <trkpt lat="39.821617" lon="-4.326900">
        <ele>2827.0</ele>
        <time>2013-07-03T15:38:38Z</time>
      </trkpt>
      <trkpt lat="39.821650" lon="-4.326950">
        <ele>2830.0</ele>
        <time>2013-07-03T15:38:39Z</time>
      </trkpt>
      <trkpt lat="39.821683" lon="-4.327017">
        <ele>2833.0</ele>
        <time>2013-07-03T15:38:40Z</time>
      </trkpt>
      <trkpt lat="39.821700" lon="-4.327067">
        <ele>2836.0</ele>
        <time>2013-07-03T15:38:41Z</time>
      </trkpt>
      <trkpt lat="39.821717" lon="-4.327117">
        <ele>2838.0</ele>
        <time>2013-07-03T15:38:42Z</time>
      </trkpt>
      <trkpt lat="39.821700" lon="-4.327183">
        <ele>2838.0</ele>
        <time>2013-07-03T15:38:43Z</time>
      </trkpt>
      <trkpt lat="39.821683" lon="-4.327233">
        <ele>2839.0</ele>
        <time>2013-07-03T15:38:44Z</time>
      </trkpt>
      <trkpt lat="39.821633" lon="-4.327300">
        <ele>2839.0</ele>
        <time>2013-07-03T15:38:45Z</time>
      </trkpt>
      <trkpt lat="39.821567" lon="-4.327367">
        <ele>2840.0</ele>
        <time>2013-07-03T15:38:46Z</time>
      </trkpt>
      <trkpt lat="39.821483" lon="-4.327383">
        <ele>2841.0</ele>
        <time>2013-07-03T15:38:47Z</time>
      </trkpt>
      <trkpt lat="39.821400" lon="-4.327367">
        <ele>2842.0</ele>
        <time>2013-07-03T15:38:48Z</time>
      </trkpt>
      <trkpt lat="39.821317" lon="-4.327333">
        <ele>2844.0</ele>
        <time>2013-07-03T15:38:49Z</time>
      </trkpt>
      <trkpt lat="39.821233" lon="-4.327267">
        <ele>2846.0</ele>
        <time>2013-07-03T15:38:50Z</time>
      </trkpt>
      <trkpt lat="39.821150" lon="-4.327183">
        <ele>2849.0</ele>
        <time>2013-07-03T15:38:51Z</time>
      </trkpt>
      <trkpt lat="39.821083" lon="-4.327083">
        <ele>2852.0</ele>
        <time>2013-07-03T15:38:52Z</time>
      </trkpt>
      <trkpt lat="39.821033" lon="-4.326967">
        <ele>2854.0</ele>
        <time>2013-07-03T15:38:53Z</time>
      </trkpt>
      <trkpt lat="39.821000" lon="-4.326850">
        <ele>2857.0</ele>
        <time>2013-07-03T15:38:54Z</time>
      </trkpt>
      <trkpt lat="39.820983" lon="-4.326717">
        <ele>2858.0</ele>
        <time>2013-07-03T15:38:55Z</time>
      </trkpt>
      <trkpt lat="39.820967" lon="-4.326600">
        <ele>2860.0</ele>
        <time>2013-07-03T15:38:56Z</time>
      </trkpt>
      <trkpt lat="39.820983" lon="-4.326467">
        <ele>2861.0</ele>
        <time>2013-07-03T15:38:57Z</time>
      </trkpt>
      <trkpt lat="39.821017" lon="-4.326350">
        <ele>2862.0</ele>
        <time>2013-07-03T15:38:58Z</time>
      </trkpt>
      <trkpt lat="39.821067" lon="-4.326250">
        <ele>2863.0</ele>
        <time>2013-07-03T15:38:59Z</time>
      </trkpt>
      <trkpt lat="39.821117" lon="-4.326167">
        <ele>2865.0</ele>
        <time>2013-07-03T15:39:00Z</time>
      </trkpt>
      <trkpt lat="39.821183" lon="-4.326100">
        <ele>2867.0</ele>
        <time>2013-07-03T15:39:01Z</time>
      </trkpt>
      <trkpt lat="39.821250" lon="-4.326067">
        <ele>2867.0</ele>
        <time>2013-07-03T15:39:02Z</time>
      </trkpt>
      <trkpt lat="39.821317" lon="-4.326033">
        <ele>2868.0</ele>
        <time>2013-07-03T15:39:03Z</time>
      </trkpt>
      <trkpt lat="39.821400" lon="-4.326017">
        <ele>2869.0</ele>
        <time>2013-07-03T15:39:04Z</time>
      </trkpt>
      <trkpt lat="39.821500" lon="-4.326017">
        <ele>2870.0</ele>
        <time>2013-07-03T15:39:05Z</time>
      </trkpt>
      <trkpt lat="39.821583" lon="-4.326033">
        <ele>2873.0</ele>
        <time>2013-07-03T15:39:06Z</time>
      </trkpt>
      <trkpt lat="39.821633" lon="-4.326050">
        <ele>2876.0</ele>
        <time>2013-07-03T15:39:07Z</time>
      </trkpt>
      <trkpt lat="39.821683" lon="-4.326083">
        <ele>2879.0</ele>
        <time>2013-07-03T15:39:08Z</time>
      </trkpt>
      <trkpt lat="39.821700" lon="-4.326133">
        <ele>2881.0</ele>
        <time>2013-07-03T15:39:09Z</time>
      </trkpt>
      <trkpt lat="39.821700" lon="-4.326200">
        <ele>2882.0</ele>
        <time>2013-07-03T15:39:10Z</time>
      </trkpt>
      <trkpt lat="39.821700" lon="-4.326267">
        <ele>2883.0</ele>
        <time>2013-07-03T15:39:11Z</time>
      </trkpt>
      <trkpt lat="39.821683" lon="-4.326333">
        <ele>2884.0</ele>
        <time>2013-07-03T15:39:12Z</time>
      </trkpt>
      <trkpt lat="39.821650" lon="-4.326400">
        <ele>2884.0</ele>
        <time>2013-07-03T15:39:13Z</time>
      </trkpt>
      <trkpt lat="39.821583" lon="-4.326433">
        <ele>2884.0</ele>
        <time>2013-07-03T15:39:14Z</time>
      </trkpt>
      <trkpt lat="39.821500" lon="-4.326467">
        <ele>2884.0</ele>
        <time>2013-07-03T15:39:15Z</time>
      </trkpt>
      <trkpt lat="39.821417" lon="-4.326483">
        <ele>2884.0</ele>
        <time>2013-07-03T15:39:16Z</time>
      </trkpt>
      <trkpt lat="39.821333" lon="-4.326483">
        <ele>2885.0</ele>
        <time>2013-07-03T15:39:17Z</time>
      </trkpt>
      <trkpt lat="39.821233" lon="-4.326483">
        <ele>2887.0</ele>
        <time>2013-07-03T15:39:18Z</time>
      </trkpt>
      <trkpt lat="39.821150" lon="-4.326450">
        <ele>2888.0</ele>
        <time>2013-07-03T15:39:19Z</time>
      </trkpt>
      <trkpt lat="39.821067" lon="-4.326383">
        <ele>2890.0</ele>
        <time>2013-07-03T15:39:20Z</time>
      </trkpt>
      <trkpt lat="39.820983" lon="-4.326317">
        <ele>2891.0</ele>
        <time>2013-07-03T15:39:21Z</time>
      </trkpt>
      <trkpt lat="39.820917" lon="-4.326217">
        <ele>2893.0</ele>
        <time>2013-07-03T15:39:22Z</time>
      </trkpt>
      <trkpt lat="39.820867" lon="-4.326100">
        <ele>2895.0</ele>
        <time>2013-07-03T15:39:23Z</time>
      </trkpt>
      <trkpt lat="39.820833" lon="-4.325983">
        <ele>2896.0</ele>
        <time>2013-07-03T15:39:24Z</time>
      </trkpt>
      <trkpt lat="39.820800" lon="-4.325867">
        <ele>2897.0</ele>
        <time>2013-07-03T15:39:25Z</time>
      </trkpt>
      <trkpt lat="39.820800" lon="-4.325733">
        <ele>2898.0</ele>
        <time>2013-07-03T15:39:26Z</time>
      </trkpt>
      <trkpt lat="39.820800" lon="-4.325600">
        <ele>2898.0</ele>
        <time>2013-07-03T15:39:27Z</time>
      </trkpt>
      <trkpt lat="39.820833" lon="-4.325467">
        <ele>2899.0</ele>
        <time>2013-07-03T15:39:28Z</time>
      </trkpt>
      <trkpt lat="39.820867" lon="-4.325350">
        <ele>2900.0</ele>
        <time>2013-07-03T15:39:29Z</time>
      </trkpt>
      <trkpt lat="39.820917" lon="-4.325250">
        <ele>2901.0</ele>
        <time>2013-07-03T15:39:30Z</time>
      </trkpt>
      <trkpt lat="39.820950" lon="-4.325167">
        <ele>2903.0</ele>
        <time>2013-07-03T15:39:31Z</time>
      </trkpt>
      <trkpt lat="39.821000" lon="-4.325100">
        <ele>2905.0</ele>
        <time>2013-07-03T15:39:32Z</time>
      </trkpt>
      <trkpt lat="39.821050" lon="-4.325050">
        <ele>2904.0</ele>
        <time>2013-07-03T15:39:33Z</time>
      </trkpt>
      <trkpt lat="39.821100" lon="-4.325000">
        <ele>2904.0</ele>
        <time>2013-07-03T15:39:34Z</time>
      </trkpt>
      <trkpt lat="39.821183" lon="-4.324967">
        <ele>2904.0</ele>
        <time>2013-07-03T15:39:35Z</time>
      </trkpt>
      <trkpt lat="39.821283" lon="-4.324967">
        <ele>2903.0</ele>
        <time>2013-07-03T15:39:36Z</time>
      </trkpt>
      <trkpt lat="39.821367" lon="-4.325000">
        <ele>2905.0</ele>
        <time>2013-07-03T15:39:37Z</time>
      </trkpt>
      <trkpt lat="39.821417" lon="-4.325067">
        <ele>2907.0</ele>
        <time>2013-07-03T15:39:38Z</time>
      </trkpt>
      <trkpt lat="39.821467" lon="-4.325117">
        <ele>2911.0</ele>
        <time>2013-07-03T15:39:39Z</time>
      </trkpt>
      <trkpt lat="39.821483" lon="-4.325150">
        <ele>2914.0</ele>
        <time>2013-07-03T15:39:40Z</time>
      </trkpt>
      <trkpt lat="39.821500" lon="-4.325183">
        <ele>2916.0</ele>
        <time>2013-07-03T15:39:41Z</time>
      </trkpt>
      <trkpt lat="39.821517" lon="-4.325233">
        <ele>2916.0</ele>
        <time>2013-07-03T15:39:42Z</time>
      </trkpt>
      <trkpt lat="39.821517" lon="-4.325300">
        <ele>2916.0</ele>
        <time>2013-07-03T15:39:43Z</time>
      </trkpt>
      <trkpt lat="39.821517" lon="-4.325383">
        <ele>2917.0</ele>
        <time>2013-07-03T15:39:44Z</time>
      </trkpt>
      <trkpt lat="39.821483" lon="-4.325467">
        <ele>2919.0</ele>
        <time>2013-07-03T15:39:45Z</time>
      </trkpt>
      <trkpt lat="39.821450" lon="-4.325533">
        <ele>2921.0</ele>
        <time>2013-07-03T15:39:46Z</time>
      </trkpt>
      <trkpt lat="39.821400" lon="-4.325583">
        <ele>2922.0</ele>
        <time>2013-07-03T15:39:47Z</time>
      </trkpt>
      <trkpt lat="39.821333" lon="-4.325633">
        <ele>2922.0</ele>
        <time>2013-07-03T15:39:48Z</time>
      </trkpt>
      <trkpt lat="39.821250" lon="-4.325667">
        <ele>2922.0</ele>
        <time>2013-07-03T15:39:49Z</time>
      </trkpt>
      <trkpt lat="39.821167" lon="-4.325667">
        <ele>2922.0</ele>
        <time>2013-07-03T15:39:50Z</time>
      </trkpt>
      <trkpt lat="39.821067" lon="-4.325633">
        <ele>2922.0</ele>
        <time>2013-07-03T15:39:51Z</time>
      </trkpt>
      <trkpt lat="39.820983" lon="-4.325583">
        <ele>2923.0</ele>
        <time>2013-07-03T15:39:52Z</time>
      </trkpt>
      <trkpt lat="39.820917" lon="-4.325517">
        <ele>2924.0</ele>
        <time>2013-07-03T15:39:53Z</time>
      </trkpt>
      <trkpt lat="39.820850" lon="-4.325450">
        <ele>2924.0</ele>
        <time>2013-07-03T15:39:54Z</time>
      </trkpt>
      <trkpt lat="39.820783" lon="-4.325367">
        <ele>2924.0</ele>
        <time>2013-07-03T15:39:55Z</time>
      </trkpt>
      <trkpt lat="39.820733" lon="-4.325267">
        <ele>2925.0</ele>
        <time>2013-07-03T15:39:56Z</time>
      </trkpt>
      <trkpt lat="39.820667" lon="-4.325150">
        <ele>2925.0</ele>
        <time>2013-07-03T15:39:57Z</time>
      </trkpt>
      <trkpt lat="39.820633" lon="-4.325017">
        <ele>2925.0</ele>
        <time>2013-07-03T15:39:58Z</time>
      </trkpt>
      <trkpt lat="39.820617" lon="-4.324883">
        <ele>2926.0</ele>
        <time>2013-07-03T15:39:59Z</time>
      </trkpt>
      <trkpt lat="39.820617" lon="-4.324767">
        <ele>2927.0</ele>
        <time>2013-07-03T15:40:00Z</time>
      </trkpt>
      <trkpt lat="39.820617" lon="-4.324667">
        <ele>2927.0</ele>
        <time>2013-07-03T15:40:01Z</time>
      </trkpt>
      <trkpt lat="39.820633" lon="-4.324550">
        <ele>2926.0</ele>
        <time>2013-07-03T15:40:02Z</time>
      </trkpt>
      <trkpt lat="39.820667" lon="-4.324433">
        <ele>2926.0</ele>
        <time>2013-07-03T15:40:03Z</time>
      </trkpt>
      <trkpt lat="39.820717" lon="-4.324333">
        <ele>2926.0</ele>
        <time>2013-07-03T15:40:04Z</time>
      </trkpt>
      <trkpt lat="39.820783" lon="-4.324250">
        <ele>2926.0</ele>
        <time>2013-07-03T15:40:05Z</time>
      </trkpt>
      <trkpt lat="39.820833" lon="-4.324167">
        <ele>2927.0</ele>
        <time>2013-07-03T15:40:06Z</time>
      </trkpt>
      <trkpt lat="39.820900" lon="-4.324100">
        <ele>2928.0</ele>
        <time>2013-07-03T15:40:07Z</time>
      </trkpt>
      <trkpt lat="39.820967" lon="-4.324050">
        <ele>2928.0</ele>
        <time>2013-07-03T15:40:08Z</time>
      </trkpt>
      <trkpt lat="39.821033" lon="-4.324017">
        <ele>2928.0</ele>
        <time>2013-07-03T15:40:09Z</time>
      </trkpt>
      <trkpt lat="39.821100" lon="-4.324000">
        <ele>2927.0</ele>
        <time>2013-07-03T15:40:10Z</time>
      </trkpt>
      <trkpt lat="39.821183" lon="-4.323967">
        <ele>2927.0</ele>
        <time>2013-07-03T15:40:11Z</time>
      </trkpt>
      <trkpt lat="39.821250" lon="-4.323950">
        <ele>2927.0</ele>
        <time>2013-07-03T15:40:12Z</time>
      </trkpt>
      <trkpt lat="39.821333" lon="-4.323917">
        <ele>2927.0</ele>
        <time>2013-07-03T15:40:13Z</time>
      </trkpt>
      <trkpt lat="39.821417" lon="-4.323900">
        <ele>2929.0</ele>
        <time>2013-07-03T15:40:14Z</time>
      </trkpt>
      <trkpt lat="39.821483" lon="-4.323900">
        <ele>2931.0</ele>
        <time>2013-07-03T15:40:15Z</time>
      </trkpt>
      <trkpt lat="39.821533" lon="-4.323900">
        <ele>2932.0</ele>
        <time>2013-07-03T15:40:16Z</time>
      </trkpt>
      <trkpt lat="39.821583" lon="-4.323917">
        <ele>2934.0</ele>
        <time>2013-07-03T15:40:17Z</time>
      </trkpt>
      <trkpt lat="39.821633" lon="-4.323950">
        <ele>2934.0</ele>
        <time>2013-07-03T15:40:18Z</time>
      </trkpt>
      <trkpt lat="39.821683" lon="-4.323983">
        <ele>2934.0</ele>
        <time>2013-07-03T15:40:19Z</time>
      </trkpt>
      <trkpt lat="39.821733" lon="-4.324000">
        <ele>2935.0</ele>
        <time>2013-07-03T15:40:20Z</time>
      </trkpt>
      <trkpt lat="39.821783" lon="-4.324050">
        <ele>2935.0</ele>
        <time>2013-07-03T15:40:21Z</time>
      </trkpt>
      <trkpt lat="39.821800" lon="-4.324100">
        <ele>2935.0</ele>
        <time>2013-07-03T15:40:22Z</time>
      </trkpt>
      <trkpt lat="39.821800" lon="-4.324183">
        <ele>2934.0</ele>
        <time>2013-07-03T15:40:23Z</time>
      </trkpt>
      <trkpt lat="39.821783" lon="-4.324267">
        <ele>2933.0</ele>
        <time>2013-07-03T15:40:24Z</time>
      </trkpt>
      <trkpt lat="39.821750" lon="-4.324333">
        <ele>2933.0</ele>
        <time>2013-07-03T15:40:25Z</time>
      </trkpt>
      <trkpt lat="39.821700" lon="-4.324400">
        <ele>2933.0</ele>
        <time>2013-07-03T15:40:26Z</time>
      </trkpt>
      <trkpt lat="39.821650" lon="-4.324450">
        <ele>2934.0</ele>
        <time>2013-07-03T15:40:27Z</time>
      </trkpt>
      <trkpt lat="39.821583" lon="-4.324500">
        <ele>2934.0</ele>
        <time>2013-07-03T15:40:28Z</time>
      </trkpt>
      <trkpt lat="39.821517" lon="-4.324533">
        <ele>2933.0</ele>
        <time>2013-07-03T15:40:29Z</time>
      </trkpt>
      <trkpt lat="39.821450" lon="-4.324583">
        <ele>2932.0</ele>
        <time>2013-07-03T15:40:30Z</time>
      </trkpt>
      <trkpt lat="39.821350" lon="-4.324600">
        <ele>2931.0</ele>
        <time>2013-07-03T15:40:31Z</time>
      </trkpt>
      <trkpt lat="39.821267" lon="-4.324617">
        <ele>2930.0</ele>
        <time>2013-07-03T15:40:32Z</time>
      </trkpt>
      <trkpt lat="39.821167" lon="-4.324583">
        <ele>2928.0</ele>
        <time>2013-07-03T15:40:33Z</time>
      </trkpt>
      <trkpt lat="39.821067" lon="-4.324533">
        <ele>2926.0</ele>
        <time>2013-07-03T15:40:34Z</time>
      </trkpt>
      <trkpt lat="39.820950" lon="-4.324467">
        <ele>2925.0</ele>
        <time>2013-07-03T15:40:35Z</time>
      </trkpt>
      <trkpt lat="39.820850" lon="-4.324400">
        <ele>2924.0</ele>
        <time>2013-07-03T15:40:36Z</time>
      </trkpt>
      <trkpt lat="39.820733" lon="-4.324317">
        <ele>2923.0</ele>
        <time>2013-07-03T15:40:37Z</time>
      </trkpt>
      <trkpt lat="39.820633" lon="-4.324250">
        <ele>2921.0</ele>
        <time>2013-07-03T15:40:38Z</time>
      </trkpt>
      <trkpt lat="39.820517" lon="-4.324167">
        <ele>2922.0</ele>
        <time>2013-07-03T15:40:39Z</time>
      </trkpt>
      <trkpt lat="39.820417" lon="-4.324100">
        <ele>2922.0</ele>
        <time>2013-07-03T15:40:40Z</time>
      </trkpt>
      <trkpt lat="39.820300" lon="-4.324017">
        <ele>2923.0</ele>
        <time>2013-07-03T15:40:41Z</time>
      </trkpt>
      <trkpt lat="39.820200" lon="-4.323933">
        <ele>2923.0</ele>
        <time>2013-07-03T15:40:42Z</time>
      </trkpt>
      <trkpt lat="39.820100" lon="-4.323867">
        <ele>2924.0</ele>
        <time>2013-07-03T15:40:43Z</time>
      </trkpt>
      <trkpt lat="39.820000" lon="-4.323800">
        <ele>2925.0</ele>
        <time>2013-07-03T15:40:44Z</time>
      </trkpt>
      <trkpt lat="39.819900" lon="-4.323733">
        <ele>2927.0</ele>
        <time>2013-07-03T15:40:45Z</time>
      </trkpt>
      <trkpt lat="39.819800" lon="-4.323650">
        <ele>2927.0</ele>
        <time>2013-07-03T15:40:46Z</time>
      </trkpt>
      <trkpt lat="39.819683" lon="-4.323583">
        <ele>2927.0</ele>
        <time>2013-07-03T15:40:47Z</time>
      </trkpt>
      <trkpt lat="39.819583" lon="-4.323500">
        <ele>2926.0</ele>
        <time>2013-07-03T15:40:48Z</time>
      </trkpt>
      <trkpt lat="39.819467" lon="-4.323400">
        <ele>2926.0</ele>
        <time>2013-07-03T15:40:49Z</time>
      </trkpt>
      <trkpt lat="39.819367" lon="-4.323317">
        <ele>2926.0</ele>
        <time>2013-07-03T15:40:50Z</time>
      </trkpt>
      <trkpt lat="39.819267" lon="-4.323250">
        <ele>2926.0</ele>
        <time>2013-07-03T15:40:51Z</time>
      </trkpt>
      <trkpt lat="39.819167" lon="-4.323217">
        <ele>2926.0</ele>
        <time>2013-07-03T15:40:52Z</time>
      </trkpt>
      <trkpt lat="39.819067" lon="-4.323183">
        <ele>2926.0</ele>
        <time>2013-07-03T15:40:53Z</time>
      </trkpt>
      <trkpt lat="39.818967" lon="-4.323150">
        <ele>2925.0</ele>
        <time>2013-07-03T15:40:54Z</time>
      </trkpt>
      <trkpt lat="39.818867" lon="-4.323100">
        <ele>2923.0</ele>
        <time>2013-07-03T15:40:55Z</time>
      </trkpt>
      <trkpt lat="39.818750" lon="-4.323050">
        <ele>2922.0</ele>
        <time>2013-07-03T15:40:56Z</time>
      </trkpt>
      <trkpt lat="39.818650" lon="-4.322983">
        <ele>2921.0</ele>
        <time>2013-07-03T15:40:57Z</time>
      </trkpt>
      <trkpt lat="39.818533" lon="-4.322933">
        <ele>2920.0</ele>
        <time>2013-07-03T15:40:58Z</time>
      </trkpt>
      <trkpt lat="39.818417" lon="-4.322883">
        <ele>2919.0</ele>
        <time>2013-07-03T15:40:59Z</time>
      </trkpt>
      <trkpt lat="39.818300" lon="-4.322850">
        <ele>2919.0</ele>
        <time>2013-07-03T15:41:00Z</time>
      </trkpt>
      <trkpt lat="39.818200" lon="-4.322800">
        <ele>2919.0</ele>
        <time>2013-07-03T15:41:01Z</time>
      </trkpt>
      <trkpt lat="39.818100" lon="-4.322750">
        <ele>2919.0</ele>
        <time>2013-07-03T15:41:02Z</time>
      </trkpt>
      <trkpt lat="39.818000" lon="-4.322700">
        <ele>2919.0</ele>
        <time>2013-07-03T15:41:03Z</time>
      </trkpt>
      <trkpt lat="39.817900" lon="-4.322650">
        <ele>2917.0</ele>
        <time>2013-07-03T15:41:04Z</time>
      </trkpt>
      <trkpt lat="39.817783" lon="-4.322600">
        <ele>2916.0</ele>
        <time>2013-07-03T15:41:05Z</time>
      </trkpt>
      <trkpt lat="39.817683" lon="-4.322550">
        <ele>2916.0</ele>
        <time>2013-07-03T15:41:06Z</time>
      </trkpt>
      <trkpt lat="39.817567" lon="-4.322500">
        <ele>2915.0</ele>
        <time>2013-07-03T15:41:07Z</time>
      </trkpt>
      <trkpt lat="39.817467" lon="-4.322467">
        <ele>2915.0</ele>
        <time>2013-07-03T15:41:08Z</time>
      </trkpt>
      <trkpt lat="39.817367" lon="-4.322433">
        <ele>2915.0</ele>
        <time>2013-07-03T15:41:09Z</time>
      </trkpt>
      <trkpt lat="39.817267" lon="-4.322400">
        <ele>2914.0</ele>
        <time>2013-07-03T15:41:10Z</time>
      </trkpt>
      <trkpt lat="39.817150" lon="-4.322367">
        <ele>2914.0</ele>
        <time>2013-07-03T15:41:11Z</time>
      </trkpt>
      <trkpt lat="39.817033" lon="-4.322350">
        <ele>2915.0</ele>
        <time>2013-07-03T15:41:12Z</time>
      </trkpt>
      <trkpt lat="39.816917" lon="-4.322317">
        <ele>2918.0</ele>
        <time>2013-07-03T15:41:13Z</time>
      </trkpt>
      <trkpt lat="39.816817" lon="-4.322267">
        <ele>2921.0</ele>
        <time>2013-07-03T15:41:14Z</time>
      </trkpt>
      <trkpt lat="39.816733" lon="-4.322217">
        <ele>2924.0</ele>
        <time>2013-07-03T15:41:15Z</time>
      </trkpt>
      <trkpt lat="39.816650" lon="-4.322167">
        <ele>2927.0</ele>
        <time>2013-07-03T15:41:16Z</time>
      </trkpt>
      <trkpt lat="39.816583" lon="-4.322133">
        <ele>2930.0</ele>
        <time>2013-07-03T15:41:17Z</time>
      </trkpt>
      <trkpt lat="39.816517" lon="-4.322117">
        <ele>2931.0</ele>
        <time>2013-07-03T15:41:18Z</time>
      </trkpt>
      <trkpt lat="39.816450" lon="-4.322117">
        <ele>2932.0</ele>
        <time>2013-07-03T15:41:19Z</time>
      </trkpt>
      <trkpt lat="39.816367" lon="-4.322117">
        <ele>2933.0</ele>
        <time>2013-07-03T15:41:20Z</time>
      </trkpt>
      <trkpt lat="39.816267" lon="-4.322100">
        <ele>2935.0</ele>
        <time>2013-07-03T15:41:21Z</time>
      </trkpt>
      <trkpt lat="39.816183" lon="-4.322100">
        <ele>2938.0</ele>
        <time>2013-07-03T15:41:22Z</time>
      </trkpt>
      <trkpt lat="39.816117" lon="-4.322133">
        <ele>2940.0</ele>
        <time>2013-07-03T15:41:23Z</time>
      </trkpt>
      <trkpt lat="39.816067" lon="-4.322200">
        <ele>2940.0</ele>
        <time>2013-07-03T15:41:24Z</time>
      </trkpt>
      <trkpt lat="39.816050" lon="-4.322300">
        <ele>2941.0</ele>
        <time>2013-07-03T15:41:25Z</time>
      </trkpt>
      <trkpt lat="39.816050" lon="-4.322383">
        <ele>2941.0</ele>
        <time>2013-07-03T15:41:26Z</time>
      </trkpt>
      <trkpt lat="39.816067" lon="-4.322467">
        <ele>2943.0</ele>
        <time>2013-07-03T15:41:27Z</time>
      </trkpt>
      <trkpt lat="39.816133" lon="-4.322500">
        <ele>2943.0</ele>
        <time>2013-07-03T15:41:28Z</time>
      </trkpt>
      <trkpt lat="39.816200" lon="-4.322500">
        <ele>2943.0</ele>
        <time>2013-07-03T15:41:29Z</time>
      </trkpt>
      <trkpt lat="39.816267" lon="-4.322467">
        <ele>2943.0</ele>
        <time>2013-07-03T15:41:30Z</time>
      </trkpt>
      <trkpt lat="39.816333" lon="-4.322417">
        <ele>2942.0</ele>
        <time>2013-07-03T15:41:31Z</time>
      </trkpt>
      <trkpt lat="39.816383" lon="-4.322317">
        <ele>2942.0</ele>
        <time>2013-07-03T15:41:32Z</time>
      </trkpt>
      <trkpt lat="39.816400" lon="-4.322183">
        <ele>2942.0</ele>
        <time>2013-07-03T15:41:33Z</time>
      </trkpt>
      <trkpt lat="39.816350" lon="-4.322033">
        <ele>2939.0</ele>
        <time>2013-07-03T15:41:34Z</time>
      </trkpt>
      <trkpt lat="39.816267" lon="-4.321917">
        <ele>2938.0</ele>
        <time>2013-07-03T15:41:35Z</time>
      </trkpt>
      <trkpt lat="39.816167" lon="-4.321800">
        <ele>2939.0</ele>
        <time>2013-07-03T15:41:36Z</time>
      </trkpt>
      <trkpt lat="39.816067" lon="-4.321717">
        <ele>2942.0</ele>
        <time>2013-07-03T15:41:37Z</time>
      </trkpt>
      <trkpt lat="39.815983" lon="-4.321617">
        <ele>2945.0</ele>
        <time>2013-07-03T15:41:38Z</time>
      </trkpt>
      <trkpt lat="39.815900" lon="-4.321550">
        <ele>2947.0</ele>
        <time>2013-07-03T15:41:39Z</time>
      </trkpt>
      <trkpt lat="39.815833" lon="-4.321500">
        <ele>2948.0</ele>
        <time>2013-07-03T15:41:40Z</time>
      </trkpt>
      <trkpt lat="39.815750" lon="-4.321467">
        <ele>2949.0</ele>
        <time>2013-07-03T15:41:41Z</time>
      </trkpt>
      <trkpt lat="39.815667" lon="-4.321467">
        <ele>2949.0</ele>
        <time>2013-07-03T15:41:42Z</time>
      </trkpt>
      <trkpt lat="39.815583" lon="-4.321483">
        <ele>2950.0</ele>
        <time>2013-07-03T15:41:43Z</time>
      </trkpt>
      <trkpt lat="39.815483" lon="-4.321517">
        <ele>2951.0</ele>
        <time>2013-07-03T15:41:44Z</time>
      </trkpt>
      <trkpt lat="39.815417" lon="-4.321550">
        <ele>2952.0</ele>
        <time>2013-07-03T15:41:45Z</time>
      </trkpt>
      <trkpt lat="39.815367" lon="-4.321617">
        <ele>2953.0</ele>
        <time>2013-07-03T15:41:46Z</time>
      </trkpt>
      <trkpt lat="39.815333" lon="-4.321683">
        <ele>2953.0</ele>
        <time>2013-07-03T15:41:47Z</time>
      </trkpt>
      <trkpt lat="39.815317" lon="-4.321767">
        <ele>2952.0</ele>
        <time>2013-07-03T15:41:48Z</time>
      </trkpt>
      <trkpt lat="39.815333" lon="-4.321850">
        <ele>2952.0</ele>
        <time>2013-07-03T15:41:49Z</time>
      </trkpt>
      <trkpt lat="39.815383" lon="-4.321900">
        <ele>2952.0</ele>
        <time>2013-07-03T15:41:50Z</time>
      </trkpt>
      <trkpt lat="39.815433" lon="-4.321917">
        <ele>2953.0</ele>
        <time>2013-07-03T15:41:51Z</time>
      </trkpt>
      <trkpt lat="39.815483" lon="-4.321883">
        <ele>2953.0</ele>
        <time>2013-07-03T15:41:52Z</time>
      </trkpt>
      <trkpt lat="39.815533" lon="-4.321817">
        <ele>2953.0</ele>
        <time>2013-07-03T15:41:53Z</time>
      </trkpt>
      <trkpt lat="39.815567" lon="-4.321700">
        <ele>2953.0</ele>
        <time>2013-07-03T15:41:54Z</time>
      </trkpt>
      <trkpt lat="39.815583" lon="-4.321567">
        <ele>2952.0</ele>
        <time>2013-07-03T15:41:55Z</time>
      </trkpt>
      <trkpt lat="39.815567" lon="-4.321433">
        <ele>2953.0</ele>
        <time>2013-07-03T15:41:56Z</time>
      </trkpt>
      <trkpt lat="39.815550" lon="-4.321300">
        <ele>2954.0</ele>
        <time>2013-07-03T15:41:57Z</time>
      </trkpt>
      <trkpt lat="39.815533" lon="-4.321200">
        <ele>2954.0</ele>
        <time>2013-07-03T15:41:58Z</time>
      </trkpt>
      <trkpt lat="39.815517" lon="-4.321083">
        <ele>2955.0</ele>
        <time>2013-07-03T15:41:59Z</time>
      </trkpt>
      <trkpt lat="39.815483" lon="-4.320967">
        <ele>2955.0</ele>
        <time>2013-07-03T15:42:00Z</time>
      </trkpt>
      <trkpt lat="39.815450" lon="-4.320850">
        <ele>2955.0</ele>
        <time>2013-07-03T15:42:01Z</time>
      </trkpt>
      <trkpt lat="39.815400" lon="-4.320733">
        <ele>2954.0</ele>
        <time>2013-07-03T15:42:02Z</time>
      </trkpt>
      <trkpt lat="39.815333" lon="-4.320600">
        <ele>2953.0</ele>
        <time>2013-07-03T15:42:03Z</time>
      </trkpt>
      <trkpt lat="39.815250" lon="-4.320483">
        <ele>2952.0</ele>
        <time>2013-07-03T15:42:04Z</time>
      </trkpt>
      <trkpt lat="39.815167" lon="-4.320367">
        <ele>2951.0</ele>
        <time>2013-07-03T15:42:05Z</time>
      </trkpt>
      <trkpt lat="39.815050" lon="-4.320233">
        <ele>2951.0</ele>
        <time>2013-07-03T15:42:06Z</time>
      </trkpt>
      <trkpt lat="39.814967" lon="-4.320100">
        <ele>2950.0</ele>
        <time>2013-07-03T15:42:07Z</time>
      </trkpt>
      <trkpt lat="39.814867" lon="-4.319983">
        <ele>2949.0</ele>
        <time>2013-07-03T15:42:08Z</time>
      </trkpt>
      <trkpt lat="39.814783" lon="-4.319867">
        <ele>2948.0</ele>
        <time>2013-07-03T15:42:09Z</time>
      </trkpt>
      <trkpt lat="39.814683" lon="-4.319750">
        <ele>2946.0</ele>
        <time>2013-07-03T15:42:10Z</time>
      </trkpt>
      <trkpt lat="39.814583" lon="-4.319617">
        <ele>2944.0</ele>
        <time>2013-07-03T15:42:11Z</time>
      </trkpt>
      <trkpt lat="39.814483" lon="-4.319467">
        <ele>2941.0</ele>
        <time>2013-07-03T15:42:12Z</time>
      </trkpt>
      <trkpt lat="39.814400" lon="-4.319317">
        <ele>2938.0</ele>
        <time>2013-07-03T15:42:13Z</time>
      </trkpt>
      <trkpt lat="39.814300" lon="-4.319183">
        <ele>2936.0</ele>
        <time>2013-07-03T15:42:14Z</time>
      </trkpt>
      <trkpt lat="39.814217" lon="-4.319050">
        <ele>2933.0</ele>
        <time>2013-07-03T15:42:15Z</time>
      </trkpt>
      <trkpt lat="39.814133" lon="-4.318933">
        <ele>2928.0</ele>
        <time>2013-07-03T15:42:16Z</time>
      </trkpt>
      <trkpt lat="39.814033" lon="-4.318817">
        <ele>2923.0</ele>
        <time>2013-07-03T15:42:17Z</time>
      </trkpt>
      <trkpt lat="39.813933" lon="-4.318700">
        <ele>2919.0</ele>
        <time>2013-07-03T15:42:18Z</time>
      </trkpt>
      <trkpt lat="39.813817" lon="-4.318600">
        <ele>2915.0</ele>
        <time>2013-07-03T15:42:19Z</time>
      </trkpt>
      <trkpt lat="39.813700" lon="-4.318500">
        <ele>2912.0</ele>
        <time>2013-07-03T15:42:20Z</time>
      </trkpt>
      <trkpt lat="39.813600" lon="-4.318400">
        <ele>2911.0</ele>
        <time>2013-07-03T15:42:21Z</time>
      </trkpt>
      <trkpt lat="39.813483" lon="-4.318333">
        <ele>2910.0</ele>
        <time>2013-07-03T15:42:22Z</time>
      </trkpt>
      <trkpt lat="39.813383" lon="-4.318283">
        <ele>2909.0</ele>
        <time>2013-07-03T15:42:23Z</time>
      </trkpt>
      <trkpt lat="39.813267" lon="-4.318233">
        <ele>2908.0</ele>
        <time>2013-07-03T15:42:24Z</time>
      </trkpt>
      <trkpt lat="39.813150" lon="-4.318200">
        <ele>2906.0</ele>
        <time>2013-07-03T15:42:25Z</time>
      </trkpt>
      <trkpt lat="39.813033" lon="-4.318150">
        <ele>2905.0</ele>
        <time>2013-07-03T15:42:26Z</time>
      </trkpt>
      <trkpt lat="39.812917" lon="-4.318100">
        <ele>2905.0</ele>
        <time>2013-07-03T15:42:27Z</time>
      </trkpt>
      <trkpt lat="39.812817" lon="-4.318067">
        <ele>2904.0</ele>
        <time>2013-07-03T15:42:28Z</time>
      </trkpt>
      <trkpt lat="39.812700" lon="-4.318050">
        <ele>2904.0</ele>
        <time>2013-07-03T15:42:29Z</time>
      </trkpt>
      <trkpt lat="39.812600" lon="-4.318033">
        <ele>2902.0</ele>
        <time>2013-07-03T15:42:30Z</time>
      </trkpt>
      <trkpt lat="39.812483" lon="-4.317983">
        <ele>2900.0</ele>
        <time>2013-07-03T15:42:31Z</time>
      </trkpt>
      <trkpt lat="39.812367" lon="-4.317933">
        <ele>2897.0</ele>
        <time>2013-07-03T15:42:32Z</time>
      </trkpt>
      <trkpt lat="39.812250" lon="-4.317900">
        <ele>2894.0</ele>
        <time>2013-07-03T15:42:33Z</time>
      </trkpt>
      <trkpt lat="39.812117" lon="-4.317867">
        <ele>2892.0</ele>
        <time>2013-07-03T15:42:34Z</time>
      </trkpt>
      <trkpt lat="39.811983" lon="-4.317850">
        <ele>2890.0</ele>
        <time>2013-07-03T15:42:35Z</time>
      </trkpt>
      <trkpt lat="39.811850" lon="-4.317850">
        <ele>2889.0</ele>
        <time>2013-07-03T15:42:36Z</time>
      </trkpt>
      <trkpt lat="39.811733" lon="-4.317817">
        <ele>2887.0</ele>
        <time>2013-07-03T15:42:37Z</time>
      </trkpt>
      <trkpt lat="39.811600" lon="-4.317800">
        <ele>2884.0</ele>
        <time>2013-07-03T15:42:38Z</time>
      </trkpt>
      <trkpt lat="39.811483" lon="-4.317783">
        <ele>2881.0</ele>
        <time>2013-07-03T15:42:39Z</time>
      </trkpt>
      <trkpt lat="39.811350" lon="-4.317750">
        <ele>2877.0</ele>
        <time>2013-07-03T15:42:40Z</time>
      </trkpt>
      <trkpt lat="39.811217" lon="-4.317733">
        <ele>2873.0</ele>
        <time>2013-07-03T15:42:41Z</time>
      </trkpt>
      <trkpt lat="39.811067" lon="-4.317717">
        <ele>2868.0</ele>
        <time>2013-07-03T15:42:42Z</time>
      </trkpt>
      <trkpt lat="39.810933" lon="-4.317717">
        <ele>2863.0</ele>
        <time>2013-07-03T15:42:43Z</time>
      </trkpt>
      <trkpt lat="39.810783" lon="-4.317717">
        <ele>2860.0</ele>
        <time>2013-07-03T15:42:44Z</time>
      </trkpt>
      <trkpt lat="39.810650" lon="-4.317700">
        <ele>2858.0</ele>
        <time>2013-07-03T15:42:45Z</time>
      </trkpt>
      <trkpt lat="39.810517" lon="-4.317667">
        <ele>2855.0</ele>
        <time>2013-07-03T15:42:46Z</time>
      </trkpt>
      <trkpt lat="39.810400" lon="-4.317633">
        <ele>2852.0</ele>
        <time>2013-07-03T15:42:47Z</time>
      </trkpt>
      <trkpt lat="39.810267" lon="-4.317600">
        <ele>2848.0</ele>
        <time>2013-07-03T15:42:48Z</time>
      </trkpt>
      <trkpt lat="39.810133" lon="-4.317583">
        <ele>2845.0</ele>
        <time>2013-07-03T15:42:49Z</time>
      </trkpt>
      <trkpt lat="39.809983" lon="-4.317567">
        <ele>2842.0</ele>
        <time>2013-07-03T15:42:50Z</time>
      </trkpt>
      <trkpt lat="39.809850" lon="-4.317533">
        <ele>2839.0</ele>
        <time>2013-07-03T15:42:51Z</time>
      </trkpt>
      <trkpt lat="39.809717" lon="-4.317500">
        <ele>2837.0</ele>
        <time>2013-07-03T15:42:52Z</time>
      </trkpt>
      <trkpt lat="39.809600" lon="-4.317467">
        <ele>2834.0</ele>
        <time>2013-07-03T15:42:53Z</time>
      </trkpt>
      <trkpt lat="39.809467" lon="-4.317433">
        <ele>2831.0</ele>
        <time>2013-07-03T15:42:54Z</time>
      </trkpt>
      <trkpt lat="39.809333" lon="-4.317400">
        <ele>2828.0</ele>
        <time>2013-07-03T15:42:55Z</time>
      </trkpt>
      <trkpt lat="39.809200" lon="-4.317350">
        <ele>2825.0</ele>
        <time>2013-07-03T15:42:56Z</time>
      </trkpt>
      <trkpt lat="39.809083" lon="-4.317300">
        <ele>2822.0</ele>
        <time>2013-07-03T15:42:57Z</time>
      </trkpt>
      <trkpt lat="39.808950" lon="-4.317250">
        <ele>2819.0</ele>
        <time>2013-07-03T15:42:58Z</time>
      </trkpt>
      <trkpt lat="39.808817" lon="-4.317183">
        <ele>2817.0</ele>
        <time>2013-07-03T15:42:59Z</time>
      </trkpt>
      <trkpt lat="39.808683" lon="-4.317150">
        <ele>2813.0</ele>
        <time>2013-07-03T15:43:00Z</time>
      </trkpt>
      <trkpt lat="39.808567" lon="-4.317100">
        <ele>2810.0</ele>
        <time>2013-07-03T15:43:01Z</time>
      </trkpt>
      <trkpt lat="39.808433" lon="-4.317067">
        <ele>2806.0</ele>
        <time>2013-07-03T15:43:02Z</time>
      </trkpt>
      <trkpt lat="39.808300" lon="-4.317017">
        <ele>2803.0</ele>
        <time>2013-07-03T15:43:03Z</time>
      </trkpt>
      <trkpt lat="39.808183" lon="-4.316950">
        <ele>2799.0</ele>
        <time>2013-07-03T15:43:04Z</time>
      </trkpt>
      <trkpt lat="39.808050" lon="-4.316883">
        <ele>2796.0</ele>
        <time>2013-07-03T15:43:05Z</time>
      </trkpt>
      <trkpt lat="39.807917" lon="-4.316800">
        <ele>2794.0</ele>
        <time>2013-07-03T15:43:06Z</time>
      </trkpt>
      <trkpt lat="39.807800" lon="-4.316717">
        <ele>2792.0</ele>
        <time>2013-07-03T15:43:07Z</time>
      </trkpt>
      <trkpt lat="39.807683" lon="-4.316633">
        <ele>2789.0</ele>
        <time>2013-07-03T15:43:08Z</time>
      </trkpt>
      <trkpt lat="39.807567" lon="-4.316567">
        <ele>2787.0</ele>
        <time>2013-07-03T15:43:09Z</time>
      </trkpt>
      <trkpt lat="39.807450" lon="-4.316500">
        <ele>2785.0</ele>
        <time>2013-07-03T15:43:10Z</time>
      </trkpt>
      <trkpt lat="39.807333" lon="-4.316433">
        <ele>2781.0</ele>
        <time>2013-07-03T15:43:11Z</time>
      </trkpt>
      <trkpt lat="39.807217" lon="-4.316367">
        <ele>2779.0</ele>
        <time>2013-07-03T15:43:12Z</time>
      </trkpt>
      <trkpt lat="39.807083" lon="-4.316317">
        <ele>2776.0</ele>
        <time>2013-07-03T15:43:13Z</time>
      </trkpt>
      <trkpt lat="39.806950" lon="-4.316267">
        <ele>2774.0</ele>
        <time>2013-07-03T15:43:14Z</time>
      </trkpt>
      <trkpt lat="39.806833" lon="-4.316217">
        <ele>2772.0</ele>
        <time>2013-07-03T15:43:15Z</time>
      </trkpt>
      <trkpt lat="39.806700" lon="-4.316183">
        <ele>2771.0</ele>
        <time>2013-07-03T15:43:16Z</time>
      </trkpt>
      <trkpt lat="39.806583" lon="-4.316150">
        <ele>2768.0</ele>
        <time>2013-07-03T15:43:17Z</time>
      </trkpt>
      <trkpt lat="39.806467" lon="-4.316117">
        <ele>2765.0</ele>
        <time>2013-07-03T15:43:18Z</time>
      </trkpt>
      <trkpt lat="39.806333" lon="-4.316083">
        <ele>2762.0</ele>
        <time>2013-07-03T15:43:19Z</time>
      </trkpt>
      <trkpt lat="39.806217" lon="-4.316050">
        <ele>2759.0</ele>
        <time>2013-07-03T15:43:20Z</time>
      </trkpt>
      <trkpt lat="39.806100" lon="-4.316000">
        <ele>2757.0</ele>
        <time>2013-07-03T15:43:21Z</time>
      </trkpt>
      <trkpt lat="39.805983" lon="-4.315950">
        <ele>2755.0</ele>
        <time>2013-07-03T15:43:22Z</time>
      </trkpt>
      <trkpt lat="39.805867" lon="-4.315900">
        <ele>2754.0</ele>
        <time>2013-07-03T15:43:23Z</time>
      </trkpt>
      <trkpt lat="39.805750" lon="-4.315867">
        <ele>2752.0</ele>
        <time>2013-07-03T15:43:24Z</time>
      </trkpt>
      <trkpt lat="39.805633" lon="-4.315817">
        <ele>2750.0</ele>
        <time>2013-07-03T15:43:25Z</time>
      </trkpt>
      <trkpt lat="39.805517" lon="-4.315767">
        <ele>2748.0</ele>
        <time>2013-07-03T15:43:26Z</time>
      </trkpt>
      <trkpt lat="39.805400" lon="-4.315717">
        <ele>2745.0</ele>
        <time>2013-07-03T15:43:27Z</time>
      </trkpt>
      <trkpt lat="39.805267" lon="-4.315683">
        <ele>2742.0</ele>
        <time>2013-07-03T15:43:28Z</time>
      </trkpt>
      <trkpt lat="39.805150" lon="-4.315617">
        <ele>2740.0</ele>
        <time>2013-07-03T15:43:29Z</time>
      </trkpt>
      <trkpt lat="39.805033" lon="-4.315550">
        <ele>2737.0</ele>
        <time>2013-07-03T15:43:30Z</time>
      </trkpt>
      <trkpt lat="39.804917" lon="-4.315467">
        <ele>2736.0</ele>
        <time>2013-07-03T15:43:31Z</time>
      </trkpt>
      <trkpt lat="39.804800" lon="-4.315383">
        <ele>2734.0</ele>
        <time>2013-07-03T15:43:32Z</time>
      </trkpt>
      <trkpt lat="39.804683" lon="-4.315300">
        <ele>2733.0</ele>
        <time>2013-07-03T15:43:33Z</time>
      </trkpt>
      <trkpt lat="39.804550" lon="-4.315233">
        <ele>2731.0</ele>
        <time>2013-07-03T15:43:34Z</time>
      </trkpt>
      <trkpt lat="39.804417" lon="-4.315167">
        <ele>2728.0</ele>
        <time>2013-07-03T15:43:35Z</time>
      </trkpt>
      <trkpt lat="39.804283" lon="-4.315117">
        <ele>2725.0</ele>
        <time>2013-07-03T15:43:36Z</time>
      </trkpt>
      <trkpt lat="39.804117" lon="-4.315083">
        <ele>2722.0</ele>
        <time>2013-07-03T15:43:37Z</time>
      </trkpt>
      <trkpt lat="39.803967" lon="-4.315083">
        <ele>2721.0</ele>
        <time>2013-07-03T15:43:38Z</time>
      </trkpt>
      <trkpt lat="39.803817" lon="-4.315083">
        <ele>2720.0</ele>
        <time>2013-07-03T15:43:39Z</time>
      </trkpt>
      <trkpt lat="39.803700" lon="-4.315067">
        <ele>2719.0</ele>
        <time>2013-07-03T15:43:40Z</time>
      </trkpt>
      <trkpt lat="39.803567" lon="-4.315067">
        <ele>2717.0</ele>
        <time>2013-07-03T15:43:41Z</time>
      </trkpt>
      <trkpt lat="39.803450" lon="-4.315067">
        <ele>2714.0</ele>
        <time>2013-07-03T15:43:42Z</time>
      </trkpt>
      <trkpt lat="39.803317" lon="-4.315067">
        <ele>2710.0</ele>
        <time>2013-07-03T15:43:43Z</time>
      </trkpt>
      <trkpt lat="39.803183" lon="-4.315050">
        <ele>2706.0</ele>
        <time>2013-07-03T15:43:44Z</time>
      </trkpt>
      <trkpt lat="39.803033" lon="-4.315050">
        <ele>2703.0</ele>
        <time>2013-07-03T15:43:45Z</time>
      </trkpt>
      <trkpt lat="39.802900" lon="-4.315033">
        <ele>2702.0</ele>
        <time>2013-07-03T15:43:46Z</time>
      </trkpt>
      <trkpt lat="39.802750" lon="-4.315017">
        <ele>2701.0</ele>
        <time>2013-07-03T15:43:47Z</time>
      </trkpt>
      <trkpt lat="39.802633" lon="-4.315000">
        <ele>2701.0</ele>
        <time>2013-07-03T15:43:48Z</time>
      </trkpt>
      <trkpt lat="39.802500" lon="-4.314983">
        <ele>2701.0</ele>
        <time>2013-07-03T15:43:49Z</time>
      </trkpt>
      <trkpt lat="39.802367" lon="-4.314950">
        <ele>2699.0</ele>
        <time>2013-07-03T15:43:50Z</time>
      </trkpt>
      <trkpt lat="39.802233" lon="-4.314933">
        <ele>2697.0</ele>
        <time>2013-07-03T15:43:51Z</time>
      </trkpt>
      <trkpt lat="39.802100" lon="-4.314917">
        <ele>2695.0</ele>
        <time>2013-07-03T15:43:52Z</time>
      </trkpt>
      <trkpt lat="39.801950" lon="-4.314900">
        <ele>2692.0</ele>
        <time>2013-07-03T15:43:53Z</time>
      </trkpt>
      <trkpt lat="39.801800" lon="-4.314867">
        <ele>2691.0</ele>
        <time>2013-07-03T15:43:54Z</time>
      </trkpt>
      <trkpt lat="39.801650" lon="-4.314817">
        <ele>2689.0</ele>
        <time>2013-07-03T15:43:55Z</time>
      </trkpt>
      <trkpt lat="39.801500" lon="-4.314783">
        <ele>2688.0</ele>
        <time>2013-07-03T15:43:56Z</time>
      </trkpt>
      <trkpt lat="39.801367" lon="-4.314733">
        <ele>2686.0</ele>
        <time>2013-07-03T15:43:57Z</time>
      </trkpt>
      <trkpt lat="39.801233" lon="-4.314683">
        <ele>2684.0</ele>
        <time>2013-07-03T15:43:58Z</time>
      </trkpt>
      <trkpt lat="39.801083" lon="-4.314617">
        <ele>2682.0</ele>
        <time>2013-07-03T15:43:59Z</time>
      </trkpt>
      <trkpt lat="39.800933" lon="-4.314550">
        <ele>2680.0</ele>
        <time>2013-07-03T15:44:00Z</time>
      </trkpt>
      <trkpt lat="39.800783" lon="-4.314483">
        <ele>2680.0</ele>
        <time>2013-07-03T15:44:01Z</time>
      </trkpt>
      <trkpt lat="39.800650" lon="-4.314433">
        <ele>2680.0</ele>
        <time>2013-07-03T15:44:02Z</time>
      </trkpt>
      <trkpt lat="39.800533" lon="-4.314383">
        <ele>2679.0</ele>
        <time>2013-07-03T15:44:03Z</time>
      </trkpt>
      <trkpt lat="39.800400" lon="-4.314317">
        <ele>2677.0</ele>
        <time>2013-07-03T15:44:04Z</time>
      </trkpt>
      <trkpt lat="39.800283" lon="-4.314250">
        <ele>2676.0</ele>
        <time>2013-07-03T15:44:05Z</time>
      </trkpt>
      <trkpt lat="39.800133" lon="-4.314200">
        <ele>2673.0</ele>
        <time>2013-07-03T15:44:06Z</time>
      </trkpt>
      <trkpt lat="39.799967" lon="-4.314167">
        <ele>2671.0</ele>
        <time>2013-07-03T15:44:07Z</time>
      </trkpt>
      <trkpt lat="39.799817" lon="-4.314150">
        <ele>2670.0</ele>
        <time>2013-07-03T15:44:08Z</time>
      </trkpt>
      <trkpt lat="39.799667" lon="-4.314133">
        <ele>2671.0</ele>
        <time>2013-07-03T15:44:09Z</time>
      </trkpt>
      <trkpt lat="39.799533" lon="-4.314067">
        <ele>2671.0</ele>
        <time>2013-07-03T15:44:10Z</time>
      </trkpt>
      <trkpt lat="39.799400" lon="-4.314000">
        <ele>2670.0</ele>
        <time>2013-07-03T15:44:11Z</time>
      </trkpt>
      <trkpt lat="39.799283" lon="-4.313933">
        <ele>2669.0</ele>
        <time>2013-07-03T15:44:12Z</time>
      </trkpt>
      <trkpt lat="39.799150" lon="-4.313883">
        <ele>2668.0</ele>
        <time>2013-07-03T15:44:13Z</time>
      </trkpt>
      <trkpt lat="39.799000" lon="-4.313850">
        <ele>2666.0</ele>
        <time>2013-07-03T15:44:14Z</time>
      </trkpt>
      <trkpt lat="39.798867" lon="-4.313783">
        <ele>2665.0</ele>
        <time>2013-07-03T15:44:15Z</time>
      </trkpt>
      <trkpt lat="39.798733" lon="-4.313717">
        <ele>2664.0</ele>
        <time>2013-07-03T15:44:16Z</time>
      </trkpt>
      <trkpt lat="39.798600" lon="-4.313650">
        <ele>2663.0</ele>
        <time>2013-07-03T15:44:17Z</time>
      </trkpt>
      <trkpt lat="39.798467" lon="-4.313583">
        <ele>2662.0</ele>
        <time>2013-07-03T15:44:18Z</time>
      </trkpt>
      <trkpt lat="39.798333" lon="-4.313517">
        <ele>2662.0</ele>
        <time>2013-07-03T15:44:19Z</time>
      </trkpt>
      <trkpt lat="39.798200" lon="-4.313450">
        <ele>2662.0</ele>
        <time>2013-07-03T15:44:20Z</time>
      </trkpt>
      <trkpt lat="39.798083" lon="-4.313400">
        <ele>2662.0</ele>
        <time>2013-07-03T15:44:21Z</time>
      </trkpt>
      <trkpt lat="39.797950" lon="-4.313333">
        <ele>2662.0</ele>
        <time>2013-07-03T15:44:22Z</time>
      </trkpt>
      <trkpt lat="39.797833" lon="-4.313283">
        <ele>2662.0</ele>
        <time>2013-07-03T15:44:23Z</time>
      </trkpt>
      <trkpt lat="39.797717" lon="-4.313217">
        <ele>2662.0</ele>
        <time>2013-07-03T15:44:24Z</time>
      </trkpt>
      <trkpt lat="39.797600" lon="-4.313167">
        <ele>2662.0</ele>
        <time>2013-07-03T15:44:25Z</time>
      </trkpt>
      <trkpt lat="39.797467" lon="-4.313100">
        <ele>2662.0</ele>
        <time>2013-07-03T15:44:26Z</time>
      </trkpt>
      <trkpt lat="39.797350" lon="-4.313050">
        <ele>2662.0</ele>
        <time>2013-07-03T15:44:27Z</time>
      </trkpt>
      <trkpt lat="39.797217" lon="-4.313000">
        <ele>2661.0</ele>
        <time>2013-07-03T15:44:28Z</time>
      </trkpt>
      <trkpt lat="39.797083" lon="-4.312950">
        <ele>2661.0</ele>
        <time>2013-07-03T15:44:29Z</time>
      </trkpt>
      <trkpt lat="39.796950" lon="-4.312900">
        <ele>2662.0</ele>
        <time>2013-07-03T15:44:30Z</time>
      </trkpt>
      <trkpt lat="39.796833" lon="-4.312833">
        <ele>2663.0</ele>
        <time>2013-07-03T15:44:31Z</time>
      </trkpt>
      <trkpt lat="39.796717" lon="-4.312800">
        <ele>2664.0</ele>
        <time>2013-07-03T15:44:32Z</time>
      </trkpt>
      <trkpt lat="39.796600" lon="-4.312750">
        <ele>2664.0</ele>
        <time>2013-07-03T15:44:33Z</time>
      </trkpt>
      <trkpt lat="39.796483" lon="-4.312700">
        <ele>2664.0</ele>
        <time>2013-07-03T15:44:34Z</time>
      </trkpt>
      <trkpt lat="39.796383" lon="-4.312633">
        <ele>2663.0</ele>
        <time>2013-07-03T15:44:35Z</time>
      </trkpt>
      <trkpt lat="39.796267" lon="-4.312567">
        <ele>2662.0</ele>
        <time>2013-07-03T15:44:36Z</time>
      </trkpt>
      <trkpt lat="39.796150" lon="-4.312483">
        <ele>2662.0</ele>
        <time>2013-07-03T15:44:37Z</time>
      </trkpt>
      <trkpt lat="39.796050" lon="-4.312417">
        <ele>2663.0</ele>
        <time>2013-07-03T15:44:38Z</time>
      </trkpt>
      <trkpt lat="39.795950" lon="-4.312333">
        <ele>2664.0</ele>
        <time>2013-07-03T15:44:39Z</time>
      </trkpt>
      <trkpt lat="39.795850" lon="-4.312267">
        <ele>2664.0</ele>
        <time>2013-07-03T15:44:40Z</time>
      </trkpt>
      <trkpt lat="39.795767" lon="-4.312183">
        <ele>2664.0</ele>
        <time>2013-07-03T15:44:41Z</time>
      </trkpt>
      <trkpt lat="39.795667" lon="-4.312117">
        <ele>2665.0</ele>
        <time>2013-07-03T15:44:42Z</time>
      </trkpt>
      <trkpt lat="39.795583" lon="-4.312050">
        <ele>2666.0</ele>
        <time>2013-07-03T15:44:43Z</time>
      </trkpt>
      <trkpt lat="39.795500" lon="-4.311983">
        <ele>2666.0</ele>
        <time>2013-07-03T15:44:44Z</time>
      </trkpt>
      <trkpt lat="39.795417" lon="-4.311917">
        <ele>2667.0</ele>
        <time>2013-07-03T15:44:45Z</time>
      </trkpt>
      <trkpt lat="39.795333" lon="-4.311850">
        <ele>2667.0</ele>
        <time>2013-07-03T15:44:46Z</time>
      </trkpt>
      <trkpt lat="39.795250" lon="-4.311783">
        <ele>2667.0</ele>
        <time>2013-07-03T15:44:47Z</time>
      </trkpt>
      <trkpt lat="39.795167" lon="-4.311717">
        <ele>2666.0</ele>
        <time>2013-07-03T15:44:48Z</time>
      </trkpt>
      <trkpt lat="39.795083" lon="-4.311667">
        <ele>2665.0</ele>
        <time>2013-07-03T15:44:49Z</time>
      </trkpt>
      <trkpt lat="39.794983" lon="-4.311617">
        <ele>2665.0</ele>
        <time>2013-07-03T15:44:50Z</time>
      </trkpt>
      <trkpt lat="39.794867" lon="-4.311550">
        <ele>2664.0</ele>
        <time>2013-07-03T15:44:51Z</time>
      </trkpt>
      <trkpt lat="39.794767" lon="-4.311483">
        <ele>2664.0</ele>
        <time>2013-07-03T15:44:52Z</time>
      </trkpt>
      <trkpt lat="39.794650" lon="-4.311417">
        <ele>2663.0</ele>
        <time>2013-07-03T15:44:53Z</time>
      </trkpt>
      <trkpt lat="39.794550" lon="-4.311367">
        <ele>2663.0</ele>
        <time>2013-07-03T15:44:54Z</time>
      </trkpt>
      <trkpt lat="39.794433" lon="-4.311300">
        <ele>2664.0</ele>
        <time>2013-07-03T15:44:55Z</time>
      </trkpt>
      <trkpt lat="39.794317" lon="-4.311233">
        <ele>2663.0</ele>
        <time>2013-07-03T15:44:56Z</time>
      </trkpt>
      <trkpt lat="39.794217" lon="-4.311183">
        <ele>2663.0</ele>
        <time>2013-07-03T15:44:57Z</time>
      </trkpt>
      <trkpt lat="39.794100" lon="-4.311117">
        <ele>2663.0</ele>
        <time>2013-07-03T15:44:58Z</time>
      </trkpt>
      <trkpt lat="39.794000" lon="-4.311050">
        <ele>2663.0</ele>
        <time>2013-07-03T15:44:59Z</time>
      </trkpt>
      <trkpt lat="39.793883" lon="-4.310983">
        <ele>2663.0</ele>
        <time>2013-07-03T15:45:00Z</time>
      </trkpt>
      <trkpt lat="39.793783" lon="-4.310917">
        <ele>2663.0</ele>
        <time>2013-07-03T15:45:01Z</time>
      </trkpt>
      <trkpt lat="39.793683" lon="-4.310867">
        <ele>2661.0</ele>
        <time>2013-07-03T15:45:02Z</time>
      </trkpt>
      <trkpt lat="39.793567" lon="-4.310800">
        <ele>2660.0</ele>
        <time>2013-07-03T15:45:03Z</time>
      </trkpt>
      <trkpt lat="39.793467" lon="-4.310733">
        <ele>2658.0</ele>
        <time>2013-07-03T15:45:04Z</time>
      </trkpt>
      <trkpt lat="39.793350" lon="-4.310650">
        <ele>2657.0</ele>
        <time>2013-07-03T15:45:05Z</time>
      </trkpt>
      <trkpt lat="39.793250" lon="-4.310567">
        <ele>2656.0</ele>
        <time>2013-07-03T15:45:06Z</time>
      </trkpt>
      <trkpt lat="39.793150" lon="-4.310500">
        <ele>2655.0</ele>
        <time>2013-07-03T15:45:07Z</time>
      </trkpt>
      <trkpt lat="39.793033" lon="-4.310417">
        <ele>2656.0</ele>
        <time>2013-07-03T15:45:08Z</time>
      </trkpt>
      <trkpt lat="39.792933" lon="-4.310350">
        <ele>2655.0</ele>
        <time>2013-07-03T15:45:09Z</time>
      </trkpt>
      <trkpt lat="39.792817" lon="-4.310283">
        <ele>2653.0</ele>
        <time>2013-07-03T15:45:10Z</time>
      </trkpt>
      <trkpt lat="39.792700" lon="-4.310217">
        <ele>2651.0</ele>
        <time>2013-07-03T15:45:11Z</time>
      </trkpt>
      <trkpt lat="39.792567" lon="-4.310150">
        <ele>2649.0</ele>
        <time>2013-07-03T15:45:12Z</time>
      </trkpt>
      <trkpt lat="39.792433" lon="-4.310100">
        <ele>2649.0</ele>
        <time>2013-07-03T15:45:13Z</time>
      </trkpt>
      <trkpt lat="39.792300" lon="-4.310033">
        <ele>2649.0</ele>
        <time>2013-07-03T15:45:14Z</time>
      </trkpt>
      <trkpt lat="39.792183" lon="-4.309983">
        <ele>2650.0</ele>
        <time>2013-07-03T15:45:15Z</time>
      </trkpt>
      <trkpt lat="39.792083" lon="-4.309933">
        <ele>2650.0</ele>
        <time>2013-07-03T15:45:16Z</time>
      </trkpt>
      <trkpt lat="39.791967" lon="-4.309867">
        <ele>2648.0</ele>
        <time>2013-07-03T15:45:17Z</time>
      </trkpt>
      <trkpt lat="39.791867" lon="-4.309783">
        <ele>2647.0</ele>
        <time>2013-07-03T15:45:18Z</time>
      </trkpt>
      <trkpt lat="39.791733" lon="-4.309700">
        <ele>2645.0</ele>
        <time>2013-07-03T15:45:19Z</time>
      </trkpt>
      <trkpt lat="39.791617" lon="-4.309617">
        <ele>2644.0</ele>
        <time>2013-07-03T15:45:20Z</time>
      </trkpt>
      <trkpt lat="39.791500" lon="-4.309567">
        <ele>2644.0</ele>
        <time>2013-07-03T15:45:21Z</time>
      </trkpt>
      <trkpt lat="39.791367" lon="-4.309500">
        <ele>2644.0</ele>
        <time>2013-07-03T15:45:22Z</time>
      </trkpt>
      <trkpt lat="39.791267" lon="-4.309450">
        <ele>2645.0</ele>
        <time>2013-07-03T15:45:23Z</time>
      </trkpt>
      <trkpt lat="39.791150" lon="-4.309417">
        <ele>2645.0</ele>
        <time>2013-07-03T15:45:24Z</time>
      </trkpt>
      <trkpt lat="39.791050" lon="-4.309400">
        <ele>2643.0</ele>
        <time>2013-07-03T15:45:25Z</time>
      </trkpt>
      <trkpt lat="39.790933" lon="-4.309400">
        <ele>2641.0</ele>
        <time>2013-07-03T15:45:26Z</time>
      </trkpt>
      <trkpt lat="39.790800" lon="-4.309383">
        <ele>2638.0</ele>
        <time>2013-07-03T15:45:27Z</time>
      </trkpt>
      <trkpt lat="39.790667" lon="-4.309367">
        <ele>2636.0</ele>
        <time>2013-07-03T15:45:28Z</time>
      </trkpt>
      <trkpt lat="39.790533" lon="-4.309317">
        <ele>2635.0</ele>
        <time>2013-07-03T15:45:29Z</time>
      </trkpt>
      <trkpt lat="39.790400" lon="-4.309267">
        <ele>2635.0</ele>
        <time>2013-07-03T15:45:30Z</time>
      </trkpt>
      <trkpt lat="39.790267" lon="-4.309200">
        <ele>2635.0</ele>
        <time>2013-07-03T15:45:31Z</time>
      </trkpt>
      <trkpt lat="39.790150" lon="-4.309150">
        <ele>2636.0</ele>
        <time>2013-07-03T15:45:32Z</time>
      </trkpt>
      <trkpt lat="39.790050" lon="-4.309117">
        <ele>2635.0</ele>
        <time>2013-07-03T15:45:33Z</time>
      </trkpt>
      <trkpt lat="39.789933" lon="-4.309067">
        <ele>2635.0</ele>
        <time>2013-07-03T15:45:34Z</time>
      </trkpt>
      <trkpt lat="39.789800" lon="-4.309000">
        <ele>2632.0</ele>
        <time>2013-07-03T15:45:35Z</time>
      </trkpt>
      <trkpt lat="39.789683" lon="-4.308933">
        <ele>2631.0</ele>
        <time>2013-07-03T15:45:36Z</time>
      </trkpt>
      <trkpt lat="39.789550" lon="-4.308867">
        <ele>2631.0</ele>
        <time>2013-07-03T15:45:37Z</time>
      </trkpt>
      <trkpt lat="39.789433" lon="-4.308800">
        <ele>2632.0</ele>
        <time>2013-07-03T15:45:38Z</time>
      </trkpt>
      <trkpt lat="39.789333" lon="-4.308733">
        <ele>2633.0</ele>
        <time>2013-07-03T15:45:39Z</time>
      </trkpt>
      <trkpt lat="39.789217" lon="-4.308650">
        <ele>2634.0</ele>
        <time>2013-07-03T15:45:40Z</time>
      </trkpt>
      <trkpt lat="39.789117" lon="-4.308583">
        <ele>2634.0</ele>
        <time>2013-07-03T15:45:41Z</time>
      </trkpt>
      <trkpt lat="39.789017" lon="-4.308517">
        <ele>2634.0</ele>
        <time>2013-07-03T15:45:42Z</time>
      </trkpt>
      <trkpt lat="39.788900" lon="-4.308450">
        <ele>2635.0</ele>
        <time>2013-07-03T15:45:43Z</time>
      </trkpt>
      <trkpt lat="39.788800" lon="-4.308383">
        <ele>2635.0</ele>
        <time>2013-07-03T15:45:44Z</time>
      </trkpt>
      <trkpt lat="39.788683" lon="-4.308317">
        <ele>2635.0</ele>
        <time>2013-07-03T15:45:45Z</time>
      </trkpt>
      <trkpt lat="39.788583" lon="-4.308250">
        <ele>2636.0</ele>
        <time>2013-07-03T15:45:46Z</time>
      </trkpt>
      <trkpt lat="39.788483" lon="-4.308200">
        <ele>2637.0</ele>
        <time>2013-07-03T15:45:47Z</time>
      </trkpt>
      <trkpt lat="39.788400" lon="-4.308150">
        <ele>2638.0</ele>
        <time>2013-07-03T15:45:48Z</time>
      </trkpt>
      <trkpt lat="39.788300" lon="-4.308117">
        <ele>2639.0</ele>
        <time>2013-07-03T15:45:49Z</time>
      </trkpt>
      <trkpt lat="39.788217" lon="-4.308067">
        <ele>2639.0</ele>
        <time>2013-07-03T15:45:50Z</time>
      </trkpt>
      <trkpt lat="39.788133" lon="-4.308033">
        <ele>2639.0</ele>
        <time>2013-07-03T15:45:51Z</time>
      </trkpt>
      <trkpt lat="39.788033" lon="-4.308000">
        <ele>2640.0</ele>
        <time>2013-07-03T15:45:52Z</time>
      </trkpt>
      <trkpt lat="39.787950" lon="-4.307967">
        <ele>2640.0</ele>
        <time>2013-07-03T15:45:53Z</time>
      </trkpt>
      <trkpt lat="39.787850" lon="-4.307933">
        <ele>2640.0</ele>
        <time>2013-07-03T15:45:54Z</time>
      </trkpt>
      <trkpt lat="39.787767" lon="-4.307900">
        <ele>2639.0</ele>
        <time>2013-07-03T15:45:55Z</time>
      </trkpt>
      <trkpt lat="39.787667" lon="-4.307867">
        <ele>2639.0</ele>
        <time>2013-07-03T15:45:56Z</time>
      </trkpt>
      <trkpt lat="39.787583" lon="-4.307833">
        <ele>2639.0</ele>
        <time>2013-07-03T15:45:57Z</time>
      </trkpt>
      <trkpt lat="39.787483" lon="-4.307800">
        <ele>2638.0</ele>
        <time>2013-07-03T15:45:58Z</time>
      </trkpt>
      <trkpt lat="39.787367" lon="-4.307750">
        <ele>2637.0</ele>
        <time>2013-07-03T15:45:59Z</time>
      </trkpt>
      <trkpt lat="39.787267" lon="-4.307700">
        <ele>2636.0</ele>
        <time>2013-07-03T15:46:00Z</time>
      </trkpt>
      <trkpt lat="39.787150" lon="-4.307650">
        <ele>2635.0</ele>
        <time>2013-07-03T15:46:01Z</time>
      </trkpt>
      <trkpt lat="39.787017" lon="-4.307600">
        <ele>2635.0</ele>
        <time>2013-07-03T15:46:02Z</time>
      </trkpt>
      <trkpt lat="39.786900" lon="-4.307567">
        <ele>2634.0</ele>
        <time>2013-07-03T15:46:03Z</time>
      </trkpt>
      <trkpt lat="39.786783" lon="-4.307517">
        <ele>2635.0</ele>
        <time>2013-07-03T15:46:04Z</time>
      </trkpt>
      <trkpt lat="39.786667" lon="-4.307483">
        <ele>2635.0</ele>
        <time>2013-07-03T15:46:05Z</time>
      </trkpt>
      <trkpt lat="39.786550" lon="-4.307433">
        <ele>2634.0</ele>
        <time>2013-07-03T15:46:06Z</time>
      </trkpt>
      <trkpt lat="39.786433" lon="-4.307383">
        <ele>2634.0</ele>
        <time>2013-07-03T15:46:07Z</time>
      </trkpt>
      <trkpt lat="39.786300" lon="-4.307317">
        <ele>2634.0</ele>
        <time>2013-07-03T15:46:08Z</time>
      </trkpt>
      <trkpt lat="39.786183" lon="-4.307267">
        <ele>2634.0</ele>
        <time>2013-07-03T15:46:09Z</time>
      </trkpt>
      <trkpt lat="39.786067" lon="-4.307200">
        <ele>2634.0</ele>
        <time>2013-07-03T15:46:10Z</time>
      </trkpt>
      <trkpt lat="39.785950" lon="-4.307133">
        <ele>2634.0</ele>
        <time>2013-07-03T15:46:11Z</time>
      </trkpt>
      <trkpt lat="39.785833" lon="-4.307067">
        <ele>2634.0</ele>
        <time>2013-07-03T15:46:12Z</time>
      </trkpt>
      <trkpt lat="39.785717" lon="-4.307000">
        <ele>2633.0</ele>
        <time>2013-07-03T15:46:13Z</time>
      </trkpt>
      <trkpt lat="39.785583" lon="-4.306933">
        <ele>2632.0</ele>
        <time>2013-07-03T15:46:14Z</time>
      </trkpt>
      <trkpt lat="39.785467" lon="-4.306883">
        <ele>2632.0</ele>
        <time>2013-07-03T15:46:15Z</time>
      </trkpt>
      <trkpt lat="39.785333" lon="-4.306817">
        <ele>2631.0</ele>
        <time>2013-07-03T15:46:16Z</time>
      </trkpt>
      <trkpt lat="39.785217" lon="-4.306750">
        <ele>2631.0</ele>
        <time>2013-07-03T15:46:17Z</time>
      </trkpt>
      <trkpt lat="39.785100" lon="-4.306700">
        <ele>2632.0</ele>
        <time>2013-07-03T15:46:18Z</time>
      </trkpt>
      <trkpt lat="39.784983" lon="-4.306633">
        <ele>2631.0</ele>
        <time>2013-07-03T15:46:19Z</time>
      </trkpt>
      <trkpt lat="39.784867" lon="-4.306583">
        <ele>2631.0</ele>
        <time>2013-07-03T15:46:20Z</time>
      </trkpt>
      <trkpt lat="39.784750" lon="-4.306517">
        <ele>2630.0</ele>
        <time>2013-07-03T15:46:21Z</time>
      </trkpt>
      <trkpt lat="39.784633" lon="-4.306467">
        <ele>2628.0</ele>
        <time>2013-07-03T15:46:22Z</time>
      </trkpt>
      <trkpt lat="39.784500" lon="-4.306400">
        <ele>2626.0</ele>
        <time>2013-07-03T15:46:23Z</time>
      </trkpt>
      <trkpt lat="39.784350" lon="-4.306350">
        <ele>2624.0</ele>
        <time>2013-07-03T15:46:24Z</time>
      </trkpt>
      <trkpt lat="39.784217" lon="-4.306283">
        <ele>2625.0</ele>
        <time>2013-07-03T15:46:25Z</time>
      </trkpt>
      <trkpt lat="39.784083" lon="-4.306217">
        <ele>2626.0</ele>
        <time>2013-07-03T15:46:26Z</time>
      </trkpt>
      <trkpt lat="39.783967" lon="-4.306133">
        <ele>2626.0</ele>
        <time>2013-07-03T15:46:27Z</time>
      </trkpt>
      <trkpt lat="39.783867" lon="-4.306067">
        <ele>2626.0</ele>
        <time>2013-07-03T15:46:28Z</time>
      </trkpt>
      <trkpt lat="39.783750" lon="-4.305983">
        <ele>2625.0</ele>
        <time>2013-07-03T15:46:29Z</time>
      </trkpt>
      <trkpt lat="39.783633" lon="-4.305900">
        <ele>2623.0</ele>
        <time>2013-07-03T15:46:30Z</time>
      </trkpt>
      <trkpt lat="39.783500" lon="-4.305833">
        <ele>2622.0</ele>
        <time>2013-07-03T15:46:31Z</time>
      </trkpt>
      <trkpt lat="39.783350" lon="-4.305767">
        <ele>2621.0</ele>
        <time>2013-07-03T15:46:32Z</time>
      </trkpt>
      <trkpt lat="39.783217" lon="-4.305717">
        <ele>2621.0</ele>
        <time>2013-07-03T15:46:33Z</time>
      </trkpt>
      <trkpt lat="39.783083" lon="-4.305650">
        <ele>2620.0</ele>
        <time>2013-07-03T15:46:34Z</time>
      </trkpt>
      <trkpt lat="39.782967" lon="-4.305600">
        <ele>2620.0</ele>
        <time>2013-07-03T15:46:35Z</time>
      </trkpt>
      <trkpt lat="39.782833" lon="-4.305567">
        <ele>2618.0</ele>
        <time>2013-07-03T15:46:36Z</time>
      </trkpt>
      <trkpt lat="39.782700" lon="-4.305517">
        <ele>2616.0</ele>
        <time>2013-07-03T15:46:37Z</time>
      </trkpt>
      <trkpt lat="39.782567" lon="-4.305467">
        <ele>2613.0</ele>
        <time>2013-07-03T15:46:38Z</time>
      </trkpt>
      <trkpt lat="39.782417" lon="-4.305417">
        <ele>2610.0</ele>
        <time>2013-07-03T15:46:39Z</time>
      </trkpt>
      <trkpt lat="39.782283" lon="-4.305383">
        <ele>2608.0</ele>
        <time>2013-07-03T15:46:40Z</time>
      </trkpt>
      <trkpt lat="39.782133" lon="-4.305333">
        <ele>2606.0</ele>
        <time>2013-07-03T15:46:41Z</time>
      </trkpt>
      <trkpt lat="39.782000" lon="-4.305267">
        <ele>2604.0</ele>
        <time>2013-07-03T15:46:42Z</time>
      </trkpt>
      <trkpt lat="39.781867" lon="-4.305217">
        <ele>2603.0</ele>
        <time>2013-07-03T15:46:43Z</time>
      </trkpt>
      <trkpt lat="39.781717" lon="-4.305167">
        <ele>2601.0</ele>
        <time>2013-07-03T15:46:44Z</time>
      </trkpt>
      <trkpt lat="39.781567" lon="-4.305117">
        <ele>2599.0</ele>
        <time>2013-07-03T15:46:45Z</time>
      </trkpt>
      <trkpt lat="39.781417" lon="-4.305050">
        <ele>2597.0</ele>
        <time>2013-07-03T15:46:46Z</time>
      </trkpt>
      <trkpt lat="39.781283" lon="-4.305000">
        <ele>2595.0</ele>
        <time>2013-07-03T15:46:47Z</time>
      </trkpt>
      <trkpt lat="39.781133" lon="-4.304933">
        <ele>2593.0</ele>
        <time>2013-07-03T15:46:48Z</time>
      </trkpt>
      <trkpt lat="39.780983" lon="-4.304867">
        <ele>2592.0</ele>
        <time>2013-07-03T15:46:49Z</time>
      </trkpt>
      <trkpt lat="39.780833" lon="-4.304800">
        <ele>2590.0</ele>
        <time>2013-07-03T15:46:50Z</time>
      </trkpt>
      <trkpt lat="39.780700" lon="-4.304733">
        <ele>2589.0</ele>
        <time>2013-07-03T15:46:51Z</time>
      </trkpt>
      <trkpt lat="39.780550" lon="-4.304667">
        <ele>2588.0</ele>
        <time>2013-07-03T15:46:52Z</time>
      </trkpt>
      <trkpt lat="39.780417" lon="-4.304600">
        <ele>2587.0</ele>
        <time>2013-07-03T15:46:53Z</time>
      </trkpt>
      <trkpt lat="39.780300" lon="-4.304533">
        <ele>2586.0</ele>
        <time>2013-07-03T15:46:54Z</time>
      </trkpt>
      <trkpt lat="39.780167" lon="-4.304483">
        <ele>2584.0</ele>
        <time>2013-07-03T15:46:55Z</time>
      </trkpt>
      <trkpt lat="39.780017" lon="-4.304433">
        <ele>2582.0</ele>
        <time>2013-07-03T15:46:56Z</time>
      </trkpt>
      <trkpt lat="39.779867" lon="-4.304383">
        <ele>2580.0</ele>
        <time>2013-07-03T15:46:57Z</time>
      </trkpt>
      <trkpt lat="39.779733" lon="-4.304350">
        <ele>2579.0</ele>
        <time>2013-07-03T15:46:58Z</time>
      </trkpt>
      <trkpt lat="39.779583" lon="-4.304300">
        <ele>2578.0</ele>
        <time>2013-07-03T15:46:59Z</time>
      </trkpt>
      <trkpt lat="39.779450" lon="-4.304250">
        <ele>2577.0</ele>
        <time>2013-07-03T15:47:00Z</time>
      </trkpt>
      <trkpt lat="39.779317" lon="-4.304200">
        <ele>2576.0</ele>
        <time>2013-07-03T15:47:01Z</time>
      </trkpt>
      <trkpt lat="39.779183" lon="-4.304167">
        <ele>2575.0</ele>
        <time>2013-07-03T15:47:02Z</time>
      </trkpt>
      <trkpt lat="39.779050" lon="-4.304117">
        <ele>2573.0</ele>
        <time>2013-07-03T15:47:03Z</time>
      </trkpt>
      <trkpt lat="39.778900" lon="-4.304050">
        <ele>2571.0</ele>
        <time>2013-07-03T15:47:04Z</time>
      </trkpt>
      <trkpt lat="39.778767" lon="-4.304000">
        <ele>2570.0</ele>
        <time>2013-07-03T15:47:05Z</time>
      </trkpt>
      <trkpt lat="39.778617" lon="-4.303950">
        <ele>2569.0</ele>
        <time>2013-07-03T15:47:06Z</time>
      </trkpt>
      <trkpt lat="39.778483" lon="-4.303933">
        <ele>2568.0</ele>
        <time>2013-07-03T15:47:07Z</time>
      </trkpt>
      <trkpt lat="39.778350" lon="-4.303900">
        <ele>2567.0</ele>
        <time>2013-07-03T15:47:08Z</time>
      </trkpt>
      <trkpt lat="39.778217" lon="-4.303850">
        <ele>2565.0</ele>
        <time>2013-07-03T15:47:09Z</time>
      </trkpt>
      <trkpt lat="39.778067" lon="-4.303800">
        <ele>2564.0</ele>
        <time>2013-07-03T15:47:10Z</time>
      </trkpt>
      <trkpt lat="39.777933" lon="-4.303750">
        <ele>2562.0</ele>
        <time>2013-07-03T15:47:11Z</time>
      </trkpt>
      <trkpt lat="39.777783" lon="-4.303700">
        <ele>2561.0</ele>
        <time>2013-07-03T15:47:12Z</time>
      </trkpt>
      <trkpt lat="39.777650" lon="-4.303667">
        <ele>2561.0</ele>
        <time>2013-07-03T15:47:13Z</time>
      </trkpt>
      <trkpt lat="39.777517" lon="-4.303633">
        <ele>2560.0</ele>
        <time>2013-07-03T15:47:14Z</time>
      </trkpt>
      <trkpt lat="39.777383" lon="-4.303583">
        <ele>2560.0</ele>
        <time>2013-07-03T15:47:15Z</time>
      </trkpt>
      <trkpt lat="39.777250" lon="-4.303550">
        <ele>2558.0</ele>
        <time>2013-07-03T15:47:16Z</time>
      </trkpt>
      <trkpt lat="39.777100" lon="-4.303517">
        <ele>2558.0</ele>
        <time>2013-07-03T15:47:17Z</time>
      </trkpt>
      <trkpt lat="39.776967" lon="-4.303467">
        <ele>2558.0</ele>
        <time>2013-07-03T15:47:18Z</time>
      </trkpt>
      <trkpt lat="39.776850" lon="-4.303433">
        <ele>2558.0</ele>
        <time>2013-07-03T15:47:19Z</time>
      </trkpt>
      <trkpt lat="39.776733" lon="-4.303383">
        <ele>2558.0</ele>
        <time>2013-07-03T15:47:20Z</time>
      </trkpt>
      <trkpt lat="39.776600" lon="-4.303350">
        <ele>2557.0</ele>
        <time>2013-07-03T15:47:21Z</time>
      </trkpt>
      <trkpt lat="39.776467" lon="-4.303317">
        <ele>2556.0</ele>
        <time>2013-07-03T15:47:22Z</time>
      </trkpt>
      <trkpt lat="39.776333" lon="-4.303283">
        <ele>2554.0</ele>
        <time>2013-07-03T15:47:23Z</time>
      </trkpt>
      <trkpt lat="39.776183" lon="-4.303250">
        <ele>2554.0</ele>
        <time>2013-07-03T15:47:24Z</time>
      </trkpt>
      <trkpt lat="39.776050" lon="-4.303217">
        <ele>2554.0</ele>
        <time>2013-07-03T15:47:25Z</time>
      </trkpt>
      <trkpt lat="39.775933" lon="-4.303167">
        <ele>2554.0</ele>
        <time>2013-07-03T15:47:26Z</time>
      </trkpt>
      <trkpt lat="39.775800" lon="-4.303117">
        <ele>2554.0</ele>
        <time>2013-07-03T15:47:27Z</time>
      </trkpt>
      <trkpt lat="39.775683" lon="-4.303083">
        <ele>2553.0</ele>
        <time>2013-07-03T15:47:28Z</time>
      </trkpt>
      <trkpt lat="39.775567" lon="-4.303050">
        <ele>2551.0</ele>
        <time>2013-07-03T15:47:29Z</time>
      </trkpt>
      <trkpt lat="39.775417" lon="-4.303017">
        <ele>2550.0</ele>
        <time>2013-07-03T15:47:30Z</time>
      </trkpt>
      <trkpt lat="39.775283" lon="-4.302983">
        <ele>2549.0</ele>
        <time>2013-07-03T15:47:31Z</time>
      </trkpt>
      <trkpt lat="39.775150" lon="-4.302950">
        <ele>2548.0</ele>
        <time>2013-07-03T15:47:32Z</time>
      </trkpt>
      <trkpt lat="39.775017" lon="-4.302917">
        <ele>2547.0</ele>
        <time>2013-07-03T15:47:33Z</time>
      </trkpt>
      <trkpt lat="39.774900" lon="-4.302867">
        <ele>2545.0</ele>
        <time>2013-07-03T15:47:34Z</time>
      </trkpt>
      <trkpt lat="39.774767" lon="-4.302833">
        <ele>2543.0</ele>
        <time>2013-07-03T15:47:35Z</time>
      </trkpt>
      <trkpt lat="39.774633" lon="-4.302783">
        <ele>2541.0</ele>
        <time>2013-07-03T15:47:36Z</time>
      </trkpt>
      <trkpt lat="39.774500" lon="-4.302733">
        <ele>2539.0</ele>
        <time>2013-07-03T15:47:37Z</time>
      </trkpt>
      <trkpt lat="39.774367" lon="-4.302683">
        <ele>2538.0</ele>
        <time>2013-07-03T15:47:38Z</time>
      </trkpt>
      <trkpt lat="39.774250" lon="-4.302650">
        <ele>2537.0</ele>
        <time>2013-07-03T15:47:39Z</time>
      </trkpt>
      <trkpt lat="39.774133" lon="-4.302600">
        <ele>2535.0</ele>
        <time>2013-07-03T15:47:40Z</time>
      </trkpt>
      <trkpt lat="39.774000" lon="-4.302567">
        <ele>2533.0</ele>
        <time>2013-07-03T15:47:41Z</time>
      </trkpt>
      <trkpt lat="39.773867" lon="-4.302517">
        <ele>2530.0</ele>
        <time>2013-07-03T15:47:42Z</time>
      </trkpt>
      <trkpt lat="39.773733" lon="-4.302467">
        <ele>2527.0</ele>
        <time>2013-07-03T15:47:43Z</time>
      </trkpt>
      <trkpt lat="39.773617" lon="-4.302400">
        <ele>2524.0</ele>
        <time>2013-07-03T15:47:44Z</time>
      </trkpt>
      <trkpt lat="39.773483" lon="-4.302350">
        <ele>2522.0</ele>
        <time>2013-07-03T15:47:45Z</time>
      </trkpt>
      <trkpt lat="39.773350" lon="-4.302283">
        <ele>2519.0</ele>
        <time>2013-07-03T15:47:46Z</time>
      </trkpt>
      <trkpt lat="39.773233" lon="-4.302217">
        <ele>2517.0</ele>
        <time>2013-07-03T15:47:47Z</time>
      </trkpt>
      <trkpt lat="39.773100" lon="-4.302150">
        <ele>2515.0</ele>
        <time>2013-07-03T15:47:48Z</time>
      </trkpt>
      <trkpt lat="39.772983" lon="-4.302083">
        <ele>2513.0</ele>
        <time>2013-07-03T15:47:49Z</time>
      </trkpt>
      <trkpt lat="39.772850" lon="-4.302033">
        <ele>2511.0</ele>
        <time>2013-07-03T15:47:50Z</time>
      </trkpt>
      <trkpt lat="39.772733" lon="-4.301967">
        <ele>2509.0</ele>
        <time>2013-07-03T15:47:51Z</time>
      </trkpt>
      <trkpt lat="39.772600" lon="-4.301900">
        <ele>2507.0</ele>
        <time>2013-07-03T15:47:52Z</time>
      </trkpt>
      <trkpt lat="39.772483" lon="-4.301833">
        <ele>2505.0</ele>
        <time>2013-07-03T15:47:53Z</time>
      </trkpt>
      <trkpt lat="39.772367" lon="-4.301767">
        <ele>2503.0</ele>
        <time>2013-07-03T15:47:54Z</time>
      </trkpt>
      <trkpt lat="39.772233" lon="-4.301700">
        <ele>2501.0</ele>
        <time>2013-07-03T15:47:55Z</time>
      </trkpt>
      <trkpt lat="39.772117" lon="-4.301633">
        <ele>2499.0</ele>
        <time>2013-07-03T15:47:56Z</time>
      </trkpt>
      <trkpt lat="39.771983" lon="-4.301583">
        <ele>2497.0</ele>
        <time>2013-07-03T15:47:57Z</time>
      </trkpt>
      <trkpt lat="39.771867" lon="-4.301517">
        <ele>2496.0</ele>
        <time>2013-07-03T15:47:58Z</time>
      </trkpt>
      <trkpt lat="39.771733" lon="-4.301450">
        <ele>2494.0</ele>
        <time>2013-07-03T15:47:59Z</time>
      </trkpt>
      <trkpt lat="39.771600" lon="-4.301383">
        <ele>2491.0</ele>
        <time>2013-07-03T15:48:00Z</time>
      </trkpt>
      <trkpt lat="39.771467" lon="-4.301333">
        <ele>2490.0</ele>
        <time>2013-07-03T15:48:01Z</time>
      </trkpt>
      <trkpt lat="39.771333" lon="-4.301267">
        <ele>2488.0</ele>
        <time>2013-07-03T15:48:02Z</time>
      </trkpt>
      <trkpt lat="39.771200" lon="-4.301217">
        <ele>2487.0</ele>
        <time>2013-07-03T15:48:03Z</time>
      </trkpt>
      <trkpt lat="39.771067" lon="-4.301167">
        <ele>2486.0</ele>
        <time>2013-07-03T15:48:04Z</time>
      </trkpt>
      <trkpt lat="39.770933" lon="-4.301100">
        <ele>2484.0</ele>
        <time>2013-07-03T15:48:05Z</time>
      </trkpt>
      <trkpt lat="39.770817" lon="-4.301050">
        <ele>2482.0</ele>
        <time>2013-07-03T15:48:06Z</time>
      </trkpt>
      <trkpt lat="39.770683" lon="-4.300983">
        <ele>2481.0</ele>
        <time>2013-07-03T15:48:07Z</time>
      </trkpt>
      <trkpt lat="39.770550" lon="-4.300917">
        <ele>2479.0</ele>
        <time>2013-07-03T15:48:08Z</time>
      </trkpt>
      <trkpt lat="39.770417" lon="-4.300867">
        <ele>2476.0</ele>
        <time>2013-07-03T15:48:09Z</time>
      </trkpt>
      <trkpt lat="39.770283" lon="-4.300800">
        <ele>2474.0</ele>
        <time>2013-07-03T15:48:10Z</time>
      </trkpt>
      <trkpt lat="39.770150" lon="-4.300750">
        <ele>2472.0</ele>
        <time>2013-07-03T15:48:11Z</time>
      </trkpt>
      <trkpt lat="39.770017" lon="-4.300683">
        <ele>2471.0</ele>
        <time>2013-07-03T15:48:12Z</time>
      </trkpt>
      <trkpt lat="39.769883" lon="-4.300633">
        <ele>2469.0</ele>
        <time>2013-07-03T15:48:13Z</time>
      </trkpt>
      <trkpt lat="39.769750" lon="-4.300567">
        <ele>2468.0</ele>
        <time>2013-07-03T15:48:14Z</time>
      </trkpt>
      <trkpt lat="39.769617" lon="-4.300517">
        <ele>2467.0</ele>
        <time>2013-07-03T15:48:15Z</time>
      </trkpt>
      <trkpt lat="39.769500" lon="-4.300450">
        <ele>2466.0</ele>
        <time>2013-07-03T15:48:16Z</time>
      </trkpt>
      <trkpt lat="39.769383" lon="-4.300400">
        <ele>2464.0</ele>
        <time>2013-07-03T15:48:17Z</time>
      </trkpt>
      <trkpt lat="39.769267" lon="-4.300333">
        <ele>2462.0</ele>
        <time>2013-07-03T15:48:18Z</time>
      </trkpt>
      <trkpt lat="39.769133" lon="-4.300267">
        <ele>2460.0</ele>
        <time>2013-07-03T15:48:19Z</time>
      </trkpt>
      <trkpt lat="39.769000" lon="-4.300200">
        <ele>2458.0</ele>
        <time>2013-07-03T15:48:20Z</time>
      </trkpt>
      <trkpt lat="39.768883" lon="-4.300133">
        <ele>2457.0</ele>
        <time>2013-07-03T15:48:21Z</time>
      </trkpt>
      <trkpt lat="39.768750" lon="-4.300083">
        <ele>2455.0</ele>
        <time>2013-07-03T15:48:22Z</time>
      </trkpt>
      <trkpt lat="39.768633" lon="-4.300017">
        <ele>2454.0</ele>
        <time>2013-07-03T15:48:23Z</time>
      </trkpt>
      <trkpt lat="39.768517" lon="-4.299950">
        <ele>2451.0</ele>
        <time>2013-07-03T15:48:24Z</time>
      </trkpt>
      <trkpt lat="39.768383" lon="-4.299900">
        <ele>2448.0</ele>
        <time>2013-07-03T15:48:25Z</time>
      </trkpt>
      <trkpt lat="39.768267" lon="-4.299833">
        <ele>2445.0</ele>
        <time>2013-07-03T15:48:26Z</time>
      </trkpt>
      <trkpt lat="39.768133" lon="-4.299767">
        <ele>2443.0</ele>
        <time>2013-07-03T15:48:27Z</time>
      </trkpt>
      <trkpt lat="39.768017" lon="-4.299700">
        <ele>2441.0</ele>
        <time>2013-07-03T15:48:28Z</time>
      </trkpt>
      <trkpt lat="39.767883" lon="-4.299633">
        <ele>2439.0</ele>
        <time>2013-07-03T15:48:29Z</time>
      </trkpt>
      <trkpt lat="39.767767" lon="-4.299550">
        <ele>2437.0</ele>
        <time>2013-07-03T15:48:30Z</time>
      </trkpt>
      <trkpt lat="39.767650" lon="-4.299483">
        <ele>2435.0</ele>
        <time>2013-07-03T15:48:31Z</time>
      </trkpt>
      <trkpt lat="39.767533" lon="-4.299417">
        <ele>2433.0</ele>
        <time>2013-07-03T15:48:32Z</time>
      </trkpt>
      <trkpt lat="39.767400" lon="-4.299350">
        <ele>2431.0</ele>
        <time>2013-07-03T15:48:33Z</time>
      </trkpt>
      <trkpt lat="39.767283" lon="-4.299300">
        <ele>2429.0</ele>
        <time>2013-07-03T15:48:34Z</time>
      </trkpt>
      <trkpt lat="39.767150" lon="-4.299233">
        <ele>2427.0</ele>
        <time>2013-07-03T15:48:35Z</time>
      </trkpt>
      <trkpt lat="39.767033" lon="-4.299183">
        <ele>2426.0</ele>
        <time>2013-07-03T15:48:36Z</time>
      </trkpt>
      <trkpt lat="39.766917" lon="-4.299133">
        <ele>2425.0</ele>
        <time>2013-07-03T15:48:37Z</time>
      </trkpt>
      <trkpt lat="39.766800" lon="-4.299083">
        <ele>2424.0</ele>
        <time>2013-07-03T15:48:38Z</time>
      </trkpt>
      <trkpt lat="39.766683" lon="-4.299033">
        <ele>2423.0</ele>
        <time>2013-07-03T15:48:39Z</time>
      </trkpt>
      <trkpt lat="39.766583" lon="-4.298967">
        <ele>2421.0</ele>
        <time>2013-07-03T15:48:40Z</time>
      </trkpt>
      <trkpt lat="39.766450" lon="-4.298917">
        <ele>2418.0</ele>
        <time>2013-07-03T15:48:41Z</time>
      </trkpt>
      <trkpt lat="39.766333" lon="-4.298850">
        <ele>2416.0</ele>
        <time>2013-07-03T15:48:42Z</time>
      </trkpt>
      <trkpt lat="39.766217" lon="-4.298783">
        <ele>2414.0</ele>
        <time>2013-07-03T15:48:43Z</time>
      </trkpt>
      <trkpt lat="39.766117" lon="-4.298733">
        <ele>2412.0</ele>
        <time>2013-07-03T15:48:44Z</time>
      </trkpt>
      <trkpt lat="39.766000" lon="-4.298667">
        <ele>2410.0</ele>
        <time>2013-07-03T15:48:45Z</time>
      </trkpt>
      <trkpt lat="39.765900" lon="-4.298600">
        <ele>2407.0</ele>
        <time>2013-07-03T15:48:46Z</time>
      </trkpt>
      <trkpt lat="39.765800" lon="-4.298517">
        <ele>2405.0</ele>
        <time>2013-07-03T15:48:47Z</time>
      </trkpt>
      <trkpt lat="39.765700" lon="-4.298450">
        <ele>2402.0</ele>
        <time>2013-07-03T15:48:48Z</time>
      </trkpt>
      <trkpt lat="39.765583" lon="-4.298383">
        <ele>2400.0</ele>
        <time>2013-07-03T15:48:49Z</time>
      </trkpt>
      <trkpt lat="39.765467" lon="-4.298317">
        <ele>2397.0</ele>
        <time>2013-07-03T15:48:50Z</time>
      </trkpt>
      <trkpt lat="39.765350" lon="-4.298267">
        <ele>2394.0</ele>
        <time>2013-07-03T15:48:51Z</time>
      </trkpt>
      <trkpt lat="39.765233" lon="-4.298217">
        <ele>2392.0</ele>
        <time>2013-07-03T15:48:52Z</time>
      </trkpt>
      <trkpt lat="39.765133" lon="-4.298183">
        <ele>2391.0</ele>
        <time>2013-07-03T15:48:53Z</time>
      </trkpt>
      <trkpt lat="39.765017" lon="-4.298150">
        <ele>2389.0</ele>
        <time>2013-07-03T15:48:54Z</time>
      </trkpt>
      <trkpt lat="39.764900" lon="-4.298117">
        <ele>2387.0</ele>
        <time>2013-07-03T15:48:55Z</time>
      </trkpt>
      <trkpt lat="39.764800" lon="-4.298083">
        <ele>2385.0</ele>
        <time>2013-07-03T15:48:56Z</time>
      </trkpt>
      <trkpt lat="39.764683" lon="-4.298067">
        <ele>2382.0</ele>
        <time>2013-07-03T15:48:57Z</time>
      </trkpt>
      <trkpt lat="39.764550" lon="-4.298050">
        <ele>2380.0</ele>
        <time>2013-07-03T15:48:58Z</time>
      </trkpt>
      <trkpt lat="39.764433" lon="-4.298033">
        <ele>2377.0</ele>
        <time>2013-07-03T15:48:59Z</time>
      </trkpt>
      <trkpt lat="39.764317" lon="-4.298000">
        <ele>2375.0</ele>
        <time>2013-07-03T15:49:00Z</time>
      </trkpt>
      <trkpt lat="39.764200" lon="-4.297983">
        <ele>2373.0</ele>
        <time>2013-07-03T15:49:01Z</time>
      </trkpt>
      <trkpt lat="39.764083" lon="-4.297950">
        <ele>2371.0</ele>
        <time>2013-07-03T15:49:02Z</time>
      </trkpt>
      <trkpt lat="39.763967" lon="-4.297917">
        <ele>2368.0</ele>
        <time>2013-07-03T15:49:03Z</time>
      </trkpt>
      <trkpt lat="39.763850" lon="-4.297900">
        <ele>2366.0</ele>
        <time>2013-07-03T15:49:04Z</time>
      </trkpt>
      <trkpt lat="39.763733" lon="-4.297867">
        <ele>2363.0</ele>
        <time>2013-07-03T15:49:05Z</time>
      </trkpt>
      <trkpt lat="39.763617" lon="-4.297833">
        <ele>2360.0</ele>
        <time>2013-07-03T15:49:06Z</time>
      </trkpt>
      <trkpt lat="39.763500" lon="-4.297800">
        <ele>2357.0</ele>
        <time>2013-07-03T15:49:07Z</time>
      </trkpt>
      <trkpt lat="39.763383" lon="-4.297750">
        <ele>2355.0</ele>
        <time>2013-07-03T15:49:08Z</time>
      </trkpt>
      <trkpt lat="39.763267" lon="-4.297700">
        <ele>2353.0</ele>
        <time>2013-07-03T15:49:09Z</time>
      </trkpt>
      <trkpt lat="39.763167" lon="-4.297650">
        <ele>2351.0</ele>
        <time>2013-07-03T15:49:10Z</time>
      </trkpt>
      <trkpt lat="39.763067" lon="-4.297600">
        <ele>2349.0</ele>
        <time>2013-07-03T15:49:11Z</time>
      </trkpt>
      <trkpt lat="39.762950" lon="-4.297533">
        <ele>2346.0</ele>
        <time>2013-07-03T15:49:12Z</time>
      </trkpt>
      <trkpt lat="39.762833" lon="-4.297483">
        <ele>2344.0</ele>
        <time>2013-07-03T15:49:13Z</time>
      </trkpt>
      <trkpt lat="39.762733" lon="-4.297417">
        <ele>2341.0</ele>
        <time>2013-07-03T15:49:14Z</time>
      </trkpt>
      <trkpt lat="39.762617" lon="-4.297350">
        <ele>2339.0</ele>
        <time>2013-07-03T15:49:15Z</time>
      </trkpt>
      <trkpt lat="39.762517" lon="-4.297267">
        <ele>2336.0</ele>
        <time>2013-07-03T15:49:16Z</time>
      </trkpt>
      <trkpt lat="39.762400" lon="-4.297200">
        <ele>2334.0</ele>
        <time>2013-07-03T15:49:17Z</time>
      </trkpt>
      <trkpt lat="39.762300" lon="-4.297117">
        <ele>2331.0</ele>
        <time>2013-07-03T15:49:18Z</time>
      </trkpt>
      <trkpt lat="39.762183" lon="-4.297050">
        <ele>2328.0</ele>
        <time>2013-07-03T15:49:19Z</time>
      </trkpt>
      <trkpt lat="39.762083" lon="-4.296967">
        <ele>2325.0</ele>
        <time>2013-07-03T15:49:20Z</time>
      </trkpt>
      <trkpt lat="39.761967" lon="-4.296900">
        <ele>2322.0</ele>
        <time>2013-07-03T15:49:21Z</time>
      </trkpt>
      <trkpt lat="39.761850" lon="-4.296833">
        <ele>2319.0</ele>
        <time>2013-07-03T15:49:22Z</time>
      </trkpt>
      <trkpt lat="39.761733" lon="-4.296750">
        <ele>2317.0</ele>
        <time>2013-07-03T15:49:23Z</time>
      </trkpt>
      <trkpt lat="39.761633" lon="-4.296683">
        <ele>2314.0</ele>
        <time>2013-07-03T15:49:24Z</time>
      </trkpt>
      <trkpt lat="39.761533" lon="-4.296617">
        <ele>2312.0</ele>
        <time>2013-07-03T15:49:25Z</time>
      </trkpt>
      <trkpt lat="39.761433" lon="-4.296567">
        <ele>2308.0</ele>
        <time>2013-07-03T15:49:26Z</time>
      </trkpt>
      <trkpt lat="39.761317" lon="-4.296500">
        <ele>2305.0</ele>
        <time>2013-07-03T15:49:27Z</time>
      </trkpt>
      <trkpt lat="39.761217" lon="-4.296433">
        <ele>2301.0</ele>
        <time>2013-07-03T15:49:28Z</time>
      </trkpt>
      <trkpt lat="39.761100" lon="-4.296367">
        <ele>2298.0</ele>
        <time>2013-07-03T15:49:29Z</time>
      </trkpt>
      <trkpt lat="39.761000" lon="-4.296300">
        <ele>2294.0</ele>
        <time>2013-07-03T15:49:30Z</time>
      </trkpt>
      <trkpt lat="39.760900" lon="-4.296250">
        <ele>2292.0</ele>
        <time>2013-07-03T15:49:31Z</time>
      </trkpt>
      <trkpt lat="39.760800" lon="-4.296183">
        <ele>2289.0</ele>
        <time>2013-07-03T15:49:32Z</time>
      </trkpt>
      <trkpt lat="39.760700" lon="-4.296117">
        <ele>2286.0</ele>
        <time>2013-07-03T15:49:33Z</time>
      </trkpt>
      <trkpt lat="39.760600" lon="-4.296050">
        <ele>2283.0</ele>
        <time>2013-07-03T15:49:34Z</time>
      </trkpt>
      <trkpt lat="39.760500" lon="-4.295983">
        <ele>2279.0</ele>
        <time>2013-07-03T15:49:35Z</time>
      </trkpt>
      <trkpt lat="39.760400" lon="-4.295917">
        <ele>2276.0</ele>
        <time>2013-07-03T15:49:36Z</time>
      </trkpt>
      <trkpt lat="39.760283" lon="-4.295867">
        <ele>2273.0</ele>
        <time>2013-07-03T15:49:37Z</time>
      </trkpt>
      <trkpt lat="39.760183" lon="-4.295800">
        <ele>2271.0</ele>
        <time>2013-07-03T15:49:38Z</time>
      </trkpt>
      <trkpt lat="39.760100" lon="-4.295750">
        <ele>2268.0</ele>
        <time>2013-07-03T15:49:39Z</time>
      </trkpt>
      <trkpt lat="39.759983" lon="-4.295683">
        <ele>2264.0</ele>
        <time>2013-07-03T15:49:40Z</time>
      </trkpt>
      <trkpt lat="39.759883" lon="-4.295633">
        <ele>2261.0</ele>
        <time>2013-07-03T15:49:41Z</time>
      </trkpt>
      <trkpt lat="39.759783" lon="-4.295583">
        <ele>2258.0</ele>
        <time>2013-07-03T15:49:42Z</time>
      </trkpt>
      <trkpt lat="39.759683" lon="-4.295517">
        <ele>2255.0</ele>
        <time>2013-07-03T15:49:43Z</time>
      </trkpt>
      <trkpt lat="39.759583" lon="-4.295450">
        <ele>2253.0</ele>
        <time>2013-07-03T15:49:44Z</time>
      </trkpt>
      <trkpt lat="39.759500" lon="-4.295400">
        <ele>2251.0</ele>
        <time>2013-07-03T15:49:45Z</time>
      </trkpt>
      <trkpt lat="39.759400" lon="-4.295333">
        <ele>2248.0</ele>
        <time>2013-07-03T15:49:46Z</time>
      </trkpt>
      <trkpt lat="39.759317" lon="-4.295283">
        <ele>2245.0</ele>
        <time>2013-07-03T15:49:47Z</time>
      </trkpt>
      <trkpt lat="39.759217" lon="-4.295233">
        <ele>2241.0</ele>
        <time>2013-07-03T15:49:48Z</time>
      </trkpt>
      <trkpt lat="39.759117" lon="-4.295167">
        <ele>2238.0</ele>
        <time>2013-07-03T15:49:49Z</time>
      </trkpt>
      <trkpt lat="39.759017" lon="-4.295100">
        <ele>2235.0</ele>
        <time>2013-07-03T15:49:50Z</time>
      </trkpt>
      <trkpt lat="39.758917" lon="-4.295050">
        <ele>2234.0</ele>
        <time>2013-07-03T15:49:51Z</time>
      </trkpt>
      <trkpt lat="39.758833" lon="-4.295000">
        <ele>2232.0</ele>
        <time>2013-07-03T15:49:52Z</time>
      </trkpt>
      <trkpt lat="39.758733" lon="-4.294967">
        <ele>2230.0</ele>
        <time>2013-07-03T15:49:53Z</time>
      </trkpt>
      <trkpt lat="39.758650" lon="-4.294933">
        <ele>2228.0</ele>
        <time>2013-07-03T15:49:54Z</time>
      </trkpt>
      <trkpt lat="39.758567" lon="-4.294883">
        <ele>2225.0</ele>
        <time>2013-07-03T15:49:55Z</time>
      </trkpt>
      <trkpt lat="39.758467" lon="-4.294833">
        <ele>2221.0</ele>
        <time>2013-07-03T15:49:56Z</time>
      </trkpt>
      <trkpt lat="39.758383" lon="-4.294783">
        <ele>2217.0</ele>
        <time>2013-07-03T15:49:57Z</time>
      </trkpt>
      <trkpt lat="39.758283" lon="-4.294733">
        <ele>2214.0</ele>
        <time>2013-07-03T15:49:58Z</time>
      </trkpt>
      <trkpt lat="39.758183" lon="-4.294700">
        <ele>2211.0</ele>
        <time>2013-07-03T15:49:59Z</time>
      </trkpt>
      <trkpt lat="39.758083" lon="-4.294683">
        <ele>2209.0</ele>
        <time>2013-07-03T15:50:00Z</time>
      </trkpt>
      <trkpt lat="39.758000" lon="-4.294650">
        <ele>2206.0</ele>
        <time>2013-07-03T15:50:01Z</time>
      </trkpt>
      <trkpt lat="39.757917" lon="-4.294633">
        <ele>2204.0</ele>
        <time>2013-07-03T15:50:02Z</time>
      </trkpt>
      <trkpt lat="39.757817" lon="-4.294617">
        <ele>2200.0</ele>
        <time>2013-07-03T15:50:03Z</time>
      </trkpt>
      <trkpt lat="39.757717" lon="-4.294600">
        <ele>2197.0</ele>
        <time>2013-07-03T15:50:04Z</time>
      </trkpt>
      <trkpt lat="39.757617" lon="-4.294583">
        <ele>2193.0</ele>
        <time>2013-07-03T15:50:05Z</time>
      </trkpt>
      <trkpt lat="39.757533" lon="-4.294550">
        <ele>2190.0</ele>
        <time>2013-07-03T15:50:06Z</time>
      </trkpt>
      <trkpt lat="39.757433" lon="-4.294517">
        <ele>2187.0</ele>
        <time>2013-07-03T15:50:07Z</time>
      </trkpt>
      <trkpt lat="39.757333" lon="-4.294500">
        <ele>2186.0</ele>
        <time>2013-07-03T15:50:08Z</time>
      </trkpt>
      <trkpt lat="39.757250" lon="-4.294500">
        <ele>2185.0</ele>
        <time>2013-07-03T15:50:09Z</time>
      </trkpt>
      <trkpt lat="39.757167" lon="-4.294483">
        <ele>2184.0</ele>
        <time>2013-07-03T15:50:10Z</time>
      </trkpt>
      <trkpt lat="39.757100" lon="-4.294467">
        <ele>2182.0</ele>
        <time>2013-07-03T15:50:11Z</time>
      </trkpt>
      <trkpt lat="39.757033" lon="-4.294450">
        <ele>2180.0</ele>
        <time>2013-07-03T15:50:12Z</time>
      </trkpt>
      <trkpt lat="39.756950" lon="-4.294433">
        <ele>2177.0</ele>
        <time>2013-07-03T15:50:13Z</time>
      </trkpt>
      <trkpt lat="39.756850" lon="-4.294417">
        <ele>2174.0</ele>
        <time>2013-07-03T15:50:14Z</time>
      </trkpt>
      <trkpt lat="39.756783" lon="-4.294383">
        <ele>2172.0</ele>
        <time>2013-07-03T15:50:15Z</time>
      </trkpt>
      <trkpt lat="39.756700" lon="-4.294350">
        <ele>2170.0</ele>
        <time>2013-07-03T15:50:16Z</time>
      </trkpt>
      <trkpt lat="39.756650" lon="-4.294333">
        <ele>2167.0</ele>
        <time>2013-07-03T15:50:17Z</time>
      </trkpt>
      <trkpt lat="39.756583" lon="-4.294300">
        <ele>2162.0</ele>
        <time>2013-07-03T15:50:18Z</time>
      </trkpt>
      <trkpt lat="39.756517" lon="-4.294267">
        <ele>2157.0</ele>
        <time>2013-07-03T15:50:19Z</time>
      </trkpt>
      <trkpt lat="39.756417" lon="-4.294200">
        <ele>2150.0</ele>
        <time>2013-07-03T15:50:20Z</time>
      </trkpt>
      <trkpt lat="39.756317" lon="-4.294133">
        <ele>2144.0</ele>
        <time>2013-07-03T15:50:21Z</time>
      </trkpt>
      <trkpt lat="39.756200" lon="-4.294083">
        <ele>2141.0</ele>
        <time>2013-07-03T15:50:22Z</time>
      </trkpt>
      <trkpt lat="39.756083" lon="-4.294067">
        <ele>2142.0</ele>
        <time>2013-07-03T15:50:23Z</time>
      </trkpt>
      <trkpt lat="39.756000" lon="-4.294050">
        <ele>2142.0</ele>
        <time>2013-07-03T15:50:24Z</time>
      </trkpt>
      <trkpt lat="39.755933" lon="-4.294050">
        <ele>2140.0</ele>
        <time>2013-07-03T15:50:25Z</time>
      </trkpt>
      <trkpt lat="39.755867" lon="-4.294033">
        <ele>2137.0</ele>
        <time>2013-07-03T15:50:26Z</time>
      </trkpt>
      <trkpt lat="39.755783" lon="-4.294000">
        <ele>2133.0</ele>
        <time>2013-07-03T15:50:27Z</time>
      </trkpt>
      <trkpt lat="39.755667" lon="-4.293983">
        <ele>2129.0</ele>
        <time>2013-07-03T15:50:28Z</time>
      </trkpt>
      <trkpt lat="39.755550" lon="-4.293950">
        <ele>2125.0</ele>
        <time>2013-07-03T15:50:29Z</time>
      </trkpt>
      <trkpt lat="39.755450" lon="-4.293917">
        <ele>2124.0</ele>
        <time>2013-07-03T15:50:30Z</time>
      </trkpt>
      <trkpt lat="39.755333" lon="-4.293900">
        <ele>2123.0</ele>
        <time>2013-07-03T15:50:31Z</time>
      </trkpt>
      <trkpt lat="39.755250" lon="-4.293867">
        <ele>2122.0</ele>
        <time>2013-07-03T15:50:32Z</time>
      </trkpt>
      <trkpt lat="39.755167" lon="-4.293833">
        <ele>2120.0</ele>
        <time>2013-07-03T15:50:33Z</time>
      </trkpt>
      <trkpt lat="39.755083" lon="-4.293817">
        <ele>2118.0</ele>
        <time>2013-07-03T15:50:34Z</time>
      </trkpt>
      <trkpt lat="39.754983" lon="-4.293783">
        <ele>2116.0</ele>
        <time>2013-07-03T15:50:35Z</time>
      </trkpt>
      <trkpt lat="39.754883" lon="-4.293750">
        <ele>2114.0</ele>
        <time>2013-07-03T15:50:36Z</time>
      </trkpt>
      <trkpt lat="39.754783" lon="-4.293717">
        <ele>2113.0</ele>
        <time>2013-07-03T15:50:37Z</time>
      </trkpt>
      <trkpt lat="39.754683" lon="-4.293683">
        <ele>2113.0</ele>
        <time>2013-07-03T15:50:38Z</time>
      </trkpt>
      <trkpt lat="39.754600" lon="-4.293650">
        <ele>2113.0</ele>
        <time>2013-07-03T15:50:39Z</time>
      </trkpt>
      <trkpt lat="39.754533" lon="-4.293633">
        <ele>2113.0</ele>
        <time>2013-07-03T15:50:40Z</time>
      </trkpt>
      <trkpt lat="39.754467" lon="-4.293600">
        <ele>2112.0</ele>
        <time>2013-07-03T15:50:41Z</time>
      </trkpt>
      <trkpt lat="39.754400" lon="-4.293567">
        <ele>2110.0</ele>
        <time>2013-07-03T15:50:42Z</time>
      </trkpt>
      <trkpt lat="39.754317" lon="-4.293533">
        <ele>2107.0</ele>
        <time>2013-07-03T15:50:43Z</time>
      </trkpt>
      <trkpt lat="39.754217" lon="-4.293500">
        <ele>2105.0</ele>
        <time>2013-07-03T15:50:44Z</time>
      </trkpt>
      <trkpt lat="39.754117" lon="-4.293467">
        <ele>2104.0</ele>
        <time>2013-07-03T15:50:45Z</time>
      </trkpt>
      <trkpt lat="39.754033" lon="-4.293400">
        <ele>2104.0</ele>
        <time>2013-07-03T15:50:46Z</time>
      </trkpt>
      <trkpt lat="39.753950" lon="-4.293350">
        <ele>2104.0</ele>
        <time>2013-07-03T15:50:47Z</time>
      </trkpt>
      <trkpt lat="39.753883" lon="-4.293300">
        <ele>2105.0</ele>
        <time>2013-07-03T15:50:48Z</time>
      </trkpt>
      <trkpt lat="39.753817" lon="-4.293283">
        <ele>2105.0</ele>
        <time>2013-07-03T15:50:49Z</time>
      </trkpt>
      <trkpt lat="39.753750" lon="-4.293250">
        <ele>2105.0</ele>
        <time>2013-07-03T15:50:50Z</time>
      </trkpt>
      <trkpt lat="39.753700" lon="-4.293233">
        <ele>2103.0</ele>
        <time>2013-07-03T15:50:51Z</time>
      </trkpt>
      <trkpt lat="39.753617" lon="-4.293200">
        <ele>2101.0</ele>
        <time>2013-07-03T15:50:52Z</time>
      </trkpt>
      <trkpt lat="39.753533" lon="-4.293167">
        <ele>2098.0</ele>
        <time>2013-07-03T15:50:53Z</time>
      </trkpt>
      <trkpt lat="39.753450" lon="-4.293133">
        <ele>2097.0</ele>
        <time>2013-07-03T15:50:54Z</time>
      </trkpt>
      <trkpt lat="39.753367" lon="-4.293083">
        <ele>2095.0</ele>
        <time>2013-07-03T15:50:55Z</time>
      </trkpt>
      <trkpt lat="39.753300" lon="-4.293033">
        <ele>2094.0</ele>
        <time>2013-07-03T15:50:56Z</time>
      </trkpt>
      <trkpt lat="39.753217" lon="-4.292983">
        <ele>2093.0</ele>
        <time>2013-07-03T15:50:57Z</time>
      </trkpt>
      <trkpt lat="39.753117" lon="-4.292933">
        <ele>2092.0</ele>
        <time>2013-07-03T15:50:58Z</time>
      </trkpt>
      <trkpt lat="39.753033" lon="-4.292867">
        <ele>2091.0</ele>
        <time>2013-07-03T15:50:59Z</time>
      </trkpt>
      <trkpt lat="39.752950" lon="-4.292817">
        <ele>2091.0</ele>
        <time>2013-07-03T15:51:00Z</time>
      </trkpt>
      <trkpt lat="39.752883" lon="-4.292783">
        <ele>2092.0</ele>
        <time>2013-07-03T15:51:01Z</time>
      </trkpt>
      <trkpt lat="39.752817" lon="-4.292767">
        <ele>2091.0</ele>
        <time>2013-07-03T15:51:02Z</time>
      </trkpt>
      <trkpt lat="39.752733" lon="-4.292767">
        <ele>2091.0</ele>
        <time>2013-07-03T15:51:03Z</time>
      </trkpt>
      <trkpt lat="39.752667" lon="-4.292733">
        <ele>2092.0</ele>
        <time>2013-07-03T15:51:04Z</time>
      </trkpt>
      <trkpt lat="39.752617" lon="-4.292700">
        <ele>2094.0</ele>
        <time>2013-07-03T15:51:05Z</time>
      </trkpt>
      <trkpt lat="39.752567" lon="-4.292667">
        <ele>2095.0</ele>
        <time>2013-07-03T15:51:06Z</time>
      </trkpt>
      <trkpt lat="39.752533" lon="-4.292633">
        <ele>2097.0</ele>
        <time>2013-07-03T15:51:07Z</time>
      </trkpt>
      <trkpt lat="39.752500" lon="-4.292617">
        <ele>2098.0</ele>
        <time>2013-07-03T15:51:08Z</time>
      </trkpt>
      <trkpt lat="39.752467" lon="-4.292617">
        <ele>2098.0</ele>
        <time>2013-07-03T15:51:09Z</time>
      </trkpt>
      <trkpt lat="39.752417" lon="-4.292633">
        <ele>2098.0</ele>
        <time>2013-07-03T15:51:10Z</time>
      </trkpt>
      <trkpt lat="39.752367" lon="-4.292667">
        <ele>2098.0</ele>
        <time>2013-07-03T15:51:11Z</time>
      </trkpt>
      <trkpt lat="39.752333" lon="-4.292733">
        <ele>2098.0</ele>
        <time>2013-07-03T15:51:12Z</time>
      </trkpt>
      <trkpt lat="39.752317" lon="-4.292800">
        <ele>2098.0</ele>
        <time>2013-07-03T15:51:13Z</time>
      </trkpt>
      <trkpt lat="39.752317" lon="-4.292900">
        <ele>2098.0</ele>
        <time>2013-07-03T15:51:14Z</time>
      </trkpt>
      <trkpt lat="39.752333" lon="-4.293000">
        <ele>2098.0</ele>
        <time>2013-07-03T15:51:15Z</time>
      </trkpt>
      <trkpt lat="39.752367" lon="-4.293100">
        <ele>2099.0</ele>
        <time>2013-07-03T15:51:16Z</time>
      </trkpt>
      <trkpt lat="39.752417" lon="-4.293167">
        <ele>2100.0</ele>
        <time>2013-07-03T15:51:17Z</time>
      </trkpt>
      <trkpt lat="39.752450" lon="-4.293233">
        <ele>2101.0</ele>
        <time>2013-07-03T15:51:18Z</time>
      </trkpt>
      <trkpt lat="39.752517" lon="-4.293283">
        <ele>2102.0</ele>
        <time>2013-07-03T15:51:19Z</time>
      </trkpt>
      <trkpt lat="39.752567" lon="-4.293350">
        <ele>2101.0</ele>
        <time>2013-07-03T15:51:20Z</time>
      </trkpt>
      <trkpt lat="39.752633" lon="-4.293400">
        <ele>2101.0</ele>
        <time>2013-07-03T15:51:21Z</time>
      </trkpt>
      <trkpt lat="39.752717" lon="-4.293450">
        <ele>2101.0</ele>
        <time>2013-07-03T15:51:22Z</time>
      </trkpt>
      <trkpt lat="39.752800" lon="-4.293500">
        <ele>2102.0</ele>
        <time>2013-07-03T15:51:23Z</time>
      </trkpt>
      <trkpt lat="39.752883" lon="-4.293517">
        <ele>2103.0</ele>
        <time>2013-07-03T15:51:24Z</time>
      </trkpt>
      <trkpt lat="39.752967" lon="-4.293500">
        <ele>2103.0</ele>
        <time>2013-07-03T15:51:25Z</time>
      </trkpt>
      <trkpt lat="39.753033" lon="-4.293467">
        <ele>2103.0</ele>
        <time>2013-07-03T15:51:26Z</time>
      </trkpt>
      <trkpt lat="39.753117" lon="-4.293417">
        <ele>2102.0</ele>
        <time>2013-07-03T15:51:27Z</time>
      </trkpt>
      <trkpt lat="39.753217" lon="-4.293350">
        <ele>2101.0</ele>
        <time>2013-07-03T15:51:28Z</time>
      </trkpt>
      <trkpt lat="39.753283" lon="-4.293267">
        <ele>2101.0</ele>
        <time>2013-07-03T15:51:29Z</time>
      </trkpt>
      <trkpt lat="39.753350" lon="-4.293167">
        <ele>2100.0</ele>
        <time>2013-07-03T15:51:30Z</time>
      </trkpt>
      <trkpt lat="39.753383" lon="-4.293050">
        <ele>2099.0</ele>
        <time>2013-07-03T15:51:31Z</time>
      </trkpt>
      <trkpt lat="39.753400" lon="-4.292933">
        <ele>2099.0</ele>
        <time>2013-07-03T15:51:32Z</time>
      </trkpt>
      <trkpt lat="39.753400" lon="-4.292817">
        <ele>2098.0</ele>
        <time>2013-07-03T15:51:33Z</time>
      </trkpt>
      <trkpt lat="39.753367" lon="-4.292733">
        <ele>2098.0</ele>
        <time>2013-07-03T15:51:34Z</time>
      </trkpt>
      <trkpt lat="39.753350" lon="-4.292667">
        <ele>2097.0</ele>
        <time>2013-07-03T15:51:35Z</time>
      </trkpt>
      <trkpt lat="39.753317" lon="-4.292600">
        <ele>2096.0</ele>
        <time>2013-07-03T15:51:36Z</time>
      </trkpt>
      <trkpt lat="39.753300" lon="-4.292533">
        <ele>2094.0</ele>
        <time>2013-07-03T15:51:37Z</time>
      </trkpt>
      <trkpt lat="39.753250" lon="-4.292450">
        <ele>2093.0</ele>
        <time>2013-07-03T15:51:38Z</time>
      </trkpt>
      <trkpt lat="39.753200" lon="-4.292367">
        <ele>2092.0</ele>
        <time>2013-07-03T15:51:39Z</time>
      </trkpt>
      <trkpt lat="39.753133" lon="-4.292317">
        <ele>2092.0</ele>
        <time>2013-07-03T15:51:40Z</time>
      </trkpt>
      <trkpt lat="39.753067" lon="-4.292267">
        <ele>2092.0</ele>
        <time>2013-07-03T15:51:41Z</time>
      </trkpt>
      <trkpt lat="39.753000" lon="-4.292217">
        <ele>2092.0</ele>
        <time>2013-07-03T15:51:42Z</time>
      </trkpt>
      <trkpt lat="39.752933" lon="-4.292183">
        <ele>2092.0</ele>
        <time>2013-07-03T15:51:43Z</time>
      </trkpt>
      <trkpt lat="39.752883" lon="-4.292133">
        <ele>2092.0</ele>
        <time>2013-07-03T15:51:44Z</time>
      </trkpt>
      <trkpt lat="39.752833" lon="-4.292083">
        <ele>2093.0</ele>
        <time>2013-07-03T15:51:45Z</time>
      </trkpt>
      <trkpt lat="39.752800" lon="-4.292033">
        <ele>2093.0</ele>
        <time>2013-07-03T15:51:46Z</time>
      </trkpt>
      <trkpt lat="39.752750" lon="-4.292000">
        <ele>2093.0</ele>
        <time>2013-07-03T15:51:47Z</time>
      </trkpt>
      <trkpt lat="39.752700" lon="-4.291983">
        <ele>2092.0</ele>
        <time>2013-07-03T15:51:48Z</time>
      </trkpt>
      <trkpt lat="39.752633" lon="-4.291967">
        <ele>2092.0</ele>
        <time>2013-07-03T15:51:49Z</time>
      </trkpt>
      <trkpt lat="39.752567" lon="-4.291967">
        <ele>2092.0</ele>
        <time>2013-07-03T15:51:50Z</time>
      </trkpt>
      <trkpt lat="39.752500" lon="-4.291967">
        <ele>2093.0</ele>
        <time>2013-07-03T15:51:51Z</time>
      </trkpt>
      <trkpt lat="39.752433" lon="-4.291950">
        <ele>2094.0</ele>
        <time>2013-07-03T15:51:52Z</time>
      </trkpt>
      <trkpt lat="39.752367" lon="-4.291950">
        <ele>2094.0</ele>
        <time>2013-07-03T15:51:53Z</time>
      </trkpt>
      <trkpt lat="39.752317" lon="-4.291917">
        <ele>2094.0</ele>
        <time>2013-07-03T15:51:54Z</time>
      </trkpt>
      <trkpt lat="39.752267" lon="-4.291900">
        <ele>2094.0</ele>
        <time>2013-07-03T15:51:55Z</time>
      </trkpt>
      <trkpt lat="39.752217" lon="-4.291867">
        <ele>2092.0</ele>
        <time>2013-07-03T15:51:56Z</time>
      </trkpt>
      <trkpt lat="39.752133" lon="-4.291850">
        <ele>2091.0</ele>
        <time>2013-07-03T15:51:57Z</time>
      </trkpt>
      <trkpt lat="39.752067" lon="-4.291833">
        <ele>2091.0</ele>
        <time>2013-07-03T15:51:58Z</time>
      </trkpt>
      <trkpt lat="39.752000" lon="-4.291800">
        <ele>2091.0</ele>
        <time>2013-07-03T15:51:59Z</time>
      </trkpt>
      <trkpt lat="39.751933" lon="-4.291767">
        <ele>2090.0</ele>
        <time>2013-07-03T15:52:00Z</time>
      </trkpt>
      <trkpt lat="39.751867" lon="-4.291733">
        <ele>2090.0</ele>
        <time>2013-07-03T15:52:01Z</time>
      </trkpt>
      <trkpt lat="39.751800" lon="-4.291717">
        <ele>2089.0</ele>
        <time>2013-07-03T15:52:02Z</time>
      </trkpt>
      <trkpt lat="39.751717" lon="-4.291717">
        <ele>2088.0</ele>
        <time>2013-07-03T15:52:03Z</time>
      </trkpt>
      <trkpt lat="39.751650" lon="-4.291700">
        <ele>2087.0</ele>
        <time>2013-07-03T15:52:04Z</time>
      </trkpt>
      <trkpt lat="39.751567" lon="-4.291683">
        <ele>2087.0</ele>
        <time>2013-07-03T15:52:05Z</time>
      </trkpt>
      <trkpt lat="39.751500" lon="-4.291683">
        <ele>2086.0</ele>
        <time>2013-07-03T15:52:06Z</time>
      </trkpt>
      <trkpt lat="39.751433" lon="-4.291650">
        <ele>2086.0</ele>
        <time>2013-07-03T15:52:07Z</time>
      </trkpt>
      <trkpt lat="39.751367" lon="-4.291617">
        <ele>2084.0</ele>
        <time>2013-07-03T15:52:08Z</time>
      </trkpt>
      <trkpt lat="39.751300" lon="-4.291567">
        <ele>2083.0</ele>
        <time>2013-07-03T15:52:09Z</time>
      </trkpt>
      <trkpt lat="39.751233" lon="-4.291500">
        <ele>2081.0</ele>
        <time>2013-07-03T15:52:10Z</time>
      </trkpt>
      <trkpt lat="39.751167" lon="-4.291433">
        <ele>2079.0</ele>
        <time>2013-07-03T15:52:11Z</time>
      </trkpt>
      <trkpt lat="39.751083" lon="-4.291383">
        <ele>2078.0</ele>
        <time>2013-07-03T15:52:12Z</time>
      </trkpt>
      <trkpt lat="39.750983" lon="-4.291333">
        <ele>2077.0</ele>
        <time>2013-07-03T15:52:13Z</time>
      </trkpt>
      <trkpt lat="39.750900" lon="-4.291267">
        <ele>2076.0</ele>
        <time>2013-07-03T15:52:14Z</time>
      </trkpt>
      <trkpt lat="39.750817" lon="-4.291217">
        <ele>2077.0</ele>
        <time>2013-07-03T15:52:15Z</time>
      </trkpt>
      <trkpt lat="39.750750" lon="-4.291150">
        <ele>2077.0</ele>
        <time>2013-07-03T15:52:16Z</time>
      </trkpt>
      <trkpt lat="39.750683" lon="-4.291100">
        <ele>2077.0</ele>
        <time>2013-07-03T15:52:17Z</time>
      </trkpt>
      <trkpt lat="39.750617" lon="-4.291067">
        <ele>2076.0</ele>
        <time>2013-07-03T15:52:18Z</time>
      </trkpt>
      <trkpt lat="39.750533" lon="-4.291017">
        <ele>2074.0</ele>
        <time>2013-07-03T15:52:19Z</time>
      </trkpt>
      <trkpt lat="39.750433" lon="-4.290967">
        <ele>2072.0</ele>
        <time>2013-07-03T15:52:20Z</time>
      </trkpt>
      <trkpt lat="39.750350" lon="-4.290900">
        <ele>2071.0</ele>
        <time>2013-07-03T15:52:21Z</time>
      </trkpt>
      <trkpt lat="39.750267" lon="-4.290833">
        <ele>2071.0</ele>
        <time>2013-07-03T15:52:22Z</time>
      </trkpt>
      <trkpt lat="39.750200" lon="-4.290767">
        <ele>2071.0</ele>
        <time>2013-07-03T15:52:23Z</time>
      </trkpt>
      <trkpt lat="39.750133" lon="-4.290700">
        <ele>2070.0</ele>
        <time>2013-07-03T15:52:24Z</time>
      </trkpt>
      <trkpt lat="39.750050" lon="-4.290633">
        <ele>2068.0</ele>
        <time>2013-07-03T15:52:25Z</time>
      </trkpt>
      <trkpt lat="39.749983" lon="-4.290550">
        <ele>2065.0</ele>
        <time>2013-07-03T15:52:26Z</time>
      </trkpt>
      <trkpt lat="39.749900" lon="-4.290467">
        <ele>2063.0</ele>
        <time>2013-07-03T15:52:27Z</time>
      </trkpt>
      <trkpt lat="39.749850" lon="-4.290383">
        <ele>2061.0</ele>
        <time>2013-07-03T15:52:28Z</time>
      </trkpt>
      <trkpt lat="39.749800" lon="-4.290300">
        <ele>2058.0</ele>
        <time>2013-07-03T15:52:29Z</time>
      </trkpt>
      <trkpt lat="39.749750" lon="-4.290217">
        <ele>2054.0</ele>
        <time>2013-07-03T15:52:30Z</time>
      </trkpt>
      <trkpt lat="39.749683" lon="-4.290133">
        <ele>2050.0</ele>
        <time>2013-07-03T15:52:31Z</time>
      </trkpt>
      <trkpt lat="39.749600" lon="-4.290033">
        <ele>2044.0</ele>
        <time>2013-07-03T15:52:32Z</time>
      </trkpt>
      <trkpt lat="39.749517" lon="-4.289933">
        <ele>2038.0</ele>
        <time>2013-07-03T15:52:33Z</time>
      </trkpt>
      <trkpt lat="39.749450" lon="-4.289800">
        <ele>2033.0</ele>
        <time>2013-07-03T15:52:34Z</time>
      </trkpt>
      <trkpt lat="39.749400" lon="-4.289650">
        <ele>2030.0</ele>
        <time>2013-07-03T15:52:35Z</time>
      </trkpt>
      <trkpt lat="39.749367" lon="-4.289533">
        <ele>2027.0</ele>
        <time>2013-07-03T15:52:36Z</time>
      </trkpt>
      <trkpt lat="39.749333" lon="-4.289433">
        <ele>2024.0</ele>
        <time>2013-07-03T15:52:37Z</time>
      </trkpt>
      <trkpt lat="39.749317" lon="-4.289333">
        <ele>2021.0</ele>
        <time>2013-07-03T15:52:38Z</time>
      </trkpt>
      <trkpt lat="39.749283" lon="-4.289233">
        <ele>2019.0</ele>
        <time>2013-07-03T15:52:39Z</time>
      </trkpt>
      <trkpt lat="39.749267" lon="-4.289100">
        <ele>2019.0</ele>
        <time>2013-07-03T15:52:40Z</time>
      </trkpt>
      <trkpt lat="39.749233" lon="-4.288967">
        <ele>2020.0</ele>
        <time>2013-07-03T15:52:41Z</time>
      </trkpt>
      <trkpt lat="39.749217" lon="-4.288817">
        <ele>2021.0</ele>
        <time>2013-07-03T15:52:42Z</time>
      </trkpt>
      <trkpt lat="39.749183" lon="-4.288717">
        <ele>2022.0</ele>
        <time>2013-07-03T15:52:43Z</time>
      </trkpt>
      <trkpt lat="39.749167" lon="-4.288633">
        <ele>2025.0</ele>
        <time>2013-07-03T15:52:44Z</time>
      </trkpt>
      <trkpt lat="39.749150" lon="-4.288550">
        <ele>2028.0</ele>
        <time>2013-07-03T15:52:45Z</time>
      </trkpt>
      <trkpt lat="39.749133" lon="-4.288483">
        <ele>2029.0</ele>
        <time>2013-07-03T15:52:46Z</time>
      </trkpt>
      <trkpt lat="39.749117" lon="-4.288417">
        <ele>2031.0</ele>
        <time>2013-07-03T15:52:47Z</time>
      </trkpt>
      <trkpt lat="39.749100" lon="-4.288333">
        <ele>2030.0</ele>
        <time>2013-07-03T15:52:48Z</time>
      </trkpt>
      <trkpt lat="39.749067" lon="-4.288233">
        <ele>2031.0</ele>
        <time>2013-07-03T15:52:49Z</time>
      </trkpt>
      <trkpt lat="39.749000" lon="-4.288167">
        <ele>2032.0</ele>
        <time>2013-07-03T15:52:50Z</time>
      </trkpt>
      <trkpt lat="39.748917" lon="-4.288117">
        <ele>2032.0</ele>
        <time>2013-07-03T15:52:51Z</time>
      </trkpt>
      <trkpt lat="39.748833" lon="-4.288117">
        <ele>2032.0</ele>
        <time>2013-07-03T15:52:52Z</time>
      </trkpt>
      <trkpt lat="39.748733" lon="-4.288150">
        <ele>2033.0</ele>
        <time>2013-07-03T15:52:53Z</time>
      </trkpt>
      <trkpt lat="39.748650" lon="-4.288200">
        <ele>2034.0</ele>
        <time>2013-07-03T15:52:54Z</time>
      </trkpt>
      <trkpt lat="39.748583" lon="-4.288250">
        <ele>2037.0</ele>
        <time>2013-07-03T15:52:55Z</time>
      </trkpt>
      <trkpt lat="39.748517" lon="-4.288300">
        <ele>2040.0</ele>
        <time>2013-07-03T15:52:56Z</time>
      </trkpt>
      <trkpt lat="39.748483" lon="-4.288367">
        <ele>2043.0</ele>
        <time>2013-07-03T15:52:57Z</time>
      </trkpt>
      <trkpt lat="39.748467" lon="-4.288433">
        <ele>2046.0</ele>
        <time>2013-07-03T15:52:58Z</time>
      </trkpt>
      <trkpt lat="39.748467" lon="-4.288517">
        <ele>2048.0</ele>
        <time>2013-07-03T15:52:59Z</time>
      </trkpt>
      <trkpt lat="39.748483" lon="-4.288600">
        <ele>2051.0</ele>
        <time>2013-07-03T15:53:00Z</time>
      </trkpt>
      <trkpt lat="39.748517" lon="-4.288667">
        <ele>2053.0</ele>
        <time>2013-07-03T15:53:01Z</time>
      </trkpt>
      <trkpt lat="39.748550" lon="-4.288717">
        <ele>2054.0</ele>
        <time>2013-07-03T15:53:02Z</time>
      </trkpt>
      <trkpt lat="39.748600" lon="-4.288767">
        <ele>2056.0</ele>
        <time>2013-07-03T15:53:03Z</time>
      </trkpt>
      <trkpt lat="39.748667" lon="-4.288767">
        <ele>2058.0</ele>
        <time>2013-07-03T15:53:04Z</time>
      </trkpt>
      <trkpt lat="39.748717" lon="-4.288750">
        <ele>2059.0</ele>
        <time>2013-07-03T15:53:05Z</time>
      </trkpt>
      <trkpt lat="39.748750" lon="-4.288717">
        <ele>2061.0</ele>
        <time>2013-07-03T15:53:06Z</time>
      </trkpt>
      <trkpt lat="39.748783" lon="-4.288667">
        <ele>2062.0</ele>
        <time>2013-07-03T15:53:07Z</time>
      </trkpt>
      <trkpt lat="39.748800" lon="-4.288600">
        <ele>2064.0</ele>
        <time>2013-07-03T15:53:08Z</time>
      </trkpt>
      <trkpt lat="39.748800" lon="-4.288533">
        <ele>2065.0</ele>
        <time>2013-07-03T15:53:09Z</time>
      </trkpt>
      <trkpt lat="39.748783" lon="-4.288450">
        <ele>2064.0</ele>
        <time>2013-07-03T15:53:10Z</time>
      </trkpt>
      <trkpt lat="39.748783" lon="-4.288350">
        <ele>2064.0</ele>
        <time>2013-07-03T15:53:11Z</time>
      </trkpt>
      <trkpt lat="39.748750" lon="-4.288283">
        <ele>2064.0</ele>
        <time>2013-07-03T15:53:12Z</time>
      </trkpt>
      <trkpt lat="39.748717" lon="-4.288183">
        <ele>2065.0</ele>
        <time>2013-07-03T15:53:13Z</time>
      </trkpt>
      <trkpt lat="39.748667" lon="-4.288100">
        <ele>2065.0</ele>
        <time>2013-07-03T15:53:14Z</time>
      </trkpt>
      <trkpt lat="39.748617" lon="-4.288000">
        <ele>2066.0</ele>
        <time>2013-07-03T15:53:15Z</time>
      </trkpt>
      <trkpt lat="39.748550" lon="-4.287883">
        <ele>2066.0</ele>
        <time>2013-07-03T15:53:16Z</time>
      </trkpt>
      <trkpt lat="39.748483" lon="-4.287767">
        <ele>2067.0</ele>
        <time>2013-07-03T15:53:17Z</time>
      </trkpt>
      <trkpt lat="39.748417" lon="-4.287650">
        <ele>2067.0</ele>
        <time>2013-07-03T15:53:18Z</time>
      </trkpt>
      <trkpt lat="39.748350" lon="-4.287533">
        <ele>2069.0</ele>
        <time>2013-07-03T15:53:19Z</time>
      </trkpt>
      <trkpt lat="39.748283" lon="-4.287417">
        <ele>2071.0</ele>
        <time>2013-07-03T15:53:20Z</time>
      </trkpt>
      <trkpt lat="39.748250" lon="-4.287300">
        <ele>2075.0</ele>
        <time>2013-07-03T15:53:21Z</time>
      </trkpt>
      <trkpt lat="39.748200" lon="-4.287167">
        <ele>2079.0</ele>
        <time>2013-07-03T15:53:22Z</time>
      </trkpt>
      <trkpt lat="39.748167" lon="-4.287033">
        <ele>2084.0</ele>
        <time>2013-07-03T15:53:23Z</time>
      </trkpt>
      <trkpt lat="39.748150" lon="-4.286950">
        <ele>2089.0</ele>
        <time>2013-07-03T15:53:24Z</time>
      </trkpt>
      <trkpt lat="39.748133" lon="-4.286850">
        <ele>2093.0</ele>
        <time>2013-07-03T15:53:25Z</time>
      </trkpt>
      <trkpt lat="39.748117" lon="-4.286750">
        <ele>2095.0</ele>
        <time>2013-07-03T15:53:26Z</time>
      </trkpt>
      <trkpt lat="39.748133" lon="-4.286633">
        <ele>2098.0</ele>
        <time>2013-07-03T15:53:27Z</time>
      </trkpt>
      <trkpt lat="39.748133" lon="-4.286517">
        <ele>2101.0</ele>
        <time>2013-07-03T15:53:28Z</time>
      </trkpt>
      <trkpt lat="39.748150" lon="-4.286417">
        <ele>2105.0</ele>
        <time>2013-07-03T15:53:29Z</time>
      </trkpt>
      <trkpt lat="39.748183" lon="-4.286333">
        <ele>2108.0</ele>
        <time>2013-07-03T15:53:30Z</time>
      </trkpt>
      <trkpt lat="39.748233" lon="-4.286283">
        <ele>2110.0</ele>
        <time>2013-07-03T15:53:31Z</time>
      </trkpt>
      <trkpt lat="39.748317" lon="-4.286283">
        <ele>2110.0</ele>
        <time>2013-07-03T15:53:32Z</time>
      </trkpt>
      <trkpt lat="39.748367" lon="-4.286317">
        <ele>2111.0</ele>
        <time>2013-07-03T15:53:33Z</time>
      </trkpt>
      <trkpt lat="39.748400" lon="-4.286400">
        <ele>2111.0</ele>
        <time>2013-07-03T15:53:34Z</time>
      </trkpt>
      <trkpt lat="39.748367" lon="-4.286517">
        <ele>2111.0</ele>
        <time>2013-07-03T15:53:35Z</time>
      </trkpt>
      <trkpt lat="39.748283" lon="-4.286600">
        <ele>2111.0</ele>
        <time>2013-07-03T15:53:36Z</time>
      </trkpt>
      <trkpt lat="39.748183" lon="-4.286667">
        <ele>2111.0</ele>
        <time>2013-07-03T15:53:37Z</time>
      </trkpt>
      <trkpt lat="39.748050" lon="-4.286683">
        <ele>2112.0</ele>
        <time>2013-07-03T15:53:38Z</time>
      </trkpt>
      <trkpt lat="39.747933" lon="-4.286633">
        <ele>2115.0</ele>
        <time>2013-07-03T15:53:39Z</time>
      </trkpt>
      <trkpt lat="39.747833" lon="-4.286550">
        <ele>2117.0</ele>
        <time>2013-07-03T15:53:40Z</time>
      </trkpt>
      <trkpt lat="39.747767" lon="-4.286450">
        <ele>2121.0</ele>
        <time>2013-07-03T15:53:41Z</time>
      </trkpt>
      <trkpt lat="39.747717" lon="-4.286350">
        <ele>2124.0</ele>
        <time>2013-07-03T15:53:42Z</time>
      </trkpt>
      <trkpt lat="39.747683" lon="-4.286233">
        <ele>2127.0</ele>
        <time>2013-07-03T15:53:43Z</time>
      </trkpt>
      <trkpt lat="39.747650" lon="-4.286133">
        <ele>2130.0</ele>
        <time>2013-07-03T15:53:44Z</time>
      </trkpt>
      <trkpt lat="39.747600" lon="-4.286017">
        <ele>2133.0</ele>
        <time>2013-07-03T15:53:45Z</time>
      </trkpt>
      <trkpt lat="39.747567" lon="-4.285917">
        <ele>2135.0</ele>
        <time>2013-07-03T15:53:46Z</time>
      </trkpt>
      <trkpt lat="39.747517" lon="-4.285800">
        <ele>2138.0</ele>
        <time>2013-07-03T15:53:47Z</time>
      </trkpt>
      <trkpt lat="39.747467" lon="-4.285683">
        <ele>2140.0</ele>
        <time>2013-07-03T15:53:48Z</time>
      </trkpt>
      <trkpt lat="39.747417" lon="-4.285550">
        <ele>2143.0</ele>
        <time>2013-07-03T15:53:49Z</time>
      </trkpt>
      <trkpt lat="39.747383" lon="-4.285450">
        <ele>2146.0</ele>
        <time>2013-07-03T15:53:50Z</time>
      </trkpt>
      <trkpt lat="39.747350" lon="-4.285333">
        <ele>2148.0</ele>
        <time>2013-07-03T15:53:51Z</time>
      </trkpt>
      <trkpt lat="39.747300" lon="-4.285200">
        <ele>2150.0</ele>
        <time>2013-07-03T15:53:52Z</time>
      </trkpt>
      <trkpt lat="39.747267" lon="-4.285067">
        <ele>2152.0</ele>
        <time>2013-07-03T15:53:53Z</time>
      </trkpt>
      <trkpt lat="39.747250" lon="-4.284917">
        <ele>2154.0</ele>
        <time>2013-07-03T15:53:54Z</time>
      </trkpt>
      <trkpt lat="39.747217" lon="-4.284750">
        <ele>2156.0</ele>
        <time>2013-07-03T15:53:55Z</time>
      </trkpt>
      <trkpt lat="39.747200" lon="-4.284600">
        <ele>2159.0</ele>
        <time>2013-07-03T15:53:56Z</time>
      </trkpt>
      <trkpt lat="39.747183" lon="-4.284450">
        <ele>2162.0</ele>
        <time>2013-07-03T15:53:57Z</time>
      </trkpt>
      <trkpt lat="39.747167" lon="-4.284317">
        <ele>2165.0</ele>
        <time>2013-07-03T15:53:58Z</time>
      </trkpt>
      <trkpt lat="39.747150" lon="-4.284167">
        <ele>2168.0</ele>
        <time>2013-07-03T15:53:59Z</time>
      </trkpt>
      <trkpt lat="39.747133" lon="-4.284017">
        <ele>2170.0</ele>
        <time>2013-07-03T15:54:00Z</time>
      </trkpt>
      <trkpt lat="39.747133" lon="-4.283850">
        <ele>2174.0</ele>
        <time>2013-07-03T15:54:01Z</time>
      </trkpt>
      <trkpt lat="39.747117" lon="-4.283717">
        <ele>2178.0</ele>
        <time>2013-07-03T15:54:02Z</time>
      </trkpt>
      <trkpt lat="39.747100" lon="-4.283583">
        <ele>2182.0</ele>
        <time>2013-07-03T15:54:03Z</time>
      </trkpt>
      <trkpt lat="39.747083" lon="-4.283467">
        <ele>2185.0</ele>
        <time>2013-07-03T15:54:04Z</time>
      </trkpt>
      <trkpt lat="39.747050" lon="-4.283333">
        <ele>2187.0</ele>
        <time>2013-07-03T15:54:05Z</time>
      </trkpt>
      <trkpt lat="39.747033" lon="-4.283183">
        <ele>2188.0</ele>
        <time>2013-07-03T15:54:06Z</time>
      </trkpt>
      <trkpt lat="39.747000" lon="-4.283050">
        <ele>2189.0</ele>
        <time>2013-07-03T15:54:07Z</time>
      </trkpt>
      <trkpt lat="39.746967" lon="-4.282900">
        <ele>2190.0</ele>
        <time>2013-07-03T15:54:08Z</time>
      </trkpt>
      <trkpt lat="39.746933" lon="-4.282750">
        <ele>2192.0</ele>
        <time>2013-07-03T15:54:09Z</time>
      </trkpt>
      <trkpt lat="39.746917" lon="-4.282617">
        <ele>2194.0</ele>
        <time>2013-07-03T15:54:10Z</time>
      </trkpt>
      <trkpt lat="39.746883" lon="-4.282483">
        <ele>2196.0</ele>
        <time>2013-07-03T15:54:11Z</time>
      </trkpt>
      <trkpt lat="39.746867" lon="-4.282350">
        <ele>2198.0</ele>
        <time>2013-07-03T15:54:12Z</time>
      </trkpt>
      <trkpt lat="39.746850" lon="-4.282233">
        <ele>2200.0</ele>
        <time>2013-07-03T15:54:13Z</time>
      </trkpt>
      <trkpt lat="39.746833" lon="-4.282100">
        <ele>2201.0</ele>
        <time>2013-07-03T15:54:14Z</time>
      </trkpt>
      <trkpt lat="39.746783" lon="-4.281967">
        <ele>2201.0</ele>
        <time>2013-07-03T15:54:15Z</time>
      </trkpt>
      <trkpt lat="39.746733" lon="-4.281833">
        <ele>2202.0</ele>
        <time>2013-07-03T15:54:16Z</time>
      </trkpt>
      <trkpt lat="39.746683" lon="-4.281700">
        <ele>2203.0</ele>
        <time>2013-07-03T15:54:17Z</time>
      </trkpt>
      <trkpt lat="39.746633" lon="-4.281550">
        <ele>2205.0</ele>
        <time>2013-07-03T15:54:18Z</time>
      </trkpt>
      <trkpt lat="39.746600" lon="-4.281417">
        <ele>2206.0</ele>
        <time>2013-07-03T15:54:19Z</time>
      </trkpt>
      <trkpt lat="39.746550" lon="-4.281283">
        <ele>2208.0</ele>
        <time>2013-07-03T15:54:20Z</time>
      </trkpt>
      <trkpt lat="39.746500" lon="-4.281150">
        <ele>2209.0</ele>
        <time>2013-07-03T15:54:21Z</time>
      </trkpt>
      <trkpt lat="39.746450" lon="-4.281033">
        <ele>2212.0</ele>
        <time>2013-07-03T15:54:22Z</time>
      </trkpt>
      <trkpt lat="39.746400" lon="-4.280933">
        <ele>2213.0</ele>
        <time>2013-07-03T15:54:23Z</time>
      </trkpt>
      <trkpt lat="39.746350" lon="-4.280833">
        <ele>2215.0</ele>
        <time>2013-07-03T15:54:24Z</time>
      </trkpt>
      <trkpt lat="39.746283" lon="-4.280733">
        <ele>2215.0</ele>
        <time>2013-07-03T15:54:25Z</time>
      </trkpt>
      <trkpt lat="39.746233" lon="-4.280633">
        <ele>2215.0</ele>
        <time>2013-07-03T15:54:26Z</time>
      </trkpt>
      <trkpt lat="39.746150" lon="-4.280550">
        <ele>2215.0</ele>
        <time>2013-07-03T15:54:27Z</time>
      </trkpt>
      <trkpt lat="39.746067" lon="-4.280500">
        <ele>2216.0</ele>
        <time>2013-07-03T15:54:28Z</time>
      </trkpt>
      <trkpt lat="39.745983" lon="-4.280467">
        <ele>2216.0</ele>
        <time>2013-07-03T15:54:29Z</time>
      </trkpt>
      <trkpt lat="39.745917" lon="-4.280467">
        <ele>2218.0</ele>
        <time>2013-07-03T15:54:30Z</time>
      </trkpt>
      <trkpt lat="39.745833" lon="-4.280467">
        <ele>2221.0</ele>
        <time>2013-07-03T15:54:31Z</time>
      </trkpt>
      <trkpt lat="39.745767" lon="-4.280467">
        <ele>2224.0</ele>
        <time>2013-07-03T15:54:32Z</time>
      </trkpt>
      <trkpt lat="39.745700" lon="-4.280467">
        <ele>2227.0</ele>
        <time>2013-07-03T15:54:33Z</time>
      </trkpt>
      <trkpt lat="39.745650" lon="-4.280483">
        <ele>2230.0</ele>
        <time>2013-07-03T15:54:34Z</time>
      </trkpt>
      <trkpt lat="39.745617" lon="-4.280517">
        <ele>2232.0</ele>
        <time>2013-07-03T15:54:35Z</time>
      </trkpt>
      <trkpt lat="39.745583" lon="-4.280567">
        <ele>2235.0</ele>
        <time>2013-07-03T15:54:36Z</time>
      </trkpt>
      <trkpt lat="39.745567" lon="-4.280617">
        <ele>2237.0</ele>
        <time>2013-07-03T15:54:37Z</time>
      </trkpt>
      <trkpt lat="39.745583" lon="-4.280667">
        <ele>2240.0</ele>
        <time>2013-07-03T15:54:38Z</time>
      </trkpt>
      <trkpt lat="39.745617" lon="-4.280700">
        <ele>2242.0</ele>
        <time>2013-07-03T15:54:39Z</time>
      </trkpt>
      <trkpt lat="39.745667" lon="-4.280717">
        <ele>2244.0</ele>
        <time>2013-07-03T15:54:40Z</time>
      </trkpt>
      <trkpt lat="39.745700" lon="-4.280717">
        <ele>2245.0</ele>
        <time>2013-07-03T15:54:41Z</time>
      </trkpt>
      <trkpt lat="39.745767" lon="-4.280717">
        <ele>2247.0</ele>
        <time>2013-07-03T15:54:42Z</time>
      </trkpt>
      <trkpt lat="39.745817" lon="-4.280700">
        <ele>2248.0</ele>
        <time>2013-07-03T15:54:43Z</time>
      </trkpt>
      <trkpt lat="39.745883" lon="-4.280650">
        <ele>2249.0</ele>
        <time>2013-07-03T15:54:44Z</time>
      </trkpt>
      <trkpt lat="39.745933" lon="-4.280583">
        <ele>2250.0</ele>
        <time>2013-07-03T15:54:45Z</time>
      </trkpt>
      <trkpt lat="39.745983" lon="-4.280483">
        <ele>2251.0</ele>
        <time>2013-07-03T15:54:46Z</time>
      </trkpt>
      <trkpt lat="39.746017" lon="-4.280350">
        <ele>2253.0</ele>
        <time>2013-07-03T15:54:47Z</time>
      </trkpt>
      <trkpt lat="39.746017" lon="-4.280217">
        <ele>2255.0</ele>
        <time>2013-07-03T15:54:48Z</time>
      </trkpt>
      <trkpt lat="39.746017" lon="-4.280083">
        <ele>2257.0</ele>
        <time>2013-07-03T15:54:49Z</time>
      </trkpt>
      <trkpt lat="39.746000" lon="-4.279983">
        <ele>2259.0</ele>
        <time>2013-07-03T15:54:50Z</time>
      </trkpt>
      <trkpt lat="39.745983" lon="-4.279850">
        <ele>2260.0</ele>
        <time>2013-07-03T15:54:51Z</time>
      </trkpt>
      <trkpt lat="39.745967" lon="-4.279717">
        <ele>2261.0</ele>
        <time>2013-07-03T15:54:52Z</time>
      </trkpt>
      <trkpt lat="39.745933" lon="-4.279583">
        <ele>2262.0</ele>
        <time>2013-07-03T15:54:53Z</time>
      </trkpt>
      <trkpt lat="39.745900" lon="-4.279433">
        <ele>2263.0</ele>
        <time>2013-07-03T15:54:54Z</time>
      </trkpt>
      <trkpt lat="39.745850" lon="-4.279300">
        <ele>2265.0</ele>
        <time>2013-07-03T15:54:55Z</time>
      </trkpt>
      <trkpt lat="39.745800" lon="-4.279167">
        <ele>2268.0</ele>
        <time>2013-07-03T15:54:56Z</time>
      </trkpt>
      <trkpt lat="39.745767" lon="-4.279067">
        <ele>2271.0</ele>
        <time>2013-07-03T15:54:57Z</time>
      </trkpt>
      <trkpt lat="39.745717" lon="-4.278983">
        <ele>2273.0</ele>
        <time>2013-07-03T15:54:58Z</time>
      </trkpt>
      <trkpt lat="39.745667" lon="-4.278900">
        <ele>2273.0</ele>
        <time>2013-07-03T15:54:59Z</time>
      </trkpt>
      <trkpt lat="39.745600" lon="-4.278800">
        <ele>2274.0</ele>
        <time>2013-07-03T15:55:00Z</time>
      </trkpt>
      <trkpt lat="39.745517" lon="-4.278717">
        <ele>2275.0</ele>
        <time>2013-07-03T15:55:01Z</time>
      </trkpt>
      <trkpt lat="39.745433" lon="-4.278667">
        <ele>2278.0</ele>
        <time>2013-07-03T15:55:02Z</time>
      </trkpt>
      <trkpt lat="39.745350" lon="-4.278633">
        <ele>2282.0</ele>
        <time>2013-07-03T15:55:03Z</time>
      </trkpt>
      <trkpt lat="39.745267" lon="-4.278633">
        <ele>2285.0</ele>
        <time>2013-07-03T15:55:04Z</time>
      </trkpt>
      <trkpt lat="39.745217" lon="-4.278633">
        <ele>2288.0</ele>
        <time>2013-07-03T15:55:05Z</time>
      </trkpt>
      <trkpt lat="39.745167" lon="-4.278667">
        <ele>2290.0</ele>
        <time>2013-07-03T15:55:06Z</time>
      </trkpt>
      <trkpt lat="39.745133" lon="-4.278700">
        <ele>2292.0</ele>
        <time>2013-07-03T15:55:07Z</time>
      </trkpt>
      <trkpt lat="39.745117" lon="-4.278750">
        <ele>2294.0</ele>
        <time>2013-07-03T15:55:08Z</time>
      </trkpt>
      <trkpt lat="39.745133" lon="-4.278783">
        <ele>2296.0</ele>
        <time>2013-07-03T15:55:09Z</time>
      </trkpt>
      <trkpt lat="39.745150" lon="-4.278800">
        <ele>2298.0</ele>
        <time>2013-07-03T15:55:10Z</time>
      </trkpt>
      <trkpt lat="39.745183" lon="-4.278833">
        <ele>2300.0</ele>
        <time>2013-07-03T15:55:11Z</time>
      </trkpt>
      <trkpt lat="39.745233" lon="-4.278833">
        <ele>2301.0</ele>
        <time>2013-07-03T15:55:12Z</time>
      </trkpt>
      <trkpt lat="39.745283" lon="-4.278850">
        <ele>2302.0</ele>
        <time>2013-07-03T15:55:13Z</time>
      </trkpt>
      <trkpt lat="39.745350" lon="-4.278850">
        <ele>2303.0</ele>
        <time>2013-07-03T15:55:14Z</time>
      </trkpt>
      <trkpt lat="39.745400" lon="-4.278833">
        <ele>2305.0</ele>
        <time>2013-07-03T15:55:15Z</time>
      </trkpt>
      <trkpt lat="39.745450" lon="-4.278817">
        <ele>2306.0</ele>
        <time>2013-07-03T15:55:16Z</time>
      </trkpt>
      <trkpt lat="39.745517" lon="-4.278800">
        <ele>2307.0</ele>
        <time>2013-07-03T15:55:17Z</time>
      </trkpt>
      <trkpt lat="39.745567" lon="-4.278783">
        <ele>2309.0</ele>
        <time>2013-07-03T15:55:18Z</time>
      </trkpt>
      <trkpt lat="39.745633" lon="-4.278733">
        <ele>2310.0</ele>
        <time>2013-07-03T15:55:19Z</time>
      </trkpt>
      <trkpt lat="39.745683" lon="-4.278683">
        <ele>2311.0</ele>
        <time>2013-07-03T15:55:20Z</time>
      </trkpt>
      <trkpt lat="39.745750" lon="-4.278600">
        <ele>2311.0</ele>
        <time>2013-07-03T15:55:21Z</time>
      </trkpt>
      <trkpt lat="39.745783" lon="-4.278483">
        <ele>2312.0</ele>
        <time>2013-07-03T15:55:22Z</time>
      </trkpt>
      <trkpt lat="39.745783" lon="-4.278350">
        <ele>2312.0</ele>
        <time>2013-07-03T15:55:23Z</time>
      </trkpt>
      <trkpt lat="39.745733" lon="-4.278233">
        <ele>2311.0</ele>
        <time>2013-07-03T15:55:24Z</time>
      </trkpt>
      <trkpt lat="39.745667" lon="-4.278133">
        <ele>2312.0</ele>
        <time>2013-07-03T15:55:25Z</time>
      </trkpt>
      <trkpt lat="39.745567" lon="-4.278050">
        <ele>2315.0</ele>
        <time>2013-07-03T15:55:26Z</time>
      </trkpt>
      <trkpt lat="39.745483" lon="-4.278033">
        <ele>2319.0</ele>
        <time>2013-07-03T15:55:27Z</time>
      </trkpt>
      <trkpt lat="39.745433" lon="-4.278033">
        <ele>2322.0</ele>
        <time>2013-07-03T15:55:28Z</time>
      </trkpt>
      <trkpt lat="39.745383" lon="-4.278033">
        <ele>2325.0</ele>
        <time>2013-07-03T15:55:29Z</time>
      </trkpt>
      <trkpt lat="39.745350" lon="-4.278050">
        <ele>2326.0</ele>
        <time>2013-07-03T15:55:30Z</time>
      </trkpt>
      <trkpt lat="39.745300" lon="-4.278083">
        <ele>2327.0</ele>
        <time>2013-07-03T15:55:31Z</time>
      </trkpt>
      <trkpt lat="39.745250" lon="-4.278117">
        <ele>2327.0</ele>
        <time>2013-07-03T15:55:32Z</time>
      </trkpt>
      <trkpt lat="39.745217" lon="-4.278183">
        <ele>2329.0</ele>
        <time>2013-07-03T15:55:33Z</time>
      </trkpt>
      <trkpt lat="39.745217" lon="-4.278250">
        <ele>2330.0</ele>
        <time>2013-07-03T15:55:34Z</time>
      </trkpt>
      <trkpt lat="39.745217" lon="-4.278317">
        <ele>2331.0</ele>
        <time>2013-07-03T15:55:35Z</time>
      </trkpt>
      <trkpt lat="39.745233" lon="-4.278367">
        <ele>2332.0</ele>
        <time>2013-07-03T15:55:36Z</time>
      </trkpt>
      <trkpt lat="39.745267" lon="-4.278417">
        <ele>2333.0</ele>
        <time>2013-07-03T15:55:37Z</time>
      </trkpt>
      <trkpt lat="39.745300" lon="-4.278467">
        <ele>2334.0</ele>
        <time>2013-07-03T15:55:38Z</time>
      </trkpt>
      <trkpt lat="39.745333" lon="-4.278500">
        <ele>2335.0</ele>
        <time>2013-07-03T15:55:39Z</time>
      </trkpt>
      <trkpt lat="39.745367" lon="-4.278533">
        <ele>2336.0</ele>
        <time>2013-07-03T15:55:40Z</time>
      </trkpt>
      <trkpt lat="39.745417" lon="-4.278567">
        <ele>2337.0</ele>
        <time>2013-07-03T15:55:41Z</time>
      </trkpt>
      <trkpt lat="39.745483" lon="-4.278583">
        <ele>2338.0</ele>
        <time>2013-07-03T15:55:42Z</time>
      </trkpt>
      <trkpt lat="39.745533" lon="-4.278583">
        <ele>2338.0</ele>
        <time>2013-07-03T15:55:43Z</time>
      </trkpt>
      <trkpt lat="39.745600" lon="-4.278583">
        <ele>2338.0</ele>
        <time>2013-07-03T15:55:44Z</time>
      </trkpt>
      <trkpt lat="39.745667" lon="-4.278583">
        <ele>2338.0</ele>
        <time>2013-07-03T15:55:45Z</time>
      </trkpt>
      <trkpt lat="39.745733" lon="-4.278567">
        <ele>2338.0</ele>
        <time>2013-07-03T15:55:46Z</time>
      </trkpt>
      <trkpt lat="39.745800" lon="-4.278517">
        <ele>2339.0</ele>
        <time>2013-07-03T15:55:47Z</time>
      </trkpt>
      <trkpt lat="39.745867" lon="-4.278433">
        <ele>2340.0</ele>
        <time>2013-07-03T15:55:48Z</time>
      </trkpt>
      <trkpt lat="39.745900" lon="-4.278350">
        <ele>2342.0</ele>
        <time>2013-07-03T15:55:49Z</time>
      </trkpt>
      <trkpt lat="39.745933" lon="-4.278250">
        <ele>2344.0</ele>
        <time>2013-07-03T15:55:50Z</time>
      </trkpt>
      <trkpt lat="39.745950" lon="-4.278167">
        <ele>2346.0</ele>
        <time>2013-07-03T15:55:51Z</time>
      </trkpt>
      <trkpt lat="39.745967" lon="-4.278083">
        <ele>2347.0</ele>
        <time>2013-07-03T15:55:52Z</time>
      </trkpt>
      <trkpt lat="39.745983" lon="-4.277983">
        <ele>2348.0</ele>
        <time>2013-07-03T15:55:53Z</time>
      </trkpt>
      <trkpt lat="39.745983" lon="-4.277883">
        <ele>2350.0</ele>
        <time>2013-07-03T15:55:54Z</time>
      </trkpt>
      <trkpt lat="39.745983" lon="-4.277767">
        <ele>2352.0</ele>
        <time>2013-07-03T15:55:55Z</time>
      </trkpt>
      <trkpt lat="39.745967" lon="-4.277650">
        <ele>2354.0</ele>
        <time>2013-07-03T15:55:56Z</time>
      </trkpt>
      <trkpt lat="39.745967" lon="-4.277550">
        <ele>2357.0</ele>
        <time>2013-07-03T15:55:57Z</time>
      </trkpt>
      <trkpt lat="39.745967" lon="-4.277433">
        <ele>2359.0</ele>
        <time>2013-07-03T15:55:58Z</time>
      </trkpt>
      <trkpt lat="39.745967" lon="-4.277333">
        <ele>2361.0</ele>
        <time>2013-07-03T15:55:59Z</time>
      </trkpt>
      <trkpt lat="39.745983" lon="-4.277217">
        <ele>2363.0</ele>
        <time>2013-07-03T15:56:00Z</time>
      </trkpt>
      <trkpt lat="39.745983" lon="-4.277083">
        <ele>2365.0</ele>
        <time>2013-07-03T15:56:01Z</time>
      </trkpt>
      <trkpt lat="39.746000" lon="-4.276967">
        <ele>2368.0</ele>
        <time>2013-07-03T15:56:02Z</time>
      </trkpt>
      <trkpt lat="39.746033" lon="-4.276850">
        <ele>2371.0</ele>
        <time>2013-07-03T15:56:03Z</time>
      </trkpt>
      <trkpt lat="39.746067" lon="-4.276767">
        <ele>2373.0</ele>
        <time>2013-07-03T15:56:04Z</time>
      </trkpt>
      <trkpt lat="39.746117" lon="-4.276667">
        <ele>2376.0</ele>
        <time>2013-07-03T15:56:05Z</time>
      </trkpt>
      <trkpt lat="39.746183" lon="-4.276600">
        <ele>2377.0</ele>
        <time>2013-07-03T15:56:06Z</time>
      </trkpt>
      <trkpt lat="39.746250" lon="-4.276533">
        <ele>2379.0</ele>
        <time>2013-07-03T15:56:07Z</time>
      </trkpt>
      <trkpt lat="39.746333" lon="-4.276517">
        <ele>2382.0</ele>
        <time>2013-07-03T15:56:08Z</time>
      </trkpt>
      <trkpt lat="39.746417" lon="-4.276517">
        <ele>2384.0</ele>
        <time>2013-07-03T15:56:09Z</time>
      </trkpt>
      <trkpt lat="39.746467" lon="-4.276533">
        <ele>2386.0</ele>
        <time>2013-07-03T15:56:10Z</time>
      </trkpt>
      <trkpt lat="39.746517" lon="-4.276550">
        <ele>2387.0</ele>
        <time>2013-07-03T15:56:11Z</time>
      </trkpt>
      <trkpt lat="39.746567" lon="-4.276583">
        <ele>2387.0</ele>
        <time>2013-07-03T15:56:12Z</time>
      </trkpt>
      <trkpt lat="39.746617" lon="-4.276617">
        <ele>2387.0</ele>
        <time>2013-07-03T15:56:13Z</time>
      </trkpt>
      <trkpt lat="39.746683" lon="-4.276667">
        <ele>2387.0</ele>
        <time>2013-07-03T15:56:14Z</time>
      </trkpt>
      <trkpt lat="39.746717" lon="-4.276717">
        <ele>2388.0</ele>
        <time>2013-07-03T15:56:15Z</time>
      </trkpt>
      <trkpt lat="39.746750" lon="-4.276783">
        <ele>2388.0</ele>
        <time>2013-07-03T15:56:16Z</time>
      </trkpt>
      <trkpt lat="39.746767" lon="-4.276850">
        <ele>2387.0</ele>
        <time>2013-07-03T15:56:17Z</time>
      </trkpt>
      <trkpt lat="39.746767" lon="-4.276950">
        <ele>2386.0</ele>
        <time>2013-07-03T15:56:18Z</time>
      </trkpt>
      <trkpt lat="39.746733" lon="-4.277033">
        <ele>2385.0</ele>
        <time>2013-07-03T15:56:19Z</time>
      </trkpt>
      <trkpt lat="39.746667" lon="-4.277117">
        <ele>2385.0</ele>
        <time>2013-07-03T15:56:20Z</time>
      </trkpt>
      <trkpt lat="39.746583" lon="-4.277150">
        <ele>2386.0</ele>
        <time>2013-07-03T15:56:21Z</time>
      </trkpt>
      <trkpt lat="39.746500" lon="-4.277183">
        <ele>2388.0</ele>
        <time>2013-07-03T15:56:22Z</time>
      </trkpt>
      <trkpt lat="39.746417" lon="-4.277200">
        <ele>2390.0</ele>
        <time>2013-07-03T15:56:23Z</time>
      </trkpt>
      <trkpt lat="39.746350" lon="-4.277217">
        <ele>2392.0</ele>
        <time>2013-07-03T15:56:24Z</time>
      </trkpt>
      <trkpt lat="39.746283" lon="-4.277233">
        <ele>2393.0</ele>
        <time>2013-07-03T15:56:25Z</time>
      </trkpt>
      <trkpt lat="39.746217" lon="-4.277250">
        <ele>2394.0</ele>
        <time>2013-07-03T15:56:26Z</time>
      </trkpt>
      <trkpt lat="39.746133" lon="-4.277250">
        <ele>2394.0</ele>
        <time>2013-07-03T15:56:27Z</time>
      </trkpt>
      <trkpt lat="39.746050" lon="-4.277250">
        <ele>2396.0</ele>
        <time>2013-07-03T15:56:28Z</time>
      </trkpt>
      <trkpt lat="39.745950" lon="-4.277233">
        <ele>2397.0</ele>
        <time>2013-07-03T15:56:29Z</time>
      </trkpt>
      <trkpt lat="39.745867" lon="-4.277217">
        <ele>2399.0</ele>
        <time>2013-07-03T15:56:30Z</time>
      </trkpt>
      <trkpt lat="39.745783" lon="-4.277183">
        <ele>2403.0</ele>
        <time>2013-07-03T15:56:31Z</time>
      </trkpt>
      <trkpt lat="39.745733" lon="-4.277117">
        <ele>2405.0</ele>
        <time>2013-07-03T15:56:32Z</time>
      </trkpt>
      <trkpt lat="39.745667" lon="-4.277050">
        <ele>2407.0</ele>
        <time>2013-07-03T15:56:33Z</time>
      </trkpt>
      <trkpt lat="39.745617" lon="-4.276983">
        <ele>2408.0</ele>
        <time>2013-07-03T15:56:34Z</time>
      </trkpt>
      <trkpt lat="39.745567" lon="-4.276900">
        <ele>2408.0</ele>
        <time>2013-07-03T15:56:35Z</time>
      </trkpt>
      <trkpt lat="39.745517" lon="-4.276817">
        <ele>2409.0</ele>
        <time>2013-07-03T15:56:36Z</time>
      </trkpt>
      <trkpt lat="39.745483" lon="-4.276733">
        <ele>2410.0</ele>
        <time>2013-07-03T15:56:37Z</time>
      </trkpt>
      <trkpt lat="39.745467" lon="-4.276617">
        <ele>2411.0</ele>
        <time>2013-07-03T15:56:38Z</time>
      </trkpt>
      <trkpt lat="39.745450" lon="-4.276500">
        <ele>2412.0</ele>
        <time>2013-07-03T15:56:39Z</time>
      </trkpt>
      <trkpt lat="39.745450" lon="-4.276367">
        <ele>2413.0</ele>
        <time>2013-07-03T15:56:40Z</time>
      </trkpt>
      <trkpt lat="39.745467" lon="-4.276250">
        <ele>2415.0</ele>
        <time>2013-07-03T15:56:41Z</time>
      </trkpt>
      <trkpt lat="39.745500" lon="-4.276133">
        <ele>2418.0</ele>
        <time>2013-07-03T15:56:42Z</time>
      </trkpt>
      <trkpt lat="39.745533" lon="-4.276033">
        <ele>2421.0</ele>
        <time>2013-07-03T15:56:43Z</time>
      </trkpt>
      <trkpt lat="39.745567" lon="-4.275950">
        <ele>2423.0</ele>
        <time>2013-07-03T15:56:44Z</time>
      </trkpt>
      <trkpt lat="39.745633" lon="-4.275883">
        <ele>2425.0</ele>
        <time>2013-07-03T15:56:45Z</time>
      </trkpt>
      <trkpt lat="39.745700" lon="-4.275817">
        <ele>2427.0</ele>
        <time>2013-07-03T15:56:46Z</time>
      </trkpt>
      <trkpt lat="39.745767" lon="-4.275767">
        <ele>2429.0</ele>
        <time>2013-07-03T15:56:47Z</time>
      </trkpt>
      <trkpt lat="39.745817" lon="-4.275733">
        <ele>2432.0</ele>
        <time>2013-07-03T15:56:48Z</time>
      </trkpt>
      <trkpt lat="39.745883" lon="-4.275700">
        <ele>2434.0</ele>
        <time>2013-07-03T15:56:49Z</time>
      </trkpt>
      <trkpt lat="39.745950" lon="-4.275683">
        <ele>2435.0</ele>
        <time>2013-07-03T15:56:50Z</time>
      </trkpt>
      <trkpt lat="39.746033" lon="-4.275667">
        <ele>2437.0</ele>
        <time>2013-07-03T15:56:51Z</time>
      </trkpt>
      <trkpt lat="39.746100" lon="-4.275700">
        <ele>2438.0</ele>
        <time>2013-07-03T15:56:52Z</time>
      </trkpt>
      <trkpt lat="39.746167" lon="-4.275733">
        <ele>2439.0</ele>
        <time>2013-07-03T15:56:53Z</time>
      </trkpt>
      <trkpt lat="39.746200" lon="-4.275800">
        <ele>2440.0</ele>
        <time>2013-07-03T15:56:54Z</time>
      </trkpt>
      <trkpt lat="39.746233" lon="-4.275850">
        <ele>2441.0</ele>
        <time>2013-07-03T15:56:55Z</time>
      </trkpt>
      <trkpt lat="39.746267" lon="-4.275917">
        <ele>2442.0</ele>
        <time>2013-07-03T15:56:56Z</time>
      </trkpt>
      <trkpt lat="39.746267" lon="-4.276000">
        <ele>2442.0</ele>
        <time>2013-07-03T15:56:57Z</time>
      </trkpt>
      <trkpt lat="39.746267" lon="-4.276067">
        <ele>2442.0</ele>
        <time>2013-07-03T15:56:58Z</time>
      </trkpt>
      <trkpt lat="39.746250" lon="-4.276150">
        <ele>2442.0</ele>
        <time>2013-07-03T15:56:59Z</time>
      </trkpt>
      <trkpt lat="39.746217" lon="-4.276233">
        <ele>2442.0</ele>
        <time>2013-07-03T15:57:00Z</time>
      </trkpt>
      <trkpt lat="39.746150" lon="-4.276283">
        <ele>2444.0</ele>
        <time>2013-07-03T15:57:01Z</time>
      </trkpt>
      <trkpt lat="39.746100" lon="-4.276333">
        <ele>2445.0</ele>
        <time>2013-07-03T15:57:02Z</time>
      </trkpt>
      <trkpt lat="39.746033" lon="-4.276367">
        <ele>2446.0</ele>
        <time>2013-07-03T15:57:03Z</time>
      </trkpt>
      <trkpt lat="39.745967" lon="-4.276383">
        <ele>2448.0</ele>
        <time>2013-07-03T15:57:04Z</time>
      </trkpt>
      <trkpt lat="39.745883" lon="-4.276400">
        <ele>2449.0</ele>
        <time>2013-07-03T15:57:05Z</time>
      </trkpt>
      <trkpt lat="39.745817" lon="-4.276417">
        <ele>2452.0</ele>
        <time>2013-07-03T15:57:06Z</time>
      </trkpt>
      <trkpt lat="39.745750" lon="-4.276400">
        <ele>2454.0</ele>
        <time>2013-07-03T15:57:07Z</time>
      </trkpt>
      <trkpt lat="39.745683" lon="-4.276383">
        <ele>2456.0</ele>
        <time>2013-07-03T15:57:08Z</time>
      </trkpt>
      <trkpt lat="39.745617" lon="-4.276367">
        <ele>2457.0</ele>
        <time>2013-07-03T15:57:09Z</time>
      </trkpt>
      <trkpt lat="39.745550" lon="-4.276367">
        <ele>2458.0</ele>
        <time>2013-07-03T15:57:10Z</time>
      </trkpt>
      <trkpt lat="39.745467" lon="-4.276350">
        <ele>2458.0</ele>
        <time>2013-07-03T15:57:11Z</time>
      </trkpt>
      <trkpt lat="39.745383" lon="-4.276333">
        <ele>2459.0</ele>
        <time>2013-07-03T15:57:12Z</time>
      </trkpt>
      <trkpt lat="39.745300" lon="-4.276283">
        <ele>2461.0</ele>
        <time>2013-07-03T15:57:13Z</time>
      </trkpt>
      <trkpt lat="39.745233" lon="-4.276217">
        <ele>2462.0</ele>
        <time>2013-07-03T15:57:14Z</time>
      </trkpt>
      <trkpt lat="39.745167" lon="-4.276150">
        <ele>2464.0</ele>
        <time>2013-07-03T15:57:15Z</time>
      </trkpt>
      <trkpt lat="39.745117" lon="-4.276083">
        <ele>2464.0</ele>
        <time>2013-07-03T15:57:16Z</time>
      </trkpt>
      <trkpt lat="39.745050" lon="-4.276033">
        <ele>2465.0</ele>
        <time>2013-07-03T15:57:17Z</time>
      </trkpt>
      <trkpt lat="39.745000" lon="-4.275950">
        <ele>2465.0</ele>
        <time>2013-07-03T15:57:18Z</time>
      </trkpt>
      <trkpt lat="39.744950" lon="-4.275833">
        <ele>2466.0</ele>
        <time>2013-07-03T15:57:19Z</time>
      </trkpt>
      <trkpt lat="39.744933" lon="-4.275717">
        <ele>2466.0</ele>
        <time>2013-07-03T15:57:20Z</time>
      </trkpt>
      <trkpt lat="39.744917" lon="-4.275583">
        <ele>2467.0</ele>
        <time>2013-07-03T15:57:21Z</time>
      </trkpt>
      <trkpt lat="39.744917" lon="-4.275467">
        <ele>2467.0</ele>
        <time>2013-07-03T15:57:22Z</time>
      </trkpt>
      <trkpt lat="39.744933" lon="-4.275350">
        <ele>2469.0</ele>
        <time>2013-07-03T15:57:23Z</time>
      </trkpt>
      <trkpt lat="39.744983" lon="-4.275250">
        <ele>2472.0</ele>
        <time>2013-07-03T15:57:24Z</time>
      </trkpt>
      <trkpt lat="39.745017" lon="-4.275133">
        <ele>2474.0</ele>
        <time>2013-07-03T15:57:25Z</time>
      </trkpt>
      <trkpt lat="39.745050" lon="-4.275033">
        <ele>2476.0</ele>
        <time>2013-07-03T15:57:26Z</time>
      </trkpt>
      <trkpt lat="39.745083" lon="-4.274933">
        <ele>2477.0</ele>
        <time>2013-07-03T15:57:27Z</time>
      </trkpt>
      <trkpt lat="39.745133" lon="-4.274817">
        <ele>2479.0</ele>
        <time>2013-07-03T15:57:28Z</time>
      </trkpt>
      <trkpt lat="39.745200" lon="-4.274733">
        <ele>2481.0</ele>
        <time>2013-07-03T15:57:29Z</time>
      </trkpt>
      <trkpt lat="39.745267" lon="-4.274667">
        <ele>2483.0</ele>
        <time>2013-07-03T15:57:30Z</time>
      </trkpt>
      <trkpt lat="39.745333" lon="-4.274633">
        <ele>2486.0</ele>
        <time>2013-07-03T15:57:31Z</time>
      </trkpt>
      <trkpt lat="39.745383" lon="-4.274617">
        <ele>2488.0</ele>
        <time>2013-07-03T15:57:32Z</time>
      </trkpt>
      <trkpt lat="39.745433" lon="-4.274617">
        <ele>2489.0</ele>
        <time>2013-07-03T15:57:33Z</time>
      </trkpt>
      <trkpt lat="39.745500" lon="-4.274617">
        <ele>2490.0</ele>
        <time>2013-07-03T15:57:34Z</time>
      </trkpt>
      <trkpt lat="39.745567" lon="-4.274617">
        <ele>2489.0</ele>
        <time>2013-07-03T15:57:35Z</time>
      </trkpt>
      <trkpt lat="39.745633" lon="-4.274650">
        <ele>2489.0</ele>
        <time>2013-07-03T15:57:36Z</time>
      </trkpt>
      <trkpt lat="39.745700" lon="-4.274700">
        <ele>2490.0</ele>
        <time>2013-07-03T15:57:37Z</time>
      </trkpt>
      <trkpt lat="39.745733" lon="-4.274767">
        <ele>2491.0</ele>
        <time>2013-07-03T15:57:38Z</time>
      </trkpt>
      <trkpt lat="39.745767" lon="-4.274850">
        <ele>2492.0</ele>
        <time>2013-07-03T15:57:39Z</time>
      </trkpt>
      <trkpt lat="39.745767" lon="-4.274917">
        <ele>2493.0</ele>
        <time>2013-07-03T15:57:40Z</time>
      </trkpt>
      <trkpt lat="39.745750" lon="-4.274983">
        <ele>2494.0</ele>
        <time>2013-07-03T15:57:41Z</time>
      </trkpt>
      <trkpt lat="39.745733" lon="-4.275050">
        <ele>2495.0</ele>
        <time>2013-07-03T15:57:42Z</time>
      </trkpt>
      <trkpt lat="39.745717" lon="-4.275117">
        <ele>2495.0</ele>
        <time>2013-07-03T15:57:43Z</time>
      </trkpt>
      <trkpt lat="39.745683" lon="-4.275183">
        <ele>2496.0</ele>
        <time>2013-07-03T15:57:44Z</time>
      </trkpt>
      <trkpt lat="39.745650" lon="-4.275250">
        <ele>2496.0</ele>
        <time>2013-07-03T15:57:45Z</time>
      </trkpt>
      <trkpt lat="39.745600" lon="-4.275317">
        <ele>2497.0</ele>
        <time>2013-07-03T15:57:46Z</time>
      </trkpt>
      <trkpt lat="39.745533" lon="-4.275367">
        <ele>2499.0</ele>
        <time>2013-07-03T15:57:47Z</time>
      </trkpt>
      <trkpt lat="39.745483" lon="-4.275400">
        <ele>2500.0</ele>
        <time>2013-07-03T15:57:48Z</time>
      </trkpt>
      <trkpt lat="39.745433" lon="-4.275450">
        <ele>2501.0</ele>
        <time>2013-07-03T15:57:49Z</time>
      </trkpt>
      <trkpt lat="39.745367" lon="-4.275500">
        <ele>2501.0</ele>
        <time>2013-07-03T15:57:50Z</time>
      </trkpt>
      <trkpt lat="39.745300" lon="-4.275533">
        <ele>2502.0</ele>
        <time>2013-07-03T15:57:51Z</time>
      </trkpt>
      <trkpt lat="39.745217" lon="-4.275550">
        <ele>2503.0</ele>
        <time>2013-07-03T15:57:52Z</time>
      </trkpt>
      <trkpt lat="39.745150" lon="-4.275550">
        <ele>2504.0</ele>
        <time>2013-07-03T15:57:53Z</time>
      </trkpt>
      <trkpt lat="39.745083" lon="-4.275550">
        <ele>2504.0</ele>
        <time>2013-07-03T15:57:54Z</time>
      </trkpt>
      <trkpt lat="39.745017" lon="-4.275567">
        <ele>2505.0</ele>
        <time>2013-07-03T15:57:55Z</time>
      </trkpt>
      <trkpt lat="39.744933" lon="-4.275583">
        <ele>2505.0</ele>
        <time>2013-07-03T15:57:56Z</time>
      </trkpt>
      <trkpt lat="39.744867" lon="-4.275600">
        <ele>2505.0</ele>
        <time>2013-07-03T15:57:57Z</time>
      </trkpt>
      <trkpt lat="39.744783" lon="-4.275583">
        <ele>2505.0</ele>
        <time>2013-07-03T15:57:58Z</time>
      </trkpt>
      <trkpt lat="39.744717" lon="-4.275550">
        <ele>2505.0</ele>
        <time>2013-07-03T15:57:59Z</time>
      </trkpt>
      <trkpt lat="39.744633" lon="-4.275500">
        <ele>2506.0</ele>
        <time>2013-07-03T15:58:00Z</time>
      </trkpt>
      <trkpt lat="39.744567" lon="-4.275417">
        <ele>2506.0</ele>
        <time>2013-07-03T15:58:01Z</time>
      </trkpt>
      <trkpt lat="39.744500" lon="-4.275333">
        <ele>2507.0</ele>
        <time>2013-07-03T15:58:02Z</time>
      </trkpt>
      <trkpt lat="39.744450" lon="-4.275233">
        <ele>2509.0</ele>
        <time>2013-07-03T15:58:03Z</time>
      </trkpt>
      <trkpt lat="39.744417" lon="-4.275133">
        <ele>2510.0</ele>
        <time>2013-07-03T15:58:04Z</time>
      </trkpt>
      <trkpt lat="39.744383" lon="-4.275033">
        <ele>2511.0</ele>
        <time>2013-07-03T15:58:05Z</time>
      </trkpt>
      <trkpt lat="39.744350" lon="-4.274933">
        <ele>2512.0</ele>
        <time>2013-07-03T15:58:06Z</time>
      </trkpt>
      <trkpt lat="39.744317" lon="-4.274817">
        <ele>2513.0</ele>
        <time>2013-07-03T15:58:07Z</time>
      </trkpt>
      <trkpt lat="39.744300" lon="-4.274700">
        <ele>2513.0</ele>
        <time>2013-07-03T15:58:08Z</time>
      </trkpt>
      <trkpt lat="39.744300" lon="-4.274583">
        <ele>2513.0</ele>
        <time>2013-07-03T15:58:09Z</time>
      </trkpt>
      <trkpt lat="39.744300" lon="-4.274450">
        <ele>2514.0</ele>
        <time>2013-07-03T15:58:10Z</time>
      </trkpt>
      <trkpt lat="39.744333" lon="-4.274333">
        <ele>2515.0</ele>
        <time>2013-07-03T15:58:11Z</time>
      </trkpt>
      <trkpt lat="39.744367" lon="-4.274200">
        <ele>2516.0</ele>
        <time>2013-07-03T15:58:12Z</time>
      </trkpt>
      <trkpt lat="39.744400" lon="-4.274083">
        <ele>2518.0</ele>
        <time>2013-07-03T15:58:13Z</time>
      </trkpt>
      <trkpt lat="39.744450" lon="-4.273983">
        <ele>2519.0</ele>
        <time>2013-07-03T15:58:14Z</time>
      </trkpt>
      <trkpt lat="39.744483" lon="-4.273900">
        <ele>2521.0</ele>
        <time>2013-07-03T15:58:15Z</time>
      </trkpt>
      <trkpt lat="39.744533" lon="-4.273817">
        <ele>2523.0</ele>
        <time>2013-07-03T15:58:16Z</time>
      </trkpt>
      <trkpt lat="39.744600" lon="-4.273750">
        <ele>2524.0</ele>
        <time>2013-07-03T15:58:17Z</time>
      </trkpt>
      <trkpt lat="39.744650" lon="-4.273683">
        <ele>2525.0</ele>
        <time>2013-07-03T15:58:18Z</time>
      </trkpt>
      <trkpt lat="39.744717" lon="-4.273633">
        <ele>2525.0</ele>
        <time>2013-07-03T15:58:19Z</time>
      </trkpt>
      <trkpt lat="39.744783" lon="-4.273600">
        <ele>2526.0</ele>
        <time>2013-07-03T15:58:20Z</time>
      </trkpt>
      <trkpt lat="39.744850" lon="-4.273583">
        <ele>2526.0</ele>
        <time>2013-07-03T15:58:21Z</time>
      </trkpt>
      <trkpt lat="39.744917" lon="-4.273583">
        <ele>2526.0</ele>
        <time>2013-07-03T15:58:22Z</time>
      </trkpt>
      <trkpt lat="39.744983" lon="-4.273617">
        <ele>2525.0</ele>
        <time>2013-07-03T15:58:23Z</time>
      </trkpt>
      <trkpt lat="39.745033" lon="-4.273667">
        <ele>2526.0</ele>
        <time>2013-07-03T15:58:24Z</time>
      </trkpt>
      <trkpt lat="39.745083" lon="-4.273717">
        <ele>2526.0</ele>
        <time>2013-07-03T15:58:25Z</time>
      </trkpt>
      <trkpt lat="39.745133" lon="-4.273783">
        <ele>2525.0</ele>
        <time>2013-07-03T15:58:26Z</time>
      </trkpt>
      <trkpt lat="39.745183" lon="-4.273833">
        <ele>2526.0</ele>
        <time>2013-07-03T15:58:27Z</time>
      </trkpt>
      <trkpt lat="39.745217" lon="-4.273900">
        <ele>2526.0</ele>
        <time>2013-07-03T15:58:28Z</time>
      </trkpt>
      <trkpt lat="39.745250" lon="-4.273967">
        <ele>2526.0</ele>
        <time>2013-07-03T15:58:29Z</time>
      </trkpt>
      <trkpt lat="39.745283" lon="-4.274033">
        <ele>2526.0</ele>
        <time>2013-07-03T15:58:30Z</time>
      </trkpt>
      <trkpt lat="39.745300" lon="-4.274083">
        <ele>2527.0</ele>
        <time>2013-07-03T15:58:31Z</time>
      </trkpt>
      <trkpt lat="39.745333" lon="-4.274150">
        <ele>2527.0</ele>
        <time>2013-07-03T15:58:32Z</time>
      </trkpt>
      <trkpt lat="39.745350" lon="-4.274200">
        <ele>2528.0</ele>
        <time>2013-07-03T15:58:33Z</time>
      </trkpt>
      <trkpt lat="39.745383" lon="-4.274267">
        <ele>2528.0</ele>
        <time>2013-07-03T15:58:34Z</time>
      </trkpt>
      <trkpt lat="39.745400" lon="-4.274333">
        <ele>2529.0</ele>
        <time>2013-07-03T15:58:35Z</time>
      </trkpt>
      <trkpt lat="39.745417" lon="-4.274400">
        <ele>2530.0</ele>
        <time>2013-07-03T15:58:36Z</time>
      </trkpt>
      <trkpt lat="39.745433" lon="-4.274467">
        <ele>2531.0</ele>
        <time>2013-07-03T15:58:37Z</time>
      </trkpt>
      <trkpt lat="39.745450" lon="-4.274550">
        <ele>2532.0</ele>
        <time>2013-07-03T15:58:38Z</time>
      </trkpt>
      <trkpt lat="39.745450" lon="-4.274617">
        <ele>2533.0</ele>
        <time>2013-07-03T15:58:39Z</time>
      </trkpt>
      <trkpt lat="39.745467" lon="-4.274683">
        <ele>2535.0</ele>
        <time>2013-07-03T15:58:40Z</time>
      </trkpt>
      <trkpt lat="39.745467" lon="-4.274750">
        <ele>2536.0</ele>
        <time>2013-07-03T15:58:41Z</time>
      </trkpt>
      <trkpt lat="39.745483" lon="-4.274817">
        <ele>2537.0</ele>
        <time>2013-07-03T15:58:42Z</time>
      </trkpt>
      <trkpt lat="39.745483" lon="-4.274883">
        <ele>2537.0</ele>
        <time>2013-07-03T15:58:43Z</time>
      </trkpt>
      <trkpt lat="39.745483" lon="-4.274950">
        <ele>2537.0</ele>
        <time>2013-07-03T15:58:44Z</time>
      </trkpt>
      <trkpt lat="39.745483" lon="-4.275033">
        <ele>2538.0</ele>
        <time>2013-07-03T15:58:45Z</time>
      </trkpt>
      <trkpt lat="39.745467" lon="-4.275100">
        <ele>2538.0</ele>
        <time>2013-07-03T15:58:46Z</time>
      </trkpt>
      <trkpt lat="39.745433" lon="-4.275167">
        <ele>2538.0</ele>
        <time>2013-07-03T15:58:47Z</time>
      </trkpt>
      <trkpt lat="39.745400" lon="-4.275233">
        <ele>2538.0</ele>
        <time>2013-07-03T15:58:48Z</time>
      </trkpt>
      <trkpt lat="39.745350" lon="-4.275300">
        <ele>2537.0</ele>
        <time>2013-07-03T15:58:49Z</time>
      </trkpt>
      <trkpt lat="39.745283" lon="-4.275350">
        <ele>2537.0</ele>
        <time>2013-07-03T15:58:50Z</time>
      </trkpt>
      <trkpt lat="39.745217" lon="-4.275400">
        <ele>2537.0</ele>
        <time>2013-07-03T15:58:51Z</time>
      </trkpt>
      <trkpt lat="39.745133" lon="-4.275417">
        <ele>2537.0</ele>
        <time>2013-07-03T15:58:52Z</time>
      </trkpt>
      <trkpt lat="39.745033" lon="-4.275417">
        <ele>2537.0</ele>
        <time>2013-07-03T15:58:53Z</time>
      </trkpt>
      <trkpt lat="39.744950" lon="-4.275417">
        <ele>2538.0</ele>
        <time>2013-07-03T15:58:54Z</time>
      </trkpt>
      <trkpt lat="39.744850" lon="-4.275400">
        <ele>2538.0</ele>
        <time>2013-07-03T15:58:55Z</time>
      </trkpt>
      <trkpt lat="39.744767" lon="-4.275367">
        <ele>2539.0</ele>
        <time>2013-07-03T15:58:56Z</time>
      </trkpt>
      <trkpt lat="39.744683" lon="-4.275333">
        <ele>2539.0</ele>
        <time>2013-07-03T15:58:57Z</time>
      </trkpt>
      <trkpt lat="39.744583" lon="-4.275283">
        <ele>2539.0</ele>
        <time>2013-07-03T15:58:58Z</time>
      </trkpt>
      <trkpt lat="39.744500" lon="-4.275217">
        <ele>2539.0</ele>
        <time>2013-07-03T15:58:59Z</time>
      </trkpt>
      <trkpt lat="39.744417" lon="-4.275150">
        <ele>2539.0</ele>
        <time>2013-07-03T15:59:00Z</time>
      </trkpt>
      <trkpt lat="39.744333" lon="-4.275100">
        <ele>2540.0</ele>
        <time>2013-07-03T15:59:01Z</time>
      </trkpt>
      <trkpt lat="39.744267" lon="-4.275033">
        <ele>2540.0</ele>
        <time>2013-07-03T15:59:02Z</time>
      </trkpt>
      <trkpt lat="39.744183" lon="-4.274967">
        <ele>2541.0</ele>
        <time>2013-07-03T15:59:03Z</time>
      </trkpt>
      <trkpt lat="39.744117" lon="-4.274900">
        <ele>2542.0</ele>
        <time>2013-07-03T15:59:04Z</time>
      </trkpt>
      <trkpt lat="39.744050" lon="-4.274817">
        <ele>2543.0</ele>
        <time>2013-07-03T15:59:05Z</time>
      </trkpt>
      <trkpt lat="39.743983" lon="-4.274750">
        <ele>2544.0</ele>
        <time>2013-07-03T15:59:06Z</time>
      </trkpt>
      <trkpt lat="39.743933" lon="-4.274667">
        <ele>2545.0</ele>
        <time>2013-07-03T15:59:07Z</time>
      </trkpt>
      <trkpt lat="39.743900" lon="-4.274583">
        <ele>2547.0</ele>
        <time>2013-07-03T15:59:08Z</time>
      </trkpt>
      <trkpt lat="39.743867" lon="-4.274500">
        <ele>2548.0</ele>
        <time>2013-07-03T15:59:09Z</time>
      </trkpt>
      <trkpt lat="39.743833" lon="-4.274417">
        <ele>2548.0</ele>
        <time>2013-07-03T15:59:10Z</time>
      </trkpt>
      <trkpt lat="39.743800" lon="-4.274333">
        <ele>2548.0</ele>
        <time>2013-07-03T15:59:11Z</time>
      </trkpt>
      <trkpt lat="39.743733" lon="-4.274233">
        <ele>2548.0</ele>
        <time>2013-07-03T15:59:12Z</time>
      </trkpt>
      <trkpt lat="39.743667" lon="-4.274150">
        <ele>2548.0</ele>
        <time>2013-07-03T15:59:13Z</time>
      </trkpt>
      <trkpt lat="39.743617" lon="-4.274050">
        <ele>2549.0</ele>
        <time>2013-07-03T15:59:14Z</time>
      </trkpt>
      <trkpt lat="39.743567" lon="-4.273967">
        <ele>2550.0</ele>
        <time>2013-07-03T15:59:15Z</time>
      </trkpt>
      <trkpt lat="39.743517" lon="-4.273883">
        <ele>2550.0</ele>
        <time>2013-07-03T15:59:16Z</time>
      </trkpt>
      <trkpt lat="39.743450" lon="-4.273800">
        <ele>2549.0</ele>
        <time>2013-07-03T15:59:17Z</time>
      </trkpt>
      <trkpt lat="39.743383" lon="-4.273717">
        <ele>2550.0</ele>
        <time>2013-07-03T15:59:18Z</time>
      </trkpt>
      <trkpt lat="39.743300" lon="-4.273650">
        <ele>2551.0</ele>
        <time>2013-07-03T15:59:19Z</time>
      </trkpt>
      <trkpt lat="39.743233" lon="-4.273583">
        <ele>2552.0</ele>
        <time>2013-07-03T15:59:20Z</time>
      </trkpt>
      <trkpt lat="39.743167" lon="-4.273517">
        <ele>2554.0</ele>
        <time>2013-07-03T15:59:21Z</time>
      </trkpt>
      <trkpt lat="39.743100" lon="-4.273467">
        <ele>2555.0</ele>
        <time>2013-07-03T15:59:22Z</time>
      </trkpt>
      <trkpt lat="39.743050" lon="-4.273400">
        <ele>2556.0</ele>
        <time>2013-07-03T15:59:23Z</time>
      </trkpt>
      <trkpt lat="39.742983" lon="-4.273333">
        <ele>2557.0</ele>
        <time>2013-07-03T15:59:24Z</time>
      </trkpt>
      <trkpt lat="39.742917" lon="-4.273283">
        <ele>2557.0</ele>
        <time>2013-07-03T15:59:25Z</time>
      </trkpt>
      <trkpt lat="39.742833" lon="-4.273267">
        <ele>2557.0</ele>
        <time>2013-07-03T15:59:26Z</time>
      </trkpt>
      <trkpt lat="39.742767" lon="-4.273283">
        <ele>2558.0</ele>
        <time>2013-07-03T15:59:27Z</time>
      </trkpt>
      <trkpt lat="39.742700" lon="-4.273317">
        <ele>2559.0</ele>
        <time>2013-07-03T15:59:28Z</time>
      </trkpt>
      <trkpt lat="39.742650" lon="-4.273367">
        <ele>2560.0</ele>
        <time>2013-07-03T15:59:29Z</time>
      </trkpt>
      <trkpt lat="39.742617" lon="-4.273417">
        <ele>2560.0</ele>
        <time>2013-07-03T15:59:30Z</time>
      </trkpt>
      <trkpt lat="39.742600" lon="-4.273467">
        <ele>2560.0</ele>
        <time>2013-07-03T15:59:31Z</time>
      </trkpt>
      <trkpt lat="39.742583" lon="-4.273533">
        <ele>2559.0</ele>
        <time>2013-07-03T15:59:32Z</time>
      </trkpt>
      <trkpt lat="39.742583" lon="-4.273600">
        <ele>2558.0</ele>
        <time>2013-07-03T15:59:33Z</time>
      </trkpt>
      <trkpt lat="39.742583" lon="-4.273683">
        <ele>2557.0</ele>
        <time>2013-07-03T15:59:34Z</time>
      </trkpt>
      <trkpt lat="39.742567" lon="-4.273783">
        <ele>2557.0</ele>
        <time>2013-07-03T15:59:35Z</time>
      </trkpt>
      <trkpt lat="39.742550" lon="-4.273867">
        <ele>2557.0</ele>
        <time>2013-07-03T15:59:36Z</time>
      </trkpt>
      <trkpt lat="39.742533" lon="-4.273950">
        <ele>2556.0</ele>
        <time>2013-07-03T15:59:37Z</time>
      </trkpt>
      <trkpt lat="39.742500" lon="-4.274050">
        <ele>2555.0</ele>
        <time>2013-07-03T15:59:38Z</time>
      </trkpt>
      <trkpt lat="39.742433" lon="-4.274133">
        <ele>2554.0</ele>
        <time>2013-07-03T15:59:39Z</time>
      </trkpt>
      <trkpt lat="39.742350" lon="-4.274217">
        <ele>2555.0</ele>
        <time>2013-07-03T15:59:40Z</time>
      </trkpt>
      <trkpt lat="39.742267" lon="-4.274250">
        <ele>2556.0</ele>
        <time>2013-07-03T15:59:41Z</time>
      </trkpt>
      <trkpt lat="39.742183" lon="-4.274283">
        <ele>2557.0</ele>
        <time>2013-07-03T15:59:42Z</time>
      </trkpt>
      <trkpt lat="39.742100" lon="-4.274317">
        <ele>2557.0</ele>
        <time>2013-07-03T15:59:43Z</time>
      </trkpt>
      <trkpt lat="39.742017" lon="-4.274350">
        <ele>2556.0</ele>
        <time>2013-07-03T15:59:44Z</time>
      </trkpt>
      <trkpt lat="39.741933" lon="-4.274383">
        <ele>2555.0</ele>
        <time>2013-07-03T15:59:45Z</time>
      </trkpt>
      <trkpt lat="39.741850" lon="-4.274417">
        <ele>2553.0</ele>
        <time>2013-07-03T15:59:46Z</time>
      </trkpt>
      <trkpt lat="39.741750" lon="-4.274450">
        <ele>2552.0</ele>
        <time>2013-07-03T15:59:47Z</time>
      </trkpt>
      <trkpt lat="39.741650" lon="-4.274467">
        <ele>2552.0</ele>
        <time>2013-07-03T15:59:48Z</time>
      </trkpt>
      <trkpt lat="39.741550" lon="-4.274500">
        <ele>2552.0</ele>
        <time>2013-07-03T15:59:49Z</time>
      </trkpt>
      <trkpt lat="39.741450" lon="-4.274533">
        <ele>2552.0</ele>
        <time>2013-07-03T15:59:50Z</time>
      </trkpt>
      <trkpt lat="39.741367" lon="-4.274550">
        <ele>2552.0</ele>
        <time>2013-07-03T15:59:51Z</time>
      </trkpt>
      <trkpt lat="39.741267" lon="-4.274550">
        <ele>2552.0</ele>
        <time>2013-07-03T15:59:52Z</time>
      </trkpt>
      <trkpt lat="39.741167" lon="-4.274550">
        <ele>2551.0</ele>
        <time>2013-07-03T15:59:53Z</time>
      </trkpt>
      <trkpt lat="39.741050" lon="-4.274567">
        <ele>2550.0</ele>
        <time>2013-07-03T15:59:54Z</time>
      </trkpt>
      <trkpt lat="39.740950" lon="-4.274567">
        <ele>2550.0</ele>
        <time>2013-07-03T15:59:55Z</time>
      </trkpt>
      <trkpt lat="39.740833" lon="-4.274550">
        <ele>2550.0</ele>
        <time>2013-07-03T15:59:56Z</time>
      </trkpt>
      <trkpt lat="39.740733" lon="-4.274533">
        <ele>2550.0</ele>
        <time>2013-07-03T15:59:57Z</time>
      </trkpt>
      <trkpt lat="39.740633" lon="-4.274517">
        <ele>2551.0</ele>
        <time>2013-07-03T15:59:58Z</time>
      </trkpt>
      <trkpt lat="39.740533" lon="-4.274483">
        <ele>2550.0</ele>
        <time>2013-07-03T15:59:59Z</time>
      </trkpt>
      <trkpt lat="39.740417" lon="-4.274467">
        <ele>2550.0</ele>
        <time>2013-07-03T16:00:00Z</time>
      </trkpt>
      <trkpt lat="39.740317" lon="-4.274450">
        <ele>2549.0</ele>
        <time>2013-07-03T16:00:01Z</time>
      </trkpt>
      <trkpt lat="39.740217" lon="-4.274433">
        <ele>2549.0</ele>
        <time>2013-07-03T16:00:02Z</time>
      </trkpt>
      <trkpt lat="39.740117" lon="-4.274417">
        <ele>2549.0</ele>
        <time>2013-07-03T16:00:03Z</time>
      </trkpt>
      <trkpt lat="39.740017" lon="-4.274383">
        <ele>2549.0</ele>
        <time>2013-07-03T16:00:04Z</time>
      </trkpt>
      <trkpt lat="39.739917" lon="-4.274367">
        <ele>2550.0</ele>
        <time>2013-07-03T16:00:05Z</time>
      </trkpt>
      <trkpt lat="39.739817" lon="-4.274333">
        <ele>2550.0</ele>
        <time>2013-07-03T16:00:06Z</time>
      </trkpt>
      <trkpt lat="39.739717" lon="-4.274317">
        <ele>2550.0</ele>
        <time>2013-07-03T16:00:07Z</time>
      </trkpt>
      <trkpt lat="39.739617" lon="-4.274283">
        <ele>2550.0</ele>
        <time>2013-07-03T16:00:08Z</time>
      </trkpt>
      <trkpt lat="39.739500" lon="-4.274250">
        <ele>2550.0</ele>
        <time>2013-07-03T16:00:09Z</time>
      </trkpt>
      <trkpt lat="39.739400" lon="-4.274217">
        <ele>2550.0</ele>
        <time>2013-07-03T16:00:10Z</time>
      </trkpt>
      <trkpt lat="39.739283" lon="-4.274200">
        <ele>2549.0</ele>
        <time>2013-07-03T16:00:11Z</time>
      </trkpt>
      <trkpt lat="39.739183" lon="-4.274167">
        <ele>2549.0</ele>
        <time>2013-07-03T16:00:12Z</time>
      </trkpt>
      <trkpt lat="39.739083" lon="-4.274133">
        <ele>2549.0</ele>
        <time>2013-07-03T16:00:13Z</time>
      </trkpt>
      <trkpt lat="39.739000" lon="-4.274100">
        <ele>2549.0</ele>
        <time>2013-07-03T16:00:14Z</time>
      </trkpt>
      <trkpt lat="39.738900" lon="-4.274067">
        <ele>2548.0</ele>
        <time>2013-07-03T16:00:15Z</time>
      </trkpt>
      <trkpt lat="39.738800" lon="-4.274033">
        <ele>2547.0</ele>
        <time>2013-07-03T16:00:16Z</time>
      </trkpt>
      <trkpt lat="39.738683" lon="-4.274000">
        <ele>2545.0</ele>
        <time>2013-07-03T16:00:17Z</time>
      </trkpt>
      <trkpt lat="39.738583" lon="-4.273967">
        <ele>2544.0</ele>
        <time>2013-07-03T16:00:18Z</time>
      </trkpt>
      <trkpt lat="39.738483" lon="-4.273917">
        <ele>2545.0</ele>
        <time>2013-07-03T16:00:19Z</time>
      </trkpt>
      <trkpt lat="39.738383" lon="-4.273883">
        <ele>2544.0</ele>
        <time>2013-07-03T16:00:20Z</time>
      </trkpt>
      <trkpt lat="39.738283" lon="-4.273833">
        <ele>2544.0</ele>
        <time>2013-07-03T16:00:21Z</time>
      </trkpt>
      <trkpt lat="39.738183" lon="-4.273800">
        <ele>2542.0</ele>
        <time>2013-07-03T16:00:22Z</time>
      </trkpt>
      <trkpt lat="39.738083" lon="-4.273750">
        <ele>2540.0</ele>
        <time>2013-07-03T16:00:23Z</time>
      </trkpt>
      <trkpt lat="39.737967" lon="-4.273700">
        <ele>2538.0</ele>
        <time>2013-07-03T16:00:24Z</time>
      </trkpt>
      <trkpt lat="39.737850" lon="-4.273650">
        <ele>2537.0</ele>
        <time>2013-07-03T16:00:25Z</time>
      </trkpt>
      <trkpt lat="39.737733" lon="-4.273600">
        <ele>2537.0</ele>
        <time>2013-07-03T16:00:26Z</time>
      </trkpt>
      <trkpt lat="39.737633" lon="-4.273567">
        <ele>2537.0</ele>
        <time>2013-07-03T16:00:27Z</time>
      </trkpt>
      <trkpt lat="39.737533" lon="-4.273533">
        <ele>2537.0</ele>
        <time>2013-07-03T16:00:28Z</time>
      </trkpt>
      <trkpt lat="39.737433" lon="-4.273500">
        <ele>2535.0</ele>
        <time>2013-07-03T16:00:29Z</time>
      </trkpt>
      <trkpt lat="39.737333" lon="-4.273450">
        <ele>2533.0</ele>
        <time>2013-07-03T16:00:30Z</time>
      </trkpt>
      <trkpt lat="39.737217" lon="-4.273417">
        <ele>2531.0</ele>
        <time>2013-07-03T16:00:31Z</time>
      </trkpt>
      <trkpt lat="39.737083" lon="-4.273383">
        <ele>2529.0</ele>
        <time>2013-07-03T16:00:32Z</time>
      </trkpt>
      <trkpt lat="39.736967" lon="-4.273367">
        <ele>2528.0</ele>
        <time>2013-07-03T16:00:33Z</time>
      </trkpt>
      <trkpt lat="39.736833" lon="-4.273350">
        <ele>2528.0</ele>
        <time>2013-07-03T16:00:34Z</time>
      </trkpt>
      <trkpt lat="39.736733" lon="-4.273317">
        <ele>2529.0</ele>
        <time>2013-07-03T16:00:35Z</time>
      </trkpt>
      <trkpt lat="39.736617" lon="-4.273283">
        <ele>2528.0</ele>
        <time>2013-07-03T16:00:36Z</time>
      </trkpt>
      <trkpt lat="39.736500" lon="-4.273250">
        <ele>2527.0</ele>
        <time>2013-07-03T16:00:37Z</time>
      </trkpt>
      <trkpt lat="39.736383" lon="-4.273233">
        <ele>2525.0</ele>
        <time>2013-07-03T16:00:38Z</time>
      </trkpt>
      <trkpt lat="39.736267" lon="-4.273217">
        <ele>2525.0</ele>
        <time>2013-07-03T16:00:39Z</time>
      </trkpt>
      <trkpt lat="39.736150" lon="-4.273200">
        <ele>2525.0</ele>
        <time>2013-07-03T16:00:40Z</time>
      </trkpt>
      <trkpt lat="39.736033" lon="-4.273167">
        <ele>2526.0</ele>
        <time>2013-07-03T16:00:41Z</time>
      </trkpt>
      <trkpt lat="39.735950" lon="-4.273133">
        <ele>2526.0</ele>
        <time>2013-07-03T16:00:42Z</time>
      </trkpt>
      <trkpt lat="39.735850" lon="-4.273083">
        <ele>2525.0</ele>
        <time>2013-07-03T16:00:43Z</time>
      </trkpt>
      <trkpt lat="39.735733" lon="-4.273033">
        <ele>2523.0</ele>
        <time>2013-07-03T16:00:44Z</time>
      </trkpt>
      <trkpt lat="39.735617" lon="-4.273000">
        <ele>2520.0</ele>
        <time>2013-07-03T16:00:45Z</time>
      </trkpt>
      <trkpt lat="39.735500" lon="-4.272950">
        <ele>2518.0</ele>
        <time>2013-07-03T16:00:46Z</time>
      </trkpt>
      <trkpt lat="39.735367" lon="-4.272900">
        <ele>2516.0</ele>
        <time>2013-07-03T16:00:47Z</time>
      </trkpt>
      <trkpt lat="39.735233" lon="-4.272867">
        <ele>2516.0</ele>
        <time>2013-07-03T16:00:48Z</time>
      </trkpt>
      <trkpt lat="39.735133" lon="-4.272833">
        <ele>2515.0</ele>
        <time>2013-07-03T16:00:49Z</time>
      </trkpt>
      <trkpt lat="39.735033" lon="-4.272817">
        <ele>2514.0</ele>
        <time>2013-07-03T16:00:50Z</time>
      </trkpt>
      <trkpt lat="39.734933" lon="-4.272783">
        <ele>2511.0</ele>
        <time>2013-07-03T16:00:51Z</time>
      </trkpt>
      <trkpt lat="39.734817" lon="-4.272783">
        <ele>2508.0</ele>
        <time>2013-07-03T16:00:52Z</time>
      </trkpt>
      <trkpt lat="39.734683" lon="-4.272783">
        <ele>2504.0</ele>
        <time>2013-07-03T16:00:53Z</time>
      </trkpt>
      <trkpt lat="39.734567" lon="-4.272783">
        <ele>2501.0</ele>
        <time>2013-07-03T16:00:54Z</time>
      </trkpt>
      <trkpt lat="39.734433" lon="-4.272783">
        <ele>2499.0</ele>
        <time>2013-07-03T16:00:55Z</time>
      </trkpt>
      <trkpt lat="39.734317" lon="-4.272767">
        <ele>2498.0</ele>
        <time>2013-07-03T16:00:56Z</time>
      </trkpt>
      <trkpt lat="39.734200" lon="-4.272733">
        <ele>2496.0</ele>
        <time>2013-07-03T16:00:57Z</time>
      </trkpt>
      <trkpt lat="39.734067" lon="-4.272717">
        <ele>2494.0</ele>
        <time>2013-07-03T16:00:58Z</time>
      </trkpt>
      <trkpt lat="39.733950" lon="-4.272700">
        <ele>2491.0</ele>
        <time>2013-07-03T16:00:59Z</time>
      </trkpt>
      <trkpt lat="39.733817" lon="-4.272683">
        <ele>2488.0</ele>
        <time>2013-07-03T16:01:00Z</time>
      </trkpt>
      <trkpt lat="39.733683" lon="-4.272667">
        <ele>2486.0</ele>
        <time>2013-07-03T16:01:01Z</time>
      </trkpt>
      <trkpt lat="39.733550" lon="-4.272633">
        <ele>2485.0</ele>
        <time>2013-07-03T16:01:02Z</time>
      </trkpt>
      <trkpt lat="39.733417" lon="-4.272633">
        <ele>2483.0</ele>
        <time>2013-07-03T16:01:03Z</time>
      </trkpt>
      <trkpt lat="39.733300" lon="-4.272633">
        <ele>2481.0</ele>
        <time>2013-07-03T16:01:04Z</time>
      </trkpt>
      <trkpt lat="39.733183" lon="-4.272633">
        <ele>2478.0</ele>
        <time>2013-07-03T16:01:05Z</time>
      </trkpt>
      <trkpt lat="39.733050" lon="-4.272617">
        <ele>2475.0</ele>
        <time>2013-07-03T16:01:06Z</time>
      </trkpt>
      <trkpt lat="39.732917" lon="-4.272583">
        <ele>2471.0</ele>
        <time>2013-07-03T16:01:07Z</time>
      </trkpt>
      <trkpt lat="39.732783" lon="-4.272567">
        <ele>2469.0</ele>
        <time>2013-07-03T16:01:08Z</time>
      </trkpt>
      <trkpt lat="39.732650" lon="-4.272583">
        <ele>2467.0</ele>
        <time>2013-07-03T16:01:09Z</time>
      </trkpt>
      <trkpt lat="39.732517" lon="-4.272583">
        <ele>2465.0</ele>
        <time>2013-07-03T16:01:10Z</time>
      </trkpt>
      <trkpt lat="39.732383" lon="-4.272567">
        <ele>2463.0</ele>
        <time>2013-07-03T16:01:11Z</time>
      </trkpt>
      <trkpt lat="39.732267" lon="-4.272550">
        <ele>2460.0</ele>
        <time>2013-07-03T16:01:12Z</time>
      </trkpt>
      <trkpt lat="39.732133" lon="-4.272533">
        <ele>2458.0</ele>
        <time>2013-07-03T16:01:13Z</time>
      </trkpt>
      <trkpt lat="39.732000" lon="-4.272533">
        <ele>2455.0</ele>
        <time>2013-07-03T16:01:14Z</time>
      </trkpt>
      <trkpt lat="39.731867" lon="-4.272500">
        <ele>2453.0</ele>
        <time>2013-07-03T16:01:15Z</time>
      </trkpt>
      <trkpt lat="39.731733" lon="-4.272450">
        <ele>2450.0</ele>
        <time>2013-07-03T16:01:16Z</time>
      </trkpt>
      <trkpt lat="39.731600" lon="-4.272383">
        <ele>2448.0</ele>
        <time>2013-07-03T16:01:17Z</time>
      </trkpt>
      <trkpt lat="39.731483" lon="-4.272333">
        <ele>2446.0</ele>
        <time>2013-07-03T16:01:18Z</time>
      </trkpt>
      <trkpt lat="39.731367" lon="-4.272300">
        <ele>2444.0</ele>
        <time>2013-07-03T16:01:19Z</time>
      </trkpt>
      <trkpt lat="39.731250" lon="-4.272267">
        <ele>2441.0</ele>
        <time>2013-07-03T16:01:20Z</time>
      </trkpt>
      <trkpt lat="39.731117" lon="-4.272233">
        <ele>2438.0</ele>
        <time>2013-07-03T16:01:21Z</time>
      </trkpt>
      <trkpt lat="39.730983" lon="-4.272183">
        <ele>2435.0</ele>
        <time>2013-07-03T16:01:22Z</time>
      </trkpt>
      <trkpt lat="39.730850" lon="-4.272117">
        <ele>2433.0</ele>
        <time>2013-07-03T16:01:23Z</time>
      </trkpt>
      <trkpt lat="39.730717" lon="-4.272083">
        <ele>2431.0</ele>
        <time>2013-07-03T16:01:24Z</time>
      </trkpt>
      <trkpt lat="39.730600" lon="-4.272067">
        <ele>2430.0</ele>
        <time>2013-07-03T16:01:25Z</time>
      </trkpt>
      <trkpt lat="39.730483" lon="-4.272050">
        <ele>2428.0</ele>
        <time>2013-07-03T16:01:26Z</time>
      </trkpt>
      <trkpt lat="39.730383" lon="-4.272017">
        <ele>2425.0</ele>
        <time>2013-07-03T16:01:27Z</time>
      </trkpt>
      <trkpt lat="39.730250" lon="-4.272000">
        <ele>2421.0</ele>
        <time>2013-07-03T16:01:28Z</time>
      </trkpt>
      <trkpt lat="39.730117" lon="-4.271983">
        <ele>2415.0</ele>
        <time>2013-07-03T16:01:29Z</time>
      </trkpt>
      <trkpt lat="39.729983" lon="-4.271967">
        <ele>2410.0</ele>
        <time>2013-07-03T16:01:30Z</time>
      </trkpt>
      <trkpt lat="39.729850" lon="-4.271967">
        <ele>2406.0</ele>
        <time>2013-07-03T16:01:31Z</time>
      </trkpt>
      <trkpt lat="39.729733" lon="-4.271933">
        <ele>2403.0</ele>
        <time>2013-07-03T16:01:32Z</time>
      </trkpt>
      <trkpt lat="39.729600" lon="-4.271917">
        <ele>2399.0</ele>
        <time>2013-07-03T16:01:33Z</time>
      </trkpt>
      <trkpt lat="39.729483" lon="-4.271900">
        <ele>2395.0</ele>
        <time>2013-07-03T16:01:34Z</time>
      </trkpt>
      <trkpt lat="39.729367" lon="-4.271900">
        <ele>2391.0</ele>
        <time>2013-07-03T16:01:35Z</time>
      </trkpt>
      <trkpt lat="39.729233" lon="-4.271900">
        <ele>2386.0</ele>
        <time>2013-07-03T16:01:36Z</time>
      </trkpt>
      <trkpt lat="39.729100" lon="-4.271917">
        <ele>2381.0</ele>
        <time>2013-07-03T16:01:37Z</time>
      </trkpt>
      <trkpt lat="39.728950" lon="-4.271933">
        <ele>2377.0</ele>
        <time>2013-07-03T16:01:38Z</time>
      </trkpt>
      <trkpt lat="39.728817" lon="-4.271950">
        <ele>2373.0</ele>
        <time>2013-07-03T16:01:39Z</time>
      </trkpt>
      <trkpt lat="39.728667" lon="-4.271950">
        <ele>2370.0</ele>
        <time>2013-07-03T16:01:40Z</time>
      </trkpt>
      <trkpt lat="39.728517" lon="-4.271950">
        <ele>2368.0</ele>
        <time>2013-07-03T16:01:41Z</time>
      </trkpt>
      <trkpt lat="39.728383" lon="-4.271950">
        <ele>2365.0</ele>
        <time>2013-07-03T16:01:42Z</time>
      </trkpt>
      <trkpt lat="39.728267" lon="-4.271967">
        <ele>2361.0</ele>
        <time>2013-07-03T16:01:43Z</time>
      </trkpt>
      <trkpt lat="39.728133" lon="-4.271983">
        <ele>2358.0</ele>
        <time>2013-07-03T16:01:44Z</time>
      </trkpt>
      <trkpt lat="39.728000" lon="-4.271983">
        <ele>2354.0</ele>
        <time>2013-07-03T16:01:45Z</time>
      </trkpt>
      <trkpt lat="39.727867" lon="-4.271983">
        <ele>2351.0</ele>
        <time>2013-07-03T16:01:46Z</time>
      </trkpt>
      <trkpt lat="39.727733" lon="-4.272000">
        <ele>2347.0</ele>
        <time>2013-07-03T16:01:47Z</time>
      </trkpt>
      <trkpt lat="39.727617" lon="-4.272000">
        <ele>2345.0</ele>
        <time>2013-07-03T16:01:48Z</time>
      </trkpt>
      <trkpt lat="39.727483" lon="-4.272000">
        <ele>2342.0</ele>
        <time>2013-07-03T16:01:49Z</time>
      </trkpt>
      <trkpt lat="39.727350" lon="-4.271983">
        <ele>2339.0</ele>
        <time>2013-07-03T16:01:50Z</time>
      </trkpt>
      <trkpt lat="39.727233" lon="-4.271967">
        <ele>2335.0</ele>
        <time>2013-07-03T16:01:51Z</time>
      </trkpt>
      <trkpt lat="39.727100" lon="-4.271967">
        <ele>2332.0</ele>
        <time>2013-07-03T16:01:52Z</time>
      </trkpt>
      <trkpt lat="39.726967" lon="-4.271967">
        <ele>2329.0</ele>
        <time>2013-07-03T16:01:53Z</time>
      </trkpt>
      <trkpt lat="39.726850" lon="-4.271950">
        <ele>2326.0</ele>
        <time>2013-07-03T16:01:54Z</time>
      </trkpt>
      <trkpt lat="39.726717" lon="-4.271933">
        <ele>2324.0</ele>
        <time>2013-07-03T16:01:55Z</time>
      </trkpt>
      <trkpt lat="39.726600" lon="-4.271917">
        <ele>2322.0</ele>
        <time>2013-07-03T16:01:56Z</time>
      </trkpt>
      <trkpt lat="39.726483" lon="-4.271900">
        <ele>2320.0</ele>
        <time>2013-07-03T16:01:57Z</time>
      </trkpt>
      <trkpt lat="39.726367" lon="-4.271883">
        <ele>2317.0</ele>
        <time>2013-07-03T16:01:58Z</time>
      </trkpt>
      <trkpt lat="39.726267" lon="-4.271883">
        <ele>2315.0</ele>
        <time>2013-07-03T16:01:59Z</time>
      </trkpt>
      <trkpt lat="39.726150" lon="-4.271883">
        <ele>2312.0</ele>
        <time>2013-07-03T16:02:00Z</time>
      </trkpt>
      <trkpt lat="39.726033" lon="-4.271883">
        <ele>2310.0</ele>
        <time>2013-07-03T16:02:01Z</time>
      </trkpt>
      <trkpt lat="39.725900" lon="-4.271883">
        <ele>2307.0</ele>
        <time>2013-07-03T16:02:02Z</time>
      </trkpt>
      <trkpt lat="39.725783" lon="-4.271883">
        <ele>2305.0</ele>
        <time>2013-07-03T16:02:03Z</time>
      </trkpt>
      <trkpt lat="39.725650" lon="-4.271883">
        <ele>2303.0</ele>
        <time>2013-07-03T16:02:04Z</time>
      </trkpt>
      <trkpt lat="39.725517" lon="-4.271883">
        <ele>2300.0</ele>
        <time>2013-07-03T16:02:05Z</time>
      </trkpt>
      <trkpt lat="39.725383" lon="-4.271867">
        <ele>2297.0</ele>
        <time>2013-07-03T16:02:06Z</time>
      </trkpt>
      <trkpt lat="39.725250" lon="-4.271850">
        <ele>2295.0</ele>
        <time>2013-07-03T16:02:07Z</time>
      </trkpt>
      <trkpt lat="39.725117" lon="-4.271817">
        <ele>2293.0</ele>
        <time>2013-07-03T16:02:08Z</time>
      </trkpt>
      <trkpt lat="39.725000" lon="-4.271783">
        <ele>2291.0</ele>
        <time>2013-07-03T16:02:09Z</time>
      </trkpt>
      <trkpt lat="39.724900" lon="-4.271750">
        <ele>2288.0</ele>
        <time>2013-07-03T16:02:10Z</time>
      </trkpt>
      <trkpt lat="39.724783" lon="-4.271733">
        <ele>2284.0</ele>
        <time>2013-07-03T16:02:11Z</time>
      </trkpt>
      <trkpt lat="39.724683" lon="-4.271733">
        <ele>2280.0</ele>
        <time>2013-07-03T16:02:12Z</time>
      </trkpt>
      <trkpt lat="39.724550" lon="-4.271717">
        <ele>2276.0</ele>
        <time>2013-07-03T16:02:13Z</time>
      </trkpt>
      <trkpt lat="39.724433" lon="-4.271700">
        <ele>2273.0</ele>
        <time>2013-07-03T16:02:14Z</time>
      </trkpt>
      <trkpt lat="39.724317" lon="-4.271683">
        <ele>2270.0</ele>
        <time>2013-07-03T16:02:15Z</time>
      </trkpt>
      <trkpt lat="39.724200" lon="-4.271667">
        <ele>2267.0</ele>
        <time>2013-07-03T16:02:16Z</time>
      </trkpt>
      <trkpt lat="39.724100" lon="-4.271650">
        <ele>2263.0</ele>
        <time>2013-07-03T16:02:17Z</time>
      </trkpt>
      <trkpt lat="39.723983" lon="-4.271650">
        <ele>2259.0</ele>
        <time>2013-07-03T16:02:18Z</time>
      </trkpt>
      <trkpt lat="39.723850" lon="-4.271633">
        <ele>2255.0</ele>
        <time>2013-07-03T16:02:19Z</time>
      </trkpt>
      <trkpt lat="39.723717" lon="-4.271617">
        <ele>2251.0</ele>
        <time>2013-07-03T16:02:20Z</time>
      </trkpt>
      <trkpt lat="39.723583" lon="-4.271583">
        <ele>2247.0</ele>
        <time>2013-07-03T16:02:21Z</time>
      </trkpt>
      <trkpt lat="39.723467" lon="-4.271550">
        <ele>2245.0</ele>
        <time>2013-07-03T16:02:22Z</time>
      </trkpt>
      <trkpt lat="39.723350" lon="-4.271533">
        <ele>2242.0</ele>
        <time>2013-07-03T16:02:23Z</time>
      </trkpt>
      <trkpt lat="39.723233" lon="-4.271517">
        <ele>2237.0</ele>
        <time>2013-07-03T16:02:24Z</time>
      </trkpt>
      <trkpt lat="39.723100" lon="-4.271500">
        <ele>2232.0</ele>
        <time>2013-07-03T16:02:25Z</time>
      </trkpt>
      <trkpt lat="39.722967" lon="-4.271483">
        <ele>2227.0</ele>
        <time>2013-07-03T16:02:26Z</time>
      </trkpt>
      <trkpt lat="39.722833" lon="-4.271483">
        <ele>2224.0</ele>
        <time>2013-07-03T16:02:27Z</time>
      </trkpt>
      <trkpt lat="39.722700" lon="-4.271483">
        <ele>2221.0</ele>
        <time>2013-07-03T16:02:28Z</time>
      </trkpt>
      <trkpt lat="39.722567" lon="-4.271483">
        <ele>2218.0</ele>
        <time>2013-07-03T16:02:29Z</time>
      </trkpt>
      <trkpt lat="39.722450" lon="-4.271467">
        <ele>2214.0</ele>
        <time>2013-07-03T16:02:30Z</time>
      </trkpt>
      <trkpt lat="39.722333" lon="-4.271467">
        <ele>2210.0</ele>
        <time>2013-07-03T16:02:31Z</time>
      </trkpt>
      <trkpt lat="39.722217" lon="-4.271467">
        <ele>2205.0</ele>
        <time>2013-07-03T16:02:32Z</time>
      </trkpt>
      <trkpt lat="39.722083" lon="-4.271467">
        <ele>2200.0</ele>
        <time>2013-07-03T16:02:33Z</time>
      </trkpt>
      <trkpt lat="39.721950" lon="-4.271483">
        <ele>2196.0</ele>
        <time>2013-07-03T16:02:34Z</time>
      </trkpt>
      <trkpt lat="39.721833" lon="-4.271500">
        <ele>2192.0</ele>
        <time>2013-07-03T16:02:35Z</time>
      </trkpt>
      <trkpt lat="39.721700" lon="-4.271500">
        <ele>2188.0</ele>
        <time>2013-07-03T16:02:36Z</time>
      </trkpt>
      <trkpt lat="39.721583" lon="-4.271500">
        <ele>2184.0</ele>
        <time>2013-07-03T16:02:37Z</time>
      </trkpt>
      <trkpt lat="39.721450" lon="-4.271483">
        <ele>2180.0</ele>
        <time>2013-07-03T16:02:38Z</time>
      </trkpt>
      <trkpt lat="39.721317" lon="-4.271483">
        <ele>2175.0</ele>
        <time>2013-07-03T16:02:39Z</time>
      </trkpt>
      <trkpt lat="39.721183" lon="-4.271483">
        <ele>2171.0</ele>
        <time>2013-07-03T16:02:40Z</time>
      </trkpt>
      <trkpt lat="39.721050" lon="-4.271467">
        <ele>2168.0</ele>
        <time>2013-07-03T16:02:41Z</time>
      </trkpt>
      <trkpt lat="39.720917" lon="-4.271450">
        <ele>2165.0</ele>
        <time>2013-07-03T16:02:42Z</time>
      </trkpt>
      <trkpt lat="39.720783" lon="-4.271417">
        <ele>2163.0</ele>
        <time>2013-07-03T16:02:43Z</time>
      </trkpt>
      <trkpt lat="39.720667" lon="-4.271400">
        <ele>2160.0</ele>
        <time>2013-07-03T16:02:44Z</time>
      </trkpt>
      <trkpt lat="39.720550" lon="-4.271400">
        <ele>2158.0</ele>
        <time>2013-07-03T16:02:45Z</time>
      </trkpt>
      <trkpt lat="39.720433" lon="-4.271400">
        <ele>2155.0</ele>
        <time>2013-07-03T16:02:46Z</time>
      </trkpt>
      <trkpt lat="39.720333" lon="-4.271400">
        <ele>2153.0</ele>
        <time>2013-07-03T16:02:47Z</time>
      </trkpt>
      <trkpt lat="39.720217" lon="-4.271400">
        <ele>2150.0</ele>
        <time>2013-07-03T16:02:48Z</time>
      </trkpt>
      <trkpt lat="39.720117" lon="-4.271400">
        <ele>2146.0</ele>
        <time>2013-07-03T16:02:49Z</time>
      </trkpt>
      <trkpt lat="39.719983" lon="-4.271400">
        <ele>2143.0</ele>
        <time>2013-07-03T16:02:50Z</time>
      </trkpt>
      <trkpt lat="39.719867" lon="-4.271400">
        <ele>2139.0</ele>
        <time>2013-07-03T16:02:51Z</time>
      </trkpt>
      <trkpt lat="39.719750" lon="-4.271417">
        <ele>2136.0</ele>
        <time>2013-07-03T16:02:52Z</time>
      </trkpt>
      <trkpt lat="39.719633" lon="-4.271433">
        <ele>2133.0</ele>
        <time>2013-07-03T16:02:53Z</time>
      </trkpt>
      <trkpt lat="39.719533" lon="-4.271450">
        <ele>2130.0</ele>
        <time>2013-07-03T16:02:54Z</time>
      </trkpt>
      <trkpt lat="39.719417" lon="-4.271467">
        <ele>2126.0</ele>
        <time>2013-07-03T16:02:55Z</time>
      </trkpt>
      <trkpt lat="39.719300" lon="-4.271483">
        <ele>2122.0</ele>
        <time>2013-07-03T16:02:56Z</time>
      </trkpt>
      <trkpt lat="39.719183" lon="-4.271517">
        <ele>2118.0</ele>
        <time>2013-07-03T16:02:57Z</time>
      </trkpt>
      <trkpt lat="39.719067" lon="-4.271533">
        <ele>2115.0</ele>
        <time>2013-07-03T16:02:58Z</time>
      </trkpt>
      <trkpt lat="39.718950" lon="-4.271567">
        <ele>2112.0</ele>
        <time>2013-07-03T16:02:59Z</time>
      </trkpt>
      <trkpt lat="39.718850" lon="-4.271583">
        <ele>2110.0</ele>
        <time>2013-07-03T16:03:00Z</time>
      </trkpt>
      <trkpt lat="39.718733" lon="-4.271583">
        <ele>2107.0</ele>
        <time>2013-07-03T16:03:01Z</time>
      </trkpt>
      <trkpt lat="39.718633" lon="-4.271583">
        <ele>2102.0</ele>
        <time>2013-07-03T16:03:02Z</time>
      </trkpt>
      <trkpt lat="39.718517" lon="-4.271600">
        <ele>2098.0</ele>
        <time>2013-07-03T16:03:03Z</time>
      </trkpt>
      <trkpt lat="39.718400" lon="-4.271617">
        <ele>2094.0</ele>
        <time>2013-07-03T16:03:04Z</time>
      </trkpt>
      <trkpt lat="39.718300" lon="-4.271650">
        <ele>2090.0</ele>
        <time>2013-07-03T16:03:05Z</time>
      </trkpt>
      <trkpt lat="39.718183" lon="-4.271667">
        <ele>2086.0</ele>
        <time>2013-07-03T16:03:06Z</time>
      </trkpt>
      <trkpt lat="39.718067" lon="-4.271683">
        <ele>2082.0</ele>
        <time>2013-07-03T16:03:07Z</time>
      </trkpt>
      <trkpt lat="39.717950" lon="-4.271700">
        <ele>2078.0</ele>
        <time>2013-07-03T16:03:08Z</time>
      </trkpt>
      <trkpt lat="39.717833" lon="-4.271700">
        <ele>2074.0</ele>
        <time>2013-07-03T16:03:09Z</time>
      </trkpt>
      <trkpt lat="39.717700" lon="-4.271700">
        <ele>2070.0</ele>
        <time>2013-07-03T16:03:10Z</time>
      </trkpt>
      <trkpt lat="39.717583" lon="-4.271683">
        <ele>2067.0</ele>
        <time>2013-07-03T16:03:11Z</time>
      </trkpt>
      <trkpt lat="39.717467" lon="-4.271683">
        <ele>2064.0</ele>
        <time>2013-07-03T16:03:12Z</time>
      </trkpt>
      <trkpt lat="39.717333" lon="-4.271683">
        <ele>2060.0</ele>
        <time>2013-07-03T16:03:13Z</time>
      </trkpt>
      <trkpt lat="39.717200" lon="-4.271683">
        <ele>2057.0</ele>
        <time>2013-07-03T16:03:14Z</time>
      </trkpt>
      <trkpt lat="39.717067" lon="-4.271683">
        <ele>2054.0</ele>
        <time>2013-07-03T16:03:15Z</time>
      </trkpt>
      <trkpt lat="39.716933" lon="-4.271683">
        <ele>2052.0</ele>
        <time>2013-07-03T16:03:16Z</time>
      </trkpt>
      <trkpt lat="39.716800" lon="-4.271650">
        <ele>2050.0</ele>
        <time>2013-07-03T16:03:17Z</time>
      </trkpt>
      <trkpt lat="39.716683" lon="-4.271633">
        <ele>2048.0</ele>
        <time>2013-07-03T16:03:18Z</time>
      </trkpt>
      <trkpt lat="39.716583" lon="-4.271617">
        <ele>2046.0</ele>
        <time>2013-07-03T16:03:19Z</time>
      </trkpt>
      <trkpt lat="39.716467" lon="-4.271617">
        <ele>2043.0</ele>
        <time>2013-07-03T16:03:20Z</time>
      </trkpt>
      <trkpt lat="39.716350" lon="-4.271600">
        <ele>2040.0</ele>
        <time>2013-07-03T16:03:21Z</time>
      </trkpt>
      <trkpt lat="39.716217" lon="-4.271567">
        <ele>2037.0</ele>
        <time>2013-07-03T16:03:22Z</time>
      </trkpt>
      <trkpt lat="39.716083" lon="-4.271533">
        <ele>2034.0</ele>
        <time>2013-07-03T16:03:23Z</time>
      </trkpt>
      <trkpt lat="39.715950" lon="-4.271517">
        <ele>2032.0</ele>
        <time>2013-07-03T16:03:24Z</time>
      </trkpt>
      <trkpt lat="39.715817" lon="-4.271500">
        <ele>2032.0</ele>
        <time>2013-07-03T16:03:25Z</time>
      </trkpt>
      <trkpt lat="39.715700" lon="-4.271483">
        <ele>2031.0</ele>
        <time>2013-07-03T16:03:26Z</time>
      </trkpt>
      <trkpt lat="39.715583" lon="-4.271450">
        <ele>2028.0</ele>
        <time>2013-07-03T16:03:27Z</time>
      </trkpt>
      <trkpt lat="39.715483" lon="-4.271400">
        <ele>2025.0</ele>
        <time>2013-07-03T16:03:28Z</time>
      </trkpt>
      <trkpt lat="39.715350" lon="-4.271367">
        <ele>2021.0</ele>
        <time>2013-07-03T16:03:29Z</time>
      </trkpt>
      <trkpt lat="39.715217" lon="-4.271350">
        <ele>2017.0</ele>
        <time>2013-07-03T16:03:30Z</time>
      </trkpt>
      <trkpt lat="39.715083" lon="-4.271333">
        <ele>2015.0</ele>
        <time>2013-07-03T16:03:31Z</time>
      </trkpt>
      <trkpt lat="39.714950" lon="-4.271300">
        <ele>2014.0</ele>
        <time>2013-07-03T16:03:32Z</time>
      </trkpt>
      <trkpt lat="39.714850" lon="-4.271267">
        <ele>2012.0</ele>
        <time>2013-07-03T16:03:33Z</time>
      </trkpt>
      <trkpt lat="39.714733" lon="-4.271250">
        <ele>2010.0</ele>
        <time>2013-07-03T16:03:34Z</time>
      </trkpt>
      <trkpt lat="39.714617" lon="-4.271233">
        <ele>2005.0</ele>
        <time>2013-07-03T16:03:35Z</time>
      </trkpt>
      <trkpt lat="39.714500" lon="-4.271233">
        <ele>2000.0</ele>
        <time>2013-07-03T16:03:36Z</time>
      </trkpt>
      <trkpt lat="39.714350" lon="-4.271233">
        <ele>1996.0</ele>
        <time>2013-07-03T16:03:37Z</time>
      </trkpt>
      <trkpt lat="39.714200" lon="-4.271233">
        <ele>1992.0</ele>
        <time>2013-07-03T16:03:38Z</time>
      </trkpt>
      <trkpt lat="39.714067" lon="-4.271217">
        <ele>1990.0</ele>
        <time>2013-07-03T16:03:39Z</time>
      </trkpt>
      <trkpt lat="39.713933" lon="-4.271200">
        <ele>1987.0</ele>
        <time>2013-07-03T16:03:40Z</time>
      </trkpt>
      <trkpt lat="39.713800" lon="-4.271200">
        <ele>1982.0</ele>
        <time>2013-07-03T16:03:41Z</time>
      </trkpt>
      <trkpt lat="39.713650" lon="-4.271217">
        <ele>1977.0</ele>
        <time>2013-07-03T16:03:42Z</time>
      </trkpt>
      <trkpt lat="39.713500" lon="-4.271217">
        <ele>1972.0</ele>
        <time>2013-07-03T16:03:43Z</time>
      </trkpt>
      <trkpt lat="39.713350" lon="-4.271217">
        <ele>1968.0</ele>
        <time>2013-07-03T16:03:44Z</time>
      </trkpt>
      <trkpt lat="39.713183" lon="-4.271200">
        <ele>1963.0</ele>
        <time>2013-07-03T16:03:45Z</time>
      </trkpt>
      <trkpt lat="39.713033" lon="-4.271183">
        <ele>1961.0</ele>
        <time>2013-07-03T16:03:46Z</time>
      </trkpt>
      <trkpt lat="39.712883" lon="-4.271167">
        <ele>1958.0</ele>
        <time>2013-07-03T16:03:47Z</time>
      </trkpt>
      <trkpt lat="39.712750" lon="-4.271150">
        <ele>1954.0</ele>
        <time>2013-07-03T16:03:48Z</time>
      </trkpt>
      <trkpt lat="39.712600" lon="-4.271133">
        <ele>1950.0</ele>
        <time>2013-07-03T16:03:49Z</time>
      </trkpt>
      <trkpt lat="39.712467" lon="-4.271117">
        <ele>1946.0</ele>
        <time>2013-07-03T16:03:50Z</time>
      </trkpt>
      <trkpt lat="39.712317" lon="-4.271117">
        <ele>1942.0</ele>
        <time>2013-07-03T16:03:51Z</time>
      </trkpt>
      <trkpt lat="39.712183" lon="-4.271133">
        <ele>1938.0</ele>
        <time>2013-07-03T16:03:52Z</time>
      </trkpt>
      <trkpt lat="39.712067" lon="-4.271150">
        <ele>1934.0</ele>
        <time>2013-07-03T16:03:53Z</time>
      </trkpt>
      <trkpt lat="39.711933" lon="-4.271150">
        <ele>1930.0</ele>
        <time>2013-07-03T16:03:54Z</time>
      </trkpt>
      <trkpt lat="39.711800" lon="-4.271150">
        <ele>1925.0</ele>
        <time>2013-07-03T16:03:55Z</time>
      </trkpt>
      <trkpt lat="39.711667" lon="-4.271133">
        <ele>1920.0</ele>
        <time>2013-07-03T16:03:56Z</time>
      </trkpt>
      <trkpt lat="39.711517" lon="-4.271117">
        <ele>1916.0</ele>
        <time>2013-07-03T16:03:57Z</time>
      </trkpt>
      <trkpt lat="39.711383" lon="-4.271100">
        <ele>1912.0</ele>
        <time>2013-07-03T16:03:58Z</time>
      </trkpt>
      <trkpt lat="39.711267" lon="-4.271083">
        <ele>1909.0</ele>
        <time>2013-07-03T16:03:59Z</time>
      </trkpt>
      <trkpt lat="39.711150" lon="-4.271067">
        <ele>1906.0</ele>
        <time>2013-07-03T16:04:00Z</time>
      </trkpt>
      <trkpt lat="39.711033" lon="-4.271033">
        <ele>1901.0</ele>
        <time>2013-07-03T16:04:01Z</time>
      </trkpt>
      <trkpt lat="39.710933" lon="-4.271017">
        <ele>1897.0</ele>
        <time>2013-07-03T16:04:02Z</time>
      </trkpt>
      <trkpt lat="39.710817" lon="-4.270983">
        <ele>1891.0</ele>
        <time>2013-07-03T16:04:03Z</time>
      </trkpt>
      <trkpt lat="39.710683" lon="-4.270967">
        <ele>1885.0</ele>
        <time>2013-07-03T16:04:04Z</time>
      </trkpt>
      <trkpt lat="39.710550" lon="-4.270950">
        <ele>1880.0</ele>
        <time>2013-07-03T16:04:05Z</time>
      </trkpt>
      <trkpt lat="39.710400" lon="-4.270917">
        <ele>1875.0</ele>
        <time>2013-07-03T16:04:06Z</time>
      </trkpt>
      <trkpt lat="39.710267" lon="-4.270900">
        <ele>1871.0</ele>
        <time>2013-07-03T16:04:07Z</time>
      </trkpt>
      <trkpt lat="39.710133" lon="-4.270867">
        <ele>1868.0</ele>
        <time>2013-07-03T16:04:08Z</time>
      </trkpt>
      <trkpt lat="39.709983" lon="-4.270833">
        <ele>1864.0</ele>
        <time>2013-07-03T16:04:09Z</time>
      </trkpt>
      <trkpt lat="39.709867" lon="-4.270800">
        <ele>1863.0</ele>
        <time>2013-07-03T16:04:10Z</time>
      </trkpt>
      <trkpt lat="39.709750" lon="-4.270750">
        <ele>1860.0</ele>
        <time>2013-07-03T16:04:11Z</time>
      </trkpt>
      <trkpt lat="39.709633" lon="-4.270700">
        <ele>1858.0</ele>
        <time>2013-07-03T16:04:12Z</time>
      </trkpt>
      <trkpt lat="39.709517" lon="-4.270650">
        <ele>1854.0</ele>
        <time>2013-07-03T16:04:13Z</time>
      </trkpt>
      <trkpt lat="39.709400" lon="-4.270600">
        <ele>1850.0</ele>
        <time>2013-07-03T16:04:14Z</time>
      </trkpt>
      <trkpt lat="39.709267" lon="-4.270567">
        <ele>1846.0</ele>
        <time>2013-07-03T16:04:15Z</time>
      </trkpt>
      <trkpt lat="39.709133" lon="-4.270550">
        <ele>1843.0</ele>
        <time>2013-07-03T16:04:16Z</time>
      </trkpt>
      <trkpt lat="39.708983" lon="-4.270500">
        <ele>1840.0</ele>
        <time>2013-07-03T16:04:17Z</time>
      </trkpt>
      <trkpt lat="39.708850" lon="-4.270450">
        <ele>1837.0</ele>
        <time>2013-07-03T16:04:18Z</time>
      </trkpt>
      <trkpt lat="39.708733" lon="-4.270417">
        <ele>1834.0</ele>
        <time>2013-07-03T16:04:19Z</time>
      </trkpt>
      <trkpt lat="39.708600" lon="-4.270383">
        <ele>1831.0</ele>
        <time>2013-07-03T16:04:20Z</time>
      </trkpt>
      <trkpt lat="39.708467" lon="-4.270367">
        <ele>1828.0</ele>
        <time>2013-07-03T16:04:21Z</time>
      </trkpt>
      <trkpt lat="39.708333" lon="-4.270350">
        <ele>1825.0</ele>
        <time>2013-07-03T16:04:22Z</time>
      </trkpt>
      <trkpt lat="39.708217" lon="-4.270333">
        <ele>1822.0</ele>
        <time>2013-07-03T16:04:23Z</time>
      </trkpt>
      <trkpt lat="39.708100" lon="-4.270317">
        <ele>1818.0</ele>
        <time>2013-07-03T16:04:24Z</time>
      </trkpt>
      <trkpt lat="39.707983" lon="-4.270283">
        <ele>1814.0</ele>
        <time>2013-07-03T16:04:25Z</time>
      </trkpt>
      <trkpt lat="39.707850" lon="-4.270250">
        <ele>1810.0</ele>
        <time>2013-07-03T16:04:26Z</time>
      </trkpt>
      <trkpt lat="39.707733" lon="-4.270233">
        <ele>1806.0</ele>
        <time>2013-07-03T16:04:27Z</time>
      </trkpt>
      <trkpt lat="39.707600" lon="-4.270200">
        <ele>1802.0</ele>
        <time>2013-07-03T16:04:28Z</time>
      </trkpt>
      <trkpt lat="39.707483" lon="-4.270183">
        <ele>1799.0</ele>
        <time>2013-07-03T16:04:29Z</time>
      </trkpt>
      <trkpt lat="39.707367" lon="-4.270150">
        <ele>1796.0</ele>
        <time>2013-07-03T16:04:30Z</time>
      </trkpt>
      <trkpt lat="39.707250" lon="-4.270100">
        <ele>1792.0</ele>
        <time>2013-07-03T16:04:31Z</time>
      </trkpt>
      <trkpt lat="39.707117" lon="-4.270067">
        <ele>1787.0</ele>
        <time>2013-07-03T16:04:32Z</time>
      </trkpt>
      <trkpt lat="39.706983" lon="-4.270017">
        <ele>1782.0</ele>
        <time>2013-07-03T16:04:33Z</time>
      </trkpt>
      <trkpt lat="39.706850" lon="-4.269967">
        <ele>1778.0</ele>
        <time>2013-07-03T16:04:34Z</time>
      </trkpt>
      <trkpt lat="39.706700" lon="-4.269933">
        <ele>1775.0</ele>
        <time>2013-07-03T16:04:35Z</time>
      </trkpt>
      <trkpt lat="39.706567" lon="-4.269900">
        <ele>1773.0</ele>
        <time>2013-07-03T16:04:36Z</time>
      </trkpt>
      <trkpt lat="39.706450" lon="-4.269883">
        <ele>1771.0</ele>
        <time>2013-07-03T16:04:37Z</time>
      </trkpt>
      <trkpt lat="39.706333" lon="-4.269850">
        <ele>1769.0</ele>
        <time>2013-07-03T16:04:38Z</time>
      </trkpt>
      <trkpt lat="39.706217" lon="-4.269800">
        <ele>1765.0</ele>
        <time>2013-07-03T16:04:39Z</time>
      </trkpt>
      <trkpt lat="39.706083" lon="-4.269750">
        <ele>1760.0</ele>
        <time>2013-07-03T16:04:40Z</time>
      </trkpt>
      <trkpt lat="39.705950" lon="-4.269700">
        <ele>1755.0</ele>
        <time>2013-07-03T16:04:41Z</time>
      </trkpt>
      <trkpt lat="39.705817" lon="-4.269667">
        <ele>1751.0</ele>
        <time>2013-07-03T16:04:42Z</time>
      </trkpt>
      <trkpt lat="39.705667" lon="-4.269633">
        <ele>1748.0</ele>
        <time>2013-07-03T16:04:43Z</time>
      </trkpt>
      <trkpt lat="39.705533" lon="-4.269600">
        <ele>1746.0</ele>
        <time>2013-07-03T16:04:44Z</time>
      </trkpt>
      <trkpt lat="39.705417" lon="-4.269550">
        <ele>1743.0</ele>
        <time>2013-07-03T16:04:45Z</time>
      </trkpt>
      <trkpt lat="39.705300" lon="-4.269517">
        <ele>1740.0</ele>
        <time>2013-07-03T16:04:46Z</time>
      </trkpt>
      <trkpt lat="39.705183" lon="-4.269500">
        <ele>1735.0</ele>
        <time>2013-07-03T16:04:47Z</time>
      </trkpt>
      <trkpt lat="39.705050" lon="-4.269500">
        <ele>1731.0</ele>
        <time>2013-07-03T16:04:48Z</time>
      </trkpt>
      <trkpt lat="39.704900" lon="-4.269483">
        <ele>1726.0</ele>
        <time>2013-07-03T16:04:49Z</time>
      </trkpt>
      <trkpt lat="39.704767" lon="-4.269467">
        <ele>1722.0</ele>
        <time>2013-07-03T16:04:50Z</time>
      </trkpt>
      <trkpt lat="39.704633" lon="-4.269433">
        <ele>1719.0</ele>
        <time>2013-07-03T16:04:51Z</time>
      </trkpt>
      <trkpt lat="39.704500" lon="-4.269400">
        <ele>1716.0</ele>
        <time>2013-07-03T16:04:52Z</time>
      </trkpt>
      <trkpt lat="39.704383" lon="-4.269367">
        <ele>1712.0</ele>
        <time>2013-07-03T16:04:53Z</time>
      </trkpt>
      <trkpt lat="39.704250" lon="-4.269350">
        <ele>1707.0</ele>
        <time>2013-07-03T16:04:54Z</time>
      </trkpt>
      <trkpt lat="39.704117" lon="-4.269317">
        <ele>1702.0</ele>
        <time>2013-07-03T16:04:55Z</time>
      </trkpt>
      <trkpt lat="39.703983" lon="-4.269300">
        <ele>1697.0</ele>
        <time>2013-07-03T16:04:56Z</time>
      </trkpt>
      <trkpt lat="39.703833" lon="-4.269267">
        <ele>1692.0</ele>
        <time>2013-07-03T16:04:57Z</time>
      </trkpt>
      <trkpt lat="39.703683" lon="-4.269250">
        <ele>1689.0</ele>
        <time>2013-07-03T16:04:58Z</time>
      </trkpt>
      <trkpt lat="39.703550" lon="-4.269250">
        <ele>1686.0</ele>
        <time>2013-07-03T16:04:59Z</time>
      </trkpt>
      <trkpt lat="39.703417" lon="-4.269233">
        <ele>1683.0</ele>
        <time>2013-07-03T16:05:00Z</time>
      </trkpt>
      <trkpt lat="39.703300" lon="-4.269217">
        <ele>1680.0</ele>
        <time>2013-07-03T16:05:01Z</time>
      </trkpt>
      <trkpt lat="39.703167" lon="-4.269200">
        <ele>1675.0</ele>
        <time>2013-07-03T16:05:02Z</time>
      </trkpt>
      <trkpt lat="39.703033" lon="-4.269183">
        <ele>1670.0</ele>
        <time>2013-07-03T16:05:03Z</time>
      </trkpt>
      <trkpt lat="39.702900" lon="-4.269183">
        <ele>1666.0</ele>
        <time>2013-07-03T16:05:04Z</time>
      </trkpt>
      <trkpt lat="39.702767" lon="-4.269167">
        <ele>1661.0</ele>
        <time>2013-07-03T16:05:05Z</time>
      </trkpt>
      <trkpt lat="39.702617" lon="-4.269150">
        <ele>1657.0</ele>
        <time>2013-07-03T16:05:06Z</time>
      </trkpt>
      <trkpt lat="39.702483" lon="-4.269150">
        <ele>1653.0</ele>
        <time>2013-07-03T16:05:07Z</time>
      </trkpt>
      <trkpt lat="39.702367" lon="-4.269133">
        <ele>1650.0</ele>
        <time>2013-07-03T16:05:08Z</time>
      </trkpt>
      <trkpt lat="39.702233" lon="-4.269150">
        <ele>1646.0</ele>
        <time>2013-07-03T16:05:09Z</time>
      </trkpt>
      <trkpt lat="39.702117" lon="-4.269167">
        <ele>1642.0</ele>
        <time>2013-07-03T16:05:10Z</time>
      </trkpt>
      <trkpt lat="39.702000" lon="-4.269183">
        <ele>1637.0</ele>
        <time>2013-07-03T16:05:11Z</time>
      </trkpt>
      <trkpt lat="39.701867" lon="-4.269200">
        <ele>1632.0</ele>
        <time>2013-07-03T16:05:12Z</time>
      </trkpt>
      <trkpt lat="39.701717" lon="-4.269217">
        <ele>1627.0</ele>
        <time>2013-07-03T16:05:13Z</time>
      </trkpt>
      <trkpt lat="39.701583" lon="-4.269217">
        <ele>1624.0</ele>
        <time>2013-07-03T16:05:14Z</time>
      </trkpt>
      <trkpt lat="39.701450" lon="-4.269217">
        <ele>1621.0</ele>
        <time>2013-07-03T16:05:15Z</time>
      </trkpt>
      <trkpt lat="39.701317" lon="-4.269200">
        <ele>1617.0</ele>
        <time>2013-07-03T16:05:16Z</time>
      </trkpt>
      <trkpt lat="39.701200" lon="-4.269200">
        <ele>1613.0</ele>
        <time>2013-07-03T16:05:17Z</time>
      </trkpt>
      <trkpt lat="39.701067" lon="-4.269200">
        <ele>1609.0</ele>
        <time>2013-07-03T16:05:18Z</time>
      </trkpt>
      <trkpt lat="39.700933" lon="-4.269183">
        <ele>1604.0</ele>
        <time>2013-07-03T16:05:19Z</time>
      </trkpt>
      <trkpt lat="39.700800" lon="-4.269183">
        <ele>1600.0</ele>
        <time>2013-07-03T16:05:20Z</time>
      </trkpt>
      <trkpt lat="39.700667" lon="-4.269167">
        <ele>1597.0</ele>
        <time>2013-07-03T16:05:21Z</time>
      </trkpt>
      <trkpt lat="39.700550" lon="-4.269183">
        <ele>1594.0</ele>
        <time>2013-07-03T16:05:22Z</time>
      </trkpt>
      <trkpt lat="39.700433" lon="-4.269183">
        <ele>1591.0</ele>
        <time>2013-07-03T16:05:23Z</time>
      </trkpt>
      <trkpt lat="39.700317" lon="-4.269167">
        <ele>1587.0</ele>
        <time>2013-07-03T16:05:24Z</time>
      </trkpt>
      <trkpt lat="39.700183" lon="-4.269167">
        <ele>1582.0</ele>
        <time>2013-07-03T16:05:25Z</time>
      </trkpt>
      <trkpt lat="39.700067" lon="-4.269150">
        <ele>1577.0</ele>
        <time>2013-07-03T16:05:26Z</time>
      </trkpt>
      <trkpt lat="39.699917" lon="-4.269150">
        <ele>1572.0</ele>
        <time>2013-07-03T16:05:27Z</time>
      </trkpt>
      <trkpt lat="39.699783" lon="-4.269150">
        <ele>1566.0</ele>
        <time>2013-07-03T16:05:28Z</time>
      </trkpt>
      <trkpt lat="39.699633" lon="-4.269133">
        <ele>1562.0</ele>
        <time>2013-07-03T16:05:29Z</time>
      </trkpt>
      <trkpt lat="39.699500" lon="-4.269133">
        <ele>1558.0</ele>
        <time>2013-07-03T16:05:30Z</time>
      </trkpt>
      <trkpt lat="39.699367" lon="-4.269117">
        <ele>1555.0</ele>
        <time>2013-07-03T16:05:31Z</time>
      </trkpt>
      <trkpt lat="39.699250" lon="-4.269100">
        <ele>1551.0</ele>
        <time>2013-07-03T16:05:32Z</time>
      </trkpt>
      <trkpt lat="39.699117" lon="-4.269083">
        <ele>1547.0</ele>
        <time>2013-07-03T16:05:33Z</time>
      </trkpt>
      <trkpt lat="39.698983" lon="-4.269083">
        <ele>1542.0</ele>
        <time>2013-07-03T16:05:34Z</time>
      </trkpt>
      <trkpt lat="39.698833" lon="-4.269067">
        <ele>1537.0</ele>
        <time>2013-07-03T16:05:35Z</time>
      </trkpt>
      <trkpt lat="39.698700" lon="-4.269050">
        <ele>1533.0</ele>
        <time>2013-07-03T16:05:36Z</time>
      </trkpt>
      <trkpt lat="39.698550" lon="-4.269050">
        <ele>1531.0</ele>
        <time>2013-07-03T16:05:37Z</time>
      </trkpt>
      <trkpt lat="39.698417" lon="-4.269033">
        <ele>1528.0</ele>
        <time>2013-07-03T16:05:38Z</time>
      </trkpt>
      <trkpt lat="39.698283" lon="-4.269000">
        <ele>1525.0</ele>
        <time>2013-07-03T16:05:39Z</time>
      </trkpt>
      <trkpt lat="39.698167" lon="-4.269000">
        <ele>1521.0</ele>
        <time>2013-07-03T16:05:40Z</time>
      </trkpt>
      <trkpt lat="39.698033" lon="-4.269000">
        <ele>1516.0</ele>
        <time>2013-07-03T16:05:41Z</time>
      </trkpt>
      <trkpt lat="39.697900" lon="-4.269000">
        <ele>1511.0</ele>
        <time>2013-07-03T16:05:42Z</time>
      </trkpt>
      <trkpt lat="39.697750" lon="-4.268983">
        <ele>1506.0</ele>
        <time>2013-07-03T16:05:43Z</time>
      </trkpt>
      <trkpt lat="39.697617" lon="-4.268983">
        <ele>1501.0</ele>
        <time>2013-07-03T16:05:44Z</time>
      </trkpt>
      <trkpt lat="39.697467" lon="-4.268967">
        <ele>1498.0</ele>
        <time>2013-07-03T16:05:45Z</time>
      </trkpt>
      <trkpt lat="39.697333" lon="-4.268950">
        <ele>1495.0</ele>
        <time>2013-07-03T16:05:46Z</time>
      </trkpt>
      <trkpt lat="39.697200" lon="-4.268933">
        <ele>1492.0</ele>
        <time>2013-07-03T16:05:47Z</time>
      </trkpt>
      <trkpt lat="39.697067" lon="-4.268917">
        <ele>1489.0</ele>
        <time>2013-07-03T16:05:48Z</time>
      </trkpt>
      <trkpt lat="39.696933" lon="-4.268917">
        <ele>1485.0</ele>
        <time>2013-07-03T16:05:49Z</time>
      </trkpt>
      <trkpt lat="39.696783" lon="-4.268900">
        <ele>1482.0</ele>
        <time>2013-07-03T16:05:50Z</time>
      </trkpt>
      <trkpt lat="39.696633" lon="-4.268900">
        <ele>1478.0</ele>
        <time>2013-07-03T16:05:51Z</time>
      </trkpt>
      <trkpt lat="39.696500" lon="-4.268883">
        <ele>1475.0</ele>
        <time>2013-07-03T16:05:52Z</time>
      </trkpt>
      <trkpt lat="39.696350" lon="-4.268883">
        <ele>1471.0</ele>
        <time>2013-07-03T16:05:53Z</time>
      </trkpt>
      <trkpt lat="39.696200" lon="-4.268883">
        <ele>1467.0</ele>
        <time>2013-07-03T16:05:54Z</time>
      </trkpt>
      <trkpt lat="39.696050" lon="-4.268883">
        <ele>1464.0</ele>
        <time>2013-07-03T16:05:55Z</time>
      </trkpt>
      <trkpt lat="39.695900" lon="-4.268883">
        <ele>1460.0</ele>
        <time>2013-07-03T16:05:56Z</time>
      </trkpt>
      <trkpt lat="39.695750" lon="-4.268900">
        <ele>1457.0</ele>
        <time>2013-07-03T16:05:57Z</time>
      </trkpt>
      <trkpt lat="39.695600" lon="-4.268900">
        <ele>1455.0</ele>
        <time>2013-07-03T16:05:58Z</time>
      </trkpt>
      <trkpt lat="39.695467" lon="-4.268900">
        <ele>1452.0</ele>
        <time>2013-07-03T16:05:59Z</time>
      </trkpt>
      <trkpt lat="39.695317" lon="-4.268883">
        <ele>1448.0</ele>
        <time>2013-07-03T16:06:00Z</time>
      </trkpt>
      <trkpt lat="39.695183" lon="-4.268883">
        <ele>1445.0</ele>
        <time>2013-07-03T16:06:01Z</time>
      </trkpt>
      <trkpt lat="39.695033" lon="-4.268867">
        <ele>1442.0</ele>
        <time>2013-07-03T16:06:02Z</time>
      </trkpt>
      <trkpt lat="39.694883" lon="-4.268850">
        <ele>1439.0</ele>
        <time>2013-07-03T16:06:03Z</time>
      </trkpt>
      <trkpt lat="39.694733" lon="-4.268850">
        <ele>1438.0</ele>
        <time>2013-07-03T16:06:04Z</time>
      </trkpt>
      <trkpt lat="39.694583" lon="-4.268833">
        <ele>1436.0</ele>
        <time>2013-07-03T16:06:05Z</time>
      </trkpt>
      <trkpt lat="39.694450" lon="-4.268817">
        <ele>1434.0</ele>
        <time>2013-07-03T16:06:06Z</time>
      </trkpt>
      <trkpt lat="39.694317" lon="-4.268817">
        <ele>1432.0</ele>
        <time>2013-07-03T16:06:07Z</time>
      </trkpt>
      <trkpt lat="39.694183" lon="-4.268817">
        <ele>1430.0</ele>
        <time>2013-07-03T16:06:08Z</time>
      </trkpt>
      <trkpt lat="39.694033" lon="-4.268800">
        <ele>1427.0</ele>
        <time>2013-07-03T16:06:09Z</time>
      </trkpt>
      <trkpt lat="39.693900" lon="-4.268800">
        <ele>1424.0</ele>
        <time>2013-07-03T16:06:10Z</time>
      </trkpt>
      <trkpt lat="39.693750" lon="-4.268783">
        <ele>1422.0</ele>
        <time>2013-07-03T16:06:11Z</time>
      </trkpt>
      <trkpt lat="39.693617" lon="-4.268783">
        <ele>1421.0</ele>
        <time>2013-07-03T16:06:12Z</time>
      </trkpt>
      <trkpt lat="39.693483" lon="-4.268767">
        <ele>1419.0</ele>
        <time>2013-07-03T16:06:13Z</time>
      </trkpt>
      <trkpt lat="39.693367" lon="-4.268733">
        <ele>1417.0</ele>
        <time>2013-07-03T16:06:14Z</time>
      </trkpt>
      <trkpt lat="39.693233" lon="-4.268717">
        <ele>1414.0</ele>
        <time>2013-07-03T16:06:15Z</time>
      </trkpt>
      <trkpt lat="39.693083" lon="-4.268700">
        <ele>1410.0</ele>
        <time>2013-07-03T16:06:16Z</time>
      </trkpt>
      <trkpt lat="39.692933" lon="-4.268717">
        <ele>1406.0</ele>
        <time>2013-07-03T16:06:17Z</time>
      </trkpt>
      <trkpt lat="39.692767" lon="-4.268717">
        <ele>1405.0</ele>
        <time>2013-07-03T16:06:18Z</time>
      </trkpt>
      <trkpt lat="39.692633" lon="-4.268717">
        <ele>1404.0</ele>
        <time>2013-07-03T16:06:19Z</time>
      </trkpt>
      <trkpt lat="39.692500" lon="-4.268700">
        <ele>1403.0</ele>
        <time>2013-07-03T16:06:20Z</time>
      </trkpt>
      <trkpt lat="39.692383" lon="-4.268700">
        <ele>1401.0</ele>
        <time>2013-07-03T16:06:21Z</time>
      </trkpt>
      <trkpt lat="39.692250" lon="-4.268700">
        <ele>1398.0</ele>
        <time>2013-07-03T16:06:22Z</time>
      </trkpt>
      <trkpt lat="39.692100" lon="-4.268700">
        <ele>1394.0</ele>
        <time>2013-07-03T16:06:23Z</time>
      </trkpt>
      <trkpt lat="39.691950" lon="-4.268683">
        <ele>1392.0</ele>
        <time>2013-07-03T16:06:24Z</time>
      </trkpt>
      <trkpt lat="39.691800" lon="-4.268683">
        <ele>1391.0</ele>
        <time>2013-07-03T16:06:25Z</time>
      </trkpt>
      <trkpt lat="39.691650" lon="-4.268683">
        <ele>1391.0</ele>
        <time>2013-07-03T16:06:26Z</time>
      </trkpt>
      <trkpt lat="39.691517" lon="-4.268683">
        <ele>1391.0</ele>
        <time>2013-07-03T16:06:27Z</time>
      </trkpt>
      <trkpt lat="39.691400" lon="-4.268683">
        <ele>1390.0</ele>
        <time>2013-07-03T16:06:28Z</time>
      </trkpt>
      <trkpt lat="39.691250" lon="-4.268667">
        <ele>1388.0</ele>
        <time>2013-07-03T16:06:29Z</time>
      </trkpt>
      <trkpt lat="39.691117" lon="-4.268633">
        <ele>1386.0</ele>
        <time>2013-07-03T16:06:30Z</time>
      </trkpt>
      <trkpt lat="39.690967" lon="-4.268617">
        <ele>1385.0</ele>
        <time>2013-07-03T16:06:31Z</time>
      </trkpt>
      <trkpt lat="39.690817" lon="-4.268600">
        <ele>1384.0</ele>
        <time>2013-07-03T16:06:32Z</time>
      </trkpt>
      <trkpt lat="39.690667" lon="-4.268583">
        <ele>1384.0</ele>
        <time>2013-07-03T16:06:33Z</time>
      </trkpt>
      <trkpt lat="39.690533" lon="-4.268583">
        <ele>1384.0</ele>
        <time>2013-07-03T16:06:34Z</time>
      </trkpt>
      <trkpt lat="39.690400" lon="-4.268583">
        <ele>1383.0</ele>
        <time>2013-07-03T16:06:35Z</time>
      </trkpt>
      <trkpt lat="39.690267" lon="-4.268567">
        <ele>1382.0</ele>
        <time>2013-07-03T16:06:36Z</time>
      </trkpt>
      <trkpt lat="39.690133" lon="-4.268550">
        <ele>1381.0</ele>
        <time>2013-07-03T16:06:37Z</time>
      </trkpt>
      <trkpt lat="39.690000" lon="-4.268550">
        <ele>1381.0</ele>
        <time>2013-07-03T16:06:38Z</time>
      </trkpt>
      <trkpt lat="39.689867" lon="-4.268533">
        <ele>1381.0</ele>
        <time>2013-07-03T16:06:39Z</time>
      </trkpt>
      <trkpt lat="39.689733" lon="-4.268517">
        <ele>1382.0</ele>
        <time>2013-07-03T16:06:40Z</time>
      </trkpt>
      <trkpt lat="39.689617" lon="-4.268483">
        <ele>1382.0</ele>
        <time>2013-07-03T16:06:41Z</time>
      </trkpt>
      <trkpt lat="39.689483" lon="-4.268483">
        <ele>1382.0</ele>
        <time>2013-07-03T16:06:42Z</time>
      </trkpt>
      <trkpt lat="39.689367" lon="-4.268467">
        <ele>1381.0</ele>
        <time>2013-07-03T16:06:43Z</time>
      </trkpt>
      <trkpt lat="39.689233" lon="-4.268450">
        <ele>1381.0</ele>
        <time>2013-07-03T16:06:44Z</time>
      </trkpt>
      <trkpt lat="39.689100" lon="-4.268433">
        <ele>1381.0</ele>
        <time>2013-07-03T16:06:45Z</time>
      </trkpt>
      <trkpt lat="39.688967" lon="-4.268417">
        <ele>1381.0</ele>
        <time>2013-07-03T16:06:46Z</time>
      </trkpt>
      <trkpt lat="39.688850" lon="-4.268400">
        <ele>1382.0</ele>
        <time>2013-07-03T16:06:47Z</time>
      </trkpt>
      <trkpt lat="39.688717" lon="-4.268383">
        <ele>1384.0</ele>
        <time>2013-07-03T16:06:48Z</time>
      </trkpt>
      <trkpt lat="39.688617" lon="-4.268350">
        <ele>1386.0</ele>
        <time>2013-07-03T16:06:49Z</time>
      </trkpt>
      <trkpt lat="39.688533" lon="-4.268317">
        <ele>1388.0</ele>
        <time>2013-07-03T16:06:50Z</time>
      </trkpt>
      <trkpt lat="39.688433" lon="-4.268267">
        <ele>1389.0</ele>
        <time>2013-07-03T16:06:51Z</time>
      </trkpt>
      <trkpt lat="39.688333" lon="-4.268233">
        <ele>1389.0</ele>
        <time>2013-07-03T16:06:52Z</time>
      </trkpt>
      <trkpt lat="39.688233" lon="-4.268183">
        <ele>1389.0</ele>
        <time>2013-07-03T16:06:53Z</time>
      </trkpt>
      <trkpt lat="39.688133" lon="-4.268133">
        <ele>1389.0</ele>
        <time>2013-07-03T16:06:54Z</time>
      </trkpt>
      <trkpt lat="39.688033" lon="-4.268100">
        <ele>1389.0</ele>
        <time>2013-07-03T16:06:55Z</time>
      </trkpt>
      <trkpt lat="39.687933" lon="-4.268067">
        <ele>1389.0</ele>
        <time>2013-07-03T16:06:56Z</time>
      </trkpt>
      <trkpt lat="39.687833" lon="-4.268050">
        <ele>1388.0</ele>
        <time>2013-07-03T16:06:57Z</time>
      </trkpt>
      <trkpt lat="39.687717" lon="-4.268050">
        <ele>1387.0</ele>
        <time>2013-07-03T16:06:58Z</time>
      </trkpt>
      <trkpt lat="39.687600" lon="-4.268033">
        <ele>1387.0</ele>
        <time>2013-07-03T16:06:59Z</time>
      </trkpt>
      <trkpt lat="39.687483" lon="-4.268033">
        <ele>1386.0</ele>
        <time>2013-07-03T16:07:00Z</time>
      </trkpt>
      <trkpt lat="39.687367" lon="-4.268017">
        <ele>1387.0</ele>
        <time>2013-07-03T16:07:01Z</time>
      </trkpt>
      <trkpt lat="39.687250" lon="-4.268017">
        <ele>1388.0</ele>
        <time>2013-07-03T16:07:02Z</time>
      </trkpt>
      <trkpt lat="39.687150" lon="-4.268017">
        <ele>1388.0</ele>
        <time>2013-07-03T16:07:03Z</time>
      </trkpt>
      <trkpt lat="39.687033" lon="-4.268000">
        <ele>1388.0</ele>
        <time>2013-07-03T16:07:04Z</time>
      </trkpt>
      <trkpt lat="39.686933" lon="-4.268000">
        <ele>1389.0</ele>
        <time>2013-07-03T16:07:05Z</time>
      </trkpt>
      <trkpt lat="39.686833" lon="-4.268000">
        <ele>1389.0</ele>
        <time>2013-07-03T16:07:06Z</time>
      </trkpt>
      <trkpt lat="39.686733" lon="-4.268017">
        <ele>1389.0</ele>
        <time>2013-07-03T16:07:07Z</time>
      </trkpt>
      <trkpt lat="39.686633" lon="-4.268050">
        <ele>1389.0</ele>
        <time>2013-07-03T16:07:08Z</time>
      </trkpt>
      <trkpt lat="39.686517" lon="-4.268083">
        <ele>1389.0</ele>
        <time>2013-07-03T16:07:09Z</time>
      </trkpt>
      <trkpt lat="39.686417" lon="-4.268117">
        <ele>1390.0</ele>
        <time>2013-07-03T16:07:10Z</time>
      </trkpt>
      <trkpt lat="39.686333" lon="-4.268167">
        <ele>1392.0</ele>
        <time>2013-07-03T16:07:11Z</time>
      </trkpt>
      <trkpt lat="39.686250" lon="-4.268200">
        <ele>1393.0</ele>
        <time>2013-07-03T16:07:12Z</time>
      </trkpt>
      <trkpt lat="39.686167" lon="-4.268250">
        <ele>1394.0</ele>
        <time>2013-07-03T16:07:13Z</time>
      </trkpt>
      <trkpt lat="39.686067" lon="-4.268300">
        <ele>1395.0</ele>
        <time>2013-07-03T16:07:14Z</time>
      </trkpt>
      <trkpt lat="39.685983" lon="-4.268350">
        <ele>1397.0</ele>
        <time>2013-07-03T16:07:15Z</time>
      </trkpt>
      <trkpt lat="39.685900" lon="-4.268417">
        <ele>1399.0</ele>
        <time>2013-07-03T16:07:16Z</time>
      </trkpt>
      <trkpt lat="39.685817" lon="-4.268467">
        <ele>1402.0</ele>
        <time>2013-07-03T16:07:17Z</time>
      </trkpt>
      <trkpt lat="39.685750" lon="-4.268500">
        <ele>1404.0</ele>
        <time>2013-07-03T16:07:18Z</time>
      </trkpt>
      <trkpt lat="39.685667" lon="-4.268550">
        <ele>1406.0</ele>
        <time>2013-07-03T16:07:19Z</time>
      </trkpt>
      <trkpt lat="39.685583" lon="-4.268600">
        <ele>1407.0</ele>
        <time>2013-07-03T16:07:20Z</time>
      </trkpt>
      <trkpt lat="39.685500" lon="-4.268633">
        <ele>1410.0</ele>
        <time>2013-07-03T16:07:21Z</time>
      </trkpt>
      <trkpt lat="39.685400" lon="-4.268683">
        <ele>1412.0</ele>
        <time>2013-07-03T16:07:22Z</time>
      </trkpt>
      <trkpt lat="39.685317" lon="-4.268733">
        <ele>1414.0</ele>
        <time>2013-07-03T16:07:23Z</time>
      </trkpt>
      <trkpt lat="39.685233" lon="-4.268783">
        <ele>1417.0</ele>
        <time>2013-07-03T16:07:24Z</time>
      </trkpt>
      <trkpt lat="39.685133" lon="-4.268817">
        <ele>1420.0</ele>
        <time>2013-07-03T16:07:25Z</time>
      </trkpt>
      <trkpt lat="39.685050" lon="-4.268833">
        <ele>1423.0</ele>
        <time>2013-07-03T16:07:26Z</time>
      </trkpt>
      <trkpt lat="39.684967" lon="-4.268867">
        <ele>1425.0</ele>
        <time>2013-07-03T16:07:27Z</time>
      </trkpt>
      <trkpt lat="39.684883" lon="-4.268900">
        <ele>1427.0</ele>
        <time>2013-07-03T16:07:28Z</time>
      </trkpt>
      <trkpt lat="39.684817" lon="-4.268950">
        <ele>1429.0</ele>
        <time>2013-07-03T16:07:29Z</time>
      </trkpt>
      <trkpt lat="39.684750" lon="-4.269017">
        <ele>1431.0</ele>
        <time>2013-07-03T16:07:30Z</time>
      </trkpt>
      <trkpt lat="39.684683" lon="-4.269100">
        <ele>1433.0</ele>
        <time>2013-07-03T16:07:31Z</time>
      </trkpt>
      <trkpt lat="39.684650" lon="-4.269200">
        <ele>1435.0</ele>
        <time>2013-07-03T16:07:32Z</time>
      </trkpt>
      <trkpt lat="39.684650" lon="-4.269283">
        <ele>1437.0</ele>
        <time>2013-07-03T16:07:33Z</time>
      </trkpt>
      <trkpt lat="39.684683" lon="-4.269367">
        <ele>1439.0</ele>
        <time>2013-07-03T16:07:34Z</time>
      </trkpt>
      <trkpt lat="39.684733" lon="-4.269417">
        <ele>1442.0</ele>
        <time>2013-07-03T16:07:35Z</time>
      </trkpt>
      <trkpt lat="39.684783" lon="-4.269417">
        <ele>1445.0</ele>
        <time>2013-07-03T16:07:36Z</time>
      </trkpt>
      <trkpt lat="39.684817" lon="-4.269400">
        <ele>1448.0</ele>
        <time>2013-07-03T16:07:37Z</time>
      </trkpt>
      <trkpt lat="39.684850" lon="-4.269367">
        <ele>1450.0</ele>
        <time>2013-07-03T16:07:38Z</time>
      </trkpt>
      <trkpt lat="39.684867" lon="-4.269333">
        <ele>1451.0</ele>
        <time>2013-07-03T16:07:39Z</time>
      </trkpt>
      <trkpt lat="39.684900" lon="-4.269300">
        <ele>1452.0</ele>
        <time>2013-07-03T16:07:40Z</time>
      </trkpt>
      <trkpt lat="39.684950" lon="-4.269267">
        <ele>1452.0</ele>
        <time>2013-07-03T16:07:41Z</time>
      </trkpt>
      <trkpt lat="39.685017" lon="-4.269200">
        <ele>1454.0</ele>
        <time>2013-07-03T16:07:42Z</time>
      </trkpt>
      <trkpt lat="39.685050" lon="-4.269117">
        <ele>1456.0</ele>
        <time>2013-07-03T16:07:43Z</time>
      </trkpt>
      <trkpt lat="39.685050" lon="-4.269000">
        <ele>1459.0</ele>
        <time>2013-07-03T16:07:44Z</time>
      </trkpt>
      <trkpt lat="39.685017" lon="-4.268917">
        <ele>1464.0</ele>
        <time>2013-07-03T16:07:45Z</time>
      </trkpt>
      <trkpt lat="39.685000" lon="-4.268833">
        <ele>1468.0</ele>
        <time>2013-07-03T16:07:46Z</time>
      </trkpt>
      <trkpt lat="39.684967" lon="-4.268750">
        <ele>1471.0</ele>
        <time>2013-07-03T16:07:47Z</time>
      </trkpt>
      <trkpt lat="39.684933" lon="-4.268667">
        <ele>1474.0</ele>
        <time>2013-07-03T16:07:48Z</time>
      </trkpt>
      <trkpt lat="39.684883" lon="-4.268567">
        <ele>1476.0</ele>
        <time>2013-07-03T16:07:49Z</time>
      </trkpt>
      <trkpt lat="39.684800" lon="-4.268483">
        <ele>1477.0</ele>
        <time>2013-07-03T16:07:50Z</time>
      </trkpt>
      <trkpt lat="39.684717" lon="-4.268417">
        <ele>1479.0</ele>
        <time>2013-07-03T16:07:51Z</time>
      </trkpt>
      <trkpt lat="39.684617" lon="-4.268383">
        <ele>1481.0</ele>
        <time>2013-07-03T16:07:52Z</time>
      </trkpt>
      <trkpt lat="39.684500" lon="-4.268367">
        <ele>1484.0</ele>
        <time>2013-07-03T16:07:53Z</time>
      </trkpt>
      <trkpt lat="39.684400" lon="-4.268367">
        <ele>1486.0</ele>
        <time>2013-07-03T16:07:54Z</time>
      </trkpt>
      <trkpt lat="39.684300" lon="-4.268383">
        <ele>1490.0</ele>
        <time>2013-07-03T16:07:55Z</time>
      </trkpt>
      <trkpt lat="39.684217" lon="-4.268417">
        <ele>1493.0</ele>
        <time>2013-07-03T16:07:56Z</time>
      </trkpt>
      <trkpt lat="39.684133" lon="-4.268467">
        <ele>1496.0</ele>
        <time>2013-07-03T16:07:57Z</time>
      </trkpt>
      <trkpt lat="39.684033" lon="-4.268533">
        <ele>1498.0</ele>
        <time>2013-07-03T16:07:58Z</time>
      </trkpt>
      <trkpt lat="39.683967" lon="-4.268600">
        <ele>1500.0</ele>
        <time>2013-07-03T16:07:59Z</time>
      </trkpt>
      <trkpt lat="39.683900" lon="-4.268683">
        <ele>1502.0</ele>
        <time>2013-07-03T16:08:00Z</time>
      </trkpt>
      <trkpt lat="39.683867" lon="-4.268783">
        <ele>1504.0</ele>
        <time>2013-07-03T16:08:01Z</time>
      </trkpt>
      <trkpt lat="39.683850" lon="-4.268883">
        <ele>1507.0</ele>
        <time>2013-07-03T16:08:02Z</time>
      </trkpt>
      <trkpt lat="39.683850" lon="-4.268967">
        <ele>1509.0</ele>
        <time>2013-07-03T16:08:03Z</time>
      </trkpt>
      <trkpt lat="39.683850" lon="-4.269050">
        <ele>1512.0</ele>
        <time>2013-07-03T16:08:04Z</time>
      </trkpt>
      <trkpt lat="39.683867" lon="-4.269117">
        <ele>1516.0</ele>
        <time>2013-07-03T16:08:05Z</time>
      </trkpt>
      <trkpt lat="39.683900" lon="-4.269167">
        <ele>1519.0</ele>
        <time>2013-07-03T16:08:06Z</time>
      </trkpt>
      <trkpt lat="39.683917" lon="-4.269200">
        <ele>1522.0</ele>
        <time>2013-07-03T16:08:07Z</time>
      </trkpt>
      <trkpt lat="39.683950" lon="-4.269217">
        <ele>1525.0</ele>
        <time>2013-07-03T16:08:08Z</time>
      </trkpt>
      <trkpt lat="39.683983" lon="-4.269233">
        <ele>1528.0</ele>
        <time>2013-07-03T16:08:09Z</time>
      </trkpt>
      <trkpt lat="39.684017" lon="-4.269217">
        <ele>1531.0</ele>
        <time>2013-07-03T16:08:10Z</time>
      </trkpt>
      <trkpt lat="39.684067" lon="-4.269183">
        <ele>1534.0</ele>
        <time>2013-07-03T16:08:11Z</time>
      </trkpt>
      <trkpt lat="39.684083" lon="-4.269117">
        <ele>1536.0</ele>
        <time>2013-07-03T16:08:12Z</time>
      </trkpt>
      <trkpt lat="39.684100" lon="-4.269050">
        <ele>1538.0</ele>
        <time>2013-07-03T16:08:13Z</time>
      </trkpt>
      <trkpt lat="39.684117" lon="-4.268983">
        <ele>1541.0</ele>
        <time>2013-07-03T16:08:14Z</time>
      </trkpt>
      <trkpt lat="39.684133" lon="-4.268883">
        <ele>1543.0</ele>
        <time>2013-07-03T16:08:15Z</time>
      </trkpt>
      <trkpt lat="39.684150" lon="-4.268800">
        <ele>1545.0</ele>
        <time>2013-07-03T16:08:16Z</time>
      </trkpt>
      <trkpt lat="39.684150" lon="-4.268700">
        <ele>1547.0</ele>
        <time>2013-07-03T16:08:17Z</time>
      </trkpt>
      <trkpt lat="39.684117" lon="-4.268600">
        <ele>1550.0</ele>
        <time>2013-07-03T16:08:18Z</time>
      </trkpt>
      <trkpt lat="39.684067" lon="-4.268517">
        <ele>1552.0</ele>
        <time>2013-07-03T16:08:19Z</time>
      </trkpt>
      <trkpt lat="39.684000" lon="-4.268433">
        <ele>1554.0</ele>
        <time>2013-07-03T16:08:20Z</time>
      </trkpt>
      <trkpt lat="39.683917" lon="-4.268350">
        <ele>1557.0</ele>
        <time>2013-07-03T16:08:21Z</time>
      </trkpt>
      <trkpt lat="39.683850" lon="-4.268300">
        <ele>1560.0</ele>
        <time>2013-07-03T16:08:22Z</time>
      </trkpt>
      <trkpt lat="39.683767" lon="-4.268267">
        <ele>1562.0</ele>
        <time>2013-07-03T16:08:23Z</time>
      </trkpt>
      <trkpt lat="39.683667" lon="-4.268233">
        <ele>1564.0</ele>
        <time>2013-07-03T16:08:24Z</time>
      </trkpt>
      <trkpt lat="39.683567" lon="-4.268217">
        <ele>1566.0</ele>
        <time>2013-07-03T16:08:25Z</time>
      </trkpt>
      <trkpt lat="39.683483" lon="-4.268217">
        <ele>1568.0</ele>
        <time>2013-07-03T16:08:26Z</time>
      </trkpt>
      <trkpt lat="39.683383" lon="-4.268217">
        <ele>1570.0</ele>
        <time>2013-07-03T16:08:27Z</time>
      </trkpt>
      <trkpt lat="39.683300" lon="-4.268233">
        <ele>1572.0</ele>
        <time>2013-07-03T16:08:28Z</time>
      </trkpt>
      <trkpt lat="39.683217" lon="-4.268267">
        <ele>1573.0</ele>
        <time>2013-07-03T16:08:29Z</time>
      </trkpt>
      <trkpt lat="39.683133" lon="-4.268317">
        <ele>1575.0</ele>
        <time>2013-07-03T16:08:30Z</time>
      </trkpt>
      <trkpt lat="39.683050" lon="-4.268400">
        <ele>1576.0</ele>
        <time>2013-07-03T16:08:31Z</time>
      </trkpt>
      <trkpt lat="39.682983" lon="-4.268483">
        <ele>1578.0</ele>
        <time>2013-07-03T16:08:32Z</time>
      </trkpt>
      <trkpt lat="39.682917" lon="-4.268583">
        <ele>1580.0</ele>
        <time>2013-07-03T16:08:33Z</time>
      </trkpt>
      <trkpt lat="39.682883" lon="-4.268683">
        <ele>1583.0</ele>
        <time>2013-07-03T16:08:34Z</time>
      </trkpt>
      <trkpt lat="39.682850" lon="-4.268800">
        <ele>1585.0</ele>
        <time>2013-07-03T16:08:35Z</time>
      </trkpt>
      <trkpt lat="39.682833" lon="-4.268900">
        <ele>1588.0</ele>
        <time>2013-07-03T16:08:36Z</time>
      </trkpt>
      <trkpt lat="39.682817" lon="-4.269000">
        <ele>1590.0</ele>
        <time>2013-07-03T16:08:37Z</time>
      </trkpt>
      <trkpt lat="39.682833" lon="-4.269100">
        <ele>1592.0</ele>
        <time>2013-07-03T16:08:38Z</time>
      </trkpt>
      <trkpt lat="39.682867" lon="-4.269167">
        <ele>1594.0</ele>
        <time>2013-07-03T16:08:39Z</time>
      </trkpt>
      <trkpt lat="39.682900" lon="-4.269200">
        <ele>1597.0</ele>
        <time>2013-07-03T16:08:40Z</time>
      </trkpt>
      <trkpt lat="39.682933" lon="-4.269233">
        <ele>1599.0</ele>
        <time>2013-07-03T16:08:41Z</time>
      </trkpt>
      <trkpt lat="39.682967" lon="-4.269267">
        <ele>1602.0</ele>
        <time>2013-07-03T16:08:42Z</time>
      </trkpt>
      <trkpt lat="39.683017" lon="-4.269283">
        <ele>1605.0</ele>
        <time>2013-07-03T16:08:43Z</time>
      </trkpt>
      <trkpt lat="39.683050" lon="-4.269283">
        <ele>1607.0</ele>
        <time>2013-07-03T16:08:44Z</time>
      </trkpt>
      <trkpt lat="39.683083" lon="-4.269267">
        <ele>1609.0</ele>
        <time>2013-07-03T16:08:45Z</time>
      </trkpt>
      <trkpt lat="39.683133" lon="-4.269233">
        <ele>1612.0</ele>
        <time>2013-07-03T16:08:46Z</time>
      </trkpt>
      <trkpt lat="39.683167" lon="-4.269183">
        <ele>1615.0</ele>
        <time>2013-07-03T16:08:47Z</time>
      </trkpt>
      <trkpt lat="39.683200" lon="-4.269117">
        <ele>1617.0</ele>
        <time>2013-07-03T16:08:48Z</time>
      </trkpt>
      <trkpt lat="39.683200" lon="-4.269017">
        <ele>1620.0</ele>
        <time>2013-07-03T16:08:49Z</time>
      </trkpt>
      <trkpt lat="39.683183" lon="-4.268900">
        <ele>1623.0</ele>
        <time>2013-07-03T16:08:50Z</time>
      </trkpt>
      <trkpt lat="39.683150" lon="-4.268800">
        <ele>1625.0</ele>
        <time>2013-07-03T16:08:51Z</time>
      </trkpt>
      <trkpt lat="39.683117" lon="-4.268717">
        <ele>1625.0</ele>
        <time>2013-07-03T16:08:52Z</time>
      </trkpt>
      <trkpt lat="39.683083" lon="-4.268633">
        <ele>1627.0</ele>
        <time>2013-07-03T16:08:53Z</time>
      </trkpt>
      <trkpt lat="39.683017" lon="-4.268567">
        <ele>1629.0</ele>
        <time>2013-07-03T16:08:54Z</time>
      </trkpt>
      <trkpt lat="39.682950" lon="-4.268483">
        <ele>1631.0</ele>
        <time>2013-07-03T16:08:55Z</time>
      </trkpt>
      <trkpt lat="39.682867" lon="-4.268417">
        <ele>1633.0</ele>
        <time>2013-07-03T16:08:56Z</time>
      </trkpt>
      <trkpt lat="39.682783" lon="-4.268383">
        <ele>1635.0</ele>
        <time>2013-07-03T16:08:57Z</time>
      </trkpt>
      <trkpt lat="39.682683" lon="-4.268383">
        <ele>1637.0</ele>
        <time>2013-07-03T16:08:58Z</time>
      </trkpt>
      <trkpt lat="39.682600" lon="-4.268383">
        <ele>1639.0</ele>
        <time>2013-07-03T16:08:59Z</time>
      </trkpt>
      <trkpt lat="39.682517" lon="-4.268383">
        <ele>1641.0</ele>
        <time>2013-07-03T16:09:00Z</time>
      </trkpt>
      <trkpt lat="39.682433" lon="-4.268400">
        <ele>1642.0</ele>
        <time>2013-07-03T16:09:01Z</time>
      </trkpt>
      <trkpt lat="39.682350" lon="-4.268417">
        <ele>1644.0</ele>
        <time>2013-07-03T16:09:02Z</time>
      </trkpt>
      <trkpt lat="39.682250" lon="-4.268450">
        <ele>1646.0</ele>
        <time>2013-07-03T16:09:03Z</time>
      </trkpt>
      <trkpt lat="39.682167" lon="-4.268500">
        <ele>1648.0</ele>
        <time>2013-07-03T16:09:04Z</time>
      </trkpt>
      <trkpt lat="39.682083" lon="-4.268583">
        <ele>1650.0</ele>
        <time>2013-07-03T16:09:05Z</time>
      </trkpt>
      <trkpt lat="39.682017" lon="-4.268683">
        <ele>1651.0</ele>
        <time>2013-07-03T16:09:06Z</time>
      </trkpt>
      <trkpt lat="39.681967" lon="-4.268783">
        <ele>1653.0</ele>
        <time>2013-07-03T16:09:07Z</time>
      </trkpt>
      <trkpt lat="39.681933" lon="-4.268867">
        <ele>1656.0</ele>
        <time>2013-07-03T16:09:08Z</time>
      </trkpt>
      <trkpt lat="39.681900" lon="-4.268967">
        <ele>1658.0</ele>
        <time>2013-07-03T16:09:09Z</time>
      </trkpt>
      <trkpt lat="39.681883" lon="-4.269067">
        <ele>1661.0</ele>
        <time>2013-07-03T16:09:10Z</time>
      </trkpt>
      <trkpt lat="39.681883" lon="-4.269167">
        <ele>1664.0</ele>
        <time>2013-07-03T16:09:11Z</time>
      </trkpt>
      <trkpt lat="39.681900" lon="-4.269250">
        <ele>1667.0</ele>
        <time>2013-07-03T16:09:12Z</time>
      </trkpt>
      <trkpt lat="39.681933" lon="-4.269300">
        <ele>1669.0</ele>
        <time>2013-07-03T16:09:13Z</time>
      </trkpt>
      <trkpt lat="39.681967" lon="-4.269367">
        <ele>1672.0</ele>
        <time>2013-07-03T16:09:14Z</time>
      </trkpt>
      <trkpt lat="39.682000" lon="-4.269417">
        <ele>1676.0</ele>
        <time>2013-07-03T16:09:15Z</time>
      </trkpt>
      <trkpt lat="39.682033" lon="-4.269467">
        <ele>1679.0</ele>
        <time>2013-07-03T16:09:16Z</time>
      </trkpt>
      <trkpt lat="39.682083" lon="-4.269517">
        <ele>1683.0</ele>
        <time>2013-07-03T16:09:17Z</time>
      </trkpt>
      <trkpt lat="39.682133" lon="-4.269550">
        <ele>1686.0</ele>
        <time>2013-07-03T16:09:18Z</time>
      </trkpt>
      <trkpt lat="39.682183" lon="-4.269550">
        <ele>1689.0</ele>
        <time>2013-07-03T16:09:19Z</time>
      </trkpt>
      <trkpt lat="39.682217" lon="-4.269550">
        <ele>1692.0</ele>
        <time>2013-07-03T16:09:20Z</time>
      </trkpt>
      <trkpt lat="39.682267" lon="-4.269533">
        <ele>1696.0</ele>
        <time>2013-07-03T16:09:21Z</time>
      </trkpt>
      <trkpt lat="39.682300" lon="-4.269517">
        <ele>1699.0</ele>
        <time>2013-07-03T16:09:22Z</time>
      </trkpt>
      <trkpt lat="39.682350" lon="-4.269467">
        <ele>1702.0</ele>
        <time>2013-07-03T16:09:23Z</time>
      </trkpt>
      <trkpt lat="39.682383" lon="-4.269400">
        <ele>1706.0</ele>
        <time>2013-07-03T16:09:24Z</time>
      </trkpt>
      <trkpt lat="39.682400" lon="-4.269317">
        <ele>1709.0</ele>
        <time>2013-07-03T16:09:25Z</time>
      </trkpt>
      <trkpt lat="39.682400" lon="-4.269200">
        <ele>1712.0</ele>
        <time>2013-07-03T16:09:26Z</time>
      </trkpt>
      <trkpt lat="39.682383" lon="-4.269100">
        <ele>1716.0</ele>
        <time>2013-07-03T16:09:27Z</time>
      </trkpt>
      <trkpt lat="39.682350" lon="-4.268983">
        <ele>1719.0</ele>
        <time>2013-07-03T16:09:28Z</time>
      </trkpt>
      <trkpt lat="39.682300" lon="-4.268883">
        <ele>1723.0</ele>
        <time>2013-07-03T16:09:29Z</time>
      </trkpt>
      <trkpt lat="39.682233" lon="-4.268783">
        <ele>1726.0</ele>
        <time>2013-07-03T16:09:30Z</time>
      </trkpt>
      <trkpt lat="39.682150" lon="-4.268717">
        <ele>1729.0</ele>
        <time>2013-07-03T16:09:31Z</time>
      </trkpt>
      <trkpt lat="39.682050" lon="-4.268667">
        <ele>1732.0</ele>
        <time>2013-07-03T16:09:32Z</time>
      </trkpt>
      <trkpt lat="39.681950" lon="-4.268633">
        <ele>1735.0</ele>
        <time>2013-07-03T16:09:33Z</time>
      </trkpt>
      <trkpt lat="39.681850" lon="-4.268650">
        <ele>1738.0</ele>
        <time>2013-07-03T16:09:34Z</time>
      </trkpt>
      <trkpt lat="39.681767" lon="-4.268667">
        <ele>1741.0</ele>
        <time>2013-07-03T16:09:35Z</time>
      </trkpt>
      <trkpt lat="39.681700" lon="-4.268700">
        <ele>1743.0</ele>
        <time>2013-07-03T16:09:36Z</time>
      </trkpt>
      <trkpt lat="39.681633" lon="-4.268750">
        <ele>1744.0</ele>
        <time>2013-07-03T16:09:37Z</time>
      </trkpt>
      <trkpt lat="39.681567" lon="-4.268800">
        <ele>1745.0</ele>
        <time>2013-07-03T16:09:38Z</time>
      </trkpt>
      <trkpt lat="39.681483" lon="-4.268883">
        <ele>1746.0</ele>
        <time>2013-07-03T16:09:39Z</time>
      </trkpt>
      <trkpt lat="39.681433" lon="-4.268983">
        <ele>1748.0</ele>
        <time>2013-07-03T16:09:40Z</time>
      </trkpt>
      <trkpt lat="39.681417" lon="-4.269083">
        <ele>1750.0</ele>
        <time>2013-07-03T16:09:41Z</time>
      </trkpt>
      <trkpt lat="39.681433" lon="-4.269183">
        <ele>1753.0</ele>
        <time>2013-07-03T16:09:42Z</time>
      </trkpt>
      <trkpt lat="39.681450" lon="-4.269250">
        <ele>1756.0</ele>
        <time>2013-07-03T16:09:43Z</time>
      </trkpt>
      <trkpt lat="39.681483" lon="-4.269317">
        <ele>1759.0</ele>
        <time>2013-07-03T16:09:44Z</time>
      </trkpt>
      <trkpt lat="39.681517" lon="-4.269383">
        <ele>1762.0</ele>
        <time>2013-07-03T16:09:45Z</time>
      </trkpt>
      <trkpt lat="39.681550" lon="-4.269417">
        <ele>1765.0</ele>
        <time>2013-07-03T16:09:46Z</time>
      </trkpt>
      <trkpt lat="39.681583" lon="-4.269433">
        <ele>1769.0</ele>
        <time>2013-07-03T16:09:47Z</time>
      </trkpt>
      <trkpt lat="39.681633" lon="-4.269450">
        <ele>1772.0</ele>
        <time>2013-07-03T16:09:48Z</time>
      </trkpt>
      <trkpt lat="39.681683" lon="-4.269467">
        <ele>1777.0</ele>
        <time>2013-07-03T16:09:49Z</time>
      </trkpt>
      <trkpt lat="39.681733" lon="-4.269467">
        <ele>1781.0</ele>
        <time>2013-07-03T16:09:50Z</time>
      </trkpt>
      <trkpt lat="39.681767" lon="-4.269467">
        <ele>1785.0</ele>
        <time>2013-07-03T16:09:51Z</time>
      </trkpt>
      <trkpt lat="39.681800" lon="-4.269450">
        <ele>1789.0</ele>
        <time>2013-07-03T16:09:52Z</time>
      </trkpt>
      <trkpt lat="39.681850" lon="-4.269417">
        <ele>1792.0</ele>
        <time>2013-07-03T16:09:53Z</time>
      </trkpt>
      <trkpt lat="39.681883" lon="-4.269383">
        <ele>1795.0</ele>
        <time>2013-07-03T16:09:54Z</time>
      </trkpt>
      <trkpt lat="39.681933" lon="-4.269317">
        <ele>1799.0</ele>
        <time>2013-07-03T16:09:55Z</time>
      </trkpt>
      <trkpt lat="39.681967" lon="-4.269250">
        <ele>1804.0</ele>
        <time>2013-07-03T16:09:56Z</time>
      </trkpt>
      <trkpt lat="39.681983" lon="-4.269167">
        <ele>1808.0</ele>
        <time>2013-07-03T16:09:57Z</time>
      </trkpt>
      <trkpt lat="39.681983" lon="-4.269100">
        <ele>1813.0</ele>
        <time>2013-07-03T16:09:58Z</time>
      </trkpt>
      <trkpt lat="39.681983" lon="-4.269017">
        <ele>1817.0</ele>
        <time>2013-07-03T16:09:59Z</time>
      </trkpt>
      <trkpt lat="39.681967" lon="-4.268933">
        <ele>1821.0</ele>
        <time>2013-07-03T16:10:00Z</time>
      </trkpt>
      <trkpt lat="39.681950" lon="-4.268850">
        <ele>1824.0</ele>
        <time>2013-07-03T16:10:01Z</time>
      </trkpt>
      <trkpt lat="39.681933" lon="-4.268750">
        <ele>1827.0</ele>
        <time>2013-07-03T16:10:02Z</time>
      </trkpt>
      <trkpt lat="39.681883" lon="-4.268650">
        <ele>1830.0</ele>
        <time>2013-07-03T16:10:03Z</time>
      </trkpt>
      <trkpt lat="39.681800" lon="-4.268567">
        <ele>1833.0</ele>
        <time>2013-07-03T16:10:04Z</time>
      </trkpt>
      <trkpt lat="39.681717" lon="-4.268500">
        <ele>1836.0</ele>
        <time>2013-07-03T16:10:05Z</time>
      </trkpt>
      <trkpt lat="39.681617" lon="-4.268450">
        <ele>1839.0</ele>
        <time>2013-07-03T16:10:06Z</time>
      </trkpt>
      <trkpt lat="39.681517" lon="-4.268433">
        <ele>1841.0</ele>
        <time>2013-07-03T16:10:07Z</time>
      </trkpt>
      <trkpt lat="39.681417" lon="-4.268400">
        <ele>1844.0</ele>
        <time>2013-07-03T16:10:08Z</time>
      </trkpt>
      <trkpt lat="39.681333" lon="-4.268417">
        <ele>1846.0</ele>
        <time>2013-07-03T16:10:09Z</time>
      </trkpt>
      <trkpt lat="39.681250" lon="-4.268433">
        <ele>1848.0</ele>
        <time>2013-07-03T16:10:10Z</time>
      </trkpt>
      <trkpt lat="39.681183" lon="-4.268483">
        <ele>1850.0</ele>
        <time>2013-07-03T16:10:11Z</time>
      </trkpt>
      <trkpt lat="39.681117" lon="-4.268567">
        <ele>1851.0</ele>
        <time>2013-07-03T16:10:12Z</time>
      </trkpt>
      <trkpt lat="39.681067" lon="-4.268650">
        <ele>1852.0</ele>
        <time>2013-07-03T16:10:13Z</time>
      </trkpt>
      <trkpt lat="39.681017" lon="-4.268750">
        <ele>1853.0</ele>
        <time>2013-07-03T16:10:14Z</time>
      </trkpt>
      <trkpt lat="39.680983" lon="-4.268833">
        <ele>1855.0</ele>
        <time>2013-07-03T16:10:15Z</time>
      </trkpt>
      <trkpt lat="39.680967" lon="-4.268933">
        <ele>1857.0</ele>
        <time>2013-07-03T16:10:16Z</time>
      </trkpt>
      <trkpt lat="39.680967" lon="-4.269033">
        <ele>1858.0</ele>
        <time>2013-07-03T16:10:17Z</time>
      </trkpt>
      <trkpt lat="39.681000" lon="-4.269100">
        <ele>1859.0</ele>
        <time>2013-07-03T16:10:18Z</time>
      </trkpt>
      <trkpt lat="39.681033" lon="-4.269167">
        <ele>1861.0</ele>
        <time>2013-07-03T16:10:19Z</time>
      </trkpt>
      <trkpt lat="39.681067" lon="-4.269200">
        <ele>1864.0</ele>
        <time>2013-07-03T16:10:20Z</time>
      </trkpt>
      <trkpt lat="39.681100" lon="-4.269217">
        <ele>1867.0</ele>
        <time>2013-07-03T16:10:21Z</time>
      </trkpt>
      <trkpt lat="39.681150" lon="-4.269233">
        <ele>1870.0</ele>
        <time>2013-07-03T16:10:22Z</time>
      </trkpt>
      <trkpt lat="39.681183" lon="-4.269250">
        <ele>1874.0</ele>
        <time>2013-07-03T16:10:23Z</time>
      </trkpt>
      <trkpt lat="39.681217" lon="-4.269267">
        <ele>1877.0</ele>
        <time>2013-07-03T16:10:24Z</time>
      </trkpt>
      <trkpt lat="39.681250" lon="-4.269267">
        <ele>1876.0</ele>
        <time>2013-07-03T16:10:25Z</time>
      </trkpt>
      <trkpt lat="39.681283" lon="-4.269250">
        <ele>1878.0</ele>
        <time>2013-07-03T16:10:26Z</time>
      </trkpt>
      <trkpt lat="39.681317" lon="-4.269200">
        <ele>1881.0</ele>
        <time>2013-07-03T16:10:27Z</time>
      </trkpt>
      <trkpt lat="39.681367" lon="-4.269133">
        <ele>1885.0</ele>
        <time>2013-07-03T16:10:28Z</time>
      </trkpt>
      <trkpt lat="39.681383" lon="-4.269050">
        <ele>1889.0</ele>
        <time>2013-07-03T16:10:29Z</time>
      </trkpt>
      <trkpt lat="39.681400" lon="-4.268983">
        <ele>1895.0</ele>
        <time>2013-07-03T16:10:30Z</time>
      </trkpt>
      <trkpt lat="39.681417" lon="-4.268900">
        <ele>1899.0</ele>
        <time>2013-07-03T16:10:31Z</time>
      </trkpt>
      <trkpt lat="39.681417" lon="-4.268833">
        <ele>1903.0</ele>
        <time>2013-07-03T16:10:32Z</time>
      </trkpt>
      <trkpt lat="39.681400" lon="-4.268750">
        <ele>1906.0</ele>
        <time>2013-07-03T16:10:33Z</time>
      </trkpt>
      <trkpt lat="39.681383" lon="-4.268650">
        <ele>1908.0</ele>
        <time>2013-07-03T16:10:34Z</time>
      </trkpt>
      <trkpt lat="39.681350" lon="-4.268567">
        <ele>1911.0</ele>
        <time>2013-07-03T16:10:35Z</time>
      </trkpt>
      <trkpt lat="39.681300" lon="-4.268467">
        <ele>1914.0</ele>
        <time>2013-07-03T16:10:36Z</time>
      </trkpt>
      <trkpt lat="39.681250" lon="-4.268383">
        <ele>1917.0</ele>
        <time>2013-07-03T16:10:37Z</time>
      </trkpt>
      <trkpt lat="39.681200" lon="-4.268317">
        <ele>1919.0</ele>
        <time>2013-07-03T16:10:38Z</time>
      </trkpt>
      <trkpt lat="39.681117" lon="-4.268250">
        <ele>1922.0</ele>
        <time>2013-07-03T16:10:39Z</time>
      </trkpt>
      <trkpt lat="39.681050" lon="-4.268183">
        <ele>1925.0</ele>
        <time>2013-07-03T16:10:40Z</time>
      </trkpt>
      <trkpt lat="39.680967" lon="-4.268133">
        <ele>1928.0</ele>
        <time>2013-07-03T16:10:41Z</time>
      </trkpt>
      <trkpt lat="39.680883" lon="-4.268117">
        <ele>1931.0</ele>
        <time>2013-07-03T16:10:42Z</time>
      </trkpt>
      <trkpt lat="39.680783" lon="-4.268100">
        <ele>1933.0</ele>
        <time>2013-07-03T16:10:43Z</time>
      </trkpt>
      <trkpt lat="39.680700" lon="-4.268117">
        <ele>1934.0</ele>
        <time>2013-07-03T16:10:44Z</time>
      </trkpt>
      <trkpt lat="39.680633" lon="-4.268167">
        <ele>1936.0</ele>
        <time>2013-07-03T16:10:45Z</time>
      </trkpt>
      <trkpt lat="39.680550" lon="-4.268233">
        <ele>1937.0</ele>
        <time>2013-07-03T16:10:46Z</time>
      </trkpt>
      <trkpt lat="39.680483" lon="-4.268317">
        <ele>1939.0</ele>
        <time>2013-07-03T16:10:47Z</time>
      </trkpt>
      <trkpt lat="39.680433" lon="-4.268417">
        <ele>1941.0</ele>
        <time>2013-07-03T16:10:48Z</time>
      </trkpt>
      <trkpt lat="39.680400" lon="-4.268500">
        <ele>1943.0</ele>
        <time>2013-07-03T16:10:49Z</time>
      </trkpt>
      <trkpt lat="39.680367" lon="-4.268600">
        <ele>1946.0</ele>
        <time>2013-07-03T16:10:50Z</time>
      </trkpt>
      <trkpt lat="39.680333" lon="-4.268683">
        <ele>1949.0</ele>
        <time>2013-07-03T16:10:51Z</time>
      </trkpt>
      <trkpt lat="39.680317" lon="-4.268783">
        <ele>1951.0</ele>
        <time>2013-07-03T16:10:52Z</time>
      </trkpt>
      <trkpt lat="39.680300" lon="-4.268883">
        <ele>1953.0</ele>
        <time>2013-07-03T16:10:53Z</time>
      </trkpt>
      <trkpt lat="39.680300" lon="-4.268983">
        <ele>1954.0</ele>
        <time>2013-07-03T16:10:54Z</time>
      </trkpt>
      <trkpt lat="39.680317" lon="-4.269100">
        <ele>1956.0</ele>
        <time>2013-07-03T16:10:55Z</time>
      </trkpt>
      <trkpt lat="39.680367" lon="-4.269183">
        <ele>1958.0</ele>
        <time>2013-07-03T16:10:56Z</time>
      </trkpt>
      <trkpt lat="39.680433" lon="-4.269250">
        <ele>1960.0</ele>
        <time>2013-07-03T16:10:57Z</time>
      </trkpt>
      <trkpt lat="39.680500" lon="-4.269283">
        <ele>1963.0</ele>
        <time>2013-07-03T16:10:58Z</time>
      </trkpt>
      <trkpt lat="39.680550" lon="-4.269317">
        <ele>1968.0</ele>
        <time>2013-07-03T16:10:59Z</time>
      </trkpt>
      <trkpt lat="39.680583" lon="-4.269333">
        <ele>1971.0</ele>
        <time>2013-07-03T16:11:00Z</time>
      </trkpt>
      <trkpt lat="39.680617" lon="-4.269350">
        <ele>1974.0</ele>
        <time>2013-07-03T16:11:01Z</time>
      </trkpt>
      <trkpt lat="39.680650" lon="-4.269350">
        <ele>1977.0</ele>
        <time>2013-07-03T16:11:02Z</time>
      </trkpt>
      <trkpt lat="39.680700" lon="-4.269350">
        <ele>1980.0</ele>
        <time>2013-07-03T16:11:03Z</time>
      </trkpt>
      <trkpt lat="39.680750" lon="-4.269333">
        <ele>1982.0</ele>
        <time>2013-07-03T16:11:04Z</time>
      </trkpt>
      <trkpt lat="39.680800" lon="-4.269267">
        <ele>1984.0</ele>
        <time>2013-07-03T16:11:05Z</time>
      </trkpt>
      <trkpt lat="39.680833" lon="-4.269167">
        <ele>1987.0</ele>
        <time>2013-07-03T16:11:06Z</time>
      </trkpt>
      <trkpt lat="39.680817" lon="-4.269033">
        <ele>1990.0</ele>
        <time>2013-07-03T16:11:07Z</time>
      </trkpt>
      <trkpt lat="39.680783" lon="-4.268900">
        <ele>1994.0</ele>
        <time>2013-07-03T16:11:08Z</time>
      </trkpt>
      <trkpt lat="39.680700" lon="-4.268817">
        <ele>1998.0</ele>
        <time>2013-07-03T16:11:09Z</time>
      </trkpt>
      <trkpt lat="39.680617" lon="-4.268750">
        <ele>2002.0</ele>
        <time>2013-07-03T16:11:10Z</time>
      </trkpt>
      <trkpt lat="39.680533" lon="-4.268700">
        <ele>2006.0</ele>
        <time>2013-07-03T16:11:11Z</time>
      </trkpt>
      <trkpt lat="39.680467" lon="-4.268650">
        <ele>2009.0</ele>
        <time>2013-07-03T16:11:12Z</time>
      </trkpt>
      <trkpt lat="39.680383" lon="-4.268600">
        <ele>2012.0</ele>
        <time>2013-07-03T16:11:13Z</time>
      </trkpt>
      <trkpt lat="39.680283" lon="-4.268567">
        <ele>2014.0</ele>
        <time>2013-07-03T16:11:14Z</time>
      </trkpt>
      <trkpt lat="39.680183" lon="-4.268550">
        <ele>2015.0</ele>
        <time>2013-07-03T16:11:15Z</time>
      </trkpt>
      <trkpt lat="39.680067" lon="-4.268567">
        <ele>2017.0</ele>
        <time>2013-07-03T16:11:16Z</time>
      </trkpt>
      <trkpt lat="39.679967" lon="-4.268617">
        <ele>2019.0</ele>
        <time>2013-07-03T16:11:17Z</time>
      </trkpt>
      <trkpt lat="39.679900" lon="-4.268683">
        <ele>2022.0</ele>
        <time>2013-07-03T16:11:18Z</time>
      </trkpt>
      <trkpt lat="39.679833" lon="-4.268750">
        <ele>2025.0</ele>
        <time>2013-07-03T16:11:19Z</time>
      </trkpt>
      <trkpt lat="39.679817" lon="-4.268850">
        <ele>2027.0</ele>
        <time>2013-07-03T16:11:20Z</time>
      </trkpt>
      <trkpt lat="39.679783" lon="-4.268933">
        <ele>2028.0</ele>
        <time>2013-07-03T16:11:21Z</time>
      </trkpt>
      <trkpt lat="39.679783" lon="-4.269050">
        <ele>2029.0</ele>
        <time>2013-07-03T16:11:22Z</time>
      </trkpt>
      <trkpt lat="39.679817" lon="-4.269150">
        <ele>2031.0</ele>
        <time>2013-07-03T16:11:23Z</time>
      </trkpt>
      <trkpt lat="39.679867" lon="-4.269233">
        <ele>2033.0</ele>
        <time>2013-07-03T16:11:24Z</time>
      </trkpt>
      <trkpt lat="39.679917" lon="-4.269283">
        <ele>2036.0</ele>
        <time>2013-07-03T16:11:25Z</time>
      </trkpt>
      <trkpt lat="39.679967" lon="-4.269300">
        <ele>2039.0</ele>
        <time>2013-07-03T16:11:26Z</time>
      </trkpt>
      <trkpt lat="39.680017" lon="-4.269317">
        <ele>2042.0</ele>
        <time>2013-07-03T16:11:27Z</time>
      </trkpt>
      <trkpt lat="39.680050" lon="-4.269317">
        <ele>2045.0</ele>
        <time>2013-07-03T16:11:28Z</time>
      </trkpt>
      <trkpt lat="39.680083" lon="-4.269317">
        <ele>2047.0</ele>
        <time>2013-07-03T16:11:29Z</time>
      </trkpt>
      <trkpt lat="39.680133" lon="-4.269283">
        <ele>2050.0</ele>
        <time>2013-07-03T16:11:30Z</time>
      </trkpt>
      <trkpt lat="39.680167" lon="-4.269233">
        <ele>2053.0</ele>
        <time>2013-07-03T16:11:31Z</time>
      </trkpt>
      <trkpt lat="39.680200" lon="-4.269133">
        <ele>2055.0</ele>
        <time>2013-07-03T16:11:32Z</time>
      </trkpt>
      <trkpt lat="39.680200" lon="-4.269050">
        <ele>2058.0</ele>
        <time>2013-07-03T16:11:33Z</time>
      </trkpt>
      <trkpt lat="39.680217" lon="-4.268967">
        <ele>2062.0</ele>
        <time>2013-07-03T16:11:34Z</time>
      </trkpt>
      <trkpt lat="39.680217" lon="-4.268883">
        <ele>2066.0</ele>
        <time>2013-07-03T16:11:35Z</time>
      </trkpt>
      <trkpt lat="39.680217" lon="-4.268817">
        <ele>2068.0</ele>
        <time>2013-07-03T16:11:36Z</time>
      </trkpt>
      <trkpt lat="39.680217" lon="-4.268733">
        <ele>2070.0</ele>
        <time>2013-07-03T16:11:37Z</time>
      </trkpt>
      <trkpt lat="39.680200" lon="-4.268633">
        <ele>2073.0</ele>
        <time>2013-07-03T16:11:38Z</time>
      </trkpt>
      <trkpt lat="39.680150" lon="-4.268517">
        <ele>2076.0</ele>
        <time>2013-07-03T16:11:39Z</time>
      </trkpt>
      <trkpt lat="39.680083" lon="-4.268433">
        <ele>2079.0</ele>
        <time>2013-07-03T16:11:40Z</time>
      </trkpt>
      <trkpt lat="39.680000" lon="-4.268350">
        <ele>2083.0</ele>
        <time>2013-07-03T16:11:41Z</time>
      </trkpt>
      <trkpt lat="39.679933" lon="-4.268283">
        <ele>2086.0</ele>
        <time>2013-07-03T16:11:42Z</time>
      </trkpt>
      <trkpt lat="39.679850" lon="-4.268217">
        <ele>2089.0</ele>
        <time>2013-07-03T16:11:43Z</time>
      </trkpt>
      <trkpt lat="39.679783" lon="-4.268150">
        <ele>2092.0</ele>
        <time>2013-07-03T16:11:44Z</time>
      </trkpt>
      <trkpt lat="39.679700" lon="-4.268100">
        <ele>2094.0</ele>
        <time>2013-07-03T16:11:45Z</time>
      </trkpt>
      <trkpt lat="39.679600" lon="-4.268050">
        <ele>2097.0</ele>
        <time>2013-07-03T16:11:46Z</time>
      </trkpt>
      <trkpt lat="39.679500" lon="-4.268000">
        <ele>2100.0</ele>
        <time>2013-07-03T16:11:47Z</time>
      </trkpt>
      <trkpt lat="39.679400" lon="-4.267967">
        <ele>2103.0</ele>
        <time>2013-07-03T16:11:48Z</time>
      </trkpt>
      <trkpt lat="39.679300" lon="-4.267967">
        <ele>2106.0</ele>
        <time>2013-07-03T16:11:49Z</time>
      </trkpt>
      <trkpt lat="39.679200" lon="-4.268000">
        <ele>2108.0</ele>
        <time>2013-07-03T16:11:50Z</time>
      </trkpt>
      <trkpt lat="39.679117" lon="-4.268050">
        <ele>2110.0</ele>
        <time>2013-07-03T16:11:51Z</time>
      </trkpt>
      <trkpt lat="39.679033" lon="-4.268117">
        <ele>2113.0</ele>
        <time>2013-07-03T16:11:52Z</time>
      </trkpt>
      <trkpt lat="39.678967" lon="-4.268200">
        <ele>2115.0</ele>
        <time>2013-07-03T16:11:53Z</time>
      </trkpt>
      <trkpt lat="39.678933" lon="-4.268300">
        <ele>2117.0</ele>
        <time>2013-07-03T16:11:54Z</time>
      </trkpt>
      <trkpt lat="39.678917" lon="-4.268400">
        <ele>2119.0</ele>
        <time>2013-07-03T16:11:55Z</time>
      </trkpt>
      <trkpt lat="39.678917" lon="-4.268500">
        <ele>2121.0</ele>
        <time>2013-07-03T16:11:56Z</time>
      </trkpt>
      <trkpt lat="39.678950" lon="-4.268600">
        <ele>2123.0</ele>
        <time>2013-07-03T16:11:57Z</time>
      </trkpt>
      <trkpt lat="39.679000" lon="-4.268667">
        <ele>2125.0</ele>
        <time>2013-07-03T16:11:58Z</time>
      </trkpt>
      <trkpt lat="39.679050" lon="-4.268717">
        <ele>2128.0</ele>
        <time>2013-07-03T16:11:59Z</time>
      </trkpt>
      <trkpt lat="39.679100" lon="-4.268767">
        <ele>2131.0</ele>
        <time>2013-07-03T16:12:00Z</time>
      </trkpt>
      <trkpt lat="39.679150" lon="-4.268800">
        <ele>2133.0</ele>
        <time>2013-07-03T16:12:01Z</time>
      </trkpt>
      <trkpt lat="39.679200" lon="-4.268817">
        <ele>2136.0</ele>
        <time>2013-07-03T16:12:02Z</time>
      </trkpt>
      <trkpt lat="39.679250" lon="-4.268817">
        <ele>2139.0</ele>
        <time>2013-07-03T16:12:03Z</time>
      </trkpt>
      <trkpt lat="39.679283" lon="-4.268800">
        <ele>2141.0</ele>
        <time>2013-07-03T16:12:04Z</time>
      </trkpt>
      <trkpt lat="39.679333" lon="-4.268800">
        <ele>2143.0</ele>
        <time>2013-07-03T16:12:05Z</time>
      </trkpt>
      <trkpt lat="39.679383" lon="-4.268800">
        <ele>2145.0</ele>
        <time>2013-07-03T16:12:06Z</time>
      </trkpt>
      <trkpt lat="39.679433" lon="-4.268767">
        <ele>2147.0</ele>
        <time>2013-07-03T16:12:07Z</time>
      </trkpt>
      <trkpt lat="39.679483" lon="-4.268700">
        <ele>2149.0</ele>
        <time>2013-07-03T16:12:08Z</time>
      </trkpt>
      <trkpt lat="39.679517" lon="-4.268617">
        <ele>2152.0</ele>
        <time>2013-07-03T16:12:09Z</time>
      </trkpt>
      <trkpt lat="39.679567" lon="-4.268533">
        <ele>2157.0</ele>
        <time>2013-07-03T16:12:10Z</time>
      </trkpt>
      <trkpt lat="39.679583" lon="-4.268467">
        <ele>2161.0</ele>
        <time>2013-07-03T16:12:11Z</time>
      </trkpt>
      <trkpt lat="39.679600" lon="-4.268400">
        <ele>2164.0</ele>
        <time>2013-07-03T16:12:12Z</time>
      </trkpt>
      <trkpt lat="39.679617" lon="-4.268317">
        <ele>2163.0</ele>
        <time>2013-07-03T16:12:13Z</time>
      </trkpt>
      <trkpt lat="39.679650" lon="-4.268233">
        <ele>2165.0</ele>
        <time>2013-07-03T16:12:14Z</time>
      </trkpt>
      <trkpt lat="39.679683" lon="-4.268133">
        <ele>2167.0</ele>
        <time>2013-07-03T16:12:15Z</time>
      </trkpt>
      <trkpt lat="39.679700" lon="-4.268017">
        <ele>2169.0</ele>
        <time>2013-07-03T16:12:16Z</time>
      </trkpt>
      <trkpt lat="39.679683" lon="-4.267900">
        <ele>2172.0</ele>
        <time>2013-07-03T16:12:17Z</time>
      </trkpt>
      <trkpt lat="39.679633" lon="-4.267800">
        <ele>2175.0</ele>
        <time>2013-07-03T16:12:18Z</time>
      </trkpt>
      <trkpt lat="39.679583" lon="-4.267700">
        <ele>2178.0</ele>
        <time>2013-07-03T16:12:19Z</time>
      </trkpt>
      <trkpt lat="39.679500" lon="-4.267617">
        <ele>2180.0</ele>
        <time>2013-07-03T16:12:20Z</time>
      </trkpt>
      <trkpt lat="39.679417" lon="-4.267533">
        <ele>2183.0</ele>
        <time>2013-07-03T16:12:21Z</time>
      </trkpt>
      <trkpt lat="39.679317" lon="-4.267467">
        <ele>2186.0</ele>
        <time>2013-07-03T16:12:22Z</time>
      </trkpt>
      <trkpt lat="39.679233" lon="-4.267417">
        <ele>2189.0</ele>
        <time>2013-07-03T16:12:23Z</time>
      </trkpt>
      <trkpt lat="39.679133" lon="-4.267367">
        <ele>2192.0</ele>
        <time>2013-07-03T16:12:24Z</time>
      </trkpt>
      <trkpt lat="39.679033" lon="-4.267333">
        <ele>2194.0</ele>
        <time>2013-07-03T16:12:25Z</time>
      </trkpt>
      <trkpt lat="39.678933" lon="-4.267350">
        <ele>2196.0</ele>
        <time>2013-07-03T16:12:26Z</time>
      </trkpt>
      <trkpt lat="39.678850" lon="-4.267383">
        <ele>2199.0</ele>
        <time>2013-07-03T16:12:27Z</time>
      </trkpt>
      <trkpt lat="39.678750" lon="-4.267433">
        <ele>2200.0</ele>
        <time>2013-07-03T16:12:28Z</time>
      </trkpt>
      <trkpt lat="39.678683" lon="-4.267517">
        <ele>2203.0</ele>
        <time>2013-07-03T16:12:29Z</time>
      </trkpt>
      <trkpt lat="39.678617" lon="-4.267600">
        <ele>2205.0</ele>
        <time>2013-07-03T16:12:30Z</time>
      </trkpt>
      <trkpt lat="39.678583" lon="-4.267700">
        <ele>2208.0</ele>
        <time>2013-07-03T16:12:31Z</time>
      </trkpt>
      <trkpt lat="39.678567" lon="-4.267783">
        <ele>2211.0</ele>
        <time>2013-07-03T16:12:32Z</time>
      </trkpt>
      <trkpt lat="39.678567" lon="-4.267867">
        <ele>2213.0</ele>
        <time>2013-07-03T16:12:33Z</time>
      </trkpt>
      <trkpt lat="39.678583" lon="-4.267933">
        <ele>2216.0</ele>
        <time>2013-07-03T16:12:34Z</time>
      </trkpt>
      <trkpt lat="39.678617" lon="-4.267983">
        <ele>2219.0</ele>
        <time>2013-07-03T16:12:35Z</time>
      </trkpt>
      <trkpt lat="39.678667" lon="-4.268017">
        <ele>2222.0</ele>
        <time>2013-07-03T16:12:36Z</time>
      </trkpt>
      <trkpt lat="39.678717" lon="-4.268033">
        <ele>2224.0</ele>
        <time>2013-07-03T16:12:37Z</time>
      </trkpt>
      <trkpt lat="39.678767" lon="-4.268017">
        <ele>2227.0</ele>
        <time>2013-07-03T16:12:38Z</time>
      </trkpt>
      <trkpt lat="39.678817" lon="-4.267967">
        <ele>2230.0</ele>
        <time>2013-07-03T16:12:39Z</time>
      </trkpt>
      <trkpt lat="39.678850" lon="-4.267900">
        <ele>2232.0</ele>
        <time>2013-07-03T16:12:40Z</time>
      </trkpt>
      <trkpt lat="39.678883" lon="-4.267833">
        <ele>2235.0</ele>
        <time>2013-07-03T16:12:41Z</time>
      </trkpt>
      <trkpt lat="39.678917" lon="-4.267767">
        <ele>2237.0</ele>
        <time>2013-07-03T16:12:42Z</time>
      </trkpt>
      <trkpt lat="39.678967" lon="-4.267683">
        <ele>2240.0</ele>
        <time>2013-07-03T16:12:43Z</time>
      </trkpt>
      <trkpt lat="39.679000" lon="-4.267600">
        <ele>2242.0</ele>
        <time>2013-07-03T16:12:44Z</time>
      </trkpt>
      <trkpt lat="39.679017" lon="-4.267500">
        <ele>2244.0</ele>
        <time>2013-07-03T16:12:45Z</time>
      </trkpt>
      <trkpt lat="39.679033" lon="-4.267383">
        <ele>2247.0</ele>
        <time>2013-07-03T16:12:46Z</time>
      </trkpt>
      <trkpt lat="39.679033" lon="-4.267267">
        <ele>2248.0</ele>
        <time>2013-07-03T16:12:47Z</time>
      </trkpt>
      <trkpt lat="39.679000" lon="-4.267133">
        <ele>2250.0</ele>
        <time>2013-07-03T16:12:48Z</time>
      </trkpt>
      <trkpt lat="39.678950" lon="-4.267017">
        <ele>2252.0</ele>
        <time>2013-07-03T16:12:49Z</time>
      </trkpt>
      <trkpt lat="39.678900" lon="-4.266900">
        <ele>2254.0</ele>
        <time>2013-07-03T16:12:50Z</time>
      </trkpt>
      <trkpt lat="39.678833" lon="-4.266783">
        <ele>2256.0</ele>
        <time>2013-07-03T16:12:51Z</time>
      </trkpt>
      <trkpt lat="39.678767" lon="-4.266683">
        <ele>2257.0</ele>
        <time>2013-07-03T16:12:52Z</time>
      </trkpt>
      <trkpt lat="39.678683" lon="-4.266583">
        <ele>2259.0</ele>
        <time>2013-07-03T16:12:53Z</time>
      </trkpt>
      <trkpt lat="39.678600" lon="-4.266483">
        <ele>2261.0</ele>
        <time>2013-07-03T16:12:54Z</time>
      </trkpt>
      <trkpt lat="39.678517" lon="-4.266417">
        <ele>2263.0</ele>
        <time>2013-07-03T16:12:55Z</time>
      </trkpt>
      <trkpt lat="39.678417" lon="-4.266350">
        <ele>2265.0</ele>
        <time>2013-07-03T16:12:56Z</time>
      </trkpt>
      <trkpt lat="39.678333" lon="-4.266283">
        <ele>2267.0</ele>
        <time>2013-07-03T16:12:57Z</time>
      </trkpt>
      <trkpt lat="39.678250" lon="-4.266233">
        <ele>2268.0</ele>
        <time>2013-07-03T16:12:58Z</time>
      </trkpt>
      <trkpt lat="39.678167" lon="-4.266167">
        <ele>2269.0</ele>
        <time>2013-07-03T16:12:59Z</time>
      </trkpt>
      <trkpt lat="39.678067" lon="-4.266100">
        <ele>2269.0</ele>
        <time>2013-07-03T16:13:00Z</time>
      </trkpt>
      <trkpt lat="39.677967" lon="-4.266050">
        <ele>2271.0</ele>
        <time>2013-07-03T16:13:01Z</time>
      </trkpt>
      <trkpt lat="39.677883" lon="-4.266017">
        <ele>2272.0</ele>
        <time>2013-07-03T16:13:02Z</time>
      </trkpt>
      <trkpt lat="39.677783" lon="-4.265983">
        <ele>2273.0</ele>
        <time>2013-07-03T16:13:03Z</time>
      </trkpt>
      <trkpt lat="39.677683" lon="-4.265950">
        <ele>2273.0</ele>
        <time>2013-07-03T16:13:04Z</time>
      </trkpt>
      <trkpt lat="39.677567" lon="-4.265933">
        <ele>2274.0</ele>
        <time>2013-07-03T16:13:05Z</time>
      </trkpt>
      <trkpt lat="39.677433" lon="-4.265917">
        <ele>2274.0</ele>
        <time>2013-07-03T16:13:06Z</time>
      </trkpt>
      <trkpt lat="39.677317" lon="-4.265917">
        <ele>2277.0</ele>
        <time>2013-07-03T16:13:07Z</time>
      </trkpt>
      <trkpt lat="39.677200" lon="-4.265950">
        <ele>2280.0</ele>
        <time>2013-07-03T16:13:08Z</time>
      </trkpt>
      <trkpt lat="39.677100" lon="-4.266000">
        <ele>2284.0</ele>
        <time>2013-07-03T16:13:09Z</time>
      </trkpt>
      <trkpt lat="39.677050" lon="-4.266067">
        <ele>2286.0</ele>
        <time>2013-07-03T16:13:10Z</time>
      </trkpt>
      <trkpt lat="39.676967" lon="-4.266133">
        <ele>2288.0</ele>
        <time>2013-07-03T16:13:11Z</time>
      </trkpt>
      <trkpt lat="39.676883" lon="-4.266200">
        <ele>2289.0</ele>
        <time>2013-07-03T16:13:12Z</time>
      </trkpt>
      <trkpt lat="39.676783" lon="-4.266233">
        <ele>2291.0</ele>
        <time>2013-07-03T16:13:13Z</time>
      </trkpt>
      <trkpt lat="39.676700" lon="-4.266233">
        <ele>2292.0</ele>
        <time>2013-07-03T16:13:14Z</time>
      </trkpt>
      <trkpt lat="39.676617" lon="-4.266200">
        <ele>2294.0</ele>
        <time>2013-07-03T16:13:15Z</time>
      </trkpt>
      <trkpt lat="39.676533" lon="-4.266167">
        <ele>2295.0</ele>
        <time>2013-07-03T16:13:16Z</time>
      </trkpt>
      <trkpt lat="39.676450" lon="-4.266117">
        <ele>2295.0</ele>
        <time>2013-07-03T16:13:17Z</time>
      </trkpt>
      <trkpt lat="39.676383" lon="-4.266033">
        <ele>2295.0</ele>
        <time>2013-07-03T16:13:18Z</time>
      </trkpt>
      <trkpt lat="39.676333" lon="-4.265933">
        <ele>2294.0</ele>
        <time>2013-07-03T16:13:19Z</time>
      </trkpt>
      <trkpt lat="39.676300" lon="-4.265833">
        <ele>2294.0</ele>
        <time>2013-07-03T16:13:20Z</time>
      </trkpt>
      <trkpt lat="39.676300" lon="-4.265717">
        <ele>2294.0</ele>
        <time>2013-07-03T16:13:21Z</time>
      </trkpt>
      <trkpt lat="39.676300" lon="-4.265617">
        <ele>2294.0</ele>
        <time>2013-07-03T16:13:22Z</time>
      </trkpt>
      <trkpt lat="39.676317" lon="-4.265533">
        <ele>2295.0</ele>
        <time>2013-07-03T16:13:23Z</time>
      </trkpt>
      <trkpt lat="39.676333" lon="-4.265467">
        <ele>2297.0</ele>
        <time>2013-07-03T16:13:24Z</time>
      </trkpt>
      <trkpt lat="39.676350" lon="-4.265400">
        <ele>2298.0</ele>
        <time>2013-07-03T16:13:25Z</time>
      </trkpt>
      <trkpt lat="39.676367" lon="-4.265333">
        <ele>2299.0</ele>
        <time>2013-07-03T16:13:26Z</time>
      </trkpt>
      <trkpt lat="39.676400" lon="-4.265250">
        <ele>2299.0</ele>
        <time>2013-07-03T16:13:27Z</time>
      </trkpt>
      <trkpt lat="39.676417" lon="-4.265183">
        <ele>2300.0</ele>
        <time>2013-07-03T16:13:28Z</time>
      </trkpt>
      <trkpt lat="39.676450" lon="-4.265133">
        <ele>2302.0</ele>
        <time>2013-07-03T16:13:29Z</time>
      </trkpt>
      <trkpt lat="39.676483" lon="-4.265100">
        <ele>2303.0</ele>
        <time>2013-07-03T16:13:30Z</time>
      </trkpt>
      <trkpt lat="39.676517" lon="-4.265083">
        <ele>2303.0</ele>
        <time>2013-07-03T16:13:31Z</time>
      </trkpt>
      <trkpt lat="39.676567" lon="-4.265067">
        <ele>2304.0</ele>
        <time>2013-07-03T16:13:32Z</time>
      </trkpt>
      <trkpt lat="39.676600" lon="-4.265067">
        <ele>2305.0</ele>
        <time>2013-07-03T16:13:33Z</time>
      </trkpt>
      <trkpt lat="39.676633" lon="-4.265067">
        <ele>2306.0</ele>
        <time>2013-07-03T16:13:34Z</time>
      </trkpt>
      <trkpt lat="39.676667" lon="-4.265083">
        <ele>2306.0</ele>
        <time>2013-07-03T16:13:35Z</time>
      </trkpt>
      <trkpt lat="39.676683" lon="-4.265117">
        <ele>2307.0</ele>
        <time>2013-07-03T16:13:36Z</time>
      </trkpt>
      <trkpt lat="39.676700" lon="-4.265150">
        <ele>2308.0</ele>
        <time>2013-07-03T16:13:37Z</time>
      </trkpt>
      <trkpt lat="39.676733" lon="-4.265183">
        <ele>2308.0</ele>
        <time>2013-07-03T16:13:38Z</time>
      </trkpt>
      <trkpt lat="39.676750" lon="-4.265233">
        <ele>2309.0</ele>
        <time>2013-07-03T16:13:39Z</time>
      </trkpt>
      <trkpt lat="39.676783" lon="-4.265283">
        <ele>2309.0</ele>
        <time>2013-07-03T16:13:40Z</time>
      </trkpt>
      <trkpt lat="39.676800" lon="-4.265333">
        <ele>2309.0</ele>
        <time>2013-07-03T16:13:41Z</time>
      </trkpt>
      <trkpt lat="39.676817" lon="-4.265383">
        <ele>2310.0</ele>
        <time>2013-07-03T16:13:42Z</time>
      </trkpt>
      <trkpt lat="39.676833" lon="-4.265467">
        <ele>2311.0</ele>
        <time>2013-07-03T16:13:43Z</time>
      </trkpt>
      <trkpt lat="39.676817" lon="-4.265550">
        <ele>2311.0</ele>
        <time>2013-07-03T16:13:44Z</time>
      </trkpt>
      <trkpt lat="39.676817" lon="-4.265650">
        <ele>2312.0</ele>
        <time>2013-07-03T16:13:45Z</time>
      </trkpt>
      <trkpt lat="39.676817" lon="-4.265750">
        <ele>2313.0</ele>
        <time>2013-07-03T16:13:46Z</time>
      </trkpt>
      <trkpt lat="39.676800" lon="-4.265833">
        <ele>2314.0</ele>
        <time>2013-07-03T16:13:47Z</time>
      </trkpt>
      <trkpt lat="39.676800" lon="-4.265917">
        <ele>2316.0</ele>
        <time>2013-07-03T16:13:48Z</time>
      </trkpt>
      <trkpt lat="39.676800" lon="-4.265983">
        <ele>2318.0</ele>
        <time>2013-07-03T16:13:49Z</time>
      </trkpt>
      <trkpt lat="39.676783" lon="-4.266067">
        <ele>2318.0</ele>
        <time>2013-07-03T16:13:50Z</time>
      </trkpt>
      <trkpt lat="39.676783" lon="-4.266133">
        <ele>2319.0</ele>
        <time>2013-07-03T16:13:51Z</time>
      </trkpt>
      <trkpt lat="39.676783" lon="-4.266233">
        <ele>2319.0</ele>
        <time>2013-07-03T16:13:52Z</time>
      </trkpt>
      <trkpt lat="39.676767" lon="-4.266317">
        <ele>2320.0</ele>
        <time>2013-07-03T16:13:53Z</time>
      </trkpt>
      <trkpt lat="39.676750" lon="-4.266417">
        <ele>2321.0</ele>
        <time>2013-07-03T16:13:54Z</time>
      </trkpt>
      <trkpt lat="39.676750" lon="-4.266500">
        <ele>2323.0</ele>
        <time>2013-07-03T16:13:55Z</time>
      </trkpt>
      <trkpt lat="39.676733" lon="-4.266583">
        <ele>2325.0</ele>
        <time>2013-07-03T16:13:56Z</time>
      </trkpt>
      <trkpt lat="39.676717" lon="-4.266650">
        <ele>2327.0</ele>
        <time>2013-07-03T16:13:57Z</time>
      </trkpt>
      <trkpt lat="39.676700" lon="-4.266750">
        <ele>2328.0</ele>
        <time>2013-07-03T16:13:58Z</time>
      </trkpt>
      <trkpt lat="39.676683" lon="-4.266833">
        <ele>2331.0</ele>
        <time>2013-07-03T16:13:59Z</time>
      </trkpt>
      <trkpt lat="39.676667" lon="-4.266933">
        <ele>2333.0</ele>
        <time>2013-07-03T16:14:00Z</time>
      </trkpt>
      <trkpt lat="39.676650" lon="-4.267017">
        <ele>2335.0</ele>
        <time>2013-07-03T16:14:01Z</time>
      </trkpt>
      <trkpt lat="39.676650" lon="-4.267083">
        <ele>2338.0</ele>
        <time>2013-07-03T16:14:02Z</time>
      </trkpt>
      <trkpt lat="39.676650" lon="-4.267150">
        <ele>2340.0</ele>
        <time>2013-07-03T16:14:03Z</time>
      </trkpt>
      <trkpt lat="39.676633" lon="-4.267233">
        <ele>2342.0</ele>
        <time>2013-07-03T16:14:04Z</time>
      </trkpt>
      <trkpt lat="39.676617" lon="-4.267317">
        <ele>2343.0</ele>
        <time>2013-07-03T16:14:05Z</time>
      </trkpt>
      <trkpt lat="39.676583" lon="-4.267400">
        <ele>2346.0</ele>
        <time>2013-07-03T16:14:06Z</time>
      </trkpt>
      <trkpt lat="39.676550" lon="-4.267483">
        <ele>2349.0</ele>
        <time>2013-07-03T16:14:07Z</time>
      </trkpt>
      <trkpt lat="39.676500" lon="-4.267533">
        <ele>2352.0</ele>
        <time>2013-07-03T16:14:08Z</time>
      </trkpt>
      <trkpt lat="39.676450" lon="-4.267583">
        <ele>2354.0</ele>
        <time>2013-07-03T16:14:09Z</time>
      </trkpt>
      <trkpt lat="39.676383" lon="-4.267633">
        <ele>2356.0</ele>
        <time>2013-07-03T16:14:10Z</time>
      </trkpt>
      <trkpt lat="39.676300" lon="-4.267667">
        <ele>2357.0</ele>
        <time>2013-07-03T16:14:11Z</time>
      </trkpt>
      <trkpt lat="39.676217" lon="-4.267700">
        <ele>2357.0</ele>
        <time>2013-07-03T16:14:12Z</time>
      </trkpt>
      <trkpt lat="39.676133" lon="-4.267717">
        <ele>2359.0</ele>
        <time>2013-07-03T16:14:13Z</time>
      </trkpt>
      <trkpt lat="39.676050" lon="-4.267700">
        <ele>2360.0</ele>
        <time>2013-07-03T16:14:14Z</time>
      </trkpt>
      <trkpt lat="39.675967" lon="-4.267667">
        <ele>2361.0</ele>
        <time>2013-07-03T16:14:15Z</time>
      </trkpt>
      <trkpt lat="39.675900" lon="-4.267600">
        <ele>2362.0</ele>
        <time>2013-07-03T16:14:16Z</time>
      </trkpt>
      <trkpt lat="39.675833" lon="-4.267533">
        <ele>2363.0</ele>
        <time>2013-07-03T16:14:17Z</time>
      </trkpt>
      <trkpt lat="39.675800" lon="-4.267450">
        <ele>2364.0</ele>
        <time>2013-07-03T16:14:18Z</time>
      </trkpt>
      <trkpt lat="39.675750" lon="-4.267367">
        <ele>2364.0</ele>
        <time>2013-07-03T16:14:19Z</time>
      </trkpt>
      <trkpt lat="39.675700" lon="-4.267300">
        <ele>2364.0</ele>
        <time>2013-07-03T16:14:20Z</time>
      </trkpt>
      <trkpt lat="39.675700" lon="-4.267217">
        <ele>2364.0</ele>
        <time>2013-07-03T16:14:21Z</time>
      </trkpt>
      <trkpt lat="39.675717" lon="-4.267117">
        <ele>2365.0</ele>
        <time>2013-07-03T16:14:22Z</time>
      </trkpt>
      <trkpt lat="39.675733" lon="-4.267033">
        <ele>2366.0</ele>
        <time>2013-07-03T16:14:23Z</time>
      </trkpt>
      <trkpt lat="39.675767" lon="-4.266933">
        <ele>2368.0</ele>
        <time>2013-07-03T16:14:24Z</time>
      </trkpt>
      <trkpt lat="39.675817" lon="-4.266833">
        <ele>2370.0</ele>
        <time>2013-07-03T16:14:25Z</time>
      </trkpt>
      <trkpt lat="39.675850" lon="-4.266750">
        <ele>2372.0</ele>
        <time>2013-07-03T16:14:26Z</time>
      </trkpt>
      <trkpt lat="39.675900" lon="-4.266683">
        <ele>2374.0</ele>
        <time>2013-07-03T16:14:27Z</time>
      </trkpt>
      <trkpt lat="39.675950" lon="-4.266633">
        <ele>2376.0</ele>
        <time>2013-07-03T16:14:28Z</time>
      </trkpt>
      <trkpt lat="39.676017" lon="-4.266617">
        <ele>2378.0</ele>
        <time>2013-07-03T16:14:29Z</time>
      </trkpt>
      <trkpt lat="39.676083" lon="-4.266600">
        <ele>2379.0</ele>
        <time>2013-07-03T16:14:30Z</time>
      </trkpt>
      <trkpt lat="39.676150" lon="-4.266617">
        <ele>2381.0</ele>
        <time>2013-07-03T16:14:31Z</time>
      </trkpt>
      <trkpt lat="39.676200" lon="-4.266650">
        <ele>2383.0</ele>
        <time>2013-07-03T16:14:32Z</time>
      </trkpt>
      <trkpt lat="39.676233" lon="-4.266700">
        <ele>2385.0</ele>
        <time>2013-07-03T16:14:33Z</time>
      </trkpt>
      <trkpt lat="39.676250" lon="-4.266767">
        <ele>2386.0</ele>
        <time>2013-07-03T16:14:34Z</time>
      </trkpt>
      <trkpt lat="39.676267" lon="-4.266850">
        <ele>2387.0</ele>
        <time>2013-07-03T16:14:35Z</time>
      </trkpt>
      <trkpt lat="39.676250" lon="-4.266933">
        <ele>2389.0</ele>
        <time>2013-07-03T16:14:36Z</time>
      </trkpt>
      <trkpt lat="39.676233" lon="-4.267017">
        <ele>2391.0</ele>
        <time>2013-07-03T16:14:37Z</time>
      </trkpt>
      <trkpt lat="39.676183" lon="-4.267083">
        <ele>2393.0</ele>
        <time>2013-07-03T16:14:38Z</time>
      </trkpt>
      <trkpt lat="39.676117" lon="-4.267133">
        <ele>2396.0</ele>
        <time>2013-07-03T16:14:39Z</time>
      </trkpt>
      <trkpt lat="39.676050" lon="-4.267167">
        <ele>2399.0</ele>
        <time>2013-07-03T16:14:40Z</time>
      </trkpt>
      <trkpt lat="39.675983" lon="-4.267200">
        <ele>2401.0</ele>
        <time>2013-07-03T16:14:41Z</time>
      </trkpt>
      <trkpt lat="39.675900" lon="-4.267233">
        <ele>2402.0</ele>
        <time>2013-07-03T16:14:42Z</time>
      </trkpt>
      <trkpt lat="39.675817" lon="-4.267250">
        <ele>2403.0</ele>
        <time>2013-07-03T16:14:43Z</time>
      </trkpt>
      <trkpt lat="39.675733" lon="-4.267233">
        <ele>2405.0</ele>
        <time>2013-07-03T16:14:44Z</time>
      </trkpt>
      <trkpt lat="39.675633" lon="-4.267200">
        <ele>2407.0</ele>
        <time>2013-07-03T16:14:45Z</time>
      </trkpt>
      <trkpt lat="39.675550" lon="-4.267150">
        <ele>2409.0</ele>
        <time>2013-07-03T16:14:46Z</time>
      </trkpt>
      <trkpt lat="39.675483" lon="-4.267083">
        <ele>2413.0</ele>
        <time>2013-07-03T16:14:47Z</time>
      </trkpt>
      <trkpt lat="39.675417" lon="-4.267033">
        <ele>2417.0</ele>
        <time>2013-07-03T16:14:48Z</time>
      </trkpt>
      <trkpt lat="39.675367" lon="-4.266967">
        <ele>2420.0</ele>
        <time>2013-07-03T16:14:49Z</time>
      </trkpt>
      <trkpt lat="39.675333" lon="-4.266883">
        <ele>2422.0</ele>
        <time>2013-07-03T16:14:50Z</time>
      </trkpt>
      <trkpt lat="39.675300" lon="-4.266800">
        <ele>2424.0</ele>
        <time>2013-07-03T16:14:51Z</time>
      </trkpt>
      <trkpt lat="39.675283" lon="-4.266683">
        <ele>2424.0</ele>
        <time>2013-07-03T16:14:52Z</time>
      </trkpt>
      <trkpt lat="39.675267" lon="-4.266567">
        <ele>2425.0</ele>
        <time>2013-07-03T16:14:53Z</time>
      </trkpt>
      <trkpt lat="39.675267" lon="-4.266467">
        <ele>2427.0</ele>
        <time>2013-07-03T16:14:54Z</time>
      </trkpt>
      <trkpt lat="39.675300" lon="-4.266367">
        <ele>2429.0</ele>
        <time>2013-07-03T16:14:55Z</time>
      </trkpt>
      <trkpt lat="39.675333" lon="-4.266283">
        <ele>2430.0</ele>
        <time>2013-07-03T16:14:56Z</time>
      </trkpt>
      <trkpt lat="39.675383" lon="-4.266217">
        <ele>2431.0</ele>
        <time>2013-07-03T16:14:57Z</time>
      </trkpt>
      <trkpt lat="39.675417" lon="-4.266150">
        <ele>2433.0</ele>
        <time>2013-07-03T16:14:58Z</time>
      </trkpt>
      <trkpt lat="39.675483" lon="-4.266117">
        <ele>2434.0</ele>
        <time>2013-07-03T16:14:59Z</time>
      </trkpt>
      <trkpt lat="39.675533" lon="-4.266117">
        <ele>2435.0</ele>
        <time>2013-07-03T16:15:00Z</time>
      </trkpt>
      <trkpt lat="39.675600" lon="-4.266150">
        <ele>2435.0</ele>
        <time>2013-07-03T16:15:01Z</time>
      </trkpt>
      <trkpt lat="39.675667" lon="-4.266200">
        <ele>2436.0</ele>
        <time>2013-07-03T16:15:02Z</time>
      </trkpt>
      <trkpt lat="39.675700" lon="-4.266250">
        <ele>2438.0</ele>
        <time>2013-07-03T16:15:03Z</time>
      </trkpt>
      <trkpt lat="39.675733" lon="-4.266317">
        <ele>2440.0</ele>
        <time>2013-07-03T16:15:04Z</time>
      </trkpt>
      <trkpt lat="39.675733" lon="-4.266383">
        <ele>2442.0</ele>
        <time>2013-07-03T16:15:05Z</time>
      </trkpt>
      <trkpt lat="39.675717" lon="-4.266450">
        <ele>2443.0</ele>
        <time>2013-07-03T16:15:06Z</time>
      </trkpt>
      <trkpt lat="39.675683" lon="-4.266533">
        <ele>2445.0</ele>
        <time>2013-07-03T16:15:07Z</time>
      </trkpt>
      <trkpt lat="39.675633" lon="-4.266600">
        <ele>2447.0</ele>
        <time>2013-07-03T16:15:08Z</time>
      </trkpt>
      <trkpt lat="39.675583" lon="-4.266650">
        <ele>2449.0</ele>
        <time>2013-07-03T16:15:09Z</time>
      </trkpt>
      <trkpt lat="39.675500" lon="-4.266683">
        <ele>2451.0</ele>
        <time>2013-07-03T16:15:10Z</time>
      </trkpt>
      <trkpt lat="39.675417" lon="-4.266700">
        <ele>2453.0</ele>
        <time>2013-07-03T16:15:11Z</time>
      </trkpt>
      <trkpt lat="39.675317" lon="-4.266683">
        <ele>2456.0</ele>
        <time>2013-07-03T16:15:12Z</time>
      </trkpt>
      <trkpt lat="39.675233" lon="-4.266667">
        <ele>2459.0</ele>
        <time>2013-07-03T16:15:13Z</time>
      </trkpt>
      <trkpt lat="39.675150" lon="-4.266633">
        <ele>2462.0</ele>
        <time>2013-07-03T16:15:14Z</time>
      </trkpt>
      <trkpt lat="39.675083" lon="-4.266600">
        <ele>2464.0</ele>
        <time>2013-07-03T16:15:15Z</time>
      </trkpt>
      <trkpt lat="39.675000" lon="-4.266583">
        <ele>2465.0</ele>
        <time>2013-07-03T16:15:16Z</time>
      </trkpt>
      <trkpt lat="39.674917" lon="-4.266533">
        <ele>2465.0</ele>
        <time>2013-07-03T16:15:17Z</time>
      </trkpt>
      <trkpt lat="39.674850" lon="-4.266467">
        <ele>2467.0</ele>
        <time>2013-07-03T16:15:18Z</time>
      </trkpt>
      <trkpt lat="39.674783" lon="-4.266400">
        <ele>2468.0</ele>
        <time>2013-07-03T16:15:19Z</time>
      </trkpt>
      <trkpt lat="39.674750" lon="-4.266300">
        <ele>2469.0</ele>
        <time>2013-07-03T16:15:20Z</time>
      </trkpt>
      <trkpt lat="39.674733" lon="-4.266200">
        <ele>2470.0</ele>
        <time>2013-07-03T16:15:21Z</time>
      </trkpt>
      <trkpt lat="39.674717" lon="-4.266100">
        <ele>2471.0</ele>
        <time>2013-07-03T16:15:22Z</time>
      </trkpt>
      <trkpt lat="39.674717" lon="-4.265983">
        <ele>2473.0</ele>
        <time>2013-07-03T16:15:23Z</time>
      </trkpt>
      <trkpt lat="39.674733" lon="-4.265883">
        <ele>2475.0</ele>
        <time>2013-07-03T16:15:24Z</time>
      </trkpt>
      <trkpt lat="39.674767" lon="-4.265817">
        <ele>2476.0</ele>
        <time>2013-07-03T16:15:25Z</time>
      </trkpt>
      <trkpt lat="39.674817" lon="-4.265767">
        <ele>2478.0</ele>
        <time>2013-07-03T16:15:26Z</time>
      </trkpt>
      <trkpt lat="39.674867" lon="-4.265750">
        <ele>2479.0</ele>
        <time>2013-07-03T16:15:27Z</time>
      </trkpt>
      <trkpt lat="39.674917" lon="-4.265750">
        <ele>2481.0</ele>
        <time>2013-07-03T16:15:28Z</time>
      </trkpt>
      <trkpt lat="39.674967" lon="-4.265783">
        <ele>2482.0</ele>
        <time>2013-07-03T16:15:29Z</time>
      </trkpt>
      <trkpt lat="39.674983" lon="-4.265850">
        <ele>2483.0</ele>
        <time>2013-07-03T16:15:30Z</time>
      </trkpt>
      <trkpt lat="39.675000" lon="-4.265933">
        <ele>2485.0</ele>
        <time>2013-07-03T16:15:31Z</time>
      </trkpt>
      <trkpt lat="39.674983" lon="-4.266017">
        <ele>2487.0</ele>
        <time>2013-07-03T16:15:32Z</time>
      </trkpt>
      <trkpt lat="39.674950" lon="-4.266083">
        <ele>2488.0</ele>
        <time>2013-07-03T16:15:33Z</time>
      </trkpt>
      <trkpt lat="39.674883" lon="-4.266150">
        <ele>2490.0</ele>
        <time>2013-07-03T16:15:34Z</time>
      </trkpt>
      <trkpt lat="39.674800" lon="-4.266200">
        <ele>2491.0</ele>
        <time>2013-07-03T16:15:35Z</time>
      </trkpt>
      <trkpt lat="39.674700" lon="-4.266217">
        <ele>2493.0</ele>
        <time>2013-07-03T16:15:36Z</time>
      </trkpt>
      <trkpt lat="39.674617" lon="-4.266233">
        <ele>2494.0</ele>
        <time>2013-07-03T16:15:37Z</time>
      </trkpt>
      <trkpt lat="39.674517" lon="-4.266250">
        <ele>2495.0</ele>
        <time>2013-07-03T16:15:38Z</time>
      </trkpt>
      <trkpt lat="39.674433" lon="-4.266250">
        <ele>2496.0</ele>
        <time>2013-07-03T16:15:39Z</time>
      </trkpt>
      <trkpt lat="39.674350" lon="-4.266250">
        <ele>2498.0</ele>
        <time>2013-07-03T16:15:40Z</time>
      </trkpt>
      <trkpt lat="39.674267" lon="-4.266233">
        <ele>2499.0</ele>
        <time>2013-07-03T16:15:41Z</time>
      </trkpt>
      <trkpt lat="39.674167" lon="-4.266200">
        <ele>2500.0</ele>
        <time>2013-07-03T16:15:42Z</time>
      </trkpt>
      <trkpt lat="39.674083" lon="-4.266167">
        <ele>2500.0</ele>
        <time>2013-07-03T16:15:43Z</time>
      </trkpt>
      <trkpt lat="39.674000" lon="-4.266133">
        <ele>2501.0</ele>
        <time>2013-07-03T16:15:44Z</time>
      </trkpt>
      <trkpt lat="39.673917" lon="-4.266117">
        <ele>2501.0</ele>
        <time>2013-07-03T16:15:45Z</time>
      </trkpt>
      <trkpt lat="39.673833" lon="-4.266067">
        <ele>2501.0</ele>
        <time>2013-07-03T16:15:46Z</time>
      </trkpt>
      <trkpt lat="39.673750" lon="-4.266017">
        <ele>2502.0</ele>
        <time>2013-07-03T16:15:47Z</time>
      </trkpt>
      <trkpt lat="39.673667" lon="-4.265950">
        <ele>2502.0</ele>
        <time>2013-07-03T16:15:48Z</time>
      </trkpt>
      <trkpt lat="39.673600" lon="-4.265867">
        <ele>2501.0</ele>
        <time>2013-07-03T16:15:49Z</time>
      </trkpt>
      <trkpt lat="39.673550" lon="-4.265767">
        <ele>2501.0</ele>
        <time>2013-07-03T16:15:50Z</time>
      </trkpt>
      <trkpt lat="39.673500" lon="-4.265667">
        <ele>2501.0</ele>
        <time>2013-07-03T16:15:51Z</time>
      </trkpt>
      <trkpt lat="39.673467" lon="-4.265550">
        <ele>2500.0</ele>
        <time>2013-07-03T16:15:52Z</time>
      </trkpt>
      <trkpt lat="39.673417" lon="-4.265433">
        <ele>2500.0</ele>
        <time>2013-07-03T16:15:53Z</time>
      </trkpt>
      <trkpt lat="39.673383" lon="-4.265300">
        <ele>2499.0</ele>
        <time>2013-07-03T16:15:54Z</time>
      </trkpt>
      <trkpt lat="39.673317" lon="-4.265183">
        <ele>2499.0</ele>
        <time>2013-07-03T16:15:55Z</time>
      </trkpt>
      <trkpt lat="39.673250" lon="-4.265050">
        <ele>2499.0</ele>
        <time>2013-07-03T16:15:56Z</time>
      </trkpt>
      <trkpt lat="39.673167" lon="-4.264950">
        <ele>2499.0</ele>
        <time>2013-07-03T16:15:57Z</time>
      </trkpt>
      <trkpt lat="39.673083" lon="-4.264850">
        <ele>2500.0</ele>
        <time>2013-07-03T16:15:58Z</time>
      </trkpt>
      <trkpt lat="39.672983" lon="-4.264783">
        <ele>2501.0</ele>
        <time>2013-07-03T16:15:59Z</time>
      </trkpt>
      <trkpt lat="39.672883" lon="-4.264700">
        <ele>2501.0</ele>
        <time>2013-07-03T16:16:00Z</time>
      </trkpt>
      <trkpt lat="39.672800" lon="-4.264633">
        <ele>2501.0</ele>
        <time>2013-07-03T16:16:01Z</time>
      </trkpt>
      <trkpt lat="39.672700" lon="-4.264550">
        <ele>2501.0</ele>
        <time>2013-07-03T16:16:02Z</time>
      </trkpt>
      <trkpt lat="39.672600" lon="-4.264467">
        <ele>2502.0</ele>
        <time>2013-07-03T16:16:03Z</time>
      </trkpt>
      <trkpt lat="39.672500" lon="-4.264383">
        <ele>2503.0</ele>
        <time>2013-07-03T16:16:04Z</time>
      </trkpt>
      <trkpt lat="39.672400" lon="-4.264333">
        <ele>2503.0</ele>
        <time>2013-07-03T16:16:05Z</time>
      </trkpt>
      <trkpt lat="39.672283" lon="-4.264283">
        <ele>2504.0</ele>
        <time>2013-07-03T16:16:06Z</time>
      </trkpt>
      <trkpt lat="39.672167" lon="-4.264233">
        <ele>2506.0</ele>
        <time>2013-07-03T16:16:07Z</time>
      </trkpt>
      <trkpt lat="39.672050" lon="-4.264183">
        <ele>2507.0</ele>
        <time>2013-07-03T16:16:08Z</time>
      </trkpt>
      <trkpt lat="39.671950" lon="-4.264133">
        <ele>2509.0</ele>
        <time>2013-07-03T16:16:09Z</time>
      </trkpt>
      <trkpt lat="39.671833" lon="-4.264083">
        <ele>2510.0</ele>
        <time>2013-07-03T16:16:10Z</time>
      </trkpt>
      <trkpt lat="39.671717" lon="-4.264050">
        <ele>2512.0</ele>
        <time>2013-07-03T16:16:11Z</time>
      </trkpt>
      <trkpt lat="39.671600" lon="-4.264017">
        <ele>2514.0</ele>
        <time>2013-07-03T16:16:12Z</time>
      </trkpt>
      <trkpt lat="39.671500" lon="-4.264017">
        <ele>2516.0</ele>
        <time>2013-07-03T16:16:13Z</time>
      </trkpt>
      <trkpt lat="39.671383" lon="-4.264017">
        <ele>2518.0</ele>
        <time>2013-07-03T16:16:14Z</time>
      </trkpt>
      <trkpt lat="39.671283" lon="-4.264017">
        <ele>2519.0</ele>
        <time>2013-07-03T16:16:15Z</time>
      </trkpt>
      <trkpt lat="39.671183" lon="-4.264000">
        <ele>2520.0</ele>
        <time>2013-07-03T16:16:16Z</time>
      </trkpt>
      <trkpt lat="39.671083" lon="-4.263983">
        <ele>2521.0</ele>
        <time>2013-07-03T16:16:17Z</time>
      </trkpt>
      <trkpt lat="39.670983" lon="-4.263950">
        <ele>2522.0</ele>
        <time>2013-07-03T16:16:18Z</time>
      </trkpt>
      <trkpt lat="39.670883" lon="-4.263933">
        <ele>2522.0</ele>
        <time>2013-07-03T16:16:19Z</time>
      </trkpt>
      <trkpt lat="39.670767" lon="-4.263917">
        <ele>2523.0</ele>
        <time>2013-07-03T16:16:20Z</time>
      </trkpt>
      <trkpt lat="39.670667" lon="-4.263917">
        <ele>2523.0</ele>
        <time>2013-07-03T16:16:21Z</time>
      </trkpt>
      <trkpt lat="39.670550" lon="-4.263900">
        <ele>2524.0</ele>
        <time>2013-07-03T16:16:22Z</time>
      </trkpt>
      <trkpt lat="39.670450" lon="-4.263883">
        <ele>2525.0</ele>
        <time>2013-07-03T16:16:23Z</time>
      </trkpt>
      <trkpt lat="39.670333" lon="-4.263867">
        <ele>2526.0</ele>
        <time>2013-07-03T16:16:24Z</time>
      </trkpt>
      <trkpt lat="39.670233" lon="-4.263850">
        <ele>2526.0</ele>
        <time>2013-07-03T16:16:25Z</time>
      </trkpt>
      <trkpt lat="39.670133" lon="-4.263850">
        <ele>2527.0</ele>
        <time>2013-07-03T16:16:26Z</time>
      </trkpt>
      <trkpt lat="39.670033" lon="-4.263867">
        <ele>2527.0</ele>
        <time>2013-07-03T16:16:27Z</time>
      </trkpt>
      <trkpt lat="39.669933" lon="-4.263850">
        <ele>2527.0</ele>
        <time>2013-07-03T16:16:28Z</time>
      </trkpt>
      <trkpt lat="39.669833" lon="-4.263833">
        <ele>2527.0</ele>
        <time>2013-07-03T16:16:29Z</time>
      </trkpt>
      <trkpt lat="39.669733" lon="-4.263800">
        <ele>2526.0</ele>
        <time>2013-07-03T16:16:30Z</time>
      </trkpt>
      <trkpt lat="39.669633" lon="-4.263750">
        <ele>2525.0</ele>
        <time>2013-07-03T16:16:31Z</time>
      </trkpt>
      <trkpt lat="39.669517" lon="-4.263700">
        <ele>2525.0</ele>
        <time>2013-07-03T16:16:32Z</time>
      </trkpt>
      <trkpt lat="39.669400" lon="-4.263667">
        <ele>2524.0</ele>
        <time>2013-07-03T16:16:33Z</time>
      </trkpt>
      <trkpt lat="39.669283" lon="-4.263617">
        <ele>2525.0</ele>
        <time>2013-07-03T16:16:34Z</time>
      </trkpt>
      <trkpt lat="39.669150" lon="-4.263583">
        <ele>2527.0</ele>
        <time>2013-07-03T16:16:35Z</time>
      </trkpt>
      <trkpt lat="39.669050" lon="-4.263567">
        <ele>2530.0</ele>
        <time>2013-07-03T16:16:36Z</time>
      </trkpt>
      <trkpt lat="39.668967" lon="-4.263533">
        <ele>2533.0</ele>
        <time>2013-07-03T16:16:37Z</time>
      </trkpt>
      <trkpt lat="39.668883" lon="-4.263533">
        <ele>2535.0</ele>
        <time>2013-07-03T16:16:38Z</time>
      </trkpt>
      <trkpt lat="39.668783" lon="-4.263517">
        <ele>2535.0</ele>
        <time>2013-07-03T16:16:39Z</time>
      </trkpt>
      <trkpt lat="39.668683" lon="-4.263533">
        <ele>2536.0</ele>
        <time>2013-07-03T16:16:40Z</time>
      </trkpt>
      <trkpt lat="39.668600" lon="-4.263517">
        <ele>2539.0</ele>
        <time>2013-07-03T16:16:41Z</time>
      </trkpt>
      <trkpt lat="39.668533" lon="-4.263483">
        <ele>2541.0</ele>
        <time>2013-07-03T16:16:42Z</time>
      </trkpt>
      <trkpt lat="39.668483" lon="-4.263417">
        <ele>2541.0</ele>
        <time>2013-07-03T16:16:43Z</time>
      </trkpt>
      <trkpt lat="39.668450" lon="-4.263317">
        <ele>2542.0</ele>
        <time>2013-07-03T16:16:44Z</time>
      </trkpt>
      <trkpt lat="39.668433" lon="-4.263200">
        <ele>2543.0</ele>
        <time>2013-07-03T16:16:45Z</time>
      </trkpt>
      <trkpt lat="39.668433" lon="-4.263100">
        <ele>2544.0</ele>
        <time>2013-07-03T16:16:46Z</time>
      </trkpt>
      <trkpt lat="39.668467" lon="-4.263033">
        <ele>2545.0</ele>
        <time>2013-07-03T16:16:47Z</time>
      </trkpt>
      <trkpt lat="39.668533" lon="-4.263000">
        <ele>2545.0</ele>
        <time>2013-07-03T16:16:48Z</time>
      </trkpt>
      <trkpt lat="39.668617" lon="-4.263017">
        <ele>2544.0</ele>
        <time>2013-07-03T16:16:49Z</time>
      </trkpt>
      <trkpt lat="39.668683" lon="-4.263083">
        <ele>2544.0</ele>
        <time>2013-07-03T16:16:50Z</time>
      </trkpt>
      <trkpt lat="39.668733" lon="-4.263167">
        <ele>2545.0</ele>
        <time>2013-07-03T16:16:51Z</time>
      </trkpt>
      <trkpt lat="39.668733" lon="-4.263283">
        <ele>2545.0</ele>
        <time>2013-07-03T16:16:52Z</time>
      </trkpt>
      <trkpt lat="39.668700" lon="-4.263400">
        <ele>2545.0</ele>
        <time>2013-07-03T16:16:53Z</time>
      </trkpt>
      <trkpt lat="39.668633" lon="-4.263500">
        <ele>2545.0</ele>
        <time>2013-07-03T16:16:54Z</time>
      </trkpt>
      <trkpt lat="39.668533" lon="-4.263567">
        <ele>2545.0</ele>
        <time>2013-07-03T16:16:55Z</time>
      </trkpt>
      <trkpt lat="39.668433" lon="-4.263617">
        <ele>2546.0</ele>
        <time>2013-07-03T16:16:56Z</time>
      </trkpt>
      <trkpt lat="39.668333" lon="-4.263650">
        <ele>2547.0</ele>
        <time>2013-07-03T16:16:57Z</time>
      </trkpt>
      <trkpt lat="39.668217" lon="-4.263683">
        <ele>2549.0</ele>
        <time>2013-07-03T16:16:58Z</time>
      </trkpt>
      <trkpt lat="39.668117" lon="-4.263717">
        <ele>2550.0</ele>
        <time>2013-07-03T16:16:59Z</time>
      </trkpt>
      <trkpt lat="39.668017" lon="-4.263733">
        <ele>2551.0</ele>
        <time>2013-07-03T16:17:00Z</time>
      </trkpt>
      <trkpt lat="39.667900" lon="-4.263750">
        <ele>2552.0</ele>
        <time>2013-07-03T16:17:01Z</time>
      </trkpt>
      <trkpt lat="39.667783" lon="-4.263767">
        <ele>2553.0</ele>
        <time>2013-07-03T16:17:02Z</time>
      </trkpt>
      <trkpt lat="39.667667" lon="-4.263783">
        <ele>2554.0</ele>
        <time>2013-07-03T16:17:03Z</time>
      </trkpt>
      <trkpt lat="39.667550" lon="-4.263783">
        <ele>2554.0</ele>
        <time>2013-07-03T16:17:04Z</time>
      </trkpt>
      <trkpt lat="39.667450" lon="-4.263800">
        <ele>2555.0</ele>
        <time>2013-07-03T16:17:05Z</time>
      </trkpt>
      <trkpt lat="39.667333" lon="-4.263800">
        <ele>2555.0</ele>
        <time>2013-07-03T16:17:06Z</time>
      </trkpt>
      <trkpt lat="39.667200" lon="-4.263817">
        <ele>2556.0</ele>
        <time>2013-07-03T16:17:07Z</time>
      </trkpt>
      <trkpt lat="39.667067" lon="-4.263833">
        <ele>2558.0</ele>
        <time>2013-07-03T16:17:08Z</time>
      </trkpt>
      <trkpt lat="39.666950" lon="-4.263833">
        <ele>2561.0</ele>
        <time>2013-07-03T16:17:09Z</time>
      </trkpt>
      <trkpt lat="39.666833" lon="-4.263817">
        <ele>2563.0</ele>
        <time>2013-07-03T16:17:10Z</time>
      </trkpt>
      <trkpt lat="39.666717" lon="-4.263817">
        <ele>2566.0</ele>
        <time>2013-07-03T16:17:11Z</time>
      </trkpt>
      <trkpt lat="39.666617" lon="-4.263783">
        <ele>2568.0</ele>
        <time>2013-07-03T16:17:12Z</time>
      </trkpt>
      <trkpt lat="39.666517" lon="-4.263767">
        <ele>2571.0</ele>
        <time>2013-07-03T16:17:13Z</time>
      </trkpt>
      <trkpt lat="39.666433" lon="-4.263750">
        <ele>2575.0</ele>
        <time>2013-07-03T16:17:14Z</time>
      </trkpt>
      <trkpt lat="39.666350" lon="-4.263733">
        <ele>2577.0</ele>
        <time>2013-07-03T16:17:15Z</time>
      </trkpt>
      <trkpt lat="39.666267" lon="-4.263717">
        <ele>2579.0</ele>
        <time>2013-07-03T16:17:16Z</time>
      </trkpt>
      <trkpt lat="39.666183" lon="-4.263700">
        <ele>2580.0</ele>
        <time>2013-07-03T16:17:17Z</time>
      </trkpt>
      <trkpt lat="39.666100" lon="-4.263683">
        <ele>2581.0</ele>
        <time>2013-07-03T16:17:18Z</time>
      </trkpt>
      <trkpt lat="39.666000" lon="-4.263633">
        <ele>2583.0</ele>
        <time>2013-07-03T16:17:19Z</time>
      </trkpt>
      <trkpt lat="39.665917" lon="-4.263600">
        <ele>2585.0</ele>
        <time>2013-07-03T16:17:20Z</time>
      </trkpt>
      <trkpt lat="39.665850" lon="-4.263533">
        <ele>2588.0</ele>
        <time>2013-07-03T16:17:21Z</time>
      </trkpt>
      <trkpt lat="39.665783" lon="-4.263467">
        <ele>2591.0</ele>
        <time>2013-07-03T16:17:22Z</time>
      </trkpt>
      <trkpt lat="39.665733" lon="-4.263383">
        <ele>2594.0</ele>
        <time>2013-07-03T16:17:23Z</time>
      </trkpt>
      <trkpt lat="39.665700" lon="-4.263283">
        <ele>2598.0</ele>
        <time>2013-07-03T16:17:24Z</time>
      </trkpt>
      <trkpt lat="39.665700" lon="-4.263183">
        <ele>2601.0</ele>
        <time>2013-07-03T16:17:25Z</time>
      </trkpt>
      <trkpt lat="39.665717" lon="-4.263100">
        <ele>2604.0</ele>
        <time>2013-07-03T16:17:26Z</time>
      </trkpt>
      <trkpt lat="39.665750" lon="-4.263017">
        <ele>2606.0</ele>
        <time>2013-07-03T16:17:27Z</time>
      </trkpt>
      <trkpt lat="39.665833" lon="-4.262967">
        <ele>2608.0</ele>
        <time>2013-07-03T16:17:28Z</time>
      </trkpt>
      <trkpt lat="39.665917" lon="-4.262967">
        <ele>2610.0</ele>
        <time>2013-07-03T16:17:29Z</time>
      </trkpt>
      <trkpt lat="39.666000" lon="-4.263033">
        <ele>2612.0</ele>
        <time>2013-07-03T16:17:30Z</time>
      </trkpt>
      <trkpt lat="39.666017" lon="-4.263150">
        <ele>2615.0</ele>
        <time>2013-07-03T16:17:31Z</time>
      </trkpt>
      <trkpt lat="39.665950" lon="-4.263250">
        <ele>2616.0</ele>
        <time>2013-07-03T16:17:32Z</time>
      </trkpt>
      <trkpt lat="39.665833" lon="-4.263317">
        <ele>2615.0</ele>
        <time>2013-07-03T16:17:33Z</time>
      </trkpt>
      <trkpt lat="39.665700" lon="-4.263300">
        <ele>2616.0</ele>
        <time>2013-07-03T16:17:34Z</time>
      </trkpt>
      <trkpt lat="39.665583" lon="-4.263267">
        <ele>2621.0</ele>
        <time>2013-07-03T16:17:35Z</time>
      </trkpt>
      <trkpt lat="39.665467" lon="-4.263233">
        <ele>2628.0</ele>
        <time>2013-07-03T16:17:36Z</time>
      </trkpt>
      <trkpt lat="39.665383" lon="-4.263233">
        <ele>2633.0</ele>
        <time>2013-07-03T16:17:37Z</time>
      </trkpt>
      <trkpt lat="39.665317" lon="-4.263233">
        <ele>2637.0</ele>
        <time>2013-07-03T16:17:38Z</time>
      </trkpt>
      <trkpt lat="39.665233" lon="-4.263250">
        <ele>2639.0</ele>
        <time>2013-07-03T16:17:39Z</time>
      </trkpt>
      <trkpt lat="39.665150" lon="-4.263250">
        <ele>2640.0</ele>
        <time>2013-07-03T16:17:40Z</time>
      </trkpt>
      <trkpt lat="39.665033" lon="-4.263250">
        <ele>2641.0</ele>
        <time>2013-07-03T16:17:41Z</time>
      </trkpt>
      <trkpt lat="39.664917" lon="-4.263250">
        <ele>2644.0</ele>
        <time>2013-07-03T16:17:42Z</time>
      </trkpt>
      <trkpt lat="39.664817" lon="-4.263283">
        <ele>2648.0</ele>
        <time>2013-07-03T16:17:43Z</time>
      </trkpt>
      <trkpt lat="39.664717" lon="-4.263333">
        <ele>2653.0</ele>
        <time>2013-07-03T16:17:44Z</time>
      </trkpt>
      <trkpt lat="39.664633" lon="-4.263367">
        <ele>2657.0</ele>
        <time>2013-07-03T16:17:45Z</time>
      </trkpt>
      <trkpt lat="39.664550" lon="-4.263367">
        <ele>2659.0</ele>
        <time>2013-07-03T16:17:46Z</time>
      </trkpt>
      <trkpt lat="39.664433" lon="-4.263383">
        <ele>2659.0</ele>
        <time>2013-07-03T16:17:47Z</time>
      </trkpt>
      <trkpt lat="39.664317" lon="-4.263383">
        <ele>2660.0</ele>
        <time>2013-07-03T16:17:48Z</time>
      </trkpt>
      <trkpt lat="39.664200" lon="-4.263383">
        <ele>2662.0</ele>
        <time>2013-07-03T16:17:49Z</time>
      </trkpt>
      <trkpt lat="39.664083" lon="-4.263400">
        <ele>2665.0</ele>
        <time>2013-07-03T16:17:50Z</time>
      </trkpt>
      <trkpt lat="39.663983" lon="-4.263400">
        <ele>2668.0</ele>
        <time>2013-07-03T16:17:51Z</time>
      </trkpt>
      <trkpt lat="39.663900" lon="-4.263383">
        <ele>2670.0</ele>
        <time>2013-07-03T16:17:52Z</time>
      </trkpt>
      <trkpt lat="39.663817" lon="-4.263367">
        <ele>2671.0</ele>
        <time>2013-07-03T16:17:53Z</time>
      </trkpt>
      <trkpt lat="39.663733" lon="-4.263317">
        <ele>2671.0</ele>
        <time>2013-07-03T16:17:54Z</time>
      </trkpt>
      <trkpt lat="39.663650" lon="-4.263283">
        <ele>2670.0</ele>
        <time>2013-07-03T16:17:55Z</time>
      </trkpt>
      <trkpt lat="39.663533" lon="-4.263250">
        <ele>2669.0</ele>
        <time>2013-07-03T16:17:56Z</time>
      </trkpt>
      <trkpt lat="39.663433" lon="-4.263217">
        <ele>2668.0</ele>
        <time>2013-07-03T16:17:57Z</time>
      </trkpt>
      <trkpt lat="39.663317" lon="-4.263200">
        <ele>2669.0</ele>
        <time>2013-07-03T16:17:58Z</time>
      </trkpt>
      <trkpt lat="39.663233" lon="-4.263167">
        <ele>2671.0</ele>
        <time>2013-07-03T16:17:59Z</time>
      </trkpt>
      <trkpt lat="39.663133" lon="-4.263133">
        <ele>2671.0</ele>
        <time>2013-07-03T16:18:00Z</time>
      </trkpt>
      <trkpt lat="39.663033" lon="-4.263100">
        <ele>2672.0</ele>
        <time>2013-07-03T16:18:01Z</time>
      </trkpt>
      <trkpt lat="39.662933" lon="-4.263083">
        <ele>2672.0</ele>
        <time>2013-07-03T16:18:02Z</time>
      </trkpt>
      <trkpt lat="39.662833" lon="-4.263050">
        <ele>2672.0</ele>
        <time>2013-07-03T16:18:03Z</time>
      </trkpt>
      <trkpt lat="39.662717" lon="-4.263017">
        <ele>2672.0</ele>
        <time>2013-07-03T16:18:04Z</time>
      </trkpt>
      <trkpt lat="39.662617" lon="-4.262983">
        <ele>2673.0</ele>
        <time>2013-07-03T16:18:05Z</time>
      </trkpt>
      <trkpt lat="39.662517" lon="-4.262950">
        <ele>2674.0</ele>
        <time>2013-07-03T16:18:06Z</time>
      </trkpt>
      <trkpt lat="39.662417" lon="-4.262917">
        <ele>2675.0</ele>
        <time>2013-07-03T16:18:07Z</time>
      </trkpt>
      <trkpt lat="39.662317" lon="-4.262883">
        <ele>2677.0</ele>
        <time>2013-07-03T16:18:08Z</time>
      </trkpt>
      <trkpt lat="39.662233" lon="-4.262850">
        <ele>2679.0</ele>
        <time>2013-07-03T16:18:09Z</time>
      </trkpt>
      <trkpt lat="39.662150" lon="-4.262833">
        <ele>2680.0</ele>
        <time>2013-07-03T16:18:10Z</time>
      </trkpt>
      <trkpt lat="39.662067" lon="-4.262800">
        <ele>2680.0</ele>
        <time>2013-07-03T16:18:11Z</time>
      </trkpt>
      <trkpt lat="39.661967" lon="-4.262767">
        <ele>2680.0</ele>
        <time>2013-07-03T16:18:12Z</time>
      </trkpt>
      <trkpt lat="39.661867" lon="-4.262717">
        <ele>2680.0</ele>
        <time>2013-07-03T16:18:13Z</time>
      </trkpt>
      <trkpt lat="39.661767" lon="-4.262650">
        <ele>2681.0</ele>
        <time>2013-07-03T16:18:14Z</time>
      </trkpt>
      <trkpt lat="39.661683" lon="-4.262567">
        <ele>2683.0</ele>
        <time>2013-07-03T16:18:15Z</time>
      </trkpt>
      <trkpt lat="39.661600" lon="-4.262500">
        <ele>2684.0</ele>
        <time>2013-07-03T16:18:16Z</time>
      </trkpt>
      <trkpt lat="39.661533" lon="-4.262417">
        <ele>2685.0</ele>
        <time>2013-07-03T16:18:17Z</time>
      </trkpt>
      <trkpt lat="39.661483" lon="-4.262350">
        <ele>2685.0</ele>
        <time>2013-07-03T16:18:18Z</time>
      </trkpt>
      <trkpt lat="39.661433" lon="-4.262267">
        <ele>2685.0</ele>
        <time>2013-07-03T16:18:19Z</time>
      </trkpt>
      <trkpt lat="39.661383" lon="-4.262150">
        <ele>2684.0</ele>
        <time>2013-07-03T16:18:20Z</time>
      </trkpt>
      <trkpt lat="39.661317" lon="-4.262033">
        <ele>2684.0</ele>
        <time>2013-07-03T16:18:21Z</time>
      </trkpt>
      <trkpt lat="39.661250" lon="-4.261917">
        <ele>2684.0</ele>
        <time>2013-07-03T16:18:22Z</time>
      </trkpt>
      <trkpt lat="39.661200" lon="-4.261800">
        <ele>2685.0</ele>
        <time>2013-07-03T16:18:23Z</time>
      </trkpt>
      <trkpt lat="39.661133" lon="-4.261667">
        <ele>2685.0</ele>
        <time>2013-07-03T16:18:24Z</time>
      </trkpt>
      <trkpt lat="39.661083" lon="-4.261550">
        <ele>2684.0</ele>
        <time>2013-07-03T16:18:25Z</time>
      </trkpt>
      <trkpt lat="39.661017" lon="-4.261433">
        <ele>2683.0</ele>
        <time>2013-07-03T16:18:26Z</time>
      </trkpt>
      <trkpt lat="39.660933" lon="-4.261317">
        <ele>2681.0</ele>
        <time>2013-07-03T16:18:27Z</time>
      </trkpt>
      <trkpt lat="39.660850" lon="-4.261200">
        <ele>2680.0</ele>
        <time>2013-07-03T16:18:28Z</time>
      </trkpt>
      <trkpt lat="39.660750" lon="-4.261100">
        <ele>2679.0</ele>
        <time>2013-07-03T16:18:29Z</time>
      </trkpt>
      <trkpt lat="39.660650" lon="-4.261000">
        <ele>2678.0</ele>
        <time>2013-07-03T16:18:30Z</time>
      </trkpt>
      <trkpt lat="39.660550" lon="-4.260917">
        <ele>2676.0</ele>
        <time>2013-07-03T16:18:31Z</time>
      </trkpt>
      <trkpt lat="39.660433" lon="-4.260850">
        <ele>2675.0</ele>
        <time>2013-07-03T16:18:32Z</time>
      </trkpt>
      <trkpt lat="39.660317" lon="-4.260783">
        <ele>2674.0</ele>
        <time>2013-07-03T16:18:33Z</time>
      </trkpt>
      <trkpt lat="39.660217" lon="-4.260717">
        <ele>2673.0</ele>
        <time>2013-07-03T16:18:34Z</time>
      </trkpt>
      <trkpt lat="39.660100" lon="-4.260650">
        <ele>2671.0</ele>
        <time>2013-07-03T16:18:35Z</time>
      </trkpt>
      <trkpt lat="39.660000" lon="-4.260600">
        <ele>2669.0</ele>
        <time>2013-07-03T16:18:36Z</time>
      </trkpt>
      <trkpt lat="39.659883" lon="-4.260533">
        <ele>2667.0</ele>
        <time>2013-07-03T16:18:37Z</time>
      </trkpt>
      <trkpt lat="39.659767" lon="-4.260500">
        <ele>2666.0</ele>
        <time>2013-07-03T16:18:38Z</time>
      </trkpt>
      <trkpt lat="39.659650" lon="-4.260450">
        <ele>2665.0</ele>
        <time>2013-07-03T16:18:39Z</time>
      </trkpt>
      <trkpt lat="39.659550" lon="-4.260433">
        <ele>2663.0</ele>
        <time>2013-07-03T16:18:40Z</time>
      </trkpt>
      <trkpt lat="39.659450" lon="-4.260400">
        <ele>2660.0</ele>
        <time>2013-07-03T16:18:41Z</time>
      </trkpt>
      <trkpt lat="39.659350" lon="-4.260367">
        <ele>2656.0</ele>
        <time>2013-07-03T16:18:42Z</time>
      </trkpt>
      <trkpt lat="39.659233" lon="-4.260350">
        <ele>2652.0</ele>
        <time>2013-07-03T16:18:43Z</time>
      </trkpt>
      <trkpt lat="39.659100" lon="-4.260317">
        <ele>2649.0</ele>
        <time>2013-07-03T16:18:44Z</time>
      </trkpt>
      <trkpt lat="39.658983" lon="-4.260283">
        <ele>2648.0</ele>
        <time>2013-07-03T16:18:45Z</time>
      </trkpt>
      <trkpt lat="39.658867" lon="-4.260267">
        <ele>2647.0</ele>
        <time>2013-07-03T16:18:46Z</time>
      </trkpt>
      <trkpt lat="39.658767" lon="-4.260233">
        <ele>2646.0</ele>
        <time>2013-07-03T16:18:47Z</time>
      </trkpt>
      <trkpt lat="39.658667" lon="-4.260200">
        <ele>2644.0</ele>
        <time>2013-07-03T16:18:48Z</time>
      </trkpt>
      <trkpt lat="39.658567" lon="-4.260150">
        <ele>2641.0</ele>
        <time>2013-07-03T16:18:49Z</time>
      </trkpt>
      <trkpt lat="39.658433" lon="-4.260100">
        <ele>2636.0</ele>
        <time>2013-07-03T16:18:50Z</time>
      </trkpt>
      <trkpt lat="39.658300" lon="-4.260050">
        <ele>2633.0</ele>
        <time>2013-07-03T16:18:51Z</time>
      </trkpt>
      <trkpt lat="39.658167" lon="-4.260000">
        <ele>2633.0</ele>
        <time>2013-07-03T16:18:52Z</time>
      </trkpt>
      <trkpt lat="39.658050" lon="-4.259983">
        <ele>2633.0</ele>
        <time>2013-07-03T16:18:53Z</time>
      </trkpt>
      <trkpt lat="39.657950" lon="-4.259967">
        <ele>2633.0</ele>
        <time>2013-07-03T16:18:54Z</time>
      </trkpt>
      <trkpt lat="39.657833" lon="-4.259933">
        <ele>2632.0</ele>
        <time>2013-07-03T16:18:55Z</time>
      </trkpt>
      <trkpt lat="39.657733" lon="-4.259900">
        <ele>2629.0</ele>
        <time>2013-07-03T16:18:56Z</time>
      </trkpt>
      <trkpt lat="39.657600" lon="-4.259850">
        <ele>2626.0</ele>
        <time>2013-07-03T16:18:57Z</time>
      </trkpt>
      <trkpt lat="39.657483" lon="-4.259783">
        <ele>2625.0</ele>
        <time>2013-07-03T16:18:58Z</time>
      </trkpt>
      <trkpt lat="39.657350" lon="-4.259733">
        <ele>2625.0</ele>
        <time>2013-07-03T16:18:59Z</time>
      </trkpt>
      <trkpt lat="39.657250" lon="-4.259683">
        <ele>2625.0</ele>
        <time>2013-07-03T16:19:00Z</time>
      </trkpt>
      <trkpt lat="39.657150" lon="-4.259633">
        <ele>2626.0</ele>
        <time>2013-07-03T16:19:01Z</time>
      </trkpt>
      <trkpt lat="39.657067" lon="-4.259567">
        <ele>2625.0</ele>
        <time>2013-07-03T16:19:02Z</time>
      </trkpt>
      <trkpt lat="39.656967" lon="-4.259500">
        <ele>2624.0</ele>
        <time>2013-07-03T16:19:03Z</time>
      </trkpt>
      <trkpt lat="39.656850" lon="-4.259433">
        <ele>2622.0</ele>
        <time>2013-07-03T16:19:04Z</time>
      </trkpt>
      <trkpt lat="39.656733" lon="-4.259383">
        <ele>2621.0</ele>
        <time>2013-07-03T16:19:05Z</time>
      </trkpt>
      <trkpt lat="39.656617" lon="-4.259333">
        <ele>2621.0</ele>
        <time>2013-07-03T16:19:06Z</time>
      </trkpt>
      <trkpt lat="39.656500" lon="-4.259300">
        <ele>2621.0</ele>
        <time>2013-07-03T16:19:07Z</time>
      </trkpt>
      <trkpt lat="39.656400" lon="-4.259250">
        <ele>2621.0</ele>
        <time>2013-07-03T16:19:08Z</time>
      </trkpt>
      <trkpt lat="39.656300" lon="-4.259200">
        <ele>2620.0</ele>
        <time>2013-07-03T16:19:09Z</time>
      </trkpt>
      <trkpt lat="39.656183" lon="-4.259150">
        <ele>2619.0</ele>
        <time>2013-07-03T16:19:10Z</time>
      </trkpt>
      <trkpt lat="39.656067" lon="-4.259100">
        <ele>2618.0</ele>
        <time>2013-07-03T16:19:11Z</time>
      </trkpt>
      <trkpt lat="39.655967" lon="-4.259050">
        <ele>2617.0</ele>
        <time>2013-07-03T16:19:12Z</time>
      </trkpt>
      <trkpt lat="39.655850" lon="-4.259000">
        <ele>2616.0</ele>
        <time>2013-07-03T16:19:13Z</time>
      </trkpt>
      <trkpt lat="39.655750" lon="-4.258933">
        <ele>2615.0</ele>
        <time>2013-07-03T16:19:14Z</time>
      </trkpt>
      <trkpt lat="39.655650" lon="-4.258867">
        <ele>2614.0</ele>
        <time>2013-07-03T16:19:15Z</time>
      </trkpt>
      <trkpt lat="39.655550" lon="-4.258817">
        <ele>2613.0</ele>
        <time>2013-07-03T16:19:16Z</time>
      </trkpt>
      <trkpt lat="39.655433" lon="-4.258767">
        <ele>2611.0</ele>
        <time>2013-07-03T16:19:17Z</time>
      </trkpt>
      <trkpt lat="39.655333" lon="-4.258733">
        <ele>2610.0</ele>
        <time>2013-07-03T16:19:18Z</time>
      </trkpt>
      <trkpt lat="39.655200" lon="-4.258683">
        <ele>2608.0</ele>
        <time>2013-07-03T16:19:19Z</time>
      </trkpt>
      <trkpt lat="39.655083" lon="-4.258617">
        <ele>2607.0</ele>
        <time>2013-07-03T16:19:20Z</time>
      </trkpt>
      <trkpt lat="39.654967" lon="-4.258550">
        <ele>2607.0</ele>
        <time>2013-07-03T16:19:21Z</time>
      </trkpt>
      <trkpt lat="39.654833" lon="-4.258500">
        <ele>2608.0</ele>
        <time>2013-07-03T16:19:22Z</time>
      </trkpt>
      <trkpt lat="39.654717" lon="-4.258450">
        <ele>2609.0</ele>
        <time>2013-07-03T16:19:23Z</time>
      </trkpt>
      <trkpt lat="39.654600" lon="-4.258417">
        <ele>2609.0</ele>
        <time>2013-07-03T16:19:24Z</time>
      </trkpt>
      <trkpt lat="39.654483" lon="-4.258367">
        <ele>2609.0</ele>
        <time>2013-07-03T16:19:25Z</time>
      </trkpt>
      <trkpt lat="39.654367" lon="-4.258317">
        <ele>2608.0</ele>
        <time>2013-07-03T16:19:26Z</time>
      </trkpt>
      <trkpt lat="39.654233" lon="-4.258267">
        <ele>2608.0</ele>
        <time>2013-07-03T16:19:27Z</time>
      </trkpt>
      <trkpt lat="39.654117" lon="-4.258233">
        <ele>2608.0</ele>
        <time>2013-07-03T16:19:28Z</time>
      </trkpt>
      <trkpt lat="39.654000" lon="-4.258183">
        <ele>2609.0</ele>
        <time>2013-07-03T16:19:29Z</time>
      </trkpt>
      <trkpt lat="39.653900" lon="-4.258150">
        <ele>2609.0</ele>
        <time>2013-07-03T16:19:30Z</time>
      </trkpt>
      <trkpt lat="39.653783" lon="-4.258100">
        <ele>2609.0</ele>
        <time>2013-07-03T16:19:31Z</time>
      </trkpt>
      <trkpt lat="39.653667" lon="-4.258067">
        <ele>2609.0</ele>
        <time>2013-07-03T16:19:32Z</time>
      </trkpt>
      <trkpt lat="39.653533" lon="-4.258017">
        <ele>2609.0</ele>
        <time>2013-07-03T16:19:33Z</time>
      </trkpt>
      <trkpt lat="39.653417" lon="-4.257967">
        <ele>2610.0</ele>
        <time>2013-07-03T16:19:34Z</time>
      </trkpt>
      <trkpt lat="39.653300" lon="-4.257917">
        <ele>2610.0</ele>
        <time>2013-07-03T16:19:35Z</time>
      </trkpt>
      <trkpt lat="39.653183" lon="-4.257850">
        <ele>2611.0</ele>
        <time>2013-07-03T16:19:36Z</time>
      </trkpt>
      <trkpt lat="39.653083" lon="-4.257783">
        <ele>2611.0</ele>
        <time>2013-07-03T16:19:37Z</time>
      </trkpt>
      <trkpt lat="39.652967" lon="-4.257750">
        <ele>2610.0</ele>
        <time>2013-07-03T16:19:38Z</time>
      </trkpt>
      <trkpt lat="39.652833" lon="-4.257700">
        <ele>2609.0</ele>
        <time>2013-07-03T16:19:39Z</time>
      </trkpt>
      <trkpt lat="39.652717" lon="-4.257650">
        <ele>2608.0</ele>
        <time>2013-07-03T16:19:40Z</time>
      </trkpt>
      <trkpt lat="39.652600" lon="-4.257583">
        <ele>2607.0</ele>
        <time>2013-07-03T16:19:41Z</time>
      </trkpt>
      <trkpt lat="39.652483" lon="-4.257500">
        <ele>2607.0</ele>
        <time>2013-07-03T16:19:42Z</time>
      </trkpt>
      <trkpt lat="39.652383" lon="-4.257433">
        <ele>2607.0</ele>
        <time>2013-07-03T16:19:43Z</time>
      </trkpt>
      <trkpt lat="39.652267" lon="-4.257367">
        <ele>2606.0</ele>
        <time>2013-07-03T16:19:44Z</time>
      </trkpt>
      <trkpt lat="39.652133" lon="-4.257300">
        <ele>2603.0</ele>
        <time>2013-07-03T16:19:45Z</time>
      </trkpt>
      <trkpt lat="39.652017" lon="-4.257233">
        <ele>2600.0</ele>
        <time>2013-07-03T16:19:46Z</time>
      </trkpt>
      <trkpt lat="39.651883" lon="-4.257183">
        <ele>2598.0</ele>
        <time>2013-07-03T16:19:47Z</time>
      </trkpt>
      <trkpt lat="39.651767" lon="-4.257133">
        <ele>2597.0</ele>
        <time>2013-07-03T16:19:48Z</time>
      </trkpt>
      <trkpt lat="39.651633" lon="-4.257083">
        <ele>2595.0</ele>
        <time>2013-07-03T16:19:49Z</time>
      </trkpt>
      <trkpt lat="39.651517" lon="-4.257050">
        <ele>2592.0</ele>
        <time>2013-07-03T16:19:50Z</time>
      </trkpt>
      <trkpt lat="39.651383" lon="-4.257017">
        <ele>2588.0</ele>
        <time>2013-07-03T16:19:51Z</time>
      </trkpt>
      <trkpt lat="39.651250" lon="-4.256967">
        <ele>2585.0</ele>
        <time>2013-07-03T16:19:52Z</time>
      </trkpt>
      <trkpt lat="39.651117" lon="-4.256917">
        <ele>2582.0</ele>
        <time>2013-07-03T16:19:53Z</time>
      </trkpt>
      <trkpt lat="39.651000" lon="-4.256867">
        <ele>2579.0</ele>
        <time>2013-07-03T16:19:54Z</time>
      </trkpt>
      <trkpt lat="39.650867" lon="-4.256833">
        <ele>2576.0</ele>
        <time>2013-07-03T16:19:55Z</time>
      </trkpt>
      <trkpt lat="39.650733" lon="-4.256800">
        <ele>2573.0</ele>
        <time>2013-07-03T16:19:56Z</time>
      </trkpt>
      <trkpt lat="39.650600" lon="-4.256750">
        <ele>2570.0</ele>
        <time>2013-07-03T16:19:57Z</time>
      </trkpt>
      <trkpt lat="39.650467" lon="-4.256683">
        <ele>2567.0</ele>
        <time>2013-07-03T16:19:58Z</time>
      </trkpt>
      <trkpt lat="39.650333" lon="-4.256633">
        <ele>2565.0</ele>
        <time>2013-07-03T16:19:59Z</time>
      </trkpt>
      <trkpt lat="39.650217" lon="-4.256600">
        <ele>2563.0</ele>
        <time>2013-07-03T16:20:00Z</time>
      </trkpt>
      <trkpt lat="39.650083" lon="-4.256567">
        <ele>2560.0</ele>
        <time>2013-07-03T16:20:01Z</time>
      </trkpt>
      <trkpt lat="39.649967" lon="-4.256517">
        <ele>2557.0</ele>
        <time>2013-07-03T16:20:02Z</time>
      </trkpt>
      <trkpt lat="39.649833" lon="-4.256467">
        <ele>2554.0</ele>
        <time>2013-07-03T16:20:03Z</time>
      </trkpt>
      <trkpt lat="39.649717" lon="-4.256433">
        <ele>2551.0</ele>
        <time>2013-07-03T16:20:04Z</time>
      </trkpt>
      <trkpt lat="39.649583" lon="-4.256400">
        <ele>2548.0</ele>
        <time>2013-07-03T16:20:05Z</time>
      </trkpt>
      <trkpt lat="39.649467" lon="-4.256383">
        <ele>2546.0</ele>
        <time>2013-07-03T16:20:06Z</time>
      </trkpt>
      <trkpt lat="39.649333" lon="-4.256367">
        <ele>2544.0</ele>
        <time>2013-07-03T16:20:07Z</time>
      </trkpt>
      <trkpt lat="39.649217" lon="-4.256350">
        <ele>2541.0</ele>
        <time>2013-07-03T16:20:08Z</time>
      </trkpt>
      <trkpt lat="39.649083" lon="-4.256317">
        <ele>2538.0</ele>
        <time>2013-07-03T16:20:09Z</time>
      </trkpt>
      <trkpt lat="39.648933" lon="-4.256300">
        <ele>2536.0</ele>
        <time>2013-07-03T16:20:10Z</time>
      </trkpt>
      <trkpt lat="39.648800" lon="-4.256267">
        <ele>2533.0</ele>
        <time>2013-07-03T16:20:11Z</time>
      </trkpt>
      <trkpt lat="39.648667" lon="-4.256217">
        <ele>2531.0</ele>
        <time>2013-07-03T16:20:12Z</time>
      </trkpt>
      <trkpt lat="39.648550" lon="-4.256167">
        <ele>2529.0</ele>
        <time>2013-07-03T16:20:13Z</time>
      </trkpt>
      <trkpt lat="39.648417" lon="-4.256117">
        <ele>2527.0</ele>
        <time>2013-07-03T16:20:14Z</time>
      </trkpt>
      <trkpt lat="39.648300" lon="-4.256067">
        <ele>2524.0</ele>
        <time>2013-07-03T16:20:15Z</time>
      </trkpt>
      <trkpt lat="39.648150" lon="-4.256017">
        <ele>2521.0</ele>
        <time>2013-07-03T16:20:16Z</time>
      </trkpt>
      <trkpt lat="39.648017" lon="-4.255967">
        <ele>2518.0</ele>
        <time>2013-07-03T16:20:17Z</time>
      </trkpt>
      <trkpt lat="39.647867" lon="-4.255933">
        <ele>2516.0</ele>
        <time>2013-07-03T16:20:18Z</time>
      </trkpt>
      <trkpt lat="39.647733" lon="-4.255900">
        <ele>2514.0</ele>
        <time>2013-07-03T16:20:19Z</time>
      </trkpt>
      <trkpt lat="39.647583" lon="-4.255867">
        <ele>2513.0</ele>
        <time>2013-07-03T16:20:20Z</time>
      </trkpt>
      <trkpt lat="39.647467" lon="-4.255850">
        <ele>2512.0</ele>
        <time>2013-07-03T16:20:21Z</time>
      </trkpt>
      <trkpt lat="39.647350" lon="-4.255817">
        <ele>2511.0</ele>
        <time>2013-07-03T16:20:22Z</time>
      </trkpt>
      <trkpt lat="39.647233" lon="-4.255800">
        <ele>2510.0</ele>
        <time>2013-07-03T16:20:23Z</time>
      </trkpt>
      <trkpt lat="39.647100" lon="-4.255783">
        <ele>2509.0</ele>
        <time>2013-07-03T16:20:24Z</time>
      </trkpt>
      <trkpt lat="39.646967" lon="-4.255750">
        <ele>2506.0</ele>
        <time>2013-07-03T16:20:25Z</time>
      </trkpt>
      <trkpt lat="39.646833" lon="-4.255733">
        <ele>2504.0</ele>
        <time>2013-07-03T16:20:26Z</time>
      </trkpt>
      <trkpt lat="39.646700" lon="-4.255700">
        <ele>2502.0</ele>
        <time>2013-07-03T16:20:27Z</time>
      </trkpt>
      <trkpt lat="39.646567" lon="-4.255667">
        <ele>2501.0</ele>
        <time>2013-07-03T16:20:28Z</time>
      </trkpt>
      <trkpt lat="39.646433" lon="-4.255633">
        <ele>2500.0</ele>
        <time>2013-07-03T16:20:29Z</time>
      </trkpt>
      <trkpt lat="39.646317" lon="-4.255583">
        <ele>2498.0</ele>
        <time>2013-07-03T16:20:30Z</time>
      </trkpt>
      <trkpt lat="39.646200" lon="-4.255550">
        <ele>2496.0</ele>
        <time>2013-07-03T16:20:31Z</time>
      </trkpt>
      <trkpt lat="39.646067" lon="-4.255500">
        <ele>2494.0</ele>
        <time>2013-07-03T16:20:32Z</time>
      </trkpt>
      <trkpt lat="39.645950" lon="-4.255450">
        <ele>2492.0</ele>
        <time>2013-07-03T16:20:33Z</time>
      </trkpt>
      <trkpt lat="39.645833" lon="-4.255400">
        <ele>2490.0</ele>
        <time>2013-07-03T16:20:34Z</time>
      </trkpt>
      <trkpt lat="39.645717" lon="-4.255350">
        <ele>2488.0</ele>
        <time>2013-07-03T16:20:35Z</time>
      </trkpt>
      <trkpt lat="39.645600" lon="-4.255300">
        <ele>2486.0</ele>
        <time>2013-07-03T16:20:36Z</time>
      </trkpt>
      <trkpt lat="39.645483" lon="-4.255250">
        <ele>2484.0</ele>
        <time>2013-07-03T16:20:37Z</time>
      </trkpt>
      <trkpt lat="39.645367" lon="-4.255200">
        <ele>2480.0</ele>
        <time>2013-07-03T16:20:38Z</time>
      </trkpt>
      <trkpt lat="39.645250" lon="-4.255150">
        <ele>2477.0</ele>
        <time>2013-07-03T16:20:39Z</time>
      </trkpt>
      <trkpt lat="39.645117" lon="-4.255117">
        <ele>2474.0</ele>
        <time>2013-07-03T16:20:40Z</time>
      </trkpt>
      <trkpt lat="39.644983" lon="-4.255083">
        <ele>2471.0</ele>
        <time>2013-07-03T16:20:41Z</time>
      </trkpt>
      <trkpt lat="39.644850" lon="-4.255050">
        <ele>2469.0</ele>
        <time>2013-07-03T16:20:42Z</time>
      </trkpt>
      <trkpt lat="39.644717" lon="-4.255017">
        <ele>2468.0</ele>
        <time>2013-07-03T16:20:43Z</time>
      </trkpt>
      <trkpt lat="39.644600" lon="-4.254983">
        <ele>2466.0</ele>
        <time>2013-07-03T16:20:44Z</time>
      </trkpt>
      <trkpt lat="39.644483" lon="-4.254950">
        <ele>2464.0</ele>
        <time>2013-07-03T16:20:45Z</time>
      </trkpt>
      <trkpt lat="39.644367" lon="-4.254917">
        <ele>2462.0</ele>
        <time>2013-07-03T16:20:46Z</time>
      </trkpt>
      <trkpt lat="39.644233" lon="-4.254883">
        <ele>2459.0</ele>
        <time>2013-07-03T16:20:47Z</time>
      </trkpt>
      <trkpt lat="39.644083" lon="-4.254867">
        <ele>2457.0</ele>
        <time>2013-07-03T16:20:48Z</time>
      </trkpt>
      <trkpt lat="39.643933" lon="-4.254833">
        <ele>2458.0</ele>
        <time>2013-07-03T16:20:49Z</time>
      </trkpt>
      <trkpt lat="39.643833" lon="-4.254800">
        <ele>2461.0</ele>
        <time>2013-07-03T16:20:50Z</time>
      </trkpt>
      <trkpt lat="39.643733" lon="-4.254750">
        <ele>2463.0</ele>
        <time>2013-07-03T16:20:51Z</time>
      </trkpt>
      <trkpt lat="39.643650" lon="-4.254700">
        <ele>2464.0</ele>
        <time>2013-07-03T16:20:52Z</time>
      </trkpt>
      <trkpt lat="39.643550" lon="-4.254633">
        <ele>2464.0</ele>
        <time>2013-07-03T16:20:53Z</time>
      </trkpt>
      <trkpt lat="39.643450" lon="-4.254600">
        <ele>2463.0</ele>
        <time>2013-07-03T16:20:54Z</time>
      </trkpt>
      <trkpt lat="39.643333" lon="-4.254550">
        <ele>2462.0</ele>
        <time>2013-07-03T16:20:55Z</time>
      </trkpt>
      <trkpt lat="39.643217" lon="-4.254500">
        <ele>2462.0</ele>
        <time>2013-07-03T16:20:56Z</time>
      </trkpt>
      <trkpt lat="39.643117" lon="-4.254450">
        <ele>2462.0</ele>
        <time>2013-07-03T16:20:57Z</time>
      </trkpt>
      <trkpt lat="39.643017" lon="-4.254400">
        <ele>2462.0</ele>
        <time>2013-07-03T16:20:58Z</time>
      </trkpt>
      <trkpt lat="39.642900" lon="-4.254333">
        <ele>2461.0</ele>
        <time>2013-07-03T16:20:59Z</time>
      </trkpt>
      <trkpt lat="39.642800" lon="-4.254283">
        <ele>2460.0</ele>
        <time>2013-07-03T16:21:00Z</time>
      </trkpt>
      <trkpt lat="39.642683" lon="-4.254233">
        <ele>2460.0</ele>
        <time>2013-07-03T16:21:01Z</time>
      </trkpt>
      <trkpt lat="39.642550" lon="-4.254183">
        <ele>2460.0</ele>
        <time>2013-07-03T16:21:02Z</time>
      </trkpt>
      <trkpt lat="39.642433" lon="-4.254150">
        <ele>2461.0</ele>
        <time>2013-07-03T16:21:03Z</time>
      </trkpt>
      <trkpt lat="39.642300" lon="-4.254133">
        <ele>2462.0</ele>
        <time>2013-07-03T16:21:04Z</time>
      </trkpt>
      <trkpt lat="39.642183" lon="-4.254133">
        <ele>2464.0</ele>
        <time>2013-07-03T16:21:05Z</time>
      </trkpt>
      <trkpt lat="39.642067" lon="-4.254117">
        <ele>2467.0</ele>
        <time>2013-07-03T16:21:06Z</time>
      </trkpt>
      <trkpt lat="39.641967" lon="-4.254083">
        <ele>2469.0</ele>
        <time>2013-07-03T16:21:07Z</time>
      </trkpt>
      <trkpt lat="39.641867" lon="-4.254050">
        <ele>2471.0</ele>
        <time>2013-07-03T16:21:08Z</time>
      </trkpt>
      <trkpt lat="39.641767" lon="-4.253983">
        <ele>2472.0</ele>
        <time>2013-07-03T16:21:09Z</time>
      </trkpt>
      <trkpt lat="39.641667" lon="-4.253950">
        <ele>2473.0</ele>
        <time>2013-07-03T16:21:10Z</time>
      </trkpt>
      <trkpt lat="39.641533" lon="-4.253917">
        <ele>2473.0</ele>
        <time>2013-07-03T16:21:11Z</time>
      </trkpt>
      <trkpt lat="39.641400" lon="-4.253900">
        <ele>2476.0</ele>
        <time>2013-07-03T16:21:12Z</time>
      </trkpt>
      <trkpt lat="39.641283" lon="-4.253867">
        <ele>2479.0</ele>
        <time>2013-07-03T16:21:13Z</time>
      </trkpt>
      <trkpt lat="39.641167" lon="-4.253850">
        <ele>2484.0</ele>
        <time>2013-07-03T16:21:14Z</time>
      </trkpt>
      <trkpt lat="39.641067" lon="-4.253817">
        <ele>2488.0</ele>
        <time>2013-07-03T16:21:15Z</time>
      </trkpt>
      <trkpt lat="39.640967" lon="-4.253767">
        <ele>2491.0</ele>
        <time>2013-07-03T16:21:16Z</time>
      </trkpt>
      <trkpt lat="39.640850" lon="-4.253750">
        <ele>2492.0</ele>
        <time>2013-07-03T16:21:17Z</time>
      </trkpt>
      <trkpt lat="39.640717" lon="-4.253717">
        <ele>2494.0</ele>
        <time>2013-07-03T16:21:18Z</time>
      </trkpt>
      <trkpt lat="39.640583" lon="-4.253717">
        <ele>2495.0</ele>
        <time>2013-07-03T16:21:19Z</time>
      </trkpt>
      <trkpt lat="39.640450" lon="-4.253700">
        <ele>2499.0</ele>
        <time>2013-07-03T16:21:20Z</time>
      </trkpt>
      <trkpt lat="39.640333" lon="-4.253667">
        <ele>2503.0</ele>
        <time>2013-07-03T16:21:21Z</time>
      </trkpt>
      <trkpt lat="39.640233" lon="-4.253633">
        <ele>2506.0</ele>
        <time>2013-07-03T16:21:22Z</time>
      </trkpt>
      <trkpt lat="39.640133" lon="-4.253583">
        <ele>2508.0</ele>
        <time>2013-07-03T16:21:23Z</time>
      </trkpt>
      <trkpt lat="39.640033" lon="-4.253550">
        <ele>2509.0</ele>
        <time>2013-07-03T16:21:24Z</time>
      </trkpt>
      <trkpt lat="39.639933" lon="-4.253533">
        <ele>2510.0</ele>
        <time>2013-07-03T16:21:25Z</time>
      </trkpt>
      <trkpt lat="39.639817" lon="-4.253500">
        <ele>2512.0</ele>
        <time>2013-07-03T16:21:26Z</time>
      </trkpt>
      <trkpt lat="39.639700" lon="-4.253450">
        <ele>2514.0</ele>
        <time>2013-07-03T16:21:27Z</time>
      </trkpt>
      <trkpt lat="39.639583" lon="-4.253417">
        <ele>2516.0</ele>
        <time>2013-07-03T16:21:28Z</time>
      </trkpt>
      <trkpt lat="39.639467" lon="-4.253367">
        <ele>2517.0</ele>
        <time>2013-07-03T16:21:29Z</time>
      </trkpt>
      <trkpt lat="39.639350" lon="-4.253333">
        <ele>2520.0</ele>
        <time>2013-07-03T16:21:30Z</time>
      </trkpt>
      <trkpt lat="39.639233" lon="-4.253300">
        <ele>2522.0</ele>
        <time>2013-07-03T16:21:31Z</time>
      </trkpt>
      <trkpt lat="39.639117" lon="-4.253267">
        <ele>2525.0</ele>
        <time>2013-07-03T16:21:32Z</time>
      </trkpt>
      <trkpt lat="39.639000" lon="-4.253217">
        <ele>2527.0</ele>
        <time>2013-07-03T16:21:33Z</time>
      </trkpt>
      <trkpt lat="39.638883" lon="-4.253167">
        <ele>2528.0</ele>
        <time>2013-07-03T16:21:34Z</time>
      </trkpt>
      <trkpt lat="39.638767" lon="-4.253100">
        <ele>2529.0</ele>
        <time>2013-07-03T16:21:35Z</time>
      </trkpt>
      <trkpt lat="39.638650" lon="-4.253033">
        <ele>2529.0</ele>
        <time>2013-07-03T16:21:36Z</time>
      </trkpt>
      <trkpt lat="39.638533" lon="-4.252967">
        <ele>2531.0</ele>
        <time>2013-07-03T16:21:37Z</time>
      </trkpt>
      <trkpt lat="39.638417" lon="-4.252900">
        <ele>2532.0</ele>
        <time>2013-07-03T16:21:38Z</time>
      </trkpt>
      <trkpt lat="39.638333" lon="-4.252833">
        <ele>2534.0</ele>
        <time>2013-07-03T16:21:39Z</time>
      </trkpt>
      <trkpt lat="39.638233" lon="-4.252767">
        <ele>2534.0</ele>
        <time>2013-07-03T16:21:40Z</time>
      </trkpt>
      <trkpt lat="39.638133" lon="-4.252700">
        <ele>2533.0</ele>
        <time>2013-07-03T16:21:41Z</time>
      </trkpt>
      <trkpt lat="39.638017" lon="-4.252633">
        <ele>2532.0</ele>
        <time>2013-07-03T16:21:42Z</time>
      </trkpt>
      <trkpt lat="39.637883" lon="-4.252567">
        <ele>2532.0</ele>
        <time>2013-07-03T16:21:43Z</time>
      </trkpt>
      <trkpt lat="39.637767" lon="-4.252500">
        <ele>2534.0</ele>
        <time>2013-07-03T16:21:44Z</time>
      </trkpt>
      <trkpt lat="39.637667" lon="-4.252450">
        <ele>2536.0</ele>
        <time>2013-07-03T16:21:45Z</time>
      </trkpt>
      <trkpt lat="39.637550" lon="-4.252400">
        <ele>2537.0</ele>
        <time>2013-07-03T16:21:46Z</time>
      </trkpt>
      <trkpt lat="39.637450" lon="-4.252350">
        <ele>2538.0</ele>
        <time>2013-07-03T16:21:47Z</time>
      </trkpt>
      <trkpt lat="39.637317" lon="-4.252300">
        <ele>2539.0</ele>
        <time>2013-07-03T16:21:48Z</time>
      </trkpt>
      <trkpt lat="39.637183" lon="-4.252250">
        <ele>2539.0</ele>
        <time>2013-07-03T16:21:49Z</time>
      </trkpt>
      <trkpt lat="39.637050" lon="-4.252200">
        <ele>2540.0</ele>
        <time>2013-07-03T16:21:50Z</time>
      </trkpt>
      <trkpt lat="39.636933" lon="-4.252150">
        <ele>2541.0</ele>
        <time>2013-07-03T16:21:51Z</time>
      </trkpt>
      <trkpt lat="39.636800" lon="-4.252100">
        <ele>2542.0</ele>
        <time>2013-07-03T16:21:52Z</time>
      </trkpt>
      <trkpt lat="39.636667" lon="-4.252050">
        <ele>2544.0</ele>
        <time>2013-07-03T16:21:53Z</time>
      </trkpt>
      <trkpt lat="39.636533" lon="-4.252000">
        <ele>2545.0</ele>
        <time>2013-07-03T16:21:54Z</time>
      </trkpt>
      <trkpt lat="39.636417" lon="-4.251950">
        <ele>2547.0</ele>
        <time>2013-07-03T16:21:55Z</time>
      </trkpt>
      <trkpt lat="39.636300" lon="-4.251900">
        <ele>2548.0</ele>
        <time>2013-07-03T16:21:56Z</time>
      </trkpt>
      <trkpt lat="39.636200" lon="-4.251850">
        <ele>2548.0</ele>
        <time>2013-07-03T16:21:57Z</time>
      </trkpt>
      <trkpt lat="39.636083" lon="-4.251817">
        <ele>2548.0</ele>
        <time>2013-07-03T16:21:58Z</time>
      </trkpt>
      <trkpt lat="39.635950" lon="-4.251767">
        <ele>2548.0</ele>
        <time>2013-07-03T16:21:59Z</time>
      </trkpt>
      <trkpt lat="39.635817" lon="-4.251700">
        <ele>2548.0</ele>
        <time>2013-07-03T16:22:00Z</time>
      </trkpt>
      <trkpt lat="39.635700" lon="-4.251633">
        <ele>2549.0</ele>
        <time>2013-07-03T16:22:01Z</time>
      </trkpt>
      <trkpt lat="39.635583" lon="-4.251567">
        <ele>2550.0</ele>
        <time>2013-07-03T16:22:02Z</time>
      </trkpt>
      <trkpt lat="39.635483" lon="-4.251500">
        <ele>2550.0</ele>
        <time>2013-07-03T16:22:03Z</time>
      </trkpt>
      <trkpt lat="39.635383" lon="-4.251433">
        <ele>2551.0</ele>
        <time>2013-07-03T16:22:04Z</time>
      </trkpt>
      <trkpt lat="39.635283" lon="-4.251367">
        <ele>2552.0</ele>
        <time>2013-07-03T16:22:05Z</time>
      </trkpt>
      <trkpt lat="39.635167" lon="-4.251300">
        <ele>2552.0</ele>
        <time>2013-07-03T16:22:06Z</time>
      </trkpt>
      <trkpt lat="39.635067" lon="-4.251233">
        <ele>2552.0</ele>
        <time>2013-07-03T16:22:07Z</time>
      </trkpt>
      <trkpt lat="39.634967" lon="-4.251183">
        <ele>2552.0</ele>
        <time>2013-07-03T16:22:08Z</time>
      </trkpt>
      <trkpt lat="39.634867" lon="-4.251133">
        <ele>2552.0</ele>
        <time>2013-07-03T16:22:09Z</time>
      </trkpt>
      <trkpt lat="39.634767" lon="-4.251067">
        <ele>2551.0</ele>
        <time>2013-07-03T16:22:10Z</time>
      </trkpt>
      <trkpt lat="39.634667" lon="-4.251017">
        <ele>2549.0</ele>
        <time>2013-07-03T16:22:11Z</time>
      </trkpt>
      <trkpt lat="39.634567" lon="-4.250967">
        <ele>2548.0</ele>
        <time>2013-07-03T16:22:12Z</time>
      </trkpt>
      <trkpt lat="39.634467" lon="-4.250933">
        <ele>2546.0</ele>
        <time>2013-07-03T16:22:13Z</time>
      </trkpt>
      <trkpt lat="39.634367" lon="-4.250917">
        <ele>2544.0</ele>
        <time>2013-07-03T16:22:14Z</time>
      </trkpt>
      <trkpt lat="39.634267" lon="-4.250900">
        <ele>2542.0</ele>
        <time>2013-07-03T16:22:15Z</time>
      </trkpt>
      <trkpt lat="39.634167" lon="-4.250867">
        <ele>2540.0</ele>
        <time>2013-07-03T16:22:16Z</time>
      </trkpt>
      <trkpt lat="39.634050" lon="-4.250800">
        <ele>2538.0</ele>
        <time>2013-07-03T16:22:17Z</time>
      </trkpt>
      <trkpt lat="39.633950" lon="-4.250750">
        <ele>2537.0</ele>
        <time>2013-07-03T16:22:18Z</time>
      </trkpt>
      <trkpt lat="39.633867" lon="-4.250683">
        <ele>2536.0</ele>
        <time>2013-07-03T16:22:19Z</time>
      </trkpt>
      <trkpt lat="39.633767" lon="-4.250633">
        <ele>2535.0</ele>
        <time>2013-07-03T16:22:20Z</time>
      </trkpt>
      <trkpt lat="39.633683" lon="-4.250583">
        <ele>2533.0</ele>
        <time>2013-07-03T16:22:21Z</time>
      </trkpt>
      <trkpt lat="39.633583" lon="-4.250517">
        <ele>2531.0</ele>
        <time>2013-07-03T16:22:22Z</time>
      </trkpt>
      <trkpt lat="39.633483" lon="-4.250450">
        <ele>2529.0</ele>
        <time>2013-07-03T16:22:23Z</time>
      </trkpt>
      <trkpt lat="39.633367" lon="-4.250383">
        <ele>2527.0</ele>
        <time>2013-07-03T16:22:24Z</time>
      </trkpt>
      <trkpt lat="39.633267" lon="-4.250317">
        <ele>2527.0</ele>
        <time>2013-07-03T16:22:25Z</time>
      </trkpt>
      <trkpt lat="39.633150" lon="-4.250267">
        <ele>2525.0</ele>
        <time>2013-07-03T16:22:26Z</time>
      </trkpt>
      <trkpt lat="39.633050" lon="-4.250200">
        <ele>2524.0</ele>
        <time>2013-07-03T16:22:27Z</time>
      </trkpt>
      <trkpt lat="39.632933" lon="-4.250133">
        <ele>2522.0</ele>
        <time>2013-07-03T16:22:28Z</time>
      </trkpt>
      <trkpt lat="39.632817" lon="-4.250067">
        <ele>2520.0</ele>
        <time>2013-07-03T16:22:29Z</time>
      </trkpt>
      <trkpt lat="39.632683" lon="-4.250000">
        <ele>2519.0</ele>
        <time>2013-07-03T16:22:30Z</time>
      </trkpt>
      <trkpt lat="39.632567" lon="-4.249933">
        <ele>2519.0</ele>
        <time>2013-07-03T16:22:31Z</time>
      </trkpt>
      <trkpt lat="39.632450" lon="-4.249900">
        <ele>2520.0</ele>
        <time>2013-07-03T16:22:32Z</time>
      </trkpt>
      <trkpt lat="39.632350" lon="-4.249917">
        <ele>2520.0</ele>
        <time>2013-07-03T16:22:33Z</time>
      </trkpt>
      <trkpt lat="39.632250" lon="-4.249933">
        <ele>2520.0</ele>
        <time>2013-07-03T16:22:34Z</time>
      </trkpt>
      <trkpt lat="39.632150" lon="-4.249967">
        <ele>2519.0</ele>
        <time>2013-07-03T16:22:35Z</time>
      </trkpt>
      <trkpt lat="39.632033" lon="-4.249983">
        <ele>2518.0</ele>
        <time>2013-07-03T16:22:36Z</time>
      </trkpt>
      <trkpt lat="39.631900" lon="-4.250000">
        <ele>2518.0</ele>
        <time>2013-07-03T16:22:37Z</time>
      </trkpt>
      <trkpt lat="39.631783" lon="-4.249983">
        <ele>2519.0</ele>
        <time>2013-07-03T16:22:38Z</time>
      </trkpt>
      <trkpt lat="39.631667" lon="-4.249983">
        <ele>2522.0</ele>
        <time>2013-07-03T16:22:39Z</time>
      </trkpt>
      <trkpt lat="39.631550" lon="-4.249983">
        <ele>2524.0</ele>
        <time>2013-07-03T16:22:40Z</time>
      </trkpt>
      <trkpt lat="39.631450" lon="-4.249967">
        <ele>2524.0</ele>
        <time>2013-07-03T16:22:41Z</time>
      </trkpt>
      <trkpt lat="39.631350" lon="-4.249933">
        <ele>2524.0</ele>
        <time>2013-07-03T16:22:42Z</time>
      </trkpt>
      <trkpt lat="39.631217" lon="-4.249900">
        <ele>2523.0</ele>
        <time>2013-07-03T16:22:43Z</time>
      </trkpt>
      <trkpt lat="39.631067" lon="-4.249867">
        <ele>2523.0</ele>
        <time>2013-07-03T16:22:44Z</time>
      </trkpt>
      <trkpt lat="39.630917" lon="-4.249833">
        <ele>2526.0</ele>
        <time>2013-07-03T16:22:45Z</time>
      </trkpt>
      <trkpt lat="39.630800" lon="-4.249800">
        <ele>2530.0</ele>
        <time>2013-07-03T16:22:46Z</time>
      </trkpt>
      <trkpt lat="39.630700" lon="-4.249767">
        <ele>2534.0</ele>
        <time>2013-07-03T16:22:47Z</time>
      </trkpt>
      <trkpt lat="39.630583" lon="-4.249733">
        <ele>2537.0</ele>
        <time>2013-07-03T16:22:48Z</time>
      </trkpt>
      <trkpt lat="39.630483" lon="-4.249667">
        <ele>2538.0</ele>
        <time>2013-07-03T16:22:49Z</time>
      </trkpt>
      <trkpt lat="39.630367" lon="-4.249600">
        <ele>2538.0</ele>
        <time>2013-07-03T16:22:50Z</time>
      </trkpt>
      <trkpt lat="39.630233" lon="-4.249517">
        <ele>2538.0</ele>
        <time>2013-07-03T16:22:51Z</time>
      </trkpt>
      <trkpt lat="39.630117" lon="-4.249433">
        <ele>2539.0</ele>
        <time>2013-07-03T16:22:52Z</time>
      </trkpt>
      <trkpt lat="39.630000" lon="-4.249333">
        <ele>2542.0</ele>
        <time>2013-07-03T16:22:53Z</time>
      </trkpt>
      <trkpt lat="39.629900" lon="-4.249283">
        <ele>2545.0</ele>
        <time>2013-07-03T16:22:54Z</time>
      </trkpt>
      <trkpt lat="39.629800" lon="-4.249233">
        <ele>2547.0</ele>
        <time>2013-07-03T16:22:55Z</time>
      </trkpt>
      <trkpt lat="39.629683" lon="-4.249183">
        <ele>2548.0</ele>
        <time>2013-07-03T16:22:56Z</time>
      </trkpt>
      <trkpt lat="39.629567" lon="-4.249150">
        <ele>2548.0</ele>
        <time>2013-07-03T16:22:57Z</time>
      </trkpt>
      <trkpt lat="39.629433" lon="-4.249100">
        <ele>2547.0</ele>
        <time>2013-07-03T16:22:58Z</time>
      </trkpt>
      <trkpt lat="39.629300" lon="-4.249067">
        <ele>2548.0</ele>
        <time>2013-07-03T16:22:59Z</time>
      </trkpt>
      <trkpt lat="39.629167" lon="-4.249033">
        <ele>2550.0</ele>
        <time>2013-07-03T16:23:00Z</time>
      </trkpt>
      <trkpt lat="39.629033" lon="-4.248983">
        <ele>2552.0</ele>
        <time>2013-07-03T16:23:01Z</time>
      </trkpt>
      <trkpt lat="39.628917" lon="-4.248917">
        <ele>2554.0</ele>
        <time>2013-07-03T16:23:02Z</time>
      </trkpt>
      <trkpt lat="39.628800" lon="-4.248850">
        <ele>2556.0</ele>
        <time>2013-07-03T16:23:03Z</time>
      </trkpt>
      <trkpt lat="39.628683" lon="-4.248767">
        <ele>2557.0</ele>
        <time>2013-07-03T16:23:04Z</time>
      </trkpt>
      <trkpt lat="39.628567" lon="-4.248700">
        <ele>2559.0</ele>
        <time>2013-07-03T16:23:05Z</time>
      </trkpt>
      <trkpt lat="39.628433" lon="-4.248650">
        <ele>2560.0</ele>
        <time>2013-07-03T16:23:06Z</time>
      </trkpt>
      <trkpt lat="39.628317" lon="-4.248617">
        <ele>2560.0</ele>
        <time>2013-07-03T16:23:07Z</time>
      </trkpt>
      <trkpt lat="39.628183" lon="-4.248567">
        <ele>2560.0</ele>
        <time>2013-07-03T16:23:08Z</time>
      </trkpt>
      <trkpt lat="39.628050" lon="-4.248517">
        <ele>2560.0</ele>
        <time>2013-07-03T16:23:09Z</time>
      </trkpt>
      <trkpt lat="39.627917" lon="-4.248483">
        <ele>2560.0</ele>
        <time>2013-07-03T16:23:10Z</time>
      </trkpt>
      <trkpt lat="39.627800" lon="-4.248467">
        <ele>2562.0</ele>
        <time>2013-07-03T16:23:11Z</time>
      </trkpt>
      <trkpt lat="39.627683" lon="-4.248450">
        <ele>2563.0</ele>
        <time>2013-07-03T16:23:12Z</time>
      </trkpt>
      <trkpt lat="39.627567" lon="-4.248433">
        <ele>2563.0</ele>
        <time>2013-07-03T16:23:13Z</time>
      </trkpt>
      <trkpt lat="39.627450" lon="-4.248417">
        <ele>2563.0</ele>
        <time>2013-07-03T16:23:14Z</time>
      </trkpt>
      <trkpt lat="39.627317" lon="-4.248400">
        <ele>2563.0</ele>
        <time>2013-07-03T16:23:15Z</time>
      </trkpt>
      <trkpt lat="39.627167" lon="-4.248383">
        <ele>2564.0</ele>
        <time>2013-07-03T16:23:16Z</time>
      </trkpt>
      <trkpt lat="39.627050" lon="-4.248367">
        <ele>2565.0</ele>
        <time>2013-07-03T16:23:17Z</time>
      </trkpt>
      <trkpt lat="39.626917" lon="-4.248333">
        <ele>2566.0</ele>
        <time>2013-07-03T16:23:18Z</time>
      </trkpt>
      <trkpt lat="39.626800" lon="-4.248300">
        <ele>2567.0</ele>
        <time>2013-07-03T16:23:19Z</time>
      </trkpt>
      <trkpt lat="39.626667" lon="-4.248250">
        <ele>2566.0</ele>
        <time>2013-07-03T16:23:20Z</time>
      </trkpt>
      <trkpt lat="39.626533" lon="-4.248200">
        <ele>2563.0</ele>
        <time>2013-07-03T16:23:21Z</time>
      </trkpt>
      <trkpt lat="39.626383" lon="-4.248150">
        <ele>2561.0</ele>
        <time>2013-07-03T16:23:22Z</time>
      </trkpt>
      <trkpt lat="39.626233" lon="-4.248100">
        <ele>2559.0</ele>
        <time>2013-07-03T16:23:23Z</time>
      </trkpt>
      <trkpt lat="39.626100" lon="-4.248050">
        <ele>2559.0</ele>
        <time>2013-07-03T16:23:24Z</time>
      </trkpt>
      <trkpt lat="39.625983" lon="-4.248000">
        <ele>2558.0</ele>
        <time>2013-07-03T16:23:25Z</time>
      </trkpt>
      <trkpt lat="39.625867" lon="-4.247950">
        <ele>2556.0</ele>
        <time>2013-07-03T16:23:26Z</time>
      </trkpt>
      <trkpt lat="39.625733" lon="-4.247900">
        <ele>2553.0</ele>
        <time>2013-07-03T16:23:27Z</time>
      </trkpt>
      <trkpt lat="39.625617" lon="-4.247833">
        <ele>2550.0</ele>
        <time>2013-07-03T16:23:28Z</time>
      </trkpt>
      <trkpt lat="39.625483" lon="-4.247767">
        <ele>2547.0</ele>
        <time>2013-07-03T16:23:29Z</time>
      </trkpt>
      <trkpt lat="39.625350" lon="-4.247683">
        <ele>2545.0</ele>
        <time>2013-07-03T16:23:30Z</time>
      </trkpt>
      <trkpt lat="39.625217" lon="-4.247600">
        <ele>2543.0</ele>
        <time>2013-07-03T16:23:31Z</time>
      </trkpt>
      <trkpt lat="39.625100" lon="-4.247533">
        <ele>2542.0</ele>
        <time>2013-07-03T16:23:32Z</time>
      </trkpt>
      <trkpt lat="39.624983" lon="-4.247467">
        <ele>2540.0</ele>
        <time>2013-07-03T16:23:33Z</time>
      </trkpt>
      <trkpt lat="39.624867" lon="-4.247417">
        <ele>2537.0</ele>
        <time>2013-07-03T16:23:34Z</time>
      </trkpt>
      <trkpt lat="39.624733" lon="-4.247367">
        <ele>2533.0</ele>
        <time>2013-07-03T16:23:35Z</time>
      </trkpt>
      <trkpt lat="39.624583" lon="-4.247317">
        <ele>2530.0</ele>
        <time>2013-07-03T16:23:36Z</time>
      </trkpt>
      <trkpt lat="39.624450" lon="-4.247267">
        <ele>2528.0</ele>
        <time>2013-07-03T16:23:37Z</time>
      </trkpt>
      <trkpt lat="39.624317" lon="-4.247233">
        <ele>2528.0</ele>
        <time>2013-07-03T16:23:38Z</time>
      </trkpt>
      <trkpt lat="39.624183" lon="-4.247183">
        <ele>2527.0</ele>
        <time>2013-07-03T16:23:39Z</time>
      </trkpt>
      <trkpt lat="39.624067" lon="-4.247150">
        <ele>2527.0</ele>
        <time>2013-07-03T16:23:40Z</time>
      </trkpt>
      <trkpt lat="39.623950" lon="-4.247100">
        <ele>2525.0</ele>
        <time>2013-07-03T16:23:41Z</time>
      </trkpt>
      <trkpt lat="39.623817" lon="-4.247033">
        <ele>2522.0</ele>
        <time>2013-07-03T16:23:42Z</time>
      </trkpt>
      <trkpt lat="39.623683" lon="-4.246983">
        <ele>2520.0</ele>
        <time>2013-07-03T16:23:43Z</time>
      </trkpt>
      <trkpt lat="39.623533" lon="-4.246917">
        <ele>2518.0</ele>
        <time>2013-07-03T16:23:44Z</time>
      </trkpt>
      <trkpt lat="39.623400" lon="-4.246867">
        <ele>2517.0</ele>
        <time>2013-07-03T16:23:45Z</time>
      </trkpt>
      <trkpt lat="39.623283" lon="-4.246817">
        <ele>2516.0</ele>
        <time>2013-07-03T16:23:46Z</time>
      </trkpt>
      <trkpt lat="39.623150" lon="-4.246767">
        <ele>2514.0</ele>
        <time>2013-07-03T16:23:47Z</time>
      </trkpt>
      <trkpt lat="39.623033" lon="-4.246700">
        <ele>2512.0</ele>
        <time>2013-07-03T16:23:48Z</time>
      </trkpt>
      <trkpt lat="39.622900" lon="-4.246633">
        <ele>2509.0</ele>
        <time>2013-07-03T16:23:49Z</time>
      </trkpt>
      <trkpt lat="39.622767" lon="-4.246567">
        <ele>2506.0</ele>
        <time>2013-07-03T16:23:50Z</time>
      </trkpt>
      <trkpt lat="39.622633" lon="-4.246500">
        <ele>2504.0</ele>
        <time>2013-07-03T16:23:51Z</time>
      </trkpt>
      <trkpt lat="39.622483" lon="-4.246450">
        <ele>2502.0</ele>
        <time>2013-07-03T16:23:52Z</time>
      </trkpt>
      <trkpt lat="39.622350" lon="-4.246417">
        <ele>2500.0</ele>
        <time>2013-07-03T16:23:53Z</time>
      </trkpt>
      <trkpt lat="39.622217" lon="-4.246383">
        <ele>2498.0</ele>
        <time>2013-07-03T16:23:54Z</time>
      </trkpt>
      <trkpt lat="39.622067" lon="-4.246333">
        <ele>2496.0</ele>
        <time>2013-07-03T16:23:55Z</time>
      </trkpt>
      <trkpt lat="39.621933" lon="-4.246283">
        <ele>2494.0</ele>
        <time>2013-07-03T16:23:56Z</time>
      </trkpt>
      <trkpt lat="39.621783" lon="-4.246233">
        <ele>2492.0</ele>
        <time>2013-07-03T16:23:57Z</time>
      </trkpt>
      <trkpt lat="39.621650" lon="-4.246183">
        <ele>2490.0</ele>
        <time>2013-07-03T16:23:58Z</time>
      </trkpt>
      <trkpt lat="39.621500" lon="-4.246133">
        <ele>2488.0</ele>
        <time>2013-07-03T16:23:59Z</time>
      </trkpt>
      <trkpt lat="39.621367" lon="-4.246083">
        <ele>2487.0</ele>
        <time>2013-07-03T16:24:00Z</time>
      </trkpt>
      <trkpt lat="39.621233" lon="-4.246017">
        <ele>2485.0</ele>
        <time>2013-07-03T16:24:01Z</time>
      </trkpt>
      <trkpt lat="39.621083" lon="-4.245967">
        <ele>2485.0</ele>
        <time>2013-07-03T16:24:02Z</time>
      </trkpt>
      <trkpt lat="39.620950" lon="-4.245900">
        <ele>2484.0</ele>
        <time>2013-07-03T16:24:03Z</time>
      </trkpt>
      <trkpt lat="39.620817" lon="-4.245850">
        <ele>2482.0</ele>
        <time>2013-07-03T16:24:04Z</time>
      </trkpt>
      <trkpt lat="39.620683" lon="-4.245800">
        <ele>2481.0</ele>
        <time>2013-07-03T16:24:05Z</time>
      </trkpt>
      <trkpt lat="39.620550" lon="-4.245733">
        <ele>2479.0</ele>
        <time>2013-07-03T16:24:06Z</time>
      </trkpt>
      <trkpt lat="39.620400" lon="-4.245667">
        <ele>2478.0</ele>
        <time>2013-07-03T16:24:07Z</time>
      </trkpt>
      <trkpt lat="39.620267" lon="-4.245617">
        <ele>2476.0</ele>
        <time>2013-07-03T16:24:08Z</time>
      </trkpt>
      <trkpt lat="39.620117" lon="-4.245550">
        <ele>2475.0</ele>
        <time>2013-07-03T16:24:09Z</time>
      </trkpt>
      <trkpt lat="39.619983" lon="-4.245467">
        <ele>2474.0</ele>
        <time>2013-07-03T16:24:10Z</time>
      </trkpt>
      <trkpt lat="39.619833" lon="-4.245417">
        <ele>2473.0</ele>
        <time>2013-07-03T16:24:11Z</time>
      </trkpt>
      <trkpt lat="39.619683" lon="-4.245350">
        <ele>2473.0</ele>
        <time>2013-07-03T16:24:12Z</time>
      </trkpt>
      <trkpt lat="39.619550" lon="-4.245300">
        <ele>2472.0</ele>
        <time>2013-07-03T16:24:13Z</time>
      </trkpt>
      <trkpt lat="39.619400" lon="-4.245233">
        <ele>2472.0</ele>
        <time>2013-07-03T16:24:14Z</time>
      </trkpt>
      <trkpt lat="39.619250" lon="-4.245183">
        <ele>2471.0</ele>
        <time>2013-07-03T16:24:15Z</time>
      </trkpt>
      <trkpt lat="39.619117" lon="-4.245133">
        <ele>2470.0</ele>
        <time>2013-07-03T16:24:16Z</time>
      </trkpt>
      <trkpt lat="39.618967" lon="-4.245067">
        <ele>2469.0</ele>
        <time>2013-07-03T16:24:17Z</time>
      </trkpt>
      <trkpt lat="39.618833" lon="-4.245017">
        <ele>2469.0</ele>
        <time>2013-07-03T16:24:18Z</time>
      </trkpt>
      <trkpt lat="39.618700" lon="-4.244950">
        <ele>2468.0</ele>
        <time>2013-07-03T16:24:19Z</time>
      </trkpt>
      <trkpt lat="39.618550" lon="-4.244900">
        <ele>2467.0</ele>
        <time>2013-07-03T16:24:20Z</time>
      </trkpt>
      <trkpt lat="39.618417" lon="-4.244833">
        <ele>2466.0</ele>
        <time>2013-07-03T16:24:21Z</time>
      </trkpt>
      <trkpt lat="39.618267" lon="-4.244767">
        <ele>2465.0</ele>
        <time>2013-07-03T16:24:22Z</time>
      </trkpt>
      <trkpt lat="39.618133" lon="-4.244700">
        <ele>2464.0</ele>
        <time>2013-07-03T16:24:23Z</time>
      </trkpt>
      <trkpt lat="39.618000" lon="-4.244650">
        <ele>2464.0</ele>
        <time>2013-07-03T16:24:24Z</time>
      </trkpt>
      <trkpt lat="39.617867" lon="-4.244600">
        <ele>2463.0</ele>
        <time>2013-07-03T16:24:25Z</time>
      </trkpt>
      <trkpt lat="39.617733" lon="-4.244550">
        <ele>2462.0</ele>
        <time>2013-07-03T16:24:26Z</time>
      </trkpt>
      <trkpt lat="39.617600" lon="-4.244483">
        <ele>2461.0</ele>
        <time>2013-07-03T16:24:27Z</time>
      </trkpt>
      <trkpt lat="39.617467" lon="-4.244417">
        <ele>2460.0</ele>
        <time>2013-07-03T16:24:28Z</time>
      </trkpt>
      <trkpt lat="39.617317" lon="-4.244367">
        <ele>2460.0</ele>
        <time>2013-07-03T16:24:29Z</time>
      </trkpt>
      <trkpt lat="39.617183" lon="-4.244300">
        <ele>2460.0</ele>
        <time>2013-07-03T16:24:30Z</time>
      </trkpt>
      <trkpt lat="39.617050" lon="-4.244233">
        <ele>2460.0</ele>
        <time>2013-07-03T16:24:31Z</time>
      </trkpt>
      <trkpt lat="39.616933" lon="-4.244183">
        <ele>2459.0</ele>
        <time>2013-07-03T16:24:32Z</time>
      </trkpt>
      <trkpt lat="39.616800" lon="-4.244133">
        <ele>2458.0</ele>
        <time>2013-07-03T16:24:33Z</time>
      </trkpt>
      <trkpt lat="39.616667" lon="-4.244067">
        <ele>2457.0</ele>
        <time>2013-07-03T16:24:34Z</time>
      </trkpt>
      <trkpt lat="39.616517" lon="-4.244017">
        <ele>2455.0</ele>
        <time>2013-07-03T16:24:35Z</time>
      </trkpt>
      <trkpt lat="39.616367" lon="-4.243967">
        <ele>2454.0</ele>
        <time>2013-07-03T16:24:36Z</time>
      </trkpt>
      <trkpt lat="39.616217" lon="-4.243933">
        <ele>2454.0</ele>
        <time>2013-07-03T16:24:37Z</time>
      </trkpt>
      <trkpt lat="39.616083" lon="-4.243900">
        <ele>2454.0</ele>
        <time>2013-07-03T16:24:38Z</time>
      </trkpt>
      <trkpt lat="39.615950" lon="-4.243867">
        <ele>2453.0</ele>
        <time>2013-07-03T16:24:39Z</time>
      </trkpt>
      <trkpt lat="39.615800" lon="-4.243833">
        <ele>2451.0</ele>
        <time>2013-07-03T16:24:40Z</time>
      </trkpt>
      <trkpt lat="39.615667" lon="-4.243800">
        <ele>2450.0</ele>
        <time>2013-07-03T16:24:41Z</time>
      </trkpt>
      <trkpt lat="39.615517" lon="-4.243767">
        <ele>2448.0</ele>
        <time>2013-07-03T16:24:42Z</time>
      </trkpt>
      <trkpt lat="39.615367" lon="-4.243717">
        <ele>2447.0</ele>
        <time>2013-07-03T16:24:43Z</time>
      </trkpt>
      <trkpt lat="39.615233" lon="-4.243667">
        <ele>2447.0</ele>
        <time>2013-07-03T16:24:44Z</time>
      </trkpt>
      <trkpt lat="39.615083" lon="-4.243617">
        <ele>2446.0</ele>
        <time>2013-07-03T16:24:45Z</time>
      </trkpt>
      <trkpt lat="39.614950" lon="-4.243550">
        <ele>2445.0</ele>
        <time>2013-07-03T16:24:46Z</time>
      </trkpt>
      <trkpt lat="39.614817" lon="-4.243500">
        <ele>2444.0</ele>
        <time>2013-07-03T16:24:47Z</time>
      </trkpt>
      <trkpt lat="39.614683" lon="-4.243450">
        <ele>2443.0</ele>
        <time>2013-07-03T16:24:48Z</time>
      </trkpt>
      <trkpt lat="39.614533" lon="-4.243400">
        <ele>2442.0</ele>
        <time>2013-07-03T16:24:49Z</time>
      </trkpt>
      <trkpt lat="39.614383" lon="-4.243350">
        <ele>2441.0</ele>
        <time>2013-07-03T16:24:50Z</time>
      </trkpt>
      <trkpt lat="39.614250" lon="-4.243283">
        <ele>2440.0</ele>
        <time>2013-07-03T16:24:51Z</time>
      </trkpt>
      <trkpt lat="39.614117" lon="-4.243233">
        <ele>2440.0</ele>
        <time>2013-07-03T16:24:52Z</time>
      </trkpt>
      <trkpt lat="39.613983" lon="-4.243183">
        <ele>2439.0</ele>
        <time>2013-07-03T16:24:53Z</time>
      </trkpt>
      <trkpt lat="39.613850" lon="-4.243133">
        <ele>2438.0</ele>
        <time>2013-07-03T16:24:54Z</time>
      </trkpt>
      <trkpt lat="39.613717" lon="-4.243083">
        <ele>2436.0</ele>
        <time>2013-07-03T16:24:55Z</time>
      </trkpt>
      <trkpt lat="39.613567" lon="-4.243033">
        <ele>2434.0</ele>
        <time>2013-07-03T16:24:56Z</time>
      </trkpt>
      <trkpt lat="39.613433" lon="-4.242983">
        <ele>2432.0</ele>
        <time>2013-07-03T16:24:57Z</time>
      </trkpt>
      <trkpt lat="39.613283" lon="-4.242917">
        <ele>2431.0</ele>
        <time>2013-07-03T16:24:58Z</time>
      </trkpt>
      <trkpt lat="39.613150" lon="-4.242867">
        <ele>2430.0</ele>
        <time>2013-07-03T16:24:59Z</time>
      </trkpt>
      <trkpt lat="39.613033" lon="-4.242800">
        <ele>2430.0</ele>
        <time>2013-07-03T16:25:00Z</time>
      </trkpt>
      <trkpt lat="39.612900" lon="-4.242750">
        <ele>2429.0</ele>
        <time>2013-07-03T16:25:01Z</time>
      </trkpt>
      <trkpt lat="39.612783" lon="-4.242700">
        <ele>2428.0</ele>
        <time>2013-07-03T16:25:02Z</time>
      </trkpt>
      <trkpt lat="39.612650" lon="-4.242633">
        <ele>2425.0</ele>
        <time>2013-07-03T16:25:03Z</time>
      </trkpt>
      <trkpt lat="39.612517" lon="-4.242567">
        <ele>2422.0</ele>
        <time>2013-07-03T16:25:04Z</time>
      </trkpt>
      <trkpt lat="39.612383" lon="-4.242500">
        <ele>2420.0</ele>
        <time>2013-07-03T16:25:05Z</time>
      </trkpt>
      <trkpt lat="39.612233" lon="-4.242433">
        <ele>2420.0</ele>
        <time>2013-07-03T16:25:06Z</time>
      </trkpt>
      <trkpt lat="39.612100" lon="-4.242383">
        <ele>2420.0</ele>
        <time>2013-07-03T16:25:07Z</time>
      </trkpt>
      <trkpt lat="39.611967" lon="-4.242350">
        <ele>2420.0</ele>
        <time>2013-07-03T16:25:08Z</time>
      </trkpt>
      <trkpt lat="39.611833" lon="-4.242317">
        <ele>2420.0</ele>
        <time>2013-07-03T16:25:09Z</time>
      </trkpt>
      <trkpt lat="39.611717" lon="-4.242267">
        <ele>2419.0</ele>
        <time>2013-07-03T16:25:10Z</time>
      </trkpt>
      <trkpt lat="39.611583" lon="-4.242217">
        <ele>2419.0</ele>
        <time>2013-07-03T16:25:11Z</time>
      </trkpt>
      <trkpt lat="39.611467" lon="-4.242167">
        <ele>2418.0</ele>
        <time>2013-07-03T16:25:12Z</time>
      </trkpt>
      <trkpt lat="39.611333" lon="-4.242117">
        <ele>2418.0</ele>
        <time>2013-07-03T16:25:13Z</time>
      </trkpt>
      <trkpt lat="39.611217" lon="-4.242067">
        <ele>2418.0</ele>
        <time>2013-07-03T16:25:14Z</time>
      </trkpt>
      <trkpt lat="39.611100" lon="-4.242033">
        <ele>2417.0</ele>
        <time>2013-07-03T16:25:15Z</time>
      </trkpt>
      <trkpt lat="39.610967" lon="-4.241983">
        <ele>2417.0</ele>
        <time>2013-07-03T16:25:16Z</time>
      </trkpt>
      <trkpt lat="39.610850" lon="-4.241933">
        <ele>2417.0</ele>
        <time>2013-07-03T16:25:17Z</time>
      </trkpt>
      <trkpt lat="39.610717" lon="-4.241883">
        <ele>2417.0</ele>
        <time>2013-07-03T16:25:18Z</time>
      </trkpt>
      <trkpt lat="39.610617" lon="-4.241850">
        <ele>2418.0</ele>
        <time>2013-07-03T16:25:19Z</time>
      </trkpt>
      <trkpt lat="39.610500" lon="-4.241800">
        <ele>2418.0</ele>
        <time>2013-07-03T16:25:20Z</time>
      </trkpt>
      <trkpt lat="39.610367" lon="-4.241767">
        <ele>2417.0</ele>
        <time>2013-07-03T16:25:21Z</time>
      </trkpt>
      <trkpt lat="39.610250" lon="-4.241717">
        <ele>2416.0</ele>
        <time>2013-07-03T16:25:22Z</time>
      </trkpt>
      <trkpt lat="39.610117" lon="-4.241683">
        <ele>2416.0</ele>
        <time>2013-07-03T16:25:23Z</time>
      </trkpt>
      <trkpt lat="39.610000" lon="-4.241667">
        <ele>2416.0</ele>
        <time>2013-07-03T16:25:24Z</time>
      </trkpt>
      <trkpt lat="39.609867" lon="-4.241650">
        <ele>2417.0</ele>
        <time>2013-07-03T16:25:25Z</time>
      </trkpt>
      <trkpt lat="39.609750" lon="-4.241650">
        <ele>2416.0</ele>
        <time>2013-07-03T16:25:26Z</time>
      </trkpt>
      <trkpt lat="39.609617" lon="-4.241650">
        <ele>2416.0</ele>
        <time>2013-07-03T16:25:27Z</time>
      </trkpt>
      <trkpt lat="39.609483" lon="-4.241633">
        <ele>2416.0</ele>
        <time>2013-07-03T16:25:28Z</time>
      </trkpt>
      <trkpt lat="39.609350" lon="-4.241633">
        <ele>2416.0</ele>
        <time>2013-07-03T16:25:29Z</time>
      </trkpt>
      <trkpt lat="39.609233" lon="-4.241617">
        <ele>2417.0</ele>
        <time>2013-07-03T16:25:30Z</time>
      </trkpt>
      <trkpt lat="39.609100" lon="-4.241600">
        <ele>2418.0</ele>
        <time>2013-07-03T16:25:31Z</time>
      </trkpt>
      <trkpt lat="39.609000" lon="-4.241583">
        <ele>2419.0</ele>
        <time>2013-07-03T16:25:32Z</time>
      </trkpt>
      <trkpt lat="39.608883" lon="-4.241567">
        <ele>2420.0</ele>
        <time>2013-07-03T16:25:33Z</time>
      </trkpt>
      <trkpt lat="39.608767" lon="-4.241550">
        <ele>2419.0</ele>
        <time>2013-07-03T16:25:34Z</time>
      </trkpt>
      <trkpt lat="39.608633" lon="-4.241517">
        <ele>2419.0</ele>
        <time>2013-07-03T16:25:35Z</time>
      </trkpt>
      <trkpt lat="39.608500" lon="-4.241467">
        <ele>2419.0</ele>
        <time>2013-07-03T16:25:36Z</time>
      </trkpt>
      <trkpt lat="39.608367" lon="-4.241433">
        <ele>2420.0</ele>
        <time>2013-07-03T16:25:37Z</time>
      </trkpt>
      <trkpt lat="39.608233" lon="-4.241417">
        <ele>2422.0</ele>
        <time>2013-07-03T16:25:38Z</time>
      </trkpt>
      <trkpt lat="39.608117" lon="-4.241400">
        <ele>2424.0</ele>
        <time>2013-07-03T16:25:39Z</time>
      </trkpt>
      <trkpt lat="39.608000" lon="-4.241400">
        <ele>2425.0</ele>
        <time>2013-07-03T16:25:40Z</time>
      </trkpt>
      <trkpt lat="39.607883" lon="-4.241383">
        <ele>2425.0</ele>
        <time>2013-07-03T16:25:41Z</time>
      </trkpt>
      <trkpt lat="39.607750" lon="-4.241367">
        <ele>2424.0</ele>
        <time>2013-07-03T16:25:42Z</time>
      </trkpt>
      <trkpt lat="39.607617" lon="-4.241350">
        <ele>2424.0</ele>
        <time>2013-07-03T16:25:43Z</time>
      </trkpt>
      <trkpt lat="39.607467" lon="-4.241333">
        <ele>2425.0</ele>
        <time>2013-07-03T16:25:44Z</time>
      </trkpt>
      <trkpt lat="39.607350" lon="-4.241300">
        <ele>2426.0</ele>
        <time>2013-07-03T16:25:45Z</time>
      </trkpt>
      <trkpt lat="39.607217" lon="-4.241267">
        <ele>2427.0</ele>
        <time>2013-07-03T16:25:46Z</time>
      </trkpt>
      <trkpt lat="39.607117" lon="-4.241217">
        <ele>2428.0</ele>
        <time>2013-07-03T16:25:47Z</time>
      </trkpt>
      <trkpt lat="39.607000" lon="-4.241167">
        <ele>2428.0</ele>
        <time>2013-07-03T16:25:48Z</time>
      </trkpt>
      <trkpt lat="39.606883" lon="-4.241133">
        <ele>2427.0</ele>
        <time>2013-07-03T16:25:49Z</time>
      </trkpt>
      <trkpt lat="39.606733" lon="-4.241100">
        <ele>2426.0</ele>
        <time>2013-07-03T16:25:50Z</time>
      </trkpt>
      <trkpt lat="39.606600" lon="-4.241050">
        <ele>2427.0</ele>
        <time>2013-07-03T16:25:51Z</time>
      </trkpt>
      <trkpt lat="39.606483" lon="-4.241000">
        <ele>2431.0</ele>
        <time>2013-07-03T16:25:52Z</time>
      </trkpt>
      <trkpt lat="39.606400" lon="-4.240950">
        <ele>2435.0</ele>
        <time>2013-07-03T16:25:53Z</time>
      </trkpt>
      <trkpt lat="39.606317" lon="-4.240933">
        <ele>2437.0</ele>
        <time>2013-07-03T16:25:54Z</time>
      </trkpt>
      <trkpt lat="39.606217" lon="-4.240900">
        <ele>2437.0</ele>
        <time>2013-07-03T16:25:55Z</time>
      </trkpt>
      <trkpt lat="39.606117" lon="-4.240900">
        <ele>2435.0</ele>
        <time>2013-07-03T16:25:56Z</time>
      </trkpt>
      <trkpt lat="39.606000" lon="-4.240900">
        <ele>2433.0</ele>
        <time>2013-07-03T16:25:57Z</time>
      </trkpt>
      <trkpt lat="39.605867" lon="-4.240883">
        <ele>2433.0</ele>
        <time>2013-07-03T16:25:58Z</time>
      </trkpt>
      <trkpt lat="39.605750" lon="-4.240883">
        <ele>2434.0</ele>
        <time>2013-07-03T16:25:59Z</time>
      </trkpt>
      <trkpt lat="39.605633" lon="-4.240883">
        <ele>2436.0</ele>
        <time>2013-07-03T16:26:00Z</time>
      </trkpt>
      <trkpt lat="39.605517" lon="-4.240883">
        <ele>2438.0</ele>
        <time>2013-07-03T16:26:01Z</time>
      </trkpt>
      <trkpt lat="39.605417" lon="-4.240900">
        <ele>2441.0</ele>
        <time>2013-07-03T16:26:02Z</time>
      </trkpt>
      <trkpt lat="39.605333" lon="-4.240917">
        <ele>2443.0</ele>
        <time>2013-07-03T16:26:03Z</time>
      </trkpt>
      <trkpt lat="39.605250" lon="-4.240950">
        <ele>2443.0</ele>
        <time>2013-07-03T16:26:04Z</time>
      </trkpt>
      <trkpt lat="39.605150" lon="-4.241017">
        <ele>2442.0</ele>
        <time>2013-07-03T16:26:05Z</time>
      </trkpt>
      <trkpt lat="39.605050" lon="-4.241067">
        <ele>2442.0</ele>
        <time>2013-07-03T16:26:06Z</time>
      </trkpt>
      <trkpt lat="39.604950" lon="-4.241133">
        <ele>2443.0</ele>
        <time>2013-07-03T16:26:07Z</time>
      </trkpt>
      <trkpt lat="39.604850" lon="-4.241183">
        <ele>2444.0</ele>
        <time>2013-07-03T16:26:08Z</time>
      </trkpt>
      <trkpt lat="39.604767" lon="-4.241250">
        <ele>2444.0</ele>
        <time>2013-07-03T16:26:09Z</time>
      </trkpt>
      <trkpt lat="39.604667" lon="-4.241300">
        <ele>2444.0</ele>
        <time>2013-07-03T16:26:10Z</time>
      </trkpt>
      <trkpt lat="39.604550" lon="-4.241367">
        <ele>2444.0</ele>
        <time>2013-07-03T16:26:11Z</time>
      </trkpt>
      <trkpt lat="39.604433" lon="-4.241433">
        <ele>2444.0</ele>
        <time>2013-07-03T16:26:12Z</time>
      </trkpt>
      <trkpt lat="39.604333" lon="-4.241517">
        <ele>2445.0</ele>
        <time>2013-07-03T16:26:13Z</time>
      </trkpt>
      <trkpt lat="39.604250" lon="-4.241583">
        <ele>2447.0</ele>
        <time>2013-07-03T16:26:14Z</time>
      </trkpt>
      <trkpt lat="39.604150" lon="-4.241667">
        <ele>2447.0</ele>
        <time>2013-07-03T16:26:15Z</time>
      </trkpt>
      <trkpt lat="39.604067" lon="-4.241717">
        <ele>2448.0</ele>
        <time>2013-07-03T16:26:16Z</time>
      </trkpt>
      <trkpt lat="39.603967" lon="-4.241767">
        <ele>2448.0</ele>
        <time>2013-07-03T16:26:17Z</time>
      </trkpt>
      <trkpt lat="39.603883" lon="-4.241817">
        <ele>2448.0</ele>
        <time>2013-07-03T16:26:18Z</time>
      </trkpt>
      <trkpt lat="39.603800" lon="-4.241867">
        <ele>2447.0</ele>
        <time>2013-07-03T16:26:19Z</time>
      </trkpt>
      <trkpt lat="39.603717" lon="-4.241933">
        <ele>2446.0</ele>
        <time>2013-07-03T16:26:20Z</time>
      </trkpt>
      <trkpt lat="39.603667" lon="-4.242033">
        <ele>2444.0</ele>
        <time>2013-07-03T16:26:21Z</time>
      </trkpt>
      <trkpt lat="39.603617" lon="-4.242150">
        <ele>2443.0</ele>
        <time>2013-07-03T16:26:22Z</time>
      </trkpt>
      <trkpt lat="39.603600" lon="-4.242250">
        <ele>2443.0</ele>
        <time>2013-07-03T16:26:23Z</time>
      </trkpt>
      <trkpt lat="39.603600" lon="-4.242350">
        <ele>2442.0</ele>
        <time>2013-07-03T16:26:24Z</time>
      </trkpt>
      <trkpt lat="39.603617" lon="-4.242450">
        <ele>2442.0</ele>
        <time>2013-07-03T16:26:25Z</time>
      </trkpt>
      <trkpt lat="39.603633" lon="-4.242533">
        <ele>2442.0</ele>
        <time>2013-07-03T16:26:26Z</time>
      </trkpt>
      <trkpt lat="39.603650" lon="-4.242633">
        <ele>2441.0</ele>
        <time>2013-07-03T16:26:27Z</time>
      </trkpt>
      <trkpt lat="39.603667" lon="-4.242733">
        <ele>2441.0</ele>
        <time>2013-07-03T16:26:28Z</time>
      </trkpt>
      <trkpt lat="39.603667" lon="-4.242850">
        <ele>2440.0</ele>
        <time>2013-07-03T16:26:29Z</time>
      </trkpt>
      <trkpt lat="39.603683" lon="-4.242967">
        <ele>2439.0</ele>
        <time>2013-07-03T16:26:30Z</time>
      </trkpt>
      <trkpt lat="39.603683" lon="-4.243083">
        <ele>2439.0</ele>
        <time>2013-07-03T16:26:31Z</time>
      </trkpt>
      <trkpt lat="39.603700" lon="-4.243200">
        <ele>2439.0</ele>
        <time>2013-07-03T16:26:32Z</time>
      </trkpt>
      <trkpt lat="39.603733" lon="-4.243300">
        <ele>2438.0</ele>
        <time>2013-07-03T16:26:33Z</time>
      </trkpt>
      <trkpt lat="39.603767" lon="-4.243383">
        <ele>2438.0</ele>
        <time>2013-07-03T16:26:34Z</time>
      </trkpt>
      <trkpt lat="39.603783" lon="-4.243483">
        <ele>2437.0</ele>
        <time>2013-07-03T16:26:35Z</time>
      </trkpt>
      <trkpt lat="39.603800" lon="-4.243583">
        <ele>2437.0</ele>
        <time>2013-07-03T16:26:36Z</time>
      </trkpt>
      <trkpt lat="39.603800" lon="-4.243700">
        <ele>2436.0</ele>
        <time>2013-07-03T16:26:37Z</time>
      </trkpt>
      <trkpt lat="39.603817" lon="-4.243800">
        <ele>2436.0</ele>
        <time>2013-07-03T16:26:38Z</time>
      </trkpt>
      <trkpt lat="39.603817" lon="-4.243917">
        <ele>2436.0</ele>
        <time>2013-07-03T16:26:39Z</time>
      </trkpt>
      <trkpt lat="39.603817" lon="-4.244017">
        <ele>2436.0</ele>
        <time>2013-07-03T16:26:40Z</time>
      </trkpt>
      <trkpt lat="39.603800" lon="-4.244117">
        <ele>2436.0</ele>
        <time>2013-07-03T16:26:41Z</time>
      </trkpt>
      <trkpt lat="39.603767" lon="-4.244233">
        <ele>2436.0</ele>
        <time>2013-07-03T16:26:42Z</time>
      </trkpt>
      <trkpt lat="39.603733" lon="-4.244317">
        <ele>2437.0</ele>
        <time>2013-07-03T16:26:43Z</time>
      </trkpt>
      <trkpt lat="39.603683" lon="-4.244400">
        <ele>2437.0</ele>
        <time>2013-07-03T16:26:44Z</time>
      </trkpt>
      <trkpt lat="39.603650" lon="-4.244483">
        <ele>2438.0</ele>
        <time>2013-07-03T16:26:45Z</time>
      </trkpt>
      <trkpt lat="39.603633" lon="-4.244583">
        <ele>2438.0</ele>
        <time>2013-07-03T16:26:46Z</time>
      </trkpt>
      <trkpt lat="39.603600" lon="-4.244667">
        <ele>2439.0</ele>
        <time>2013-07-03T16:26:47Z</time>
      </trkpt>
      <trkpt lat="39.603550" lon="-4.244750">
        <ele>2439.0</ele>
        <time>2013-07-03T16:26:48Z</time>
      </trkpt>
      <trkpt lat="39.603500" lon="-4.244833">
        <ele>2439.0</ele>
        <time>2013-07-03T16:26:49Z</time>
      </trkpt>
      <trkpt lat="39.603433" lon="-4.244883">
        <ele>2439.0</ele>
        <time>2013-07-03T16:26:50Z</time>
      </trkpt>
      <trkpt lat="39.603350" lon="-4.244933">
        <ele>2439.0</ele>
        <time>2013-07-03T16:26:51Z</time>
      </trkpt>
      <trkpt lat="39.603267" lon="-4.244983">
        <ele>2439.0</ele>
        <time>2013-07-03T16:26:52Z</time>
      </trkpt>
      <trkpt lat="39.603183" lon="-4.245017">
        <ele>2440.0</ele>
        <time>2013-07-03T16:26:53Z</time>
      </trkpt>
      <trkpt lat="39.603100" lon="-4.245050">
        <ele>2441.0</ele>
        <time>2013-07-03T16:26:54Z</time>
      </trkpt>
      <trkpt lat="39.603033" lon="-4.245100">
        <ele>2441.0</ele>
        <time>2013-07-03T16:26:55Z</time>
      </trkpt>
      <trkpt lat="39.602983" lon="-4.245167">
        <ele>2441.0</ele>
        <time>2013-07-03T16:26:56Z</time>
      </trkpt>
      <trkpt lat="39.602917" lon="-4.245250">
        <ele>2440.0</ele>
        <time>2013-07-03T16:26:57Z</time>
      </trkpt>
      <trkpt lat="39.602867" lon="-4.245333">
        <ele>2440.0</ele>
        <time>2013-07-03T16:26:58Z</time>
      </trkpt>
      <trkpt lat="39.602833" lon="-4.245417">
        <ele>2439.0</ele>
        <time>2013-07-03T16:26:59Z</time>
      </trkpt>
      <trkpt lat="39.602800" lon="-4.245500">
        <ele>2439.0</ele>
        <time>2013-07-03T16:27:00Z</time>
      </trkpt>
      <trkpt lat="39.602783" lon="-4.245600">
        <ele>2439.0</ele>
        <time>2013-07-03T16:27:01Z</time>
      </trkpt>
      <trkpt lat="39.602767" lon="-4.245683">
        <ele>2438.0</ele>
        <time>2013-07-03T16:27:02Z</time>
      </trkpt>
      <trkpt lat="39.602750" lon="-4.245783">
        <ele>2437.0</ele>
        <time>2013-07-03T16:27:03Z</time>
      </trkpt>
      <trkpt lat="39.602750" lon="-4.245867">
        <ele>2435.0</ele>
        <time>2013-07-03T16:27:04Z</time>
      </trkpt>
      <trkpt lat="39.602733" lon="-4.245967">
        <ele>2435.0</ele>
        <time>2013-07-03T16:27:05Z</time>
      </trkpt>
      <trkpt lat="39.602717" lon="-4.246050">
        <ele>2434.0</ele>
        <time>2013-07-03T16:27:06Z</time>
      </trkpt>
      <trkpt lat="39.602700" lon="-4.246133">
        <ele>2434.0</ele>
        <time>2013-07-03T16:27:07Z</time>
      </trkpt>
      <trkpt lat="39.602683" lon="-4.246233">
        <ele>2433.0</ele>
        <time>2013-07-03T16:27:08Z</time>
      </trkpt>
      <trkpt lat="39.602633" lon="-4.246333">
        <ele>2433.0</ele>
        <time>2013-07-03T16:27:09Z</time>
      </trkpt>
      <trkpt lat="39.602583" lon="-4.246417">
        <ele>2433.0</ele>
        <time>2013-07-03T16:27:10Z</time>
      </trkpt>
      <trkpt lat="39.602533" lon="-4.246483">
        <ele>2434.0</ele>
        <time>2013-07-03T16:27:11Z</time>
      </trkpt>
      <trkpt lat="39.602500" lon="-4.246567">
        <ele>2434.0</ele>
        <time>2013-07-03T16:27:12Z</time>
      </trkpt>
      <trkpt lat="39.602500" lon="-4.246650">
        <ele>2434.0</ele>
        <time>2013-07-03T16:27:13Z</time>
      </trkpt>
      <trkpt lat="39.602500" lon="-4.246750">
        <ele>2433.0</ele>
        <time>2013-07-03T16:27:14Z</time>
      </trkpt>
      <trkpt lat="39.602483" lon="-4.246850">
        <ele>2432.0</ele>
        <time>2013-07-03T16:27:15Z</time>
      </trkpt>
      <trkpt lat="39.602450" lon="-4.246967">
        <ele>2433.0</ele>
        <time>2013-07-03T16:27:16Z</time>
      </trkpt>
      <trkpt lat="39.602417" lon="-4.247050">
        <ele>2433.0</ele>
        <time>2013-07-03T16:27:17Z</time>
      </trkpt>
      <trkpt lat="39.602400" lon="-4.247133">
        <ele>2433.0</ele>
        <time>2013-07-03T16:27:18Z</time>
      </trkpt>
      <trkpt lat="39.602400" lon="-4.247217">
        <ele>2433.0</ele>
        <time>2013-07-03T16:27:19Z</time>
      </trkpt>
      <trkpt lat="39.602400" lon="-4.247300">
        <ele>2432.0</ele>
        <time>2013-07-03T16:27:20Z</time>
      </trkpt>
      <trkpt lat="39.602400" lon="-4.247400">
        <ele>2431.0</ele>
        <time>2013-07-03T16:27:21Z</time>
      </trkpt>
      <trkpt lat="39.602367" lon="-4.247517">
        <ele>2430.0</ele>
        <time>2013-07-03T16:27:22Z</time>
      </trkpt>
      <trkpt lat="39.602350" lon="-4.247617">
        <ele>2430.0</ele>
        <time>2013-07-03T16:27:23Z</time>
      </trkpt>
      <trkpt lat="39.602317" lon="-4.247683">
        <ele>2430.0</ele>
        <time>2013-07-03T16:27:24Z</time>
      </trkpt>
      <trkpt lat="39.602333" lon="-4.247750">
        <ele>2430.0</ele>
        <time>2013-07-03T16:27:25Z</time>
      </trkpt>
      <trkpt lat="39.602350" lon="-4.247800">
        <ele>2429.0</ele>
        <time>2013-07-03T16:27:26Z</time>
      </trkpt>
      <trkpt lat="39.602383" lon="-4.247850">
        <ele>2428.0</ele>
        <time>2013-07-03T16:27:27Z</time>
      </trkpt>
      <trkpt lat="39.602400" lon="-4.247917">
        <ele>2428.0</ele>
        <time>2013-07-03T16:27:28Z</time>
      </trkpt>
      <trkpt lat="39.602417" lon="-4.248000">
        <ele>2428.0</ele>
        <time>2013-07-03T16:27:29Z</time>
      </trkpt>
      <trkpt lat="39.602417" lon="-4.248067">
        <ele>2429.0</ele>
        <time>2013-07-03T16:27:30Z</time>
      </trkpt>
      <trkpt lat="39.602433" lon="-4.248133">
        <ele>2429.0</ele>
        <time>2013-07-03T16:27:31Z</time>
      </trkpt>
      <trkpt lat="39.602450" lon="-4.248200">
        <ele>2428.0</ele>
        <time>2013-07-03T16:27:32Z</time>
      </trkpt>
      <trkpt lat="39.602467" lon="-4.248250">
        <ele>2428.0</ele>
        <time>2013-07-03T16:27:33Z</time>
      </trkpt>
      <trkpt lat="39.602483" lon="-4.248333">
        <ele>2428.0</ele>
        <time>2013-07-03T16:27:34Z</time>
      </trkpt>
      <trkpt lat="39.602483" lon="-4.248400">
        <ele>2428.0</ele>
        <time>2013-07-03T16:27:35Z</time>
      </trkpt>
      <trkpt lat="39.602483" lon="-4.248483">
        <ele>2428.0</ele>
        <time>2013-07-03T16:27:36Z</time>
      </trkpt>
      <trkpt lat="39.602500" lon="-4.248550">
        <ele>2428.0</ele>
        <time>2013-07-03T16:27:37Z</time>
      </trkpt>
      <trkpt lat="39.602517" lon="-4.248600">
        <ele>2427.0</ele>
        <time>2013-07-03T16:27:38Z</time>
      </trkpt>
      <trkpt lat="39.602533" lon="-4.248667">
        <ele>2426.0</ele>
        <time>2013-07-03T16:27:39Z</time>
      </trkpt>
      <trkpt lat="39.602533" lon="-4.248733">
        <ele>2425.0</ele>
        <time>2013-07-03T16:27:40Z</time>
      </trkpt>
      <trkpt lat="39.602533" lon="-4.248817">
        <ele>2425.0</ele>
        <time>2013-07-03T16:27:41Z</time>
      </trkpt>
      <trkpt lat="39.602517" lon="-4.248883">
        <ele>2424.0</ele>
        <time>2013-07-03T16:27:42Z</time>
      </trkpt>
      <trkpt lat="39.602517" lon="-4.248950">
        <ele>2424.0</ele>
        <time>2013-07-03T16:27:43Z</time>
      </trkpt>
      <trkpt lat="39.602533" lon="-4.249000">
        <ele>2422.0</ele>
        <time>2013-07-03T16:27:44Z</time>
      </trkpt>
      <trkpt lat="39.602550" lon="-4.249050">
        <ele>2421.0</ele>
        <time>2013-07-03T16:27:45Z</time>
      </trkpt>
      <trkpt lat="39.602550" lon="-4.249117">
        <ele>2420.0</ele>
        <time>2013-07-03T16:27:46Z</time>
      </trkpt>
      <trkpt lat="39.602550" lon="-4.249183">
        <ele>2420.0</ele>
        <time>2013-07-03T16:27:47Z</time>
      </trkpt>
      <trkpt lat="39.602550" lon="-4.249250">
        <ele>2420.0</ele>
        <time>2013-07-03T16:27:48Z</time>
      </trkpt>
      <trkpt lat="39.602533" lon="-4.249317">
        <ele>2420.0</ele>
        <time>2013-07-03T16:27:49Z</time>
      </trkpt>
      <trkpt lat="39.602533" lon="-4.249383">
        <ele>2419.0</ele>
        <time>2013-07-03T16:27:50Z</time>
      </trkpt>
      <trkpt lat="39.602517" lon="-4.249467">
        <ele>2418.0</ele>
        <time>2013-07-03T16:27:51Z</time>
      </trkpt>
      <trkpt lat="39.602500" lon="-4.249533">
        <ele>2417.0</ele>
        <time>2013-07-03T16:27:52Z</time>
      </trkpt>
      <trkpt lat="39.602450" lon="-4.249600">
        <ele>2416.0</ele>
        <time>2013-07-03T16:27:53Z</time>
      </trkpt>
      <trkpt lat="39.602367" lon="-4.249667">
        <ele>2415.0</ele>
        <time>2013-07-03T16:27:54Z</time>
      </trkpt>
      <trkpt lat="39.602283" lon="-4.249700">
        <ele>2415.0</ele>
        <time>2013-07-03T16:27:55Z</time>
      </trkpt>
      <trkpt lat="39.602183" lon="-4.249717">
        <ele>2415.0</ele>
        <time>2013-07-03T16:27:56Z</time>
      </trkpt>
      <trkpt lat="39.602100" lon="-4.249733">
        <ele>2415.0</ele>
        <time>2013-07-03T16:27:57Z</time>
      </trkpt>
      <trkpt lat="39.602033" lon="-4.249750">
        <ele>2414.0</ele>
        <time>2013-07-03T16:27:58Z</time>
      </trkpt>
      <trkpt lat="39.601967" lon="-4.249817">
        <ele>2413.0</ele>
        <time>2013-07-03T16:27:59Z</time>
      </trkpt>
      <trkpt lat="39.601917" lon="-4.249900">
        <ele>2411.0</ele>
        <time>2013-07-03T16:28:00Z</time>
      </trkpt>
      <trkpt lat="39.601883" lon="-4.249983">
        <ele>2410.0</ele>
        <time>2013-07-03T16:28:01Z</time>
      </trkpt>
      <trkpt lat="39.601850" lon="-4.250050">
        <ele>2410.0</ele>
        <time>2013-07-03T16:28:02Z</time>
      </trkpt>
      <trkpt lat="39.601817" lon="-4.250133">
        <ele>2409.0</ele>
        <time>2013-07-03T16:28:03Z</time>
      </trkpt>
      <trkpt lat="39.601800" lon="-4.250200">
        <ele>2409.0</ele>
        <time>2013-07-03T16:28:04Z</time>
      </trkpt>
      <trkpt lat="39.601800" lon="-4.250267">
        <ele>2409.0</ele>
        <time>2013-07-03T16:28:05Z</time>
      </trkpt>
      <trkpt lat="39.601800" lon="-4.250333">
        <ele>2408.0</ele>
        <time>2013-07-03T16:28:06Z</time>
      </trkpt>
      <trkpt lat="39.601800" lon="-4.250417">
        <ele>2407.0</ele>
        <time>2013-07-03T16:28:07Z</time>
      </trkpt>
      <trkpt lat="39.601800" lon="-4.250483">
        <ele>2405.0</ele>
        <time>2013-07-03T16:28:08Z</time>
      </trkpt>
      <trkpt lat="39.601817" lon="-4.250567">
        <ele>2404.0</ele>
        <time>2013-07-03T16:28:09Z</time>
      </trkpt>
      <trkpt lat="39.601833" lon="-4.250633">
        <ele>2404.0</ele>
        <time>2013-07-03T16:28:10Z</time>
      </trkpt>
      <trkpt lat="39.601850" lon="-4.250700">
        <ele>2403.0</ele>
        <time>2013-07-03T16:28:11Z</time>
      </trkpt>
      <trkpt lat="39.601867" lon="-4.250767">
        <ele>2404.0</ele>
        <time>2013-07-03T16:28:12Z</time>
      </trkpt>
      <trkpt lat="39.601883" lon="-4.250817">
        <ele>2404.0</ele>
        <time>2013-07-03T16:28:13Z</time>
      </trkpt>
      <trkpt lat="39.601900" lon="-4.250883">
        <ele>2404.0</ele>
        <time>2013-07-03T16:28:14Z</time>
      </trkpt>
      <trkpt lat="39.601917" lon="-4.250917">
        <ele>2404.0</ele>
        <time>2013-07-03T16:28:15Z</time>
      </trkpt>
      <trkpt lat="39.601933" lon="-4.250950">
        <ele>2403.0</ele>
        <time>2013-07-03T16:28:16Z</time>
      </trkpt>
      <trkpt lat="39.601950" lon="-4.251000">
        <ele>2401.0</ele>
        <time>2013-07-03T16:28:17Z</time>
      </trkpt>
      <trkpt lat="39.601983" lon="-4.251033">
        <ele>2399.0</ele>
        <time>2013-07-03T16:28:18Z</time>
      </trkpt>
      <trkpt lat="39.602017" lon="-4.251083">
        <ele>2396.0</ele>
        <time>2013-07-03T16:28:19Z</time>
      </trkpt>
      <trkpt lat="39.602067" lon="-4.251133">
        <ele>2395.0</ele>
        <time>2013-07-03T16:28:20Z</time>
      </trkpt>
      <trkpt lat="39.602100" lon="-4.251167">
        <ele>2394.0</ele>
        <time>2013-07-03T16:28:21Z</time>
      </trkpt>
      <trkpt lat="39.602150" lon="-4.251183">
        <ele>2392.0</ele>
        <time>2013-07-03T16:28:22Z</time>
      </trkpt>
      <trkpt lat="39.602200" lon="-4.251200">
        <ele>2391.0</ele>
        <time>2013-07-03T16:28:23Z</time>
      </trkpt>
      <trkpt lat="39.602250" lon="-4.251233">
        <ele>2390.0</ele>
        <time>2013-07-03T16:28:24Z</time>
      </trkpt>
      <trkpt lat="39.602300" lon="-4.251250">
        <ele>2387.0</ele>
        <time>2013-07-03T16:28:25Z</time>
      </trkpt>
      <trkpt lat="39.602367" lon="-4.251283">
        <ele>2386.0</ele>
        <time>2013-07-03T16:28:26Z</time>
      </trkpt>
      <trkpt lat="39.602417" lon="-4.251317">
        <ele>2384.0</ele>
        <time>2013-07-03T16:28:27Z</time>
      </trkpt>
      <trkpt lat="39.602483" lon="-4.251350">
        <ele>2384.0</ele>
        <time>2013-07-03T16:28:28Z</time>
      </trkpt>
      <trkpt lat="39.602517" lon="-4.251383">
        <ele>2383.0</ele>
        <time>2013-07-03T16:28:29Z</time>
      </trkpt>
      <trkpt lat="39.602550" lon="-4.251417">
        <ele>2382.0</ele>
        <time>2013-07-03T16:28:30Z</time>
      </trkpt>
      <trkpt lat="39.602567" lon="-4.251483">
        <ele>2381.0</ele>
        <time>2013-07-03T16:28:31Z</time>
      </trkpt>
      <trkpt lat="39.602583" lon="-4.251583">
        <ele>2380.0</ele>
        <time>2013-07-03T16:28:32Z</time>
      </trkpt>
      <trkpt lat="39.602600" lon="-4.251683">
        <ele>2379.0</ele>
        <time>2013-07-03T16:28:33Z</time>
      </trkpt>
      <trkpt lat="39.602583" lon="-4.251783">
        <ele>2378.0</ele>
        <time>2013-07-03T16:28:34Z</time>
      </trkpt>
      <trkpt lat="39.602550" lon="-4.251867">
        <ele>2377.0</ele>
        <time>2013-07-03T16:28:35Z</time>
      </trkpt>
      <trkpt lat="39.602517" lon="-4.251950">
        <ele>2375.0</ele>
        <time>2013-07-03T16:28:36Z</time>
      </trkpt>
      <trkpt lat="39.602450" lon="-4.252050">
        <ele>2373.0</ele>
        <time>2013-07-03T16:28:37Z</time>
      </trkpt>
      <trkpt lat="39.602350" lon="-4.252117">
        <ele>2371.0</ele>
        <time>2013-07-03T16:28:38Z</time>
      </trkpt>
      <trkpt lat="39.602233" lon="-4.252150">
        <ele>2368.0</ele>
        <time>2013-07-03T16:28:39Z</time>
      </trkpt>
      <trkpt lat="39.602117" lon="-4.252133">
        <ele>2366.0</ele>
        <time>2013-07-03T16:28:40Z</time>
      </trkpt>
      <trkpt lat="39.602000" lon="-4.252050">
        <ele>2365.0</ele>
        <time>2013-07-03T16:28:41Z</time>
      </trkpt>
      <trkpt lat="39.601917" lon="-4.251933">
        <ele>2363.0</ele>
        <time>2013-07-03T16:28:42Z</time>
      </trkpt>
      <trkpt lat="39.601867" lon="-4.251817">
        <ele>2361.0</ele>
        <time>2013-07-03T16:28:43Z</time>
      </trkpt>
      <trkpt lat="39.601850" lon="-4.251683">
        <ele>2360.0</ele>
        <time>2013-07-03T16:28:44Z</time>
      </trkpt>
      <trkpt lat="39.601850" lon="-4.251550">
        <ele>2358.0</ele>
        <time>2013-07-03T16:28:45Z</time>
      </trkpt>
      <trkpt lat="39.601883" lon="-4.251433">
        <ele>2356.0</ele>
        <time>2013-07-03T16:28:46Z</time>
      </trkpt>
      <trkpt lat="39.601950" lon="-4.251350">
        <ele>2354.0</ele>
        <time>2013-07-03T16:28:47Z</time>
      </trkpt>
      <trkpt lat="39.602033" lon="-4.251333">
        <ele>2352.0</ele>
        <time>2013-07-03T16:28:48Z</time>
      </trkpt>
      <trkpt lat="39.602100" lon="-4.251350">
        <ele>2350.0</ele>
        <time>2013-07-03T16:28:49Z</time>
      </trkpt>
      <trkpt lat="39.602150" lon="-4.251417">
        <ele>2349.0</ele>
        <time>2013-07-03T16:28:50Z</time>
      </trkpt>
      <trkpt lat="39.602167" lon="-4.251500">
        <ele>2347.0</ele>
        <time>2013-07-03T16:28:51Z</time>
      </trkpt>
      <trkpt lat="39.602133" lon="-4.251600">
        <ele>2345.0</ele>
        <time>2013-07-03T16:28:52Z</time>
      </trkpt>
      <trkpt lat="39.602100" lon="-4.251683">
        <ele>2343.0</ele>
        <time>2013-07-03T16:28:53Z</time>
      </trkpt>
      <trkpt lat="39.602083" lon="-4.251783">
        <ele>2341.0</ele>
        <time>2013-07-03T16:28:54Z</time>
      </trkpt>
      <trkpt lat="39.602050" lon="-4.251883">
        <ele>2340.0</ele>
        <time>2013-07-03T16:28:55Z</time>
      </trkpt>
      <trkpt lat="39.602033" lon="-4.251983">
        <ele>2339.0</ele>
        <time>2013-07-03T16:28:56Z</time>
      </trkpt>
      <trkpt lat="39.602033" lon="-4.252083">
        <ele>2338.0</ele>
        <time>2013-07-03T16:28:57Z</time>
      </trkpt>
      <trkpt lat="39.602017" lon="-4.252183">
        <ele>2337.0</ele>
        <time>2013-07-03T16:28:58Z</time>
      </trkpt>
      <trkpt lat="39.602017" lon="-4.252300">
        <ele>2336.0</ele>
        <time>2013-07-03T16:28:59Z</time>
      </trkpt>
      <trkpt lat="39.602017" lon="-4.252400">
        <ele>2337.0</ele>
        <time>2013-07-03T16:29:00Z</time>
      </trkpt>
      <trkpt lat="39.602033" lon="-4.252483">
        <ele>2337.0</ele>
        <time>2013-07-03T16:29:01Z</time>
      </trkpt>
      <trkpt lat="39.602050" lon="-4.252567">
        <ele>2337.0</ele>
        <time>2013-07-03T16:29:02Z</time>
      </trkpt>
      <trkpt lat="39.602050" lon="-4.252667">
        <ele>2337.0</ele>
        <time>2013-07-03T16:29:03Z</time>
      </trkpt>
      <trkpt lat="39.602050" lon="-4.252783">
        <ele>2336.0</ele>
        <time>2013-07-03T16:29:04Z</time>
      </trkpt>
      <trkpt lat="39.602050" lon="-4.252883">
        <ele>2334.0</ele>
        <time>2013-07-03T16:29:05Z</time>
      </trkpt>
      <trkpt lat="39.602033" lon="-4.252983">
        <ele>2333.0</ele>
        <time>2013-07-03T16:29:06Z</time>
      </trkpt>
      <trkpt lat="39.602000" lon="-4.253083">
        <ele>2332.0</ele>
        <time>2013-07-03T16:29:07Z</time>
      </trkpt>
      <trkpt lat="39.601967" lon="-4.253183">
        <ele>2331.0</ele>
        <time>2013-07-03T16:29:08Z</time>
      </trkpt>
      <trkpt lat="39.601917" lon="-4.253283">
        <ele>2329.0</ele>
        <time>2013-07-03T16:29:09Z</time>
      </trkpt>
      <trkpt lat="39.601867" lon="-4.253367">
        <ele>2329.0</ele>
        <time>2013-07-03T16:29:10Z</time>
      </trkpt>
      <trkpt lat="39.601783" lon="-4.253433">
        <ele>2328.0</ele>
        <time>2013-07-03T16:29:11Z</time>
      </trkpt>
      <trkpt lat="39.601683" lon="-4.253450">
        <ele>2326.0</ele>
        <time>2013-07-03T16:29:12Z</time>
      </trkpt>
      <trkpt lat="39.601583" lon="-4.253450">
        <ele>2325.0</ele>
        <time>2013-07-03T16:29:13Z</time>
      </trkpt>
      <trkpt lat="39.601467" lon="-4.253417">
        <ele>2325.0</ele>
        <time>2013-07-03T16:29:14Z</time>
      </trkpt>
      <trkpt lat="39.601383" lon="-4.253333">
        <ele>2324.0</ele>
        <time>2013-07-03T16:29:15Z</time>
      </trkpt>
      <trkpt lat="39.601317" lon="-4.253233">
        <ele>2323.0</ele>
        <time>2013-07-03T16:29:16Z</time>
      </trkpt>
      <trkpt lat="39.601300" lon="-4.253100">
        <ele>2322.0</ele>
        <time>2013-07-03T16:29:17Z</time>
      </trkpt>
      <trkpt lat="39.601317" lon="-4.252967">
        <ele>2320.0</ele>
        <time>2013-07-03T16:29:18Z</time>
      </trkpt>
      <trkpt lat="39.601383" lon="-4.252867">
        <ele>2319.0</ele>
        <time>2013-07-03T16:29:19Z</time>
      </trkpt>
      <trkpt lat="39.601483" lon="-4.252867">
        <ele>2318.0</ele>
        <time>2013-07-03T16:29:20Z</time>
      </trkpt>
      <trkpt lat="39.601550" lon="-4.252933">
        <ele>2315.0</ele>
        <time>2013-07-03T16:29:21Z</time>
      </trkpt>
      <trkpt lat="39.601583" lon="-4.253067">
        <ele>2313.0</ele>
        <time>2013-07-03T16:29:22Z</time>
      </trkpt>
      <trkpt lat="39.601550" lon="-4.253200">
        <ele>2311.0</ele>
        <time>2013-07-03T16:29:23Z</time>
      </trkpt>
      <trkpt lat="39.601467" lon="-4.253300">
        <ele>2310.0</ele>
        <time>2013-07-03T16:29:24Z</time>
      </trkpt>
      <trkpt lat="39.601350" lon="-4.253317">
        <ele>2308.0</ele>
        <time>2013-07-03T16:29:25Z</time>
      </trkpt>
      <trkpt lat="39.601233" lon="-4.253267">
        <ele>2306.0</ele>
        <time>2013-07-03T16:29:26Z</time>
      </trkpt>
      <trkpt lat="39.601150" lon="-4.253150">
        <ele>2304.0</ele>
        <time>2013-07-03T16:29:27Z</time>
      </trkpt>
      <trkpt lat="39.601150" lon="-4.252983">
        <ele>2303.0</ele>
        <time>2013-07-03T16:29:28Z</time>
      </trkpt>
      <trkpt lat="39.601217" lon="-4.252883">
        <ele>2301.0</ele>
        <time>2013-07-03T16:29:29Z</time>
      </trkpt>
      <trkpt lat="39.601317" lon="-4.252833">
        <ele>2300.0</ele>
        <time>2013-07-03T16:29:30Z</time>
      </trkpt>
      <trkpt lat="39.601400" lon="-4.252883">
        <ele>2299.0</ele>
        <time>2013-07-03T16:29:31Z</time>
      </trkpt>
      <trkpt lat="39.601450" lon="-4.252983">
        <ele>2298.0</ele>
        <time>2013-07-03T16:29:32Z</time>
      </trkpt>
      <trkpt lat="39.601450" lon="-4.253117">
        <ele>2298.0</ele>
        <time>2013-07-03T16:29:33Z</time>
      </trkpt>
      <trkpt lat="39.601433" lon="-4.253233">
        <ele>2297.0</ele>
        <time>2013-07-03T16:29:34Z</time>
      </trkpt>
      <trkpt lat="39.601383" lon="-4.253350">
        <ele>2297.0</ele>
        <time>2013-07-03T16:29:35Z</time>
      </trkpt>
      <trkpt lat="39.601333" lon="-4.253467">
        <ele>2298.0</ele>
        <time>2013-07-03T16:29:36Z</time>
      </trkpt>
      <trkpt lat="39.601283" lon="-4.253583">
        <ele>2299.0</ele>
        <time>2013-07-03T16:29:37Z</time>
      </trkpt>
      <trkpt lat="39.601250" lon="-4.253700">
        <ele>2299.0</ele>
        <time>2013-07-03T16:29:38Z</time>
      </trkpt>
      <trkpt lat="39.601217" lon="-4.253817">
        <ele>2299.0</ele>
        <time>2013-07-03T16:29:39Z</time>
      </trkpt>
      <trkpt lat="39.601200" lon="-4.253933">
        <ele>2299.0</ele>
        <time>2013-07-03T16:29:40Z</time>
      </trkpt>
      <trkpt lat="39.601167" lon="-4.254033">
        <ele>2299.0</ele>
        <time>2013-07-03T16:29:41Z</time>
      </trkpt>
      <trkpt lat="39.601133" lon="-4.254133">
        <ele>2299.0</ele>
        <time>2013-07-03T16:29:42Z</time>
      </trkpt>
      <trkpt lat="39.601067" lon="-4.254250">
        <ele>2299.0</ele>
        <time>2013-07-03T16:29:43Z</time>
      </trkpt>
      <trkpt lat="39.601000" lon="-4.254350">
        <ele>2299.0</ele>
        <time>2013-07-03T16:29:44Z</time>
      </trkpt>
      <trkpt lat="39.600950" lon="-4.254433">
        <ele>2299.0</ele>
        <time>2013-07-03T16:29:45Z</time>
      </trkpt>
      <trkpt lat="39.600900" lon="-4.254550">
        <ele>2299.0</ele>
        <time>2013-07-03T16:29:46Z</time>
      </trkpt>
      <trkpt lat="39.600883" lon="-4.254650">
        <ele>2299.0</ele>
        <time>2013-07-03T16:29:47Z</time>
      </trkpt>
      <trkpt lat="39.600900" lon="-4.254750">
        <ele>2298.0</ele>
        <time>2013-07-03T16:29:48Z</time>
      </trkpt>
      <trkpt lat="39.600917" lon="-4.254850">
        <ele>2297.0</ele>
        <time>2013-07-03T16:29:49Z</time>
      </trkpt>
      <trkpt lat="39.600933" lon="-4.254950">
        <ele>2298.0</ele>
        <time>2013-07-03T16:29:50Z</time>
      </trkpt>
      <trkpt lat="39.600950" lon="-4.255033">
        <ele>2298.0</ele>
        <time>2013-07-03T16:29:51Z</time>
      </trkpt>
      <trkpt lat="39.600967" lon="-4.255100">
        <ele>2298.0</ele>
        <time>2013-07-03T16:29:52Z</time>
      </trkpt>
      <trkpt lat="39.601000" lon="-4.255150">
        <ele>2297.0</ele>
        <time>2013-07-03T16:29:53Z</time>
      </trkpt>
      <trkpt lat="39.601067" lon="-4.255183">
        <ele>2295.0</ele>
        <time>2013-07-03T16:29:54Z</time>
      </trkpt>
      <trkpt lat="39.601133" lon="-4.255150">
        <ele>2293.0</ele>
        <time>2013-07-03T16:29:55Z</time>
      </trkpt>
      <trkpt lat="39.601183" lon="-4.255050">
        <ele>2291.0</ele>
        <time>2013-07-03T16:29:56Z</time>
      </trkpt>
      <trkpt lat="39.601183" lon="-4.254917">
        <ele>2289.0</ele>
        <time>2013-07-03T16:29:57Z</time>
      </trkpt>
      <trkpt lat="39.601117" lon="-4.254767">
        <ele>2288.0</ele>
        <time>2013-07-03T16:29:58Z</time>
      </trkpt>
      <trkpt lat="39.601017" lon="-4.254683">
        <ele>2287.0</ele>
        <time>2013-07-03T16:29:59Z</time>
      </trkpt>
      <trkpt lat="39.600900" lon="-4.254633">
        <ele>2286.0</ele>
        <time>2013-07-03T16:30:00Z</time>
      </trkpt>
      <trkpt lat="39.600767" lon="-4.254667">
        <ele>2286.0</ele>
        <time>2013-07-03T16:30:01Z</time>
      </trkpt>
      <trkpt lat="39.600650" lon="-4.254733">
        <ele>2285.0</ele>
        <time>2013-07-03T16:30:02Z</time>
      </trkpt>
      <trkpt lat="39.600550" lon="-4.254850">
        <ele>2285.0</ele>
        <time>2013-07-03T16:30:03Z</time>
      </trkpt>
      <trkpt lat="39.600467" lon="-4.254967">
        <ele>2285.0</ele>
        <time>2013-07-03T16:30:04Z</time>
      </trkpt>
      <trkpt lat="39.600433" lon="-4.255100">
        <ele>2285.0</ele>
        <time>2013-07-03T16:30:05Z</time>
      </trkpt>
      <trkpt lat="39.600417" lon="-4.255217">
        <ele>2285.0</ele>
        <time>2013-07-03T16:30:06Z</time>
      </trkpt>
      <trkpt lat="39.600417" lon="-4.255317">
        <ele>2285.0</ele>
        <time>2013-07-03T16:30:07Z</time>
      </trkpt>
      <trkpt lat="39.600450" lon="-4.255417">
        <ele>2285.0</ele>
        <time>2013-07-03T16:30:08Z</time>
      </trkpt>
      <trkpt lat="39.600500" lon="-4.255500">
        <ele>2285.0</ele>
        <time>2013-07-03T16:30:09Z</time>
      </trkpt>
      <trkpt lat="39.600550" lon="-4.255550">
        <ele>2285.0</ele>
        <time>2013-07-03T16:30:10Z</time>
      </trkpt>
      <trkpt lat="39.600617" lon="-4.255583">
        <ele>2285.0</ele>
        <time>2013-07-03T16:30:11Z</time>
      </trkpt>
      <trkpt lat="39.600683" lon="-4.255600">
        <ele>2286.0</ele>
        <time>2013-07-03T16:30:12Z</time>
      </trkpt>
      <trkpt lat="39.600733" lon="-4.255600">
        <ele>2286.0</ele>
        <time>2013-07-03T16:30:13Z</time>
      </trkpt>
      <trkpt lat="39.600800" lon="-4.255583">
        <ele>2287.0</ele>
        <time>2013-07-03T16:30:14Z</time>
      </trkpt>
      <trkpt lat="39.600833" lon="-4.255550">
        <ele>2288.0</ele>
        <time>2013-07-03T16:30:15Z</time>
      </trkpt>
      <trkpt lat="39.600883" lon="-4.255500">
        <ele>2288.0</ele>
        <time>2013-07-03T16:30:16Z</time>
      </trkpt>
      <trkpt lat="39.600933" lon="-4.255450">
        <ele>2289.0</ele>
        <time>2013-07-03T16:30:17Z</time>
      </trkpt>
      <trkpt lat="39.600967" lon="-4.255417">
        <ele>2289.0</ele>
        <time>2013-07-03T16:30:18Z</time>
      </trkpt>
      <trkpt lat="39.601033" lon="-4.255417">
        <ele>2289.0</ele>
        <time>2013-07-03T16:30:19Z</time>
      </trkpt>
      <trkpt lat="39.601083" lon="-4.255417">
        <ele>2289.0</ele>
        <time>2013-07-03T16:30:20Z</time>
      </trkpt>
      <trkpt lat="39.601150" lon="-4.255433">
        <ele>2288.0</ele>
        <time>2013-07-03T16:30:21Z</time>
      </trkpt>
      <trkpt lat="39.601200" lon="-4.255483">
        <ele>2288.0</ele>
        <time>2013-07-03T16:30:22Z</time>
      </trkpt>
      <trkpt lat="39.601250" lon="-4.255550">
        <ele>2288.0</ele>
        <time>2013-07-03T16:30:23Z</time>
      </trkpt>
      <trkpt lat="39.601283" lon="-4.255617">
        <ele>2287.0</ele>
        <time>2013-07-03T16:30:24Z</time>
      </trkpt>
      <trkpt lat="39.601317" lon="-4.255700">
        <ele>2287.0</ele>
        <time>2013-07-03T16:30:25Z</time>
      </trkpt>
      <trkpt lat="39.601350" lon="-4.255800">
        <ele>2286.0</ele>
        <time>2013-07-03T16:30:26Z</time>
      </trkpt>
      <trkpt lat="39.601383" lon="-4.255900">
        <ele>2285.0</ele>
        <time>2013-07-03T16:30:27Z</time>
      </trkpt>
      <trkpt lat="39.601383" lon="-4.256000">
        <ele>2285.0</ele>
        <time>2013-07-03T16:30:28Z</time>
      </trkpt>
      <trkpt lat="39.601383" lon="-4.256100">
        <ele>2284.0</ele>
        <time>2013-07-03T16:30:29Z</time>
      </trkpt>
      <trkpt lat="39.601367" lon="-4.256217">
        <ele>2283.0</ele>
        <time>2013-07-03T16:30:30Z</time>
      </trkpt>
      <trkpt lat="39.601333" lon="-4.256317">
        <ele>2284.0</ele>
        <time>2013-07-03T16:30:31Z</time>
      </trkpt>
      <trkpt lat="39.601300" lon="-4.256417">
        <ele>2284.0</ele>
        <time>2013-07-03T16:30:32Z</time>
      </trkpt>
      <trkpt lat="39.601283" lon="-4.256517">
        <ele>2285.0</ele>
        <time>2013-07-03T16:30:33Z</time>
      </trkpt>
      <trkpt lat="39.601267" lon="-4.256600">
        <ele>2285.0</ele>
        <time>2013-07-03T16:30:34Z</time>
      </trkpt>
      <trkpt lat="39.601250" lon="-4.256700">
        <ele>2286.0</ele>
        <time>2013-07-03T16:30:35Z</time>
      </trkpt>
      <trkpt lat="39.601233" lon="-4.256800">
        <ele>2285.0</ele>
        <time>2013-07-03T16:30:36Z</time>
      </trkpt>
      <trkpt lat="39.601217" lon="-4.256900">
        <ele>2285.0</ele>
        <time>2013-07-03T16:30:37Z</time>
      </trkpt>
      <trkpt lat="39.601200" lon="-4.257017">
        <ele>2285.0</ele>
        <time>2013-07-03T16:30:38Z</time>
      </trkpt>
      <trkpt lat="39.601150" lon="-4.257100">
        <ele>2285.0</ele>
        <time>2013-07-03T16:30:39Z</time>
      </trkpt>
      <trkpt lat="39.601100" lon="-4.257183">
        <ele>2284.0</ele>
        <time>2013-07-03T16:30:40Z</time>
      </trkpt>
      <trkpt lat="39.601033" lon="-4.257283">
        <ele>2283.0</ele>
        <time>2013-07-03T16:30:41Z</time>
      </trkpt>
      <trkpt lat="39.600967" lon="-4.257367">
        <ele>2282.0</ele>
        <time>2013-07-03T16:30:42Z</time>
      </trkpt>
      <trkpt lat="39.600900" lon="-4.257450">
        <ele>2282.0</ele>
        <time>2013-07-03T16:30:43Z</time>
      </trkpt>
      <trkpt lat="39.600833" lon="-4.257517">
        <ele>2281.0</ele>
        <time>2013-07-03T16:30:44Z</time>
      </trkpt>
      <trkpt lat="39.600767" lon="-4.257600">
        <ele>2280.0</ele>
        <time>2013-07-03T16:30:45Z</time>
      </trkpt>
      <trkpt lat="39.600700" lon="-4.257667">
        <ele>2279.0</ele>
        <time>2013-07-03T16:30:46Z</time>
      </trkpt>
      <trkpt lat="39.600617" lon="-4.257750">
        <ele>2278.0</ele>
        <time>2013-07-03T16:30:47Z</time>
      </trkpt>
      <trkpt lat="39.600533" lon="-4.257817">
        <ele>2277.0</ele>
        <time>2013-07-03T16:30:48Z</time>
      </trkpt>
      <trkpt lat="39.600467" lon="-4.257883">
        <ele>2276.0</ele>
        <time>2013-07-03T16:30:49Z</time>
      </trkpt>
      <trkpt lat="39.600383" lon="-4.257933">
        <ele>2274.0</ele>
        <time>2013-07-03T16:30:50Z</time>
      </trkpt>
      <trkpt lat="39.600317" lon="-4.258000">
        <ele>2271.0</ele>
        <time>2013-07-03T16:30:51Z</time>
      </trkpt>
      <trkpt lat="39.600233" lon="-4.258050">
        <ele>2268.0</ele>
        <time>2013-07-03T16:30:52Z</time>
      </trkpt>
      <trkpt lat="39.600150" lon="-4.258133">
        <ele>2266.0</ele>
        <time>2013-07-03T16:30:53Z</time>
      </trkpt>
      <trkpt lat="39.600067" lon="-4.258200">
        <ele>2263.0</ele>
        <time>2013-07-03T16:30:54Z</time>
      </trkpt>
      <trkpt lat="39.600000" lon="-4.258283">
        <ele>2260.0</ele>
        <time>2013-07-03T16:30:55Z</time>
      </trkpt>
      <trkpt lat="39.599933" lon="-4.258367">
        <ele>2257.0</ele>
        <time>2013-07-03T16:30:56Z</time>
      </trkpt>
      <trkpt lat="39.599867" lon="-4.258450">
        <ele>2254.0</ele>
        <time>2013-07-03T16:30:57Z</time>
      </trkpt>
      <trkpt lat="39.599800" lon="-4.258550">
        <ele>2251.0</ele>
        <time>2013-07-03T16:30:58Z</time>
      </trkpt>
      <trkpt lat="39.599733" lon="-4.258633">
        <ele>2248.0</ele>
        <time>2013-07-03T16:30:59Z</time>
      </trkpt>
      <trkpt lat="39.599683" lon="-4.258733">
        <ele>2245.0</ele>
        <time>2013-07-03T16:31:00Z</time>
      </trkpt>
      <trkpt lat="39.599633" lon="-4.258833">
        <ele>2242.0</ele>
        <time>2013-07-03T16:31:01Z</time>
      </trkpt>
      <trkpt lat="39.599583" lon="-4.258933">
        <ele>2239.0</ele>
        <time>2013-07-03T16:31:02Z</time>
      </trkpt>
      <trkpt lat="39.599533" lon="-4.259033">
        <ele>2236.0</ele>
        <time>2013-07-03T16:31:03Z</time>
      </trkpt>
      <trkpt lat="39.599483" lon="-4.259133">
        <ele>2233.0</ele>
        <time>2013-07-03T16:31:04Z</time>
      </trkpt>
      <trkpt lat="39.599433" lon="-4.259217">
        <ele>2230.0</ele>
        <time>2013-07-03T16:31:05Z</time>
      </trkpt>
      <trkpt lat="39.599383" lon="-4.259317">
        <ele>2227.0</ele>
        <time>2013-07-03T16:31:06Z</time>
      </trkpt>
      <trkpt lat="39.599333" lon="-4.259400">
        <ele>2223.0</ele>
        <time>2013-07-03T16:31:07Z</time>
      </trkpt>
      <trkpt lat="39.599250" lon="-4.259467">
        <ele>2219.0</ele>
        <time>2013-07-03T16:31:08Z</time>
      </trkpt>
      <trkpt lat="39.599150" lon="-4.259500">
        <ele>2215.0</ele>
        <time>2013-07-03T16:31:09Z</time>
      </trkpt>
      <trkpt lat="39.599050" lon="-4.259517">
        <ele>2210.0</ele>
        <time>2013-07-03T16:31:10Z</time>
      </trkpt>
      <trkpt lat="39.598950" lon="-4.259517">
        <ele>2207.0</ele>
        <time>2013-07-03T16:31:11Z</time>
      </trkpt>
      <trkpt lat="39.598867" lon="-4.259467">
        <ele>2203.0</ele>
        <time>2013-07-03T16:31:12Z</time>
      </trkpt>
      <trkpt lat="39.598783" lon="-4.259400">
        <ele>2199.0</ele>
        <time>2013-07-03T16:31:13Z</time>
      </trkpt>
      <trkpt lat="39.598717" lon="-4.259317">
        <ele>2195.0</ele>
        <time>2013-07-03T16:31:14Z</time>
      </trkpt>
      <trkpt lat="39.598667" lon="-4.259217">
        <ele>2191.0</ele>
        <time>2013-07-03T16:31:15Z</time>
      </trkpt>
      <trkpt lat="39.598633" lon="-4.259117">
        <ele>2188.0</ele>
        <time>2013-07-03T16:31:16Z</time>
      </trkpt>
      <trkpt lat="39.598617" lon="-4.259000">
        <ele>2184.0</ele>
        <time>2013-07-03T16:31:17Z</time>
      </trkpt>
      <trkpt lat="39.598633" lon="-4.258900">
        <ele>2181.0</ele>
        <time>2013-07-03T16:31:18Z</time>
      </trkpt>
      <trkpt lat="39.598667" lon="-4.258817">
        <ele>2177.0</ele>
        <time>2013-07-03T16:31:19Z</time>
      </trkpt>
      <trkpt lat="39.598717" lon="-4.258750">
        <ele>2173.0</ele>
        <time>2013-07-03T16:31:20Z</time>
      </trkpt>
      <trkpt lat="39.598767" lon="-4.258700">
        <ele>2169.0</ele>
        <time>2013-07-03T16:31:21Z</time>
      </trkpt>
      <trkpt lat="39.598817" lon="-4.258633">
        <ele>2165.0</ele>
        <time>2013-07-03T16:31:22Z</time>
      </trkpt>
      <trkpt lat="39.598883" lon="-4.258600">
        <ele>2162.0</ele>
        <time>2013-07-03T16:31:23Z</time>
      </trkpt>
      <trkpt lat="39.598950" lon="-4.258567">
        <ele>2160.0</ele>
        <time>2013-07-03T16:31:24Z</time>
      </trkpt>
      <trkpt lat="39.599000" lon="-4.258550">
        <ele>2158.0</ele>
        <time>2013-07-03T16:31:25Z</time>
      </trkpt>
      <trkpt lat="39.599067" lon="-4.258550">
        <ele>2155.0</ele>
        <time>2013-07-03T16:31:26Z</time>
      </trkpt>
      <trkpt lat="39.599133" lon="-4.258567">
        <ele>2152.0</ele>
        <time>2013-07-03T16:31:27Z</time>
      </trkpt>
      <trkpt lat="39.599200" lon="-4.258600">
        <ele>2148.0</ele>
        <time>2013-07-03T16:31:28Z</time>
      </trkpt>
      <trkpt lat="39.599267" lon="-4.258633">
        <ele>2145.0</ele>
        <time>2013-07-03T16:31:29Z</time>
      </trkpt>
      <trkpt lat="39.599333" lon="-4.258683">
        <ele>2142.0</ele>
        <time>2013-07-03T16:31:30Z</time>
      </trkpt>
      <trkpt lat="39.599383" lon="-4.258750">
        <ele>2139.0</ele>
        <time>2013-07-03T16:31:31Z</time>
      </trkpt>
      <trkpt lat="39.599450" lon="-4.258833">
        <ele>2138.0</ele>
        <time>2013-07-03T16:31:32Z</time>
      </trkpt>
      <trkpt lat="39.599483" lon="-4.258900">
        <ele>2136.0</ele>
        <time>2013-07-03T16:31:33Z</time>
      </trkpt>
      <trkpt lat="39.599533" lon="-4.258983">
        <ele>2133.0</ele>
        <time>2013-07-03T16:31:34Z</time>
      </trkpt>
      <trkpt lat="39.599550" lon="-4.259083">
        <ele>2130.0</ele>
        <time>2013-07-03T16:31:35Z</time>
      </trkpt>
      <trkpt lat="39.599567" lon="-4.259200">
        <ele>2127.0</ele>
        <time>2013-07-03T16:31:36Z</time>
      </trkpt>
      <trkpt lat="39.599567" lon="-4.259317">
        <ele>2125.0</ele>
        <time>2013-07-03T16:31:37Z</time>
      </trkpt>
      <trkpt lat="39.599550" lon="-4.259417">
        <ele>2122.0</ele>
        <time>2013-07-03T16:31:38Z</time>
      </trkpt>
      <trkpt lat="39.599533" lon="-4.259533">
        <ele>2120.0</ele>
        <time>2013-07-03T16:31:39Z</time>
      </trkpt>
      <trkpt lat="39.599500" lon="-4.259633">
        <ele>2117.0</ele>
        <time>2013-07-03T16:31:40Z</time>
      </trkpt>
      <trkpt lat="39.599450" lon="-4.259750">
        <ele>2115.0</ele>
        <time>2013-07-03T16:31:41Z</time>
      </trkpt>
      <trkpt lat="39.599400" lon="-4.259867">
        <ele>2112.0</ele>
        <time>2013-07-03T16:31:42Z</time>
      </trkpt>
      <trkpt lat="39.599317" lon="-4.259967">
        <ele>2111.0</ele>
        <time>2013-07-03T16:31:43Z</time>
      </trkpt>
      <trkpt lat="39.599233" lon="-4.260050">
        <ele>2108.0</ele>
        <time>2013-07-03T16:31:44Z</time>
      </trkpt>
      <trkpt lat="39.599167" lon="-4.260117">
        <ele>2106.0</ele>
        <time>2013-07-03T16:31:45Z</time>
      </trkpt>
      <trkpt lat="39.599083" lon="-4.260183">
        <ele>2103.0</ele>
        <time>2013-07-03T16:31:46Z</time>
      </trkpt>
      <trkpt lat="39.599000" lon="-4.260250">
        <ele>2099.0</ele>
        <time>2013-07-03T16:31:47Z</time>
      </trkpt>
      <trkpt lat="39.598900" lon="-4.260317">
        <ele>2094.0</ele>
        <time>2013-07-03T16:31:48Z</time>
      </trkpt>
      <trkpt lat="39.598800" lon="-4.260350">
        <ele>2090.0</ele>
        <time>2013-07-03T16:31:49Z</time>
      </trkpt>
      <trkpt lat="39.598700" lon="-4.260367">
        <ele>2086.0</ele>
        <time>2013-07-03T16:31:50Z</time>
      </trkpt>
      <trkpt lat="39.598600" lon="-4.260367">
        <ele>2082.0</ele>
        <time>2013-07-03T16:31:51Z</time>
      </trkpt>
      <trkpt lat="39.598500" lon="-4.260367">
        <ele>2077.0</ele>
        <time>2013-07-03T16:31:52Z</time>
      </trkpt>
      <trkpt lat="39.598400" lon="-4.260350">
        <ele>2073.0</ele>
        <time>2013-07-03T16:31:53Z</time>
      </trkpt>
      <trkpt lat="39.598317" lon="-4.260317">
        <ele>2069.0</ele>
        <time>2013-07-03T16:31:54Z</time>
      </trkpt>
      <trkpt lat="39.598233" lon="-4.260250">
        <ele>2065.0</ele>
        <time>2013-07-03T16:31:55Z</time>
      </trkpt>
      <trkpt lat="39.598167" lon="-4.260183">
        <ele>2060.0</ele>
        <time>2013-07-03T16:31:56Z</time>
      </trkpt>
      <trkpt lat="39.598100" lon="-4.260100">
        <ele>2056.0</ele>
        <time>2013-07-03T16:31:57Z</time>
      </trkpt>
      <trkpt lat="39.598050" lon="-4.260017">
        <ele>2053.0</ele>
        <time>2013-07-03T16:31:58Z</time>
      </trkpt>
      <trkpt lat="39.598000" lon="-4.259950">
        <ele>2049.0</ele>
        <time>2013-07-03T16:31:59Z</time>
      </trkpt>
      <trkpt lat="39.597950" lon="-4.259850">
        <ele>2045.0</ele>
        <time>2013-07-03T16:32:00Z</time>
      </trkpt>
      <trkpt lat="39.597917" lon="-4.259767">
        <ele>2040.0</ele>
        <time>2013-07-03T16:32:01Z</time>
      </trkpt>
      <trkpt lat="39.597883" lon="-4.259650">
        <ele>2036.0</ele>
        <time>2013-07-03T16:32:02Z</time>
      </trkpt>
      <trkpt lat="39.597850" lon="-4.259550">
        <ele>2032.0</ele>
        <time>2013-07-03T16:32:03Z</time>
      </trkpt>
      <trkpt lat="39.597817" lon="-4.259450">
        <ele>2029.0</ele>
        <time>2013-07-03T16:32:04Z</time>
      </trkpt>
      <trkpt lat="39.597817" lon="-4.259367">
        <ele>2025.0</ele>
        <time>2013-07-03T16:32:05Z</time>
      </trkpt>
      <trkpt lat="39.597800" lon="-4.259267">
        <ele>2021.0</ele>
        <time>2013-07-03T16:32:06Z</time>
      </trkpt>
      <trkpt lat="39.597800" lon="-4.259183">
        <ele>2016.0</ele>
        <time>2013-07-03T16:32:07Z</time>
      </trkpt>
      <trkpt lat="39.597800" lon="-4.259083">
        <ele>2012.0</ele>
        <time>2013-07-03T16:32:08Z</time>
      </trkpt>
      <trkpt lat="39.597833" lon="-4.259000">
        <ele>2007.0</ele>
        <time>2013-07-03T16:32:09Z</time>
      </trkpt>
      <trkpt lat="39.597867" lon="-4.258900">
        <ele>2004.0</ele>
        <time>2013-07-03T16:32:10Z</time>
      </trkpt>
      <trkpt lat="39.597933" lon="-4.258850">
        <ele>2000.0</ele>
        <time>2013-07-03T16:32:11Z</time>
      </trkpt>
      <trkpt lat="39.597983" lon="-4.258800">
        <ele>1997.0</ele>
        <time>2013-07-03T16:32:12Z</time>
      </trkpt>
      <trkpt lat="39.598033" lon="-4.258767">
        <ele>1994.0</ele>
        <time>2013-07-03T16:32:13Z</time>
      </trkpt>
      <trkpt lat="39.598100" lon="-4.258750">
        <ele>1991.0</ele>
        <time>2013-07-03T16:32:14Z</time>
      </trkpt>
      <trkpt lat="39.598167" lon="-4.258750">
        <ele>1988.0</ele>
        <time>2013-07-03T16:32:15Z</time>
      </trkpt>
      <trkpt lat="39.598250" lon="-4.258750">
        <ele>1986.0</ele>
        <time>2013-07-03T16:32:16Z</time>
      </trkpt>
      <trkpt lat="39.598317" lon="-4.258750">
        <ele>1986.0</ele>
        <time>2013-07-03T16:32:17Z</time>
      </trkpt>
      <trkpt lat="39.598367" lon="-4.258767">
        <ele>1984.0</ele>
        <time>2013-07-03T16:32:18Z</time>
      </trkpt>
      <trkpt lat="39.598433" lon="-4.258783">
        <ele>1983.0</ele>
        <time>2013-07-03T16:32:19Z</time>
      </trkpt>
      <trkpt lat="39.598483" lon="-4.258833">
        <ele>1980.0</ele>
        <time>2013-07-03T16:32:20Z</time>
      </trkpt>
      <trkpt lat="39.598517" lon="-4.258900">
        <ele>1978.0</ele>
        <time>2013-07-03T16:32:21Z</time>
      </trkpt>
      <trkpt lat="39.598550" lon="-4.258983">
        <ele>1976.0</ele>
        <time>2013-07-03T16:32:22Z</time>
      </trkpt>
      <trkpt lat="39.598583" lon="-4.259083">
        <ele>1973.0</ele>
        <time>2013-07-03T16:32:23Z</time>
      </trkpt>
      <trkpt lat="39.598600" lon="-4.259183">
        <ele>1971.0</ele>
        <time>2013-07-03T16:32:24Z</time>
      </trkpt>
      <trkpt lat="39.598617" lon="-4.259283">
        <ele>1972.0</ele>
        <time>2013-07-03T16:32:25Z</time>
      </trkpt>
      <trkpt lat="39.598633" lon="-4.259400">
        <ele>1970.0</ele>
        <time>2013-07-03T16:32:26Z</time>
      </trkpt>
      <trkpt lat="39.598650" lon="-4.259500">
        <ele>1968.0</ele>
        <time>2013-07-03T16:32:27Z</time>
      </trkpt>
      <trkpt lat="39.598650" lon="-4.259600">
        <ele>1965.0</ele>
        <time>2013-07-03T16:32:28Z</time>
      </trkpt>
      <trkpt lat="39.598633" lon="-4.259717">
        <ele>1963.0</ele>
        <time>2013-07-03T16:32:29Z</time>
      </trkpt>
      <trkpt lat="39.598600" lon="-4.259817">
        <ele>1960.0</ele>
        <time>2013-07-03T16:32:30Z</time>
      </trkpt>
      <trkpt lat="39.598533" lon="-4.259933">
        <ele>1956.0</ele>
        <time>2013-07-03T16:32:31Z</time>
      </trkpt>
      <trkpt lat="39.598467" lon="-4.260050">
        <ele>1953.0</ele>
        <time>2013-07-03T16:32:32Z</time>
      </trkpt>
      <trkpt lat="39.598400" lon="-4.260150">
        <ele>1950.0</ele>
        <time>2013-07-03T16:32:33Z</time>
      </trkpt>
      <trkpt lat="39.598317" lon="-4.260250">
        <ele>1947.0</ele>
        <time>2013-07-03T16:32:34Z</time>
      </trkpt>
      <trkpt lat="39.598217" lon="-4.260333">
        <ele>1944.0</ele>
        <time>2013-07-03T16:32:35Z</time>
      </trkpt>
      <trkpt lat="39.598117" lon="-4.260400">
        <ele>1941.0</ele>
        <time>2013-07-03T16:32:36Z</time>
      </trkpt>
      <trkpt lat="39.598017" lon="-4.260467">
        <ele>1938.0</ele>
        <time>2013-07-03T16:32:37Z</time>
      </trkpt>
      <trkpt lat="39.597900" lon="-4.260517">
        <ele>1935.0</ele>
        <time>2013-07-03T16:32:38Z</time>
      </trkpt>
      <trkpt lat="39.597783" lon="-4.260550">
        <ele>1932.0</ele>
        <time>2013-07-03T16:32:39Z</time>
      </trkpt>
      <trkpt lat="39.597667" lon="-4.260550">
        <ele>1930.0</ele>
        <time>2013-07-03T16:32:40Z</time>
      </trkpt>
      <trkpt lat="39.597567" lon="-4.260550">
        <ele>1928.0</ele>
        <time>2013-07-03T16:32:41Z</time>
      </trkpt>
      <trkpt lat="39.597467" lon="-4.260533">
        <ele>1926.0</ele>
        <time>2013-07-03T16:32:42Z</time>
      </trkpt>
      <trkpt lat="39.597367" lon="-4.260500">
        <ele>1923.0</ele>
        <time>2013-07-03T16:32:43Z</time>
      </trkpt>
      <trkpt lat="39.597283" lon="-4.260450">
        <ele>1921.0</ele>
        <time>2013-07-03T16:32:44Z</time>
      </trkpt>
      <trkpt lat="39.597217" lon="-4.260417">
        <ele>1918.0</ele>
        <time>2013-07-03T16:32:45Z</time>
      </trkpt>
      <trkpt lat="39.597150" lon="-4.260350">
        <ele>1915.0</ele>
        <time>2013-07-03T16:32:46Z</time>
      </trkpt>
      <trkpt lat="39.597067" lon="-4.260283">
        <ele>1913.0</ele>
        <time>2013-07-03T16:32:47Z</time>
      </trkpt>
      <trkpt lat="39.596983" lon="-4.260217">
        <ele>1910.0</ele>
        <time>2013-07-03T16:32:48Z</time>
      </trkpt>
      <trkpt lat="39.596917" lon="-4.260150">
        <ele>1907.0</ele>
        <time>2013-07-03T16:32:49Z</time>
      </trkpt>
      <trkpt lat="39.596867" lon="-4.260083">
        <ele>1904.0</ele>
        <time>2013-07-03T16:32:50Z</time>
      </trkpt>
      <trkpt lat="39.596783" lon="-4.260017">
        <ele>1901.0</ele>
        <time>2013-07-03T16:32:51Z</time>
      </trkpt>
      <trkpt lat="39.596700" lon="-4.259967">
        <ele>1898.0</ele>
        <time>2013-07-03T16:32:52Z</time>
      </trkpt>
      <trkpt lat="39.596617" lon="-4.259917">
        <ele>1895.0</ele>
        <time>2013-07-03T16:32:53Z</time>
      </trkpt>
      <trkpt lat="39.596517" lon="-4.259867">
        <ele>1891.0</ele>
        <time>2013-07-03T16:32:54Z</time>
      </trkpt>
      <trkpt lat="39.596417" lon="-4.259817">
        <ele>1888.0</ele>
        <time>2013-07-03T16:32:55Z</time>
      </trkpt>
      <trkpt lat="39.596317" lon="-4.259767">
        <ele>1885.0</ele>
        <time>2013-07-03T16:32:56Z</time>
      </trkpt>
      <trkpt lat="39.596217" lon="-4.259733">
        <ele>1882.0</ele>
        <time>2013-07-03T16:32:57Z</time>
      </trkpt>
      <trkpt lat="39.596117" lon="-4.259683">
        <ele>1879.0</ele>
        <time>2013-07-03T16:32:58Z</time>
      </trkpt>
      <trkpt lat="39.596017" lon="-4.259633">
        <ele>1876.0</ele>
        <time>2013-07-03T16:32:59Z</time>
      </trkpt>
      <trkpt lat="39.595933" lon="-4.259583">
        <ele>1873.0</ele>
        <time>2013-07-03T16:33:00Z</time>
      </trkpt>
      <trkpt lat="39.595833" lon="-4.259500">
        <ele>1869.0</ele>
        <time>2013-07-03T16:33:01Z</time>
      </trkpt>
      <trkpt lat="39.595750" lon="-4.259433">
        <ele>1866.0</ele>
        <time>2013-07-03T16:33:02Z</time>
      </trkpt>
      <trkpt lat="39.595667" lon="-4.259350">
        <ele>1863.0</ele>
        <time>2013-07-03T16:33:03Z</time>
      </trkpt>
      <trkpt lat="39.595600" lon="-4.259267">
        <ele>1860.0</ele>
        <time>2013-07-03T16:33:04Z</time>
      </trkpt>
      <trkpt lat="39.595550" lon="-4.259167">
        <ele>1858.0</ele>
        <time>2013-07-03T16:33:05Z</time>
      </trkpt>
      <trkpt lat="39.595500" lon="-4.259083">
        <ele>1855.0</ele>
        <time>2013-07-03T16:33:06Z</time>
      </trkpt>
      <trkpt lat="39.595450" lon="-4.258983">
        <ele>1852.0</ele>
        <time>2013-07-03T16:33:07Z</time>
      </trkpt>
      <trkpt lat="39.595400" lon="-4.258883">
        <ele>1849.0</ele>
        <time>2013-07-03T16:33:08Z</time>
      </trkpt>
      <trkpt lat="39.595367" lon="-4.258767">
        <ele>1847.0</ele>
        <time>2013-07-03T16:33:09Z</time>
      </trkpt>
      <trkpt lat="39.595333" lon="-4.258650">
        <ele>1845.0</ele>
        <time>2013-07-03T16:33:10Z</time>
      </trkpt>
      <trkpt lat="39.595283" lon="-4.258567">
        <ele>1843.0</ele>
        <time>2013-07-03T16:33:11Z</time>
      </trkpt>
      <trkpt lat="39.595250" lon="-4.258483">
        <ele>1841.0</ele>
        <time>2013-07-03T16:33:12Z</time>
      </trkpt>
      <trkpt lat="39.595217" lon="-4.258400">
        <ele>1839.0</ele>
        <time>2013-07-03T16:33:13Z</time>
      </trkpt>
      <trkpt lat="39.595183" lon="-4.258300">
        <ele>1836.0</ele>
        <time>2013-07-03T16:33:14Z</time>
      </trkpt>
      <trkpt lat="39.595167" lon="-4.258200">
        <ele>1833.0</ele>
        <time>2013-07-03T16:33:15Z</time>
      </trkpt>
      <trkpt lat="39.595150" lon="-4.258083">
        <ele>1830.0</ele>
        <time>2013-07-03T16:33:16Z</time>
      </trkpt>
      <trkpt lat="39.595133" lon="-4.257983">
        <ele>1830.0</ele>
        <time>2013-07-03T16:33:17Z</time>
      </trkpt>
      <trkpt lat="39.595117" lon="-4.257883">
        <ele>1829.0</ele>
        <time>2013-07-03T16:33:18Z</time>
      </trkpt>
      <trkpt lat="39.595117" lon="-4.257800">
        <ele>1827.0</ele>
        <time>2013-07-03T16:33:19Z</time>
      </trkpt>
      <trkpt lat="39.595117" lon="-4.257717">
        <ele>1827.0</ele>
        <time>2013-07-03T16:33:20Z</time>
      </trkpt>
      <trkpt lat="39.595117" lon="-4.257633">
        <ele>1826.0</ele>
        <time>2013-07-03T16:33:21Z</time>
      </trkpt>
      <trkpt lat="39.595133" lon="-4.257533">
        <ele>1824.0</ele>
        <time>2013-07-03T16:33:22Z</time>
      </trkpt>
      <trkpt lat="39.595133" lon="-4.257450">
        <ele>1822.0</ele>
        <time>2013-07-03T16:33:23Z</time>
      </trkpt>
      <trkpt lat="39.595133" lon="-4.257350">
        <ele>1820.0</ele>
        <time>2013-07-03T16:33:24Z</time>
      </trkpt>
      <trkpt lat="39.595117" lon="-4.257250">
        <ele>1818.0</ele>
        <time>2013-07-03T16:33:25Z</time>
      </trkpt>
      <trkpt lat="39.595100" lon="-4.257167">
        <ele>1815.0</ele>
        <time>2013-07-03T16:33:26Z</time>
      </trkpt>
      <trkpt lat="39.595100" lon="-4.257083">
        <ele>1813.0</ele>
        <time>2013-07-03T16:33:27Z</time>
      </trkpt>
      <trkpt lat="39.595100" lon="-4.257000">
        <ele>1811.0</ele>
        <time>2013-07-03T16:33:28Z</time>
      </trkpt>
      <trkpt lat="39.595117" lon="-4.256917">
        <ele>1808.0</ele>
        <time>2013-07-03T16:33:29Z</time>
      </trkpt>
      <trkpt lat="39.595133" lon="-4.256833">
        <ele>1806.0</ele>
        <time>2013-07-03T16:33:30Z</time>
      </trkpt>
      <trkpt lat="39.595167" lon="-4.256767">
        <ele>1804.0</ele>
        <time>2013-07-03T16:33:31Z</time>
      </trkpt>
      <trkpt lat="39.595183" lon="-4.256700">
        <ele>1802.0</ele>
        <time>2013-07-03T16:33:32Z</time>
      </trkpt>
      <trkpt lat="39.595183" lon="-4.256617">
        <ele>1800.0</ele>
        <time>2013-07-03T16:33:33Z</time>
      </trkpt>
      <trkpt lat="39.595183" lon="-4.256517">
        <ele>1797.0</ele>
        <time>2013-07-03T16:33:34Z</time>
      </trkpt>
      <trkpt lat="39.595133" lon="-4.256400">
        <ele>1793.0</ele>
        <time>2013-07-03T16:33:35Z</time>
      </trkpt>
      <trkpt lat="39.595067" lon="-4.256300">
        <ele>1790.0</ele>
        <time>2013-07-03T16:33:36Z</time>
      </trkpt>
      <trkpt lat="39.594967" lon="-4.256217">
        <ele>1786.0</ele>
        <time>2013-07-03T16:33:37Z</time>
      </trkpt>
      <trkpt lat="39.594850" lon="-4.256167">
        <ele>1782.0</ele>
        <time>2013-07-03T16:33:38Z</time>
      </trkpt>
      <trkpt lat="39.594717" lon="-4.256167">
        <ele>1779.0</ele>
        <time>2013-07-03T16:33:39Z</time>
      </trkpt>
      <trkpt lat="39.594583" lon="-4.256200">
        <ele>1775.0</ele>
        <time>2013-07-03T16:33:40Z</time>
      </trkpt>
      <trkpt lat="39.594467" lon="-4.256283">
        <ele>1772.0</ele>
        <time>2013-07-03T16:33:41Z</time>
      </trkpt>
      <trkpt lat="39.594367" lon="-4.256383">
        <ele>1770.0</ele>
        <time>2013-07-03T16:33:42Z</time>
      </trkpt>
      <trkpt lat="39.594317" lon="-4.256500">
        <ele>1767.0</ele>
        <time>2013-07-03T16:33:43Z</time>
      </trkpt>
      <trkpt lat="39.594283" lon="-4.256617">
        <ele>1764.0</ele>
        <time>2013-07-03T16:33:44Z</time>
      </trkpt>
      <trkpt lat="39.594300" lon="-4.256733">
        <ele>1761.0</ele>
        <time>2013-07-03T16:33:45Z</time>
      </trkpt>
      <trkpt lat="39.594333" lon="-4.256800">
        <ele>1758.0</ele>
        <time>2013-07-03T16:33:46Z</time>
      </trkpt>
      <trkpt lat="39.594383" lon="-4.256850">
        <ele>1755.0</ele>
        <time>2013-07-03T16:33:47Z</time>
      </trkpt>
      <trkpt lat="39.594433" lon="-4.256850">
        <ele>1752.0</ele>
        <time>2013-07-03T16:33:48Z</time>
      </trkpt>
      <trkpt lat="39.594483" lon="-4.256800">
        <ele>1748.0</ele>
        <time>2013-07-03T16:33:49Z</time>
      </trkpt>
      <trkpt lat="39.594500" lon="-4.256717">
        <ele>1744.0</ele>
        <time>2013-07-03T16:33:50Z</time>
      </trkpt>
      <trkpt lat="39.594517" lon="-4.256617">
        <ele>1742.0</ele>
        <time>2013-07-03T16:33:51Z</time>
      </trkpt>
      <trkpt lat="39.594500" lon="-4.256517">
        <ele>1739.0</ele>
        <time>2013-07-03T16:33:52Z</time>
      </trkpt>
      <trkpt lat="39.594467" lon="-4.256400">
        <ele>1737.0</ele>
        <time>2013-07-03T16:33:53Z</time>
      </trkpt>
      <trkpt lat="39.594400" lon="-4.256300">
        <ele>1734.0</ele>
        <time>2013-07-03T16:33:54Z</time>
      </trkpt>
      <trkpt lat="39.594317" lon="-4.256200">
        <ele>1731.0</ele>
        <time>2013-07-03T16:33:55Z</time>
      </trkpt>
      <trkpt lat="39.594217" lon="-4.256117">
        <ele>1728.0</ele>
        <time>2013-07-03T16:33:56Z</time>
      </trkpt>
      <trkpt lat="39.594100" lon="-4.256067">
        <ele>1725.0</ele>
        <time>2013-07-03T16:33:57Z</time>
      </trkpt>
      <trkpt lat="39.593967" lon="-4.256067">
        <ele>1721.0</ele>
        <time>2013-07-03T16:33:58Z</time>
      </trkpt>
      <trkpt lat="39.593833" lon="-4.256100">
        <ele>1717.0</ele>
        <time>2013-07-03T16:33:59Z</time>
      </trkpt>
      <trkpt lat="39.593717" lon="-4.256183">
        <ele>1713.0</ele>
        <time>2013-07-03T16:34:00Z</time>
      </trkpt>
      <trkpt lat="39.593633" lon="-4.256317">
        <ele>1709.0</ele>
        <time>2013-07-03T16:34:01Z</time>
      </trkpt>
      <trkpt lat="39.593617" lon="-4.256467">
        <ele>1705.0</ele>
        <time>2013-07-03T16:34:02Z</time>
      </trkpt>
      <trkpt lat="39.593650" lon="-4.256567">
        <ele>1700.0</ele>
        <time>2013-07-03T16:34:03Z</time>
      </trkpt>
      <trkpt lat="39.593700" lon="-4.256600">
        <ele>1696.0</ele>
        <time>2013-07-03T16:34:04Z</time>
      </trkpt>
      <trkpt lat="39.593767" lon="-4.256567">
        <ele>1692.0</ele>
        <time>2013-07-03T16:34:05Z</time>
      </trkpt>
      <trkpt lat="39.593783" lon="-4.256450">
        <ele>1687.0</ele>
        <time>2013-07-03T16:34:06Z</time>
      </trkpt>
      <trkpt lat="39.593733" lon="-4.256317">
        <ele>1683.0</ele>
        <time>2013-07-03T16:34:07Z</time>
      </trkpt>
      <trkpt lat="39.593650" lon="-4.256200">
        <ele>1679.0</ele>
        <time>2013-07-03T16:34:08Z</time>
      </trkpt>
      <trkpt lat="39.593517" lon="-4.256150">
        <ele>1675.0</ele>
        <time>2013-07-03T16:34:09Z</time>
      </trkpt>
      <trkpt lat="39.593367" lon="-4.256167">
        <ele>1671.0</ele>
        <time>2013-07-03T16:34:10Z</time>
      </trkpt>
      <trkpt lat="39.593233" lon="-4.256233">
        <ele>1669.0</ele>
        <time>2013-07-03T16:34:11Z</time>
      </trkpt>
      <trkpt lat="39.593133" lon="-4.256333">
        <ele>1667.0</ele>
        <time>2013-07-03T16:34:12Z</time>
      </trkpt>
      <trkpt lat="39.593033" lon="-4.256450">
        <ele>1664.0</ele>
        <time>2013-07-03T16:34:13Z</time>
      </trkpt>
      <trkpt lat="39.592967" lon="-4.256567">
        <ele>1661.0</ele>
        <time>2013-07-03T16:34:14Z</time>
      </trkpt>
      <trkpt lat="39.592933" lon="-4.256700">
        <ele>1658.0</ele>
        <time>2013-07-03T16:34:15Z</time>
      </trkpt>
      <trkpt lat="39.592917" lon="-4.256800">
        <ele>1654.0</ele>
        <time>2013-07-03T16:34:16Z</time>
      </trkpt>
      <trkpt lat="39.592917" lon="-4.256900">
        <ele>1651.0</ele>
        <time>2013-07-03T16:34:17Z</time>
      </trkpt>
      <trkpt lat="39.592933" lon="-4.256983">
        <ele>1647.0</ele>
        <time>2013-07-03T16:34:18Z</time>
      </trkpt>
      <trkpt lat="39.592983" lon="-4.257033">
        <ele>1644.0</ele>
        <time>2013-07-03T16:34:19Z</time>
      </trkpt>
      <trkpt lat="39.593017" lon="-4.257050">
        <ele>1640.0</ele>
        <time>2013-07-03T16:34:20Z</time>
      </trkpt>
      <trkpt lat="39.593050" lon="-4.257050">
        <ele>1637.0</ele>
        <time>2013-07-03T16:34:21Z</time>
      </trkpt>
      <trkpt lat="39.593083" lon="-4.257017">
        <ele>1634.0</ele>
        <time>2013-07-03T16:34:22Z</time>
      </trkpt>
      <trkpt lat="39.593117" lon="-4.256950">
        <ele>1631.0</ele>
        <time>2013-07-03T16:34:23Z</time>
      </trkpt>
      <trkpt lat="39.593133" lon="-4.256883">
        <ele>1627.0</ele>
        <time>2013-07-03T16:34:24Z</time>
      </trkpt>
      <trkpt lat="39.593133" lon="-4.256783">
        <ele>1624.0</ele>
        <time>2013-07-03T16:34:25Z</time>
      </trkpt>
      <trkpt lat="39.593117" lon="-4.256683">
        <ele>1622.0</ele>
        <time>2013-07-03T16:34:26Z</time>
      </trkpt>
      <trkpt lat="39.593083" lon="-4.256567">
        <ele>1619.0</ele>
        <time>2013-07-03T16:34:27Z</time>
      </trkpt>
      <trkpt lat="39.593050" lon="-4.256450">
        <ele>1616.0</ele>
        <time>2013-07-03T16:34:28Z</time>
      </trkpt>
      <trkpt lat="39.593000" lon="-4.256333">
        <ele>1614.0</ele>
        <time>2013-07-03T16:34:29Z</time>
      </trkpt>
      <trkpt lat="39.592950" lon="-4.256217">
        <ele>1611.0</ele>
        <time>2013-07-03T16:34:30Z</time>
      </trkpt>
      <trkpt lat="39.592900" lon="-4.256117">
        <ele>1608.0</ele>
        <time>2013-07-03T16:34:31Z</time>
      </trkpt>
      <trkpt lat="39.592850" lon="-4.256000">
        <ele>1605.0</ele>
        <time>2013-07-03T16:34:32Z</time>
      </trkpt>
      <trkpt lat="39.592817" lon="-4.255883">
        <ele>1602.0</ele>
        <time>2013-07-03T16:34:33Z</time>
      </trkpt>
      <trkpt lat="39.592800" lon="-4.255783">
        <ele>1599.0</ele>
        <time>2013-07-03T16:34:34Z</time>
      </trkpt>
      <trkpt lat="39.592783" lon="-4.255667">
        <ele>1597.0</ele>
        <time>2013-07-03T16:34:35Z</time>
      </trkpt>
      <trkpt lat="39.592783" lon="-4.255583">
        <ele>1595.0</ele>
        <time>2013-07-03T16:34:36Z</time>
      </trkpt>
      <trkpt lat="39.592800" lon="-4.255483">
        <ele>1594.0</ele>
        <time>2013-07-03T16:34:37Z</time>
      </trkpt>
      <trkpt lat="39.592800" lon="-4.255400">
        <ele>1592.0</ele>
        <time>2013-07-03T16:34:38Z</time>
      </trkpt>
      <trkpt lat="39.592817" lon="-4.255317">
        <ele>1593.0</ele>
        <time>2013-07-03T16:34:39Z</time>
      </trkpt>
      <trkpt lat="39.592850" lon="-4.255267">
        <ele>1592.0</ele>
        <time>2013-07-03T16:34:40Z</time>
      </trkpt>
      <trkpt lat="39.592883" lon="-4.255217">
        <ele>1590.0</ele>
        <time>2013-07-03T16:34:41Z</time>
      </trkpt>
      <trkpt lat="39.592917" lon="-4.255200">
        <ele>1589.0</ele>
        <time>2013-07-03T16:34:42Z</time>
      </trkpt>
      <trkpt lat="39.592967" lon="-4.255200">
        <ele>1587.0</ele>
        <time>2013-07-03T16:34:43Z</time>
      </trkpt>
      <trkpt lat="39.593017" lon="-4.255217">
        <ele>1586.0</ele>
        <time>2013-07-03T16:34:44Z</time>
      </trkpt>
      <trkpt lat="39.593050" lon="-4.255217">
        <ele>1584.0</ele>
        <time>2013-07-03T16:34:45Z</time>
      </trkpt>
      <trkpt lat="39.593083" lon="-4.255183">
        <ele>1581.0</ele>
        <time>2013-07-03T16:34:46Z</time>
      </trkpt>
      <trkpt lat="39.593133" lon="-4.255133">
        <ele>1579.0</ele>
        <time>2013-07-03T16:34:47Z</time>
      </trkpt>
      <trkpt lat="39.593150" lon="-4.255033">
        <ele>1577.0</ele>
        <time>2013-07-03T16:34:48Z</time>
      </trkpt>
      <trkpt lat="39.593183" lon="-4.254950">
        <ele>1575.0</ele>
        <time>2013-07-03T16:34:49Z</time>
      </trkpt>
      <trkpt lat="39.593183" lon="-4.254850">
        <ele>1574.0</ele>
        <time>2013-07-03T16:34:50Z</time>
      </trkpt>
      <trkpt lat="39.593183" lon="-4.254750">
        <ele>1572.0</ele>
        <time>2013-07-03T16:34:51Z</time>
      </trkpt>
      <trkpt lat="39.593183" lon="-4.254633">
        <ele>1569.0</ele>
        <time>2013-07-03T16:34:52Z</time>
      </trkpt>
      <trkpt lat="39.593167" lon="-4.254517">
        <ele>1566.0</ele>
        <time>2013-07-03T16:34:53Z</time>
      </trkpt>
      <trkpt lat="39.593150" lon="-4.254400">
        <ele>1564.0</ele>
        <time>2013-07-03T16:34:54Z</time>
      </trkpt>
      <trkpt lat="39.593133" lon="-4.254283">
        <ele>1562.0</ele>
        <time>2013-07-03T16:34:55Z</time>
      </trkpt>
      <trkpt lat="39.593133" lon="-4.254183">
        <ele>1561.0</ele>
        <time>2013-07-03T16:34:56Z</time>
      </trkpt>
      <trkpt lat="39.593150" lon="-4.254117">
        <ele>1559.0</ele>
        <time>2013-07-03T16:34:57Z</time>
      </trkpt>
      <trkpt lat="39.593183" lon="-4.254033">
        <ele>1557.0</ele>
        <time>2013-07-03T16:34:58Z</time>
      </trkpt>
      <trkpt lat="39.593217" lon="-4.253983">
        <ele>1556.0</ele>
        <time>2013-07-03T16:34:59Z</time>
      </trkpt>
      <trkpt lat="39.593250" lon="-4.253917">
        <ele>1555.0</ele>
        <time>2013-07-03T16:35:00Z</time>
      </trkpt>
      <trkpt lat="39.593267" lon="-4.253867">
        <ele>1555.0</ele>
        <time>2013-07-03T16:35:01Z</time>
      </trkpt>
      <trkpt lat="39.593283" lon="-4.253833">
        <ele>1554.0</ele>
        <time>2013-07-03T16:35:02Z</time>
      </trkpt>
      <trkpt lat="39.593317" lon="-4.253800">
        <ele>1552.0</ele>
        <time>2013-07-03T16:35:03Z</time>
      </trkpt>
      <trkpt lat="39.593350" lon="-4.253800">
        <ele>1549.0</ele>
        <time>2013-07-03T16:35:04Z</time>
      </trkpt>
      <trkpt lat="39.593383" lon="-4.253800">
        <ele>1546.0</ele>
        <time>2013-07-03T16:35:05Z</time>
      </trkpt>
      <trkpt lat="39.593433" lon="-4.253800">
        <ele>1544.0</ele>
        <time>2013-07-03T16:35:06Z</time>
      </trkpt>
      <trkpt lat="39.593467" lon="-4.253783">
        <ele>1542.0</ele>
        <time>2013-07-03T16:35:07Z</time>
      </trkpt>
      <trkpt lat="39.593483" lon="-4.253783">
        <ele>1540.0</ele>
        <time>2013-07-03T16:35:08Z</time>
      </trkpt>
      <trkpt lat="39.593517" lon="-4.253783">
        <ele>1538.0</ele>
        <time>2013-07-03T16:35:09Z</time>
      </trkpt>
      <trkpt lat="39.593550" lon="-4.253800">
        <ele>1536.0</ele>
        <time>2013-07-03T16:35:10Z</time>
      </trkpt>
      <trkpt lat="39.593583" lon="-4.253850">
        <ele>1532.0</ele>
        <time>2013-07-03T16:35:11Z</time>
      </trkpt>
      <trkpt lat="39.593600" lon="-4.253917">
        <ele>1529.0</ele>
        <time>2013-07-03T16:35:12Z</time>
      </trkpt>
      <trkpt lat="39.593617" lon="-4.253983">
        <ele>1526.0</ele>
        <time>2013-07-03T16:35:13Z</time>
      </trkpt>
      <trkpt lat="39.593617" lon="-4.254067">
        <ele>1524.0</ele>
        <time>2013-07-03T16:35:14Z</time>
      </trkpt>
      <trkpt lat="39.593600" lon="-4.254167">
        <ele>1522.0</ele>
        <time>2013-07-03T16:35:15Z</time>
      </trkpt>
      <trkpt lat="39.593583" lon="-4.254267">
        <ele>1522.0</ele>
        <time>2013-07-03T16:35:16Z</time>
      </trkpt>
      <trkpt lat="39.593550" lon="-4.254350">
        <ele>1520.0</ele>
        <time>2013-07-03T16:35:17Z</time>
      </trkpt>
      <trkpt lat="39.593517" lon="-4.254450">
        <ele>1518.0</ele>
        <time>2013-07-03T16:35:18Z</time>
      </trkpt>
      <trkpt lat="39.593467" lon="-4.254533">
        <ele>1516.0</ele>
        <time>2013-07-03T16:35:19Z</time>
      </trkpt>
      <trkpt lat="39.593417" lon="-4.254617">
        <ele>1515.0</ele>
        <time>2013-07-03T16:35:20Z</time>
      </trkpt>
      <trkpt lat="39.593367" lon="-4.254700">
        <ele>1513.0</ele>
        <time>2013-07-03T16:35:21Z</time>
      </trkpt>
      <trkpt lat="39.593300" lon="-4.254783">
        <ele>1510.0</ele>
        <time>2013-07-03T16:35:22Z</time>
      </trkpt>
      <trkpt lat="39.593233" lon="-4.254867">
        <ele>1508.0</ele>
        <time>2013-07-03T16:35:23Z</time>
      </trkpt>
      <trkpt lat="39.593150" lon="-4.254967">
        <ele>1506.0</ele>
        <time>2013-07-03T16:35:24Z</time>
      </trkpt>
      <trkpt lat="39.593050" lon="-4.255033">
        <ele>1504.0</ele>
        <time>2013-07-03T16:35:25Z</time>
      </trkpt>
      <trkpt lat="39.592950" lon="-4.255100">
        <ele>1503.0</ele>
        <time>2013-07-03T16:35:26Z</time>
      </trkpt>
      <trkpt lat="39.592850" lon="-4.255133">
        <ele>1501.0</ele>
        <time>2013-07-03T16:35:27Z</time>
      </trkpt>
      <trkpt lat="39.592750" lon="-4.255183">
        <ele>1500.0</ele>
        <time>2013-07-03T16:35:28Z</time>
      </trkpt>
      <trkpt lat="39.592667" lon="-4.255217">
        <ele>1498.0</ele>
        <time>2013-07-03T16:35:29Z</time>
      </trkpt>
      <trkpt lat="39.592583" lon="-4.255283">
        <ele>1495.0</ele>
        <time>2013-07-03T16:35:30Z</time>
      </trkpt>
      <trkpt lat="39.592517" lon="-4.255383">
        <ele>1492.0</ele>
        <time>2013-07-03T16:35:31Z</time>
      </trkpt>
      <trkpt lat="39.592483" lon="-4.255483">
        <ele>1489.0</ele>
        <time>2013-07-03T16:35:32Z</time>
      </trkpt>
      <trkpt lat="39.592483" lon="-4.255567">
        <ele>1485.0</ele>
        <time>2013-07-03T16:35:33Z</time>
      </trkpt>
      <trkpt lat="39.592517" lon="-4.255617">
        <ele>1481.0</ele>
        <time>2013-07-03T16:35:34Z</time>
      </trkpt>
      <trkpt lat="39.592567" lon="-4.255617">
        <ele>1477.0</ele>
        <time>2013-07-03T16:35:35Z</time>
      </trkpt>
      <trkpt lat="39.592617" lon="-4.255583">
        <ele>1473.0</ele>
        <time>2013-07-03T16:35:36Z</time>
      </trkpt>
      <trkpt lat="39.592650" lon="-4.255500">
        <ele>1469.0</ele>
        <time>2013-07-03T16:35:37Z</time>
      </trkpt>
      <trkpt lat="39.592667" lon="-4.255400">
        <ele>1466.0</ele>
        <time>2013-07-03T16:35:38Z</time>
      </trkpt>
      <trkpt lat="39.592650" lon="-4.255283">
        <ele>1462.0</ele>
        <time>2013-07-03T16:35:39Z</time>
      </trkpt>
      <trkpt lat="39.592617" lon="-4.255167">
        <ele>1459.0</ele>
        <time>2013-07-03T16:35:40Z</time>
      </trkpt>
      <trkpt lat="39.592550" lon="-4.255033">
        <ele>1455.0</ele>
        <time>2013-07-03T16:35:41Z</time>
      </trkpt>
      <trkpt lat="39.592450" lon="-4.254933">
        <ele>1453.0</ele>
        <time>2013-07-03T16:35:42Z</time>
      </trkpt>
      <trkpt lat="39.592333" lon="-4.254850">
        <ele>1451.0</ele>
        <time>2013-07-03T16:35:43Z</time>
      </trkpt>
      <trkpt lat="39.592217" lon="-4.254817">
        <ele>1449.0</ele>
        <time>2013-07-03T16:35:44Z</time>
      </trkpt>
      <trkpt lat="39.592083" lon="-4.254817">
        <ele>1447.0</ele>
        <time>2013-07-03T16:35:45Z</time>
      </trkpt>
      <trkpt lat="39.591983" lon="-4.254867">
        <ele>1444.0</ele>
        <time>2013-07-03T16:35:46Z</time>
      </trkpt>
      <trkpt lat="39.591883" lon="-4.254950">
        <ele>1441.0</ele>
        <time>2013-07-03T16:35:47Z</time>
      </trkpt>
      <trkpt lat="39.591833" lon="-4.255050">
        <ele>1438.0</ele>
        <time>2013-07-03T16:35:48Z</time>
      </trkpt>
      <trkpt lat="39.591800" lon="-4.255133">
        <ele>1436.0</ele>
        <time>2013-07-03T16:35:49Z</time>
      </trkpt>
      <trkpt lat="39.591800" lon="-4.255217">
        <ele>1433.0</ele>
        <time>2013-07-03T16:35:50Z</time>
      </trkpt>
      <trkpt lat="39.591833" lon="-4.255283">
        <ele>1430.0</ele>
        <time>2013-07-03T16:35:51Z</time>
      </trkpt>
      <trkpt lat="39.591883" lon="-4.255300">
        <ele>1427.0</ele>
        <time>2013-07-03T16:35:52Z</time>
      </trkpt>
      <trkpt lat="39.591933" lon="-4.255283">
        <ele>1424.0</ele>
        <time>2013-07-03T16:35:53Z</time>
      </trkpt>
      <trkpt lat="39.591983" lon="-4.255233">
        <ele>1421.0</ele>
        <time>2013-07-03T16:35:54Z</time>
      </trkpt>
      <trkpt lat="39.592017" lon="-4.255150">
        <ele>1419.0</ele>
        <time>2013-07-03T16:35:55Z</time>
      </trkpt>
      <trkpt lat="39.592033" lon="-4.255067">
        <ele>1416.0</ele>
        <time>2013-07-03T16:35:56Z</time>
      </trkpt>
      <trkpt lat="39.592050" lon="-4.254950">
        <ele>1414.0</ele>
        <time>2013-07-03T16:35:57Z</time>
      </trkpt>
      <trkpt lat="39.592050" lon="-4.254850">
        <ele>1412.0</ele>
        <time>2013-07-03T16:35:58Z</time>
      </trkpt>
      <trkpt lat="39.592033" lon="-4.254750">
        <ele>1410.0</ele>
        <time>2013-07-03T16:35:59Z</time>
      </trkpt>
      <trkpt lat="39.592017" lon="-4.254633">
        <ele>1408.0</ele>
        <time>2013-07-03T16:36:00Z</time>
      </trkpt>
      <trkpt lat="39.592017" lon="-4.254533">
        <ele>1405.0</ele>
        <time>2013-07-03T16:36:01Z</time>
      </trkpt>
      <trkpt lat="39.591983" lon="-4.254417">
        <ele>1403.0</ele>
        <time>2013-07-03T16:36:02Z</time>
      </trkpt>
      <trkpt lat="39.591967" lon="-4.254300">
        <ele>1404.0</ele>
        <time>2013-07-03T16:36:03Z</time>
      </trkpt>
      <trkpt lat="39.591950" lon="-4.254183">
        <ele>1402.0</ele>
        <time>2013-07-03T16:36:04Z</time>
      </trkpt>
      <trkpt lat="39.591917" lon="-4.254083">
        <ele>1400.0</ele>
        <time>2013-07-03T16:36:05Z</time>
      </trkpt>
      <trkpt lat="39.591900" lon="-4.253983">
        <ele>1399.0</ele>
        <time>2013-07-03T16:36:06Z</time>
      </trkpt>
      <trkpt lat="39.591883" lon="-4.253867">
        <ele>1399.0</ele>
        <time>2013-07-03T16:36:07Z</time>
      </trkpt>
      <trkpt lat="39.591867" lon="-4.253750">
        <ele>1398.0</ele>
        <time>2013-07-03T16:36:08Z</time>
      </trkpt>
      <trkpt lat="39.591867" lon="-4.253633">
        <ele>1396.0</ele>
        <time>2013-07-03T16:36:09Z</time>
      </trkpt>
      <trkpt lat="39.591867" lon="-4.253533">
        <ele>1394.0</ele>
        <time>2013-07-03T16:36:10Z</time>
      </trkpt>
      <trkpt lat="39.591867" lon="-4.253450">
        <ele>1391.0</ele>
        <time>2013-07-03T16:36:11Z</time>
      </trkpt>
      <trkpt lat="39.591867" lon="-4.253367">
        <ele>1389.0</ele>
        <time>2013-07-03T16:36:12Z</time>
      </trkpt>
      <trkpt lat="39.591867" lon="-4.253267">
        <ele>1386.0</ele>
        <time>2013-07-03T16:36:13Z</time>
      </trkpt>
      <trkpt lat="39.591850" lon="-4.253183">
        <ele>1383.0</ele>
        <time>2013-07-03T16:36:14Z</time>
      </trkpt>
      <trkpt lat="39.591850" lon="-4.253067">
        <ele>1380.0</ele>
        <time>2013-07-03T16:36:15Z</time>
      </trkpt>
      <trkpt lat="39.591850" lon="-4.252950">
        <ele>1380.0</ele>
        <time>2013-07-03T16:36:16Z</time>
      </trkpt>
      <trkpt lat="39.591850" lon="-4.252850">
        <ele>1377.0</ele>
        <time>2013-07-03T16:36:17Z</time>
      </trkpt>
      <trkpt lat="39.591833" lon="-4.252733">
        <ele>1373.0</ele>
        <time>2013-07-03T16:36:18Z</time>
      </trkpt>
      <trkpt lat="39.591833" lon="-4.252633">
        <ele>1371.0</ele>
        <time>2013-07-03T16:36:19Z</time>
      </trkpt>
      <trkpt lat="39.591833" lon="-4.252533">
        <ele>1368.0</ele>
        <time>2013-07-03T16:36:20Z</time>
      </trkpt>
      <trkpt lat="39.591833" lon="-4.252433">
        <ele>1366.0</ele>
        <time>2013-07-03T16:36:21Z</time>
      </trkpt>
      <trkpt lat="39.591817" lon="-4.252317">
        <ele>1364.0</ele>
        <time>2013-07-03T16:36:22Z</time>
      </trkpt>
      <trkpt lat="39.591833" lon="-4.252217">
        <ele>1365.0</ele>
        <time>2013-07-03T16:36:23Z</time>
      </trkpt>
      <trkpt lat="39.591833" lon="-4.252117">
        <ele>1365.0</ele>
        <time>2013-07-03T16:36:24Z</time>
      </trkpt>
      <trkpt lat="39.591833" lon="-4.252000">
        <ele>1365.0</ele>
        <time>2013-07-03T16:36:25Z</time>
      </trkpt>
      <trkpt lat="39.591833" lon="-4.251883">
        <ele>1364.0</ele>
        <time>2013-07-03T16:36:26Z</time>
      </trkpt>
      <trkpt lat="39.591833" lon="-4.251783">
        <ele>1363.0</ele>
        <time>2013-07-03T16:36:27Z</time>
      </trkpt>
      <trkpt lat="39.591817" lon="-4.251667">
        <ele>1362.0</ele>
        <time>2013-07-03T16:36:28Z</time>
      </trkpt>
      <trkpt lat="39.591817" lon="-4.251550">
        <ele>1361.0</ele>
        <time>2013-07-03T16:36:29Z</time>
      </trkpt>
      <trkpt lat="39.591800" lon="-4.251433">
        <ele>1359.0</ele>
        <time>2013-07-03T16:36:30Z</time>
      </trkpt>
      <trkpt lat="39.591800" lon="-4.251317">
        <ele>1358.0</ele>
        <time>2013-07-03T16:36:31Z</time>
      </trkpt>
      <trkpt lat="39.591800" lon="-4.251217">
        <ele>1356.0</ele>
        <time>2013-07-03T16:36:32Z</time>
      </trkpt>
      <trkpt lat="39.591783" lon="-4.251117">
        <ele>1353.0</ele>
        <time>2013-07-03T16:36:33Z</time>
      </trkpt>
      <trkpt lat="39.591783" lon="-4.251000">
        <ele>1350.0</ele>
        <time>2013-07-03T16:36:34Z</time>
      </trkpt>
      <trkpt lat="39.591767" lon="-4.250883">
        <ele>1347.0</ele>
        <time>2013-07-03T16:36:35Z</time>
      </trkpt>
      <trkpt lat="39.591750" lon="-4.250750">
        <ele>1344.0</ele>
        <time>2013-07-03T16:36:36Z</time>
      </trkpt>
      <trkpt lat="39.591750" lon="-4.250633">
        <ele>1342.0</ele>
        <time>2013-07-03T16:36:37Z</time>
      </trkpt>
      <trkpt lat="39.591733" lon="-4.250517">
        <ele>1339.0</ele>
        <time>2013-07-03T16:36:38Z</time>
      </trkpt>
      <trkpt lat="39.591717" lon="-4.250400">
        <ele>1337.0</ele>
        <time>2013-07-03T16:36:39Z</time>
      </trkpt>
      <trkpt lat="39.591717" lon="-4.250283">
        <ele>1334.0</ele>
        <time>2013-07-03T16:36:40Z</time>
      </trkpt>
      <trkpt lat="39.591700" lon="-4.250150">
        <ele>1332.0</ele>
        <time>2013-07-03T16:36:41Z</time>
      </trkpt>
      <trkpt lat="39.591683" lon="-4.250033">
        <ele>1329.0</ele>
        <time>2013-07-03T16:36:42Z</time>
      </trkpt>
      <trkpt lat="39.591683" lon="-4.249900">
        <ele>1327.0</ele>
        <time>2013-07-03T16:36:43Z</time>
      </trkpt>
      <trkpt lat="39.591667" lon="-4.249783">
        <ele>1326.0</ele>
        <time>2013-07-03T16:36:44Z</time>
      </trkpt>
      <trkpt lat="39.591683" lon="-4.249667">
        <ele>1324.0</ele>
        <time>2013-07-03T16:36:45Z</time>
      </trkpt>
      <trkpt lat="39.591683" lon="-4.249550">
        <ele>1322.0</ele>
        <time>2013-07-03T16:36:46Z</time>
      </trkpt>
      <trkpt lat="39.591683" lon="-4.249417">
        <ele>1321.0</ele>
        <time>2013-07-03T16:36:47Z</time>
      </trkpt>
      <trkpt lat="39.591683" lon="-4.249283">
        <ele>1319.0</ele>
        <time>2013-07-03T16:36:48Z</time>
      </trkpt>
      <trkpt lat="39.591683" lon="-4.249167">
        <ele>1317.0</ele>
        <time>2013-07-03T16:36:49Z</time>
      </trkpt>
      <trkpt lat="39.591683" lon="-4.249033">
        <ele>1315.0</ele>
        <time>2013-07-03T16:36:50Z</time>
      </trkpt>
      <trkpt lat="39.591683" lon="-4.248917">
        <ele>1314.0</ele>
        <time>2013-07-03T16:36:51Z</time>
      </trkpt>
      <trkpt lat="39.591667" lon="-4.248783">
        <ele>1312.0</ele>
        <time>2013-07-03T16:36:52Z</time>
      </trkpt>
      <trkpt lat="39.591633" lon="-4.248633">
        <ele>1310.0</ele>
        <time>2013-07-03T16:36:53Z</time>
      </trkpt>
      <trkpt lat="39.591600" lon="-4.248500">
        <ele>1309.0</ele>
        <time>2013-07-03T16:36:54Z</time>
      </trkpt>
      <trkpt lat="39.591567" lon="-4.248367">
        <ele>1308.0</ele>
        <time>2013-07-03T16:36:55Z</time>
      </trkpt>
      <trkpt lat="39.591533" lon="-4.248233">
        <ele>1307.0</ele>
        <time>2013-07-03T16:36:56Z</time>
      </trkpt>
      <trkpt lat="39.591500" lon="-4.248100">
        <ele>1307.0</ele>
        <time>2013-07-03T16:36:57Z</time>
      </trkpt>
      <trkpt lat="39.591467" lon="-4.247983">
        <ele>1307.0</ele>
        <time>2013-07-03T16:36:58Z</time>
      </trkpt>
      <trkpt lat="39.591433" lon="-4.247850">
        <ele>1307.0</ele>
        <time>2013-07-03T16:36:59Z</time>
      </trkpt>
      <trkpt lat="39.591433" lon="-4.247733">
        <ele>1307.0</ele>
        <time>2013-07-03T16:37:00Z</time>
      </trkpt>
      <trkpt lat="39.591450" lon="-4.247633">
        <ele>1307.0</ele>
        <time>2013-07-03T16:37:01Z</time>
      </trkpt>
      <trkpt lat="39.591467" lon="-4.247550">
        <ele>1308.0</ele>
        <time>2013-07-03T16:37:02Z</time>
      </trkpt>
      <trkpt lat="39.591500" lon="-4.247467">
        <ele>1309.0</ele>
        <time>2013-07-03T16:37:03Z</time>
      </trkpt>
      <trkpt lat="39.591500" lon="-4.247367">
        <ele>1309.0</ele>
        <time>2013-07-03T16:37:04Z</time>
      </trkpt>
      <trkpt lat="39.591517" lon="-4.247283">
        <ele>1309.0</ele>
        <time>2013-07-03T16:37:05Z</time>
      </trkpt>
      <trkpt lat="39.591533" lon="-4.247183">
        <ele>1310.0</ele>
        <time>2013-07-03T16:37:06Z</time>
      </trkpt>
      <trkpt lat="39.591567" lon="-4.247083">
        <ele>1310.0</ele>
        <time>2013-07-03T16:37:07Z</time>
      </trkpt>
      <trkpt lat="39.591583" lon="-4.246983">
        <ele>1310.0</ele>
        <time>2013-07-03T16:37:08Z</time>
      </trkpt>
      <trkpt lat="39.591600" lon="-4.246883">
        <ele>1310.0</ele>
        <time>2013-07-03T16:37:09Z</time>
      </trkpt>
      <trkpt lat="39.591617" lon="-4.246800">
        <ele>1310.0</ele>
        <time>2013-07-03T16:37:10Z</time>
      </trkpt>
      <trkpt lat="39.591633" lon="-4.246700">
        <ele>1310.0</ele>
        <time>2013-07-03T16:37:11Z</time>
      </trkpt>
      <trkpt lat="39.591667" lon="-4.246583">
        <ele>1310.0</ele>
        <time>2013-07-03T16:37:12Z</time>
      </trkpt>
      <trkpt lat="39.591683" lon="-4.246483">
        <ele>1310.0</ele>
        <time>2013-07-03T16:37:13Z</time>
      </trkpt>
      <trkpt lat="39.591700" lon="-4.246400">
        <ele>1310.0</ele>
        <time>2013-07-03T16:37:14Z</time>
      </trkpt>
      <trkpt lat="39.591733" lon="-4.246317">
        <ele>1310.0</ele>
        <time>2013-07-03T16:37:15Z</time>
      </trkpt>
      <trkpt lat="39.591750" lon="-4.246217">
        <ele>1310.0</ele>
        <time>2013-07-03T16:37:16Z</time>
      </trkpt>
      <trkpt lat="39.591767" lon="-4.246117">
        <ele>1309.0</ele>
        <time>2013-07-03T16:37:17Z</time>
      </trkpt>
      <trkpt lat="39.591767" lon="-4.246000">
        <ele>1309.0</ele>
        <time>2013-07-03T16:37:18Z</time>
      </trkpt>
      <trkpt lat="39.591783" lon="-4.245900">
        <ele>1310.0</ele>
        <time>2013-07-03T16:37:19Z</time>
      </trkpt>
      <trkpt lat="39.591800" lon="-4.245817">
        <ele>1310.0</ele>
        <time>2013-07-03T16:37:20Z</time>
      </trkpt>
      <trkpt lat="39.591800" lon="-4.245717">
        <ele>1309.0</ele>
        <time>2013-07-03T16:37:21Z</time>
      </trkpt>
      <trkpt lat="39.591800" lon="-4.245583">
        <ele>1308.0</ele>
        <time>2013-07-03T16:37:22Z</time>
      </trkpt>
      <trkpt lat="39.591817" lon="-4.245467">
        <ele>1307.0</ele>
        <time>2013-07-03T16:37:23Z</time>
      </trkpt>
      <trkpt lat="39.591833" lon="-4.245350">
        <ele>1307.0</ele>
        <time>2013-07-03T16:37:24Z</time>
      </trkpt>
      <trkpt lat="39.591883" lon="-4.245250">
        <ele>1307.0</ele>
        <time>2013-07-03T16:37:25Z</time>
      </trkpt>
      <trkpt lat="39.591917" lon="-4.245183">
        <ele>1307.0</ele>
        <time>2013-07-03T16:37:26Z</time>
      </trkpt>
      <trkpt lat="39.591967" lon="-4.245100">
        <ele>1307.0</ele>
        <time>2013-07-03T16:37:27Z</time>
      </trkpt>
      <trkpt lat="39.592017" lon="-4.245017">
        <ele>1307.0</ele>
        <time>2013-07-03T16:37:28Z</time>
      </trkpt>
      <trkpt lat="39.592067" lon="-4.244933">
        <ele>1307.0</ele>
        <time>2013-07-03T16:37:29Z</time>
      </trkpt>
      <trkpt lat="39.592117" lon="-4.244833">
        <ele>1307.0</ele>
        <time>2013-07-03T16:37:30Z</time>
      </trkpt>
      <trkpt lat="39.592167" lon="-4.244733">
        <ele>1306.0</ele>
        <time>2013-07-03T16:37:31Z</time>
      </trkpt>
      <trkpt lat="39.592217" lon="-4.244650">
        <ele>1306.0</ele>
        <time>2013-07-03T16:37:32Z</time>
      </trkpt>
      <trkpt lat="39.592283" lon="-4.244567">
        <ele>1305.0</ele>
        <time>2013-07-03T16:37:33Z</time>
      </trkpt>
      <trkpt lat="39.592333" lon="-4.244467">
        <ele>1305.0</ele>
        <time>2013-07-03T16:37:34Z</time>
      </trkpt>
      <trkpt lat="39.592367" lon="-4.244367">
        <ele>1305.0</ele>
        <time>2013-07-03T16:37:35Z</time>
      </trkpt>
      <trkpt lat="39.592383" lon="-4.244250">
        <ele>1304.0</ele>
        <time>2013-07-03T16:37:36Z</time>
      </trkpt>
      <trkpt lat="39.592400" lon="-4.244133">
        <ele>1303.0</ele>
        <time>2013-07-03T16:37:37Z</time>
      </trkpt>
      <trkpt lat="39.592417" lon="-4.244017">
        <ele>1303.0</ele>
        <time>2013-07-03T16:37:38Z</time>
      </trkpt>
      <trkpt lat="39.592417" lon="-4.243900">
        <ele>1303.0</ele>
        <time>2013-07-03T16:37:39Z</time>
      </trkpt>
      <trkpt lat="39.592433" lon="-4.243800">
        <ele>1303.0</ele>
        <time>2013-07-03T16:37:40Z</time>
      </trkpt>
      <trkpt lat="39.592450" lon="-4.243700">
        <ele>1303.0</ele>
        <time>2013-07-03T16:37:41Z</time>
      </trkpt>
      <trkpt lat="39.592483" lon="-4.243600">
        <ele>1303.0</ele>
        <time>2013-07-03T16:37:42Z</time>
      </trkpt>
      <trkpt lat="39.592517" lon="-4.243500">
        <ele>1304.0</ele>
        <time>2013-07-03T16:37:43Z</time>
      </trkpt>
      <trkpt lat="39.592550" lon="-4.243433">
        <ele>1303.0</ele>
        <time>2013-07-03T16:37:44Z</time>
      </trkpt>
      <trkpt lat="39.592583" lon="-4.243350">
        <ele>1303.0</ele>
        <time>2013-07-03T16:37:45Z</time>
      </trkpt>
      <trkpt lat="39.592617" lon="-4.243250">
        <ele>1303.0</ele>
        <time>2013-07-03T16:37:46Z</time>
      </trkpt>
      <trkpt lat="39.592667" lon="-4.243167">
        <ele>1302.0</ele>
        <time>2013-07-03T16:37:47Z</time>
      </trkpt>
      <trkpt lat="39.592733" lon="-4.243083">
        <ele>1301.0</ele>
        <time>2013-07-03T16:37:48Z</time>
      </trkpt>
      <trkpt lat="39.592767" lon="-4.243017">
        <ele>1300.0</ele>
        <time>2013-07-03T16:37:49Z</time>
      </trkpt>
      <trkpt lat="39.592783" lon="-4.242933">
        <ele>1298.0</ele>
        <time>2013-07-03T16:37:50Z</time>
      </trkpt>
      <trkpt lat="39.592783" lon="-4.242833">
        <ele>1295.0</ele>
        <time>2013-07-03T16:37:51Z</time>
      </trkpt>
      <trkpt lat="39.592783" lon="-4.242717">
        <ele>1293.0</ele>
        <time>2013-07-03T16:37:52Z</time>
      </trkpt>
      <trkpt lat="39.592783" lon="-4.242600">
        <ele>1292.0</ele>
        <time>2013-07-03T16:37:53Z</time>
      </trkpt>
      <trkpt lat="39.592783" lon="-4.242483">
        <ele>1291.0</ele>
        <time>2013-07-03T16:37:54Z</time>
      </trkpt>
      <trkpt lat="39.592783" lon="-4.242367">
        <ele>1290.0</ele>
        <time>2013-07-03T16:37:55Z</time>
      </trkpt>
      <trkpt lat="39.592783" lon="-4.242267">
        <ele>1289.0</ele>
        <time>2013-07-03T16:37:56Z</time>
      </trkpt>
      <trkpt lat="39.592800" lon="-4.242200">
        <ele>1289.0</ele>
        <time>2013-07-03T16:37:57Z</time>
      </trkpt>
      <trkpt lat="39.592800" lon="-4.242117">
        <ele>1288.0</ele>
        <time>2013-07-03T16:37:58Z</time>
      </trkpt>
      <trkpt lat="39.592800" lon="-4.242017">
        <ele>1287.0</ele>
        <time>2013-07-03T16:37:59Z</time>
      </trkpt>
      <trkpt lat="39.592817" lon="-4.241900">
        <ele>1285.0</ele>
        <time>2013-07-03T16:38:00Z</time>
      </trkpt>
      <trkpt lat="39.592850" lon="-4.241783">
        <ele>1284.0</ele>
        <time>2013-07-03T16:38:01Z</time>
      </trkpt>
      <trkpt lat="39.592883" lon="-4.241683">
        <ele>1284.0</ele>
        <time>2013-07-03T16:38:02Z</time>
      </trkpt>
      <trkpt lat="39.592933" lon="-4.241650">
        <ele>1284.0</ele>
        <time>2013-07-03T16:38:03Z</time>
      </trkpt>
      <trkpt lat="39.592983" lon="-4.241650">
        <ele>1282.0</ele>
        <time>2013-07-03T16:38:04Z</time>
      </trkpt>
      <trkpt lat="39.593033" lon="-4.241717">
        <ele>1280.0</ele>
        <time>2013-07-03T16:38:05Z</time>
      </trkpt>
      <trkpt lat="39.593067" lon="-4.241817">
        <ele>1278.0</ele>
        <time>2013-07-03T16:38:06Z</time>
      </trkpt>
      <trkpt lat="39.593050" lon="-4.241950">
        <ele>1276.0</ele>
        <time>2013-07-03T16:38:07Z</time>
      </trkpt>
      <trkpt lat="39.592983" lon="-4.242033">
        <ele>1273.0</ele>
        <time>2013-07-03T16:38:08Z</time>
      </trkpt>
      <trkpt lat="39.592883" lon="-4.242050">
        <ele>1269.0</ele>
        <time>2013-07-03T16:38:09Z</time>
      </trkpt>
      <trkpt lat="39.592783" lon="-4.241950">
        <ele>1265.0</ele>
        <time>2013-07-03T16:38:10Z</time>
      </trkpt>
      <trkpt lat="39.592750" lon="-4.241800">
        <ele>1261.0</ele>
        <time>2013-07-03T16:38:11Z</time>
      </trkpt>
      <trkpt lat="39.592817" lon="-4.241683">
        <ele>1258.0</ele>
        <time>2013-07-03T16:38:12Z</time>
      </trkpt>
      <trkpt lat="39.592933" lon="-4.241700">
        <ele>1254.0</ele>
        <time>2013-07-03T16:38:13Z</time>
      </trkpt>
      <trkpt lat="39.592967" lon="-4.241833">
        <ele>1249.0</ele>
        <time>2013-07-03T16:38:14Z</time>
      </trkpt>
      <trkpt lat="39.592867" lon="-4.241983">
        <ele>1243.0</ele>
        <time>2013-07-03T16:38:15Z</time>
      </trkpt>
      <trkpt lat="39.592700" lon="-4.241950">
        <ele>1237.0</ele>
        <time>2013-07-03T16:38:16Z</time>
      </trkpt>
      <trkpt lat="39.592600" lon="-4.241783">
        <ele>1234.0</ele>
        <time>2013-07-03T16:38:17Z</time>
      </trkpt>
      <trkpt lat="39.592633" lon="-4.241617">
        <ele>1231.0</ele>
        <time>2013-07-03T16:38:18Z</time>
      </trkpt>
      <trkpt lat="39.592750" lon="-4.241583">
        <ele>1229.0</ele>
        <time>2013-07-03T16:38:19Z</time>
      </trkpt>
      <trkpt lat="39.592817" lon="-4.241667">
        <ele>1226.0</ele>
        <time>2013-07-03T16:38:20Z</time>
      </trkpt>
      <trkpt lat="39.592817" lon="-4.241817">
        <ele>1224.0</ele>
        <time>2013-07-03T16:38:21Z</time>
      </trkpt>
      <trkpt lat="39.592733" lon="-4.241933">
        <ele>1220.0</ele>
        <time>2013-07-03T16:38:22Z</time>
      </trkpt>
      <trkpt lat="39.592617" lon="-4.241983">
        <ele>1220.0</ele>
        <time>2013-07-03T16:38:23Z</time>
      </trkpt>
      <trkpt lat="39.592483" lon="-4.241950">
        <ele>1223.0</ele>
        <time>2013-07-03T16:38:24Z</time>
      </trkpt>
      <trkpt lat="39.592400" lon="-4.241867">
        <ele>1223.0</ele>
        <time>2013-07-03T16:38:25Z</time>
      </trkpt>
      <trkpt lat="39.592350" lon="-4.241767">
        <ele>1224.0</ele>
        <time>2013-07-03T16:38:26Z</time>
      </trkpt>
      <trkpt lat="39.592300" lon="-4.241683">
        <ele>1223.0</ele>
        <time>2013-07-03T16:38:27Z</time>
      </trkpt>
      <trkpt lat="39.592283" lon="-4.241617">
        <ele>1222.0</ele>
        <time>2013-07-03T16:38:28Z</time>
      </trkpt>
      <trkpt lat="39.592250" lon="-4.241517">
        <ele>1221.0</ele>
        <time>2013-07-03T16:38:29Z</time>
      </trkpt>
      <trkpt lat="39.592233" lon="-4.241400">
        <ele>1219.0</ele>
        <time>2013-07-03T16:38:30Z</time>
      </trkpt>
      <trkpt lat="39.592233" lon="-4.241283">
        <ele>1217.0</ele>
        <time>2013-07-03T16:38:31Z</time>
      </trkpt>
      <trkpt lat="39.592250" lon="-4.241150">
        <ele>1216.0</ele>
        <time>2013-07-03T16:38:32Z</time>
      </trkpt>
      <trkpt lat="39.592250" lon="-4.241033">
        <ele>1217.0</ele>
        <time>2013-07-03T16:38:33Z</time>
      </trkpt>
      <trkpt lat="39.592250" lon="-4.240917">
        <ele>1216.0</ele>
        <time>2013-07-03T16:38:34Z</time>
      </trkpt>
      <trkpt lat="39.592233" lon="-4.240817">
        <ele>1215.0</ele>
        <time>2013-07-03T16:38:35Z</time>
      </trkpt>
      <trkpt lat="39.592233" lon="-4.240700">
        <ele>1214.0</ele>
        <time>2013-07-03T16:38:36Z</time>
      </trkpt>
      <trkpt lat="39.592250" lon="-4.240567">
        <ele>1212.0</ele>
        <time>2013-07-03T16:38:37Z</time>
      </trkpt>
      <trkpt lat="39.592283" lon="-4.240450">
        <ele>1212.0</ele>
        <time>2013-07-03T16:38:38Z</time>
      </trkpt>
      <trkpt lat="39.592317" lon="-4.240350">
        <ele>1212.0</ele>
        <time>2013-07-03T16:38:39Z</time>
      </trkpt>
      <trkpt lat="39.592350" lon="-4.240267">
        <ele>1212.0</ele>
        <time>2013-07-03T16:38:40Z</time>
      </trkpt>
      <trkpt lat="39.592383" lon="-4.240200">
        <ele>1212.0</ele>
        <time>2013-07-03T16:38:41Z</time>
      </trkpt>
      <trkpt lat="39.592417" lon="-4.240150">
        <ele>1211.0</ele>
        <time>2013-07-03T16:38:42Z</time>
      </trkpt>
      <trkpt lat="39.592467" lon="-4.240100">
        <ele>1210.0</ele>
        <time>2013-07-03T16:38:43Z</time>
      </trkpt>
      <trkpt lat="39.592533" lon="-4.240050">
        <ele>1208.0</ele>
        <time>2013-07-03T16:38:44Z</time>
      </trkpt>
      <trkpt lat="39.592617" lon="-4.240017">
        <ele>1206.0</ele>
        <time>2013-07-03T16:38:45Z</time>
      </trkpt>
      <trkpt lat="39.592683" lon="-4.239983">
        <ele>1205.0</ele>
        <time>2013-07-03T16:38:46Z</time>
      </trkpt>
      <trkpt lat="39.592750" lon="-4.239967">
        <ele>1205.0</ele>
        <time>2013-07-03T16:38:47Z</time>
      </trkpt>
      <trkpt lat="39.592800" lon="-4.239933">
        <ele>1204.0</ele>
        <time>2013-07-03T16:38:48Z</time>
      </trkpt>
      <trkpt lat="39.592867" lon="-4.239900">
        <ele>1203.0</ele>
        <time>2013-07-03T16:38:49Z</time>
      </trkpt>
      <trkpt lat="39.592917" lon="-4.239867">
        <ele>1202.0</ele>
        <time>2013-07-03T16:38:50Z</time>
      </trkpt>
      <trkpt lat="39.592983" lon="-4.239817">
        <ele>1201.0</ele>
        <time>2013-07-03T16:38:51Z</time>
      </trkpt>
      <trkpt lat="39.593050" lon="-4.239783">
        <ele>1202.0</ele>
        <time>2013-07-03T16:38:52Z</time>
      </trkpt>
      <trkpt lat="39.593117" lon="-4.239717">
        <ele>1202.0</ele>
        <time>2013-07-03T16:38:53Z</time>
      </trkpt>
      <trkpt lat="39.593183" lon="-4.239667">
        <ele>1202.0</ele>
        <time>2013-07-03T16:38:54Z</time>
      </trkpt>
      <trkpt lat="39.593233" lon="-4.239617">
        <ele>1202.0</ele>
        <time>2013-07-03T16:38:55Z</time>
      </trkpt>
      <trkpt lat="39.593283" lon="-4.239550">
        <ele>1202.0</ele>
        <time>2013-07-03T16:38:56Z</time>
      </trkpt>
      <trkpt lat="39.593317" lon="-4.239500">
        <ele>1203.0</ele>
        <time>2013-07-03T16:38:57Z</time>
      </trkpt>
      <trkpt lat="39.593333" lon="-4.239417">
        <ele>1204.0</ele>
        <time>2013-07-03T16:38:58Z</time>
      </trkpt>
      <trkpt lat="39.593333" lon="-4.239333">
        <ele>1203.0</ele>
        <time>2013-07-03T16:38:59Z</time>
      </trkpt>
      <trkpt lat="39.593317" lon="-4.239250">
        <ele>1202.0</ele>
        <time>2013-07-03T16:39:00Z</time>
      </trkpt>
      <trkpt lat="39.593333" lon="-4.239167">
        <ele>1201.0</ele>
        <time>2013-07-03T16:39:01Z</time>
      </trkpt>
      <trkpt lat="39.593350" lon="-4.239083">
        <ele>1199.0</ele>
        <time>2013-07-03T16:39:02Z</time>
      </trkpt>
      <trkpt lat="39.593417" lon="-4.239033">
        <ele>1198.0</ele>
        <time>2013-07-03T16:39:03Z</time>
      </trkpt>
      <trkpt lat="39.593483" lon="-4.239050">
        <ele>1196.0</ele>
        <time>2013-07-03T16:39:04Z</time>
      </trkpt>
      <trkpt lat="39.593533" lon="-4.239117">
        <ele>1195.0</ele>
        <time>2013-07-03T16:39:05Z</time>
      </trkpt>
      <trkpt lat="39.593517" lon="-4.239267">
        <ele>1192.0</ele>
        <time>2013-07-03T16:39:06Z</time>
      </trkpt>
      <trkpt lat="39.593417" lon="-4.239367">
        <ele>1186.0</ele>
        <time>2013-07-03T16:39:07Z</time>
      </trkpt>
      <trkpt lat="39.593267" lon="-4.239383">
        <ele>1182.0</ele>
        <time>2013-07-03T16:39:08Z</time>
      </trkpt>
      <trkpt lat="39.593167" lon="-4.239250">
        <ele>1178.0</ele>
        <time>2013-07-03T16:39:09Z</time>
      </trkpt>
      <trkpt lat="39.593167" lon="-4.239100">
        <ele>1174.0</ele>
        <time>2013-07-03T16:39:10Z</time>
      </trkpt>
      <trkpt lat="39.593267" lon="-4.239067">
        <ele>1170.0</ele>
        <time>2013-07-03T16:39:11Z</time>
      </trkpt>
      <trkpt lat="39.593317" lon="-4.239200">
        <ele>1166.0</ele>
        <time>2013-07-03T16:39:12Z</time>
      </trkpt>
      <trkpt lat="39.593200" lon="-4.239367">
        <ele>1161.0</ele>
        <time>2013-07-03T16:39:13Z</time>
      </trkpt>
      <trkpt lat="39.593033" lon="-4.239383">
        <ele>1159.0</ele>
        <time>2013-07-03T16:39:14Z</time>
      </trkpt>
      <trkpt lat="39.592950" lon="-4.239233">
        <ele>1155.0</ele>
        <time>2013-07-03T16:39:15Z</time>
      </trkpt>
      <trkpt lat="39.592983" lon="-4.239117">
        <ele>1152.0</ele>
        <time>2013-07-03T16:39:16Z</time>
      </trkpt>
      <trkpt lat="39.593133" lon="-4.239150">
        <ele>1149.0</ele>
        <time>2013-07-03T16:39:17Z</time>
      </trkpt>
      <trkpt lat="39.593183" lon="-4.239283">
        <ele>1147.0</ele>
        <time>2013-07-03T16:39:18Z</time>
      </trkpt>
      <trkpt lat="39.593133" lon="-4.239433">
        <ele>1146.0</ele>
        <time>2013-07-03T16:39:19Z</time>
      </trkpt>
      <trkpt lat="39.593017" lon="-4.239467">
        <ele>1143.0</ele>
        <time>2013-07-03T16:39:20Z</time>
      </trkpt>
      <trkpt lat="39.592917" lon="-4.239383">
        <ele>1140.0</ele>
        <time>2013-07-03T16:39:21Z</time>
      </trkpt>
      <trkpt lat="39.592883" lon="-4.239217">
        <ele>1136.0</ele>
        <time>2013-07-03T16:39:22Z</time>
      </trkpt>
      <trkpt lat="39.592967" lon="-4.239083">
        <ele>1133.0</ele>
        <time>2013-07-03T16:39:23Z</time>
      </trkpt>
      <trkpt lat="39.593083" lon="-4.239100">
        <ele>1131.0</ele>
        <time>2013-07-03T16:39:24Z</time>
      </trkpt>
      <trkpt lat="39.593133" lon="-4.239233">
        <ele>1128.0</ele>
        <time>2013-07-03T16:39:25Z</time>
      </trkpt>
      <trkpt lat="39.593083" lon="-4.239350">
        <ele>1123.0</ele>
        <time>2013-07-03T16:39:26Z</time>
      </trkpt>
      <trkpt lat="39.592933" lon="-4.239367">
        <ele>1120.0</ele>
        <time>2013-07-03T16:39:27Z</time>
      </trkpt>
      <trkpt lat="39.592817" lon="-4.239250">
        <ele>1120.0</ele>
        <time>2013-07-03T16:39:28Z</time>
      </trkpt>
      <trkpt lat="39.592817" lon="-4.239083">
        <ele>1119.0</ele>
        <time>2013-07-03T16:39:29Z</time>
      </trkpt>
      <trkpt lat="39.592900" lon="-4.239000">
        <ele>1118.0</ele>
        <time>2013-07-03T16:39:30Z</time>
      </trkpt>
      <trkpt lat="39.592983" lon="-4.239083">
        <ele>1116.0</ele>
        <time>2013-07-03T16:39:31Z</time>
      </trkpt>
      <trkpt lat="39.592967" lon="-4.239250">
        <ele>1114.0</ele>
        <time>2013-07-03T16:39:32Z</time>
      </trkpt>
      <trkpt lat="39.592850" lon="-4.239367">
        <ele>1112.0</ele>
        <time>2013-07-03T16:39:33Z</time>
      </trkpt>
      <trkpt lat="39.592700" lon="-4.239300">
        <ele>1110.0</ele>
        <time>2013-07-03T16:39:34Z</time>
      </trkpt>
      <trkpt lat="39.592650" lon="-4.239133">
        <ele>1107.0</ele>
        <time>2013-07-03T16:39:35Z</time>
      </trkpt>
      <trkpt lat="39.592717" lon="-4.238983">
        <ele>1105.0</ele>
        <time>2013-07-03T16:39:36Z</time>
      </trkpt>
      <trkpt lat="39.592833" lon="-4.239000">
        <ele>1102.0</ele>
        <time>2013-07-03T16:39:37Z</time>
      </trkpt>
      <trkpt lat="39.592900" lon="-4.239167">
        <ele>1100.0</ele>
        <time>2013-07-03T16:39:38Z</time>
      </trkpt>
      <trkpt lat="39.592850" lon="-4.239317">
        <ele>1098.0</ele>
        <time>2013-07-03T16:39:39Z</time>
      </trkpt>
      <trkpt lat="39.592717" lon="-4.239383">
        <ele>1099.0</ele>
        <time>2013-07-03T16:39:40Z</time>
      </trkpt>
      <trkpt lat="39.592600" lon="-4.239333">
        <ele>1099.0</ele>
        <time>2013-07-03T16:39:41Z</time>
      </trkpt>
      <trkpt lat="39.592517" lon="-4.239200">
        <ele>1099.0</ele>
        <time>2013-07-03T16:39:42Z</time>
      </trkpt>
      <trkpt lat="39.592500" lon="-4.239083">
        <ele>1100.0</ele>
        <time>2013-07-03T16:39:43Z</time>
      </trkpt>
      <trkpt lat="39.592517" lon="-4.238983">
        <ele>1103.0</ele>
        <time>2013-07-03T16:39:44Z</time>
      </trkpt>
      <trkpt lat="39.592533" lon="-4.238917">
        <ele>1105.0</ele>
        <time>2013-07-03T16:39:45Z</time>
      </trkpt>
      <trkpt lat="39.592533" lon="-4.238850">
        <ele>1105.0</ele>
        <time>2013-07-03T16:39:46Z</time>
      </trkpt>
      <trkpt lat="39.592567" lon="-4.238750">
        <ele>1106.0</ele>
        <time>2013-07-03T16:39:47Z</time>
      </trkpt>
      <trkpt lat="39.592583" lon="-4.238650">
        <ele>1105.0</ele>
        <time>2013-07-03T16:39:48Z</time>
      </trkpt>
      <trkpt lat="39.592617" lon="-4.238533">
        <ele>1105.0</ele>
        <time>2013-07-03T16:39:49Z</time>
      </trkpt>
      <trkpt lat="39.592650" lon="-4.238400">
        <ele>1104.0</ele>
        <time>2013-07-03T16:39:50Z</time>
      </trkpt>
      <trkpt lat="39.592667" lon="-4.238283">
        <ele>1106.0</ele>
        <time>2013-07-03T16:39:51Z</time>
      </trkpt>
      <trkpt lat="39.592683" lon="-4.238167">
        <ele>1106.0</ele>
        <time>2013-07-03T16:39:52Z</time>
      </trkpt>
      <trkpt lat="39.592700" lon="-4.238083">
        <ele>1106.0</ele>
        <time>2013-07-03T16:39:53Z</time>
      </trkpt>
      <trkpt lat="39.592717" lon="-4.237983">
        <ele>1106.0</ele>
        <time>2013-07-03T16:39:54Z</time>
      </trkpt>
      <trkpt lat="39.592717" lon="-4.237900">
        <ele>1105.0</ele>
        <time>2013-07-03T16:39:55Z</time>
      </trkpt>
      <trkpt lat="39.592700" lon="-4.237800">
        <ele>1104.0</ele>
        <time>2013-07-03T16:39:56Z</time>
      </trkpt>
      <trkpt lat="39.592650" lon="-4.237733">
        <ele>1102.0</ele>
        <time>2013-07-03T16:39:57Z</time>
      </trkpt>
      <trkpt lat="39.592567" lon="-4.237650">
        <ele>1099.0</ele>
        <time>2013-07-03T16:39:58Z</time>
      </trkpt>
      <trkpt lat="39.592483" lon="-4.237567">
        <ele>1098.0</ele>
        <time>2013-07-03T16:39:59Z</time>
      </trkpt>
      <trkpt lat="39.592450" lon="-4.237483">
        <ele>1098.0</ele>
        <time>2013-07-03T16:40:00Z</time>
      </trkpt>
      <trkpt lat="39.592467" lon="-4.237383">
        <ele>1097.0</ele>
        <time>2013-07-03T16:40:01Z</time>
      </trkpt>
      <trkpt lat="39.592550" lon="-4.237333">
        <ele>1092.0</ele>
        <time>2013-07-03T16:40:02Z</time>
      </trkpt>
      <trkpt lat="39.592633" lon="-4.237383">
        <ele>1088.0</ele>
        <time>2013-07-03T16:40:03Z</time>
      </trkpt>
      <trkpt lat="39.592683" lon="-4.237517">
        <ele>1085.0</ele>
        <time>2013-07-03T16:40:04Z</time>
      </trkpt>
      <trkpt lat="39.592633" lon="-4.237650">
        <ele>1081.0</ele>
        <time>2013-07-03T16:40:05Z</time>
      </trkpt>
      <trkpt lat="39.592500" lon="-4.237717">
        <ele>1076.0</ele>
        <time>2013-07-03T16:40:06Z</time>
      </trkpt>
      <trkpt lat="39.592367" lon="-4.237633">
        <ele>1073.0</ele>
        <time>2013-07-03T16:40:07Z</time>
      </trkpt>
      <trkpt lat="39.592333" lon="-4.237467">
        <ele>1069.0</ele>
        <time>2013-07-03T16:40:08Z</time>
      </trkpt>
      <trkpt lat="39.592400" lon="-4.237383">
        <ele>1064.0</ele>
        <time>2013-07-03T16:40:09Z</time>
      </trkpt>
      <trkpt lat="39.592467" lon="-4.237483">
        <ele>1069.0</ele>
        <time>2013-07-03T16:40:10Z</time>
      </trkpt>
      <trkpt lat="39.592400" lon="-4.237650">
        <ele>1067.0</ele>
        <time>2013-07-03T16:40:11Z</time>
      </trkpt>
      <trkpt lat="39.592233" lon="-4.237733">
        <ele>1062.0</ele>
        <time>2013-07-03T16:40:12Z</time>
      </trkpt>
      <trkpt lat="39.592117" lon="-4.237600">
        <ele>1059.0</ele>
        <time>2013-07-03T16:40:13Z</time>
      </trkpt>
      <trkpt lat="39.592117" lon="-4.237433">
        <ele>1055.0</ele>
        <time>2013-07-03T16:40:14Z</time>
      </trkpt>
      <trkpt lat="39.592200" lon="-4.237367">
        <ele>1053.0</ele>
        <time>2013-07-03T16:40:15Z</time>
      </trkpt>
      <trkpt lat="39.592283" lon="-4.237417">
        <ele>1050.0</ele>
        <time>2013-07-03T16:40:16Z</time>
      </trkpt>
      <trkpt lat="39.592317" lon="-4.237517">
        <ele>1050.0</ele>
        <time>2013-07-03T16:40:17Z</time>
      </trkpt>
      <trkpt lat="39.592317" lon="-4.237567">
        <ele>1047.0</ele>
        <time>2013-07-03T16:40:18Z</time>
      </trkpt>
      <trkpt lat="39.592317" lon="-4.237600">
        <ele>1043.0</ele>
        <time>2013-07-03T16:40:19Z</time>
      </trkpt>
      <trkpt lat="39.592317" lon="-4.237633">
        <ele>1040.0</ele>
        <time>2013-07-03T16:40:20Z</time>
      </trkpt>
      <trkpt lat="39.592350" lon="-4.237700">
        <ele>1033.0</ele>
        <time>2013-07-03T16:40:21Z</time>
      </trkpt>
      <trkpt lat="39.592400" lon="-4.237767">
        <ele>1028.0</ele>
        <time>2013-07-03T16:40:22Z</time>
      </trkpt>
      <trkpt lat="39.592450" lon="-4.237850">
        <ele>1027.0</ele>
        <time>2013-07-03T16:40:23Z</time>
      </trkpt>
      <trkpt lat="39.592517" lon="-4.237917">
        <ele>1027.0</ele>
        <time>2013-07-03T16:40:24Z</time>
      </trkpt>
      <trkpt lat="39.592567" lon="-4.237950">
        <ele>1026.0</ele>
        <time>2013-07-03T16:40:25Z</time>
      </trkpt>
      <trkpt lat="39.592617" lon="-4.237967">
        <ele>1024.0</ele>
        <time>2013-07-03T16:40:26Z</time>
      </trkpt>
      <trkpt lat="39.592667" lon="-4.237983">
        <ele>1022.0</ele>
        <time>2013-07-03T16:40:27Z</time>
      </trkpt>
      <trkpt lat="39.592700" lon="-4.238017">
        <ele>1019.0</ele>
        <time>2013-07-03T16:40:28Z</time>
      </trkpt>
      <trkpt lat="39.592767" lon="-4.238033">
        <ele>1016.0</ele>
        <time>2013-07-03T16:40:29Z</time>
      </trkpt>
      <trkpt lat="39.592817" lon="-4.238050">
        <ele>1012.0</ele>
        <time>2013-07-03T16:40:30Z</time>
      </trkpt>
      <trkpt lat="39.592883" lon="-4.238033">
        <ele>1009.0</ele>
        <time>2013-07-03T16:40:31Z</time>
      </trkpt>
      <trkpt lat="39.592950" lon="-4.238033">
        <ele>1005.0</ele>
        <time>2013-07-03T16:40:32Z</time>
      </trkpt>
      <trkpt lat="39.593017" lon="-4.238017">
        <ele>1002.0</ele>
        <time>2013-07-03T16:40:33Z</time>
      </trkpt>
      <trkpt lat="39.593067" lon="-4.238017">
        <ele>999.0</ele>
        <time>2013-07-03T16:40:34Z</time>
      </trkpt>
      <trkpt lat="39.593133" lon="-4.238017">
        <ele>995.0</ele>
        <time>2013-07-03T16:40:35Z</time>
      </trkpt>
      <trkpt lat="39.593200" lon="-4.238017">
        <ele>991.0</ele>
        <time>2013-07-03T16:40:36Z</time>
      </trkpt>
      <trkpt lat="39.593267" lon="-4.238017">
        <ele>989.0</ele>
        <time>2013-07-03T16:40:37Z</time>
      </trkpt>
      <trkpt lat="39.593333" lon="-4.238000">
        <ele>986.0</ele>
        <time>2013-07-03T16:40:38Z</time>
      </trkpt>
      <trkpt lat="39.593417" lon="-4.238000">
        <ele>984.0</ele>
        <time>2013-07-03T16:40:39Z</time>
      </trkpt>
      <trkpt lat="39.593483" lon="-4.237983">
        <ele>982.0</ele>
        <time>2013-07-03T16:40:40Z</time>
      </trkpt>
      <trkpt lat="39.593550" lon="-4.237950">
        <ele>979.0</ele>
        <time>2013-07-03T16:40:41Z</time>
      </trkpt>
      <trkpt lat="39.593617" lon="-4.237917">
        <ele>976.0</ele>
        <time>2013-07-03T16:40:42Z</time>
      </trkpt>
      <trkpt lat="39.593683" lon="-4.237867">
        <ele>973.0</ele>
        <time>2013-07-03T16:40:43Z</time>
      </trkpt>
      <trkpt lat="39.593733" lon="-4.237817">
        <ele>971.0</ele>
        <time>2013-07-03T16:40:44Z</time>
      </trkpt>
      <trkpt lat="39.593783" lon="-4.237783">
        <ele>968.0</ele>
        <time>2013-07-03T16:40:45Z</time>
      </trkpt>
      <trkpt lat="39.593850" lon="-4.237733">
        <ele>965.0</ele>
        <time>2013-07-03T16:40:46Z</time>
      </trkpt>
      <trkpt lat="39.593933" lon="-4.237700">
        <ele>963.0</ele>
        <time>2013-07-03T16:40:47Z</time>
      </trkpt>
      <trkpt lat="39.594000" lon="-4.237683">
        <ele>961.0</ele>
        <time>2013-07-03T16:40:48Z</time>
      </trkpt>
      <trkpt lat="39.594067" lon="-4.237683">
        <ele>961.0</ele>
        <time>2013-07-03T16:40:49Z</time>
      </trkpt>
      <trkpt lat="39.594133" lon="-4.237667">
        <ele>960.0</ele>
        <time>2013-07-03T16:40:50Z</time>
      </trkpt>
      <trkpt lat="39.594183" lon="-4.237667">
        <ele>958.0</ele>
        <time>2013-07-03T16:40:51Z</time>
      </trkpt>
      <trkpt lat="39.594233" lon="-4.237650">
        <ele>956.0</ele>
        <time>2013-07-03T16:40:52Z</time>
      </trkpt>
      <trkpt lat="39.594300" lon="-4.237650">
        <ele>954.0</ele>
        <time>2013-07-03T16:40:53Z</time>
      </trkpt>
      <trkpt lat="39.594367" lon="-4.237650">
        <ele>951.0</ele>
        <time>2013-07-03T16:40:54Z</time>
      </trkpt>
      <trkpt lat="39.594433" lon="-4.237667">
        <ele>949.0</ele>
        <time>2013-07-03T16:40:55Z</time>
      </trkpt>
      <trkpt lat="39.594500" lon="-4.237683">
        <ele>947.0</ele>
        <time>2013-07-03T16:40:56Z</time>
      </trkpt>
      <trkpt lat="39.594567" lon="-4.237700">
        <ele>945.0</ele>
        <time>2013-07-03T16:40:57Z</time>
      </trkpt>
      <trkpt lat="39.594617" lon="-4.237700">
        <ele>943.0</ele>
        <time>2013-07-03T16:40:58Z</time>
      </trkpt>
      <trkpt lat="39.594683" lon="-4.237717">
        <ele>941.0</ele>
        <time>2013-07-03T16:40:59Z</time>
      </trkpt>
      <trkpt lat="39.594767" lon="-4.237717">
        <ele>938.0</ele>
        <time>2013-07-03T16:41:00Z</time>
      </trkpt>
      <trkpt lat="39.594833" lon="-4.237717">
        <ele>935.0</ele>
        <time>2013-07-03T16:41:01Z</time>
      </trkpt>
      <trkpt lat="39.594900" lon="-4.237733">
        <ele>933.0</ele>
        <time>2013-07-03T16:41:02Z</time>
      </trkpt>
      <trkpt lat="39.594967" lon="-4.237717">
        <ele>937.0</ele>
        <time>2013-07-03T16:41:03Z</time>
      </trkpt>
      <trkpt lat="39.595033" lon="-4.237717">
        <ele>935.0</ele>
        <time>2013-07-03T16:41:04Z</time>
      </trkpt>
      <trkpt lat="39.595117" lon="-4.237717">
        <ele>933.0</ele>
        <time>2013-07-03T16:41:05Z</time>
      </trkpt>
      <trkpt lat="39.595183" lon="-4.237717">
        <ele>931.0</ele>
        <time>2013-07-03T16:41:06Z</time>
      </trkpt>
      <trkpt lat="39.595267" lon="-4.237717">
        <ele>929.0</ele>
        <time>2013-07-03T16:41:07Z</time>
      </trkpt>
      <trkpt lat="39.595333" lon="-4.237717">
        <ele>930.0</ele>
        <time>2013-07-03T16:41:08Z</time>
      </trkpt>
      <trkpt lat="39.595400" lon="-4.237717">
        <ele>929.0</ele>
        <time>2013-07-03T16:41:09Z</time>
      </trkpt>
      <trkpt lat="39.595483" lon="-4.237717">
        <ele>928.0</ele>
        <time>2013-07-03T16:41:10Z</time>
      </trkpt>
      <trkpt lat="39.595567" lon="-4.237717">
        <ele>927.0</ele>
        <time>2013-07-03T16:41:11Z</time>
      </trkpt>
      <trkpt lat="39.595667" lon="-4.237700">
        <ele>924.0</ele>
        <time>2013-07-03T16:41:12Z</time>
      </trkpt>
      <trkpt lat="39.595750" lon="-4.237700">
        <ele>921.0</ele>
        <time>2013-07-03T16:41:13Z</time>
      </trkpt>
      <trkpt lat="39.595833" lon="-4.237683">
        <ele>919.0</ele>
        <time>2013-07-03T16:41:14Z</time>
      </trkpt>
      <trkpt lat="39.595933" lon="-4.237700">
        <ele>916.0</ele>
        <time>2013-07-03T16:41:15Z</time>
      </trkpt>
      <trkpt lat="39.596017" lon="-4.237700">
        <ele>914.0</ele>
        <time>2013-07-03T16:41:16Z</time>
      </trkpt>
      <trkpt lat="39.596117" lon="-4.237717">
        <ele>912.0</ele>
        <time>2013-07-03T16:41:17Z</time>
      </trkpt>
      <trkpt lat="39.596217" lon="-4.237733">
        <ele>910.0</ele>
        <time>2013-07-03T16:41:18Z</time>
      </trkpt>
      <trkpt lat="39.596317" lon="-4.237733">
        <ele>907.0</ele>
        <time>2013-07-03T16:41:19Z</time>
      </trkpt>
      <trkpt lat="39.596417" lon="-4.237750">
        <ele>902.0</ele>
        <time>2013-07-03T16:41:20Z</time>
      </trkpt>
      <trkpt lat="39.596500" lon="-4.237767">
        <ele>901.0</ele>
        <time>2013-07-03T16:41:21Z</time>
      </trkpt>
      <trkpt lat="39.596567" lon="-4.237767">
        <ele>901.0</ele>
        <time>2013-07-03T16:41:22Z</time>
      </trkpt>
      <trkpt lat="39.596617" lon="-4.237750">
        <ele>900.0</ele>
        <time>2013-07-03T16:41:23Z</time>
      </trkpt>
      <trkpt lat="39.596667" lon="-4.237733">
        <ele>898.0</ele>
        <time>2013-07-03T16:41:24Z</time>
      </trkpt>
      <trkpt lat="39.596717" lon="-4.237717">
        <ele>896.0</ele>
        <time>2013-07-03T16:41:25Z</time>
      </trkpt>
      <trkpt lat="39.596783" lon="-4.237700">
        <ele>893.0</ele>
        <time>2013-07-03T16:41:26Z</time>
      </trkpt>
      <trkpt lat="39.596850" lon="-4.237650">
        <ele>890.0</ele>
        <time>2013-07-03T16:41:27Z</time>
      </trkpt>
      <trkpt lat="39.596917" lon="-4.237600">
        <ele>890.0</ele>
        <time>2013-07-03T16:41:28Z</time>
      </trkpt>
      <trkpt lat="39.596967" lon="-4.237567">
        <ele>889.0</ele>
        <time>2013-07-03T16:41:29Z</time>
      </trkpt>
      <trkpt lat="39.597033" lon="-4.237517">
        <ele>888.0</ele>
        <time>2013-07-03T16:41:30Z</time>
      </trkpt>
      <trkpt lat="39.597083" lon="-4.237500">
        <ele>886.0</ele>
        <time>2013-07-03T16:41:31Z</time>
      </trkpt>
      <trkpt lat="39.597150" lon="-4.237467">
        <ele>883.0</ele>
        <time>2013-07-03T16:41:32Z</time>
      </trkpt>
      <trkpt lat="39.597217" lon="-4.237450">
        <ele>880.0</ele>
        <time>2013-07-03T16:41:33Z</time>
      </trkpt>
      <trkpt lat="39.597283" lon="-4.237450">
        <ele>878.0</ele>
        <time>2013-07-03T16:41:34Z</time>
      </trkpt>
      <trkpt lat="39.597350" lon="-4.237433">
        <ele>876.0</ele>
        <time>2013-07-03T16:41:35Z</time>
      </trkpt>
      <trkpt lat="39.597417" lon="-4.237433">
        <ele>875.0</ele>
        <time>2013-07-03T16:41:36Z</time>
      </trkpt>
      <trkpt lat="39.597483" lon="-4.237417">
        <ele>872.0</ele>
        <time>2013-07-03T16:41:37Z</time>
      </trkpt>
      <trkpt lat="39.597533" lon="-4.237400">
        <ele>870.0</ele>
        <time>2013-07-03T16:41:38Z</time>
      </trkpt>
      <trkpt lat="39.597583" lon="-4.237400">
        <ele>869.0</ele>
        <time>2013-07-03T16:41:39Z</time>
      </trkpt>
      <trkpt lat="39.597633" lon="-4.237417">
        <ele>867.0</ele>
        <time>2013-07-03T16:41:40Z</time>
      </trkpt>
      <trkpt lat="39.597683" lon="-4.237433">
        <ele>865.0</ele>
        <time>2013-07-03T16:41:41Z</time>
      </trkpt>
      <trkpt lat="39.597750" lon="-4.237467">
        <ele>863.0</ele>
        <time>2013-07-03T16:41:42Z</time>
      </trkpt>
      <trkpt lat="39.597800" lon="-4.237483">
        <ele>861.0</ele>
        <time>2013-07-03T16:41:43Z</time>
      </trkpt>
      <trkpt lat="39.597850" lon="-4.237483">
        <ele>859.0</ele>
        <time>2013-07-03T16:41:44Z</time>
      </trkpt>
      <trkpt lat="39.597900" lon="-4.237500">
        <ele>858.0</ele>
        <time>2013-07-03T16:41:45Z</time>
      </trkpt>
      <trkpt lat="39.597950" lon="-4.237517">
        <ele>856.0</ele>
        <time>2013-07-03T16:41:46Z</time>
      </trkpt>
      <trkpt lat="39.598000" lon="-4.237517">
        <ele>855.0</ele>
        <time>2013-07-03T16:41:47Z</time>
      </trkpt>
      <trkpt lat="39.598067" lon="-4.237500">
        <ele>856.0</ele>
        <time>2013-07-03T16:41:48Z</time>
      </trkpt>
      <trkpt lat="39.598133" lon="-4.237500">
        <ele>854.0</ele>
        <time>2013-07-03T16:41:49Z</time>
      </trkpt>
      <trkpt lat="39.598200" lon="-4.237500">
        <ele>853.0</ele>
        <time>2013-07-03T16:41:50Z</time>
      </trkpt>
      <trkpt lat="39.598267" lon="-4.237517">
        <ele>852.0</ele>
        <time>2013-07-03T16:41:51Z</time>
      </trkpt>
      <trkpt lat="39.598300" lon="-4.237583">
        <ele>850.0</ele>
        <time>2013-07-03T16:41:52Z</time>
      </trkpt>
      <trkpt lat="39.598300" lon="-4.237683">
        <ele>849.0</ele>
        <time>2013-07-03T16:41:53Z</time>
      </trkpt>
      <trkpt lat="39.598250" lon="-4.237783">
        <ele>847.0</ele>
        <time>2013-07-03T16:41:54Z</time>
      </trkpt>
      <trkpt lat="39.598200" lon="-4.237867">
        <ele>845.0</ele>
        <time>2013-07-03T16:41:55Z</time>
      </trkpt>
      <trkpt lat="39.598133" lon="-4.237950">
        <ele>844.0</ele>
        <time>2013-07-03T16:41:56Z</time>
      </trkpt>
      <trkpt lat="39.598083" lon="-4.238017">
        <ele>843.0</ele>
        <time>2013-07-03T16:41:57Z</time>
      </trkpt>
      <trkpt lat="39.598067" lon="-4.238100">
        <ele>841.0</ele>
        <time>2013-07-03T16:41:58Z</time>
      </trkpt>
      <trkpt lat="39.598100" lon="-4.238183">
        <ele>837.0</ele>
        <time>2013-07-03T16:41:59Z</time>
      </trkpt>
      <trkpt lat="39.598150" lon="-4.238233">
        <ele>834.0</ele>
        <time>2013-07-03T16:42:00Z</time>
      </trkpt>
      <trkpt lat="39.598233" lon="-4.238250">
        <ele>831.0</ele>
        <time>2013-07-03T16:42:01Z</time>
      </trkpt>
      <trkpt lat="39.598300" lon="-4.238217">
        <ele>830.0</ele>
        <time>2013-07-03T16:42:02Z</time>
      </trkpt>
      <trkpt lat="39.598350" lon="-4.238167">
        <ele>829.0</ele>
        <time>2013-07-03T16:42:03Z</time>
      </trkpt>
      <trkpt lat="39.598383" lon="-4.238133">
        <ele>828.0</ele>
        <time>2013-07-03T16:42:04Z</time>
      </trkpt>
      <trkpt lat="39.598433" lon="-4.238133">
        <ele>827.0</ele>
        <time>2013-07-03T16:42:05Z</time>
      </trkpt>
      <trkpt lat="39.598483" lon="-4.238167">
        <ele>824.0</ele>
        <time>2013-07-03T16:42:06Z</time>
      </trkpt>
      <trkpt lat="39.598533" lon="-4.238250">
        <ele>822.0</ele>
        <time>2013-07-03T16:42:07Z</time>
      </trkpt>
      <trkpt lat="39.598567" lon="-4.238333">
        <ele>821.0</ele>
        <time>2013-07-03T16:42:08Z</time>
      </trkpt>
      <trkpt lat="39.598583" lon="-4.238433">
        <ele>819.0</ele>
        <time>2013-07-03T16:42:09Z</time>
      </trkpt>
      <trkpt lat="39.598600" lon="-4.238517">
        <ele>819.0</ele>
        <time>2013-07-03T16:42:10Z</time>
      </trkpt>
      <trkpt lat="39.598617" lon="-4.238567">
        <ele>818.0</ele>
        <time>2013-07-03T16:42:11Z</time>
      </trkpt>
      <trkpt lat="39.598633" lon="-4.238600">
        <ele>817.0</ele>
        <time>2013-07-03T16:42:12Z</time>
      </trkpt>
      <trkpt lat="39.598650" lon="-4.238650">
        <ele>815.0</ele>
        <time>2013-07-03T16:42:13Z</time>
      </trkpt>
      <trkpt lat="39.598667" lon="-4.238700">
        <ele>817.0</ele>
        <time>2013-07-03T16:42:14Z</time>
      </trkpt>
      <trkpt lat="39.598667" lon="-4.238733">
        <ele>817.0</ele>
        <time>2013-07-03T16:42:15Z</time>
      </trkpt>
      <trkpt lat="39.598683" lon="-4.238733">
        <ele>816.0</ele>
        <time>2013-07-03T16:42:16Z</time>
      </trkpt>
      <trkpt lat="39.598683" lon="-4.238733">
        <ele>816.0</ele>
        <time>2013-07-03T16:42:17Z</time>
      </trkpt>
      <trkpt lat="39.598683" lon="-4.238733">
        <ele>816.0</ele>
        <time>2013-07-03T16:42:18Z</time>
      </trkpt>
      <trkpt lat="39.598683" lon="-4.238733">
        <ele>816.0</ele>
        <time>2013-07-03T16:42:19Z</time>
      </trkpt>
      <trkpt lat="39.598683" lon="-4.238717">
        <ele>815.0</ele>
        <time>2013-07-03T16:42:20Z</time>
      </trkpt>
      <trkpt lat="39.598683" lon="-4.238733">
        <ele>815.0</ele>
        <time>2013-07-03T16:42:21Z</time>
      </trkpt>
      <trkpt lat="39.598683" lon="-4.238733">
        <ele>815.0</ele>
        <time>2013-07-03T16:42:22Z</time>
      </trkpt>
      <trkpt lat="39.598683" lon="-4.238717">
        <ele>815.0</ele>
        <time>2013-07-03T16:42:23Z</time>
      </trkpt>
      <trkpt lat="39.598683" lon="-4.238717">
        <ele>815.0</ele>
        <time>2013-07-03T16:42:24Z</time>
      </trkpt>
      <trkpt lat="39.598700" lon="-4.238733">
        <ele>815.0</ele>
        <time>2013-07-03T16:42:25Z</time>
      </trkpt>
      <trkpt lat="39.598700" lon="-4.238717">
        <ele>814.0</ele>
        <time>2013-07-03T16:42:26Z</time>
      </trkpt>
      <trkpt lat="39.598700" lon="-4.238717">
        <ele>814.0</ele>
        <time>2013-07-03T16:42:27Z</time>
      </trkpt>
      <trkpt lat="39.598717" lon="-4.238717">
        <ele>814.0</ele>
        <time>2013-07-03T16:42:28Z</time>
      </trkpt>
      <trkpt lat="39.598717" lon="-4.238717">
        <ele>813.0</ele>
        <time>2013-07-03T16:42:29Z</time>
      </trkpt>
      <trkpt lat="39.598717" lon="-4.238717">
        <ele>813.0</ele>
        <time>2013-07-03T16:42:30Z</time>
      </trkpt>
      <trkpt lat="39.598717" lon="-4.238717">
        <ele>813.0</ele>
        <time>2013-07-03T16:42:31Z</time>
      </trkpt>
      <trkpt lat="39.598717" lon="-4.238717">
        <ele>813.0</ele>
        <time>2013-07-03T16:42:32Z</time>
      </trkpt>
      <trkpt lat="39.598700" lon="-4.238717">
        <ele>813.0</ele>
        <time>2013-07-03T16:42:33Z</time>
      </trkpt>
      <trkpt lat="39.598700" lon="-4.238717">
        <ele>814.0</ele>
        <time>2013-07-03T16:42:34Z</time>
      </trkpt>
      <trkpt lat="39.598700" lon="-4.238717">
        <ele>814.0</ele>
        <time>2013-07-03T16:42:35Z</time>
      </trkpt>
      <trkpt lat="39.598683" lon="-4.238733">
        <ele>814.0</ele>
        <time>2013-07-03T16:42:36Z</time>
      </trkpt>
      <trkpt lat="39.598667" lon="-4.238733">
        <ele>815.0</ele>
        <time>2013-07-03T16:42:37Z</time>
      </trkpt>
      <trkpt lat="39.598667" lon="-4.238733">
        <ele>815.0</ele>
        <time>2013-07-03T16:42:38Z</time>
      </trkpt>
      <trkpt lat="39.598650" lon="-4.238733">
        <ele>814.0</ele>
        <time>2013-07-03T16:42:39Z</time>
      </trkpt>
      <trkpt lat="39.598650" lon="-4.238733">
        <ele>814.0</ele>
        <time>2013-07-03T16:42:40Z</time>
      </trkpt>
      <trkpt lat="39.598633" lon="-4.238733">
        <ele>814.0</ele>
        <time>2013-07-03T16:42:41Z</time>
      </trkpt>
      <trkpt lat="39.598633" lon="-4.238733">
        <ele>814.0</ele>
        <time>2013-07-03T16:42:42Z</time>
      </trkpt>
      <trkpt lat="39.598633" lon="-4.238733">
        <ele>813.0</ele>
        <time>2013-07-03T16:42:43Z</time>
      </trkpt>
      <trkpt lat="39.598633" lon="-4.238733">
        <ele>813.0</ele>
        <time>2013-07-03T16:42:44Z</time>
      </trkpt>
      <trkpt lat="39.598633" lon="-4.238733">
        <ele>813.0</ele>
        <time>2013-07-03T16:42:45Z</time>
      </trkpt>
      <trkpt lat="39.598633" lon="-4.238733">
        <ele>813.0</ele>
        <time>2013-07-03T16:42:46Z</time>
      </trkpt>
      <trkpt lat="39.598633" lon="-4.238733">
        <ele>813.0</ele>
        <time>2013-07-03T16:42:47Z</time>
      </trkpt>
      <trkpt lat="39.598633" lon="-4.238733">
        <ele>813.0</ele>
        <time>2013-07-03T16:42:48Z</time>
      </trkpt>
      <trkpt lat="39.598633" lon="-4.238733">
        <ele>813.0</ele>
        <time>2013-07-03T16:42:49Z</time>
      </trkpt>
      <trkpt lat="39.598633" lon="-4.238733">
        <ele>813.0</ele>
        <time>2013-07-03T16:42:50Z</time>
      </trkpt>
      <trkpt lat="39.598633" lon="-4.238733">
        <ele>813.0</ele>
        <time>2013-07-03T16:42:51Z</time>
      </trkpt>
      <trkpt lat="39.598633" lon="-4.238733">
        <ele>813.0</ele>
        <time>2013-07-03T16:42:52Z</time>
      </trkpt>
      <trkpt lat="39.598650" lon="-4.238733">
        <ele>813.0</ele>
        <time>2013-07-03T16:42:53Z</time>
      </trkpt>
      <trkpt lat="39.598633" lon="-4.238733">
        <ele>812.0</ele>
        <time>2013-07-03T16:42:54Z</time>
      </trkpt>
      <trkpt lat="39.598633" lon="-4.238733">
        <ele>812.0</ele>
        <time>2013-07-03T16:42:55Z</time>
      </trkpt>
      <trkpt lat="39.598633" lon="-4.238733">
        <ele>813.0</ele>
        <time>2013-07-03T16:42:56Z</time>
      </trkpt>
      <trkpt lat="39.598633" lon="-4.238733">
        <ele>813.0</ele>
        <time>2013-07-03T16:42:57Z</time>
      </trkpt>
      <trkpt lat="39.598633" lon="-4.238733">
        <ele>813.0</ele>
        <time>2013-07-03T16:42:58Z</time>
      </trkpt>
    </trkseg>
  </trk>
</gpx>
